<?xml version="1.0" encoding="UTF-8" standalone="no" ?>
<gpx xmlns="http://www.topografix.com/GPX/1/1" xmlns:xsi="http://www.w3.org/2001/XMLSchema-instance" xsi:schemaLocation="http://www.topografix.com/GPX/1/1 http://www.topografix.com/GPX/1/1/gpx.xsd" version="1.1" creator="VisuGPX - https://www.visugpx.com">
  <metadata>
    <name>Trail des Passerelles de Monteynard - Le Petit Train</name>
    <desc><![CDATA[ATTENTION - certains passages ne sont ouverts que lors de la course]]></desc>
  </metadata>
  <trk>
    <name><![CDATA[Monteynard Trail - Trail des Passerelle du Monteynard - Petit Train]]></name>
    <trkseg>
      <trkpt lat="44.96595" lon="5.69772">
        <ele>843.59997558594</ele>
        <time>2026-07-05T06:31:46.000Z</time>
      </trkpt>
      <trkpt lat="44.96594" lon="5.69771">
        <ele>843.59997558594</ele>
        <time>2026-07-05T06:31:47.000Z</time>
      </trkpt>
      <trkpt lat="44.96593" lon="5.69775">
        <ele>843.59997558594</ele>
        <time>2026-07-05T06:31:48.000Z</time>
      </trkpt>
      <trkpt lat="44.96591" lon="5.69779">
        <ele>843.59997558594</ele>
        <time>2026-07-05T06:31:49.000Z</time>
      </trkpt>
      <trkpt lat="44.96589" lon="5.69784">
        <ele>843.79998779297</ele>
        <time>2026-07-05T06:31:50.000Z</time>
      </trkpt>
      <trkpt lat="44.96588" lon="5.69788">
        <ele>843.79998779297</ele>
        <time>2026-07-05T06:31:51.000Z</time>
      </trkpt>
      <trkpt lat="44.96587" lon="5.69793">
        <ele>843.79998779297</ele>
        <time>2026-07-05T06:31:52.000Z</time>
      </trkpt>
      <trkpt lat="44.96585" lon="5.69797">
        <ele>843.79998779297</ele>
        <time>2026-07-05T06:31:53.000Z</time>
      </trkpt>
      <trkpt lat="44.96584" lon="5.69802">
        <ele>843.59997558594</ele>
        <time>2026-07-05T06:31:54.000Z</time>
      </trkpt>
      <trkpt lat="44.96583" lon="5.69806">
        <ele>843.40002441406</ele>
        <time>2026-07-05T06:31:55.000Z</time>
      </trkpt>
      <trkpt lat="44.96581" lon="5.69811">
        <ele>843.20001220703</ele>
        <time>2026-07-05T06:31:56.000Z</time>
      </trkpt>
      <trkpt lat="44.9658" lon="5.69815">
        <ele>843.20001220703</ele>
        <time>2026-07-05T06:31:57.000Z</time>
      </trkpt>
      <trkpt lat="44.96578" lon="5.6982">
        <ele>843.20001220703</ele>
        <time>2026-07-05T06:31:58.000Z</time>
      </trkpt>
      <trkpt lat="44.96577" lon="5.69824">
        <ele>843</ele>
        <time>2026-07-05T06:31:59.000Z</time>
      </trkpt>
      <trkpt lat="44.96576" lon="5.69829">
        <ele>843</ele>
        <time>2026-07-05T06:32:00.000Z</time>
      </trkpt>
      <trkpt lat="44.96575" lon="5.69833">
        <ele>842.79998779297</ele>
        <time>2026-07-05T06:32:01.000Z</time>
      </trkpt>
      <trkpt lat="44.96574" lon="5.69838">
        <ele>842.59997558594</ele>
        <time>2026-07-05T06:32:02.000Z</time>
      </trkpt>
      <trkpt lat="44.96572" lon="5.69842">
        <ele>842.59997558594</ele>
        <time>2026-07-05T06:32:03.000Z</time>
      </trkpt>
      <trkpt lat="44.96571" lon="5.69847">
        <ele>842.40002441406</ele>
        <time>2026-07-05T06:32:04.000Z</time>
      </trkpt>
      <trkpt lat="44.9657" lon="5.69851">
        <ele>842.40002441406</ele>
        <time>2026-07-05T06:32:05.000Z</time>
      </trkpt>
      <trkpt lat="44.96569" lon="5.69856">
        <ele>842.40002441406</ele>
        <time>2026-07-05T06:32:06.000Z</time>
      </trkpt>
      <trkpt lat="44.96568" lon="5.6986">
        <ele>842.40002441406</ele>
        <time>2026-07-05T06:32:07.000Z</time>
      </trkpt>
      <trkpt lat="44.96567" lon="5.69864">
        <ele>842.20001220703</ele>
        <time>2026-07-05T06:32:08.000Z</time>
      </trkpt>
      <trkpt lat="44.96566" lon="5.69868">
        <ele>842.20001220703</ele>
        <time>2026-07-05T06:32:09.000Z</time>
      </trkpt>
      <trkpt lat="44.96565" lon="5.69873">
        <ele>842</ele>
        <time>2026-07-05T06:32:10.000Z</time>
      </trkpt>
      <trkpt lat="44.96564" lon="5.69877">
        <ele>841.79998779297</ele>
        <time>2026-07-05T06:32:11.000Z</time>
      </trkpt>
      <trkpt lat="44.96563" lon="5.69882">
        <ele>841.79998779297</ele>
        <time>2026-07-05T06:32:12.000Z</time>
      </trkpt>
      <trkpt lat="44.96562" lon="5.69886">
        <ele>841.79998779297</ele>
        <time>2026-07-05T06:32:13.000Z</time>
      </trkpt>
      <trkpt lat="44.96561" lon="5.69891">
        <ele>841.79998779297</ele>
        <time>2026-07-05T06:32:14.000Z</time>
      </trkpt>
      <trkpt lat="44.9656" lon="5.69895">
        <ele>841.79998779297</ele>
        <time>2026-07-05T06:32:15.000Z</time>
      </trkpt>
      <trkpt lat="44.96559" lon="5.69899">
        <ele>841.59997558594</ele>
        <time>2026-07-05T06:32:16.000Z</time>
      </trkpt>
      <trkpt lat="44.96558" lon="5.69904">
        <ele>841.59997558594</ele>
        <time>2026-07-05T06:32:17.000Z</time>
      </trkpt>
      <trkpt lat="44.96557" lon="5.69908">
        <ele>841.59997558594</ele>
        <time>2026-07-05T06:32:18.000Z</time>
      </trkpt>
      <trkpt lat="44.96556" lon="5.69913">
        <ele>841.59997558594</ele>
        <time>2026-07-05T06:32:19.000Z</time>
      </trkpt>
      <trkpt lat="44.96554" lon="5.69917">
        <ele>841.59997558594</ele>
        <time>2026-07-05T06:32:20.000Z</time>
      </trkpt>
      <trkpt lat="44.96553" lon="5.69922">
        <ele>841.59997558594</ele>
        <time>2026-07-05T06:32:21.000Z</time>
      </trkpt>
      <trkpt lat="44.96552" lon="5.69926">
        <ele>841.59997558594</ele>
        <time>2026-07-05T06:32:22.000Z</time>
      </trkpt>
      <trkpt lat="44.96551" lon="5.69931">
        <ele>841.40002441406</ele>
        <time>2026-07-05T06:32:23.000Z</time>
      </trkpt>
      <trkpt lat="44.9655" lon="5.69935">
        <ele>841.20001220703</ele>
        <time>2026-07-05T06:32:24.000Z</time>
      </trkpt>
      <trkpt lat="44.96548" lon="5.6994">
        <ele>841</ele>
        <time>2026-07-05T06:32:25.000Z</time>
      </trkpt>
      <trkpt lat="44.96547" lon="5.69944">
        <ele>840.79998779297</ele>
        <time>2026-07-05T06:32:26.000Z</time>
      </trkpt>
      <trkpt lat="44.96546" lon="5.69948">
        <ele>840.79998779297</ele>
        <time>2026-07-05T06:32:27.000Z</time>
      </trkpt>
      <trkpt lat="44.96545" lon="5.69952">
        <ele>840.79998779297</ele>
        <time>2026-07-05T06:32:28.000Z</time>
      </trkpt>
      <trkpt lat="44.96544" lon="5.69957">
        <ele>840.79998779297</ele>
        <time>2026-07-05T06:32:29.000Z</time>
      </trkpt>
      <trkpt lat="44.96542" lon="5.69961">
        <ele>840.79998779297</ele>
        <time>2026-07-05T06:32:30.000Z</time>
      </trkpt>
      <trkpt lat="44.96541" lon="5.69965">
        <ele>840.79998779297</ele>
        <time>2026-07-05T06:32:31.000Z</time>
      </trkpt>
      <trkpt lat="44.9654" lon="5.6997">
        <ele>840.79998779297</ele>
        <time>2026-07-05T06:32:32.000Z</time>
      </trkpt>
      <trkpt lat="44.96539" lon="5.69974">
        <ele>840.79998779297</ele>
        <time>2026-07-05T06:32:33.000Z</time>
      </trkpt>
      <trkpt lat="44.96537" lon="5.69979">
        <ele>840.79998779297</ele>
        <time>2026-07-05T06:32:34.000Z</time>
      </trkpt>
      <trkpt lat="44.96535" lon="5.69983">
        <ele>841</ele>
        <time>2026-07-05T06:32:35.000Z</time>
      </trkpt>
      <trkpt lat="44.96533" lon="5.69987">
        <ele>841</ele>
        <time>2026-07-05T06:32:36.000Z</time>
      </trkpt>
      <trkpt lat="44.96531" lon="5.69991">
        <ele>841</ele>
        <time>2026-07-05T06:32:37.000Z</time>
      </trkpt>
      <trkpt lat="44.96529" lon="5.69996">
        <ele>841</ele>
        <time>2026-07-05T06:32:38.000Z</time>
      </trkpt>
      <trkpt lat="44.96528" lon="5.7">
        <ele>840.79998779297</ele>
        <time>2026-07-05T06:32:39.000Z</time>
      </trkpt>
      <trkpt lat="44.96526" lon="5.70005">
        <ele>840.79998779297</ele>
        <time>2026-07-05T06:32:40.000Z</time>
      </trkpt>
      <trkpt lat="44.96525" lon="5.70009">
        <ele>840.79998779297</ele>
        <time>2026-07-05T06:32:41.000Z</time>
      </trkpt>
      <trkpt lat="44.96524" lon="5.70013">
        <ele>840.79998779297</ele>
        <time>2026-07-05T06:32:42.000Z</time>
      </trkpt>
      <trkpt lat="44.96522" lon="5.70018">
        <ele>840.79998779297</ele>
        <time>2026-07-05T06:32:43.000Z</time>
      </trkpt>
      <trkpt lat="44.96521" lon="5.70022">
        <ele>840.79998779297</ele>
        <time>2026-07-05T06:32:44.000Z</time>
      </trkpt>
      <trkpt lat="44.9652" lon="5.70027">
        <ele>841</ele>
        <time>2026-07-05T06:32:45.000Z</time>
      </trkpt>
      <trkpt lat="44.9652" lon="5.70032">
        <ele>841</ele>
        <time>2026-07-05T06:32:46.000Z</time>
      </trkpt>
      <trkpt lat="44.96519" lon="5.70038">
        <ele>841</ele>
        <time>2026-07-05T06:32:47.000Z</time>
      </trkpt>
      <trkpt lat="44.96519" lon="5.70042">
        <ele>840.79998779297</ele>
        <time>2026-07-05T06:32:48.000Z</time>
      </trkpt>
      <trkpt lat="44.9652" lon="5.70046">
        <ele>840.79998779297</ele>
        <time>2026-07-05T06:32:49.000Z</time>
      </trkpt>
      <trkpt lat="44.96523" lon="5.70047">
        <ele>840.79998779297</ele>
        <time>2026-07-05T06:32:50.000Z</time>
      </trkpt>
      <trkpt lat="44.96525" lon="5.70048">
        <ele>840.79998779297</ele>
        <time>2026-07-05T06:32:51.000Z</time>
      </trkpt>
      <trkpt lat="44.96528" lon="5.70048">
        <ele>840.79998779297</ele>
        <time>2026-07-05T06:32:52.000Z</time>
      </trkpt>
      <trkpt lat="44.96531" lon="5.70049">
        <ele>840.79998779297</ele>
        <time>2026-07-05T06:32:53.000Z</time>
      </trkpt>
      <trkpt lat="44.96534" lon="5.70049">
        <ele>840.79998779297</ele>
        <time>2026-07-05T06:32:54.000Z</time>
      </trkpt>
      <trkpt lat="44.96537" lon="5.70049">
        <ele>840.79998779297</ele>
        <time>2026-07-05T06:32:55.000Z</time>
      </trkpt>
      <trkpt lat="44.9654" lon="5.7005">
        <ele>840.59997558594</ele>
        <time>2026-07-05T06:32:56.000Z</time>
      </trkpt>
      <trkpt lat="44.96543" lon="5.7005">
        <ele>840.40002441406</ele>
        <time>2026-07-05T06:32:57.000Z</time>
      </trkpt>
      <trkpt lat="44.96546" lon="5.7005">
        <ele>840.20001220703</ele>
        <time>2026-07-05T06:32:58.000Z</time>
      </trkpt>
      <trkpt lat="44.9655" lon="5.70051">
        <ele>840.20001220703</ele>
        <time>2026-07-05T06:32:59.000Z</time>
      </trkpt>
      <trkpt lat="44.96554" lon="5.70052">
        <ele>840</ele>
        <time>2026-07-05T06:33:00.000Z</time>
      </trkpt>
      <trkpt lat="44.96557" lon="5.70052">
        <ele>839.79998779297</ele>
        <time>2026-07-05T06:33:01.000Z</time>
      </trkpt>
      <trkpt lat="44.9656" lon="5.70052">
        <ele>839.79998779297</ele>
        <time>2026-07-05T06:33:02.000Z</time>
      </trkpt>
      <trkpt lat="44.96564" lon="5.70053">
        <ele>839.59997558594</ele>
        <time>2026-07-05T06:33:03.000Z</time>
      </trkpt>
      <trkpt lat="44.96567" lon="5.70054">
        <ele>839.40002441406</ele>
        <time>2026-07-05T06:33:04.000Z</time>
      </trkpt>
      <trkpt lat="44.9657" lon="5.70055">
        <ele>839.20001220703</ele>
        <time>2026-07-05T06:33:05.000Z</time>
      </trkpt>
      <trkpt lat="44.96573" lon="5.70055">
        <ele>839</ele>
        <time>2026-07-05T06:33:06.000Z</time>
      </trkpt>
      <trkpt lat="44.96577" lon="5.70056">
        <ele>839</ele>
        <time>2026-07-05T06:33:07.000Z</time>
      </trkpt>
      <trkpt lat="44.9658" lon="5.70057">
        <ele>838.79998779297</ele>
        <time>2026-07-05T06:33:08.000Z</time>
      </trkpt>
      <trkpt lat="44.96583" lon="5.70058">
        <ele>838.59997558594</ele>
        <time>2026-07-05T06:33:09.000Z</time>
      </trkpt>
      <trkpt lat="44.96587" lon="5.70059">
        <ele>838.59997558594</ele>
        <time>2026-07-05T06:33:10.000Z</time>
      </trkpt>
      <trkpt lat="44.9659" lon="5.70061">
        <ele>838.40002441406</ele>
        <time>2026-07-05T06:33:11.000Z</time>
      </trkpt>
      <trkpt lat="44.96593" lon="5.70062">
        <ele>838.40002441406</ele>
        <time>2026-07-05T06:33:12.000Z</time>
      </trkpt>
      <trkpt lat="44.96596" lon="5.70063">
        <ele>838.40002441406</ele>
        <time>2026-07-05T06:33:13.000Z</time>
      </trkpt>
      <trkpt lat="44.96599" lon="5.70065">
        <ele>838.20001220703</ele>
        <time>2026-07-05T06:33:14.000Z</time>
      </trkpt>
      <trkpt lat="44.96602" lon="5.70066">
        <ele>838.20001220703</ele>
        <time>2026-07-05T06:33:15.000Z</time>
      </trkpt>
      <trkpt lat="44.96605" lon="5.70067">
        <ele>838</ele>
        <time>2026-07-05T06:33:16.000Z</time>
      </trkpt>
      <trkpt lat="44.96609" lon="5.70068">
        <ele>837.79998779297</ele>
        <time>2026-07-05T06:33:17.000Z</time>
      </trkpt>
      <trkpt lat="44.96612" lon="5.7007">
        <ele>837.59997558594</ele>
        <time>2026-07-05T06:33:18.000Z</time>
      </trkpt>
      <trkpt lat="44.96615" lon="5.70072">
        <ele>837.40002441406</ele>
        <time>2026-07-05T06:33:19.000Z</time>
      </trkpt>
      <trkpt lat="44.96619" lon="5.70075">
        <ele>837.40002441406</ele>
        <time>2026-07-05T06:33:20.000Z</time>
      </trkpt>
      <trkpt lat="44.96622" lon="5.70078">
        <ele>837.40002441406</ele>
        <time>2026-07-05T06:33:21.000Z</time>
      </trkpt>
      <trkpt lat="44.96625" lon="5.7008">
        <ele>837.20001220703</ele>
        <time>2026-07-05T06:33:22.000Z</time>
      </trkpt>
      <trkpt lat="44.96628" lon="5.70083">
        <ele>837.20001220703</ele>
        <time>2026-07-05T06:33:23.000Z</time>
      </trkpt>
      <trkpt lat="44.96631" lon="5.70085">
        <ele>837</ele>
        <time>2026-07-05T06:33:24.000Z</time>
      </trkpt>
      <trkpt lat="44.96634" lon="5.70088">
        <ele>837</ele>
        <time>2026-07-05T06:33:25.000Z</time>
      </trkpt>
      <trkpt lat="44.96636" lon="5.7009">
        <ele>837</ele>
        <time>2026-07-05T06:33:26.000Z</time>
      </trkpt>
      <trkpt lat="44.9664" lon="5.70093">
        <ele>837</ele>
        <time>2026-07-05T06:33:27.000Z</time>
      </trkpt>
      <trkpt lat="44.96642" lon="5.70096">
        <ele>836.59997558594</ele>
        <time>2026-07-05T06:33:28.000Z</time>
      </trkpt>
      <trkpt lat="44.96645" lon="5.70098">
        <ele>836.59997558594</ele>
        <time>2026-07-05T06:33:29.000Z</time>
      </trkpt>
      <trkpt lat="44.96648" lon="5.70101">
        <ele>836.20001220703</ele>
        <time>2026-07-05T06:33:30.000Z</time>
      </trkpt>
      <trkpt lat="44.9665" lon="5.70103">
        <ele>835.79998779297</ele>
        <time>2026-07-05T06:33:31.000Z</time>
      </trkpt>
      <trkpt lat="44.96653" lon="5.70106">
        <ele>835.59997558594</ele>
        <time>2026-07-05T06:33:32.000Z</time>
      </trkpt>
      <trkpt lat="44.96656" lon="5.70108">
        <ele>835.59997558594</ele>
        <time>2026-07-05T06:33:33.000Z</time>
      </trkpt>
      <trkpt lat="44.96658" lon="5.70111">
        <ele>835.59997558594</ele>
        <time>2026-07-05T06:33:34.000Z</time>
      </trkpt>
      <trkpt lat="44.96661" lon="5.70111">
        <ele>835.40002441406</ele>
        <time>2026-07-05T06:33:35.000Z</time>
      </trkpt>
      <trkpt lat="44.96662" lon="5.70108">
        <ele>835.40002441406</ele>
        <time>2026-07-05T06:33:36.000Z</time>
      </trkpt>
      <trkpt lat="44.96663" lon="5.70105">
        <ele>835.40002441406</ele>
        <time>2026-07-05T06:33:37.000Z</time>
      </trkpt>
      <trkpt lat="44.96663" lon="5.70101">
        <ele>835.40002441406</ele>
        <time>2026-07-05T06:33:38.000Z</time>
      </trkpt>
      <trkpt lat="44.96663" lon="5.70096">
        <ele>835.40002441406</ele>
        <time>2026-07-05T06:33:39.000Z</time>
      </trkpt>
      <trkpt lat="44.96663" lon="5.70091">
        <ele>835.59997558594</ele>
        <time>2026-07-05T06:33:40.000Z</time>
      </trkpt>
      <trkpt lat="44.96663" lon="5.70087">
        <ele>835.59997558594</ele>
        <time>2026-07-05T06:33:41.000Z</time>
      </trkpt>
      <trkpt lat="44.96663" lon="5.70083">
        <ele>835.59997558594</ele>
        <time>2026-07-05T06:33:42.000Z</time>
      </trkpt>
      <trkpt lat="44.96663" lon="5.70079">
        <ele>835.79998779297</ele>
        <time>2026-07-05T06:33:43.000Z</time>
      </trkpt>
      <trkpt lat="44.96663" lon="5.70074">
        <ele>835.79998779297</ele>
        <time>2026-07-05T06:33:44.000Z</time>
      </trkpt>
      <trkpt lat="44.96663" lon="5.7007">
        <ele>835.79998779297</ele>
        <time>2026-07-05T06:33:45.000Z</time>
      </trkpt>
      <trkpt lat="44.96663" lon="5.70066">
        <ele>835.79998779297</ele>
        <time>2026-07-05T06:33:46.000Z</time>
      </trkpt>
      <trkpt lat="44.96663" lon="5.70061">
        <ele>836</ele>
        <time>2026-07-05T06:33:47.000Z</time>
      </trkpt>
      <trkpt lat="44.96663" lon="5.70057">
        <ele>836</ele>
        <time>2026-07-05T06:33:48.000Z</time>
      </trkpt>
      <trkpt lat="44.96663" lon="5.70053">
        <ele>836</ele>
        <time>2026-07-05T06:33:49.000Z</time>
      </trkpt>
      <trkpt lat="44.96664" lon="5.70049">
        <ele>836</ele>
        <time>2026-07-05T06:33:50.000Z</time>
      </trkpt>
      <trkpt lat="44.96663" lon="5.70044">
        <ele>836</ele>
        <time>2026-07-05T06:33:51.000Z</time>
      </trkpt>
      <trkpt lat="44.96664" lon="5.7004">
        <ele>835.79998779297</ele>
        <time>2026-07-05T06:33:52.000Z</time>
      </trkpt>
      <trkpt lat="44.96665" lon="5.70036">
        <ele>835.79998779297</ele>
        <time>2026-07-05T06:33:53.000Z</time>
      </trkpt>
      <trkpt lat="44.96666" lon="5.70031">
        <ele>835.79998779297</ele>
        <time>2026-07-05T06:33:54.000Z</time>
      </trkpt>
      <trkpt lat="44.96668" lon="5.70027">
        <ele>835.79998779297</ele>
        <time>2026-07-05T06:33:55.000Z</time>
      </trkpt>
      <trkpt lat="44.96671" lon="5.70024">
        <ele>835.59997558594</ele>
        <time>2026-07-05T06:33:56.000Z</time>
      </trkpt>
      <trkpt lat="44.96674" lon="5.70022">
        <ele>835.40002441406</ele>
        <time>2026-07-05T06:33:57.000Z</time>
      </trkpt>
      <trkpt lat="44.96678" lon="5.7002">
        <ele>835.20001220703</ele>
        <time>2026-07-05T06:33:58.000Z</time>
      </trkpt>
      <trkpt lat="44.96681" lon="5.70019">
        <ele>834.79998779297</ele>
        <time>2026-07-05T06:33:59.000Z</time>
      </trkpt>
      <trkpt lat="44.96685" lon="5.70018">
        <ele>834.59997558594</ele>
        <time>2026-07-05T06:34:00.000Z</time>
      </trkpt>
      <trkpt lat="44.96688" lon="5.70017">
        <ele>834.20001220703</ele>
        <time>2026-07-05T06:34:01.000Z</time>
      </trkpt>
      <trkpt lat="44.96692" lon="5.70016">
        <ele>834</ele>
        <time>2026-07-05T06:34:02.000Z</time>
      </trkpt>
      <trkpt lat="44.96695" lon="5.70015">
        <ele>833.59997558594</ele>
        <time>2026-07-05T06:34:03.000Z</time>
      </trkpt>
      <trkpt lat="44.96698" lon="5.70014">
        <ele>833.40002441406</ele>
        <time>2026-07-05T06:34:04.000Z</time>
      </trkpt>
      <trkpt lat="44.96702" lon="5.70013">
        <ele>833.20001220703</ele>
        <time>2026-07-05T06:34:05.000Z</time>
      </trkpt>
      <trkpt lat="44.96705" lon="5.70011">
        <ele>832.79998779297</ele>
        <time>2026-07-05T06:34:06.000Z</time>
      </trkpt>
      <trkpt lat="44.96708" lon="5.7001">
        <ele>832.40002441406</ele>
        <time>2026-07-05T06:34:07.000Z</time>
      </trkpt>
      <trkpt lat="44.96711" lon="5.70008">
        <ele>831.79998779297</ele>
        <time>2026-07-05T06:34:08.000Z</time>
      </trkpt>
      <trkpt lat="44.96714" lon="5.70005">
        <ele>831.40002441406</ele>
        <time>2026-07-05T06:34:09.000Z</time>
      </trkpt>
      <trkpt lat="44.96717" lon="5.70003">
        <ele>831.20001220703</ele>
        <time>2026-07-05T06:34:10.000Z</time>
      </trkpt>
      <trkpt lat="44.9672" lon="5.70002">
        <ele>830.79998779297</ele>
        <time>2026-07-05T06:34:11.000Z</time>
      </trkpt>
      <trkpt lat="44.96723" lon="5.7">
        <ele>830.79998779297</ele>
        <time>2026-07-05T06:34:12.000Z</time>
      </trkpt>
      <trkpt lat="44.96726" lon="5.69999">
        <ele>830.20001220703</ele>
        <time>2026-07-05T06:34:13.000Z</time>
      </trkpt>
      <trkpt lat="44.96729" lon="5.69996">
        <ele>829.79998779297</ele>
        <time>2026-07-05T06:34:14.000Z</time>
      </trkpt>
      <trkpt lat="44.96732" lon="5.69994">
        <ele>829.40002441406</ele>
        <time>2026-07-05T06:34:15.000Z</time>
      </trkpt>
      <trkpt lat="44.96736" lon="5.69993">
        <ele>829.20001220703</ele>
        <time>2026-07-05T06:34:16.000Z</time>
      </trkpt>
      <trkpt lat="44.9674" lon="5.69993">
        <ele>828.79998779297</ele>
        <time>2026-07-05T06:34:17.000Z</time>
      </trkpt>
      <trkpt lat="44.96743" lon="5.69994">
        <ele>828.40002441406</ele>
        <time>2026-07-05T06:34:18.000Z</time>
      </trkpt>
      <trkpt lat="44.96746" lon="5.69995">
        <ele>827.79998779297</ele>
        <time>2026-07-05T06:34:19.000Z</time>
      </trkpt>
      <trkpt lat="44.9675" lon="5.69995">
        <ele>827.40002441406</ele>
        <time>2026-07-05T06:34:20.000Z</time>
      </trkpt>
      <trkpt lat="44.96753" lon="5.69996">
        <ele>827.20001220703</ele>
        <time>2026-07-05T06:34:21.000Z</time>
      </trkpt>
      <trkpt lat="44.96756" lon="5.69997">
        <ele>826.79998779297</ele>
        <time>2026-07-05T06:34:22.000Z</time>
      </trkpt>
      <trkpt lat="44.9676" lon="5.69998">
        <ele>826.40002441406</ele>
        <time>2026-07-05T06:34:23.000Z</time>
      </trkpt>
      <trkpt lat="44.96763" lon="5.69998">
        <ele>826</ele>
        <time>2026-07-05T06:34:24.000Z</time>
      </trkpt>
      <trkpt lat="44.96766" lon="5.69997">
        <ele>825.40002441406</ele>
        <time>2026-07-05T06:34:25.000Z</time>
      </trkpt>
      <trkpt lat="44.96769" lon="5.69996">
        <ele>825.20001220703</ele>
        <time>2026-07-05T06:34:26.000Z</time>
      </trkpt>
      <trkpt lat="44.96773" lon="5.69995">
        <ele>824.79998779297</ele>
        <time>2026-07-05T06:34:27.000Z</time>
      </trkpt>
      <trkpt lat="44.96776" lon="5.69994">
        <ele>824.59997558594</ele>
        <time>2026-07-05T06:34:28.000Z</time>
      </trkpt>
      <trkpt lat="44.96779" lon="5.69993">
        <ele>824</ele>
        <time>2026-07-05T06:34:29.000Z</time>
      </trkpt>
      <trkpt lat="44.96783" lon="5.69992">
        <ele>823.59997558594</ele>
        <time>2026-07-05T06:34:30.000Z</time>
      </trkpt>
      <trkpt lat="44.96786" lon="5.69991">
        <ele>823.20001220703</ele>
        <time>2026-07-05T06:34:31.000Z</time>
      </trkpt>
      <trkpt lat="44.9679" lon="5.69991">
        <ele>823</ele>
        <time>2026-07-05T06:34:32.000Z</time>
      </trkpt>
      <trkpt lat="44.96793" lon="5.6999">
        <ele>822.59997558594</ele>
        <time>2026-07-05T06:34:33.000Z</time>
      </trkpt>
      <trkpt lat="44.96797" lon="5.69989">
        <ele>822.20001220703</ele>
        <time>2026-07-05T06:34:34.000Z</time>
      </trkpt>
      <trkpt lat="44.968" lon="5.69988">
        <ele>822</ele>
        <time>2026-07-05T06:34:35.000Z</time>
      </trkpt>
      <trkpt lat="44.96803" lon="5.69988">
        <ele>821.59997558594</ele>
        <time>2026-07-05T06:34:36.000Z</time>
      </trkpt>
      <trkpt lat="44.96807" lon="5.69987">
        <ele>821.40002441406</ele>
        <time>2026-07-05T06:34:37.000Z</time>
      </trkpt>
      <trkpt lat="44.9681" lon="5.69985">
        <ele>821</ele>
        <time>2026-07-05T06:34:38.000Z</time>
      </trkpt>
      <trkpt lat="44.96814" lon="5.69983">
        <ele>820.59997558594</ele>
        <time>2026-07-05T06:34:39.000Z</time>
      </trkpt>
      <trkpt lat="44.96818" lon="5.69982">
        <ele>820.20001220703</ele>
        <time>2026-07-05T06:34:40.000Z</time>
      </trkpt>
      <trkpt lat="44.96821" lon="5.69981">
        <ele>819.79998779297</ele>
        <time>2026-07-05T06:34:41.000Z</time>
      </trkpt>
      <trkpt lat="44.96824" lon="5.69979">
        <ele>819.40002441406</ele>
        <time>2026-07-05T06:34:42.000Z</time>
      </trkpt>
      <trkpt lat="44.96828" lon="5.69977">
        <ele>819.20001220703</ele>
        <time>2026-07-05T06:34:43.000Z</time>
      </trkpt>
      <trkpt lat="44.96831" lon="5.69976">
        <ele>818.79998779297</ele>
        <time>2026-07-05T06:34:44.000Z</time>
      </trkpt>
      <trkpt lat="44.96834" lon="5.69974">
        <ele>818.59997558594</ele>
        <time>2026-07-05T06:34:45.000Z</time>
      </trkpt>
      <trkpt lat="44.96837" lon="5.69972">
        <ele>818.40002441406</ele>
        <time>2026-07-05T06:34:46.000Z</time>
      </trkpt>
      <trkpt lat="44.9684" lon="5.69969">
        <ele>818.20001220703</ele>
        <time>2026-07-05T06:34:47.000Z</time>
      </trkpt>
      <trkpt lat="44.96843" lon="5.69967">
        <ele>817.79998779297</ele>
        <time>2026-07-05T06:34:48.000Z</time>
      </trkpt>
      <trkpt lat="44.96846" lon="5.69965">
        <ele>817.40002441406</ele>
        <time>2026-07-05T06:34:49.000Z</time>
      </trkpt>
      <trkpt lat="44.96849" lon="5.69963">
        <ele>817.20001220703</ele>
        <time>2026-07-05T06:34:50.000Z</time>
      </trkpt>
      <trkpt lat="44.96853" lon="5.69961">
        <ele>817</ele>
        <time>2026-07-05T06:34:51.000Z</time>
      </trkpt>
      <trkpt lat="44.96856" lon="5.69958">
        <ele>816.59997558594</ele>
        <time>2026-07-05T06:34:52.000Z</time>
      </trkpt>
      <trkpt lat="44.96859" lon="5.69956">
        <ele>816.20001220703</ele>
        <time>2026-07-05T06:34:53.000Z</time>
      </trkpt>
      <trkpt lat="44.96863" lon="5.69954">
        <ele>815.79998779297</ele>
        <time>2026-07-05T06:34:54.000Z</time>
      </trkpt>
      <trkpt lat="44.96866" lon="5.69953">
        <ele>815.40002441406</ele>
        <time>2026-07-05T06:34:55.000Z</time>
      </trkpt>
      <trkpt lat="44.9687" lon="5.69952">
        <ele>815.20001220703</ele>
        <time>2026-07-05T06:34:56.000Z</time>
      </trkpt>
      <trkpt lat="44.96873" lon="5.69951">
        <ele>814.79998779297</ele>
        <time>2026-07-05T06:34:57.000Z</time>
      </trkpt>
      <trkpt lat="44.96877" lon="5.6995">
        <ele>814.40002441406</ele>
        <time>2026-07-05T06:34:58.000Z</time>
      </trkpt>
      <trkpt lat="44.96881" lon="5.6995">
        <ele>814</ele>
        <time>2026-07-05T06:34:59.000Z</time>
      </trkpt>
      <trkpt lat="44.96885" lon="5.69951">
        <ele>813.79998779297</ele>
        <time>2026-07-05T06:35:00.000Z</time>
      </trkpt>
      <trkpt lat="44.96889" lon="5.69952">
        <ele>813.40002441406</ele>
        <time>2026-07-05T06:35:01.000Z</time>
      </trkpt>
      <trkpt lat="44.96892" lon="5.69954">
        <ele>813.40002441406</ele>
        <time>2026-07-05T06:35:02.000Z</time>
      </trkpt>
      <trkpt lat="44.96895" lon="5.69956">
        <ele>813.20001220703</ele>
        <time>2026-07-05T06:35:03.000Z</time>
      </trkpt>
      <trkpt lat="44.96898" lon="5.69959">
        <ele>812.79998779297</ele>
        <time>2026-07-05T06:35:04.000Z</time>
      </trkpt>
      <trkpt lat="44.96901" lon="5.69961">
        <ele>812.40002441406</ele>
        <time>2026-07-05T06:35:05.000Z</time>
      </trkpt>
      <trkpt lat="44.96904" lon="5.69963">
        <ele>812</ele>
        <time>2026-07-05T06:35:06.000Z</time>
      </trkpt>
      <trkpt lat="44.96908" lon="5.69964">
        <ele>811.79998779297</ele>
        <time>2026-07-05T06:35:07.000Z</time>
      </trkpt>
      <trkpt lat="44.96911" lon="5.69965">
        <ele>811.40002441406</ele>
        <time>2026-07-05T06:35:08.000Z</time>
      </trkpt>
      <trkpt lat="44.96915" lon="5.69965">
        <ele>811.20001220703</ele>
        <time>2026-07-05T06:35:09.000Z</time>
      </trkpt>
      <trkpt lat="44.96918" lon="5.69965">
        <ele>810.79998779297</ele>
        <time>2026-07-05T06:35:10.000Z</time>
      </trkpt>
      <trkpt lat="44.96922" lon="5.69964">
        <ele>810.40002441406</ele>
        <time>2026-07-05T06:35:11.000Z</time>
      </trkpt>
      <trkpt lat="44.96925" lon="5.69964">
        <ele>810.20001220703</ele>
        <time>2026-07-05T06:35:12.000Z</time>
      </trkpt>
      <trkpt lat="44.96929" lon="5.69963">
        <ele>810</ele>
        <time>2026-07-05T06:35:13.000Z</time>
      </trkpt>
      <trkpt lat="44.96932" lon="5.69962">
        <ele>809.59997558594</ele>
        <time>2026-07-05T06:35:14.000Z</time>
      </trkpt>
      <trkpt lat="44.96935" lon="5.69961">
        <ele>809.20001220703</ele>
        <time>2026-07-05T06:35:15.000Z</time>
      </trkpt>
      <trkpt lat="44.96938" lon="5.69959">
        <ele>809</ele>
        <time>2026-07-05T06:35:16.000Z</time>
      </trkpt>
      <trkpt lat="44.96942" lon="5.69958">
        <ele>808.59997558594</ele>
        <time>2026-07-05T06:35:17.000Z</time>
      </trkpt>
      <trkpt lat="44.96945" lon="5.69957">
        <ele>808.59997558594</ele>
        <time>2026-07-05T06:35:18.000Z</time>
      </trkpt>
      <trkpt lat="44.96948" lon="5.69955">
        <ele>808.20001220703</ele>
        <time>2026-07-05T06:35:19.000Z</time>
      </trkpt>
      <trkpt lat="44.96951" lon="5.69953">
        <ele>807.79998779297</ele>
        <time>2026-07-05T06:35:20.000Z</time>
      </trkpt>
      <trkpt lat="44.96955" lon="5.69952">
        <ele>807.40002441406</ele>
        <time>2026-07-05T06:35:21.000Z</time>
      </trkpt>
      <trkpt lat="44.96958" lon="5.69951">
        <ele>807.20001220703</ele>
        <time>2026-07-05T06:35:22.000Z</time>
      </trkpt>
      <trkpt lat="44.96961" lon="5.69949">
        <ele>807</ele>
        <time>2026-07-05T06:35:23.000Z</time>
      </trkpt>
      <trkpt lat="44.96964" lon="5.69948">
        <ele>806.79998779297</ele>
        <time>2026-07-05T06:35:24.000Z</time>
      </trkpt>
      <trkpt lat="44.96967" lon="5.69947">
        <ele>806.40002441406</ele>
        <time>2026-07-05T06:35:25.000Z</time>
      </trkpt>
      <trkpt lat="44.9697" lon="5.69946">
        <ele>806.20001220703</ele>
        <time>2026-07-05T06:35:26.000Z</time>
      </trkpt>
      <trkpt lat="44.96973" lon="5.69944">
        <ele>805.79998779297</ele>
        <time>2026-07-05T06:35:27.000Z</time>
      </trkpt>
      <trkpt lat="44.96976" lon="5.69942">
        <ele>805.59997558594</ele>
        <time>2026-07-05T06:35:28.000Z</time>
      </trkpt>
      <trkpt lat="44.96979" lon="5.6994">
        <ele>805.40002441406</ele>
        <time>2026-07-05T06:35:29.000Z</time>
      </trkpt>
      <trkpt lat="44.96983" lon="5.69938">
        <ele>805.20001220703</ele>
        <time>2026-07-05T06:35:30.000Z</time>
      </trkpt>
      <trkpt lat="44.96986" lon="5.69937">
        <ele>805</ele>
        <time>2026-07-05T06:35:31.000Z</time>
      </trkpt>
      <trkpt lat="44.9699" lon="5.69934">
        <ele>805</ele>
        <time>2026-07-05T06:35:32.000Z</time>
      </trkpt>
      <trkpt lat="44.96993" lon="5.69933">
        <ele>804.79998779297</ele>
        <time>2026-07-05T06:35:33.000Z</time>
      </trkpt>
      <trkpt lat="44.96996" lon="5.6993">
        <ele>804.59997558594</ele>
        <time>2026-07-05T06:35:34.000Z</time>
      </trkpt>
      <trkpt lat="44.97" lon="5.69928">
        <ele>804.40002441406</ele>
        <time>2026-07-05T06:35:35.000Z</time>
      </trkpt>
      <trkpt lat="44.97002" lon="5.69926">
        <ele>804.20001220703</ele>
        <time>2026-07-05T06:35:36.000Z</time>
      </trkpt>
      <trkpt lat="44.97006" lon="5.69923">
        <ele>804</ele>
        <time>2026-07-05T06:35:37.000Z</time>
      </trkpt>
      <trkpt lat="44.97009" lon="5.69922">
        <ele>803.79998779297</ele>
        <time>2026-07-05T06:35:38.000Z</time>
      </trkpt>
      <trkpt lat="44.97012" lon="5.6992">
        <ele>803.59997558594</ele>
        <time>2026-07-05T06:35:39.000Z</time>
      </trkpt>
      <trkpt lat="44.97016" lon="5.69918">
        <ele>803.40002441406</ele>
        <time>2026-07-05T06:35:40.000Z</time>
      </trkpt>
      <trkpt lat="44.97018" lon="5.69916">
        <ele>803.40002441406</ele>
        <time>2026-07-05T06:35:41.000Z</time>
      </trkpt>
      <trkpt lat="44.97022" lon="5.69914">
        <ele>803.20001220703</ele>
        <time>2026-07-05T06:35:42.000Z</time>
      </trkpt>
      <trkpt lat="44.97025" lon="5.69913">
        <ele>803</ele>
        <time>2026-07-05T06:35:43.000Z</time>
      </trkpt>
      <trkpt lat="44.97029" lon="5.69912">
        <ele>802.79998779297</ele>
        <time>2026-07-05T06:35:44.000Z</time>
      </trkpt>
      <trkpt lat="44.97032" lon="5.69911">
        <ele>802.59997558594</ele>
        <time>2026-07-05T06:35:45.000Z</time>
      </trkpt>
      <trkpt lat="44.97036" lon="5.6991">
        <ele>802.59997558594</ele>
        <time>2026-07-05T06:35:46.000Z</time>
      </trkpt>
      <trkpt lat="44.97039" lon="5.69909">
        <ele>802.40002441406</ele>
        <time>2026-07-05T06:35:47.000Z</time>
      </trkpt>
      <trkpt lat="44.97043" lon="5.69909">
        <ele>802.20001220703</ele>
        <time>2026-07-05T06:35:48.000Z</time>
      </trkpt>
      <trkpt lat="44.97047" lon="5.69908">
        <ele>802</ele>
        <time>2026-07-05T06:35:49.000Z</time>
      </trkpt>
      <trkpt lat="44.9705" lon="5.69907">
        <ele>801.79998779297</ele>
        <time>2026-07-05T06:35:50.000Z</time>
      </trkpt>
      <trkpt lat="44.97054" lon="5.69906">
        <ele>801.40002441406</ele>
        <time>2026-07-05T06:35:51.000Z</time>
      </trkpt>
      <trkpt lat="44.97057" lon="5.69905">
        <ele>801.20001220703</ele>
        <time>2026-07-05T06:35:52.000Z</time>
      </trkpt>
      <trkpt lat="44.9706" lon="5.69904">
        <ele>800.79998779297</ele>
        <time>2026-07-05T06:35:53.000Z</time>
      </trkpt>
      <trkpt lat="44.97064" lon="5.69903">
        <ele>800.59997558594</ele>
        <time>2026-07-05T06:35:54.000Z</time>
      </trkpt>
      <trkpt lat="44.97067" lon="5.69903">
        <ele>800.20001220703</ele>
        <time>2026-07-05T06:35:55.000Z</time>
      </trkpt>
      <trkpt lat="44.97071" lon="5.69902">
        <ele>800</ele>
        <time>2026-07-05T06:35:56.000Z</time>
      </trkpt>
      <trkpt lat="44.97074" lon="5.69901">
        <ele>799.79998779297</ele>
        <time>2026-07-05T06:35:57.000Z</time>
      </trkpt>
      <trkpt lat="44.97077" lon="5.699">
        <ele>799.40002441406</ele>
        <time>2026-07-05T06:35:58.000Z</time>
      </trkpt>
      <trkpt lat="44.97081" lon="5.69898">
        <ele>799</ele>
        <time>2026-07-05T06:35:59.000Z</time>
      </trkpt>
      <trkpt lat="44.97084" lon="5.69896">
        <ele>798.79998779297</ele>
        <time>2026-07-05T06:36:00.000Z</time>
      </trkpt>
      <trkpt lat="44.97087" lon="5.69894">
        <ele>798.59997558594</ele>
        <time>2026-07-05T06:36:01.000Z</time>
      </trkpt>
      <trkpt lat="44.97091" lon="5.69892">
        <ele>798.40002441406</ele>
        <time>2026-07-05T06:36:02.000Z</time>
      </trkpt>
      <trkpt lat="44.97094" lon="5.69891">
        <ele>798.20001220703</ele>
        <time>2026-07-05T06:36:03.000Z</time>
      </trkpt>
      <trkpt lat="44.97097" lon="5.69889">
        <ele>798</ele>
        <time>2026-07-05T06:36:04.000Z</time>
      </trkpt>
      <trkpt lat="44.971" lon="5.69887">
        <ele>797.59997558594</ele>
        <time>2026-07-05T06:36:05.000Z</time>
      </trkpt>
      <trkpt lat="44.97104" lon="5.69885">
        <ele>797.40002441406</ele>
        <time>2026-07-05T06:36:06.000Z</time>
      </trkpt>
      <trkpt lat="44.97107" lon="5.69883">
        <ele>797</ele>
        <time>2026-07-05T06:36:07.000Z</time>
      </trkpt>
      <trkpt lat="44.9711" lon="5.69881">
        <ele>796.79998779297</ele>
        <time>2026-07-05T06:36:08.000Z</time>
      </trkpt>
      <trkpt lat="44.97114" lon="5.6988">
        <ele>796.40002441406</ele>
        <time>2026-07-05T06:36:09.000Z</time>
      </trkpt>
      <trkpt lat="44.97117" lon="5.69879">
        <ele>796.20001220703</ele>
        <time>2026-07-05T06:36:10.000Z</time>
      </trkpt>
      <trkpt lat="44.97121" lon="5.69877">
        <ele>796</ele>
        <time>2026-07-05T06:36:11.000Z</time>
      </trkpt>
      <trkpt lat="44.97124" lon="5.69876">
        <ele>795.59997558594</ele>
        <time>2026-07-05T06:36:12.000Z</time>
      </trkpt>
      <trkpt lat="44.97128" lon="5.69874">
        <ele>795</ele>
        <time>2026-07-05T06:36:13.000Z</time>
      </trkpt>
      <trkpt lat="44.97131" lon="5.69873">
        <ele>794.79998779297</ele>
        <time>2026-07-05T06:36:14.000Z</time>
      </trkpt>
      <trkpt lat="44.97134" lon="5.69871">
        <ele>794.59997558594</ele>
        <time>2026-07-05T06:36:15.000Z</time>
      </trkpt>
      <trkpt lat="44.97138" lon="5.6987">
        <ele>794.40002441406</ele>
        <time>2026-07-05T06:36:16.000Z</time>
      </trkpt>
      <trkpt lat="44.97141" lon="5.69869">
        <ele>794</ele>
        <time>2026-07-05T06:36:17.000Z</time>
      </trkpt>
      <trkpt lat="44.97144" lon="5.69867">
        <ele>793.79998779297</ele>
        <time>2026-07-05T06:36:18.000Z</time>
      </trkpt>
      <trkpt lat="44.97148" lon="5.69866">
        <ele>793.40002441406</ele>
        <time>2026-07-05T06:36:19.000Z</time>
      </trkpt>
      <trkpt lat="44.97151" lon="5.69864">
        <ele>793</ele>
        <time>2026-07-05T06:36:20.000Z</time>
      </trkpt>
      <trkpt lat="44.97155" lon="5.69863">
        <ele>792.59997558594</ele>
        <time>2026-07-05T06:36:21.000Z</time>
      </trkpt>
      <trkpt lat="44.97158" lon="5.69861">
        <ele>792</ele>
        <time>2026-07-05T06:36:22.000Z</time>
      </trkpt>
      <trkpt lat="44.97162" lon="5.6986">
        <ele>792</ele>
        <time>2026-07-05T06:36:23.000Z</time>
      </trkpt>
      <trkpt lat="44.97165" lon="5.69858">
        <ele>791.59997558594</ele>
        <time>2026-07-05T06:36:24.000Z</time>
      </trkpt>
      <trkpt lat="44.97168" lon="5.69857">
        <ele>791.40002441406</ele>
        <time>2026-07-05T06:36:25.000Z</time>
      </trkpt>
      <trkpt lat="44.97172" lon="5.69855">
        <ele>791</ele>
        <time>2026-07-05T06:36:26.000Z</time>
      </trkpt>
      <trkpt lat="44.97175" lon="5.69854">
        <ele>790.79998779297</ele>
        <time>2026-07-05T06:36:27.000Z</time>
      </trkpt>
      <trkpt lat="44.97179" lon="5.69852">
        <ele>790.40002441406</ele>
        <time>2026-07-05T06:36:28.000Z</time>
      </trkpt>
      <trkpt lat="44.97182" lon="5.69851">
        <ele>790.40002441406</ele>
        <time>2026-07-05T06:36:29.000Z</time>
      </trkpt>
      <trkpt lat="44.97186" lon="5.69849">
        <ele>789.79998779297</ele>
        <time>2026-07-05T06:36:30.000Z</time>
      </trkpt>
      <trkpt lat="44.97189" lon="5.69847">
        <ele>789.40002441406</ele>
        <time>2026-07-05T06:36:31.000Z</time>
      </trkpt>
      <trkpt lat="44.97193" lon="5.69845">
        <ele>789.20001220703</ele>
        <time>2026-07-05T06:36:32.000Z</time>
      </trkpt>
      <trkpt lat="44.97197" lon="5.69843">
        <ele>789</ele>
        <time>2026-07-05T06:36:33.000Z</time>
      </trkpt>
      <trkpt lat="44.972" lon="5.69841">
        <ele>788.59997558594</ele>
        <time>2026-07-05T06:36:34.000Z</time>
      </trkpt>
      <trkpt lat="44.97204" lon="5.6984">
        <ele>788.20001220703</ele>
        <time>2026-07-05T06:36:35.000Z</time>
      </trkpt>
      <trkpt lat="44.97207" lon="5.69838">
        <ele>787.79998779297</ele>
        <time>2026-07-05T06:36:36.000Z</time>
      </trkpt>
      <trkpt lat="44.9721" lon="5.69836">
        <ele>787.40002441406</ele>
        <time>2026-07-05T06:36:37.000Z</time>
      </trkpt>
      <trkpt lat="44.97214" lon="5.69834">
        <ele>787</ele>
        <time>2026-07-05T06:36:38.000Z</time>
      </trkpt>
      <trkpt lat="44.97217" lon="5.69832">
        <ele>786.79998779297</ele>
        <time>2026-07-05T06:36:39.000Z</time>
      </trkpt>
      <trkpt lat="44.97221" lon="5.6983">
        <ele>786.59997558594</ele>
        <time>2026-07-05T06:36:40.000Z</time>
      </trkpt>
      <trkpt lat="44.97224" lon="5.69829">
        <ele>786.40002441406</ele>
        <time>2026-07-05T06:36:41.000Z</time>
      </trkpt>
      <trkpt lat="44.97227" lon="5.69827">
        <ele>786.20001220703</ele>
        <time>2026-07-05T06:36:42.000Z</time>
      </trkpt>
      <trkpt lat="44.97231" lon="5.69825">
        <ele>786</ele>
        <time>2026-07-05T06:36:43.000Z</time>
      </trkpt>
      <trkpt lat="44.97234" lon="5.69823">
        <ele>785.59997558594</ele>
        <time>2026-07-05T06:36:44.000Z</time>
      </trkpt>
      <trkpt lat="44.97237" lon="5.69821">
        <ele>785.20001220703</ele>
        <time>2026-07-05T06:36:45.000Z</time>
      </trkpt>
      <trkpt lat="44.97241" lon="5.69819">
        <ele>784.79998779297</ele>
        <time>2026-07-05T06:36:46.000Z</time>
      </trkpt>
      <trkpt lat="44.97244" lon="5.69817">
        <ele>784.59997558594</ele>
        <time>2026-07-05T06:36:47.000Z</time>
      </trkpt>
      <trkpt lat="44.97247" lon="5.69816">
        <ele>784.40002441406</ele>
        <time>2026-07-05T06:36:48.000Z</time>
      </trkpt>
      <trkpt lat="44.97251" lon="5.69814">
        <ele>784</ele>
        <time>2026-07-05T06:36:49.000Z</time>
      </trkpt>
      <trkpt lat="44.97254" lon="5.69813">
        <ele>783.79998779297</ele>
        <time>2026-07-05T06:36:50.000Z</time>
      </trkpt>
      <trkpt lat="44.97257" lon="5.69811">
        <ele>783.59997558594</ele>
        <time>2026-07-05T06:36:51.000Z</time>
      </trkpt>
      <trkpt lat="44.97261" lon="5.69809">
        <ele>783.59997558594</ele>
        <time>2026-07-05T06:36:52.000Z</time>
      </trkpt>
      <trkpt lat="44.97264" lon="5.69807">
        <ele>783</ele>
        <time>2026-07-05T06:36:53.000Z</time>
      </trkpt>
      <trkpt lat="44.97267" lon="5.69805">
        <ele>782.59997558594</ele>
        <time>2026-07-05T06:36:54.000Z</time>
      </trkpt>
      <trkpt lat="44.9727" lon="5.69803">
        <ele>782.40002441406</ele>
        <time>2026-07-05T06:36:55.000Z</time>
      </trkpt>
      <trkpt lat="44.97273" lon="5.69801">
        <ele>782.20001220703</ele>
        <time>2026-07-05T06:36:56.000Z</time>
      </trkpt>
      <trkpt lat="44.97277" lon="5.698">
        <ele>781.79998779297</ele>
        <time>2026-07-05T06:36:57.000Z</time>
      </trkpt>
      <trkpt lat="44.9728" lon="5.69798">
        <ele>781.40002441406</ele>
        <time>2026-07-05T06:36:58.000Z</time>
      </trkpt>
      <trkpt lat="44.97283" lon="5.69796">
        <ele>781.20001220703</ele>
        <time>2026-07-05T06:36:59.000Z</time>
      </trkpt>
      <trkpt lat="44.97287" lon="5.69795">
        <ele>781</ele>
        <time>2026-07-05T06:37:00.000Z</time>
      </trkpt>
      <trkpt lat="44.9729" lon="5.69793">
        <ele>780.79998779297</ele>
        <time>2026-07-05T06:37:01.000Z</time>
      </trkpt>
      <trkpt lat="44.97293" lon="5.69791">
        <ele>780.59997558594</ele>
        <time>2026-07-05T06:37:02.000Z</time>
      </trkpt>
      <trkpt lat="44.97296" lon="5.69789">
        <ele>780.40002441406</ele>
        <time>2026-07-05T06:37:03.000Z</time>
      </trkpt>
      <trkpt lat="44.973" lon="5.69787">
        <ele>780</ele>
        <time>2026-07-05T06:37:04.000Z</time>
      </trkpt>
      <trkpt lat="44.97303" lon="5.69785">
        <ele>779.59997558594</ele>
        <time>2026-07-05T06:37:05.000Z</time>
      </trkpt>
      <trkpt lat="44.97306" lon="5.69784">
        <ele>779.20001220703</ele>
        <time>2026-07-05T06:37:06.000Z</time>
      </trkpt>
      <trkpt lat="44.9731" lon="5.69782">
        <ele>778.79998779297</ele>
        <time>2026-07-05T06:37:07.000Z</time>
      </trkpt>
      <trkpt lat="44.97313" lon="5.6978">
        <ele>778.59997558594</ele>
        <time>2026-07-05T06:37:08.000Z</time>
      </trkpt>
      <trkpt lat="44.97317" lon="5.69778">
        <ele>778</ele>
        <time>2026-07-05T06:37:09.000Z</time>
      </trkpt>
      <trkpt lat="44.9732" lon="5.69776">
        <ele>778</ele>
        <time>2026-07-05T06:37:10.000Z</time>
      </trkpt>
      <trkpt lat="44.97323" lon="5.69774">
        <ele>777.59997558594</ele>
        <time>2026-07-05T06:37:11.000Z</time>
      </trkpt>
      <trkpt lat="44.97327" lon="5.69772">
        <ele>777.20001220703</ele>
        <time>2026-07-05T06:37:12.000Z</time>
      </trkpt>
      <trkpt lat="44.9733" lon="5.69771">
        <ele>776.59997558594</ele>
        <time>2026-07-05T06:37:13.000Z</time>
      </trkpt>
      <trkpt lat="44.97334" lon="5.69769">
        <ele>776.40002441406</ele>
        <time>2026-07-05T06:37:14.000Z</time>
      </trkpt>
      <trkpt lat="44.97337" lon="5.69767">
        <ele>776</ele>
        <time>2026-07-05T06:37:15.000Z</time>
      </trkpt>
      <trkpt lat="44.97341" lon="5.69765">
        <ele>775.79998779297</ele>
        <time>2026-07-05T06:37:16.000Z</time>
      </trkpt>
      <trkpt lat="44.97343" lon="5.69764">
        <ele>775.59997558594</ele>
        <time>2026-07-05T06:37:17.000Z</time>
      </trkpt>
      <trkpt lat="44.97347" lon="5.69761">
        <ele>775.20001220703</ele>
        <time>2026-07-05T06:37:18.000Z</time>
      </trkpt>
      <trkpt lat="44.97351" lon="5.6976">
        <ele>775</ele>
        <time>2026-07-05T06:37:19.000Z</time>
      </trkpt>
      <trkpt lat="44.97354" lon="5.69758">
        <ele>774.79998779297</ele>
        <time>2026-07-05T06:37:20.000Z</time>
      </trkpt>
      <trkpt lat="44.97358" lon="5.69757">
        <ele>774.40002441406</ele>
        <time>2026-07-05T06:37:21.000Z</time>
      </trkpt>
      <trkpt lat="44.97361" lon="5.69755">
        <ele>774</ele>
        <time>2026-07-05T06:37:22.000Z</time>
      </trkpt>
      <trkpt lat="44.97365" lon="5.69753">
        <ele>773.59997558594</ele>
        <time>2026-07-05T06:37:23.000Z</time>
      </trkpt>
      <trkpt lat="44.97368" lon="5.69751">
        <ele>773.20001220703</ele>
        <time>2026-07-05T06:37:24.000Z</time>
      </trkpt>
      <trkpt lat="44.97372" lon="5.69749">
        <ele>772.59997558594</ele>
        <time>2026-07-05T06:37:25.000Z</time>
      </trkpt>
      <trkpt lat="44.97375" lon="5.69748">
        <ele>772.40002441406</ele>
        <time>2026-07-05T06:37:26.000Z</time>
      </trkpt>
      <trkpt lat="44.97378" lon="5.69746">
        <ele>772</ele>
        <time>2026-07-05T06:37:27.000Z</time>
      </trkpt>
      <trkpt lat="44.97382" lon="5.69745">
        <ele>771.59997558594</ele>
        <time>2026-07-05T06:37:28.000Z</time>
      </trkpt>
      <trkpt lat="44.97386" lon="5.69744">
        <ele>771</ele>
        <time>2026-07-05T06:37:29.000Z</time>
      </trkpt>
      <trkpt lat="44.97389" lon="5.69743">
        <ele>770.79998779297</ele>
        <time>2026-07-05T06:37:30.000Z</time>
      </trkpt>
      <trkpt lat="44.97393" lon="5.69741">
        <ele>770.40002441406</ele>
        <time>2026-07-05T06:37:31.000Z</time>
      </trkpt>
      <trkpt lat="44.97396" lon="5.6974">
        <ele>770</ele>
        <time>2026-07-05T06:37:32.000Z</time>
      </trkpt>
      <trkpt lat="44.97399" lon="5.69738">
        <ele>769.59997558594</ele>
        <time>2026-07-05T06:37:33.000Z</time>
      </trkpt>
      <trkpt lat="44.97402" lon="5.69737">
        <ele>769</ele>
        <time>2026-07-05T06:37:34.000Z</time>
      </trkpt>
      <trkpt lat="44.97406" lon="5.69736">
        <ele>768.59997558594</ele>
        <time>2026-07-05T06:37:35.000Z</time>
      </trkpt>
      <trkpt lat="44.9741" lon="5.69735">
        <ele>768.20001220703</ele>
        <time>2026-07-05T06:37:36.000Z</time>
      </trkpt>
      <trkpt lat="44.97414" lon="5.69735">
        <ele>767.79998779297</ele>
        <time>2026-07-05T06:37:37.000Z</time>
      </trkpt>
      <trkpt lat="44.97417" lon="5.69734">
        <ele>767.40002441406</ele>
        <time>2026-07-05T06:37:38.000Z</time>
      </trkpt>
      <trkpt lat="44.97422" lon="5.69734">
        <ele>767</ele>
        <time>2026-07-05T06:37:39.000Z</time>
      </trkpt>
      <trkpt lat="44.97425" lon="5.69735">
        <ele>766.59997558594</ele>
        <time>2026-07-05T06:37:40.000Z</time>
      </trkpt>
      <trkpt lat="44.97429" lon="5.69735">
        <ele>766.40002441406</ele>
        <time>2026-07-05T06:37:41.000Z</time>
      </trkpt>
      <trkpt lat="44.97432" lon="5.69735">
        <ele>766</ele>
        <time>2026-07-05T06:37:42.000Z</time>
      </trkpt>
      <trkpt lat="44.97435" lon="5.69734">
        <ele>765.40002441406</ele>
        <time>2026-07-05T06:37:43.000Z</time>
      </trkpt>
      <trkpt lat="44.97439" lon="5.69734">
        <ele>765</ele>
        <time>2026-07-05T06:37:44.000Z</time>
      </trkpt>
      <trkpt lat="44.97442" lon="5.69733">
        <ele>764.20001220703</ele>
        <time>2026-07-05T06:37:45.000Z</time>
      </trkpt>
      <trkpt lat="44.97446" lon="5.69734">
        <ele>763.59997558594</ele>
        <time>2026-07-05T06:37:46.000Z</time>
      </trkpt>
      <trkpt lat="44.97449" lon="5.69733">
        <ele>763.20001220703</ele>
        <time>2026-07-05T06:37:47.000Z</time>
      </trkpt>
      <trkpt lat="44.97453" lon="5.69732">
        <ele>762.79998779297</ele>
        <time>2026-07-05T06:37:48.000Z</time>
      </trkpt>
      <trkpt lat="44.97456" lon="5.69731">
        <ele>762.20001220703</ele>
        <time>2026-07-05T06:37:49.000Z</time>
      </trkpt>
      <trkpt lat="44.97459" lon="5.69731">
        <ele>761.79998779297</ele>
        <time>2026-07-05T06:37:50.000Z</time>
      </trkpt>
      <trkpt lat="44.97463" lon="5.69731">
        <ele>761.40002441406</ele>
        <time>2026-07-05T06:37:51.000Z</time>
      </trkpt>
      <trkpt lat="44.97467" lon="5.6973">
        <ele>761.20001220703</ele>
        <time>2026-07-05T06:37:52.000Z</time>
      </trkpt>
      <trkpt lat="44.97471" lon="5.6973">
        <ele>761</ele>
        <time>2026-07-05T06:37:53.000Z</time>
      </trkpt>
      <trkpt lat="44.97474" lon="5.6973">
        <ele>760.59997558594</ele>
        <time>2026-07-05T06:37:54.000Z</time>
      </trkpt>
      <trkpt lat="44.97477" lon="5.69729">
        <ele>760.40002441406</ele>
        <time>2026-07-05T06:37:55.000Z</time>
      </trkpt>
      <trkpt lat="44.97481" lon="5.69728">
        <ele>760</ele>
        <time>2026-07-05T06:37:56.000Z</time>
      </trkpt>
      <trkpt lat="44.97484" lon="5.69728">
        <ele>759.79998779297</ele>
        <time>2026-07-05T06:37:57.000Z</time>
      </trkpt>
      <trkpt lat="44.97488" lon="5.69728">
        <ele>759.59997558594</ele>
        <time>2026-07-05T06:37:58.000Z</time>
      </trkpt>
      <trkpt lat="44.97491" lon="5.69728">
        <ele>759.40002441406</ele>
        <time>2026-07-05T06:37:59.000Z</time>
      </trkpt>
      <trkpt lat="44.97495" lon="5.69728">
        <ele>759.20001220703</ele>
        <time>2026-07-05T06:38:00.000Z</time>
      </trkpt>
      <trkpt lat="44.97498" lon="5.69728">
        <ele>759</ele>
        <time>2026-07-05T06:38:01.000Z</time>
      </trkpt>
      <trkpt lat="44.97502" lon="5.69728">
        <ele>758.79998779297</ele>
        <time>2026-07-05T06:38:02.000Z</time>
      </trkpt>
      <trkpt lat="44.97505" lon="5.69727">
        <ele>758.59997558594</ele>
        <time>2026-07-05T06:38:03.000Z</time>
      </trkpt>
      <trkpt lat="44.97508" lon="5.69726">
        <ele>758.40002441406</ele>
        <time>2026-07-05T06:38:04.000Z</time>
      </trkpt>
      <trkpt lat="44.97512" lon="5.69725">
        <ele>757.79998779297</ele>
        <time>2026-07-05T06:38:05.000Z</time>
      </trkpt>
      <trkpt lat="44.97516" lon="5.69725">
        <ele>757.59997558594</ele>
        <time>2026-07-05T06:38:06.000Z</time>
      </trkpt>
      <trkpt lat="44.97519" lon="5.69724">
        <ele>757.40002441406</ele>
        <time>2026-07-05T06:38:07.000Z</time>
      </trkpt>
      <trkpt lat="44.97523" lon="5.69723">
        <ele>757</ele>
        <time>2026-07-05T06:38:08.000Z</time>
      </trkpt>
      <trkpt lat="44.97526" lon="5.69722">
        <ele>756.59997558594</ele>
        <time>2026-07-05T06:38:09.000Z</time>
      </trkpt>
      <trkpt lat="44.97529" lon="5.69721">
        <ele>756.40002441406</ele>
        <time>2026-07-05T06:38:10.000Z</time>
      </trkpt>
      <trkpt lat="44.97532" lon="5.6972">
        <ele>756</ele>
        <time>2026-07-05T06:38:11.000Z</time>
      </trkpt>
      <trkpt lat="44.97535" lon="5.69719">
        <ele>755.79998779297</ele>
        <time>2026-07-05T06:38:12.000Z</time>
      </trkpt>
      <trkpt lat="44.97539" lon="5.69718">
        <ele>755.59997558594</ele>
        <time>2026-07-05T06:38:13.000Z</time>
      </trkpt>
      <trkpt lat="44.97542" lon="5.69718">
        <ele>755.40002441406</ele>
        <time>2026-07-05T06:38:14.000Z</time>
      </trkpt>
      <trkpt lat="44.97546" lon="5.69717">
        <ele>755</ele>
        <time>2026-07-05T06:38:15.000Z</time>
      </trkpt>
      <trkpt lat="44.97549" lon="5.69717">
        <ele>754.59997558594</ele>
        <time>2026-07-05T06:38:16.000Z</time>
      </trkpt>
      <trkpt lat="44.97553" lon="5.69716">
        <ele>754.40002441406</ele>
        <time>2026-07-05T06:38:17.000Z</time>
      </trkpt>
      <trkpt lat="44.97556" lon="5.69717">
        <ele>754</ele>
        <time>2026-07-05T06:38:18.000Z</time>
      </trkpt>
      <trkpt lat="44.9756" lon="5.69716">
        <ele>753.79998779297</ele>
        <time>2026-07-05T06:38:19.000Z</time>
      </trkpt>
      <trkpt lat="44.97563" lon="5.69716">
        <ele>753.40002441406</ele>
        <time>2026-07-05T06:38:20.000Z</time>
      </trkpt>
      <trkpt lat="44.97567" lon="5.69716">
        <ele>753</ele>
        <time>2026-07-05T06:38:21.000Z</time>
      </trkpt>
      <trkpt lat="44.97571" lon="5.69716">
        <ele>752.79998779297</ele>
        <time>2026-07-05T06:38:22.000Z</time>
      </trkpt>
      <trkpt lat="44.97575" lon="5.69717">
        <ele>752.40002441406</ele>
        <time>2026-07-05T06:38:23.000Z</time>
      </trkpt>
      <trkpt lat="44.97578" lon="5.69716">
        <ele>752.20001220703</ele>
        <time>2026-07-05T06:38:24.000Z</time>
      </trkpt>
      <trkpt lat="44.97582" lon="5.69714">
        <ele>752</ele>
        <time>2026-07-05T06:38:25.000Z</time>
      </trkpt>
      <trkpt lat="44.97585" lon="5.69713">
        <ele>751.79998779297</ele>
        <time>2026-07-05T06:38:26.000Z</time>
      </trkpt>
      <trkpt lat="44.97588" lon="5.69711">
        <ele>751.59997558594</ele>
        <time>2026-07-05T06:38:27.000Z</time>
      </trkpt>
      <trkpt lat="44.97591" lon="5.69709">
        <ele>751.40002441406</ele>
        <time>2026-07-05T06:38:28.000Z</time>
      </trkpt>
      <trkpt lat="44.97595" lon="5.69708">
        <ele>751.40002441406</ele>
        <time>2026-07-05T06:38:29.000Z</time>
      </trkpt>
      <trkpt lat="44.97598" lon="5.69707">
        <ele>751.40002441406</ele>
        <time>2026-07-05T06:38:30.000Z</time>
      </trkpt>
      <trkpt lat="44.97602" lon="5.69705">
        <ele>751.20001220703</ele>
        <time>2026-07-05T06:38:31.000Z</time>
      </trkpt>
      <trkpt lat="44.97604" lon="5.69703">
        <ele>751.20001220703</ele>
        <time>2026-07-05T06:38:32.000Z</time>
      </trkpt>
      <trkpt lat="44.97607" lon="5.69701">
        <ele>751.40002441406</ele>
        <time>2026-07-05T06:38:33.000Z</time>
      </trkpt>
      <trkpt lat="44.9761" lon="5.69699">
        <ele>751.40002441406</ele>
        <time>2026-07-05T06:38:34.000Z</time>
      </trkpt>
      <trkpt lat="44.97612" lon="5.69697">
        <ele>751.59997558594</ele>
        <time>2026-07-05T06:38:35.000Z</time>
      </trkpt>
      <trkpt lat="44.97615" lon="5.69695">
        <ele>751.59997558594</ele>
        <time>2026-07-05T06:38:36.000Z</time>
      </trkpt>
      <trkpt lat="44.97618" lon="5.69693">
        <ele>751.59997558594</ele>
        <time>2026-07-05T06:38:37.000Z</time>
      </trkpt>
      <trkpt lat="44.97621" lon="5.69691">
        <ele>751.79998779297</ele>
        <time>2026-07-05T06:38:38.000Z</time>
      </trkpt>
      <trkpt lat="44.97623" lon="5.69689">
        <ele>751.79998779297</ele>
        <time>2026-07-05T06:38:39.000Z</time>
      </trkpt>
      <trkpt lat="44.97625" lon="5.69687">
        <ele>752</ele>
        <time>2026-07-05T06:38:40.000Z</time>
      </trkpt>
      <trkpt lat="44.97627" lon="5.69686">
        <ele>752.20001220703</ele>
        <time>2026-07-05T06:38:41.000Z</time>
      </trkpt>
      <trkpt lat="44.97629" lon="5.69684">
        <ele>752.20001220703</ele>
        <time>2026-07-05T06:38:42.000Z</time>
      </trkpt>
      <trkpt lat="44.97631" lon="5.69682">
        <ele>752.40002441406</ele>
        <time>2026-07-05T06:38:43.000Z</time>
      </trkpt>
      <trkpt lat="44.97634" lon="5.6968">
        <ele>752.59997558594</ele>
        <time>2026-07-05T06:38:44.000Z</time>
      </trkpt>
      <trkpt lat="44.97636" lon="5.69677">
        <ele>752.79998779297</ele>
        <time>2026-07-05T06:38:45.000Z</time>
      </trkpt>
      <trkpt lat="44.97639" lon="5.69675">
        <ele>752.79998779297</ele>
        <time>2026-07-05T06:38:46.000Z</time>
      </trkpt>
      <trkpt lat="44.97642" lon="5.69673">
        <ele>753</ele>
        <time>2026-07-05T06:38:47.000Z</time>
      </trkpt>
      <trkpt lat="44.97645" lon="5.69671">
        <ele>753</ele>
        <time>2026-07-05T06:38:48.000Z</time>
      </trkpt>
      <trkpt lat="44.97648" lon="5.69668">
        <ele>753.20001220703</ele>
        <time>2026-07-05T06:38:49.000Z</time>
      </trkpt>
      <trkpt lat="44.97651" lon="5.69666">
        <ele>753.40002441406</ele>
        <time>2026-07-05T06:38:50.000Z</time>
      </trkpt>
      <trkpt lat="44.97654" lon="5.69665">
        <ele>753.40002441406</ele>
        <time>2026-07-05T06:38:51.000Z</time>
      </trkpt>
      <trkpt lat="44.97657" lon="5.69663">
        <ele>753.59997558594</ele>
        <time>2026-07-05T06:38:52.000Z</time>
      </trkpt>
      <trkpt lat="44.9766" lon="5.69662">
        <ele>753.59997558594</ele>
        <time>2026-07-05T06:38:53.000Z</time>
      </trkpt>
      <trkpt lat="44.97664" lon="5.69662">
        <ele>753.40002441406</ele>
        <time>2026-07-05T06:38:54.000Z</time>
      </trkpt>
      <trkpt lat="44.97667" lon="5.69662">
        <ele>753.40002441406</ele>
        <time>2026-07-05T06:38:55.000Z</time>
      </trkpt>
      <trkpt lat="44.9767" lon="5.69661">
        <ele>753.40002441406</ele>
        <time>2026-07-05T06:38:56.000Z</time>
      </trkpt>
      <trkpt lat="44.97673" lon="5.69661">
        <ele>753.40002441406</ele>
        <time>2026-07-05T06:38:57.000Z</time>
      </trkpt>
      <trkpt lat="44.97676" lon="5.6966">
        <ele>753.20001220703</ele>
        <time>2026-07-05T06:38:58.000Z</time>
      </trkpt>
      <trkpt lat="44.9768" lon="5.69659">
        <ele>753.20001220703</ele>
        <time>2026-07-05T06:38:59.000Z</time>
      </trkpt>
      <trkpt lat="44.97683" lon="5.69658">
        <ele>753</ele>
        <time>2026-07-05T06:39:00.000Z</time>
      </trkpt>
      <trkpt lat="44.97686" lon="5.69657">
        <ele>752.79998779297</ele>
        <time>2026-07-05T06:39:01.000Z</time>
      </trkpt>
      <trkpt lat="44.97689" lon="5.69656">
        <ele>752.79998779297</ele>
        <time>2026-07-05T06:39:02.000Z</time>
      </trkpt>
      <trkpt lat="44.97692" lon="5.69656">
        <ele>752.59997558594</ele>
        <time>2026-07-05T06:39:03.000Z</time>
      </trkpt>
      <trkpt lat="44.97694" lon="5.69655">
        <ele>752.59997558594</ele>
        <time>2026-07-05T06:39:04.000Z</time>
      </trkpt>
      <trkpt lat="44.97697" lon="5.69654">
        <ele>752.59997558594</ele>
        <time>2026-07-05T06:39:05.000Z</time>
      </trkpt>
      <trkpt lat="44.977" lon="5.69652">
        <ele>752.59997558594</ele>
        <time>2026-07-05T06:39:06.000Z</time>
      </trkpt>
      <trkpt lat="44.97702" lon="5.69651">
        <ele>752.59997558594</ele>
        <time>2026-07-05T06:39:07.000Z</time>
      </trkpt>
      <trkpt lat="44.97705" lon="5.69649">
        <ele>752.59997558594</ele>
        <time>2026-07-05T06:39:08.000Z</time>
      </trkpt>
      <trkpt lat="44.97708" lon="5.69647">
        <ele>752.79998779297</ele>
        <time>2026-07-05T06:39:09.000Z</time>
      </trkpt>
      <trkpt lat="44.97711" lon="5.69646">
        <ele>752.79998779297</ele>
        <time>2026-07-05T06:39:10.000Z</time>
      </trkpt>
      <trkpt lat="44.97714" lon="5.69644">
        <ele>752.79998779297</ele>
        <time>2026-07-05T06:39:11.000Z</time>
      </trkpt>
      <trkpt lat="44.97717" lon="5.69641">
        <ele>752.79998779297</ele>
        <time>2026-07-05T06:39:12.000Z</time>
      </trkpt>
      <trkpt lat="44.97719" lon="5.69639">
        <ele>752.79998779297</ele>
        <time>2026-07-05T06:39:13.000Z</time>
      </trkpt>
      <trkpt lat="44.97722" lon="5.69637">
        <ele>752.59997558594</ele>
        <time>2026-07-05T06:39:14.000Z</time>
      </trkpt>
      <trkpt lat="44.97725" lon="5.69635">
        <ele>752.40002441406</ele>
        <time>2026-07-05T06:39:15.000Z</time>
      </trkpt>
      <trkpt lat="44.97728" lon="5.69634">
        <ele>752.20001220703</ele>
        <time>2026-07-05T06:39:16.000Z</time>
      </trkpt>
      <trkpt lat="44.97731" lon="5.69632">
        <ele>752.20001220703</ele>
        <time>2026-07-05T06:39:17.000Z</time>
      </trkpt>
      <trkpt lat="44.97733" lon="5.6963">
        <ele>752</ele>
        <time>2026-07-05T06:39:18.000Z</time>
      </trkpt>
      <trkpt lat="44.97736" lon="5.69628">
        <ele>751.79998779297</ele>
        <time>2026-07-05T06:39:19.000Z</time>
      </trkpt>
      <trkpt lat="44.97739" lon="5.69625">
        <ele>751.79998779297</ele>
        <time>2026-07-05T06:39:20.000Z</time>
      </trkpt>
      <trkpt lat="44.97741" lon="5.69623">
        <ele>751.59997558594</ele>
        <time>2026-07-05T06:39:21.000Z</time>
      </trkpt>
      <trkpt lat="44.97744" lon="5.69621">
        <ele>751.59997558594</ele>
        <time>2026-07-05T06:39:22.000Z</time>
      </trkpt>
      <trkpt lat="44.97747" lon="5.69619">
        <ele>751.59997558594</ele>
        <time>2026-07-05T06:39:23.000Z</time>
      </trkpt>
      <trkpt lat="44.97749" lon="5.69616">
        <ele>751.40002441406</ele>
        <time>2026-07-05T06:39:24.000Z</time>
      </trkpt>
      <trkpt lat="44.97752" lon="5.69614">
        <ele>751.40002441406</ele>
        <time>2026-07-05T06:39:25.000Z</time>
      </trkpt>
      <trkpt lat="44.97755" lon="5.69611">
        <ele>751.40002441406</ele>
        <time>2026-07-05T06:39:26.000Z</time>
      </trkpt>
      <trkpt lat="44.97757" lon="5.69608">
        <ele>751.20001220703</ele>
        <time>2026-07-05T06:39:27.000Z</time>
      </trkpt>
      <trkpt lat="44.97759" lon="5.69606">
        <ele>751</ele>
        <time>2026-07-05T06:39:28.000Z</time>
      </trkpt>
      <trkpt lat="44.97762" lon="5.69603">
        <ele>751</ele>
        <time>2026-07-05T06:39:29.000Z</time>
      </trkpt>
      <trkpt lat="44.97765" lon="5.696">
        <ele>750.79998779297</ele>
        <time>2026-07-05T06:39:30.000Z</time>
      </trkpt>
      <trkpt lat="44.97768" lon="5.69598">
        <ele>750.79998779297</ele>
        <time>2026-07-05T06:39:31.000Z</time>
      </trkpt>
      <trkpt lat="44.9777" lon="5.69595">
        <ele>750.79998779297</ele>
        <time>2026-07-05T06:39:32.000Z</time>
      </trkpt>
      <trkpt lat="44.97773" lon="5.69592">
        <ele>750.59997558594</ele>
        <time>2026-07-05T06:39:33.000Z</time>
      </trkpt>
      <trkpt lat="44.97776" lon="5.6959">
        <ele>750.40002441406</ele>
        <time>2026-07-05T06:39:34.000Z</time>
      </trkpt>
      <trkpt lat="44.97778" lon="5.69587">
        <ele>750.20001220703</ele>
        <time>2026-07-05T06:39:35.000Z</time>
      </trkpt>
      <trkpt lat="44.97781" lon="5.69584">
        <ele>750</ele>
        <time>2026-07-05T06:39:36.000Z</time>
      </trkpt>
      <trkpt lat="44.97784" lon="5.69582">
        <ele>749.79998779297</ele>
        <time>2026-07-05T06:39:37.000Z</time>
      </trkpt>
      <trkpt lat="44.97787" lon="5.6958">
        <ele>749.79998779297</ele>
        <time>2026-07-05T06:39:38.000Z</time>
      </trkpt>
      <trkpt lat="44.97789" lon="5.69578">
        <ele>749.59997558594</ele>
        <time>2026-07-05T06:39:39.000Z</time>
      </trkpt>
      <trkpt lat="44.97792" lon="5.69576">
        <ele>749.59997558594</ele>
        <time>2026-07-05T06:39:40.000Z</time>
      </trkpt>
      <trkpt lat="44.97796" lon="5.69573">
        <ele>749.59997558594</ele>
        <time>2026-07-05T06:39:41.000Z</time>
      </trkpt>
      <trkpt lat="44.97799" lon="5.69571">
        <ele>749.40002441406</ele>
        <time>2026-07-05T06:39:42.000Z</time>
      </trkpt>
      <trkpt lat="44.97802" lon="5.69568">
        <ele>749.20001220703</ele>
        <time>2026-07-05T06:39:43.000Z</time>
      </trkpt>
      <trkpt lat="44.97805" lon="5.69566">
        <ele>749</ele>
        <time>2026-07-05T06:39:44.000Z</time>
      </trkpt>
      <trkpt lat="44.97808" lon="5.69564">
        <ele>748.79998779297</ele>
        <time>2026-07-05T06:39:45.000Z</time>
      </trkpt>
      <trkpt lat="44.97811" lon="5.69561">
        <ele>748.79998779297</ele>
        <time>2026-07-05T06:39:46.000Z</time>
      </trkpt>
      <trkpt lat="44.97814" lon="5.6956">
        <ele>748.59997558594</ele>
        <time>2026-07-05T06:39:47.000Z</time>
      </trkpt>
      <trkpt lat="44.97818" lon="5.69558">
        <ele>748.40002441406</ele>
        <time>2026-07-05T06:39:48.000Z</time>
      </trkpt>
      <trkpt lat="44.97821" lon="5.69556">
        <ele>748.20001220703</ele>
        <time>2026-07-05T06:39:49.000Z</time>
      </trkpt>
      <trkpt lat="44.97824" lon="5.69555">
        <ele>748</ele>
        <time>2026-07-05T06:39:50.000Z</time>
      </trkpt>
      <trkpt lat="44.97828" lon="5.69553">
        <ele>747.59997558594</ele>
        <time>2026-07-05T06:39:51.000Z</time>
      </trkpt>
      <trkpt lat="44.97831" lon="5.69552">
        <ele>747.40002441406</ele>
        <time>2026-07-05T06:39:52.000Z</time>
      </trkpt>
      <trkpt lat="44.97834" lon="5.6955">
        <ele>747.20001220703</ele>
        <time>2026-07-05T06:39:53.000Z</time>
      </trkpt>
      <trkpt lat="44.97837" lon="5.69549">
        <ele>747</ele>
        <time>2026-07-05T06:39:54.000Z</time>
      </trkpt>
      <trkpt lat="44.9784" lon="5.69547">
        <ele>746.79998779297</ele>
        <time>2026-07-05T06:39:55.000Z</time>
      </trkpt>
      <trkpt lat="44.97844" lon="5.69545">
        <ele>746.79998779297</ele>
        <time>2026-07-05T06:39:56.000Z</time>
      </trkpt>
      <trkpt lat="44.97847" lon="5.69544">
        <ele>746.59997558594</ele>
        <time>2026-07-05T06:39:57.000Z</time>
      </trkpt>
      <trkpt lat="44.97851" lon="5.69542">
        <ele>746.40002441406</ele>
        <time>2026-07-05T06:39:58.000Z</time>
      </trkpt>
      <trkpt lat="44.97854" lon="5.69541">
        <ele>746.20001220703</ele>
        <time>2026-07-05T06:39:59.000Z</time>
      </trkpt>
      <trkpt lat="44.97858" lon="5.69541">
        <ele>745.79998779297</ele>
        <time>2026-07-05T06:40:00.000Z</time>
      </trkpt>
      <trkpt lat="44.97861" lon="5.69539">
        <ele>745.59997558594</ele>
        <time>2026-07-05T06:40:01.000Z</time>
      </trkpt>
      <trkpt lat="44.97864" lon="5.69538">
        <ele>745.40002441406</ele>
        <time>2026-07-05T06:40:02.000Z</time>
      </trkpt>
      <trkpt lat="44.97867" lon="5.69537">
        <ele>745.20001220703</ele>
        <time>2026-07-05T06:40:03.000Z</time>
      </trkpt>
      <trkpt lat="44.9787" lon="5.69537">
        <ele>744.79998779297</ele>
        <time>2026-07-05T06:40:04.000Z</time>
      </trkpt>
      <trkpt lat="44.97874" lon="5.69536">
        <ele>744.20001220703</ele>
        <time>2026-07-05T06:40:05.000Z</time>
      </trkpt>
      <trkpt lat="44.97878" lon="5.69536">
        <ele>743.79998779297</ele>
        <time>2026-07-05T06:40:06.000Z</time>
      </trkpt>
      <trkpt lat="44.97881" lon="5.69535">
        <ele>743.40002441406</ele>
        <time>2026-07-05T06:40:07.000Z</time>
      </trkpt>
      <trkpt lat="44.97885" lon="5.69534">
        <ele>742.79998779297</ele>
        <time>2026-07-05T06:40:08.000Z</time>
      </trkpt>
      <trkpt lat="44.97888" lon="5.69533">
        <ele>742.40002441406</ele>
        <time>2026-07-05T06:40:09.000Z</time>
      </trkpt>
      <trkpt lat="44.97891" lon="5.69532">
        <ele>742</ele>
        <time>2026-07-05T06:40:10.000Z</time>
      </trkpt>
      <trkpt lat="44.97894" lon="5.69532">
        <ele>741.59997558594</ele>
        <time>2026-07-05T06:40:11.000Z</time>
      </trkpt>
      <trkpt lat="44.97897" lon="5.6953">
        <ele>741.20001220703</ele>
        <time>2026-07-05T06:40:12.000Z</time>
      </trkpt>
      <trkpt lat="44.97901" lon="5.69528">
        <ele>740.79998779297</ele>
        <time>2026-07-05T06:40:13.000Z</time>
      </trkpt>
      <trkpt lat="44.97904" lon="5.69528">
        <ele>740</ele>
        <time>2026-07-05T06:40:14.000Z</time>
      </trkpt>
      <trkpt lat="44.97908" lon="5.69528">
        <ele>739.79998779297</ele>
        <time>2026-07-05T06:40:15.000Z</time>
      </trkpt>
      <trkpt lat="44.97911" lon="5.69527">
        <ele>739.40002441406</ele>
        <time>2026-07-05T06:40:16.000Z</time>
      </trkpt>
      <trkpt lat="44.97915" lon="5.69526">
        <ele>738.79998779297</ele>
        <time>2026-07-05T06:40:17.000Z</time>
      </trkpt>
      <trkpt lat="44.97919" lon="5.69526">
        <ele>738.59997558594</ele>
        <time>2026-07-05T06:40:18.000Z</time>
      </trkpt>
      <trkpt lat="44.97922" lon="5.69526">
        <ele>738.20001220703</ele>
        <time>2026-07-05T06:40:19.000Z</time>
      </trkpt>
      <trkpt lat="44.97926" lon="5.69526">
        <ele>737.79998779297</ele>
        <time>2026-07-05T06:40:20.000Z</time>
      </trkpt>
      <trkpt lat="44.97929" lon="5.69525">
        <ele>737</ele>
        <time>2026-07-05T06:40:21.000Z</time>
      </trkpt>
      <trkpt lat="44.97932" lon="5.69525">
        <ele>736.20001220703</ele>
        <time>2026-07-05T06:40:22.000Z</time>
      </trkpt>
      <trkpt lat="44.97935" lon="5.69524">
        <ele>736</ele>
        <time>2026-07-05T06:40:23.000Z</time>
      </trkpt>
      <trkpt lat="44.97938" lon="5.69523">
        <ele>736</ele>
        <time>2026-07-05T06:40:24.000Z</time>
      </trkpt>
      <trkpt lat="44.97941" lon="5.69522">
        <ele>735.40002441406</ele>
        <time>2026-07-05T06:40:25.000Z</time>
      </trkpt>
      <trkpt lat="44.97944" lon="5.69521">
        <ele>735.20001220703</ele>
        <time>2026-07-05T06:40:26.000Z</time>
      </trkpt>
      <trkpt lat="44.97947" lon="5.6952">
        <ele>735</ele>
        <time>2026-07-05T06:40:27.000Z</time>
      </trkpt>
      <trkpt lat="44.97951" lon="5.69518">
        <ele>734.79998779297</ele>
        <time>2026-07-05T06:40:28.000Z</time>
      </trkpt>
      <trkpt lat="44.97954" lon="5.69518">
        <ele>734.59997558594</ele>
        <time>2026-07-05T06:40:29.000Z</time>
      </trkpt>
      <trkpt lat="44.97958" lon="5.69518">
        <ele>734.40002441406</ele>
        <time>2026-07-05T06:40:30.000Z</time>
      </trkpt>
      <trkpt lat="44.97961" lon="5.69517">
        <ele>734.20001220703</ele>
        <time>2026-07-05T06:40:31.000Z</time>
      </trkpt>
      <trkpt lat="44.97965" lon="5.69516">
        <ele>733.79998779297</ele>
        <time>2026-07-05T06:40:32.000Z</time>
      </trkpt>
      <trkpt lat="44.97968" lon="5.69515">
        <ele>733.20001220703</ele>
        <time>2026-07-05T06:40:33.000Z</time>
      </trkpt>
      <trkpt lat="44.97972" lon="5.69515">
        <ele>733</ele>
        <time>2026-07-05T06:40:34.000Z</time>
      </trkpt>
      <trkpt lat="44.97976" lon="5.69516">
        <ele>732.40002441406</ele>
        <time>2026-07-05T06:40:35.000Z</time>
      </trkpt>
      <trkpt lat="44.97979" lon="5.69516">
        <ele>732.20001220703</ele>
        <time>2026-07-05T06:40:36.000Z</time>
      </trkpt>
      <trkpt lat="44.97983" lon="5.69517">
        <ele>732</ele>
        <time>2026-07-05T06:40:37.000Z</time>
      </trkpt>
      <trkpt lat="44.97986" lon="5.69518">
        <ele>731.79998779297</ele>
        <time>2026-07-05T06:40:38.000Z</time>
      </trkpt>
      <trkpt lat="44.9799" lon="5.69519">
        <ele>731.79998779297</ele>
        <time>2026-07-05T06:40:39.000Z</time>
      </trkpt>
      <trkpt lat="44.97993" lon="5.6952">
        <ele>731.59997558594</ele>
        <time>2026-07-05T06:40:40.000Z</time>
      </trkpt>
      <trkpt lat="44.97996" lon="5.6952">
        <ele>731.20001220703</ele>
        <time>2026-07-05T06:40:41.000Z</time>
      </trkpt>
      <trkpt lat="44.98" lon="5.6952">
        <ele>731</ele>
        <time>2026-07-05T06:40:42.000Z</time>
      </trkpt>
      <trkpt lat="44.98003" lon="5.6952">
        <ele>731</ele>
        <time>2026-07-05T06:40:43.000Z</time>
      </trkpt>
      <trkpt lat="44.98006" lon="5.69521">
        <ele>730.59997558594</ele>
        <time>2026-07-05T06:40:44.000Z</time>
      </trkpt>
      <trkpt lat="44.98009" lon="5.69521">
        <ele>730.59997558594</ele>
        <time>2026-07-05T06:40:45.000Z</time>
      </trkpt>
      <trkpt lat="44.98012" lon="5.69521">
        <ele>730.59997558594</ele>
        <time>2026-07-05T06:40:46.000Z</time>
      </trkpt>
      <trkpt lat="44.98016" lon="5.69522">
        <ele>730.40002441406</ele>
        <time>2026-07-05T06:40:47.000Z</time>
      </trkpt>
      <trkpt lat="44.98019" lon="5.69522">
        <ele>730.20001220703</ele>
        <time>2026-07-05T06:40:48.000Z</time>
      </trkpt>
      <trkpt lat="44.98023" lon="5.69523">
        <ele>730.20001220703</ele>
        <time>2026-07-05T06:40:49.000Z</time>
      </trkpt>
      <trkpt lat="44.98026" lon="5.69524">
        <ele>730.20001220703</ele>
        <time>2026-07-05T06:40:50.000Z</time>
      </trkpt>
      <trkpt lat="44.98029" lon="5.69524">
        <ele>730</ele>
        <time>2026-07-05T06:40:51.000Z</time>
      </trkpt>
      <trkpt lat="44.98032" lon="5.69525">
        <ele>730</ele>
        <time>2026-07-05T06:40:52.000Z</time>
      </trkpt>
      <trkpt lat="44.98035" lon="5.69526">
        <ele>730</ele>
        <time>2026-07-05T06:40:53.000Z</time>
      </trkpt>
      <trkpt lat="44.98038" lon="5.69526">
        <ele>729.79998779297</ele>
        <time>2026-07-05T06:40:54.000Z</time>
      </trkpt>
      <trkpt lat="44.98041" lon="5.69527">
        <ele>729.59997558594</ele>
        <time>2026-07-05T06:40:55.000Z</time>
      </trkpt>
      <trkpt lat="44.98044" lon="5.69527">
        <ele>729.59997558594</ele>
        <time>2026-07-05T06:40:56.000Z</time>
      </trkpt>
      <trkpt lat="44.98047" lon="5.69527">
        <ele>729.40002441406</ele>
        <time>2026-07-05T06:40:57.000Z</time>
      </trkpt>
      <trkpt lat="44.9805" lon="5.69528">
        <ele>729.40002441406</ele>
        <time>2026-07-05T06:40:58.000Z</time>
      </trkpt>
      <trkpt lat="44.98054" lon="5.69529">
        <ele>729.40002441406</ele>
        <time>2026-07-05T06:40:59.000Z</time>
      </trkpt>
      <trkpt lat="44.98057" lon="5.69529">
        <ele>729.20001220703</ele>
        <time>2026-07-05T06:41:00.000Z</time>
      </trkpt>
      <trkpt lat="44.9806" lon="5.69531">
        <ele>729.20001220703</ele>
        <time>2026-07-05T06:41:01.000Z</time>
      </trkpt>
      <trkpt lat="44.98064" lon="5.69532">
        <ele>729.20001220703</ele>
        <time>2026-07-05T06:41:02.000Z</time>
      </trkpt>
      <trkpt lat="44.98067" lon="5.69532">
        <ele>729</ele>
        <time>2026-07-05T06:41:03.000Z</time>
      </trkpt>
      <trkpt lat="44.9807" lon="5.69533">
        <ele>728.79998779297</ele>
        <time>2026-07-05T06:41:04.000Z</time>
      </trkpt>
      <trkpt lat="44.98073" lon="5.69534">
        <ele>728.79998779297</ele>
        <time>2026-07-05T06:41:05.000Z</time>
      </trkpt>
      <trkpt lat="44.98076" lon="5.69534">
        <ele>728.79998779297</ele>
        <time>2026-07-05T06:41:06.000Z</time>
      </trkpt>
      <trkpt lat="44.98079" lon="5.69534">
        <ele>728.59997558594</ele>
        <time>2026-07-05T06:41:07.000Z</time>
      </trkpt>
      <trkpt lat="44.98083" lon="5.69534">
        <ele>728.59997558594</ele>
        <time>2026-07-05T06:41:08.000Z</time>
      </trkpt>
      <trkpt lat="44.98087" lon="5.69534">
        <ele>728.79998779297</ele>
        <time>2026-07-05T06:41:09.000Z</time>
      </trkpt>
      <trkpt lat="44.9809" lon="5.69533">
        <ele>728.79998779297</ele>
        <time>2026-07-05T06:41:10.000Z</time>
      </trkpt>
      <trkpt lat="44.98092" lon="5.69531">
        <ele>728.79998779297</ele>
        <time>2026-07-05T06:41:11.000Z</time>
      </trkpt>
      <trkpt lat="44.98094" lon="5.69527">
        <ele>728.79998779297</ele>
        <time>2026-07-05T06:41:12.000Z</time>
      </trkpt>
      <trkpt lat="44.98095" lon="5.69524">
        <ele>728.79998779297</ele>
        <time>2026-07-05T06:41:13.000Z</time>
      </trkpt>
      <trkpt lat="44.98095" lon="5.69521">
        <ele>728.59997558594</ele>
        <time>2026-07-05T06:41:14.000Z</time>
      </trkpt>
      <trkpt lat="44.98095" lon="5.69516">
        <ele>728.59997558594</ele>
        <time>2026-07-05T06:41:15.000Z</time>
      </trkpt>
      <trkpt lat="44.98095" lon="5.69513">
        <ele>728.59997558594</ele>
        <time>2026-07-05T06:41:16.000Z</time>
      </trkpt>
      <trkpt lat="44.98094" lon="5.69509">
        <ele>728.59997558594</ele>
        <time>2026-07-05T06:41:17.000Z</time>
      </trkpt>
      <trkpt lat="44.98093" lon="5.69505">
        <ele>728.59997558594</ele>
        <time>2026-07-05T06:41:18.000Z</time>
      </trkpt>
      <trkpt lat="44.98092" lon="5.69501">
        <ele>728.59997558594</ele>
        <time>2026-07-05T06:41:19.000Z</time>
      </trkpt>
      <trkpt lat="44.98092" lon="5.69497">
        <ele>728.59997558594</ele>
        <time>2026-07-05T06:41:20.000Z</time>
      </trkpt>
      <trkpt lat="44.98091" lon="5.69493">
        <ele>728.59997558594</ele>
        <time>2026-07-05T06:41:21.000Z</time>
      </trkpt>
      <trkpt lat="44.98091" lon="5.69489">
        <ele>728.59997558594</ele>
        <time>2026-07-05T06:41:22.000Z</time>
      </trkpt>
      <trkpt lat="44.9809" lon="5.69485">
        <ele>728.59997558594</ele>
        <time>2026-07-05T06:41:23.000Z</time>
      </trkpt>
      <trkpt lat="44.9809" lon="5.69481">
        <ele>728.40002441406</ele>
        <time>2026-07-05T06:41:24.000Z</time>
      </trkpt>
      <trkpt lat="44.9809" lon="5.69477">
        <ele>728.40002441406</ele>
        <time>2026-07-05T06:41:25.000Z</time>
      </trkpt>
      <trkpt lat="44.9809" lon="5.69472">
        <ele>728.40002441406</ele>
        <time>2026-07-05T06:41:26.000Z</time>
      </trkpt>
      <trkpt lat="44.98089" lon="5.69468">
        <ele>728.40002441406</ele>
        <time>2026-07-05T06:41:27.000Z</time>
      </trkpt>
      <trkpt lat="44.98089" lon="5.69464">
        <ele>728.20001220703</ele>
        <time>2026-07-05T06:41:28.000Z</time>
      </trkpt>
      <trkpt lat="44.98088" lon="5.6946">
        <ele>728.20001220703</ele>
        <time>2026-07-05T06:41:29.000Z</time>
      </trkpt>
      <trkpt lat="44.98088" lon="5.69456">
        <ele>728.20001220703</ele>
        <time>2026-07-05T06:41:30.000Z</time>
      </trkpt>
      <trkpt lat="44.98088" lon="5.69452">
        <ele>728.20001220703</ele>
        <time>2026-07-05T06:41:31.000Z</time>
      </trkpt>
      <trkpt lat="44.98088" lon="5.69447">
        <ele>728.20001220703</ele>
        <time>2026-07-05T06:41:32.000Z</time>
      </trkpt>
      <trkpt lat="44.98089" lon="5.69443">
        <ele>728.20001220703</ele>
        <time>2026-07-05T06:41:33.000Z</time>
      </trkpt>
      <trkpt lat="44.98089" lon="5.69439">
        <ele>728.20001220703</ele>
        <time>2026-07-05T06:41:34.000Z</time>
      </trkpt>
      <trkpt lat="44.9809" lon="5.69434">
        <ele>728.40002441406</ele>
        <time>2026-07-05T06:41:35.000Z</time>
      </trkpt>
      <trkpt lat="44.98091" lon="5.6943">
        <ele>728.40002441406</ele>
        <time>2026-07-05T06:41:36.000Z</time>
      </trkpt>
      <trkpt lat="44.98092" lon="5.69426">
        <ele>728.40002441406</ele>
        <time>2026-07-05T06:41:37.000Z</time>
      </trkpt>
      <trkpt lat="44.98093" lon="5.69421">
        <ele>728.40002441406</ele>
        <time>2026-07-05T06:41:38.000Z</time>
      </trkpt>
      <trkpt lat="44.98094" lon="5.69418">
        <ele>728.59997558594</ele>
        <time>2026-07-05T06:41:39.000Z</time>
      </trkpt>
      <trkpt lat="44.98096" lon="5.69414">
        <ele>728.59997558594</ele>
        <time>2026-07-05T06:41:40.000Z</time>
      </trkpt>
      <trkpt lat="44.98098" lon="5.69411">
        <ele>728.59997558594</ele>
        <time>2026-07-05T06:41:41.000Z</time>
      </trkpt>
      <trkpt lat="44.98099" lon="5.69407">
        <ele>728.59997558594</ele>
        <time>2026-07-05T06:41:42.000Z</time>
      </trkpt>
      <trkpt lat="44.98101" lon="5.69404">
        <ele>728.79998779297</ele>
        <time>2026-07-05T06:41:43.000Z</time>
      </trkpt>
      <trkpt lat="44.98104" lon="5.69401">
        <ele>728.79998779297</ele>
        <time>2026-07-05T06:41:44.000Z</time>
      </trkpt>
      <trkpt lat="44.98106" lon="5.69398">
        <ele>729</ele>
        <time>2026-07-05T06:41:45.000Z</time>
      </trkpt>
      <trkpt lat="44.98108" lon="5.69396">
        <ele>729</ele>
        <time>2026-07-05T06:41:46.000Z</time>
      </trkpt>
      <trkpt lat="44.98111" lon="5.69393">
        <ele>729.20001220703</ele>
        <time>2026-07-05T06:41:47.000Z</time>
      </trkpt>
      <trkpt lat="44.98114" lon="5.69391">
        <ele>729.20001220703</ele>
        <time>2026-07-05T06:41:48.000Z</time>
      </trkpt>
      <trkpt lat="44.98117" lon="5.6939">
        <ele>729.20001220703</ele>
        <time>2026-07-05T06:41:49.000Z</time>
      </trkpt>
      <trkpt lat="44.9812" lon="5.69388">
        <ele>729.20001220703</ele>
        <time>2026-07-05T06:41:50.000Z</time>
      </trkpt>
      <trkpt lat="44.98123" lon="5.69387">
        <ele>729</ele>
        <time>2026-07-05T06:41:51.000Z</time>
      </trkpt>
      <trkpt lat="44.98127" lon="5.69387">
        <ele>729</ele>
        <time>2026-07-05T06:41:52.000Z</time>
      </trkpt>
      <trkpt lat="44.9813" lon="5.69386">
        <ele>728.79998779297</ele>
        <time>2026-07-05T06:41:53.000Z</time>
      </trkpt>
      <trkpt lat="44.98133" lon="5.69385">
        <ele>728.59997558594</ele>
        <time>2026-07-05T06:41:54.000Z</time>
      </trkpt>
      <trkpt lat="44.98136" lon="5.69384">
        <ele>728.59997558594</ele>
        <time>2026-07-05T06:41:55.000Z</time>
      </trkpt>
      <trkpt lat="44.98139" lon="5.69383">
        <ele>728.40002441406</ele>
        <time>2026-07-05T06:41:56.000Z</time>
      </trkpt>
      <trkpt lat="44.98142" lon="5.69382">
        <ele>728.40002441406</ele>
        <time>2026-07-05T06:41:57.000Z</time>
      </trkpt>
      <trkpt lat="44.98145" lon="5.6938">
        <ele>728.40002441406</ele>
        <time>2026-07-05T06:41:58.000Z</time>
      </trkpt>
      <trkpt lat="44.98148" lon="5.69378">
        <ele>728.20001220703</ele>
        <time>2026-07-05T06:41:59.000Z</time>
      </trkpt>
      <trkpt lat="44.98151" lon="5.69375">
        <ele>728.20001220703</ele>
        <time>2026-07-05T06:42:00.000Z</time>
      </trkpt>
      <trkpt lat="44.98153" lon="5.69373">
        <ele>728.20001220703</ele>
        <time>2026-07-05T06:42:01.000Z</time>
      </trkpt>
      <trkpt lat="44.98155" lon="5.6937">
        <ele>728.20001220703</ele>
        <time>2026-07-05T06:42:02.000Z</time>
      </trkpt>
      <trkpt lat="44.98157" lon="5.69367">
        <ele>728.20001220703</ele>
        <time>2026-07-05T06:42:03.000Z</time>
      </trkpt>
      <trkpt lat="44.98159" lon="5.69364">
        <ele>728.40002441406</ele>
        <time>2026-07-05T06:42:04.000Z</time>
      </trkpt>
      <trkpt lat="44.98161" lon="5.69362">
        <ele>728.40002441406</ele>
        <time>2026-07-05T06:42:05.000Z</time>
      </trkpt>
      <trkpt lat="44.98163" lon="5.69358">
        <ele>728.40002441406</ele>
        <time>2026-07-05T06:42:06.000Z</time>
      </trkpt>
      <trkpt lat="44.98164" lon="5.69355">
        <ele>728.40002441406</ele>
        <time>2026-07-05T06:42:07.000Z</time>
      </trkpt>
      <trkpt lat="44.98165" lon="5.69351">
        <ele>728.40002441406</ele>
        <time>2026-07-05T06:42:08.000Z</time>
      </trkpt>
      <trkpt lat="44.98166" lon="5.69347">
        <ele>728.20001220703</ele>
        <time>2026-07-05T06:42:09.000Z</time>
      </trkpt>
      <trkpt lat="44.98167" lon="5.69342">
        <ele>728</ele>
        <time>2026-07-05T06:42:10.000Z</time>
      </trkpt>
      <trkpt lat="44.98168" lon="5.69338">
        <ele>727.79998779297</ele>
        <time>2026-07-05T06:42:11.000Z</time>
      </trkpt>
      <trkpt lat="44.98168" lon="5.69334">
        <ele>727.59997558594</ele>
        <time>2026-07-05T06:42:12.000Z</time>
      </trkpt>
      <trkpt lat="44.98169" lon="5.69329">
        <ele>727.20001220703</ele>
        <time>2026-07-05T06:42:13.000Z</time>
      </trkpt>
      <trkpt lat="44.98169" lon="5.69325">
        <ele>727</ele>
        <time>2026-07-05T06:42:14.000Z</time>
      </trkpt>
      <trkpt lat="44.98169" lon="5.6932">
        <ele>727</ele>
        <time>2026-07-05T06:42:15.000Z</time>
      </trkpt>
      <trkpt lat="44.98169" lon="5.69316">
        <ele>726.79998779297</ele>
        <time>2026-07-05T06:42:16.000Z</time>
      </trkpt>
      <trkpt lat="44.98169" lon="5.69311">
        <ele>726.40002441406</ele>
        <time>2026-07-05T06:42:17.000Z</time>
      </trkpt>
      <trkpt lat="44.9817" lon="5.69307">
        <ele>726.20001220703</ele>
        <time>2026-07-05T06:42:18.000Z</time>
      </trkpt>
      <trkpt lat="44.9817" lon="5.69303">
        <ele>726.20001220703</ele>
        <time>2026-07-05T06:42:19.000Z</time>
      </trkpt>
      <trkpt lat="44.9817" lon="5.69299">
        <ele>726</ele>
        <time>2026-07-05T06:42:20.000Z</time>
      </trkpt>
      <trkpt lat="44.9817" lon="5.69295">
        <ele>726</ele>
        <time>2026-07-05T06:42:21.000Z</time>
      </trkpt>
      <trkpt lat="44.9817" lon="5.6929">
        <ele>726</ele>
        <time>2026-07-05T06:42:22.000Z</time>
      </trkpt>
      <trkpt lat="44.9817" lon="5.69285">
        <ele>726</ele>
        <time>2026-07-05T06:42:23.000Z</time>
      </trkpt>
      <trkpt lat="44.98169" lon="5.69281">
        <ele>726</ele>
        <time>2026-07-05T06:42:24.000Z</time>
      </trkpt>
      <trkpt lat="44.98169" lon="5.69277">
        <ele>726</ele>
        <time>2026-07-05T06:42:25.000Z</time>
      </trkpt>
      <trkpt lat="44.98169" lon="5.69273">
        <ele>726</ele>
        <time>2026-07-05T06:42:26.000Z</time>
      </trkpt>
      <trkpt lat="44.98168" lon="5.69269">
        <ele>726.20001220703</ele>
        <time>2026-07-05T06:42:27.000Z</time>
      </trkpt>
      <trkpt lat="44.98167" lon="5.69265">
        <ele>726.40002441406</ele>
        <time>2026-07-05T06:42:28.000Z</time>
      </trkpt>
      <trkpt lat="44.98167" lon="5.69261">
        <ele>726.40002441406</ele>
        <time>2026-07-05T06:42:29.000Z</time>
      </trkpt>
      <trkpt lat="44.98167" lon="5.69257">
        <ele>726.59997558594</ele>
        <time>2026-07-05T06:42:30.000Z</time>
      </trkpt>
      <trkpt lat="44.98166" lon="5.69254">
        <ele>726.79998779297</ele>
        <time>2026-07-05T06:42:31.000Z</time>
      </trkpt>
      <trkpt lat="44.98165" lon="5.6925">
        <ele>727</ele>
        <time>2026-07-05T06:42:32.000Z</time>
      </trkpt>
      <trkpt lat="44.98164" lon="5.69248">
        <ele>727.20001220703</ele>
        <time>2026-07-05T06:42:33.000Z</time>
      </trkpt>
      <trkpt lat="44.98162" lon="5.69246">
        <ele>727.59997558594</ele>
        <time>2026-07-05T06:42:34.000Z</time>
      </trkpt>
      <trkpt lat="44.98161" lon="5.69243">
        <ele>727.79998779297</ele>
        <time>2026-07-05T06:42:35.000Z</time>
      </trkpt>
      <trkpt lat="44.98159" lon="5.69241">
        <ele>728.20001220703</ele>
        <time>2026-07-05T06:42:36.000Z</time>
      </trkpt>
      <trkpt lat="44.98158" lon="5.69239">
        <ele>728.59997558594</ele>
        <time>2026-07-05T06:42:37.000Z</time>
      </trkpt>
      <trkpt lat="44.98157" lon="5.69237">
        <ele>728.79998779297</ele>
        <time>2026-07-05T06:42:38.000Z</time>
      </trkpt>
      <trkpt lat="44.98156" lon="5.69235">
        <ele>729.20001220703</ele>
        <time>2026-07-05T06:42:39.000Z</time>
      </trkpt>
      <trkpt lat="44.98155" lon="5.69233">
        <ele>729.40002441406</ele>
        <time>2026-07-05T06:42:40.000Z</time>
      </trkpt>
      <trkpt lat="44.98154" lon="5.69231">
        <ele>729.59997558594</ele>
        <time>2026-07-05T06:42:41.000Z</time>
      </trkpt>
      <trkpt lat="44.98153" lon="5.69229">
        <ele>730</ele>
        <time>2026-07-05T06:42:42.000Z</time>
      </trkpt>
      <trkpt lat="44.98151" lon="5.69227">
        <ele>730.20001220703</ele>
        <time>2026-07-05T06:42:43.000Z</time>
      </trkpt>
      <trkpt lat="44.9815" lon="5.69225">
        <ele>730.59997558594</ele>
        <time>2026-07-05T06:42:44.000Z</time>
      </trkpt>
      <trkpt lat="44.98148" lon="5.69223">
        <ele>731</ele>
        <time>2026-07-05T06:42:45.000Z</time>
      </trkpt>
      <trkpt lat="44.98147" lon="5.69222">
        <ele>731.20001220703</ele>
        <time>2026-07-05T06:42:46.000Z</time>
      </trkpt>
      <trkpt lat="44.98145" lon="5.6922">
        <ele>731.40002441406</ele>
        <time>2026-07-05T06:42:47.000Z</time>
      </trkpt>
      <trkpt lat="44.98143" lon="5.69219">
        <ele>731.59997558594</ele>
        <time>2026-07-05T06:42:48.000Z</time>
      </trkpt>
      <trkpt lat="44.98142" lon="5.69217">
        <ele>731.79998779297</ele>
        <time>2026-07-05T06:42:49.000Z</time>
      </trkpt>
      <trkpt lat="44.9814" lon="5.69216">
        <ele>731.79998779297</ele>
        <time>2026-07-05T06:42:50.000Z</time>
      </trkpt>
      <trkpt lat="44.98139" lon="5.69214">
        <ele>732</ele>
        <time>2026-07-05T06:42:51.000Z</time>
      </trkpt>
      <trkpt lat="44.98137" lon="5.69213">
        <ele>732.20001220703</ele>
        <time>2026-07-05T06:42:52.000Z</time>
      </trkpt>
      <trkpt lat="44.98135" lon="5.69211">
        <ele>732.40002441406</ele>
        <time>2026-07-05T06:42:53.000Z</time>
      </trkpt>
      <trkpt lat="44.98134" lon="5.69209">
        <ele>732.79998779297</ele>
        <time>2026-07-05T06:42:54.000Z</time>
      </trkpt>
      <trkpt lat="44.98132" lon="5.69208">
        <ele>733</ele>
        <time>2026-07-05T06:42:55.000Z</time>
      </trkpt>
      <trkpt lat="44.9813" lon="5.69206">
        <ele>733.20001220703</ele>
        <time>2026-07-05T06:42:56.000Z</time>
      </trkpt>
      <trkpt lat="44.98129" lon="5.69205">
        <ele>733.59997558594</ele>
        <time>2026-07-05T06:42:57.000Z</time>
      </trkpt>
      <trkpt lat="44.98127" lon="5.69203">
        <ele>733.79998779297</ele>
        <time>2026-07-05T06:42:58.000Z</time>
      </trkpt>
      <trkpt lat="44.98125" lon="5.69202">
        <ele>733.79998779297</ele>
        <time>2026-07-05T06:42:59.000Z</time>
      </trkpt>
      <trkpt lat="44.98123" lon="5.69201">
        <ele>734</ele>
        <time>2026-07-05T06:43:00.000Z</time>
      </trkpt>
      <trkpt lat="44.98121" lon="5.69199">
        <ele>734.20001220703</ele>
        <time>2026-07-05T06:43:01.000Z</time>
      </trkpt>
      <trkpt lat="44.98119" lon="5.69197">
        <ele>734.40002441406</ele>
        <time>2026-07-05T06:43:02.000Z</time>
      </trkpt>
      <trkpt lat="44.98118" lon="5.69196">
        <ele>734.79998779297</ele>
        <time>2026-07-05T06:43:03.000Z</time>
      </trkpt>
      <trkpt lat="44.98116" lon="5.69195">
        <ele>734.79998779297</ele>
        <time>2026-07-05T06:43:04.000Z</time>
      </trkpt>
      <trkpt lat="44.98114" lon="5.69193">
        <ele>735</ele>
        <time>2026-07-05T06:43:05.000Z</time>
      </trkpt>
      <trkpt lat="44.98112" lon="5.69192">
        <ele>735.20001220703</ele>
        <time>2026-07-05T06:43:06.000Z</time>
      </trkpt>
      <trkpt lat="44.98109" lon="5.6919">
        <ele>735.20001220703</ele>
        <time>2026-07-05T06:43:07.000Z</time>
      </trkpt>
      <trkpt lat="44.98107" lon="5.69188">
        <ele>735.59997558594</ele>
        <time>2026-07-05T06:43:08.000Z</time>
      </trkpt>
      <trkpt lat="44.98105" lon="5.69187">
        <ele>735.59997558594</ele>
        <time>2026-07-05T06:43:09.000Z</time>
      </trkpt>
      <trkpt lat="44.98103" lon="5.69186">
        <ele>735.79998779297</ele>
        <time>2026-07-05T06:43:10.000Z</time>
      </trkpt>
      <trkpt lat="44.98101" lon="5.69185">
        <ele>735.79998779297</ele>
        <time>2026-07-05T06:43:11.000Z</time>
      </trkpt>
      <trkpt lat="44.98099" lon="5.69184">
        <ele>735.79998779297</ele>
        <time>2026-07-05T06:43:12.000Z</time>
      </trkpt>
      <trkpt lat="44.98097" lon="5.69183">
        <ele>735.79998779297</ele>
        <time>2026-07-05T06:43:13.000Z</time>
      </trkpt>
      <trkpt lat="44.98095" lon="5.69182">
        <ele>735.79998779297</ele>
        <time>2026-07-05T06:43:14.000Z</time>
      </trkpt>
      <trkpt lat="44.98093" lon="5.69181">
        <ele>735.79998779297</ele>
        <time>2026-07-05T06:43:15.000Z</time>
      </trkpt>
      <trkpt lat="44.98091" lon="5.6918">
        <ele>736</ele>
        <time>2026-07-05T06:43:16.000Z</time>
      </trkpt>
      <trkpt lat="44.98089" lon="5.6918">
        <ele>736</ele>
        <time>2026-07-05T06:43:17.000Z</time>
      </trkpt>
      <trkpt lat="44.98087" lon="5.69178">
        <ele>736.20001220703</ele>
        <time>2026-07-05T06:43:18.000Z</time>
      </trkpt>
      <trkpt lat="44.98085" lon="5.69177">
        <ele>736.59997558594</ele>
        <time>2026-07-05T06:43:19.000Z</time>
      </trkpt>
      <trkpt lat="44.98083" lon="5.69176">
        <ele>736.79998779297</ele>
        <time>2026-07-05T06:43:20.000Z</time>
      </trkpt>
      <trkpt lat="44.9808" lon="5.69175">
        <ele>737.20001220703</ele>
        <time>2026-07-05T06:43:21.000Z</time>
      </trkpt>
      <trkpt lat="44.98077" lon="5.69174">
        <ele>737.40002441406</ele>
        <time>2026-07-05T06:43:22.000Z</time>
      </trkpt>
      <trkpt lat="44.98075" lon="5.69173">
        <ele>737.79998779297</ele>
        <time>2026-07-05T06:43:23.000Z</time>
      </trkpt>
      <trkpt lat="44.98072" lon="5.69172">
        <ele>738</ele>
        <time>2026-07-05T06:43:24.000Z</time>
      </trkpt>
      <trkpt lat="44.98071" lon="5.6917">
        <ele>738</ele>
        <time>2026-07-05T06:43:25.000Z</time>
      </trkpt>
      <trkpt lat="44.98068" lon="5.69168">
        <ele>738.20001220703</ele>
        <time>2026-07-05T06:43:26.000Z</time>
      </trkpt>
      <trkpt lat="44.98066" lon="5.69165">
        <ele>738.20001220703</ele>
        <time>2026-07-05T06:43:27.000Z</time>
      </trkpt>
      <trkpt lat="44.98064" lon="5.69163">
        <ele>738.20001220703</ele>
        <time>2026-07-05T06:43:28.000Z</time>
      </trkpt>
      <trkpt lat="44.98062" lon="5.6916">
        <ele>738.40002441406</ele>
        <time>2026-07-05T06:43:29.000Z</time>
      </trkpt>
      <trkpt lat="44.98061" lon="5.69158">
        <ele>738.40002441406</ele>
        <time>2026-07-05T06:43:30.000Z</time>
      </trkpt>
      <trkpt lat="44.98059" lon="5.69156">
        <ele>738.40002441406</ele>
        <time>2026-07-05T06:43:31.000Z</time>
      </trkpt>
      <trkpt lat="44.98057" lon="5.69154">
        <ele>738.20001220703</ele>
        <time>2026-07-05T06:43:32.000Z</time>
      </trkpt>
      <trkpt lat="44.98055" lon="5.69152">
        <ele>738.20001220703</ele>
        <time>2026-07-05T06:43:33.000Z</time>
      </trkpt>
      <trkpt lat="44.98054" lon="5.6915">
        <ele>738</ele>
        <time>2026-07-05T06:43:34.000Z</time>
      </trkpt>
      <trkpt lat="44.98052" lon="5.69147">
        <ele>738</ele>
        <time>2026-07-05T06:43:35.000Z</time>
      </trkpt>
      <trkpt lat="44.9805" lon="5.69145">
        <ele>738</ele>
        <time>2026-07-05T06:43:36.000Z</time>
      </trkpt>
      <trkpt lat="44.98048" lon="5.69141">
        <ele>738</ele>
        <time>2026-07-05T06:43:37.000Z</time>
      </trkpt>
      <trkpt lat="44.98047" lon="5.69139">
        <ele>738</ele>
        <time>2026-07-05T06:43:38.000Z</time>
      </trkpt>
      <trkpt lat="44.98045" lon="5.69137">
        <ele>738</ele>
        <time>2026-07-05T06:43:39.000Z</time>
      </trkpt>
      <trkpt lat="44.98044" lon="5.69135">
        <ele>738</ele>
        <time>2026-07-05T06:43:40.000Z</time>
      </trkpt>
      <trkpt lat="44.98042" lon="5.69132">
        <ele>738.20001220703</ele>
        <time>2026-07-05T06:43:41.000Z</time>
      </trkpt>
      <trkpt lat="44.98041" lon="5.6913">
        <ele>738.20001220703</ele>
        <time>2026-07-05T06:43:42.000Z</time>
      </trkpt>
      <trkpt lat="44.98039" lon="5.69127">
        <ele>738.40002441406</ele>
        <time>2026-07-05T06:43:43.000Z</time>
      </trkpt>
      <trkpt lat="44.98037" lon="5.69125">
        <ele>738.59997558594</ele>
        <time>2026-07-05T06:43:44.000Z</time>
      </trkpt>
      <trkpt lat="44.98035" lon="5.69122">
        <ele>738.79998779297</ele>
        <time>2026-07-05T06:43:45.000Z</time>
      </trkpt>
      <trkpt lat="44.98033" lon="5.6912">
        <ele>739</ele>
        <time>2026-07-05T06:43:46.000Z</time>
      </trkpt>
      <trkpt lat="44.98031" lon="5.69118">
        <ele>739</ele>
        <time>2026-07-05T06:43:47.000Z</time>
      </trkpt>
      <trkpt lat="44.98029" lon="5.69116">
        <ele>739</ele>
        <time>2026-07-05T06:43:48.000Z</time>
      </trkpt>
      <trkpt lat="44.98027" lon="5.69114">
        <ele>739</ele>
        <time>2026-07-05T06:43:49.000Z</time>
      </trkpt>
      <trkpt lat="44.98024" lon="5.69113">
        <ele>739</ele>
        <time>2026-07-05T06:43:50.000Z</time>
      </trkpt>
      <trkpt lat="44.98022" lon="5.69111">
        <ele>739.20001220703</ele>
        <time>2026-07-05T06:43:51.000Z</time>
      </trkpt>
      <trkpt lat="44.9802" lon="5.69109">
        <ele>739.40002441406</ele>
        <time>2026-07-05T06:43:52.000Z</time>
      </trkpt>
      <trkpt lat="44.98018" lon="5.69108">
        <ele>739.59997558594</ele>
        <time>2026-07-05T06:43:53.000Z</time>
      </trkpt>
      <trkpt lat="44.98016" lon="5.69106">
        <ele>739.59997558594</ele>
        <time>2026-07-05T06:43:54.000Z</time>
      </trkpt>
      <trkpt lat="44.98014" lon="5.69105">
        <ele>739.79998779297</ele>
        <time>2026-07-05T06:43:55.000Z</time>
      </trkpt>
      <trkpt lat="44.98012" lon="5.69103">
        <ele>739.59997558594</ele>
        <time>2026-07-05T06:43:56.000Z</time>
      </trkpt>
      <trkpt lat="44.9801" lon="5.69101">
        <ele>739.40002441406</ele>
        <time>2026-07-05T06:43:57.000Z</time>
      </trkpt>
      <trkpt lat="44.98009" lon="5.691">
        <ele>739.20001220703</ele>
        <time>2026-07-05T06:43:58.000Z</time>
      </trkpt>
      <trkpt lat="44.98006" lon="5.69098">
        <ele>738.79998779297</ele>
        <time>2026-07-05T06:43:59.000Z</time>
      </trkpt>
      <trkpt lat="44.98003" lon="5.69096">
        <ele>738.59997558594</ele>
        <time>2026-07-05T06:44:00.000Z</time>
      </trkpt>
      <trkpt lat="44.98001" lon="5.69095">
        <ele>738.40002441406</ele>
        <time>2026-07-05T06:44:01.000Z</time>
      </trkpt>
      <trkpt lat="44.97999" lon="5.69093">
        <ele>738.40002441406</ele>
        <time>2026-07-05T06:44:02.000Z</time>
      </trkpt>
      <trkpt lat="44.97997" lon="5.69091">
        <ele>738.40002441406</ele>
        <time>2026-07-05T06:44:03.000Z</time>
      </trkpt>
      <trkpt lat="44.97995" lon="5.69089">
        <ele>738.20001220703</ele>
        <time>2026-07-05T06:44:04.000Z</time>
      </trkpt>
      <trkpt lat="44.97993" lon="5.69088">
        <ele>738.20001220703</ele>
        <time>2026-07-05T06:44:05.000Z</time>
      </trkpt>
      <trkpt lat="44.9799" lon="5.69086">
        <ele>738</ele>
        <time>2026-07-05T06:44:06.000Z</time>
      </trkpt>
      <trkpt lat="44.97988" lon="5.69084">
        <ele>738</ele>
        <time>2026-07-05T06:44:07.000Z</time>
      </trkpt>
      <trkpt lat="44.97986" lon="5.69082">
        <ele>738</ele>
        <time>2026-07-05T06:44:08.000Z</time>
      </trkpt>
      <trkpt lat="44.97983" lon="5.6908">
        <ele>738</ele>
        <time>2026-07-05T06:44:09.000Z</time>
      </trkpt>
      <trkpt lat="44.97981" lon="5.69078">
        <ele>738.20001220703</ele>
        <time>2026-07-05T06:44:10.000Z</time>
      </trkpt>
      <trkpt lat="44.97978" lon="5.69076">
        <ele>738.20001220703</ele>
        <time>2026-07-05T06:44:11.000Z</time>
      </trkpt>
      <trkpt lat="44.97976" lon="5.69075">
        <ele>738.20001220703</ele>
        <time>2026-07-05T06:44:12.000Z</time>
      </trkpt>
      <trkpt lat="44.97973" lon="5.69073">
        <ele>738</ele>
        <time>2026-07-05T06:44:13.000Z</time>
      </trkpt>
      <trkpt lat="44.9797" lon="5.69072">
        <ele>738.20001220703</ele>
        <time>2026-07-05T06:44:14.000Z</time>
      </trkpt>
      <trkpt lat="44.97968" lon="5.6907">
        <ele>738.20001220703</ele>
        <time>2026-07-05T06:44:15.000Z</time>
      </trkpt>
      <trkpt lat="44.97966" lon="5.69068">
        <ele>738.59997558594</ele>
        <time>2026-07-05T06:44:16.000Z</time>
      </trkpt>
      <trkpt lat="44.97964" lon="5.69066">
        <ele>738.59997558594</ele>
        <time>2026-07-05T06:44:17.000Z</time>
      </trkpt>
      <trkpt lat="44.97961" lon="5.69063">
        <ele>738.40002441406</ele>
        <time>2026-07-05T06:44:18.000Z</time>
      </trkpt>
      <trkpt lat="44.97959" lon="5.69061">
        <ele>738.40002441406</ele>
        <time>2026-07-05T06:44:19.000Z</time>
      </trkpt>
      <trkpt lat="44.97957" lon="5.69059">
        <ele>738.20001220703</ele>
        <time>2026-07-05T06:44:20.000Z</time>
      </trkpt>
      <trkpt lat="44.97954" lon="5.69057">
        <ele>738.20001220703</ele>
        <time>2026-07-05T06:44:21.000Z</time>
      </trkpt>
      <trkpt lat="44.97952" lon="5.69056">
        <ele>738.20001220703</ele>
        <time>2026-07-05T06:44:22.000Z</time>
      </trkpt>
      <trkpt lat="44.9795" lon="5.69054">
        <ele>738.40002441406</ele>
        <time>2026-07-05T06:44:23.000Z</time>
      </trkpt>
      <trkpt lat="44.97948" lon="5.69053">
        <ele>738.59997558594</ele>
        <time>2026-07-05T06:44:24.000Z</time>
      </trkpt>
      <trkpt lat="44.97945" lon="5.6905">
        <ele>738.59997558594</ele>
        <time>2026-07-05T06:44:25.000Z</time>
      </trkpt>
      <trkpt lat="44.97943" lon="5.69049">
        <ele>738.59997558594</ele>
        <time>2026-07-05T06:44:26.000Z</time>
      </trkpt>
      <trkpt lat="44.9794" lon="5.69046">
        <ele>738.59997558594</ele>
        <time>2026-07-05T06:44:27.000Z</time>
      </trkpt>
      <trkpt lat="44.97938" lon="5.69043">
        <ele>738.40002441406</ele>
        <time>2026-07-05T06:44:28.000Z</time>
      </trkpt>
      <trkpt lat="44.97936" lon="5.69041">
        <ele>738.40002441406</ele>
        <time>2026-07-05T06:44:29.000Z</time>
      </trkpt>
      <trkpt lat="44.97934" lon="5.6904">
        <ele>738.40002441406</ele>
        <time>2026-07-05T06:44:30.000Z</time>
      </trkpt>
      <trkpt lat="44.97932" lon="5.69039">
        <ele>738.59997558594</ele>
        <time>2026-07-05T06:44:31.000Z</time>
      </trkpt>
      <trkpt lat="44.9793" lon="5.69038">
        <ele>738.79998779297</ele>
        <time>2026-07-05T06:44:32.000Z</time>
      </trkpt>
      <trkpt lat="44.97928" lon="5.69037">
        <ele>739</ele>
        <time>2026-07-05T06:44:33.000Z</time>
      </trkpt>
      <trkpt lat="44.97926" lon="5.69035">
        <ele>739.20001220703</ele>
        <time>2026-07-05T06:44:34.000Z</time>
      </trkpt>
      <trkpt lat="44.97923" lon="5.69033">
        <ele>739.59997558594</ele>
        <time>2026-07-05T06:44:35.000Z</time>
      </trkpt>
      <trkpt lat="44.97921" lon="5.69031">
        <ele>739.79998779297</ele>
        <time>2026-07-05T06:44:36.000Z</time>
      </trkpt>
      <trkpt lat="44.97919" lon="5.6903">
        <ele>740</ele>
        <time>2026-07-05T06:44:37.000Z</time>
      </trkpt>
      <trkpt lat="44.97916" lon="5.69028">
        <ele>740</ele>
        <time>2026-07-05T06:44:38.000Z</time>
      </trkpt>
      <trkpt lat="44.97913" lon="5.69028">
        <ele>739.79998779297</ele>
        <time>2026-07-05T06:44:39.000Z</time>
      </trkpt>
      <trkpt lat="44.97911" lon="5.69028">
        <ele>739.79998779297</ele>
        <time>2026-07-05T06:44:40.000Z</time>
      </trkpt>
      <trkpt lat="44.97909" lon="5.69029">
        <ele>739.59997558594</ele>
        <time>2026-07-05T06:44:41.000Z</time>
      </trkpt>
      <trkpt lat="44.97907" lon="5.6903">
        <ele>739.40002441406</ele>
        <time>2026-07-05T06:44:42.000Z</time>
      </trkpt>
      <trkpt lat="44.97905" lon="5.6903">
        <ele>739.40002441406</ele>
        <time>2026-07-05T06:44:43.000Z</time>
      </trkpt>
      <trkpt lat="44.97902" lon="5.69029">
        <ele>739.59997558594</ele>
        <time>2026-07-05T06:44:44.000Z</time>
      </trkpt>
      <trkpt lat="44.979" lon="5.69029">
        <ele>739.79998779297</ele>
        <time>2026-07-05T06:44:45.000Z</time>
      </trkpt>
      <trkpt lat="44.97897" lon="5.69029">
        <ele>740.40002441406</ele>
        <time>2026-07-05T06:44:46.000Z</time>
      </trkpt>
      <trkpt lat="44.97894" lon="5.69029">
        <ele>740.59997558594</ele>
        <time>2026-07-05T06:44:47.000Z</time>
      </trkpt>
      <trkpt lat="44.97892" lon="5.69029">
        <ele>740.79998779297</ele>
        <time>2026-07-05T06:44:48.000Z</time>
      </trkpt>
      <trkpt lat="44.97889" lon="5.69029">
        <ele>741</ele>
        <time>2026-07-05T06:44:49.000Z</time>
      </trkpt>
      <trkpt lat="44.97887" lon="5.69028">
        <ele>741</ele>
        <time>2026-07-05T06:44:50.000Z</time>
      </trkpt>
      <trkpt lat="44.97885" lon="5.69028">
        <ele>741</ele>
        <time>2026-07-05T06:44:51.000Z</time>
      </trkpt>
      <trkpt lat="44.97882" lon="5.69028">
        <ele>741</ele>
        <time>2026-07-05T06:44:52.000Z</time>
      </trkpt>
      <trkpt lat="44.9788" lon="5.69028">
        <ele>741</ele>
        <time>2026-07-05T06:44:53.000Z</time>
      </trkpt>
      <trkpt lat="44.97878" lon="5.69027">
        <ele>741.59997558594</ele>
        <time>2026-07-05T06:44:54.000Z</time>
      </trkpt>
      <trkpt lat="44.97876" lon="5.69027">
        <ele>741.79998779297</ele>
        <time>2026-07-05T06:44:55.000Z</time>
      </trkpt>
      <trkpt lat="44.97874" lon="5.69025">
        <ele>742.20001220703</ele>
        <time>2026-07-05T06:44:56.000Z</time>
      </trkpt>
      <trkpt lat="44.97872" lon="5.69025">
        <ele>742.79998779297</ele>
        <time>2026-07-05T06:44:57.000Z</time>
      </trkpt>
      <trkpt lat="44.97871" lon="5.69023">
        <ele>743.20001220703</ele>
        <time>2026-07-05T06:44:58.000Z</time>
      </trkpt>
      <trkpt lat="44.97868" lon="5.69023">
        <ele>743.40002441406</ele>
        <time>2026-07-05T06:44:59.000Z</time>
      </trkpt>
      <trkpt lat="44.97867" lon="5.69023">
        <ele>743.79998779297</ele>
        <time>2026-07-05T06:45:00.000Z</time>
      </trkpt>
      <trkpt lat="44.97865" lon="5.69022">
        <ele>744</ele>
        <time>2026-07-05T06:45:01.000Z</time>
      </trkpt>
      <trkpt lat="44.97863" lon="5.69021">
        <ele>744.20001220703</ele>
        <time>2026-07-05T06:45:02.000Z</time>
      </trkpt>
      <trkpt lat="44.97861" lon="5.69022">
        <ele>744.59997558594</ele>
        <time>2026-07-05T06:45:03.000Z</time>
      </trkpt>
      <trkpt lat="44.9786" lon="5.69022">
        <ele>744.79998779297</ele>
        <time>2026-07-05T06:45:04.000Z</time>
      </trkpt>
      <trkpt lat="44.97858" lon="5.69022">
        <ele>745</ele>
        <time>2026-07-05T06:45:05.000Z</time>
      </trkpt>
      <trkpt lat="44.97857" lon="5.69021">
        <ele>745.20001220703</ele>
        <time>2026-07-05T06:45:06.000Z</time>
      </trkpt>
      <trkpt lat="44.97855" lon="5.69021">
        <ele>745.40002441406</ele>
        <time>2026-07-05T06:45:07.000Z</time>
      </trkpt>
      <trkpt lat="44.97854" lon="5.6902">
        <ele>745.59997558594</ele>
        <time>2026-07-05T06:45:08.000Z</time>
      </trkpt>
      <trkpt lat="44.97853" lon="5.69019">
        <ele>746</ele>
        <time>2026-07-05T06:45:09.000Z</time>
      </trkpt>
      <trkpt lat="44.97851" lon="5.69018">
        <ele>746</ele>
        <time>2026-07-05T06:45:10.000Z</time>
      </trkpt>
      <trkpt lat="44.9785" lon="5.69018">
        <ele>746.20001220703</ele>
        <time>2026-07-05T06:45:11.000Z</time>
      </trkpt>
      <trkpt lat="44.9785" lon="5.69019">
        <ele>746.59997558594</ele>
        <time>2026-07-05T06:45:12.000Z</time>
      </trkpt>
      <trkpt lat="44.97849" lon="5.69018">
        <ele>746.59997558594</ele>
        <time>2026-07-05T06:45:13.000Z</time>
      </trkpt>
      <trkpt lat="44.97849" lon="5.69018">
        <ele>746.79998779297</ele>
        <time>2026-07-05T06:45:14.000Z</time>
      </trkpt>
      <trkpt lat="44.97849" lon="5.69018">
        <ele>746.79998779297</ele>
        <time>2026-07-05T06:45:15.000Z</time>
      </trkpt>
      <trkpt lat="44.97847" lon="5.69018">
        <ele>746.79998779297</ele>
        <time>2026-07-05T06:45:16.000Z</time>
      </trkpt>
      <trkpt lat="44.97847" lon="5.69018">
        <ele>747</ele>
        <time>2026-07-05T06:45:17.000Z</time>
      </trkpt>
      <trkpt lat="44.97845" lon="5.69018">
        <ele>747.20001220703</ele>
        <time>2026-07-05T06:45:18.000Z</time>
      </trkpt>
      <trkpt lat="44.97844" lon="5.69018">
        <ele>747.59997558594</ele>
        <time>2026-07-05T06:45:19.000Z</time>
      </trkpt>
      <trkpt lat="44.97842" lon="5.69017">
        <ele>748</ele>
        <time>2026-07-05T06:45:20.000Z</time>
      </trkpt>
      <trkpt lat="44.9784" lon="5.69017">
        <ele>748.40002441406</ele>
        <time>2026-07-05T06:45:21.000Z</time>
      </trkpt>
      <trkpt lat="44.97838" lon="5.69016">
        <ele>748.59997558594</ele>
        <time>2026-07-05T06:45:22.000Z</time>
      </trkpt>
      <trkpt lat="44.97836" lon="5.69016">
        <ele>748.79998779297</ele>
        <time>2026-07-05T06:45:23.000Z</time>
      </trkpt>
      <trkpt lat="44.97834" lon="5.69016">
        <ele>749.20001220703</ele>
        <time>2026-07-05T06:45:24.000Z</time>
      </trkpt>
      <trkpt lat="44.97832" lon="5.69015">
        <ele>749.40002441406</ele>
        <time>2026-07-05T06:45:25.000Z</time>
      </trkpt>
      <trkpt lat="44.9783" lon="5.69015">
        <ele>749.79998779297</ele>
        <time>2026-07-05T06:45:26.000Z</time>
      </trkpt>
      <trkpt lat="44.97828" lon="5.69015">
        <ele>750</ele>
        <time>2026-07-05T06:45:27.000Z</time>
      </trkpt>
      <trkpt lat="44.97826" lon="5.69015">
        <ele>750.40002441406</ele>
        <time>2026-07-05T06:45:28.000Z</time>
      </trkpt>
      <trkpt lat="44.97825" lon="5.69015">
        <ele>750.59997558594</ele>
        <time>2026-07-05T06:45:29.000Z</time>
      </trkpt>
      <trkpt lat="44.97823" lon="5.69015">
        <ele>751</ele>
        <time>2026-07-05T06:45:30.000Z</time>
      </trkpt>
      <trkpt lat="44.97821" lon="5.69015">
        <ele>751.20001220703</ele>
        <time>2026-07-05T06:45:31.000Z</time>
      </trkpt>
      <trkpt lat="44.9782" lon="5.69015">
        <ele>751.59997558594</ele>
        <time>2026-07-05T06:45:32.000Z</time>
      </trkpt>
      <trkpt lat="44.97818" lon="5.69015">
        <ele>752</ele>
        <time>2026-07-05T06:45:33.000Z</time>
      </trkpt>
      <trkpt lat="44.97817" lon="5.69015">
        <ele>752.40002441406</ele>
        <time>2026-07-05T06:45:34.000Z</time>
      </trkpt>
      <trkpt lat="44.97815" lon="5.69016">
        <ele>752.59997558594</ele>
        <time>2026-07-05T06:45:35.000Z</time>
      </trkpt>
      <trkpt lat="44.97814" lon="5.69016">
        <ele>752.79998779297</ele>
        <time>2026-07-05T06:45:36.000Z</time>
      </trkpt>
      <trkpt lat="44.97813" lon="5.69015">
        <ele>753</ele>
        <time>2026-07-05T06:45:37.000Z</time>
      </trkpt>
      <trkpt lat="44.97811" lon="5.69015">
        <ele>753.40002441406</ele>
        <time>2026-07-05T06:45:38.000Z</time>
      </trkpt>
      <trkpt lat="44.9781" lon="5.69015">
        <ele>753.79998779297</ele>
        <time>2026-07-05T06:45:39.000Z</time>
      </trkpt>
      <trkpt lat="44.97808" lon="5.69015">
        <ele>754</ele>
        <time>2026-07-05T06:45:40.000Z</time>
      </trkpt>
      <trkpt lat="44.97806" lon="5.69015">
        <ele>754.40002441406</ele>
        <time>2026-07-05T06:45:41.000Z</time>
      </trkpt>
      <trkpt lat="44.97804" lon="5.69016">
        <ele>754.40002441406</ele>
        <time>2026-07-05T06:45:42.000Z</time>
      </trkpt>
      <trkpt lat="44.97803" lon="5.69015">
        <ele>754.59997558594</ele>
        <time>2026-07-05T06:45:43.000Z</time>
      </trkpt>
      <trkpt lat="44.97801" lon="5.69014">
        <ele>754.79998779297</ele>
        <time>2026-07-05T06:45:44.000Z</time>
      </trkpt>
      <trkpt lat="44.978" lon="5.69014">
        <ele>755.20001220703</ele>
        <time>2026-07-05T06:45:45.000Z</time>
      </trkpt>
      <trkpt lat="44.97798" lon="5.69013">
        <ele>755.40002441406</ele>
        <time>2026-07-05T06:45:46.000Z</time>
      </trkpt>
      <trkpt lat="44.97797" lon="5.69013">
        <ele>755.59997558594</ele>
        <time>2026-07-05T06:45:47.000Z</time>
      </trkpt>
      <trkpt lat="44.97797" lon="5.69013">
        <ele>756</ele>
        <time>2026-07-05T06:45:48.000Z</time>
      </trkpt>
      <trkpt lat="44.97795" lon="5.69014">
        <ele>756.20001220703</ele>
        <time>2026-07-05T06:45:49.000Z</time>
      </trkpt>
      <trkpt lat="44.97793" lon="5.69013">
        <ele>756.59997558594</ele>
        <time>2026-07-05T06:45:50.000Z</time>
      </trkpt>
      <trkpt lat="44.97791" lon="5.69013">
        <ele>756.79998779297</ele>
        <time>2026-07-05T06:45:51.000Z</time>
      </trkpt>
      <trkpt lat="44.97789" lon="5.69013">
        <ele>757.20001220703</ele>
        <time>2026-07-05T06:45:52.000Z</time>
      </trkpt>
      <trkpt lat="44.97787" lon="5.69013">
        <ele>757.40002441406</ele>
        <time>2026-07-05T06:45:53.000Z</time>
      </trkpt>
      <trkpt lat="44.97785" lon="5.69013">
        <ele>757.59997558594</ele>
        <time>2026-07-05T06:45:54.000Z</time>
      </trkpt>
      <trkpt lat="44.97784" lon="5.69014">
        <ele>758</ele>
        <time>2026-07-05T06:45:55.000Z</time>
      </trkpt>
      <trkpt lat="44.97783" lon="5.69015">
        <ele>758.40002441406</ele>
        <time>2026-07-05T06:45:56.000Z</time>
      </trkpt>
      <trkpt lat="44.97781" lon="5.69015">
        <ele>758.59997558594</ele>
        <time>2026-07-05T06:45:57.000Z</time>
      </trkpt>
      <trkpt lat="44.97781" lon="5.69017">
        <ele>758.79998779297</ele>
        <time>2026-07-05T06:45:58.000Z</time>
      </trkpt>
      <trkpt lat="44.97781" lon="5.69018">
        <ele>759.20001220703</ele>
        <time>2026-07-05T06:45:59.000Z</time>
      </trkpt>
      <trkpt lat="44.97781" lon="5.69019">
        <ele>759.40002441406</ele>
        <time>2026-07-05T06:46:00.000Z</time>
      </trkpt>
      <trkpt lat="44.97782" lon="5.69019">
        <ele>759.79998779297</ele>
        <time>2026-07-05T06:46:01.000Z</time>
      </trkpt>
      <trkpt lat="44.97782" lon="5.6902">
        <ele>760.40002441406</ele>
        <time>2026-07-05T06:46:02.000Z</time>
      </trkpt>
      <trkpt lat="44.97783" lon="5.6902">
        <ele>760.59997558594</ele>
        <time>2026-07-05T06:46:03.000Z</time>
      </trkpt>
      <trkpt lat="44.97784" lon="5.69021">
        <ele>761</ele>
        <time>2026-07-05T06:46:04.000Z</time>
      </trkpt>
      <trkpt lat="44.97785" lon="5.69021">
        <ele>761.40002441406</ele>
        <time>2026-07-05T06:46:05.000Z</time>
      </trkpt>
      <trkpt lat="44.97786" lon="5.69022">
        <ele>761.79998779297</ele>
        <time>2026-07-05T06:46:06.000Z</time>
      </trkpt>
      <trkpt lat="44.97787" lon="5.69022">
        <ele>762.20001220703</ele>
        <time>2026-07-05T06:46:07.000Z</time>
      </trkpt>
      <trkpt lat="44.97788" lon="5.69022">
        <ele>762.59997558594</ele>
        <time>2026-07-05T06:46:08.000Z</time>
      </trkpt>
      <trkpt lat="44.97789" lon="5.69022">
        <ele>763</ele>
        <time>2026-07-05T06:46:09.000Z</time>
      </trkpt>
      <trkpt lat="44.97789" lon="5.69022">
        <ele>763.20001220703</ele>
        <time>2026-07-05T06:46:10.000Z</time>
      </trkpt>
      <trkpt lat="44.9779" lon="5.69023">
        <ele>763.59997558594</ele>
        <time>2026-07-05T06:46:11.000Z</time>
      </trkpt>
      <trkpt lat="44.97791" lon="5.69023">
        <ele>763.79998779297</ele>
        <time>2026-07-05T06:46:12.000Z</time>
      </trkpt>
      <trkpt lat="44.97792" lon="5.69023">
        <ele>764.20001220703</ele>
        <time>2026-07-05T06:46:13.000Z</time>
      </trkpt>
      <trkpt lat="44.97793" lon="5.69024">
        <ele>764.40002441406</ele>
        <time>2026-07-05T06:46:14.000Z</time>
      </trkpt>
      <trkpt lat="44.97794" lon="5.69024">
        <ele>764.79998779297</ele>
        <time>2026-07-05T06:46:15.000Z</time>
      </trkpt>
      <trkpt lat="44.97796" lon="5.69024">
        <ele>765</ele>
        <time>2026-07-05T06:46:16.000Z</time>
      </trkpt>
      <trkpt lat="44.97797" lon="5.69024">
        <ele>765.20001220703</ele>
        <time>2026-07-05T06:46:17.000Z</time>
      </trkpt>
      <trkpt lat="44.97799" lon="5.69025">
        <ele>765.40002441406</ele>
        <time>2026-07-05T06:46:18.000Z</time>
      </trkpt>
      <trkpt lat="44.978" lon="5.69025">
        <ele>765.59997558594</ele>
        <time>2026-07-05T06:46:19.000Z</time>
      </trkpt>
      <trkpt lat="44.97801" lon="5.69026">
        <ele>765.59997558594</ele>
        <time>2026-07-05T06:46:20.000Z</time>
      </trkpt>
      <trkpt lat="44.97803" lon="5.69027">
        <ele>765.79998779297</ele>
        <time>2026-07-05T06:46:21.000Z</time>
      </trkpt>
      <trkpt lat="44.97804" lon="5.69028">
        <ele>766</ele>
        <time>2026-07-05T06:46:22.000Z</time>
      </trkpt>
      <trkpt lat="44.97805" lon="5.69029">
        <ele>766.20001220703</ele>
        <time>2026-07-05T06:46:23.000Z</time>
      </trkpt>
      <trkpt lat="44.97806" lon="5.69031">
        <ele>766.20001220703</ele>
        <time>2026-07-05T06:46:24.000Z</time>
      </trkpt>
      <trkpt lat="44.97807" lon="5.69033">
        <ele>766.59997558594</ele>
        <time>2026-07-05T06:46:25.000Z</time>
      </trkpt>
      <trkpt lat="44.97808" lon="5.69033">
        <ele>767</ele>
        <time>2026-07-05T06:46:26.000Z</time>
      </trkpt>
      <trkpt lat="44.97809" lon="5.69034">
        <ele>767.40002441406</ele>
        <time>2026-07-05T06:46:27.000Z</time>
      </trkpt>
      <trkpt lat="44.9781" lon="5.69034">
        <ele>767.79998779297</ele>
        <time>2026-07-05T06:46:28.000Z</time>
      </trkpt>
      <trkpt lat="44.97812" lon="5.69035">
        <ele>768</ele>
        <time>2026-07-05T06:46:29.000Z</time>
      </trkpt>
      <trkpt lat="44.97813" lon="5.69036">
        <ele>768.40002441406</ele>
        <time>2026-07-05T06:46:30.000Z</time>
      </trkpt>
      <trkpt lat="44.97814" lon="5.69036">
        <ele>768.59997558594</ele>
        <time>2026-07-05T06:46:31.000Z</time>
      </trkpt>
      <trkpt lat="44.97815" lon="5.69037">
        <ele>768.79998779297</ele>
        <time>2026-07-05T06:46:32.000Z</time>
      </trkpt>
      <trkpt lat="44.97816" lon="5.69037">
        <ele>769</ele>
        <time>2026-07-05T06:46:33.000Z</time>
      </trkpt>
      <trkpt lat="44.97816" lon="5.69039">
        <ele>769.20001220703</ele>
        <time>2026-07-05T06:46:34.000Z</time>
      </trkpt>
      <trkpt lat="44.97818" lon="5.6904">
        <ele>769.40002441406</ele>
        <time>2026-07-05T06:46:35.000Z</time>
      </trkpt>
      <trkpt lat="44.97818" lon="5.69041">
        <ele>769.59997558594</ele>
        <time>2026-07-05T06:46:36.000Z</time>
      </trkpt>
      <trkpt lat="44.97819" lon="5.69043">
        <ele>770</ele>
        <time>2026-07-05T06:46:37.000Z</time>
      </trkpt>
      <trkpt lat="44.97819" lon="5.69044">
        <ele>770.40002441406</ele>
        <time>2026-07-05T06:46:38.000Z</time>
      </trkpt>
      <trkpt lat="44.9782" lon="5.69045">
        <ele>770.59997558594</ele>
        <time>2026-07-05T06:46:39.000Z</time>
      </trkpt>
      <trkpt lat="44.97821" lon="5.69046">
        <ele>771</ele>
        <time>2026-07-05T06:46:40.000Z</time>
      </trkpt>
      <trkpt lat="44.97822" lon="5.69047">
        <ele>771.40002441406</ele>
        <time>2026-07-05T06:46:41.000Z</time>
      </trkpt>
      <trkpt lat="44.97823" lon="5.69048">
        <ele>771.79998779297</ele>
        <time>2026-07-05T06:46:42.000Z</time>
      </trkpt>
      <trkpt lat="44.97824" lon="5.69049">
        <ele>772</ele>
        <time>2026-07-05T06:46:43.000Z</time>
      </trkpt>
      <trkpt lat="44.97824" lon="5.6905">
        <ele>772.40002441406</ele>
        <time>2026-07-05T06:46:44.000Z</time>
      </trkpt>
      <trkpt lat="44.97826" lon="5.69051">
        <ele>772.79998779297</ele>
        <time>2026-07-05T06:46:45.000Z</time>
      </trkpt>
      <trkpt lat="44.97827" lon="5.69052">
        <ele>773</ele>
        <time>2026-07-05T06:46:46.000Z</time>
      </trkpt>
      <trkpt lat="44.97828" lon="5.69053">
        <ele>773.20001220703</ele>
        <time>2026-07-05T06:46:47.000Z</time>
      </trkpt>
      <trkpt lat="44.97829" lon="5.69054">
        <ele>773.20001220703</ele>
        <time>2026-07-05T06:46:48.000Z</time>
      </trkpt>
      <trkpt lat="44.9783" lon="5.69055">
        <ele>773.40002441406</ele>
        <time>2026-07-05T06:46:49.000Z</time>
      </trkpt>
      <trkpt lat="44.97832" lon="5.69056">
        <ele>773.40002441406</ele>
        <time>2026-07-05T06:46:50.000Z</time>
      </trkpt>
      <trkpt lat="44.97833" lon="5.69056">
        <ele>773.40002441406</ele>
        <time>2026-07-05T06:46:51.000Z</time>
      </trkpt>
      <trkpt lat="44.97835" lon="5.69057">
        <ele>773.40002441406</ele>
        <time>2026-07-05T06:46:52.000Z</time>
      </trkpt>
      <trkpt lat="44.97836" lon="5.69058">
        <ele>773.20001220703</ele>
        <time>2026-07-05T06:46:53.000Z</time>
      </trkpt>
      <trkpt lat="44.97838" lon="5.69059">
        <ele>773.20001220703</ele>
        <time>2026-07-05T06:46:54.000Z</time>
      </trkpt>
      <trkpt lat="44.97839" lon="5.69061">
        <ele>773.20001220703</ele>
        <time>2026-07-05T06:46:55.000Z</time>
      </trkpt>
      <trkpt lat="44.9784" lon="5.69062">
        <ele>773.40002441406</ele>
        <time>2026-07-05T06:46:56.000Z</time>
      </trkpt>
      <trkpt lat="44.97842" lon="5.69063">
        <ele>773.59997558594</ele>
        <time>2026-07-05T06:46:57.000Z</time>
      </trkpt>
      <trkpt lat="44.97843" lon="5.69065">
        <ele>773.79998779297</ele>
        <time>2026-07-05T06:46:58.000Z</time>
      </trkpt>
      <trkpt lat="44.97843" lon="5.69066">
        <ele>774</ele>
        <time>2026-07-05T06:46:59.000Z</time>
      </trkpt>
      <trkpt lat="44.97844" lon="5.69068">
        <ele>774.40002441406</ele>
        <time>2026-07-05T06:47:00.000Z</time>
      </trkpt>
      <trkpt lat="44.97844" lon="5.69069">
        <ele>774.79998779297</ele>
        <time>2026-07-05T06:47:01.000Z</time>
      </trkpt>
      <trkpt lat="44.97844" lon="5.69071">
        <ele>775.20001220703</ele>
        <time>2026-07-05T06:47:02.000Z</time>
      </trkpt>
      <trkpt lat="44.97844" lon="5.69073">
        <ele>775.59997558594</ele>
        <time>2026-07-05T06:47:03.000Z</time>
      </trkpt>
      <trkpt lat="44.97844" lon="5.69074">
        <ele>776</ele>
        <time>2026-07-05T06:47:04.000Z</time>
      </trkpt>
      <trkpt lat="44.97843" lon="5.69075">
        <ele>776.40002441406</ele>
        <time>2026-07-05T06:47:05.000Z</time>
      </trkpt>
      <trkpt lat="44.97842" lon="5.69075">
        <ele>776.79998779297</ele>
        <time>2026-07-05T06:47:06.000Z</time>
      </trkpt>
      <trkpt lat="44.97842" lon="5.69075">
        <ele>777.20001220703</ele>
        <time>2026-07-05T06:47:07.000Z</time>
      </trkpt>
      <trkpt lat="44.97842" lon="5.69076">
        <ele>777.40002441406</ele>
        <time>2026-07-05T06:47:08.000Z</time>
      </trkpt>
      <trkpt lat="44.97841" lon="5.69077">
        <ele>777.79998779297</ele>
        <time>2026-07-05T06:47:09.000Z</time>
      </trkpt>
      <trkpt lat="44.97841" lon="5.69078">
        <ele>778.20001220703</ele>
        <time>2026-07-05T06:47:10.000Z</time>
      </trkpt>
      <trkpt lat="44.9784" lon="5.69078">
        <ele>778.40002441406</ele>
        <time>2026-07-05T06:47:11.000Z</time>
      </trkpt>
      <trkpt lat="44.9784" lon="5.69078">
        <ele>778.79998779297</ele>
        <time>2026-07-05T06:47:12.000Z</time>
      </trkpt>
      <trkpt lat="44.9784" lon="5.69078">
        <ele>779.20001220703</ele>
        <time>2026-07-05T06:47:13.000Z</time>
      </trkpt>
      <trkpt lat="44.97841" lon="5.69078">
        <ele>779.40002441406</ele>
        <time>2026-07-05T06:47:14.000Z</time>
      </trkpt>
      <trkpt lat="44.97841" lon="5.69079">
        <ele>779.79998779297</ele>
        <time>2026-07-05T06:47:15.000Z</time>
      </trkpt>
      <trkpt lat="44.97841" lon="5.69079">
        <ele>780.20001220703</ele>
        <time>2026-07-05T06:47:16.000Z</time>
      </trkpt>
      <trkpt lat="44.97842" lon="5.6908">
        <ele>780.59997558594</ele>
        <time>2026-07-05T06:47:17.000Z</time>
      </trkpt>
      <trkpt lat="44.97842" lon="5.6908">
        <ele>781</ele>
        <time>2026-07-05T06:47:18.000Z</time>
      </trkpt>
      <trkpt lat="44.97843" lon="5.69081">
        <ele>781.40002441406</ele>
        <time>2026-07-05T06:47:19.000Z</time>
      </trkpt>
      <trkpt lat="44.97843" lon="5.69082">
        <ele>781.59997558594</ele>
        <time>2026-07-05T06:47:20.000Z</time>
      </trkpt>
      <trkpt lat="44.97844" lon="5.69083">
        <ele>782</ele>
        <time>2026-07-05T06:47:21.000Z</time>
      </trkpt>
      <trkpt lat="44.97844" lon="5.69083">
        <ele>782.20001220703</ele>
        <time>2026-07-05T06:47:22.000Z</time>
      </trkpt>
      <trkpt lat="44.97845" lon="5.69084">
        <ele>782.59997558594</ele>
        <time>2026-07-05T06:47:23.000Z</time>
      </trkpt>
      <trkpt lat="44.97846" lon="5.69084">
        <ele>783</ele>
        <time>2026-07-05T06:47:24.000Z</time>
      </trkpt>
      <trkpt lat="44.97847" lon="5.69084">
        <ele>783.20001220703</ele>
        <time>2026-07-05T06:47:25.000Z</time>
      </trkpt>
      <trkpt lat="44.97848" lon="5.69084">
        <ele>783.40002441406</ele>
        <time>2026-07-05T06:47:26.000Z</time>
      </trkpt>
      <trkpt lat="44.9785" lon="5.69085">
        <ele>783.59997558594</ele>
        <time>2026-07-05T06:47:27.000Z</time>
      </trkpt>
      <trkpt lat="44.97852" lon="5.69085">
        <ele>783.79998779297</ele>
        <time>2026-07-05T06:47:28.000Z</time>
      </trkpt>
      <trkpt lat="44.97853" lon="5.69086">
        <ele>784</ele>
        <time>2026-07-05T06:47:29.000Z</time>
      </trkpt>
      <trkpt lat="44.97855" lon="5.69086">
        <ele>784.20001220703</ele>
        <time>2026-07-05T06:47:30.000Z</time>
      </trkpt>
      <trkpt lat="44.97857" lon="5.69086">
        <ele>784.20001220703</ele>
        <time>2026-07-05T06:47:31.000Z</time>
      </trkpt>
      <trkpt lat="44.97859" lon="5.69087">
        <ele>784.40002441406</ele>
        <time>2026-07-05T06:47:32.000Z</time>
      </trkpt>
      <trkpt lat="44.9786" lon="5.69087">
        <ele>784.40002441406</ele>
        <time>2026-07-05T06:47:33.000Z</time>
      </trkpt>
      <trkpt lat="44.97862" lon="5.69088">
        <ele>784.59997558594</ele>
        <time>2026-07-05T06:47:34.000Z</time>
      </trkpt>
      <trkpt lat="44.97864" lon="5.69088">
        <ele>784.59997558594</ele>
        <time>2026-07-05T06:47:35.000Z</time>
      </trkpt>
      <trkpt lat="44.97866" lon="5.69089">
        <ele>784.79998779297</ele>
        <time>2026-07-05T06:47:36.000Z</time>
      </trkpt>
      <trkpt lat="44.97868" lon="5.6909">
        <ele>784.79998779297</ele>
        <time>2026-07-05T06:47:37.000Z</time>
      </trkpt>
      <trkpt lat="44.9787" lon="5.69091">
        <ele>784.79998779297</ele>
        <time>2026-07-05T06:47:38.000Z</time>
      </trkpt>
      <trkpt lat="44.97872" lon="5.69092">
        <ele>784.79998779297</ele>
        <time>2026-07-05T06:47:39.000Z</time>
      </trkpt>
      <trkpt lat="44.97874" lon="5.69092">
        <ele>784.79998779297</ele>
        <time>2026-07-05T06:47:40.000Z</time>
      </trkpt>
      <trkpt lat="44.97876" lon="5.69093">
        <ele>784.79998779297</ele>
        <time>2026-07-05T06:47:41.000Z</time>
      </trkpt>
      <trkpt lat="44.97878" lon="5.69094">
        <ele>784.59997558594</ele>
        <time>2026-07-05T06:47:42.000Z</time>
      </trkpt>
      <trkpt lat="44.9788" lon="5.69096">
        <ele>784.59997558594</ele>
        <time>2026-07-05T06:47:43.000Z</time>
      </trkpt>
      <trkpt lat="44.97883" lon="5.69097">
        <ele>784.59997558594</ele>
        <time>2026-07-05T06:47:44.000Z</time>
      </trkpt>
      <trkpt lat="44.97884" lon="5.69098">
        <ele>784.40002441406</ele>
        <time>2026-07-05T06:47:45.000Z</time>
      </trkpt>
      <trkpt lat="44.97886" lon="5.69099">
        <ele>784.40002441406</ele>
        <time>2026-07-05T06:47:46.000Z</time>
      </trkpt>
      <trkpt lat="44.97888" lon="5.69101">
        <ele>784.40002441406</ele>
        <time>2026-07-05T06:47:47.000Z</time>
      </trkpt>
      <trkpt lat="44.9789" lon="5.69102">
        <ele>784.20001220703</ele>
        <time>2026-07-05T06:47:48.000Z</time>
      </trkpt>
      <trkpt lat="44.97892" lon="5.69103">
        <ele>784</ele>
        <time>2026-07-05T06:47:49.000Z</time>
      </trkpt>
      <trkpt lat="44.97894" lon="5.69105">
        <ele>784</ele>
        <time>2026-07-05T06:47:50.000Z</time>
      </trkpt>
      <trkpt lat="44.97896" lon="5.69107">
        <ele>783.79998779297</ele>
        <time>2026-07-05T06:47:51.000Z</time>
      </trkpt>
      <trkpt lat="44.97898" lon="5.69108">
        <ele>783.79998779297</ele>
        <time>2026-07-05T06:47:52.000Z</time>
      </trkpt>
      <trkpt lat="44.979" lon="5.6911">
        <ele>783.59997558594</ele>
        <time>2026-07-05T06:47:53.000Z</time>
      </trkpt>
      <trkpt lat="44.97903" lon="5.69112">
        <ele>783.59997558594</ele>
        <time>2026-07-05T06:47:54.000Z</time>
      </trkpt>
      <trkpt lat="44.97905" lon="5.69115">
        <ele>783.79998779297</ele>
        <time>2026-07-05T06:47:55.000Z</time>
      </trkpt>
      <trkpt lat="44.97908" lon="5.69117">
        <ele>783.79998779297</ele>
        <time>2026-07-05T06:47:56.000Z</time>
      </trkpt>
      <trkpt lat="44.9791" lon="5.6912">
        <ele>783.79998779297</ele>
        <time>2026-07-05T06:47:57.000Z</time>
      </trkpt>
      <trkpt lat="44.97912" lon="5.69123">
        <ele>783.79998779297</ele>
        <time>2026-07-05T06:47:58.000Z</time>
      </trkpt>
      <trkpt lat="44.97914" lon="5.69125">
        <ele>784</ele>
        <time>2026-07-05T06:47:59.000Z</time>
      </trkpt>
      <trkpt lat="44.97915" lon="5.69127">
        <ele>784</ele>
        <time>2026-07-05T06:48:00.000Z</time>
      </trkpt>
      <trkpt lat="44.97917" lon="5.69129">
        <ele>784.20001220703</ele>
        <time>2026-07-05T06:48:01.000Z</time>
      </trkpt>
      <trkpt lat="44.97919" lon="5.69132">
        <ele>784.20001220703</ele>
        <time>2026-07-05T06:48:02.000Z</time>
      </trkpt>
      <trkpt lat="44.97921" lon="5.69135">
        <ele>784.20001220703</ele>
        <time>2026-07-05T06:48:03.000Z</time>
      </trkpt>
      <trkpt lat="44.97923" lon="5.69138">
        <ele>784.20001220703</ele>
        <time>2026-07-05T06:48:04.000Z</time>
      </trkpt>
      <trkpt lat="44.97925" lon="5.69141">
        <ele>784.20001220703</ele>
        <time>2026-07-05T06:48:05.000Z</time>
      </trkpt>
      <trkpt lat="44.97926" lon="5.69143">
        <ele>784</ele>
        <time>2026-07-05T06:48:06.000Z</time>
      </trkpt>
      <trkpt lat="44.97927" lon="5.69146">
        <ele>784.20001220703</ele>
        <time>2026-07-05T06:48:07.000Z</time>
      </trkpt>
      <trkpt lat="44.97928" lon="5.6915">
        <ele>784.20001220703</ele>
        <time>2026-07-05T06:48:08.000Z</time>
      </trkpt>
      <trkpt lat="44.97929" lon="5.69153">
        <ele>784.40002441406</ele>
        <time>2026-07-05T06:48:09.000Z</time>
      </trkpt>
      <trkpt lat="44.9793" lon="5.69157">
        <ele>784.40002441406</ele>
        <time>2026-07-05T06:48:10.000Z</time>
      </trkpt>
      <trkpt lat="44.9793" lon="5.6916">
        <ele>784.59997558594</ele>
        <time>2026-07-05T06:48:11.000Z</time>
      </trkpt>
      <trkpt lat="44.97931" lon="5.69164">
        <ele>784.79998779297</ele>
        <time>2026-07-05T06:48:12.000Z</time>
      </trkpt>
      <trkpt lat="44.97932" lon="5.69168">
        <ele>784.79998779297</ele>
        <time>2026-07-05T06:48:13.000Z</time>
      </trkpt>
      <trkpt lat="44.97933" lon="5.69171">
        <ele>784.79998779297</ele>
        <time>2026-07-05T06:48:14.000Z</time>
      </trkpt>
      <trkpt lat="44.97934" lon="5.69175">
        <ele>784.79998779297</ele>
        <time>2026-07-05T06:48:15.000Z</time>
      </trkpt>
      <trkpt lat="44.97935" lon="5.69178">
        <ele>784.79998779297</ele>
        <time>2026-07-05T06:48:16.000Z</time>
      </trkpt>
      <trkpt lat="44.97935" lon="5.69181">
        <ele>784.79998779297</ele>
        <time>2026-07-05T06:48:17.000Z</time>
      </trkpt>
      <trkpt lat="44.97936" lon="5.69185">
        <ele>784.59997558594</ele>
        <time>2026-07-05T06:48:18.000Z</time>
      </trkpt>
      <trkpt lat="44.97937" lon="5.69188">
        <ele>784.59997558594</ele>
        <time>2026-07-05T06:48:19.000Z</time>
      </trkpt>
      <trkpt lat="44.97938" lon="5.6919">
        <ele>784.59997558594</ele>
        <time>2026-07-05T06:48:20.000Z</time>
      </trkpt>
      <trkpt lat="44.97938" lon="5.69194">
        <ele>784.79998779297</ele>
        <time>2026-07-05T06:48:21.000Z</time>
      </trkpt>
      <trkpt lat="44.97939" lon="5.69197">
        <ele>784.79998779297</ele>
        <time>2026-07-05T06:48:22.000Z</time>
      </trkpt>
      <trkpt lat="44.9794" lon="5.69199">
        <ele>784.79998779297</ele>
        <time>2026-07-05T06:48:23.000Z</time>
      </trkpt>
      <trkpt lat="44.97941" lon="5.69203">
        <ele>785</ele>
        <time>2026-07-05T06:48:24.000Z</time>
      </trkpt>
      <trkpt lat="44.97941" lon="5.69206">
        <ele>785.20001220703</ele>
        <time>2026-07-05T06:48:25.000Z</time>
      </trkpt>
      <trkpt lat="44.97942" lon="5.69208">
        <ele>785.40002441406</ele>
        <time>2026-07-05T06:48:26.000Z</time>
      </trkpt>
      <trkpt lat="44.97942" lon="5.69211">
        <ele>785.59997558594</ele>
        <time>2026-07-05T06:48:27.000Z</time>
      </trkpt>
      <trkpt lat="44.97941" lon="5.69214">
        <ele>786</ele>
        <time>2026-07-05T06:48:28.000Z</time>
      </trkpt>
      <trkpt lat="44.97939" lon="5.69216">
        <ele>786.20001220703</ele>
        <time>2026-07-05T06:48:29.000Z</time>
      </trkpt>
      <trkpt lat="44.97938" lon="5.69217">
        <ele>786.59997558594</ele>
        <time>2026-07-05T06:48:30.000Z</time>
      </trkpt>
      <trkpt lat="44.97937" lon="5.69218">
        <ele>787.20001220703</ele>
        <time>2026-07-05T06:48:31.000Z</time>
      </trkpt>
      <trkpt lat="44.97936" lon="5.69219">
        <ele>787.59997558594</ele>
        <time>2026-07-05T06:48:32.000Z</time>
      </trkpt>
      <trkpt lat="44.97934" lon="5.69219">
        <ele>788</ele>
        <time>2026-07-05T06:48:33.000Z</time>
      </trkpt>
      <trkpt lat="44.97933" lon="5.69219">
        <ele>788.40002441406</ele>
        <time>2026-07-05T06:48:34.000Z</time>
      </trkpt>
      <trkpt lat="44.97931" lon="5.69219">
        <ele>788.79998779297</ele>
        <time>2026-07-05T06:48:35.000Z</time>
      </trkpt>
      <trkpt lat="44.9793" lon="5.69219">
        <ele>789.40002441406</ele>
        <time>2026-07-05T06:48:36.000Z</time>
      </trkpt>
      <trkpt lat="44.97929" lon="5.69219">
        <ele>789.79998779297</ele>
        <time>2026-07-05T06:48:37.000Z</time>
      </trkpt>
      <trkpt lat="44.97928" lon="5.69219">
        <ele>790.20001220703</ele>
        <time>2026-07-05T06:48:38.000Z</time>
      </trkpt>
      <trkpt lat="44.97926" lon="5.69218">
        <ele>790.59997558594</ele>
        <time>2026-07-05T06:48:39.000Z</time>
      </trkpt>
      <trkpt lat="44.97925" lon="5.69217">
        <ele>790.79998779297</ele>
        <time>2026-07-05T06:48:40.000Z</time>
      </trkpt>
      <trkpt lat="44.97924" lon="5.69216">
        <ele>791.20001220703</ele>
        <time>2026-07-05T06:48:41.000Z</time>
      </trkpt>
      <trkpt lat="44.97923" lon="5.69216">
        <ele>791.59997558594</ele>
        <time>2026-07-05T06:48:42.000Z</time>
      </trkpt>
      <trkpt lat="44.97922" lon="5.69215">
        <ele>791.79998779297</ele>
        <time>2026-07-05T06:48:43.000Z</time>
      </trkpt>
      <trkpt lat="44.97921" lon="5.69214">
        <ele>792.20001220703</ele>
        <time>2026-07-05T06:48:44.000Z</time>
      </trkpt>
      <trkpt lat="44.9792" lon="5.69213">
        <ele>792.40002441406</ele>
        <time>2026-07-05T06:48:45.000Z</time>
      </trkpt>
      <trkpt lat="44.9792" lon="5.69212">
        <ele>792.59997558594</ele>
        <time>2026-07-05T06:48:46.000Z</time>
      </trkpt>
      <trkpt lat="44.97919" lon="5.69211">
        <ele>792.79998779297</ele>
        <time>2026-07-05T06:48:47.000Z</time>
      </trkpt>
      <trkpt lat="44.97918" lon="5.69211">
        <ele>793.20001220703</ele>
        <time>2026-07-05T06:48:48.000Z</time>
      </trkpt>
      <trkpt lat="44.97917" lon="5.69212">
        <ele>793.59997558594</ele>
        <time>2026-07-05T06:48:49.000Z</time>
      </trkpt>
      <trkpt lat="44.97917" lon="5.69212">
        <ele>793.79998779297</ele>
        <time>2026-07-05T06:48:50.000Z</time>
      </trkpt>
      <trkpt lat="44.97917" lon="5.69213">
        <ele>794.20001220703</ele>
        <time>2026-07-05T06:48:51.000Z</time>
      </trkpt>
      <trkpt lat="44.97917" lon="5.69214">
        <ele>794.59997558594</ele>
        <time>2026-07-05T06:48:52.000Z</time>
      </trkpt>
      <trkpt lat="44.97918" lon="5.69214">
        <ele>795</ele>
        <time>2026-07-05T06:48:53.000Z</time>
      </trkpt>
      <trkpt lat="44.97918" lon="5.69216">
        <ele>795.40002441406</ele>
        <time>2026-07-05T06:48:54.000Z</time>
      </trkpt>
      <trkpt lat="44.97919" lon="5.69218">
        <ele>795.59997558594</ele>
        <time>2026-07-05T06:48:55.000Z</time>
      </trkpt>
      <trkpt lat="44.9792" lon="5.6922">
        <ele>796</ele>
        <time>2026-07-05T06:48:56.000Z</time>
      </trkpt>
      <trkpt lat="44.9792" lon="5.69222">
        <ele>796.20001220703</ele>
        <time>2026-07-05T06:48:57.000Z</time>
      </trkpt>
      <trkpt lat="44.9792" lon="5.69225">
        <ele>796.40002441406</ele>
        <time>2026-07-05T06:48:58.000Z</time>
      </trkpt>
      <trkpt lat="44.97919" lon="5.69227">
        <ele>796.59997558594</ele>
        <time>2026-07-05T06:48:59.000Z</time>
      </trkpt>
      <trkpt lat="44.97918" lon="5.69229">
        <ele>797</ele>
        <time>2026-07-05T06:49:00.000Z</time>
      </trkpt>
      <trkpt lat="44.97918" lon="5.69231">
        <ele>797</ele>
        <time>2026-07-05T06:49:01.000Z</time>
      </trkpt>
      <trkpt lat="44.97917" lon="5.69232">
        <ele>797.40002441406</ele>
        <time>2026-07-05T06:49:02.000Z</time>
      </trkpt>
      <trkpt lat="44.97916" lon="5.69235">
        <ele>797.79998779297</ele>
        <time>2026-07-05T06:49:03.000Z</time>
      </trkpt>
      <trkpt lat="44.97915" lon="5.69237">
        <ele>797.79998779297</ele>
        <time>2026-07-05T06:49:04.000Z</time>
      </trkpt>
      <trkpt lat="44.97913" lon="5.69238">
        <ele>798</ele>
        <time>2026-07-05T06:49:05.000Z</time>
      </trkpt>
      <trkpt lat="44.97912" lon="5.69239">
        <ele>798</ele>
        <time>2026-07-05T06:49:06.000Z</time>
      </trkpt>
      <trkpt lat="44.9791" lon="5.69241">
        <ele>798.20001220703</ele>
        <time>2026-07-05T06:49:07.000Z</time>
      </trkpt>
      <trkpt lat="44.97908" lon="5.69242">
        <ele>798.20001220703</ele>
        <time>2026-07-05T06:49:08.000Z</time>
      </trkpt>
      <trkpt lat="44.97906" lon="5.69243">
        <ele>798.40002441406</ele>
        <time>2026-07-05T06:49:09.000Z</time>
      </trkpt>
      <trkpt lat="44.97904" lon="5.69244">
        <ele>798.59997558594</ele>
        <time>2026-07-05T06:49:10.000Z</time>
      </trkpt>
      <trkpt lat="44.97902" lon="5.69245">
        <ele>798.79998779297</ele>
        <time>2026-07-05T06:49:11.000Z</time>
      </trkpt>
      <trkpt lat="44.979" lon="5.69245">
        <ele>799.40002441406</ele>
        <time>2026-07-05T06:49:12.000Z</time>
      </trkpt>
      <trkpt lat="44.97899" lon="5.69245">
        <ele>799.59997558594</ele>
        <time>2026-07-05T06:49:13.000Z</time>
      </trkpt>
      <trkpt lat="44.97897" lon="5.69245">
        <ele>800</ele>
        <time>2026-07-05T06:49:14.000Z</time>
      </trkpt>
      <trkpt lat="44.97896" lon="5.69246">
        <ele>800.20001220703</ele>
        <time>2026-07-05T06:49:15.000Z</time>
      </trkpt>
      <trkpt lat="44.97894" lon="5.69245">
        <ele>800.40002441406</ele>
        <time>2026-07-05T06:49:16.000Z</time>
      </trkpt>
      <trkpt lat="44.97893" lon="5.69246">
        <ele>800.79998779297</ele>
        <time>2026-07-05T06:49:17.000Z</time>
      </trkpt>
      <trkpt lat="44.97891" lon="5.69246">
        <ele>801</ele>
        <time>2026-07-05T06:49:18.000Z</time>
      </trkpt>
      <trkpt lat="44.9789" lon="5.69247">
        <ele>801.40002441406</ele>
        <time>2026-07-05T06:49:19.000Z</time>
      </trkpt>
      <trkpt lat="44.97889" lon="5.69248">
        <ele>801.59997558594</ele>
        <time>2026-07-05T06:49:20.000Z</time>
      </trkpt>
      <trkpt lat="44.97887" lon="5.69248">
        <ele>801.79998779297</ele>
        <time>2026-07-05T06:49:21.000Z</time>
      </trkpt>
      <trkpt lat="44.97886" lon="5.69248">
        <ele>802</ele>
        <time>2026-07-05T06:49:22.000Z</time>
      </trkpt>
      <trkpt lat="44.97884" lon="5.69248">
        <ele>802.20001220703</ele>
        <time>2026-07-05T06:49:23.000Z</time>
      </trkpt>
      <trkpt lat="44.97882" lon="5.69249">
        <ele>802.40002441406</ele>
        <time>2026-07-05T06:49:24.000Z</time>
      </trkpt>
      <trkpt lat="44.97881" lon="5.69249">
        <ele>802.79998779297</ele>
        <time>2026-07-05T06:49:25.000Z</time>
      </trkpt>
      <trkpt lat="44.9788" lon="5.69249">
        <ele>803</ele>
        <time>2026-07-05T06:49:26.000Z</time>
      </trkpt>
      <trkpt lat="44.97878" lon="5.69249">
        <ele>803.20001220703</ele>
        <time>2026-07-05T06:49:27.000Z</time>
      </trkpt>
      <trkpt lat="44.97876" lon="5.69249">
        <ele>803.59997558594</ele>
        <time>2026-07-05T06:49:28.000Z</time>
      </trkpt>
      <trkpt lat="44.97874" lon="5.69249">
        <ele>803.79998779297</ele>
        <time>2026-07-05T06:49:29.000Z</time>
      </trkpt>
      <trkpt lat="44.97873" lon="5.69248">
        <ele>804.20001220703</ele>
        <time>2026-07-05T06:49:30.000Z</time>
      </trkpt>
      <trkpt lat="44.97871" lon="5.69247">
        <ele>804.40002441406</ele>
        <time>2026-07-05T06:49:31.000Z</time>
      </trkpt>
      <trkpt lat="44.9787" lon="5.69245">
        <ele>804.59997558594</ele>
        <time>2026-07-05T06:49:32.000Z</time>
      </trkpt>
      <trkpt lat="44.97869" lon="5.69244">
        <ele>805</ele>
        <time>2026-07-05T06:49:33.000Z</time>
      </trkpt>
      <trkpt lat="44.97867" lon="5.69242">
        <ele>805</ele>
        <time>2026-07-05T06:49:34.000Z</time>
      </trkpt>
      <trkpt lat="44.97867" lon="5.6924">
        <ele>805.20001220703</ele>
        <time>2026-07-05T06:49:35.000Z</time>
      </trkpt>
      <trkpt lat="44.97866" lon="5.69238">
        <ele>805.40002441406</ele>
        <time>2026-07-05T06:49:36.000Z</time>
      </trkpt>
      <trkpt lat="44.97866" lon="5.69236">
        <ele>805.59997558594</ele>
        <time>2026-07-05T06:49:37.000Z</time>
      </trkpt>
      <trkpt lat="44.97866" lon="5.69233">
        <ele>805.79998779297</ele>
        <time>2026-07-05T06:49:38.000Z</time>
      </trkpt>
      <trkpt lat="44.97866" lon="5.69231">
        <ele>806.20001220703</ele>
        <time>2026-07-05T06:49:39.000Z</time>
      </trkpt>
      <trkpt lat="44.97867" lon="5.69229">
        <ele>806.79998779297</ele>
        <time>2026-07-05T06:49:40.000Z</time>
      </trkpt>
      <trkpt lat="44.97866" lon="5.69228">
        <ele>807.20001220703</ele>
        <time>2026-07-05T06:49:41.000Z</time>
      </trkpt>
      <trkpt lat="44.97866" lon="5.69227">
        <ele>807.59997558594</ele>
        <time>2026-07-05T06:49:42.000Z</time>
      </trkpt>
      <trkpt lat="44.97866" lon="5.69225">
        <ele>808</ele>
        <time>2026-07-05T06:49:43.000Z</time>
      </trkpt>
      <trkpt lat="44.97867" lon="5.69224">
        <ele>808.40002441406</ele>
        <time>2026-07-05T06:49:44.000Z</time>
      </trkpt>
      <trkpt lat="44.97867" lon="5.69222">
        <ele>808.79998779297</ele>
        <time>2026-07-05T06:49:45.000Z</time>
      </trkpt>
      <trkpt lat="44.97866" lon="5.69222">
        <ele>809.20001220703</ele>
        <time>2026-07-05T06:49:46.000Z</time>
      </trkpt>
      <trkpt lat="44.97866" lon="5.69221">
        <ele>809.40002441406</ele>
        <time>2026-07-05T06:49:47.000Z</time>
      </trkpt>
      <trkpt lat="44.97866" lon="5.69221">
        <ele>809.79998779297</ele>
        <time>2026-07-05T06:49:48.000Z</time>
      </trkpt>
      <trkpt lat="44.97865" lon="5.6922">
        <ele>810.20001220703</ele>
        <time>2026-07-05T06:49:49.000Z</time>
      </trkpt>
      <trkpt lat="44.97864" lon="5.69219">
        <ele>810.59997558594</ele>
        <time>2026-07-05T06:49:50.000Z</time>
      </trkpt>
      <trkpt lat="44.97863" lon="5.69218">
        <ele>811</ele>
        <time>2026-07-05T06:49:51.000Z</time>
      </trkpt>
      <trkpt lat="44.97863" lon="5.69218">
        <ele>811</ele>
        <time>2026-07-05T06:49:52.000Z</time>
      </trkpt>
      <trkpt lat="44.97861" lon="5.69217">
        <ele>811.40002441406</ele>
        <time>2026-07-05T06:49:53.000Z</time>
      </trkpt>
      <trkpt lat="44.9786" lon="5.69217">
        <ele>811.59997558594</ele>
        <time>2026-07-05T06:49:54.000Z</time>
      </trkpt>
      <trkpt lat="44.97858" lon="5.69217">
        <ele>811.79998779297</ele>
        <time>2026-07-05T06:49:55.000Z</time>
      </trkpt>
      <trkpt lat="44.97857" lon="5.69217">
        <ele>812</ele>
        <time>2026-07-05T06:49:56.000Z</time>
      </trkpt>
      <trkpt lat="44.97855" lon="5.69217">
        <ele>812</ele>
        <time>2026-07-05T06:49:57.000Z</time>
      </trkpt>
      <trkpt lat="44.97854" lon="5.69217">
        <ele>812.20001220703</ele>
        <time>2026-07-05T06:49:58.000Z</time>
      </trkpt>
      <trkpt lat="44.97852" lon="5.69217">
        <ele>812.20001220703</ele>
        <time>2026-07-05T06:49:59.000Z</time>
      </trkpt>
      <trkpt lat="44.97851" lon="5.69217">
        <ele>812.40002441406</ele>
        <time>2026-07-05T06:50:00.000Z</time>
      </trkpt>
      <trkpt lat="44.9785" lon="5.69217">
        <ele>812.59997558594</ele>
        <time>2026-07-05T06:50:01.000Z</time>
      </trkpt>
      <trkpt lat="44.97848" lon="5.69217">
        <ele>813</ele>
        <time>2026-07-05T06:50:02.000Z</time>
      </trkpt>
      <trkpt lat="44.97848" lon="5.69217">
        <ele>813.20001220703</ele>
        <time>2026-07-05T06:50:03.000Z</time>
      </trkpt>
      <trkpt lat="44.97846" lon="5.69217">
        <ele>813.59997558594</ele>
        <time>2026-07-05T06:50:04.000Z</time>
      </trkpt>
      <trkpt lat="44.97845" lon="5.69218">
        <ele>814</ele>
        <time>2026-07-05T06:50:05.000Z</time>
      </trkpt>
      <trkpt lat="44.97844" lon="5.69218">
        <ele>814.40002441406</ele>
        <time>2026-07-05T06:50:06.000Z</time>
      </trkpt>
      <trkpt lat="44.97843" lon="5.69218">
        <ele>814.79998779297</ele>
        <time>2026-07-05T06:50:07.000Z</time>
      </trkpt>
      <trkpt lat="44.97842" lon="5.69219">
        <ele>814.79998779297</ele>
        <time>2026-07-05T06:50:08.000Z</time>
      </trkpt>
      <trkpt lat="44.97841" lon="5.69219">
        <ele>815.40002441406</ele>
        <time>2026-07-05T06:50:09.000Z</time>
      </trkpt>
      <trkpt lat="44.9784" lon="5.69219">
        <ele>815.79998779297</ele>
        <time>2026-07-05T06:50:10.000Z</time>
      </trkpt>
      <trkpt lat="44.97839" lon="5.6922">
        <ele>816</ele>
        <time>2026-07-05T06:50:11.000Z</time>
      </trkpt>
      <trkpt lat="44.97838" lon="5.69221">
        <ele>816.40002441406</ele>
        <time>2026-07-05T06:50:12.000Z</time>
      </trkpt>
      <trkpt lat="44.97837" lon="5.69222">
        <ele>816.59997558594</ele>
        <time>2026-07-05T06:50:13.000Z</time>
      </trkpt>
      <trkpt lat="44.97836" lon="5.69222">
        <ele>817</ele>
        <time>2026-07-05T06:50:14.000Z</time>
      </trkpt>
      <trkpt lat="44.97835" lon="5.69223">
        <ele>817.20001220703</ele>
        <time>2026-07-05T06:50:15.000Z</time>
      </trkpt>
      <trkpt lat="44.97834" lon="5.69223">
        <ele>817.59997558594</ele>
        <time>2026-07-05T06:50:16.000Z</time>
      </trkpt>
      <trkpt lat="44.97832" lon="5.69224">
        <ele>817.79998779297</ele>
        <time>2026-07-05T06:50:17.000Z</time>
      </trkpt>
      <trkpt lat="44.9783" lon="5.69223">
        <ele>818</ele>
        <time>2026-07-05T06:50:18.000Z</time>
      </trkpt>
      <trkpt lat="44.97828" lon="5.69224">
        <ele>818.20001220703</ele>
        <time>2026-07-05T06:50:19.000Z</time>
      </trkpt>
      <trkpt lat="44.97827" lon="5.69224">
        <ele>818.40002441406</ele>
        <time>2026-07-05T06:50:20.000Z</time>
      </trkpt>
      <trkpt lat="44.97825" lon="5.69223">
        <ele>818.79998779297</ele>
        <time>2026-07-05T06:50:21.000Z</time>
      </trkpt>
      <trkpt lat="44.97824" lon="5.69223">
        <ele>819</ele>
        <time>2026-07-05T06:50:22.000Z</time>
      </trkpt>
      <trkpt lat="44.97822" lon="5.69223">
        <ele>819.20001220703</ele>
        <time>2026-07-05T06:50:23.000Z</time>
      </trkpt>
      <trkpt lat="44.97821" lon="5.69223">
        <ele>819.40002441406</ele>
        <time>2026-07-05T06:50:24.000Z</time>
      </trkpt>
      <trkpt lat="44.97819" lon="5.69223">
        <ele>819.59997558594</ele>
        <time>2026-07-05T06:50:25.000Z</time>
      </trkpt>
      <trkpt lat="44.97818" lon="5.69223">
        <ele>820</ele>
        <time>2026-07-05T06:50:26.000Z</time>
      </trkpt>
      <trkpt lat="44.97816" lon="5.69223">
        <ele>820.20001220703</ele>
        <time>2026-07-05T06:50:27.000Z</time>
      </trkpt>
      <trkpt lat="44.97815" lon="5.69223">
        <ele>820.40002441406</ele>
        <time>2026-07-05T06:50:28.000Z</time>
      </trkpt>
      <trkpt lat="44.97814" lon="5.69222">
        <ele>820.59997558594</ele>
        <time>2026-07-05T06:50:29.000Z</time>
      </trkpt>
      <trkpt lat="44.97812" lon="5.69223">
        <ele>820.79998779297</ele>
        <time>2026-07-05T06:50:30.000Z</time>
      </trkpt>
      <trkpt lat="44.9781" lon="5.69222">
        <ele>821</ele>
        <time>2026-07-05T06:50:31.000Z</time>
      </trkpt>
      <trkpt lat="44.97809" lon="5.69222">
        <ele>821</ele>
        <time>2026-07-05T06:50:32.000Z</time>
      </trkpt>
      <trkpt lat="44.97808" lon="5.69222">
        <ele>821.20001220703</ele>
        <time>2026-07-05T06:50:33.000Z</time>
      </trkpt>
      <trkpt lat="44.97806" lon="5.69222">
        <ele>821.40002441406</ele>
        <time>2026-07-05T06:50:34.000Z</time>
      </trkpt>
      <trkpt lat="44.97805" lon="5.69223">
        <ele>821.59997558594</ele>
        <time>2026-07-05T06:50:35.000Z</time>
      </trkpt>
      <trkpt lat="44.97804" lon="5.69223">
        <ele>821.79998779297</ele>
        <time>2026-07-05T06:50:36.000Z</time>
      </trkpt>
      <trkpt lat="44.97803" lon="5.69223">
        <ele>822</ele>
        <time>2026-07-05T06:50:37.000Z</time>
      </trkpt>
      <trkpt lat="44.97802" lon="5.69223">
        <ele>822.40002441406</ele>
        <time>2026-07-05T06:50:38.000Z</time>
      </trkpt>
      <trkpt lat="44.978" lon="5.69223">
        <ele>822.79998779297</ele>
        <time>2026-07-05T06:50:39.000Z</time>
      </trkpt>
      <trkpt lat="44.97799" lon="5.69223">
        <ele>823.20001220703</ele>
        <time>2026-07-05T06:50:40.000Z</time>
      </trkpt>
      <trkpt lat="44.97798" lon="5.69223">
        <ele>823.40002441406</ele>
        <time>2026-07-05T06:50:41.000Z</time>
      </trkpt>
      <trkpt lat="44.97797" lon="5.69223">
        <ele>823.79998779297</ele>
        <time>2026-07-05T06:50:42.000Z</time>
      </trkpt>
      <trkpt lat="44.97795" lon="5.69222">
        <ele>824</ele>
        <time>2026-07-05T06:50:43.000Z</time>
      </trkpt>
      <trkpt lat="44.97794" lon="5.69222">
        <ele>824.20001220703</ele>
        <time>2026-07-05T06:50:44.000Z</time>
      </trkpt>
      <trkpt lat="44.97793" lon="5.69222">
        <ele>824.59997558594</ele>
        <time>2026-07-05T06:50:45.000Z</time>
      </trkpt>
      <trkpt lat="44.97791" lon="5.69222">
        <ele>825</ele>
        <time>2026-07-05T06:50:46.000Z</time>
      </trkpt>
      <trkpt lat="44.9779" lon="5.69221">
        <ele>825.20001220703</ele>
        <time>2026-07-05T06:50:47.000Z</time>
      </trkpt>
      <trkpt lat="44.97788" lon="5.69221">
        <ele>825.59997558594</ele>
        <time>2026-07-05T06:50:48.000Z</time>
      </trkpt>
      <trkpt lat="44.97786" lon="5.6922">
        <ele>825.79998779297</ele>
        <time>2026-07-05T06:50:49.000Z</time>
      </trkpt>
      <trkpt lat="44.97784" lon="5.69219">
        <ele>825.79998779297</ele>
        <time>2026-07-05T06:50:50.000Z</time>
      </trkpt>
      <trkpt lat="44.97782" lon="5.69218">
        <ele>826</ele>
        <time>2026-07-05T06:50:51.000Z</time>
      </trkpt>
      <trkpt lat="44.9778" lon="5.69218">
        <ele>826.20001220703</ele>
        <time>2026-07-05T06:50:52.000Z</time>
      </trkpt>
      <trkpt lat="44.97778" lon="5.69217">
        <ele>826.20001220703</ele>
        <time>2026-07-05T06:50:53.000Z</time>
      </trkpt>
      <trkpt lat="44.97776" lon="5.69217">
        <ele>826</ele>
        <time>2026-07-05T06:50:54.000Z</time>
      </trkpt>
      <trkpt lat="44.97774" lon="5.69216">
        <ele>826</ele>
        <time>2026-07-05T06:50:55.000Z</time>
      </trkpt>
      <trkpt lat="44.97772" lon="5.69216">
        <ele>826</ele>
        <time>2026-07-05T06:50:56.000Z</time>
      </trkpt>
      <trkpt lat="44.9777" lon="5.69215">
        <ele>826</ele>
        <time>2026-07-05T06:50:57.000Z</time>
      </trkpt>
      <trkpt lat="44.97768" lon="5.69216">
        <ele>826</ele>
        <time>2026-07-05T06:50:58.000Z</time>
      </trkpt>
      <trkpt lat="44.97765" lon="5.69215">
        <ele>826.20001220703</ele>
        <time>2026-07-05T06:50:59.000Z</time>
      </trkpt>
      <trkpt lat="44.97763" lon="5.69215">
        <ele>826.40002441406</ele>
        <time>2026-07-05T06:51:00.000Z</time>
      </trkpt>
      <trkpt lat="44.97761" lon="5.69214">
        <ele>826.79998779297</ele>
        <time>2026-07-05T06:51:01.000Z</time>
      </trkpt>
      <trkpt lat="44.97759" lon="5.69214">
        <ele>827</ele>
        <time>2026-07-05T06:51:02.000Z</time>
      </trkpt>
      <trkpt lat="44.97757" lon="5.69214">
        <ele>827</ele>
        <time>2026-07-05T06:51:03.000Z</time>
      </trkpt>
      <trkpt lat="44.97755" lon="5.69215">
        <ele>827</ele>
        <time>2026-07-05T06:51:04.000Z</time>
      </trkpt>
      <trkpt lat="44.97753" lon="5.69215">
        <ele>827</ele>
        <time>2026-07-05T06:51:05.000Z</time>
      </trkpt>
      <trkpt lat="44.97751" lon="5.69215">
        <ele>826.79998779297</ele>
        <time>2026-07-05T06:51:06.000Z</time>
      </trkpt>
      <trkpt lat="44.97748" lon="5.69215">
        <ele>826.79998779297</ele>
        <time>2026-07-05T06:51:07.000Z</time>
      </trkpt>
      <trkpt lat="44.97746" lon="5.69215">
        <ele>826.59997558594</ele>
        <time>2026-07-05T06:51:08.000Z</time>
      </trkpt>
      <trkpt lat="44.97744" lon="5.69215">
        <ele>826.59997558594</ele>
        <time>2026-07-05T06:51:09.000Z</time>
      </trkpt>
      <trkpt lat="44.97742" lon="5.69216">
        <ele>826.79998779297</ele>
        <time>2026-07-05T06:51:10.000Z</time>
      </trkpt>
      <trkpt lat="44.9774" lon="5.69217">
        <ele>826.79998779297</ele>
        <time>2026-07-05T06:51:11.000Z</time>
      </trkpt>
      <trkpt lat="44.97738" lon="5.69218">
        <ele>826.79998779297</ele>
        <time>2026-07-05T06:51:12.000Z</time>
      </trkpt>
      <trkpt lat="44.97736" lon="5.69219">
        <ele>826.79998779297</ele>
        <time>2026-07-05T06:51:13.000Z</time>
      </trkpt>
      <trkpt lat="44.97734" lon="5.69221">
        <ele>827</ele>
        <time>2026-07-05T06:51:14.000Z</time>
      </trkpt>
      <trkpt lat="44.97732" lon="5.69221">
        <ele>827</ele>
        <time>2026-07-05T06:51:15.000Z</time>
      </trkpt>
      <trkpt lat="44.97731" lon="5.69223">
        <ele>827.20001220703</ele>
        <time>2026-07-05T06:51:16.000Z</time>
      </trkpt>
      <trkpt lat="44.97729" lon="5.69224">
        <ele>827.40002441406</ele>
        <time>2026-07-05T06:51:17.000Z</time>
      </trkpt>
      <trkpt lat="44.97727" lon="5.69225">
        <ele>827.79998779297</ele>
        <time>2026-07-05T06:51:18.000Z</time>
      </trkpt>
      <trkpt lat="44.97726" lon="5.69225">
        <ele>828.20001220703</ele>
        <time>2026-07-05T06:51:19.000Z</time>
      </trkpt>
      <trkpt lat="44.97725" lon="5.69225">
        <ele>828.59997558594</ele>
        <time>2026-07-05T06:51:20.000Z</time>
      </trkpt>
      <trkpt lat="44.97723" lon="5.69225">
        <ele>828.79998779297</ele>
        <time>2026-07-05T06:51:21.000Z</time>
      </trkpt>
      <trkpt lat="44.97722" lon="5.69225">
        <ele>829</ele>
        <time>2026-07-05T06:51:22.000Z</time>
      </trkpt>
      <trkpt lat="44.97721" lon="5.69225">
        <ele>829.40002441406</ele>
        <time>2026-07-05T06:51:23.000Z</time>
      </trkpt>
      <trkpt lat="44.9772" lon="5.69225">
        <ele>829.79998779297</ele>
        <time>2026-07-05T06:51:24.000Z</time>
      </trkpt>
      <trkpt lat="44.97719" lon="5.69226">
        <ele>830.20001220703</ele>
        <time>2026-07-05T06:51:25.000Z</time>
      </trkpt>
      <trkpt lat="44.97718" lon="5.69226">
        <ele>830.40002441406</ele>
        <time>2026-07-05T06:51:26.000Z</time>
      </trkpt>
      <trkpt lat="44.97717" lon="5.69227">
        <ele>830.79998779297</ele>
        <time>2026-07-05T06:51:27.000Z</time>
      </trkpt>
      <trkpt lat="44.97716" lon="5.69228">
        <ele>831.20001220703</ele>
        <time>2026-07-05T06:51:28.000Z</time>
      </trkpt>
      <trkpt lat="44.97715" lon="5.69228">
        <ele>831.40002441406</ele>
        <time>2026-07-05T06:51:29.000Z</time>
      </trkpt>
      <trkpt lat="44.97714" lon="5.69229">
        <ele>831.40002441406</ele>
        <time>2026-07-05T06:51:30.000Z</time>
      </trkpt>
      <trkpt lat="44.97712" lon="5.69229">
        <ele>831.79998779297</ele>
        <time>2026-07-05T06:51:31.000Z</time>
      </trkpt>
      <trkpt lat="44.97711" lon="5.69229">
        <ele>832.20001220703</ele>
        <time>2026-07-05T06:51:32.000Z</time>
      </trkpt>
      <trkpt lat="44.97709" lon="5.69229">
        <ele>832.59997558594</ele>
        <time>2026-07-05T06:51:33.000Z</time>
      </trkpt>
      <trkpt lat="44.97707" lon="5.69228">
        <ele>832.79998779297</ele>
        <time>2026-07-05T06:51:34.000Z</time>
      </trkpt>
      <trkpt lat="44.97705" lon="5.69228">
        <ele>833.20001220703</ele>
        <time>2026-07-05T06:51:35.000Z</time>
      </trkpt>
      <trkpt lat="44.97703" lon="5.69228">
        <ele>833.59997558594</ele>
        <time>2026-07-05T06:51:36.000Z</time>
      </trkpt>
      <trkpt lat="44.97701" lon="5.69228">
        <ele>833.40002441406</ele>
        <time>2026-07-05T06:51:37.000Z</time>
      </trkpt>
      <trkpt lat="44.977" lon="5.69229">
        <ele>833.20001220703</ele>
        <time>2026-07-05T06:51:38.000Z</time>
      </trkpt>
      <trkpt lat="44.97699" lon="5.69229">
        <ele>833.20001220703</ele>
        <time>2026-07-05T06:51:39.000Z</time>
      </trkpt>
      <trkpt lat="44.97698" lon="5.6923">
        <ele>833.20001220703</ele>
        <time>2026-07-05T06:51:40.000Z</time>
      </trkpt>
      <trkpt lat="44.97698" lon="5.69231">
        <ele>833.20001220703</ele>
        <time>2026-07-05T06:51:41.000Z</time>
      </trkpt>
      <trkpt lat="44.97698" lon="5.69231">
        <ele>833.20001220703</ele>
        <time>2026-07-05T06:51:42.000Z</time>
      </trkpt>
      <trkpt lat="44.97699" lon="5.69232">
        <ele>833</ele>
        <time>2026-07-05T06:51:43.000Z</time>
      </trkpt>
      <trkpt lat="44.977" lon="5.69233">
        <ele>833</ele>
        <time>2026-07-05T06:51:44.000Z</time>
      </trkpt>
      <trkpt lat="44.977" lon="5.69233">
        <ele>833.20001220703</ele>
        <time>2026-07-05T06:51:45.000Z</time>
      </trkpt>
      <trkpt lat="44.97701" lon="5.69234">
        <ele>833.20001220703</ele>
        <time>2026-07-05T06:51:46.000Z</time>
      </trkpt>
      <trkpt lat="44.97701" lon="5.69234">
        <ele>833.20001220703</ele>
        <time>2026-07-05T06:51:47.000Z</time>
      </trkpt>
      <trkpt lat="44.97702" lon="5.69235">
        <ele>833.40002441406</ele>
        <time>2026-07-05T06:51:48.000Z</time>
      </trkpt>
      <trkpt lat="44.97703" lon="5.69235">
        <ele>833.79998779297</ele>
        <time>2026-07-05T06:51:49.000Z</time>
      </trkpt>
      <trkpt lat="44.97703" lon="5.69236">
        <ele>834</ele>
        <time>2026-07-05T06:51:50.000Z</time>
      </trkpt>
      <trkpt lat="44.97704" lon="5.69236">
        <ele>834.40002441406</ele>
        <time>2026-07-05T06:51:51.000Z</time>
      </trkpt>
      <trkpt lat="44.97704" lon="5.69237">
        <ele>835.20001220703</ele>
        <time>2026-07-05T06:51:52.000Z</time>
      </trkpt>
      <trkpt lat="44.97705" lon="5.69237">
        <ele>835.59997558594</ele>
        <time>2026-07-05T06:51:53.000Z</time>
      </trkpt>
      <trkpt lat="44.97705" lon="5.69238">
        <ele>835.79998779297</ele>
        <time>2026-07-05T06:51:54.000Z</time>
      </trkpt>
      <trkpt lat="44.97706" lon="5.69239">
        <ele>836.40002441406</ele>
        <time>2026-07-05T06:51:55.000Z</time>
      </trkpt>
      <trkpt lat="44.97706" lon="5.69239">
        <ele>836.59997558594</ele>
        <time>2026-07-05T06:51:56.000Z</time>
      </trkpt>
      <trkpt lat="44.97707" lon="5.69239">
        <ele>837</ele>
        <time>2026-07-05T06:51:57.000Z</time>
      </trkpt>
      <trkpt lat="44.97709" lon="5.6924">
        <ele>837.20001220703</ele>
        <time>2026-07-05T06:51:58.000Z</time>
      </trkpt>
      <trkpt lat="44.9771" lon="5.69241">
        <ele>837.40002441406</ele>
        <time>2026-07-05T06:51:59.000Z</time>
      </trkpt>
      <trkpt lat="44.97711" lon="5.69241">
        <ele>838.40002441406</ele>
        <time>2026-07-05T06:52:00.000Z</time>
      </trkpt>
      <trkpt lat="44.97713" lon="5.69242">
        <ele>839</ele>
        <time>2026-07-05T06:52:01.000Z</time>
      </trkpt>
      <trkpt lat="44.97714" lon="5.69242">
        <ele>839.20001220703</ele>
        <time>2026-07-05T06:52:02.000Z</time>
      </trkpt>
      <trkpt lat="44.97716" lon="5.69243">
        <ele>839.40002441406</ele>
        <time>2026-07-05T06:52:03.000Z</time>
      </trkpt>
      <trkpt lat="44.97718" lon="5.69244">
        <ele>839.79998779297</ele>
        <time>2026-07-05T06:52:04.000Z</time>
      </trkpt>
      <trkpt lat="44.97719" lon="5.69245">
        <ele>840.20001220703</ele>
        <time>2026-07-05T06:52:05.000Z</time>
      </trkpt>
      <trkpt lat="44.97721" lon="5.69246">
        <ele>840.79998779297</ele>
        <time>2026-07-05T06:52:06.000Z</time>
      </trkpt>
      <trkpt lat="44.97722" lon="5.69248">
        <ele>841.20001220703</ele>
        <time>2026-07-05T06:52:07.000Z</time>
      </trkpt>
      <trkpt lat="44.97724" lon="5.69249">
        <ele>841.79998779297</ele>
        <time>2026-07-05T06:52:08.000Z</time>
      </trkpt>
      <trkpt lat="44.97726" lon="5.6925">
        <ele>841.40002441406</ele>
        <time>2026-07-05T06:52:09.000Z</time>
      </trkpt>
      <trkpt lat="44.97728" lon="5.69251">
        <ele>841.40002441406</ele>
        <time>2026-07-05T06:52:10.000Z</time>
      </trkpt>
      <trkpt lat="44.9773" lon="5.69252">
        <ele>841.40002441406</ele>
        <time>2026-07-05T06:52:11.000Z</time>
      </trkpt>
      <trkpt lat="44.97731" lon="5.69255">
        <ele>841.40002441406</ele>
        <time>2026-07-05T06:52:12.000Z</time>
      </trkpt>
      <trkpt lat="44.97733" lon="5.69257">
        <ele>841.40002441406</ele>
        <time>2026-07-05T06:52:13.000Z</time>
      </trkpt>
      <trkpt lat="44.97734" lon="5.69259">
        <ele>841.59997558594</ele>
        <time>2026-07-05T06:52:14.000Z</time>
      </trkpt>
      <trkpt lat="44.97735" lon="5.69261">
        <ele>841.79998779297</ele>
        <time>2026-07-05T06:52:15.000Z</time>
      </trkpt>
      <trkpt lat="44.97737" lon="5.69263">
        <ele>842</ele>
        <time>2026-07-05T06:52:16.000Z</time>
      </trkpt>
      <trkpt lat="44.97738" lon="5.69265">
        <ele>842.20001220703</ele>
        <time>2026-07-05T06:52:17.000Z</time>
      </trkpt>
      <trkpt lat="44.97739" lon="5.69267">
        <ele>842.40002441406</ele>
        <time>2026-07-05T06:52:18.000Z</time>
      </trkpt>
      <trkpt lat="44.97741" lon="5.69268">
        <ele>842.40002441406</ele>
        <time>2026-07-05T06:52:19.000Z</time>
      </trkpt>
      <trkpt lat="44.97742" lon="5.69271">
        <ele>842.79998779297</ele>
        <time>2026-07-05T06:52:20.000Z</time>
      </trkpt>
      <trkpt lat="44.97743" lon="5.69272">
        <ele>843</ele>
        <time>2026-07-05T06:52:21.000Z</time>
      </trkpt>
      <trkpt lat="44.97745" lon="5.69275">
        <ele>843.20001220703</ele>
        <time>2026-07-05T06:52:22.000Z</time>
      </trkpt>
      <trkpt lat="44.97747" lon="5.69276">
        <ele>843.40002441406</ele>
        <time>2026-07-05T06:52:23.000Z</time>
      </trkpt>
      <trkpt lat="44.97748" lon="5.69278">
        <ele>843.59997558594</ele>
        <time>2026-07-05T06:52:24.000Z</time>
      </trkpt>
      <trkpt lat="44.97749" lon="5.69279">
        <ele>843.59997558594</ele>
        <time>2026-07-05T06:52:25.000Z</time>
      </trkpt>
      <trkpt lat="44.97751" lon="5.69281">
        <ele>843.59997558594</ele>
        <time>2026-07-05T06:52:26.000Z</time>
      </trkpt>
      <trkpt lat="44.97752" lon="5.69283">
        <ele>843.59997558594</ele>
        <time>2026-07-05T06:52:27.000Z</time>
      </trkpt>
      <trkpt lat="44.97753" lon="5.69284">
        <ele>843.59997558594</ele>
        <time>2026-07-05T06:52:28.000Z</time>
      </trkpt>
      <trkpt lat="44.97754" lon="5.69285">
        <ele>843.59997558594</ele>
        <time>2026-07-05T06:52:29.000Z</time>
      </trkpt>
      <trkpt lat="44.97755" lon="5.69287">
        <ele>843.59997558594</ele>
        <time>2026-07-05T06:52:30.000Z</time>
      </trkpt>
      <trkpt lat="44.97756" lon="5.6929">
        <ele>843.79998779297</ele>
        <time>2026-07-05T06:52:31.000Z</time>
      </trkpt>
      <trkpt lat="44.97757" lon="5.69293">
        <ele>843.79998779297</ele>
        <time>2026-07-05T06:52:32.000Z</time>
      </trkpt>
      <trkpt lat="44.97756" lon="5.69296">
        <ele>843.79998779297</ele>
        <time>2026-07-05T06:52:33.000Z</time>
      </trkpt>
      <trkpt lat="44.97754" lon="5.69296">
        <ele>844</ele>
        <time>2026-07-05T06:52:34.000Z</time>
      </trkpt>
      <trkpt lat="44.97752" lon="5.69296">
        <ele>844.20001220703</ele>
        <time>2026-07-05T06:52:35.000Z</time>
      </trkpt>
      <trkpt lat="44.9775" lon="5.69296">
        <ele>844.59997558594</ele>
        <time>2026-07-05T06:52:36.000Z</time>
      </trkpt>
      <trkpt lat="44.97749" lon="5.69296">
        <ele>844.79998779297</ele>
        <time>2026-07-05T06:52:37.000Z</time>
      </trkpt>
      <trkpt lat="44.97748" lon="5.69296">
        <ele>845.20001220703</ele>
        <time>2026-07-05T06:52:38.000Z</time>
      </trkpt>
      <trkpt lat="44.97746" lon="5.69297">
        <ele>845.59997558594</ele>
        <time>2026-07-05T06:52:39.000Z</time>
      </trkpt>
      <trkpt lat="44.97745" lon="5.69297">
        <ele>846</ele>
        <time>2026-07-05T06:52:40.000Z</time>
      </trkpt>
      <trkpt lat="44.97744" lon="5.69297">
        <ele>846.40002441406</ele>
        <time>2026-07-05T06:52:41.000Z</time>
      </trkpt>
      <trkpt lat="44.97743" lon="5.69297">
        <ele>846.79998779297</ele>
        <time>2026-07-05T06:52:42.000Z</time>
      </trkpt>
      <trkpt lat="44.97742" lon="5.69296">
        <ele>846.79998779297</ele>
        <time>2026-07-05T06:52:43.000Z</time>
      </trkpt>
      <trkpt lat="44.9774" lon="5.69297">
        <ele>847.20001220703</ele>
        <time>2026-07-05T06:52:44.000Z</time>
      </trkpt>
      <trkpt lat="44.97739" lon="5.69296">
        <ele>847.40002441406</ele>
        <time>2026-07-05T06:52:45.000Z</time>
      </trkpt>
      <trkpt lat="44.97738" lon="5.69296">
        <ele>847.79998779297</ele>
        <time>2026-07-05T06:52:46.000Z</time>
      </trkpt>
      <trkpt lat="44.97737" lon="5.69295">
        <ele>848</ele>
        <time>2026-07-05T06:52:47.000Z</time>
      </trkpt>
      <trkpt lat="44.97736" lon="5.69294">
        <ele>848.59997558594</ele>
        <time>2026-07-05T06:52:48.000Z</time>
      </trkpt>
      <trkpt lat="44.97735" lon="5.69293">
        <ele>848.59997558594</ele>
        <time>2026-07-05T06:52:49.000Z</time>
      </trkpt>
      <trkpt lat="44.97734" lon="5.69292">
        <ele>848.79998779297</ele>
        <time>2026-07-05T06:52:50.000Z</time>
      </trkpt>
      <trkpt lat="44.97733" lon="5.69291">
        <ele>848.59997558594</ele>
        <time>2026-07-05T06:52:51.000Z</time>
      </trkpt>
      <trkpt lat="44.97733" lon="5.6929">
        <ele>848.59997558594</ele>
        <time>2026-07-05T06:52:52.000Z</time>
      </trkpt>
      <trkpt lat="44.97732" lon="5.69289">
        <ele>848.40002441406</ele>
        <time>2026-07-05T06:52:53.000Z</time>
      </trkpt>
      <trkpt lat="44.97731" lon="5.69289">
        <ele>848.20001220703</ele>
        <time>2026-07-05T06:52:54.000Z</time>
      </trkpt>
      <trkpt lat="44.97731" lon="5.69288">
        <ele>848.20001220703</ele>
        <time>2026-07-05T06:52:55.000Z</time>
      </trkpt>
      <trkpt lat="44.9773" lon="5.69289">
        <ele>848.40002441406</ele>
        <time>2026-07-05T06:52:56.000Z</time>
      </trkpt>
      <trkpt lat="44.97729" lon="5.69289">
        <ele>848.59997558594</ele>
        <time>2026-07-05T06:52:57.000Z</time>
      </trkpt>
      <trkpt lat="44.97727" lon="5.6929">
        <ele>848.59997558594</ele>
        <time>2026-07-05T06:52:58.000Z</time>
      </trkpt>
      <trkpt lat="44.97726" lon="5.69289">
        <ele>849.20001220703</ele>
        <time>2026-07-05T06:52:59.000Z</time>
      </trkpt>
      <trkpt lat="44.97725" lon="5.69289">
        <ele>849.79998779297</ele>
        <time>2026-07-05T06:53:00.000Z</time>
      </trkpt>
      <trkpt lat="44.97724" lon="5.69288">
        <ele>850.20001220703</ele>
        <time>2026-07-05T06:53:01.000Z</time>
      </trkpt>
      <trkpt lat="44.97724" lon="5.69287">
        <ele>850.59997558594</ele>
        <time>2026-07-05T06:53:02.000Z</time>
      </trkpt>
      <trkpt lat="44.97723" lon="5.69286">
        <ele>851.40002441406</ele>
        <time>2026-07-05T06:53:03.000Z</time>
      </trkpt>
      <trkpt lat="44.97722" lon="5.69286">
        <ele>851.79998779297</ele>
        <time>2026-07-05T06:53:04.000Z</time>
      </trkpt>
      <trkpt lat="44.97721" lon="5.69285">
        <ele>852</ele>
        <time>2026-07-05T06:53:05.000Z</time>
      </trkpt>
      <trkpt lat="44.97719" lon="5.69285">
        <ele>852.40002441406</ele>
        <time>2026-07-05T06:53:06.000Z</time>
      </trkpt>
      <trkpt lat="44.97718" lon="5.69285">
        <ele>852.79998779297</ele>
        <time>2026-07-05T06:53:07.000Z</time>
      </trkpt>
      <trkpt lat="44.97717" lon="5.69284">
        <ele>853.40002441406</ele>
        <time>2026-07-05T06:53:08.000Z</time>
      </trkpt>
      <trkpt lat="44.97716" lon="5.69284">
        <ele>853.79998779297</ele>
        <time>2026-07-05T06:53:09.000Z</time>
      </trkpt>
      <trkpt lat="44.97716" lon="5.69284">
        <ele>854.20001220703</ele>
        <time>2026-07-05T06:53:10.000Z</time>
      </trkpt>
      <trkpt lat="44.97715" lon="5.69284">
        <ele>854.59997558594</ele>
        <time>2026-07-05T06:53:11.000Z</time>
      </trkpt>
      <trkpt lat="44.97714" lon="5.69284">
        <ele>855</ele>
        <time>2026-07-05T06:53:12.000Z</time>
      </trkpt>
      <trkpt lat="44.97712" lon="5.69285">
        <ele>855.20001220703</ele>
        <time>2026-07-05T06:53:13.000Z</time>
      </trkpt>
      <trkpt lat="44.97711" lon="5.69285">
        <ele>855.59997558594</ele>
        <time>2026-07-05T06:53:14.000Z</time>
      </trkpt>
      <trkpt lat="44.9771" lon="5.69284">
        <ele>855.59997558594</ele>
        <time>2026-07-05T06:53:15.000Z</time>
      </trkpt>
      <trkpt lat="44.97709" lon="5.69284">
        <ele>855.59997558594</ele>
        <time>2026-07-05T06:53:16.000Z</time>
      </trkpt>
      <trkpt lat="44.97709" lon="5.69283">
        <ele>856</ele>
        <time>2026-07-05T06:53:17.000Z</time>
      </trkpt>
      <trkpt lat="44.97708" lon="5.69283">
        <ele>856.40002441406</ele>
        <time>2026-07-05T06:53:18.000Z</time>
      </trkpt>
      <trkpt lat="44.97707" lon="5.69282">
        <ele>856.40002441406</ele>
        <time>2026-07-05T06:53:19.000Z</time>
      </trkpt>
      <trkpt lat="44.97707" lon="5.69281">
        <ele>856.79998779297</ele>
        <time>2026-07-05T06:53:20.000Z</time>
      </trkpt>
      <trkpt lat="44.97706" lon="5.69281">
        <ele>857</ele>
        <time>2026-07-05T06:53:21.000Z</time>
      </trkpt>
      <trkpt lat="44.97706" lon="5.69279">
        <ele>857</ele>
        <time>2026-07-05T06:53:22.000Z</time>
      </trkpt>
      <trkpt lat="44.97706" lon="5.69278">
        <ele>857</ele>
        <time>2026-07-05T06:53:23.000Z</time>
      </trkpt>
      <trkpt lat="44.97705" lon="5.69277">
        <ele>857</ele>
        <time>2026-07-05T06:53:24.000Z</time>
      </trkpt>
      <trkpt lat="44.97705" lon="5.69277">
        <ele>857</ele>
        <time>2026-07-05T06:53:25.000Z</time>
      </trkpt>
      <trkpt lat="44.97704" lon="5.69276">
        <ele>857.40002441406</ele>
        <time>2026-07-05T06:53:26.000Z</time>
      </trkpt>
      <trkpt lat="44.97703" lon="5.69275">
        <ele>857.40002441406</ele>
        <time>2026-07-05T06:53:27.000Z</time>
      </trkpt>
      <trkpt lat="44.97702" lon="5.69274">
        <ele>857.59997558594</ele>
        <time>2026-07-05T06:53:28.000Z</time>
      </trkpt>
      <trkpt lat="44.97702" lon="5.69273">
        <ele>858</ele>
        <time>2026-07-05T06:53:29.000Z</time>
      </trkpt>
      <trkpt lat="44.97701" lon="5.69272">
        <ele>858.40002441406</ele>
        <time>2026-07-05T06:53:30.000Z</time>
      </trkpt>
      <trkpt lat="44.97699" lon="5.69271">
        <ele>858.59997558594</ele>
        <time>2026-07-05T06:53:31.000Z</time>
      </trkpt>
      <trkpt lat="44.97698" lon="5.6927">
        <ele>858.79998779297</ele>
        <time>2026-07-05T06:53:32.000Z</time>
      </trkpt>
      <trkpt lat="44.97696" lon="5.69269">
        <ele>859</ele>
        <time>2026-07-05T06:53:33.000Z</time>
      </trkpt>
      <trkpt lat="44.97695" lon="5.69269">
        <ele>859.40002441406</ele>
        <time>2026-07-05T06:53:34.000Z</time>
      </trkpt>
      <trkpt lat="44.97693" lon="5.69269">
        <ele>859.79998779297</ele>
        <time>2026-07-05T06:53:35.000Z</time>
      </trkpt>
      <trkpt lat="44.97691" lon="5.69268">
        <ele>860.20001220703</ele>
        <time>2026-07-05T06:53:36.000Z</time>
      </trkpt>
      <trkpt lat="44.97689" lon="5.69268">
        <ele>861.20001220703</ele>
        <time>2026-07-05T06:53:37.000Z</time>
      </trkpt>
      <trkpt lat="44.97687" lon="5.69268">
        <ele>861.79998779297</ele>
        <time>2026-07-05T06:53:38.000Z</time>
      </trkpt>
      <trkpt lat="44.97684" lon="5.69267">
        <ele>862.40002441406</ele>
        <time>2026-07-05T06:53:39.000Z</time>
      </trkpt>
      <trkpt lat="44.97682" lon="5.69267">
        <ele>862.79998779297</ele>
        <time>2026-07-05T06:53:40.000Z</time>
      </trkpt>
      <trkpt lat="44.97681" lon="5.69267">
        <ele>863.59997558594</ele>
        <time>2026-07-05T06:53:41.000Z</time>
      </trkpt>
      <trkpt lat="44.97679" lon="5.69266">
        <ele>864.59997558594</ele>
        <time>2026-07-05T06:53:42.000Z</time>
      </trkpt>
      <trkpt lat="44.97677" lon="5.69266">
        <ele>865.40002441406</ele>
        <time>2026-07-05T06:53:43.000Z</time>
      </trkpt>
      <trkpt lat="44.97675" lon="5.69266">
        <ele>866.40002441406</ele>
        <time>2026-07-05T06:53:44.000Z</time>
      </trkpt>
      <trkpt lat="44.97673" lon="5.69265">
        <ele>866.59997558594</ele>
        <time>2026-07-05T06:53:45.000Z</time>
      </trkpt>
      <trkpt lat="44.97671" lon="5.69265">
        <ele>866.79998779297</ele>
        <time>2026-07-05T06:53:46.000Z</time>
      </trkpt>
      <trkpt lat="44.9767" lon="5.69267">
        <ele>867</ele>
        <time>2026-07-05T06:53:47.000Z</time>
      </trkpt>
      <trkpt lat="44.97668" lon="5.69268">
        <ele>867.20001220703</ele>
        <time>2026-07-05T06:53:48.000Z</time>
      </trkpt>
      <trkpt lat="44.97667" lon="5.69269">
        <ele>867</ele>
        <time>2026-07-05T06:53:49.000Z</time>
      </trkpt>
      <trkpt lat="44.97664" lon="5.69271">
        <ele>866.79998779297</ele>
        <time>2026-07-05T06:53:50.000Z</time>
      </trkpt>
      <trkpt lat="44.97663" lon="5.69272">
        <ele>866.79998779297</ele>
        <time>2026-07-05T06:53:51.000Z</time>
      </trkpt>
      <trkpt lat="44.97661" lon="5.69273">
        <ele>866.59997558594</ele>
        <time>2026-07-05T06:53:52.000Z</time>
      </trkpt>
      <trkpt lat="44.9766" lon="5.69274">
        <ele>866.20001220703</ele>
        <time>2026-07-05T06:53:53.000Z</time>
      </trkpt>
      <trkpt lat="44.97659" lon="5.69275">
        <ele>866.20001220703</ele>
        <time>2026-07-05T06:53:54.000Z</time>
      </trkpt>
      <trkpt lat="44.97657" lon="5.69276">
        <ele>866.20001220703</ele>
        <time>2026-07-05T06:53:55.000Z</time>
      </trkpt>
      <trkpt lat="44.97656" lon="5.69277">
        <ele>866.40002441406</ele>
        <time>2026-07-05T06:53:56.000Z</time>
      </trkpt>
      <trkpt lat="44.97654" lon="5.69278">
        <ele>866.59997558594</ele>
        <time>2026-07-05T06:53:57.000Z</time>
      </trkpt>
      <trkpt lat="44.97653" lon="5.69279">
        <ele>866.59997558594</ele>
        <time>2026-07-05T06:53:58.000Z</time>
      </trkpt>
      <trkpt lat="44.97651" lon="5.69279">
        <ele>867</ele>
        <time>2026-07-05T06:53:59.000Z</time>
      </trkpt>
      <trkpt lat="44.9765" lon="5.6928">
        <ele>867</ele>
        <time>2026-07-05T06:54:00.000Z</time>
      </trkpt>
      <trkpt lat="44.97648" lon="5.69281">
        <ele>867.40002441406</ele>
        <time>2026-07-05T06:54:01.000Z</time>
      </trkpt>
      <trkpt lat="44.97647" lon="5.69281">
        <ele>867.59997558594</ele>
        <time>2026-07-05T06:54:02.000Z</time>
      </trkpt>
      <trkpt lat="44.97645" lon="5.69281">
        <ele>867.59997558594</ele>
        <time>2026-07-05T06:54:03.000Z</time>
      </trkpt>
      <trkpt lat="44.97643" lon="5.69281">
        <ele>867.79998779297</ele>
        <time>2026-07-05T06:54:04.000Z</time>
      </trkpt>
      <trkpt lat="44.97642" lon="5.69282">
        <ele>868.20001220703</ele>
        <time>2026-07-05T06:54:05.000Z</time>
      </trkpt>
      <trkpt lat="44.9764" lon="5.69282">
        <ele>868.40002441406</ele>
        <time>2026-07-05T06:54:06.000Z</time>
      </trkpt>
      <trkpt lat="44.97639" lon="5.69282">
        <ele>868.40002441406</ele>
        <time>2026-07-05T06:54:07.000Z</time>
      </trkpt>
      <trkpt lat="44.97637" lon="5.69283">
        <ele>868.59997558594</ele>
        <time>2026-07-05T06:54:08.000Z</time>
      </trkpt>
      <trkpt lat="44.97636" lon="5.69284">
        <ele>868.79998779297</ele>
        <time>2026-07-05T06:54:09.000Z</time>
      </trkpt>
      <trkpt lat="44.97634" lon="5.69284">
        <ele>869.20001220703</ele>
        <time>2026-07-05T06:54:10.000Z</time>
      </trkpt>
      <trkpt lat="44.97633" lon="5.69284">
        <ele>869.20001220703</ele>
        <time>2026-07-05T06:54:11.000Z</time>
      </trkpt>
      <trkpt lat="44.97631" lon="5.69285">
        <ele>869.40002441406</ele>
        <time>2026-07-05T06:54:12.000Z</time>
      </trkpt>
      <trkpt lat="44.9763" lon="5.69285">
        <ele>869.40002441406</ele>
        <time>2026-07-05T06:54:13.000Z</time>
      </trkpt>
      <trkpt lat="44.97629" lon="5.69286">
        <ele>869.59997558594</ele>
        <time>2026-07-05T06:54:14.000Z</time>
      </trkpt>
      <trkpt lat="44.97627" lon="5.69286">
        <ele>869.79998779297</ele>
        <time>2026-07-05T06:54:15.000Z</time>
      </trkpt>
      <trkpt lat="44.97626" lon="5.69287">
        <ele>869.79998779297</ele>
        <time>2026-07-05T06:54:16.000Z</time>
      </trkpt>
      <trkpt lat="44.97624" lon="5.69287">
        <ele>870</ele>
        <time>2026-07-05T06:54:17.000Z</time>
      </trkpt>
      <trkpt lat="44.97623" lon="5.69288">
        <ele>870.20001220703</ele>
        <time>2026-07-05T06:54:18.000Z</time>
      </trkpt>
      <trkpt lat="44.97621" lon="5.69288">
        <ele>870.40002441406</ele>
        <time>2026-07-05T06:54:19.000Z</time>
      </trkpt>
      <trkpt lat="44.97619" lon="5.69289">
        <ele>870.59997558594</ele>
        <time>2026-07-05T06:54:20.000Z</time>
      </trkpt>
      <trkpt lat="44.97618" lon="5.69289">
        <ele>871.20001220703</ele>
        <time>2026-07-05T06:54:21.000Z</time>
      </trkpt>
      <trkpt lat="44.97616" lon="5.6929">
        <ele>871.59997558594</ele>
        <time>2026-07-05T06:54:22.000Z</time>
      </trkpt>
      <trkpt lat="44.97614" lon="5.6929">
        <ele>872.20001220703</ele>
        <time>2026-07-05T06:54:23.000Z</time>
      </trkpt>
      <trkpt lat="44.97613" lon="5.6929">
        <ele>872.59997558594</ele>
        <time>2026-07-05T06:54:24.000Z</time>
      </trkpt>
      <trkpt lat="44.97612" lon="5.69291">
        <ele>872.79998779297</ele>
        <time>2026-07-05T06:54:25.000Z</time>
      </trkpt>
      <trkpt lat="44.9761" lon="5.69291">
        <ele>873</ele>
        <time>2026-07-05T06:54:26.000Z</time>
      </trkpt>
      <trkpt lat="44.97608" lon="5.69291">
        <ele>873.40002441406</ele>
        <time>2026-07-05T06:54:27.000Z</time>
      </trkpt>
      <trkpt lat="44.97607" lon="5.69291">
        <ele>873.59997558594</ele>
        <time>2026-07-05T06:54:28.000Z</time>
      </trkpt>
      <trkpt lat="44.97606" lon="5.69291">
        <ele>874.20001220703</ele>
        <time>2026-07-05T06:54:29.000Z</time>
      </trkpt>
      <trkpt lat="44.97604" lon="5.69292">
        <ele>874.20001220703</ele>
        <time>2026-07-05T06:54:30.000Z</time>
      </trkpt>
      <trkpt lat="44.97602" lon="5.69292">
        <ele>874.40002441406</ele>
        <time>2026-07-05T06:54:31.000Z</time>
      </trkpt>
      <trkpt lat="44.97601" lon="5.69292">
        <ele>874.79998779297</ele>
        <time>2026-07-05T06:54:32.000Z</time>
      </trkpt>
      <trkpt lat="44.976" lon="5.69292">
        <ele>875</ele>
        <time>2026-07-05T06:54:33.000Z</time>
      </trkpt>
      <trkpt lat="44.97599" lon="5.69292">
        <ele>875.20001220703</ele>
        <time>2026-07-05T06:54:34.000Z</time>
      </trkpt>
      <trkpt lat="44.97597" lon="5.69291">
        <ele>875.40002441406</ele>
        <time>2026-07-05T06:54:35.000Z</time>
      </trkpt>
      <trkpt lat="44.97595" lon="5.69292">
        <ele>875.40002441406</ele>
        <time>2026-07-05T06:54:36.000Z</time>
      </trkpt>
      <trkpt lat="44.97594" lon="5.69292">
        <ele>875.40002441406</ele>
        <time>2026-07-05T06:54:37.000Z</time>
      </trkpt>
      <trkpt lat="44.97592" lon="5.69291">
        <ele>875.59997558594</ele>
        <time>2026-07-05T06:54:38.000Z</time>
      </trkpt>
      <trkpt lat="44.9759" lon="5.69291">
        <ele>875.79998779297</ele>
        <time>2026-07-05T06:54:39.000Z</time>
      </trkpt>
      <trkpt lat="44.97588" lon="5.69291">
        <ele>876.20001220703</ele>
        <time>2026-07-05T06:54:40.000Z</time>
      </trkpt>
      <trkpt lat="44.97586" lon="5.6929">
        <ele>876.59997558594</ele>
        <time>2026-07-05T06:54:41.000Z</time>
      </trkpt>
      <trkpt lat="44.97585" lon="5.69291">
        <ele>876.79998779297</ele>
        <time>2026-07-05T06:54:42.000Z</time>
      </trkpt>
      <trkpt lat="44.97583" lon="5.69291">
        <ele>877</ele>
        <time>2026-07-05T06:54:43.000Z</time>
      </trkpt>
      <trkpt lat="44.97581" lon="5.6929">
        <ele>877</ele>
        <time>2026-07-05T06:54:44.000Z</time>
      </trkpt>
      <trkpt lat="44.9758" lon="5.6929">
        <ele>876.79998779297</ele>
        <time>2026-07-05T06:54:45.000Z</time>
      </trkpt>
      <trkpt lat="44.97578" lon="5.6929">
        <ele>876.79998779297</ele>
        <time>2026-07-05T06:54:46.000Z</time>
      </trkpt>
      <trkpt lat="44.97576" lon="5.69289">
        <ele>877</ele>
        <time>2026-07-05T06:54:47.000Z</time>
      </trkpt>
      <trkpt lat="44.97575" lon="5.69289">
        <ele>877</ele>
        <time>2026-07-05T06:54:48.000Z</time>
      </trkpt>
      <trkpt lat="44.97573" lon="5.6929">
        <ele>877</ele>
        <time>2026-07-05T06:54:49.000Z</time>
      </trkpt>
      <trkpt lat="44.97572" lon="5.6929">
        <ele>877.20001220703</ele>
        <time>2026-07-05T06:54:50.000Z</time>
      </trkpt>
      <trkpt lat="44.9757" lon="5.6929">
        <ele>877.40002441406</ele>
        <time>2026-07-05T06:54:51.000Z</time>
      </trkpt>
      <trkpt lat="44.97568" lon="5.69289">
        <ele>877.59997558594</ele>
        <time>2026-07-05T06:54:52.000Z</time>
      </trkpt>
      <trkpt lat="44.97566" lon="5.69288">
        <ele>878.59997558594</ele>
        <time>2026-07-05T06:54:53.000Z</time>
      </trkpt>
      <trkpt lat="44.97564" lon="5.69288">
        <ele>879.20001220703</ele>
        <time>2026-07-05T06:54:54.000Z</time>
      </trkpt>
      <trkpt lat="44.97563" lon="5.69287">
        <ele>879.79998779297</ele>
        <time>2026-07-05T06:54:55.000Z</time>
      </trkpt>
      <trkpt lat="44.97561" lon="5.69287">
        <ele>880</ele>
        <time>2026-07-05T06:54:56.000Z</time>
      </trkpt>
      <trkpt lat="44.97559" lon="5.69287">
        <ele>880.20001220703</ele>
        <time>2026-07-05T06:54:57.000Z</time>
      </trkpt>
      <trkpt lat="44.97557" lon="5.69286">
        <ele>880.79998779297</ele>
        <time>2026-07-05T06:54:58.000Z</time>
      </trkpt>
      <trkpt lat="44.97555" lon="5.69285">
        <ele>881.40002441406</ele>
        <time>2026-07-05T06:54:59.000Z</time>
      </trkpt>
      <trkpt lat="44.97553" lon="5.69285">
        <ele>881.20001220703</ele>
        <time>2026-07-05T06:55:00.000Z</time>
      </trkpt>
      <trkpt lat="44.97551" lon="5.69284">
        <ele>881.40002441406</ele>
        <time>2026-07-05T06:55:01.000Z</time>
      </trkpt>
      <trkpt lat="44.97549" lon="5.69284">
        <ele>881.20001220703</ele>
        <time>2026-07-05T06:55:02.000Z</time>
      </trkpt>
      <trkpt lat="44.97548" lon="5.69283">
        <ele>881</ele>
        <time>2026-07-05T06:55:03.000Z</time>
      </trkpt>
      <trkpt lat="44.97546" lon="5.69283">
        <ele>881</ele>
        <time>2026-07-05T06:55:04.000Z</time>
      </trkpt>
      <trkpt lat="44.97544" lon="5.69283">
        <ele>881</ele>
        <time>2026-07-05T06:55:05.000Z</time>
      </trkpt>
      <trkpt lat="44.97542" lon="5.69283">
        <ele>881</ele>
        <time>2026-07-05T06:55:06.000Z</time>
      </trkpt>
      <trkpt lat="44.9754" lon="5.69283">
        <ele>881.40002441406</ele>
        <time>2026-07-05T06:55:07.000Z</time>
      </trkpt>
      <trkpt lat="44.97538" lon="5.69283">
        <ele>881.59997558594</ele>
        <time>2026-07-05T06:55:08.000Z</time>
      </trkpt>
      <trkpt lat="44.97537" lon="5.69283">
        <ele>881.79998779297</ele>
        <time>2026-07-05T06:55:09.000Z</time>
      </trkpt>
      <trkpt lat="44.97534" lon="5.69284">
        <ele>882</ele>
        <time>2026-07-05T06:55:10.000Z</time>
      </trkpt>
      <trkpt lat="44.97532" lon="5.69284">
        <ele>882</ele>
        <time>2026-07-05T06:55:11.000Z</time>
      </trkpt>
      <trkpt lat="44.9753" lon="5.69284">
        <ele>882.20001220703</ele>
        <time>2026-07-05T06:55:12.000Z</time>
      </trkpt>
      <trkpt lat="44.97528" lon="5.69284">
        <ele>882.40002441406</ele>
        <time>2026-07-05T06:55:13.000Z</time>
      </trkpt>
      <trkpt lat="44.97525" lon="5.69284">
        <ele>882.59997558594</ele>
        <time>2026-07-05T06:55:14.000Z</time>
      </trkpt>
      <trkpt lat="44.97523" lon="5.69284">
        <ele>882.79998779297</ele>
        <time>2026-07-05T06:55:15.000Z</time>
      </trkpt>
      <trkpt lat="44.97521" lon="5.69284">
        <ele>883</ele>
        <time>2026-07-05T06:55:16.000Z</time>
      </trkpt>
      <trkpt lat="44.97518" lon="5.69284">
        <ele>883</ele>
        <time>2026-07-05T06:55:17.000Z</time>
      </trkpt>
      <trkpt lat="44.97516" lon="5.69285">
        <ele>883.20001220703</ele>
        <time>2026-07-05T06:55:18.000Z</time>
      </trkpt>
      <trkpt lat="44.97514" lon="5.69286">
        <ele>883.40002441406</ele>
        <time>2026-07-05T06:55:19.000Z</time>
      </trkpt>
      <trkpt lat="44.97512" lon="5.69286">
        <ele>883.40002441406</ele>
        <time>2026-07-05T06:55:20.000Z</time>
      </trkpt>
      <trkpt lat="44.9751" lon="5.69286">
        <ele>883.59997558594</ele>
        <time>2026-07-05T06:55:21.000Z</time>
      </trkpt>
      <trkpt lat="44.97508" lon="5.69286">
        <ele>883.59997558594</ele>
        <time>2026-07-05T06:55:22.000Z</time>
      </trkpt>
      <trkpt lat="44.97505" lon="5.69285">
        <ele>883.79998779297</ele>
        <time>2026-07-05T06:55:23.000Z</time>
      </trkpt>
      <trkpt lat="44.97503" lon="5.69285">
        <ele>883.79998779297</ele>
        <time>2026-07-05T06:55:24.000Z</time>
      </trkpt>
      <trkpt lat="44.97501" lon="5.69285">
        <ele>883.20001220703</ele>
        <time>2026-07-05T06:55:25.000Z</time>
      </trkpt>
      <trkpt lat="44.97498" lon="5.69285">
        <ele>882.79998779297</ele>
        <time>2026-07-05T06:55:26.000Z</time>
      </trkpt>
      <trkpt lat="44.97496" lon="5.69285">
        <ele>882.20001220703</ele>
        <time>2026-07-05T06:55:27.000Z</time>
      </trkpt>
      <trkpt lat="44.97494" lon="5.69285">
        <ele>881.59997558594</ele>
        <time>2026-07-05T06:55:28.000Z</time>
      </trkpt>
      <trkpt lat="44.97492" lon="5.69285">
        <ele>881.20001220703</ele>
        <time>2026-07-05T06:55:29.000Z</time>
      </trkpt>
      <trkpt lat="44.9749" lon="5.69285">
        <ele>880.59997558594</ele>
        <time>2026-07-05T06:55:30.000Z</time>
      </trkpt>
      <trkpt lat="44.97488" lon="5.69284">
        <ele>880.40002441406</ele>
        <time>2026-07-05T06:55:31.000Z</time>
      </trkpt>
      <trkpt lat="44.97486" lon="5.69285">
        <ele>880.40002441406</ele>
        <time>2026-07-05T06:55:32.000Z</time>
      </trkpt>
      <trkpt lat="44.97484" lon="5.69285">
        <ele>880.59997558594</ele>
        <time>2026-07-05T06:55:33.000Z</time>
      </trkpt>
      <trkpt lat="44.97481" lon="5.69284">
        <ele>880.59997558594</ele>
        <time>2026-07-05T06:55:34.000Z</time>
      </trkpt>
      <trkpt lat="44.97479" lon="5.69284">
        <ele>880.40002441406</ele>
        <time>2026-07-05T06:55:35.000Z</time>
      </trkpt>
      <trkpt lat="44.97476" lon="5.69283">
        <ele>880.59997558594</ele>
        <time>2026-07-05T06:55:36.000Z</time>
      </trkpt>
      <trkpt lat="44.97473" lon="5.69282">
        <ele>880.59997558594</ele>
        <time>2026-07-05T06:55:37.000Z</time>
      </trkpt>
      <trkpt lat="44.97471" lon="5.69282">
        <ele>880.79998779297</ele>
        <time>2026-07-05T06:55:38.000Z</time>
      </trkpt>
      <trkpt lat="44.97468" lon="5.69282">
        <ele>880.79998779297</ele>
        <time>2026-07-05T06:55:39.000Z</time>
      </trkpt>
      <trkpt lat="44.97465" lon="5.69282">
        <ele>882</ele>
        <time>2026-07-05T06:55:40.000Z</time>
      </trkpt>
      <trkpt lat="44.97463" lon="5.69282">
        <ele>882</ele>
        <time>2026-07-05T06:55:41.000Z</time>
      </trkpt>
      <trkpt lat="44.9746" lon="5.69281">
        <ele>882</ele>
        <time>2026-07-05T06:55:42.000Z</time>
      </trkpt>
      <trkpt lat="44.97457" lon="5.69281">
        <ele>882.20001220703</ele>
        <time>2026-07-05T06:55:43.000Z</time>
      </trkpt>
      <trkpt lat="44.97454" lon="5.69282">
        <ele>882.20001220703</ele>
        <time>2026-07-05T06:55:44.000Z</time>
      </trkpt>
      <trkpt lat="44.97451" lon="5.69282">
        <ele>882</ele>
        <time>2026-07-05T06:55:45.000Z</time>
      </trkpt>
      <trkpt lat="44.97449" lon="5.69282">
        <ele>881.40002441406</ele>
        <time>2026-07-05T06:55:46.000Z</time>
      </trkpt>
      <trkpt lat="44.97446" lon="5.69282">
        <ele>880.79998779297</ele>
        <time>2026-07-05T06:55:47.000Z</time>
      </trkpt>
      <trkpt lat="44.97443" lon="5.69282">
        <ele>879</ele>
        <time>2026-07-05T06:55:48.000Z</time>
      </trkpt>
      <trkpt lat="44.97441" lon="5.69283">
        <ele>877.79998779297</ele>
        <time>2026-07-05T06:55:49.000Z</time>
      </trkpt>
      <trkpt lat="44.97438" lon="5.69284">
        <ele>877</ele>
        <time>2026-07-05T06:55:50.000Z</time>
      </trkpt>
      <trkpt lat="44.97435" lon="5.69285">
        <ele>876.59997558594</ele>
        <time>2026-07-05T06:55:51.000Z</time>
      </trkpt>
      <trkpt lat="44.97433" lon="5.69285">
        <ele>876.20001220703</ele>
        <time>2026-07-05T06:55:52.000Z</time>
      </trkpt>
      <trkpt lat="44.9743" lon="5.69286">
        <ele>876.20001220703</ele>
        <time>2026-07-05T06:55:53.000Z</time>
      </trkpt>
      <trkpt lat="44.97428" lon="5.69288">
        <ele>876</ele>
        <time>2026-07-05T06:55:54.000Z</time>
      </trkpt>
      <trkpt lat="44.97425" lon="5.69289">
        <ele>876</ele>
        <time>2026-07-05T06:55:55.000Z</time>
      </trkpt>
      <trkpt lat="44.97423" lon="5.6929">
        <ele>876.20001220703</ele>
        <time>2026-07-05T06:55:56.000Z</time>
      </trkpt>
      <trkpt lat="44.97421" lon="5.69291">
        <ele>876.20001220703</ele>
        <time>2026-07-05T06:55:57.000Z</time>
      </trkpt>
      <trkpt lat="44.97418" lon="5.69292">
        <ele>876</ele>
        <time>2026-07-05T06:55:58.000Z</time>
      </trkpt>
      <trkpt lat="44.97416" lon="5.69292">
        <ele>875.79998779297</ele>
        <time>2026-07-05T06:55:59.000Z</time>
      </trkpt>
      <trkpt lat="44.97413" lon="5.69292">
        <ele>875.59997558594</ele>
        <time>2026-07-05T06:56:00.000Z</time>
      </trkpt>
      <trkpt lat="44.97411" lon="5.69292">
        <ele>875.40002441406</ele>
        <time>2026-07-05T06:56:01.000Z</time>
      </trkpt>
      <trkpt lat="44.97408" lon="5.69292">
        <ele>875.20001220703</ele>
        <time>2026-07-05T06:56:02.000Z</time>
      </trkpt>
      <trkpt lat="44.97406" lon="5.69294">
        <ele>875.20001220703</ele>
        <time>2026-07-05T06:56:03.000Z</time>
      </trkpt>
      <trkpt lat="44.97403" lon="5.69296">
        <ele>875</ele>
        <time>2026-07-05T06:56:04.000Z</time>
      </trkpt>
      <trkpt lat="44.97401" lon="5.69297">
        <ele>875</ele>
        <time>2026-07-05T06:56:05.000Z</time>
      </trkpt>
      <trkpt lat="44.97399" lon="5.69299">
        <ele>874.59997558594</ele>
        <time>2026-07-05T06:56:06.000Z</time>
      </trkpt>
      <trkpt lat="44.97396" lon="5.69301">
        <ele>874.40002441406</ele>
        <time>2026-07-05T06:56:07.000Z</time>
      </trkpt>
      <trkpt lat="44.97394" lon="5.69303">
        <ele>874.20001220703</ele>
        <time>2026-07-05T06:56:08.000Z</time>
      </trkpt>
      <trkpt lat="44.97392" lon="5.69304">
        <ele>874</ele>
        <time>2026-07-05T06:56:09.000Z</time>
      </trkpt>
      <trkpt lat="44.9739" lon="5.69306">
        <ele>873.59997558594</ele>
        <time>2026-07-05T06:56:10.000Z</time>
      </trkpt>
      <trkpt lat="44.97388" lon="5.69308">
        <ele>873</ele>
        <time>2026-07-05T06:56:11.000Z</time>
      </trkpt>
      <trkpt lat="44.97385" lon="5.6931">
        <ele>872.59997558594</ele>
        <time>2026-07-05T06:56:12.000Z</time>
      </trkpt>
      <trkpt lat="44.97383" lon="5.69312">
        <ele>872.59997558594</ele>
        <time>2026-07-05T06:56:13.000Z</time>
      </trkpt>
      <trkpt lat="44.97381" lon="5.69314">
        <ele>872.20001220703</ele>
        <time>2026-07-05T06:56:14.000Z</time>
      </trkpt>
      <trkpt lat="44.97377" lon="5.69315">
        <ele>871.59997558594</ele>
        <time>2026-07-05T06:56:15.000Z</time>
      </trkpt>
      <trkpt lat="44.97375" lon="5.69314">
        <ele>871.40002441406</ele>
        <time>2026-07-05T06:56:16.000Z</time>
      </trkpt>
      <trkpt lat="44.97371" lon="5.69314">
        <ele>871.20001220703</ele>
        <time>2026-07-05T06:56:17.000Z</time>
      </trkpt>
      <trkpt lat="44.97368" lon="5.69313">
        <ele>871</ele>
        <time>2026-07-05T06:56:18.000Z</time>
      </trkpt>
      <trkpt lat="44.97365" lon="5.69313">
        <ele>871.20001220703</ele>
        <time>2026-07-05T06:56:19.000Z</time>
      </trkpt>
      <trkpt lat="44.97362" lon="5.69313">
        <ele>871.20001220703</ele>
        <time>2026-07-05T06:56:20.000Z</time>
      </trkpt>
      <trkpt lat="44.9736" lon="5.69313">
        <ele>871</ele>
        <time>2026-07-05T06:56:21.000Z</time>
      </trkpt>
      <trkpt lat="44.97357" lon="5.69313">
        <ele>870.59997558594</ele>
        <time>2026-07-05T06:56:22.000Z</time>
      </trkpt>
      <trkpt lat="44.97356" lon="5.69316">
        <ele>870.40002441406</ele>
        <time>2026-07-05T06:56:23.000Z</time>
      </trkpt>
      <trkpt lat="44.97355" lon="5.69319">
        <ele>870</ele>
        <time>2026-07-05T06:56:24.000Z</time>
      </trkpt>
      <trkpt lat="44.97354" lon="5.69323">
        <ele>869.59997558594</ele>
        <time>2026-07-05T06:56:25.000Z</time>
      </trkpt>
      <trkpt lat="44.97353" lon="5.69326">
        <ele>869</ele>
        <time>2026-07-05T06:56:26.000Z</time>
      </trkpt>
      <trkpt lat="44.97352" lon="5.69329">
        <ele>868.79998779297</ele>
        <time>2026-07-05T06:56:27.000Z</time>
      </trkpt>
      <trkpt lat="44.97351" lon="5.69332">
        <ele>867.79998779297</ele>
        <time>2026-07-05T06:56:28.000Z</time>
      </trkpt>
      <trkpt lat="44.9735" lon="5.69335">
        <ele>866.79998779297</ele>
        <time>2026-07-05T06:56:29.000Z</time>
      </trkpt>
      <trkpt lat="44.97349" lon="5.69338">
        <ele>866</ele>
        <time>2026-07-05T06:56:30.000Z</time>
      </trkpt>
      <trkpt lat="44.97348" lon="5.69341">
        <ele>865.40002441406</ele>
        <time>2026-07-05T06:56:31.000Z</time>
      </trkpt>
      <trkpt lat="44.97347" lon="5.69344">
        <ele>864.79998779297</ele>
        <time>2026-07-05T06:56:32.000Z</time>
      </trkpt>
      <trkpt lat="44.97346" lon="5.69346">
        <ele>863.79998779297</ele>
        <time>2026-07-05T06:56:33.000Z</time>
      </trkpt>
      <trkpt lat="44.97346" lon="5.69349">
        <ele>863.20001220703</ele>
        <time>2026-07-05T06:56:34.000Z</time>
      </trkpt>
      <trkpt lat="44.97345" lon="5.69351">
        <ele>862.79998779297</ele>
        <time>2026-07-05T06:56:35.000Z</time>
      </trkpt>
      <trkpt lat="44.97344" lon="5.69354">
        <ele>862.59997558594</ele>
        <time>2026-07-05T06:56:36.000Z</time>
      </trkpt>
      <trkpt lat="44.97343" lon="5.69356">
        <ele>861.79998779297</ele>
        <time>2026-07-05T06:56:37.000Z</time>
      </trkpt>
      <trkpt lat="44.97342" lon="5.69359">
        <ele>861</ele>
        <time>2026-07-05T06:56:38.000Z</time>
      </trkpt>
      <trkpt lat="44.97341" lon="5.69361">
        <ele>860.20001220703</ele>
        <time>2026-07-05T06:56:39.000Z</time>
      </trkpt>
      <trkpt lat="44.9734" lon="5.69364">
        <ele>858.79998779297</ele>
        <time>2026-07-05T06:56:40.000Z</time>
      </trkpt>
      <trkpt lat="44.97339" lon="5.69367">
        <ele>857.59997558594</ele>
        <time>2026-07-05T06:56:41.000Z</time>
      </trkpt>
      <trkpt lat="44.97338" lon="5.69369">
        <ele>857.40002441406</ele>
        <time>2026-07-05T06:56:42.000Z</time>
      </trkpt>
      <trkpt lat="44.97337" lon="5.6937">
        <ele>857</ele>
        <time>2026-07-05T06:56:43.000Z</time>
      </trkpt>
      <trkpt lat="44.97336" lon="5.69371">
        <ele>856</ele>
        <time>2026-07-05T06:56:44.000Z</time>
      </trkpt>
      <trkpt lat="44.97336" lon="5.69372">
        <ele>855.59997558594</ele>
        <time>2026-07-05T06:56:45.000Z</time>
      </trkpt>
      <trkpt lat="44.97335" lon="5.69371">
        <ele>855.59997558594</ele>
        <time>2026-07-05T06:56:46.000Z</time>
      </trkpt>
      <trkpt lat="44.97335" lon="5.69369">
        <ele>855.40002441406</ele>
        <time>2026-07-05T06:56:47.000Z</time>
      </trkpt>
      <trkpt lat="44.97334" lon="5.6937">
        <ele>855.40002441406</ele>
        <time>2026-07-05T06:56:48.000Z</time>
      </trkpt>
      <trkpt lat="44.97332" lon="5.6937">
        <ele>855.40002441406</ele>
        <time>2026-07-05T06:56:49.000Z</time>
      </trkpt>
      <trkpt lat="44.9733" lon="5.69371">
        <ele>855.40002441406</ele>
        <time>2026-07-05T06:56:50.000Z</time>
      </trkpt>
      <trkpt lat="44.97327" lon="5.69372">
        <ele>855.40002441406</ele>
        <time>2026-07-05T06:56:51.000Z</time>
      </trkpt>
      <trkpt lat="44.97325" lon="5.69373">
        <ele>855.40002441406</ele>
        <time>2026-07-05T06:56:52.000Z</time>
      </trkpt>
      <trkpt lat="44.97322" lon="5.69373">
        <ele>855.20001220703</ele>
        <time>2026-07-05T06:56:53.000Z</time>
      </trkpt>
      <trkpt lat="44.9732" lon="5.69374">
        <ele>855.20001220703</ele>
        <time>2026-07-05T06:56:54.000Z</time>
      </trkpt>
      <trkpt lat="44.97318" lon="5.69375">
        <ele>855.20001220703</ele>
        <time>2026-07-05T06:56:55.000Z</time>
      </trkpt>
      <trkpt lat="44.97316" lon="5.69377">
        <ele>854.20001220703</ele>
        <time>2026-07-05T06:56:56.000Z</time>
      </trkpt>
      <trkpt lat="44.97315" lon="5.69378">
        <ele>853.59997558594</ele>
        <time>2026-07-05T06:56:57.000Z</time>
      </trkpt>
      <trkpt lat="44.97313" lon="5.69381">
        <ele>852.79998779297</ele>
        <time>2026-07-05T06:56:58.000Z</time>
      </trkpt>
      <trkpt lat="44.97312" lon="5.69383">
        <ele>852.20001220703</ele>
        <time>2026-07-05T06:56:59.000Z</time>
      </trkpt>
      <trkpt lat="44.97311" lon="5.69385">
        <ele>851.40002441406</ele>
        <time>2026-07-05T06:57:00.000Z</time>
      </trkpt>
      <trkpt lat="44.97311" lon="5.69386">
        <ele>850.79998779297</ele>
        <time>2026-07-05T06:57:01.000Z</time>
      </trkpt>
      <trkpt lat="44.9731" lon="5.69388">
        <ele>850</ele>
        <time>2026-07-05T06:57:02.000Z</time>
      </trkpt>
      <trkpt lat="44.97309" lon="5.6939">
        <ele>849.40002441406</ele>
        <time>2026-07-05T06:57:03.000Z</time>
      </trkpt>
      <trkpt lat="44.97309" lon="5.69392">
        <ele>849</ele>
        <time>2026-07-05T06:57:04.000Z</time>
      </trkpt>
      <trkpt lat="44.97308" lon="5.69394">
        <ele>849</ele>
        <time>2026-07-05T06:57:05.000Z</time>
      </trkpt>
      <trkpt lat="44.97306" lon="5.69395">
        <ele>848.79998779297</ele>
        <time>2026-07-05T06:57:06.000Z</time>
      </trkpt>
      <trkpt lat="44.97305" lon="5.69396">
        <ele>848.79998779297</ele>
        <time>2026-07-05T06:57:07.000Z</time>
      </trkpt>
      <trkpt lat="44.97304" lon="5.69398">
        <ele>848.20001220703</ele>
        <time>2026-07-05T06:57:08.000Z</time>
      </trkpt>
      <trkpt lat="44.97304" lon="5.694">
        <ele>848</ele>
        <time>2026-07-05T06:57:09.000Z</time>
      </trkpt>
      <trkpt lat="44.97303" lon="5.69402">
        <ele>847.79998779297</ele>
        <time>2026-07-05T06:57:10.000Z</time>
      </trkpt>
      <trkpt lat="44.97303" lon="5.69403">
        <ele>847.59997558594</ele>
        <time>2026-07-05T06:57:11.000Z</time>
      </trkpt>
      <trkpt lat="44.97302" lon="5.69405">
        <ele>847</ele>
        <time>2026-07-05T06:57:12.000Z</time>
      </trkpt>
      <trkpt lat="44.97302" lon="5.69407">
        <ele>845.40002441406</ele>
        <time>2026-07-05T06:57:13.000Z</time>
      </trkpt>
      <trkpt lat="44.97301" lon="5.69409">
        <ele>845.20001220703</ele>
        <time>2026-07-05T06:57:14.000Z</time>
      </trkpt>
      <trkpt lat="44.973" lon="5.6941">
        <ele>845</ele>
        <time>2026-07-05T06:57:15.000Z</time>
      </trkpt>
      <trkpt lat="44.97299" lon="5.69412">
        <ele>844</ele>
        <time>2026-07-05T06:57:16.000Z</time>
      </trkpt>
      <trkpt lat="44.97299" lon="5.69413">
        <ele>843.20001220703</ele>
        <time>2026-07-05T06:57:17.000Z</time>
      </trkpt>
      <trkpt lat="44.97299" lon="5.69414">
        <ele>842.59997558594</ele>
        <time>2026-07-05T06:57:18.000Z</time>
      </trkpt>
      <trkpt lat="44.97299" lon="5.69416">
        <ele>841.79998779297</ele>
        <time>2026-07-05T06:57:19.000Z</time>
      </trkpt>
      <trkpt lat="44.97298" lon="5.69418">
        <ele>840.59997558594</ele>
        <time>2026-07-05T06:57:20.000Z</time>
      </trkpt>
      <trkpt lat="44.97297" lon="5.6942">
        <ele>839.59997558594</ele>
        <time>2026-07-05T06:57:21.000Z</time>
      </trkpt>
      <trkpt lat="44.97295" lon="5.69421">
        <ele>838.40002441406</ele>
        <time>2026-07-05T06:57:22.000Z</time>
      </trkpt>
      <trkpt lat="44.97292" lon="5.69423">
        <ele>837.40002441406</ele>
        <time>2026-07-05T06:57:23.000Z</time>
      </trkpt>
      <trkpt lat="44.97291" lon="5.69424">
        <ele>836.20001220703</ele>
        <time>2026-07-05T06:57:24.000Z</time>
      </trkpt>
      <trkpt lat="44.97289" lon="5.69425">
        <ele>836.20001220703</ele>
        <time>2026-07-05T06:57:25.000Z</time>
      </trkpt>
      <trkpt lat="44.97287" lon="5.69425">
        <ele>836.40002441406</ele>
        <time>2026-07-05T06:57:26.000Z</time>
      </trkpt>
      <trkpt lat="44.97286" lon="5.69424">
        <ele>836.40002441406</ele>
        <time>2026-07-05T06:57:27.000Z</time>
      </trkpt>
      <trkpt lat="44.97286" lon="5.69425">
        <ele>836.59997558594</ele>
        <time>2026-07-05T06:57:28.000Z</time>
      </trkpt>
      <trkpt lat="44.97284" lon="5.69426">
        <ele>836.79998779297</ele>
        <time>2026-07-05T06:57:29.000Z</time>
      </trkpt>
      <trkpt lat="44.97283" lon="5.69427">
        <ele>836.79998779297</ele>
        <time>2026-07-05T06:57:30.000Z</time>
      </trkpt>
      <trkpt lat="44.97282" lon="5.69428">
        <ele>836.79998779297</ele>
        <time>2026-07-05T06:57:31.000Z</time>
      </trkpt>
      <trkpt lat="44.97281" lon="5.69429">
        <ele>836.40002441406</ele>
        <time>2026-07-05T06:57:32.000Z</time>
      </trkpt>
      <trkpt lat="44.9728" lon="5.69429">
        <ele>836</ele>
        <time>2026-07-05T06:57:33.000Z</time>
      </trkpt>
      <trkpt lat="44.97278" lon="5.6943">
        <ele>835.59997558594</ele>
        <time>2026-07-05T06:57:34.000Z</time>
      </trkpt>
      <trkpt lat="44.97277" lon="5.69431">
        <ele>835.20001220703</ele>
        <time>2026-07-05T06:57:35.000Z</time>
      </trkpt>
      <trkpt lat="44.97276" lon="5.69431">
        <ele>834.79998779297</ele>
        <time>2026-07-05T06:57:36.000Z</time>
      </trkpt>
      <trkpt lat="44.97275" lon="5.69432">
        <ele>834.40002441406</ele>
        <time>2026-07-05T06:57:37.000Z</time>
      </trkpt>
      <trkpt lat="44.97273" lon="5.69433">
        <ele>832.59997558594</ele>
        <time>2026-07-05T06:57:38.000Z</time>
      </trkpt>
      <trkpt lat="44.97272" lon="5.69433">
        <ele>831.79998779297</ele>
        <time>2026-07-05T06:57:39.000Z</time>
      </trkpt>
      <trkpt lat="44.9727" lon="5.69433">
        <ele>831</ele>
        <time>2026-07-05T06:57:40.000Z</time>
      </trkpt>
      <trkpt lat="44.97268" lon="5.69431">
        <ele>830.20001220703</ele>
        <time>2026-07-05T06:57:41.000Z</time>
      </trkpt>
      <trkpt lat="44.97266" lon="5.69431">
        <ele>829.40002441406</ele>
        <time>2026-07-05T06:57:42.000Z</time>
      </trkpt>
      <trkpt lat="44.97265" lon="5.6943">
        <ele>828.59997558594</ele>
        <time>2026-07-05T06:57:43.000Z</time>
      </trkpt>
      <trkpt lat="44.97263" lon="5.69429">
        <ele>829</ele>
        <time>2026-07-05T06:57:44.000Z</time>
      </trkpt>
      <trkpt lat="44.97261" lon="5.69428">
        <ele>829.40002441406</ele>
        <time>2026-07-05T06:57:45.000Z</time>
      </trkpt>
      <trkpt lat="44.97259" lon="5.69428">
        <ele>829.59997558594</ele>
        <time>2026-07-05T06:57:46.000Z</time>
      </trkpt>
      <trkpt lat="44.97257" lon="5.69427">
        <ele>829.79998779297</ele>
        <time>2026-07-05T06:57:47.000Z</time>
      </trkpt>
      <trkpt lat="44.97254" lon="5.69425">
        <ele>830</ele>
        <time>2026-07-05T06:57:48.000Z</time>
      </trkpt>
      <trkpt lat="44.97252" lon="5.69424">
        <ele>830.40002441406</ele>
        <time>2026-07-05T06:57:49.000Z</time>
      </trkpt>
      <trkpt lat="44.9725" lon="5.69424">
        <ele>830.59997558594</ele>
        <time>2026-07-05T06:57:50.000Z</time>
      </trkpt>
      <trkpt lat="44.97248" lon="5.69423">
        <ele>830.79998779297</ele>
        <time>2026-07-05T06:57:51.000Z</time>
      </trkpt>
      <trkpt lat="44.97246" lon="5.69423">
        <ele>831.20001220703</ele>
        <time>2026-07-05T06:57:52.000Z</time>
      </trkpt>
      <trkpt lat="44.97244" lon="5.69422">
        <ele>831.20001220703</ele>
        <time>2026-07-05T06:57:53.000Z</time>
      </trkpt>
      <trkpt lat="44.97243" lon="5.69422">
        <ele>831.20001220703</ele>
        <time>2026-07-05T06:57:54.000Z</time>
      </trkpt>
      <trkpt lat="44.97241" lon="5.69422">
        <ele>831.20001220703</ele>
        <time>2026-07-05T06:57:55.000Z</time>
      </trkpt>
      <trkpt lat="44.9724" lon="5.69422">
        <ele>831.20001220703</ele>
        <time>2026-07-05T06:57:56.000Z</time>
      </trkpt>
      <trkpt lat="44.97238" lon="5.69422">
        <ele>831.20001220703</ele>
        <time>2026-07-05T06:57:57.000Z</time>
      </trkpt>
      <trkpt lat="44.97236" lon="5.69422">
        <ele>831.40002441406</ele>
        <time>2026-07-05T06:57:58.000Z</time>
      </trkpt>
      <trkpt lat="44.97235" lon="5.69422">
        <ele>831.79998779297</ele>
        <time>2026-07-05T06:57:59.000Z</time>
      </trkpt>
      <trkpt lat="44.97233" lon="5.69422">
        <ele>832</ele>
        <time>2026-07-05T06:58:00.000Z</time>
      </trkpt>
      <trkpt lat="44.97231" lon="5.69422">
        <ele>832.20001220703</ele>
        <time>2026-07-05T06:58:01.000Z</time>
      </trkpt>
      <trkpt lat="44.97229" lon="5.69421">
        <ele>833</ele>
        <time>2026-07-05T06:58:02.000Z</time>
      </trkpt>
      <trkpt lat="44.97227" lon="5.69421">
        <ele>833.40002441406</ele>
        <time>2026-07-05T06:58:03.000Z</time>
      </trkpt>
      <trkpt lat="44.97225" lon="5.69422">
        <ele>833.59997558594</ele>
        <time>2026-07-05T06:58:04.000Z</time>
      </trkpt>
      <trkpt lat="44.97224" lon="5.69422">
        <ele>834</ele>
        <time>2026-07-05T06:58:05.000Z</time>
      </trkpt>
      <trkpt lat="44.97222" lon="5.69422">
        <ele>835.40002441406</ele>
        <time>2026-07-05T06:58:06.000Z</time>
      </trkpt>
      <trkpt lat="44.97221" lon="5.69421">
        <ele>836</ele>
        <time>2026-07-05T06:58:07.000Z</time>
      </trkpt>
      <trkpt lat="44.97219" lon="5.69421">
        <ele>836</ele>
        <time>2026-07-05T06:58:08.000Z</time>
      </trkpt>
      <trkpt lat="44.97218" lon="5.69421">
        <ele>836</ele>
        <time>2026-07-05T06:58:09.000Z</time>
      </trkpt>
      <trkpt lat="44.97216" lon="5.69421">
        <ele>836</ele>
        <time>2026-07-05T06:58:10.000Z</time>
      </trkpt>
      <trkpt lat="44.97215" lon="5.69421">
        <ele>836.20001220703</ele>
        <time>2026-07-05T06:58:11.000Z</time>
      </trkpt>
      <trkpt lat="44.97213" lon="5.6942">
        <ele>836.79998779297</ele>
        <time>2026-07-05T06:58:12.000Z</time>
      </trkpt>
      <trkpt lat="44.97212" lon="5.69421">
        <ele>837.20001220703</ele>
        <time>2026-07-05T06:58:13.000Z</time>
      </trkpt>
      <trkpt lat="44.9721" lon="5.69421">
        <ele>837.59997558594</ele>
        <time>2026-07-05T06:58:14.000Z</time>
      </trkpt>
      <trkpt lat="44.97209" lon="5.69421">
        <ele>838.40002441406</ele>
        <time>2026-07-05T06:58:15.000Z</time>
      </trkpt>
      <trkpt lat="44.97208" lon="5.69421">
        <ele>839</ele>
        <time>2026-07-05T06:58:16.000Z</time>
      </trkpt>
      <trkpt lat="44.97207" lon="5.69421">
        <ele>839.59997558594</ele>
        <time>2026-07-05T06:58:17.000Z</time>
      </trkpt>
      <trkpt lat="44.97205" lon="5.69421">
        <ele>840</ele>
        <time>2026-07-05T06:58:18.000Z</time>
      </trkpt>
      <trkpt lat="44.97204" lon="5.69421">
        <ele>840.20001220703</ele>
        <time>2026-07-05T06:58:19.000Z</time>
      </trkpt>
      <trkpt lat="44.97203" lon="5.69422">
        <ele>840.79998779297</ele>
        <time>2026-07-05T06:58:20.000Z</time>
      </trkpt>
      <trkpt lat="44.97201" lon="5.69422">
        <ele>841.20001220703</ele>
        <time>2026-07-05T06:58:21.000Z</time>
      </trkpt>
      <trkpt lat="44.972" lon="5.69423">
        <ele>841.59997558594</ele>
        <time>2026-07-05T06:58:22.000Z</time>
      </trkpt>
      <trkpt lat="44.97199" lon="5.69423">
        <ele>841.79998779297</ele>
        <time>2026-07-05T06:58:23.000Z</time>
      </trkpt>
      <trkpt lat="44.97197" lon="5.69422">
        <ele>842.79998779297</ele>
        <time>2026-07-05T06:58:24.000Z</time>
      </trkpt>
      <trkpt lat="44.97197" lon="5.69421">
        <ele>843.59997558594</ele>
        <time>2026-07-05T06:58:25.000Z</time>
      </trkpt>
      <trkpt lat="44.97195" lon="5.69421">
        <ele>844.40002441406</ele>
        <time>2026-07-05T06:58:26.000Z</time>
      </trkpt>
      <trkpt lat="44.97194" lon="5.69421">
        <ele>844.79998779297</ele>
        <time>2026-07-05T06:58:27.000Z</time>
      </trkpt>
      <trkpt lat="44.97193" lon="5.69421">
        <ele>845</ele>
        <time>2026-07-05T06:58:28.000Z</time>
      </trkpt>
      <trkpt lat="44.97191" lon="5.6942">
        <ele>845.40002441406</ele>
        <time>2026-07-05T06:58:29.000Z</time>
      </trkpt>
      <trkpt lat="44.9719" lon="5.69419">
        <ele>845.59997558594</ele>
        <time>2026-07-05T06:58:30.000Z</time>
      </trkpt>
      <trkpt lat="44.97189" lon="5.69419">
        <ele>844.79998779297</ele>
        <time>2026-07-05T06:58:31.000Z</time>
      </trkpt>
      <trkpt lat="44.97187" lon="5.69419">
        <ele>844.20001220703</ele>
        <time>2026-07-05T06:58:32.000Z</time>
      </trkpt>
      <trkpt lat="44.97186" lon="5.69418">
        <ele>843.79998779297</ele>
        <time>2026-07-05T06:58:33.000Z</time>
      </trkpt>
      <trkpt lat="44.97185" lon="5.69418">
        <ele>843.59997558594</ele>
        <time>2026-07-05T06:58:34.000Z</time>
      </trkpt>
      <trkpt lat="44.97183" lon="5.69417">
        <ele>843.40002441406</ele>
        <time>2026-07-05T06:58:35.000Z</time>
      </trkpt>
      <trkpt lat="44.97182" lon="5.69417">
        <ele>843</ele>
        <time>2026-07-05T06:58:36.000Z</time>
      </trkpt>
      <trkpt lat="44.9718" lon="5.69418">
        <ele>843.59997558594</ele>
        <time>2026-07-05T06:58:37.000Z</time>
      </trkpt>
      <trkpt lat="44.97179" lon="5.69418">
        <ele>844.40002441406</ele>
        <time>2026-07-05T06:58:38.000Z</time>
      </trkpt>
      <trkpt lat="44.97177" lon="5.69418">
        <ele>845</ele>
        <time>2026-07-05T06:58:39.000Z</time>
      </trkpt>
      <trkpt lat="44.97175" lon="5.69418">
        <ele>845.79998779297</ele>
        <time>2026-07-05T06:58:40.000Z</time>
      </trkpt>
      <trkpt lat="44.97173" lon="5.69418">
        <ele>846.40002441406</ele>
        <time>2026-07-05T06:58:41.000Z</time>
      </trkpt>
      <trkpt lat="44.97171" lon="5.69418">
        <ele>846.20001220703</ele>
        <time>2026-07-05T06:58:42.000Z</time>
      </trkpt>
      <trkpt lat="44.97168" lon="5.69419">
        <ele>845.79998779297</ele>
        <time>2026-07-05T06:58:43.000Z</time>
      </trkpt>
      <trkpt lat="44.97166" lon="5.69418">
        <ele>845</ele>
        <time>2026-07-05T06:58:44.000Z</time>
      </trkpt>
      <trkpt lat="44.97164" lon="5.69417">
        <ele>844.59997558594</ele>
        <time>2026-07-05T06:58:45.000Z</time>
      </trkpt>
      <trkpt lat="44.97162" lon="5.69417">
        <ele>844.40002441406</ele>
        <time>2026-07-05T06:58:46.000Z</time>
      </trkpt>
      <trkpt lat="44.9716" lon="5.69416">
        <ele>844</ele>
        <time>2026-07-05T06:58:47.000Z</time>
      </trkpt>
      <trkpt lat="44.97159" lon="5.69415">
        <ele>844</ele>
        <time>2026-07-05T06:58:48.000Z</time>
      </trkpt>
      <trkpt lat="44.97157" lon="5.69414">
        <ele>844</ele>
        <time>2026-07-05T06:58:49.000Z</time>
      </trkpt>
      <trkpt lat="44.97155" lon="5.69413">
        <ele>844.20001220703</ele>
        <time>2026-07-05T06:58:50.000Z</time>
      </trkpt>
      <trkpt lat="44.97153" lon="5.69413">
        <ele>844.20001220703</ele>
        <time>2026-07-05T06:58:51.000Z</time>
      </trkpt>
      <trkpt lat="44.97152" lon="5.69412">
        <ele>844.59997558594</ele>
        <time>2026-07-05T06:58:52.000Z</time>
      </trkpt>
      <trkpt lat="44.97149" lon="5.69412">
        <ele>844.79998779297</ele>
        <time>2026-07-05T06:58:53.000Z</time>
      </trkpt>
      <trkpt lat="44.97147" lon="5.69411">
        <ele>845</ele>
        <time>2026-07-05T06:58:54.000Z</time>
      </trkpt>
      <trkpt lat="44.97145" lon="5.6941">
        <ele>845.40002441406</ele>
        <time>2026-07-05T06:58:55.000Z</time>
      </trkpt>
      <trkpt lat="44.97143" lon="5.6941">
        <ele>845.59997558594</ele>
        <time>2026-07-05T06:58:56.000Z</time>
      </trkpt>
      <trkpt lat="44.97141" lon="5.69409">
        <ele>845.79998779297</ele>
        <time>2026-07-05T06:58:57.000Z</time>
      </trkpt>
      <trkpt lat="44.97139" lon="5.69408">
        <ele>845.79998779297</ele>
        <time>2026-07-05T06:58:58.000Z</time>
      </trkpt>
      <trkpt lat="44.97137" lon="5.69407">
        <ele>845.79998779297</ele>
        <time>2026-07-05T06:58:59.000Z</time>
      </trkpt>
      <trkpt lat="44.97135" lon="5.69406">
        <ele>845.79998779297</ele>
        <time>2026-07-05T06:59:00.000Z</time>
      </trkpt>
      <trkpt lat="44.97133" lon="5.69407">
        <ele>846.20001220703</ele>
        <time>2026-07-05T06:59:01.000Z</time>
      </trkpt>
      <trkpt lat="44.97131" lon="5.69407">
        <ele>846.40002441406</ele>
        <time>2026-07-05T06:59:02.000Z</time>
      </trkpt>
      <trkpt lat="44.97129" lon="5.69408">
        <ele>846.59997558594</ele>
        <time>2026-07-05T06:59:03.000Z</time>
      </trkpt>
      <trkpt lat="44.97127" lon="5.69407">
        <ele>847.20001220703</ele>
        <time>2026-07-05T06:59:04.000Z</time>
      </trkpt>
      <trkpt lat="44.97124" lon="5.69406">
        <ele>848.40002441406</ele>
        <time>2026-07-05T06:59:05.000Z</time>
      </trkpt>
      <trkpt lat="44.97121" lon="5.69405">
        <ele>849.59997558594</ele>
        <time>2026-07-05T06:59:06.000Z</time>
      </trkpt>
      <trkpt lat="44.97119" lon="5.69405">
        <ele>849.79998779297</ele>
        <time>2026-07-05T06:59:07.000Z</time>
      </trkpt>
      <trkpt lat="44.97116" lon="5.69404">
        <ele>850.20001220703</ele>
        <time>2026-07-05T06:59:08.000Z</time>
      </trkpt>
      <trkpt lat="44.97115" lon="5.69403">
        <ele>850.59997558594</ele>
        <time>2026-07-05T06:59:09.000Z</time>
      </trkpt>
      <trkpt lat="44.97112" lon="5.69403">
        <ele>851.20001220703</ele>
        <time>2026-07-05T06:59:10.000Z</time>
      </trkpt>
      <trkpt lat="44.9711" lon="5.69402">
        <ele>851.59997558594</ele>
        <time>2026-07-05T06:59:11.000Z</time>
      </trkpt>
      <trkpt lat="44.97107" lon="5.69401">
        <ele>852</ele>
        <time>2026-07-05T06:59:12.000Z</time>
      </trkpt>
      <trkpt lat="44.97105" lon="5.694">
        <ele>852</ele>
        <time>2026-07-05T06:59:13.000Z</time>
      </trkpt>
      <trkpt lat="44.97102" lon="5.69399">
        <ele>852</ele>
        <time>2026-07-05T06:59:14.000Z</time>
      </trkpt>
      <trkpt lat="44.97101" lon="5.69398">
        <ele>852</ele>
        <time>2026-07-05T06:59:15.000Z</time>
      </trkpt>
      <trkpt lat="44.97098" lon="5.69397">
        <ele>852</ele>
        <time>2026-07-05T06:59:16.000Z</time>
      </trkpt>
      <trkpt lat="44.97096" lon="5.69395">
        <ele>851.79998779297</ele>
        <time>2026-07-05T06:59:17.000Z</time>
      </trkpt>
      <trkpt lat="44.97094" lon="5.69395">
        <ele>851.40002441406</ele>
        <time>2026-07-05T06:59:18.000Z</time>
      </trkpt>
      <trkpt lat="44.97092" lon="5.69394">
        <ele>850.79998779297</ele>
        <time>2026-07-05T06:59:19.000Z</time>
      </trkpt>
      <trkpt lat="44.9709" lon="5.69393">
        <ele>850.40002441406</ele>
        <time>2026-07-05T06:59:20.000Z</time>
      </trkpt>
      <trkpt lat="44.97088" lon="5.69391">
        <ele>849.79998779297</ele>
        <time>2026-07-05T06:59:21.000Z</time>
      </trkpt>
      <trkpt lat="44.97086" lon="5.69389">
        <ele>849.40002441406</ele>
        <time>2026-07-05T06:59:22.000Z</time>
      </trkpt>
      <trkpt lat="44.97084" lon="5.69389">
        <ele>847</ele>
        <time>2026-07-05T06:59:23.000Z</time>
      </trkpt>
      <trkpt lat="44.97082" lon="5.69388">
        <ele>846</ele>
        <time>2026-07-05T06:59:24.000Z</time>
      </trkpt>
      <trkpt lat="44.9708" lon="5.69386">
        <ele>845.40002441406</ele>
        <time>2026-07-05T06:59:25.000Z</time>
      </trkpt>
      <trkpt lat="44.97077" lon="5.69385">
        <ele>844.40002441406</ele>
        <time>2026-07-05T06:59:26.000Z</time>
      </trkpt>
      <trkpt lat="44.97075" lon="5.69384">
        <ele>843.40002441406</ele>
        <time>2026-07-05T06:59:27.000Z</time>
      </trkpt>
      <trkpt lat="44.97072" lon="5.69383">
        <ele>842.40002441406</ele>
        <time>2026-07-05T06:59:28.000Z</time>
      </trkpt>
      <trkpt lat="44.9707" lon="5.69382">
        <ele>841.20001220703</ele>
        <time>2026-07-05T06:59:29.000Z</time>
      </trkpt>
      <trkpt lat="44.97067" lon="5.69381">
        <ele>840</ele>
        <time>2026-07-05T06:59:30.000Z</time>
      </trkpt>
      <trkpt lat="44.97064" lon="5.69381">
        <ele>839</ele>
        <time>2026-07-05T06:59:31.000Z</time>
      </trkpt>
      <trkpt lat="44.97061" lon="5.69379">
        <ele>837.79998779297</ele>
        <time>2026-07-05T06:59:32.000Z</time>
      </trkpt>
      <trkpt lat="44.97059" lon="5.69379">
        <ele>836.59997558594</ele>
        <time>2026-07-05T06:59:33.000Z</time>
      </trkpt>
      <trkpt lat="44.97057" lon="5.69379">
        <ele>835.59997558594</ele>
        <time>2026-07-05T06:59:34.000Z</time>
      </trkpt>
      <trkpt lat="44.97054" lon="5.69377">
        <ele>834.40002441406</ele>
        <time>2026-07-05T06:59:35.000Z</time>
      </trkpt>
      <trkpt lat="44.97052" lon="5.69376">
        <ele>834.59997558594</ele>
        <time>2026-07-05T06:59:36.000Z</time>
      </trkpt>
      <trkpt lat="44.9705" lon="5.69376">
        <ele>834.79998779297</ele>
        <time>2026-07-05T06:59:37.000Z</time>
      </trkpt>
      <trkpt lat="44.97048" lon="5.69375">
        <ele>835.20001220703</ele>
        <time>2026-07-05T06:59:38.000Z</time>
      </trkpt>
      <trkpt lat="44.97046" lon="5.69375">
        <ele>835.59997558594</ele>
        <time>2026-07-05T06:59:39.000Z</time>
      </trkpt>
      <trkpt lat="44.97044" lon="5.69376">
        <ele>835.79998779297</ele>
        <time>2026-07-05T06:59:40.000Z</time>
      </trkpt>
      <trkpt lat="44.97042" lon="5.69376">
        <ele>836.59997558594</ele>
        <time>2026-07-05T06:59:41.000Z</time>
      </trkpt>
      <trkpt lat="44.9704" lon="5.69376">
        <ele>837.40002441406</ele>
        <time>2026-07-05T06:59:42.000Z</time>
      </trkpt>
      <trkpt lat="44.97037" lon="5.69377">
        <ele>838.20001220703</ele>
        <time>2026-07-05T06:59:43.000Z</time>
      </trkpt>
      <trkpt lat="44.97035" lon="5.69378">
        <ele>839</ele>
        <time>2026-07-05T06:59:44.000Z</time>
      </trkpt>
      <trkpt lat="44.97033" lon="5.69379">
        <ele>839.59997558594</ele>
        <time>2026-07-05T06:59:45.000Z</time>
      </trkpt>
      <trkpt lat="44.9703" lon="5.69379">
        <ele>840.20001220703</ele>
        <time>2026-07-05T06:59:46.000Z</time>
      </trkpt>
      <trkpt lat="44.97027" lon="5.6938">
        <ele>840.79998779297</ele>
        <time>2026-07-05T06:59:47.000Z</time>
      </trkpt>
      <trkpt lat="44.97024" lon="5.6938">
        <ele>841</ele>
        <time>2026-07-05T06:59:48.000Z</time>
      </trkpt>
      <trkpt lat="44.97022" lon="5.6938">
        <ele>841.20001220703</ele>
        <time>2026-07-05T06:59:49.000Z</time>
      </trkpt>
      <trkpt lat="44.97019" lon="5.69381">
        <ele>841.40002441406</ele>
        <time>2026-07-05T06:59:50.000Z</time>
      </trkpt>
      <trkpt lat="44.97017" lon="5.69382">
        <ele>841.59997558594</ele>
        <time>2026-07-05T06:59:51.000Z</time>
      </trkpt>
      <trkpt lat="44.97014" lon="5.69382">
        <ele>841.79998779297</ele>
        <time>2026-07-05T06:59:52.000Z</time>
      </trkpt>
      <trkpt lat="44.97012" lon="5.69382">
        <ele>842</ele>
        <time>2026-07-05T06:59:53.000Z</time>
      </trkpt>
      <trkpt lat="44.9701" lon="5.69382">
        <ele>841.79998779297</ele>
        <time>2026-07-05T06:59:54.000Z</time>
      </trkpt>
      <trkpt lat="44.97008" lon="5.69381">
        <ele>841.59997558594</ele>
        <time>2026-07-05T06:59:55.000Z</time>
      </trkpt>
      <trkpt lat="44.97006" lon="5.6938">
        <ele>841.59997558594</ele>
        <time>2026-07-05T06:59:56.000Z</time>
      </trkpt>
      <trkpt lat="44.97004" lon="5.6938">
        <ele>841.40002441406</ele>
        <time>2026-07-05T06:59:57.000Z</time>
      </trkpt>
      <trkpt lat="44.97002" lon="5.69379">
        <ele>841</ele>
        <time>2026-07-05T06:59:58.000Z</time>
      </trkpt>
      <trkpt lat="44.97" lon="5.69379">
        <ele>840.79998779297</ele>
        <time>2026-07-05T06:59:59.000Z</time>
      </trkpt>
      <trkpt lat="44.96998" lon="5.69379">
        <ele>840.79998779297</ele>
        <time>2026-07-05T07:00:00.000Z</time>
      </trkpt>
      <trkpt lat="44.96997" lon="5.69379">
        <ele>840.79998779297</ele>
        <time>2026-07-05T07:00:01.000Z</time>
      </trkpt>
      <trkpt lat="44.96995" lon="5.69379">
        <ele>840.79998779297</ele>
        <time>2026-07-05T07:00:02.000Z</time>
      </trkpt>
      <trkpt lat="44.96993" lon="5.6938">
        <ele>841</ele>
        <time>2026-07-05T07:00:03.000Z</time>
      </trkpt>
      <trkpt lat="44.96992" lon="5.6938">
        <ele>840.79998779297</ele>
        <time>2026-07-05T07:00:04.000Z</time>
      </trkpt>
      <trkpt lat="44.9699" lon="5.69379">
        <ele>840.40002441406</ele>
        <time>2026-07-05T07:00:05.000Z</time>
      </trkpt>
      <trkpt lat="44.96989" lon="5.69378">
        <ele>840.40002441406</ele>
        <time>2026-07-05T07:00:06.000Z</time>
      </trkpt>
      <trkpt lat="44.96987" lon="5.69377">
        <ele>840.59997558594</ele>
        <time>2026-07-05T07:00:07.000Z</time>
      </trkpt>
      <trkpt lat="44.96986" lon="5.69376">
        <ele>841.40002441406</ele>
        <time>2026-07-05T07:00:08.000Z</time>
      </trkpt>
      <trkpt lat="44.96985" lon="5.69376">
        <ele>841.59997558594</ele>
        <time>2026-07-05T07:00:09.000Z</time>
      </trkpt>
      <trkpt lat="44.96983" lon="5.69376">
        <ele>842.20001220703</ele>
        <time>2026-07-05T07:00:10.000Z</time>
      </trkpt>
      <trkpt lat="44.96982" lon="5.69375">
        <ele>842.79998779297</ele>
        <time>2026-07-05T07:00:11.000Z</time>
      </trkpt>
      <trkpt lat="44.9698" lon="5.69375">
        <ele>843.40002441406</ele>
        <time>2026-07-05T07:00:12.000Z</time>
      </trkpt>
      <trkpt lat="44.96979" lon="5.69375">
        <ele>843.79998779297</ele>
        <time>2026-07-05T07:00:13.000Z</time>
      </trkpt>
      <trkpt lat="44.96977" lon="5.69374">
        <ele>844.40002441406</ele>
        <time>2026-07-05T07:00:14.000Z</time>
      </trkpt>
      <trkpt lat="44.96974" lon="5.69373">
        <ele>844.79998779297</ele>
        <time>2026-07-05T07:00:15.000Z</time>
      </trkpt>
      <trkpt lat="44.96972" lon="5.69372">
        <ele>845.79998779297</ele>
        <time>2026-07-05T07:00:16.000Z</time>
      </trkpt>
      <trkpt lat="44.9697" lon="5.69371">
        <ele>847</ele>
        <time>2026-07-05T07:00:17.000Z</time>
      </trkpt>
      <trkpt lat="44.96968" lon="5.69371">
        <ele>848</ele>
        <time>2026-07-05T07:00:18.000Z</time>
      </trkpt>
      <trkpt lat="44.96966" lon="5.69371">
        <ele>849</ele>
        <time>2026-07-05T07:00:19.000Z</time>
      </trkpt>
      <trkpt lat="44.96964" lon="5.6937">
        <ele>850</ele>
        <time>2026-07-05T07:00:20.000Z</time>
      </trkpt>
      <trkpt lat="44.96963" lon="5.6937">
        <ele>851.20001220703</ele>
        <time>2026-07-05T07:00:21.000Z</time>
      </trkpt>
      <trkpt lat="44.96961" lon="5.6937">
        <ele>852.20001220703</ele>
        <time>2026-07-05T07:00:22.000Z</time>
      </trkpt>
      <trkpt lat="44.96958" lon="5.69369">
        <ele>853.20001220703</ele>
        <time>2026-07-05T07:00:23.000Z</time>
      </trkpt>
      <trkpt lat="44.96956" lon="5.6937">
        <ele>853.40002441406</ele>
        <time>2026-07-05T07:00:24.000Z</time>
      </trkpt>
      <trkpt lat="44.96954" lon="5.69369">
        <ele>853.59997558594</ele>
        <time>2026-07-05T07:00:25.000Z</time>
      </trkpt>
      <trkpt lat="44.96952" lon="5.69369">
        <ele>853.79998779297</ele>
        <time>2026-07-05T07:00:26.000Z</time>
      </trkpt>
      <trkpt lat="44.96951" lon="5.69368">
        <ele>853.79998779297</ele>
        <time>2026-07-05T07:00:27.000Z</time>
      </trkpt>
      <trkpt lat="44.96949" lon="5.69368">
        <ele>853.59997558594</ele>
        <time>2026-07-05T07:00:28.000Z</time>
      </trkpt>
      <trkpt lat="44.96947" lon="5.69367">
        <ele>853.20001220703</ele>
        <time>2026-07-05T07:00:29.000Z</time>
      </trkpt>
      <trkpt lat="44.96945" lon="5.69367">
        <ele>852.79998779297</ele>
        <time>2026-07-05T07:00:30.000Z</time>
      </trkpt>
      <trkpt lat="44.96943" lon="5.69366">
        <ele>852.40002441406</ele>
        <time>2026-07-05T07:00:31.000Z</time>
      </trkpt>
      <trkpt lat="44.96941" lon="5.69366">
        <ele>852</ele>
        <time>2026-07-05T07:00:32.000Z</time>
      </trkpt>
      <trkpt lat="44.9694" lon="5.69365">
        <ele>851.20001220703</ele>
        <time>2026-07-05T07:00:33.000Z</time>
      </trkpt>
      <trkpt lat="44.96938" lon="5.69364">
        <ele>850.59997558594</ele>
        <time>2026-07-05T07:00:34.000Z</time>
      </trkpt>
      <trkpt lat="44.96936" lon="5.69363">
        <ele>850.20001220703</ele>
        <time>2026-07-05T07:00:35.000Z</time>
      </trkpt>
      <trkpt lat="44.96934" lon="5.69362">
        <ele>850.20001220703</ele>
        <time>2026-07-05T07:00:36.000Z</time>
      </trkpt>
      <trkpt lat="44.96933" lon="5.69362">
        <ele>850.40002441406</ele>
        <time>2026-07-05T07:00:37.000Z</time>
      </trkpt>
      <trkpt lat="44.96931" lon="5.69361">
        <ele>850.59997558594</ele>
        <time>2026-07-05T07:00:38.000Z</time>
      </trkpt>
      <trkpt lat="44.96929" lon="5.6936">
        <ele>850.79998779297</ele>
        <time>2026-07-05T07:00:39.000Z</time>
      </trkpt>
      <trkpt lat="44.96927" lon="5.69359">
        <ele>851.40002441406</ele>
        <time>2026-07-05T07:00:40.000Z</time>
      </trkpt>
      <trkpt lat="44.96926" lon="5.69358">
        <ele>852.20001220703</ele>
        <time>2026-07-05T07:00:41.000Z</time>
      </trkpt>
      <trkpt lat="44.96924" lon="5.69357">
        <ele>853</ele>
        <time>2026-07-05T07:00:42.000Z</time>
      </trkpt>
      <trkpt lat="44.96922" lon="5.69357">
        <ele>853.79998779297</ele>
        <time>2026-07-05T07:00:43.000Z</time>
      </trkpt>
      <trkpt lat="44.9692" lon="5.69356">
        <ele>855.20001220703</ele>
        <time>2026-07-05T07:00:44.000Z</time>
      </trkpt>
      <trkpt lat="44.96918" lon="5.69355">
        <ele>856.59997558594</ele>
        <time>2026-07-05T07:00:45.000Z</time>
      </trkpt>
      <trkpt lat="44.96916" lon="5.69354">
        <ele>857</ele>
        <time>2026-07-05T07:00:46.000Z</time>
      </trkpt>
      <trkpt lat="44.96915" lon="5.69354">
        <ele>857.20001220703</ele>
        <time>2026-07-05T07:00:47.000Z</time>
      </trkpt>
      <trkpt lat="44.96913" lon="5.69353">
        <ele>857.20001220703</ele>
        <time>2026-07-05T07:00:48.000Z</time>
      </trkpt>
      <trkpt lat="44.96911" lon="5.69353">
        <ele>857.40002441406</ele>
        <time>2026-07-05T07:00:49.000Z</time>
      </trkpt>
      <trkpt lat="44.96909" lon="5.69352">
        <ele>857.40002441406</ele>
        <time>2026-07-05T07:00:50.000Z</time>
      </trkpt>
      <trkpt lat="44.96907" lon="5.69352">
        <ele>857.40002441406</ele>
        <time>2026-07-05T07:00:51.000Z</time>
      </trkpt>
      <trkpt lat="44.96905" lon="5.69351">
        <ele>857.59997558594</ele>
        <time>2026-07-05T07:00:52.000Z</time>
      </trkpt>
      <trkpt lat="44.96903" lon="5.6935">
        <ele>857.59997558594</ele>
        <time>2026-07-05T07:00:53.000Z</time>
      </trkpt>
      <trkpt lat="44.96901" lon="5.69349">
        <ele>857.79998779297</ele>
        <time>2026-07-05T07:00:54.000Z</time>
      </trkpt>
      <trkpt lat="44.96899" lon="5.69348">
        <ele>858.20001220703</ele>
        <time>2026-07-05T07:00:55.000Z</time>
      </trkpt>
      <trkpt lat="44.96897" lon="5.69347">
        <ele>858.59997558594</ele>
        <time>2026-07-05T07:00:56.000Z</time>
      </trkpt>
      <trkpt lat="44.96895" lon="5.69347">
        <ele>859</ele>
        <time>2026-07-05T07:00:57.000Z</time>
      </trkpt>
      <trkpt lat="44.96893" lon="5.69346">
        <ele>859.40002441406</ele>
        <time>2026-07-05T07:00:58.000Z</time>
      </trkpt>
      <trkpt lat="44.96891" lon="5.69346">
        <ele>860.59997558594</ele>
        <time>2026-07-05T07:00:59.000Z</time>
      </trkpt>
      <trkpt lat="44.96889" lon="5.69345">
        <ele>860.79998779297</ele>
        <time>2026-07-05T07:01:00.000Z</time>
      </trkpt>
      <trkpt lat="44.96887" lon="5.69345">
        <ele>861</ele>
        <time>2026-07-05T07:01:01.000Z</time>
      </trkpt>
      <trkpt lat="44.96885" lon="5.69345">
        <ele>861</ele>
        <time>2026-07-05T07:01:02.000Z</time>
      </trkpt>
      <trkpt lat="44.96883" lon="5.69344">
        <ele>861</ele>
        <time>2026-07-05T07:01:03.000Z</time>
      </trkpt>
      <trkpt lat="44.96881" lon="5.69344">
        <ele>861.20001220703</ele>
        <time>2026-07-05T07:01:04.000Z</time>
      </trkpt>
      <trkpt lat="44.96878" lon="5.69344">
        <ele>861</ele>
        <time>2026-07-05T07:01:05.000Z</time>
      </trkpt>
      <trkpt lat="44.96877" lon="5.69344">
        <ele>860.79998779297</ele>
        <time>2026-07-05T07:01:06.000Z</time>
      </trkpt>
      <trkpt lat="44.96875" lon="5.69345">
        <ele>860.59997558594</ele>
        <time>2026-07-05T07:01:07.000Z</time>
      </trkpt>
      <trkpt lat="44.96873" lon="5.69345">
        <ele>860.59997558594</ele>
        <time>2026-07-05T07:01:08.000Z</time>
      </trkpt>
      <trkpt lat="44.96871" lon="5.69345">
        <ele>860.40002441406</ele>
        <time>2026-07-05T07:01:09.000Z</time>
      </trkpt>
      <trkpt lat="44.96868" lon="5.69345">
        <ele>860.40002441406</ele>
        <time>2026-07-05T07:01:10.000Z</time>
      </trkpt>
      <trkpt lat="44.96866" lon="5.69345">
        <ele>860.79998779297</ele>
        <time>2026-07-05T07:01:11.000Z</time>
      </trkpt>
      <trkpt lat="44.96863" lon="5.69345">
        <ele>861.20001220703</ele>
        <time>2026-07-05T07:01:12.000Z</time>
      </trkpt>
      <trkpt lat="44.96861" lon="5.69345">
        <ele>861.59997558594</ele>
        <time>2026-07-05T07:01:13.000Z</time>
      </trkpt>
      <trkpt lat="44.96858" lon="5.69344">
        <ele>861.79998779297</ele>
        <time>2026-07-05T07:01:14.000Z</time>
      </trkpt>
      <trkpt lat="44.96856" lon="5.69343">
        <ele>861.79998779297</ele>
        <time>2026-07-05T07:01:15.000Z</time>
      </trkpt>
      <trkpt lat="44.96854" lon="5.69342">
        <ele>861.59997558594</ele>
        <time>2026-07-05T07:01:16.000Z</time>
      </trkpt>
      <trkpt lat="44.96851" lon="5.69342">
        <ele>861.20001220703</ele>
        <time>2026-07-05T07:01:17.000Z</time>
      </trkpt>
      <trkpt lat="44.96848" lon="5.69341">
        <ele>860.79998779297</ele>
        <time>2026-07-05T07:01:18.000Z</time>
      </trkpt>
      <trkpt lat="44.96846" lon="5.6934">
        <ele>860.59997558594</ele>
        <time>2026-07-05T07:01:19.000Z</time>
      </trkpt>
      <trkpt lat="44.96844" lon="5.69339">
        <ele>860.20001220703</ele>
        <time>2026-07-05T07:01:20.000Z</time>
      </trkpt>
      <trkpt lat="44.96842" lon="5.69338">
        <ele>860.40002441406</ele>
        <time>2026-07-05T07:01:21.000Z</time>
      </trkpt>
      <trkpt lat="44.9684" lon="5.69336">
        <ele>860.40002441406</ele>
        <time>2026-07-05T07:01:22.000Z</time>
      </trkpt>
      <trkpt lat="44.96837" lon="5.69335">
        <ele>860.40002441406</ele>
        <time>2026-07-05T07:01:23.000Z</time>
      </trkpt>
      <trkpt lat="44.96835" lon="5.69334">
        <ele>860</ele>
        <time>2026-07-05T07:01:24.000Z</time>
      </trkpt>
      <trkpt lat="44.96832" lon="5.69333">
        <ele>859.79998779297</ele>
        <time>2026-07-05T07:01:25.000Z</time>
      </trkpt>
      <trkpt lat="44.9683" lon="5.69332">
        <ele>859.59997558594</ele>
        <time>2026-07-05T07:01:26.000Z</time>
      </trkpt>
      <trkpt lat="44.96827" lon="5.69331">
        <ele>859.59997558594</ele>
        <time>2026-07-05T07:01:27.000Z</time>
      </trkpt>
      <trkpt lat="44.96824" lon="5.6933">
        <ele>859.79998779297</ele>
        <time>2026-07-05T07:01:28.000Z</time>
      </trkpt>
      <trkpt lat="44.96822" lon="5.6933">
        <ele>859.79998779297</ele>
        <time>2026-07-05T07:01:29.000Z</time>
      </trkpt>
      <trkpt lat="44.9682" lon="5.6933">
        <ele>859.79998779297</ele>
        <time>2026-07-05T07:01:30.000Z</time>
      </trkpt>
      <trkpt lat="44.96817" lon="5.69331">
        <ele>860</ele>
        <time>2026-07-05T07:01:31.000Z</time>
      </trkpt>
      <trkpt lat="44.96815" lon="5.69331">
        <ele>860</ele>
        <time>2026-07-05T07:01:32.000Z</time>
      </trkpt>
      <trkpt lat="44.96813" lon="5.69332">
        <ele>860</ele>
        <time>2026-07-05T07:01:33.000Z</time>
      </trkpt>
      <trkpt lat="44.9681" lon="5.69332">
        <ele>859.20001220703</ele>
        <time>2026-07-05T07:01:34.000Z</time>
      </trkpt>
      <trkpt lat="44.96807" lon="5.69331">
        <ele>858.20001220703</ele>
        <time>2026-07-05T07:01:35.000Z</time>
      </trkpt>
      <trkpt lat="44.96805" lon="5.69332">
        <ele>857.59997558594</ele>
        <time>2026-07-05T07:01:36.000Z</time>
      </trkpt>
      <trkpt lat="44.96802" lon="5.69332">
        <ele>857.40002441406</ele>
        <time>2026-07-05T07:01:37.000Z</time>
      </trkpt>
      <trkpt lat="44.96799" lon="5.69333">
        <ele>857.20001220703</ele>
        <time>2026-07-05T07:01:38.000Z</time>
      </trkpt>
      <trkpt lat="44.96797" lon="5.69334">
        <ele>855.79998779297</ele>
        <time>2026-07-05T07:01:39.000Z</time>
      </trkpt>
      <trkpt lat="44.96793" lon="5.69335">
        <ele>855.20001220703</ele>
        <time>2026-07-05T07:01:40.000Z</time>
      </trkpt>
      <trkpt lat="44.96791" lon="5.69335">
        <ele>854.40002441406</ele>
        <time>2026-07-05T07:01:41.000Z</time>
      </trkpt>
      <trkpt lat="44.96789" lon="5.69334">
        <ele>854.40002441406</ele>
        <time>2026-07-05T07:01:42.000Z</time>
      </trkpt>
      <trkpt lat="44.96786" lon="5.69335">
        <ele>854.59997558594</ele>
        <time>2026-07-05T07:01:43.000Z</time>
      </trkpt>
      <trkpt lat="44.96783" lon="5.69334">
        <ele>854.59997558594</ele>
        <time>2026-07-05T07:01:44.000Z</time>
      </trkpt>
      <trkpt lat="44.9678" lon="5.69334">
        <ele>854.79998779297</ele>
        <time>2026-07-05T07:01:45.000Z</time>
      </trkpt>
      <trkpt lat="44.96778" lon="5.69334">
        <ele>855.20001220703</ele>
        <time>2026-07-05T07:01:46.000Z</time>
      </trkpt>
      <trkpt lat="44.96775" lon="5.69334">
        <ele>855.20001220703</ele>
        <time>2026-07-05T07:01:47.000Z</time>
      </trkpt>
      <trkpt lat="44.96772" lon="5.69334">
        <ele>854.79998779297</ele>
        <time>2026-07-05T07:01:48.000Z</time>
      </trkpt>
      <trkpt lat="44.9677" lon="5.69333">
        <ele>855</ele>
        <time>2026-07-05T07:01:49.000Z</time>
      </trkpt>
      <trkpt lat="44.96767" lon="5.69333">
        <ele>855.20001220703</ele>
        <time>2026-07-05T07:01:50.000Z</time>
      </trkpt>
      <trkpt lat="44.96765" lon="5.69332">
        <ele>855.59997558594</ele>
        <time>2026-07-05T07:01:51.000Z</time>
      </trkpt>
      <trkpt lat="44.96762" lon="5.69331">
        <ele>855.79998779297</ele>
        <time>2026-07-05T07:01:52.000Z</time>
      </trkpt>
      <trkpt lat="44.9676" lon="5.69331">
        <ele>856</ele>
        <time>2026-07-05T07:01:53.000Z</time>
      </trkpt>
      <trkpt lat="44.96757" lon="5.6933">
        <ele>856.40002441406</ele>
        <time>2026-07-05T07:01:54.000Z</time>
      </trkpt>
      <trkpt lat="44.96755" lon="5.69329">
        <ele>856.40002441406</ele>
        <time>2026-07-05T07:01:55.000Z</time>
      </trkpt>
      <trkpt lat="44.96752" lon="5.69329">
        <ele>856.40002441406</ele>
        <time>2026-07-05T07:01:56.000Z</time>
      </trkpt>
      <trkpt lat="44.96749" lon="5.69329">
        <ele>856.20001220703</ele>
        <time>2026-07-05T07:01:57.000Z</time>
      </trkpt>
      <trkpt lat="44.96746" lon="5.69329">
        <ele>856.20001220703</ele>
        <time>2026-07-05T07:01:58.000Z</time>
      </trkpt>
      <trkpt lat="44.96743" lon="5.69329">
        <ele>856.20001220703</ele>
        <time>2026-07-05T07:01:59.000Z</time>
      </trkpt>
      <trkpt lat="44.9674" lon="5.69329">
        <ele>855.40002441406</ele>
        <time>2026-07-05T07:02:00.000Z</time>
      </trkpt>
      <trkpt lat="44.96737" lon="5.6933">
        <ele>855</ele>
        <time>2026-07-05T07:02:01.000Z</time>
      </trkpt>
      <trkpt lat="44.96734" lon="5.6933">
        <ele>854.40002441406</ele>
        <time>2026-07-05T07:02:02.000Z</time>
      </trkpt>
      <trkpt lat="44.9673" lon="5.6933">
        <ele>854.20001220703</ele>
        <time>2026-07-05T07:02:03.000Z</time>
      </trkpt>
      <trkpt lat="44.96727" lon="5.6933">
        <ele>853.79998779297</ele>
        <time>2026-07-05T07:02:04.000Z</time>
      </trkpt>
      <trkpt lat="44.96724" lon="5.69329">
        <ele>853.40002441406</ele>
        <time>2026-07-05T07:02:05.000Z</time>
      </trkpt>
      <trkpt lat="44.96721" lon="5.6933">
        <ele>853</ele>
        <time>2026-07-05T07:02:06.000Z</time>
      </trkpt>
      <trkpt lat="44.96719" lon="5.6933">
        <ele>852.59997558594</ele>
        <time>2026-07-05T07:02:07.000Z</time>
      </trkpt>
      <trkpt lat="44.96716" lon="5.6933">
        <ele>852</ele>
        <time>2026-07-05T07:02:08.000Z</time>
      </trkpt>
      <trkpt lat="44.96713" lon="5.6933">
        <ele>851.79998779297</ele>
        <time>2026-07-05T07:02:09.000Z</time>
      </trkpt>
      <trkpt lat="44.96711" lon="5.6933">
        <ele>851</ele>
        <time>2026-07-05T07:02:10.000Z</time>
      </trkpt>
      <trkpt lat="44.96708" lon="5.69329">
        <ele>850.20001220703</ele>
        <time>2026-07-05T07:02:11.000Z</time>
      </trkpt>
      <trkpt lat="44.96705" lon="5.69329">
        <ele>850</ele>
        <time>2026-07-05T07:02:12.000Z</time>
      </trkpt>
      <trkpt lat="44.96703" lon="5.69329">
        <ele>848.59997558594</ele>
        <time>2026-07-05T07:02:13.000Z</time>
      </trkpt>
      <trkpt lat="44.967" lon="5.69328">
        <ele>846.59997558594</ele>
        <time>2026-07-05T07:02:14.000Z</time>
      </trkpt>
      <trkpt lat="44.96697" lon="5.69328">
        <ele>845.59997558594</ele>
        <time>2026-07-05T07:02:15.000Z</time>
      </trkpt>
      <trkpt lat="44.96694" lon="5.69327">
        <ele>844</ele>
        <time>2026-07-05T07:02:16.000Z</time>
      </trkpt>
      <trkpt lat="44.96691" lon="5.69327">
        <ele>843.40002441406</ele>
        <time>2026-07-05T07:02:17.000Z</time>
      </trkpt>
      <trkpt lat="44.96689" lon="5.69327">
        <ele>843</ele>
        <time>2026-07-05T07:02:18.000Z</time>
      </trkpt>
      <trkpt lat="44.96686" lon="5.69328">
        <ele>842.40002441406</ele>
        <time>2026-07-05T07:02:19.000Z</time>
      </trkpt>
      <trkpt lat="44.96683" lon="5.69328">
        <ele>842.20001220703</ele>
        <time>2026-07-05T07:02:20.000Z</time>
      </trkpt>
      <trkpt lat="44.9668" lon="5.69328">
        <ele>842</ele>
        <time>2026-07-05T07:02:21.000Z</time>
      </trkpt>
      <trkpt lat="44.96677" lon="5.69328">
        <ele>841.79998779297</ele>
        <time>2026-07-05T07:02:22.000Z</time>
      </trkpt>
      <trkpt lat="44.96675" lon="5.69328">
        <ele>841.79998779297</ele>
        <time>2026-07-05T07:02:23.000Z</time>
      </trkpt>
      <trkpt lat="44.96672" lon="5.69327">
        <ele>841.20001220703</ele>
        <time>2026-07-05T07:02:24.000Z</time>
      </trkpt>
      <trkpt lat="44.96669" lon="5.69327">
        <ele>840.40002441406</ele>
        <time>2026-07-05T07:02:25.000Z</time>
      </trkpt>
      <trkpt lat="44.96666" lon="5.69326">
        <ele>839.59997558594</ele>
        <time>2026-07-05T07:02:26.000Z</time>
      </trkpt>
      <trkpt lat="44.96663" lon="5.69327">
        <ele>838.79998779297</ele>
        <time>2026-07-05T07:02:27.000Z</time>
      </trkpt>
      <trkpt lat="44.9666" lon="5.69327">
        <ele>838.40002441406</ele>
        <time>2026-07-05T07:02:28.000Z</time>
      </trkpt>
      <trkpt lat="44.96657" lon="5.69327">
        <ele>838.20001220703</ele>
        <time>2026-07-05T07:02:29.000Z</time>
      </trkpt>
      <trkpt lat="44.96654" lon="5.69327">
        <ele>837.40002441406</ele>
        <time>2026-07-05T07:02:30.000Z</time>
      </trkpt>
      <trkpt lat="44.96652" lon="5.69327">
        <ele>837</ele>
        <time>2026-07-05T07:02:31.000Z</time>
      </trkpt>
      <trkpt lat="44.96649" lon="5.69327">
        <ele>836.59997558594</ele>
        <time>2026-07-05T07:02:32.000Z</time>
      </trkpt>
      <trkpt lat="44.96646" lon="5.69327">
        <ele>836.40002441406</ele>
        <time>2026-07-05T07:02:33.000Z</time>
      </trkpt>
      <trkpt lat="44.96643" lon="5.69328">
        <ele>836.40002441406</ele>
        <time>2026-07-05T07:02:34.000Z</time>
      </trkpt>
      <trkpt lat="44.9664" lon="5.69328">
        <ele>836.20001220703</ele>
        <time>2026-07-05T07:02:35.000Z</time>
      </trkpt>
      <trkpt lat="44.96637" lon="5.69328">
        <ele>836</ele>
        <time>2026-07-05T07:02:36.000Z</time>
      </trkpt>
      <trkpt lat="44.96634" lon="5.69328">
        <ele>835.79998779297</ele>
        <time>2026-07-05T07:02:37.000Z</time>
      </trkpt>
      <trkpt lat="44.96631" lon="5.69328">
        <ele>835.59997558594</ele>
        <time>2026-07-05T07:02:38.000Z</time>
      </trkpt>
      <trkpt lat="44.96628" lon="5.69328">
        <ele>835.40002441406</ele>
        <time>2026-07-05T07:02:39.000Z</time>
      </trkpt>
      <trkpt lat="44.96625" lon="5.69328">
        <ele>835.40002441406</ele>
        <time>2026-07-05T07:02:40.000Z</time>
      </trkpt>
      <trkpt lat="44.96622" lon="5.69329">
        <ele>835</ele>
        <time>2026-07-05T07:02:41.000Z</time>
      </trkpt>
      <trkpt lat="44.96619" lon="5.69329">
        <ele>834.79998779297</ele>
        <time>2026-07-05T07:02:42.000Z</time>
      </trkpt>
      <trkpt lat="44.96616" lon="5.6933">
        <ele>834.59997558594</ele>
        <time>2026-07-05T07:02:43.000Z</time>
      </trkpt>
      <trkpt lat="44.96613" lon="5.69329">
        <ele>834.40002441406</ele>
        <time>2026-07-05T07:02:44.000Z</time>
      </trkpt>
      <trkpt lat="44.9661" lon="5.69329">
        <ele>834.20001220703</ele>
        <time>2026-07-05T07:02:45.000Z</time>
      </trkpt>
      <trkpt lat="44.96607" lon="5.69329">
        <ele>834</ele>
        <time>2026-07-05T07:02:46.000Z</time>
      </trkpt>
      <trkpt lat="44.96604" lon="5.69329">
        <ele>834</ele>
        <time>2026-07-05T07:02:47.000Z</time>
      </trkpt>
      <trkpt lat="44.96601" lon="5.69329">
        <ele>833.59997558594</ele>
        <time>2026-07-05T07:02:48.000Z</time>
      </trkpt>
      <trkpt lat="44.96598" lon="5.69328">
        <ele>833.20001220703</ele>
        <time>2026-07-05T07:02:49.000Z</time>
      </trkpt>
      <trkpt lat="44.96594" lon="5.69328">
        <ele>833</ele>
        <time>2026-07-05T07:02:50.000Z</time>
      </trkpt>
      <trkpt lat="44.96591" lon="5.69328">
        <ele>832.20001220703</ele>
        <time>2026-07-05T07:02:51.000Z</time>
      </trkpt>
      <trkpt lat="44.96588" lon="5.69328">
        <ele>831.79998779297</ele>
        <time>2026-07-05T07:02:52.000Z</time>
      </trkpt>
      <trkpt lat="44.96585" lon="5.69328">
        <ele>831.20001220703</ele>
        <time>2026-07-05T07:02:53.000Z</time>
      </trkpt>
      <trkpt lat="44.96582" lon="5.69328">
        <ele>831</ele>
        <time>2026-07-05T07:02:54.000Z</time>
      </trkpt>
      <trkpt lat="44.9658" lon="5.69329">
        <ele>830.59997558594</ele>
        <time>2026-07-05T07:02:55.000Z</time>
      </trkpt>
      <trkpt lat="44.96577" lon="5.69329">
        <ele>830.20001220703</ele>
        <time>2026-07-05T07:02:56.000Z</time>
      </trkpt>
      <trkpt lat="44.96574" lon="5.6933">
        <ele>829.59997558594</ele>
        <time>2026-07-05T07:02:57.000Z</time>
      </trkpt>
      <trkpt lat="44.96571" lon="5.69332">
        <ele>829</ele>
        <time>2026-07-05T07:02:58.000Z</time>
      </trkpt>
      <trkpt lat="44.96568" lon="5.69332">
        <ele>828.40002441406</ele>
        <time>2026-07-05T07:02:59.000Z</time>
      </trkpt>
      <trkpt lat="44.96565" lon="5.69332">
        <ele>828.20001220703</ele>
        <time>2026-07-05T07:03:00.000Z</time>
      </trkpt>
      <trkpt lat="44.96562" lon="5.69334">
        <ele>827.79998779297</ele>
        <time>2026-07-05T07:03:01.000Z</time>
      </trkpt>
      <trkpt lat="44.96561" lon="5.69335">
        <ele>827.59997558594</ele>
        <time>2026-07-05T07:03:02.000Z</time>
      </trkpt>
      <trkpt lat="44.96562" lon="5.69339">
        <ele>827.20001220703</ele>
        <time>2026-07-05T07:03:03.000Z</time>
      </trkpt>
      <trkpt lat="44.96562" lon="5.69341">
        <ele>827.20001220703</ele>
        <time>2026-07-05T07:03:04.000Z</time>
      </trkpt>
      <trkpt lat="44.96564" lon="5.69344">
        <ele>827</ele>
        <time>2026-07-05T07:03:05.000Z</time>
      </trkpt>
      <trkpt lat="44.96566" lon="5.69346">
        <ele>827.20001220703</ele>
        <time>2026-07-05T07:03:06.000Z</time>
      </trkpt>
      <trkpt lat="44.96568" lon="5.69349">
        <ele>827.20001220703</ele>
        <time>2026-07-05T07:03:07.000Z</time>
      </trkpt>
      <trkpt lat="44.9657" lon="5.69351">
        <ele>827.40002441406</ele>
        <time>2026-07-05T07:03:08.000Z</time>
      </trkpt>
      <trkpt lat="44.96572" lon="5.69353">
        <ele>827.59997558594</ele>
        <time>2026-07-05T07:03:09.000Z</time>
      </trkpt>
      <trkpt lat="44.96574" lon="5.69356">
        <ele>827.79998779297</ele>
        <time>2026-07-05T07:03:10.000Z</time>
      </trkpt>
      <trkpt lat="44.96576" lon="5.69359">
        <ele>827.79998779297</ele>
        <time>2026-07-05T07:03:11.000Z</time>
      </trkpt>
      <trkpt lat="44.96578" lon="5.69362">
        <ele>828</ele>
        <time>2026-07-05T07:03:12.000Z</time>
      </trkpt>
      <trkpt lat="44.96581" lon="5.69365">
        <ele>827.59997558594</ele>
        <time>2026-07-05T07:03:13.000Z</time>
      </trkpt>
      <trkpt lat="44.96583" lon="5.69366">
        <ele>827.40002441406</ele>
        <time>2026-07-05T07:03:14.000Z</time>
      </trkpt>
      <trkpt lat="44.96586" lon="5.69369">
        <ele>827.40002441406</ele>
        <time>2026-07-05T07:03:15.000Z</time>
      </trkpt>
      <trkpt lat="44.96588" lon="5.69372">
        <ele>827.40002441406</ele>
        <time>2026-07-05T07:03:16.000Z</time>
      </trkpt>
      <trkpt lat="44.9659" lon="5.69374">
        <ele>826.79998779297</ele>
        <time>2026-07-05T07:03:17.000Z</time>
      </trkpt>
      <trkpt lat="44.96592" lon="5.69376">
        <ele>826</ele>
        <time>2026-07-05T07:03:18.000Z</time>
      </trkpt>
      <trkpt lat="44.96594" lon="5.69379">
        <ele>826</ele>
        <time>2026-07-05T07:03:19.000Z</time>
      </trkpt>
      <trkpt lat="44.96596" lon="5.69381">
        <ele>826</ele>
        <time>2026-07-05T07:03:20.000Z</time>
      </trkpt>
      <trkpt lat="44.96597" lon="5.69384">
        <ele>826</ele>
        <time>2026-07-05T07:03:21.000Z</time>
      </trkpt>
      <trkpt lat="44.96599" lon="5.69387">
        <ele>826</ele>
        <time>2026-07-05T07:03:22.000Z</time>
      </trkpt>
      <trkpt lat="44.966" lon="5.6939">
        <ele>826.20001220703</ele>
        <time>2026-07-05T07:03:23.000Z</time>
      </trkpt>
      <trkpt lat="44.96601" lon="5.69392">
        <ele>826.20001220703</ele>
        <time>2026-07-05T07:03:24.000Z</time>
      </trkpt>
      <trkpt lat="44.96602" lon="5.69395">
        <ele>826.40002441406</ele>
        <time>2026-07-05T07:03:25.000Z</time>
      </trkpt>
      <trkpt lat="44.96604" lon="5.69399">
        <ele>826.79998779297</ele>
        <time>2026-07-05T07:03:26.000Z</time>
      </trkpt>
      <trkpt lat="44.96605" lon="5.69401">
        <ele>827</ele>
        <time>2026-07-05T07:03:27.000Z</time>
      </trkpt>
      <trkpt lat="44.96606" lon="5.69404">
        <ele>827.40002441406</ele>
        <time>2026-07-05T07:03:28.000Z</time>
      </trkpt>
      <trkpt lat="44.96606" lon="5.69407">
        <ele>827.40002441406</ele>
        <time>2026-07-05T07:03:29.000Z</time>
      </trkpt>
      <trkpt lat="44.96607" lon="5.69411">
        <ele>827.79998779297</ele>
        <time>2026-07-05T07:03:30.000Z</time>
      </trkpt>
      <trkpt lat="44.96609" lon="5.69414">
        <ele>828</ele>
        <time>2026-07-05T07:03:31.000Z</time>
      </trkpt>
      <trkpt lat="44.9661" lon="5.69417">
        <ele>828.40002441406</ele>
        <time>2026-07-05T07:03:32.000Z</time>
      </trkpt>
      <trkpt lat="44.9661" lon="5.69421">
        <ele>828.59997558594</ele>
        <time>2026-07-05T07:03:33.000Z</time>
      </trkpt>
      <trkpt lat="44.96611" lon="5.69424">
        <ele>828.79998779297</ele>
        <time>2026-07-05T07:03:34.000Z</time>
      </trkpt>
      <trkpt lat="44.96612" lon="5.69427">
        <ele>829</ele>
        <time>2026-07-05T07:03:35.000Z</time>
      </trkpt>
      <trkpt lat="44.96612" lon="5.6943">
        <ele>829</ele>
        <time>2026-07-05T07:03:36.000Z</time>
      </trkpt>
      <trkpt lat="44.96613" lon="5.69433">
        <ele>829</ele>
        <time>2026-07-05T07:03:37.000Z</time>
      </trkpt>
      <trkpt lat="44.96615" lon="5.69435">
        <ele>829</ele>
        <time>2026-07-05T07:03:38.000Z</time>
      </trkpt>
      <trkpt lat="44.96616" lon="5.69438">
        <ele>829.20001220703</ele>
        <time>2026-07-05T07:03:39.000Z</time>
      </trkpt>
      <trkpt lat="44.96617" lon="5.6944">
        <ele>829.40002441406</ele>
        <time>2026-07-05T07:03:40.000Z</time>
      </trkpt>
      <trkpt lat="44.96618" lon="5.69442">
        <ele>829.40002441406</ele>
        <time>2026-07-05T07:03:41.000Z</time>
      </trkpt>
      <trkpt lat="44.9662" lon="5.69445">
        <ele>829.59997558594</ele>
        <time>2026-07-05T07:03:42.000Z</time>
      </trkpt>
      <trkpt lat="44.96621" lon="5.69448">
        <ele>829.79998779297</ele>
        <time>2026-07-05T07:03:43.000Z</time>
      </trkpt>
      <trkpt lat="44.96623" lon="5.69452">
        <ele>830</ele>
        <time>2026-07-05T07:03:44.000Z</time>
      </trkpt>
      <trkpt lat="44.96624" lon="5.69455">
        <ele>830</ele>
        <time>2026-07-05T07:03:45.000Z</time>
      </trkpt>
      <trkpt lat="44.96625" lon="5.69459">
        <ele>830</ele>
        <time>2026-07-05T07:03:46.000Z</time>
      </trkpt>
      <trkpt lat="44.96626" lon="5.69462">
        <ele>830.20001220703</ele>
        <time>2026-07-05T07:03:47.000Z</time>
      </trkpt>
      <trkpt lat="44.96628" lon="5.69466">
        <ele>830.20001220703</ele>
        <time>2026-07-05T07:03:48.000Z</time>
      </trkpt>
      <trkpt lat="44.96628" lon="5.69469">
        <ele>830.20001220703</ele>
        <time>2026-07-05T07:03:49.000Z</time>
      </trkpt>
      <trkpt lat="44.96629" lon="5.69472">
        <ele>830.20001220703</ele>
        <time>2026-07-05T07:03:50.000Z</time>
      </trkpt>
      <trkpt lat="44.96629" lon="5.69476">
        <ele>830.40002441406</ele>
        <time>2026-07-05T07:03:51.000Z</time>
      </trkpt>
      <trkpt lat="44.96629" lon="5.69479">
        <ele>830.79998779297</ele>
        <time>2026-07-05T07:03:52.000Z</time>
      </trkpt>
      <trkpt lat="44.96629" lon="5.69483">
        <ele>830.79998779297</ele>
        <time>2026-07-05T07:03:53.000Z</time>
      </trkpt>
      <trkpt lat="44.9663" lon="5.69487">
        <ele>831</ele>
        <time>2026-07-05T07:03:54.000Z</time>
      </trkpt>
      <trkpt lat="44.9663" lon="5.69489">
        <ele>831.20001220703</ele>
        <time>2026-07-05T07:03:55.000Z</time>
      </trkpt>
      <trkpt lat="44.9663" lon="5.69492">
        <ele>831.40002441406</ele>
        <time>2026-07-05T07:03:56.000Z</time>
      </trkpt>
      <trkpt lat="44.96629" lon="5.69495">
        <ele>831.79998779297</ele>
        <time>2026-07-05T07:03:57.000Z</time>
      </trkpt>
      <trkpt lat="44.96629" lon="5.69498">
        <ele>832.20001220703</ele>
        <time>2026-07-05T07:03:58.000Z</time>
      </trkpt>
      <trkpt lat="44.96629" lon="5.69502">
        <ele>832.59997558594</ele>
        <time>2026-07-05T07:03:59.000Z</time>
      </trkpt>
      <trkpt lat="44.96629" lon="5.69504">
        <ele>833</ele>
        <time>2026-07-05T07:04:00.000Z</time>
      </trkpt>
      <trkpt lat="44.96629" lon="5.69507">
        <ele>833</ele>
        <time>2026-07-05T07:04:01.000Z</time>
      </trkpt>
      <trkpt lat="44.96629" lon="5.6951">
        <ele>833.20001220703</ele>
        <time>2026-07-05T07:04:02.000Z</time>
      </trkpt>
      <trkpt lat="44.96629" lon="5.69512">
        <ele>833.40002441406</ele>
        <time>2026-07-05T07:04:03.000Z</time>
      </trkpt>
      <trkpt lat="44.96629" lon="5.69515">
        <ele>833.40002441406</ele>
        <time>2026-07-05T07:04:04.000Z</time>
      </trkpt>
      <trkpt lat="44.9663" lon="5.69518">
        <ele>833.79998779297</ele>
        <time>2026-07-05T07:04:05.000Z</time>
      </trkpt>
      <trkpt lat="44.9663" lon="5.69521">
        <ele>834.20001220703</ele>
        <time>2026-07-05T07:04:06.000Z</time>
      </trkpt>
      <trkpt lat="44.96631" lon="5.69524">
        <ele>834.40002441406</ele>
        <time>2026-07-05T07:04:07.000Z</time>
      </trkpt>
      <trkpt lat="44.96631" lon="5.69526">
        <ele>834.79998779297</ele>
        <time>2026-07-05T07:04:08.000Z</time>
      </trkpt>
      <trkpt lat="44.96632" lon="5.69529">
        <ele>835</ele>
        <time>2026-07-05T07:04:09.000Z</time>
      </trkpt>
      <trkpt lat="44.96633" lon="5.69531">
        <ele>835</ele>
        <time>2026-07-05T07:04:10.000Z</time>
      </trkpt>
      <trkpt lat="44.96633" lon="5.69533">
        <ele>835.20001220703</ele>
        <time>2026-07-05T07:04:11.000Z</time>
      </trkpt>
      <trkpt lat="44.96633" lon="5.69536">
        <ele>835.20001220703</ele>
        <time>2026-07-05T07:04:12.000Z</time>
      </trkpt>
      <trkpt lat="44.96634" lon="5.69539">
        <ele>835.40002441406</ele>
        <time>2026-07-05T07:04:13.000Z</time>
      </trkpt>
      <trkpt lat="44.96635" lon="5.69541">
        <ele>835.59997558594</ele>
        <time>2026-07-05T07:04:14.000Z</time>
      </trkpt>
      <trkpt lat="44.96635" lon="5.69543">
        <ele>836</ele>
        <time>2026-07-05T07:04:15.000Z</time>
      </trkpt>
      <trkpt lat="44.96636" lon="5.69546">
        <ele>836.20001220703</ele>
        <time>2026-07-05T07:04:16.000Z</time>
      </trkpt>
      <trkpt lat="44.96637" lon="5.69547">
        <ele>836.59997558594</ele>
        <time>2026-07-05T07:04:17.000Z</time>
      </trkpt>
      <trkpt lat="44.96639" lon="5.6955">
        <ele>837</ele>
        <time>2026-07-05T07:04:18.000Z</time>
      </trkpt>
      <trkpt lat="44.9664" lon="5.69552">
        <ele>837.20001220703</ele>
        <time>2026-07-05T07:04:19.000Z</time>
      </trkpt>
      <trkpt lat="44.96641" lon="5.69555">
        <ele>837.40002441406</ele>
        <time>2026-07-05T07:04:20.000Z</time>
      </trkpt>
      <trkpt lat="44.9664" lon="5.69559">
        <ele>837.40002441406</ele>
        <time>2026-07-05T07:04:21.000Z</time>
      </trkpt>
      <trkpt lat="44.9664" lon="5.69563">
        <ele>837.40002441406</ele>
        <time>2026-07-05T07:04:22.000Z</time>
      </trkpt>
      <trkpt lat="44.9664" lon="5.69567">
        <ele>837.40002441406</ele>
        <time>2026-07-05T07:04:23.000Z</time>
      </trkpt>
      <trkpt lat="44.96639" lon="5.69571">
        <ele>837.59997558594</ele>
        <time>2026-07-05T07:04:24.000Z</time>
      </trkpt>
      <trkpt lat="44.96638" lon="5.69574">
        <ele>837.79998779297</ele>
        <time>2026-07-05T07:04:25.000Z</time>
      </trkpt>
      <trkpt lat="44.96638" lon="5.69578">
        <ele>838</ele>
        <time>2026-07-05T07:04:26.000Z</time>
      </trkpt>
      <trkpt lat="44.96637" lon="5.69582">
        <ele>838</ele>
        <time>2026-07-05T07:04:27.000Z</time>
      </trkpt>
      <trkpt lat="44.96637" lon="5.69585">
        <ele>838.20001220703</ele>
        <time>2026-07-05T07:04:28.000Z</time>
      </trkpt>
      <trkpt lat="44.96636" lon="5.69589">
        <ele>838.40002441406</ele>
        <time>2026-07-05T07:04:29.000Z</time>
      </trkpt>
      <trkpt lat="44.96635" lon="5.69592">
        <ele>838.40002441406</ele>
        <time>2026-07-05T07:04:30.000Z</time>
      </trkpt>
      <trkpt lat="44.96635" lon="5.69595">
        <ele>838.59997558594</ele>
        <time>2026-07-05T07:04:31.000Z</time>
      </trkpt>
      <trkpt lat="44.96634" lon="5.69599">
        <ele>838.59997558594</ele>
        <time>2026-07-05T07:04:32.000Z</time>
      </trkpt>
      <trkpt lat="44.96634" lon="5.69601">
        <ele>838.59997558594</ele>
        <time>2026-07-05T07:04:33.000Z</time>
      </trkpt>
      <trkpt lat="44.96633" lon="5.69605">
        <ele>838.79998779297</ele>
        <time>2026-07-05T07:04:34.000Z</time>
      </trkpt>
      <trkpt lat="44.96632" lon="5.69608">
        <ele>838.79998779297</ele>
        <time>2026-07-05T07:04:35.000Z</time>
      </trkpt>
      <trkpt lat="44.96631" lon="5.69612">
        <ele>839</ele>
        <time>2026-07-05T07:04:36.000Z</time>
      </trkpt>
      <trkpt lat="44.96631" lon="5.69615">
        <ele>839.20001220703</ele>
        <time>2026-07-05T07:04:37.000Z</time>
      </trkpt>
      <trkpt lat="44.9663" lon="5.69618">
        <ele>839.40002441406</ele>
        <time>2026-07-05T07:04:38.000Z</time>
      </trkpt>
      <trkpt lat="44.9663" lon="5.69622">
        <ele>839.40002441406</ele>
        <time>2026-07-05T07:04:39.000Z</time>
      </trkpt>
      <trkpt lat="44.96629" lon="5.69625">
        <ele>839.40002441406</ele>
        <time>2026-07-05T07:04:40.000Z</time>
      </trkpt>
      <trkpt lat="44.96629" lon="5.69629">
        <ele>839.40002441406</ele>
        <time>2026-07-05T07:04:41.000Z</time>
      </trkpt>
      <trkpt lat="44.96628" lon="5.69632">
        <ele>839.40002441406</ele>
        <time>2026-07-05T07:04:42.000Z</time>
      </trkpt>
      <trkpt lat="44.96628" lon="5.69636">
        <ele>839.40002441406</ele>
        <time>2026-07-05T07:04:43.000Z</time>
      </trkpt>
      <trkpt lat="44.96627" lon="5.69639">
        <ele>839.59997558594</ele>
        <time>2026-07-05T07:04:44.000Z</time>
      </trkpt>
      <trkpt lat="44.96627" lon="5.69643">
        <ele>839.59997558594</ele>
        <time>2026-07-05T07:04:45.000Z</time>
      </trkpt>
      <trkpt lat="44.96626" lon="5.69647">
        <ele>839.79998779297</ele>
        <time>2026-07-05T07:04:46.000Z</time>
      </trkpt>
      <trkpt lat="44.96625" lon="5.6965">
        <ele>840</ele>
        <time>2026-07-05T07:04:47.000Z</time>
      </trkpt>
      <trkpt lat="44.96625" lon="5.69654">
        <ele>840</ele>
        <time>2026-07-05T07:04:48.000Z</time>
      </trkpt>
      <trkpt lat="44.96624" lon="5.69657">
        <ele>840</ele>
        <time>2026-07-05T07:04:49.000Z</time>
      </trkpt>
      <trkpt lat="44.96624" lon="5.69661">
        <ele>840</ele>
        <time>2026-07-05T07:04:50.000Z</time>
      </trkpt>
      <trkpt lat="44.96623" lon="5.69665">
        <ele>840</ele>
        <time>2026-07-05T07:04:51.000Z</time>
      </trkpt>
      <trkpt lat="44.96622" lon="5.69668">
        <ele>840.20001220703</ele>
        <time>2026-07-05T07:04:52.000Z</time>
      </trkpt>
      <trkpt lat="44.96622" lon="5.69673">
        <ele>840.20001220703</ele>
        <time>2026-07-05T07:04:53.000Z</time>
      </trkpt>
      <trkpt lat="44.96621" lon="5.69676">
        <ele>840.40002441406</ele>
        <time>2026-07-05T07:04:54.000Z</time>
      </trkpt>
      <trkpt lat="44.9662" lon="5.6968">
        <ele>840.40002441406</ele>
        <time>2026-07-05T07:04:55.000Z</time>
      </trkpt>
      <trkpt lat="44.9662" lon="5.69684">
        <ele>840.40002441406</ele>
        <time>2026-07-05T07:04:56.000Z</time>
      </trkpt>
      <trkpt lat="44.96619" lon="5.69688">
        <ele>840.40002441406</ele>
        <time>2026-07-05T07:04:57.000Z</time>
      </trkpt>
      <trkpt lat="44.96618" lon="5.69692">
        <ele>840.40002441406</ele>
        <time>2026-07-05T07:04:58.000Z</time>
      </trkpt>
      <trkpt lat="44.96617" lon="5.69695">
        <ele>840.40002441406</ele>
        <time>2026-07-05T07:04:59.000Z</time>
      </trkpt>
      <trkpt lat="44.96617" lon="5.69699">
        <ele>840.40002441406</ele>
        <time>2026-07-05T07:05:00.000Z</time>
      </trkpt>
      <trkpt lat="44.96616" lon="5.69703">
        <ele>840.40002441406</ele>
        <time>2026-07-05T07:05:01.000Z</time>
      </trkpt>
      <trkpt lat="44.96616" lon="5.69707">
        <ele>840.20001220703</ele>
        <time>2026-07-05T07:05:02.000Z</time>
      </trkpt>
      <trkpt lat="44.96615" lon="5.69711">
        <ele>840.20001220703</ele>
        <time>2026-07-05T07:05:03.000Z</time>
      </trkpt>
      <trkpt lat="44.96614" lon="5.69714">
        <ele>840.20001220703</ele>
        <time>2026-07-05T07:05:04.000Z</time>
      </trkpt>
      <trkpt lat="44.96614" lon="5.69718">
        <ele>840.20001220703</ele>
        <time>2026-07-05T07:05:05.000Z</time>
      </trkpt>
      <trkpt lat="44.96613" lon="5.69723">
        <ele>840.20001220703</ele>
        <time>2026-07-05T07:05:06.000Z</time>
      </trkpt>
      <trkpt lat="44.96612" lon="5.69726">
        <ele>840.20001220703</ele>
        <time>2026-07-05T07:05:07.000Z</time>
      </trkpt>
      <trkpt lat="44.96611" lon="5.69729">
        <ele>840</ele>
        <time>2026-07-05T07:05:08.000Z</time>
      </trkpt>
      <trkpt lat="44.9661" lon="5.69734">
        <ele>840</ele>
        <time>2026-07-05T07:05:09.000Z</time>
      </trkpt>
      <trkpt lat="44.96609" lon="5.69737">
        <ele>839.79998779297</ele>
        <time>2026-07-05T07:05:10.000Z</time>
      </trkpt>
      <trkpt lat="44.96608" lon="5.69741">
        <ele>839.79998779297</ele>
        <time>2026-07-05T07:05:11.000Z</time>
      </trkpt>
      <trkpt lat="44.96606" lon="5.69745">
        <ele>839.59997558594</ele>
        <time>2026-07-05T07:05:12.000Z</time>
      </trkpt>
      <trkpt lat="44.96605" lon="5.69749">
        <ele>839.40002441406</ele>
        <time>2026-07-05T07:05:13.000Z</time>
      </trkpt>
      <trkpt lat="44.96603" lon="5.69753">
        <ele>839.40002441406</ele>
        <time>2026-07-05T07:05:14.000Z</time>
      </trkpt>
      <trkpt lat="44.96601" lon="5.69757">
        <ele>839.20001220703</ele>
        <time>2026-07-05T07:05:15.000Z</time>
      </trkpt>
      <trkpt lat="44.966" lon="5.69761">
        <ele>839</ele>
        <time>2026-07-05T07:05:16.000Z</time>
      </trkpt>
      <trkpt lat="44.96599" lon="5.69765">
        <ele>839</ele>
        <time>2026-07-05T07:05:17.000Z</time>
      </trkpt>
      <trkpt lat="44.96598" lon="5.69769">
        <ele>839</ele>
        <time>2026-07-05T07:05:18.000Z</time>
      </trkpt>
      <trkpt lat="44.96596" lon="5.69773">
        <ele>838.79998779297</ele>
        <time>2026-07-05T07:05:19.000Z</time>
      </trkpt>
      <trkpt lat="44.96595" lon="5.69777">
        <ele>838.79998779297</ele>
        <time>2026-07-05T07:05:20.000Z</time>
      </trkpt>
      <trkpt lat="44.96594" lon="5.69781">
        <ele>838.79998779297</ele>
        <time>2026-07-05T07:05:21.000Z</time>
      </trkpt>
      <trkpt lat="44.96592" lon="5.69784">
        <ele>838.79998779297</ele>
        <time>2026-07-05T07:05:22.000Z</time>
      </trkpt>
      <trkpt lat="44.96591" lon="5.69788">
        <ele>838.59997558594</ele>
        <time>2026-07-05T07:05:23.000Z</time>
      </trkpt>
      <trkpt lat="44.9659" lon="5.69792">
        <ele>838.59997558594</ele>
        <time>2026-07-05T07:05:24.000Z</time>
      </trkpt>
      <trkpt lat="44.96589" lon="5.69796">
        <ele>838.59997558594</ele>
        <time>2026-07-05T07:05:25.000Z</time>
      </trkpt>
      <trkpt lat="44.96588" lon="5.69799">
        <ele>838.59997558594</ele>
        <time>2026-07-05T07:05:26.000Z</time>
      </trkpt>
      <trkpt lat="44.96587" lon="5.69804">
        <ele>838.40002441406</ele>
        <time>2026-07-05T07:05:27.000Z</time>
      </trkpt>
      <trkpt lat="44.96586" lon="5.69807">
        <ele>838.40002441406</ele>
        <time>2026-07-05T07:05:28.000Z</time>
      </trkpt>
      <trkpt lat="44.96585" lon="5.69812">
        <ele>838.40002441406</ele>
        <time>2026-07-05T07:05:29.000Z</time>
      </trkpt>
      <trkpt lat="44.96583" lon="5.69816">
        <ele>838.20001220703</ele>
        <time>2026-07-05T07:05:30.000Z</time>
      </trkpt>
      <trkpt lat="44.96581" lon="5.69819">
        <ele>838.20001220703</ele>
        <time>2026-07-05T07:05:31.000Z</time>
      </trkpt>
      <trkpt lat="44.96578" lon="5.69818">
        <ele>838</ele>
        <time>2026-07-05T07:05:32.000Z</time>
      </trkpt>
      <trkpt lat="44.96576" lon="5.69815">
        <ele>838</ele>
        <time>2026-07-05T07:05:33.000Z</time>
      </trkpt>
      <trkpt lat="44.96576" lon="5.69812">
        <ele>837.79998779297</ele>
        <time>2026-07-05T07:05:34.000Z</time>
      </trkpt>
      <trkpt lat="44.96575" lon="5.69809">
        <ele>837.59997558594</ele>
        <time>2026-07-05T07:05:35.000Z</time>
      </trkpt>
      <trkpt lat="44.96574" lon="5.69806">
        <ele>836.79998779297</ele>
        <time>2026-07-05T07:05:36.000Z</time>
      </trkpt>
      <trkpt lat="44.96574" lon="5.69803">
        <ele>836.20001220703</ele>
        <time>2026-07-05T07:05:37.000Z</time>
      </trkpt>
      <trkpt lat="44.96573" lon="5.69798">
        <ele>835.79998779297</ele>
        <time>2026-07-05T07:05:38.000Z</time>
      </trkpt>
      <trkpt lat="44.96574" lon="5.69795">
        <ele>835.40002441406</ele>
        <time>2026-07-05T07:05:39.000Z</time>
      </trkpt>
      <trkpt lat="44.96574" lon="5.69791">
        <ele>835</ele>
        <time>2026-07-05T07:05:40.000Z</time>
      </trkpt>
      <trkpt lat="44.96574" lon="5.69788">
        <ele>834.59997558594</ele>
        <time>2026-07-05T07:05:41.000Z</time>
      </trkpt>
      <trkpt lat="44.96575" lon="5.69784">
        <ele>834.20001220703</ele>
        <time>2026-07-05T07:05:42.000Z</time>
      </trkpt>
      <trkpt lat="44.96575" lon="5.69781">
        <ele>833.59997558594</ele>
        <time>2026-07-05T07:05:43.000Z</time>
      </trkpt>
      <trkpt lat="44.96576" lon="5.69778">
        <ele>832.79998779297</ele>
        <time>2026-07-05T07:05:44.000Z</time>
      </trkpt>
      <trkpt lat="44.96576" lon="5.69775">
        <ele>831.79998779297</ele>
        <time>2026-07-05T07:05:45.000Z</time>
      </trkpt>
      <trkpt lat="44.96576" lon="5.69772">
        <ele>831.59997558594</ele>
        <time>2026-07-05T07:05:46.000Z</time>
      </trkpt>
      <trkpt lat="44.96575" lon="5.69768">
        <ele>831</ele>
        <time>2026-07-05T07:05:47.000Z</time>
      </trkpt>
      <trkpt lat="44.96575" lon="5.69765">
        <ele>830.40002441406</ele>
        <time>2026-07-05T07:05:48.000Z</time>
      </trkpt>
      <trkpt lat="44.96575" lon="5.69762">
        <ele>830</ele>
        <time>2026-07-05T07:05:49.000Z</time>
      </trkpt>
      <trkpt lat="44.96574" lon="5.69759">
        <ele>829.40002441406</ele>
        <time>2026-07-05T07:05:50.000Z</time>
      </trkpt>
      <trkpt lat="44.96573" lon="5.69756">
        <ele>828.40002441406</ele>
        <time>2026-07-05T07:05:51.000Z</time>
      </trkpt>
      <trkpt lat="44.96573" lon="5.69753">
        <ele>828.20001220703</ele>
        <time>2026-07-05T07:05:52.000Z</time>
      </trkpt>
      <trkpt lat="44.96572" lon="5.6975">
        <ele>828</ele>
        <time>2026-07-05T07:05:53.000Z</time>
      </trkpt>
      <trkpt lat="44.96572" lon="5.69747">
        <ele>827</ele>
        <time>2026-07-05T07:05:54.000Z</time>
      </trkpt>
      <trkpt lat="44.96571" lon="5.69743">
        <ele>826</ele>
        <time>2026-07-05T07:05:55.000Z</time>
      </trkpt>
      <trkpt lat="44.96572" lon="5.6974">
        <ele>825.40002441406</ele>
        <time>2026-07-05T07:05:56.000Z</time>
      </trkpt>
      <trkpt lat="44.96572" lon="5.69735">
        <ele>825.40002441406</ele>
        <time>2026-07-05T07:05:57.000Z</time>
      </trkpt>
      <trkpt lat="44.96571" lon="5.69731">
        <ele>825.20001220703</ele>
        <time>2026-07-05T07:05:58.000Z</time>
      </trkpt>
      <trkpt lat="44.96571" lon="5.69727">
        <ele>825.20001220703</ele>
        <time>2026-07-05T07:05:59.000Z</time>
      </trkpt>
      <trkpt lat="44.96571" lon="5.69724">
        <ele>825.40002441406</ele>
        <time>2026-07-05T07:06:00.000Z</time>
      </trkpt>
      <trkpt lat="44.96571" lon="5.6972">
        <ele>825.59997558594</ele>
        <time>2026-07-05T07:06:01.000Z</time>
      </trkpt>
      <trkpt lat="44.96571" lon="5.69716">
        <ele>825.79998779297</ele>
        <time>2026-07-05T07:06:02.000Z</time>
      </trkpt>
      <trkpt lat="44.9657" lon="5.69712">
        <ele>825.79998779297</ele>
        <time>2026-07-05T07:06:03.000Z</time>
      </trkpt>
      <trkpt lat="44.9657" lon="5.69708">
        <ele>825.79998779297</ele>
        <time>2026-07-05T07:06:04.000Z</time>
      </trkpt>
      <trkpt lat="44.9657" lon="5.69704">
        <ele>825.59997558594</ele>
        <time>2026-07-05T07:06:05.000Z</time>
      </trkpt>
      <trkpt lat="44.9657" lon="5.697">
        <ele>825.59997558594</ele>
        <time>2026-07-05T07:06:06.000Z</time>
      </trkpt>
      <trkpt lat="44.96569" lon="5.69696">
        <ele>825.59997558594</ele>
        <time>2026-07-05T07:06:07.000Z</time>
      </trkpt>
      <trkpt lat="44.96568" lon="5.69693">
        <ele>825.59997558594</ele>
        <time>2026-07-05T07:06:08.000Z</time>
      </trkpt>
      <trkpt lat="44.96568" lon="5.69689">
        <ele>825.20001220703</ele>
        <time>2026-07-05T07:06:09.000Z</time>
      </trkpt>
      <trkpt lat="44.96568" lon="5.69686">
        <ele>824.79998779297</ele>
        <time>2026-07-05T07:06:10.000Z</time>
      </trkpt>
      <trkpt lat="44.96567" lon="5.69683">
        <ele>824.59997558594</ele>
        <time>2026-07-05T07:06:11.000Z</time>
      </trkpt>
      <trkpt lat="44.96566" lon="5.6968">
        <ele>824.40002441406</ele>
        <time>2026-07-05T07:06:12.000Z</time>
      </trkpt>
      <trkpt lat="44.96565" lon="5.69676">
        <ele>822.79998779297</ele>
        <time>2026-07-05T07:06:13.000Z</time>
      </trkpt>
      <trkpt lat="44.96564" lon="5.69673">
        <ele>821.79998779297</ele>
        <time>2026-07-05T07:06:14.000Z</time>
      </trkpt>
      <trkpt lat="44.96563" lon="5.6967">
        <ele>821.59997558594</ele>
        <time>2026-07-05T07:06:15.000Z</time>
      </trkpt>
      <trkpt lat="44.96563" lon="5.69666">
        <ele>821</ele>
        <time>2026-07-05T07:06:16.000Z</time>
      </trkpt>
      <trkpt lat="44.96562" lon="5.69663">
        <ele>820.20001220703</ele>
        <time>2026-07-05T07:06:17.000Z</time>
      </trkpt>
      <trkpt lat="44.96561" lon="5.6966">
        <ele>819.59997558594</ele>
        <time>2026-07-05T07:06:18.000Z</time>
      </trkpt>
      <trkpt lat="44.96561" lon="5.69657">
        <ele>818.79998779297</ele>
        <time>2026-07-05T07:06:19.000Z</time>
      </trkpt>
      <trkpt lat="44.9656" lon="5.69653">
        <ele>818.59997558594</ele>
        <time>2026-07-05T07:06:20.000Z</time>
      </trkpt>
      <trkpt lat="44.96559" lon="5.6965">
        <ele>818</ele>
        <time>2026-07-05T07:06:21.000Z</time>
      </trkpt>
      <trkpt lat="44.96558" lon="5.69647">
        <ele>817.40002441406</ele>
        <time>2026-07-05T07:06:22.000Z</time>
      </trkpt>
      <trkpt lat="44.96557" lon="5.69643">
        <ele>816.79998779297</ele>
        <time>2026-07-05T07:06:23.000Z</time>
      </trkpt>
      <trkpt lat="44.96556" lon="5.6964">
        <ele>815.79998779297</ele>
        <time>2026-07-05T07:06:24.000Z</time>
      </trkpt>
      <trkpt lat="44.96555" lon="5.69636">
        <ele>814.59997558594</ele>
        <time>2026-07-05T07:06:25.000Z</time>
      </trkpt>
      <trkpt lat="44.96555" lon="5.69633">
        <ele>813.79998779297</ele>
        <time>2026-07-05T07:06:26.000Z</time>
      </trkpt>
      <trkpt lat="44.96555" lon="5.69629">
        <ele>812.79998779297</ele>
        <time>2026-07-05T07:06:27.000Z</time>
      </trkpt>
      <trkpt lat="44.96555" lon="5.69627">
        <ele>811.79998779297</ele>
        <time>2026-07-05T07:06:28.000Z</time>
      </trkpt>
      <trkpt lat="44.96555" lon="5.69623">
        <ele>811.40002441406</ele>
        <time>2026-07-05T07:06:29.000Z</time>
      </trkpt>
      <trkpt lat="44.96554" lon="5.69619">
        <ele>811</ele>
        <time>2026-07-05T07:06:30.000Z</time>
      </trkpt>
      <trkpt lat="44.96555" lon="5.69614">
        <ele>810.40002441406</ele>
        <time>2026-07-05T07:06:31.000Z</time>
      </trkpt>
      <trkpt lat="44.96554" lon="5.69611">
        <ele>810</ele>
        <time>2026-07-05T07:06:32.000Z</time>
      </trkpt>
      <trkpt lat="44.96553" lon="5.69607">
        <ele>809.40002441406</ele>
        <time>2026-07-05T07:06:33.000Z</time>
      </trkpt>
      <trkpt lat="44.96552" lon="5.69604">
        <ele>808.79998779297</ele>
        <time>2026-07-05T07:06:34.000Z</time>
      </trkpt>
      <trkpt lat="44.96551" lon="5.69601">
        <ele>807.59997558594</ele>
        <time>2026-07-05T07:06:35.000Z</time>
      </trkpt>
      <trkpt lat="44.96551" lon="5.69598">
        <ele>806.20001220703</ele>
        <time>2026-07-05T07:06:36.000Z</time>
      </trkpt>
      <trkpt lat="44.9655" lon="5.69595">
        <ele>806.20001220703</ele>
        <time>2026-07-05T07:06:37.000Z</time>
      </trkpt>
      <trkpt lat="44.9655" lon="5.69591">
        <ele>806</ele>
        <time>2026-07-05T07:06:38.000Z</time>
      </trkpt>
      <trkpt lat="44.9655" lon="5.69588">
        <ele>806</ele>
        <time>2026-07-05T07:06:39.000Z</time>
      </trkpt>
      <trkpt lat="44.9655" lon="5.69585">
        <ele>805.79998779297</ele>
        <time>2026-07-05T07:06:40.000Z</time>
      </trkpt>
      <trkpt lat="44.96549" lon="5.69582">
        <ele>805.20001220703</ele>
        <time>2026-07-05T07:06:41.000Z</time>
      </trkpt>
      <trkpt lat="44.96549" lon="5.69579">
        <ele>804.59997558594</ele>
        <time>2026-07-05T07:06:42.000Z</time>
      </trkpt>
      <trkpt lat="44.96549" lon="5.69575">
        <ele>803.79998779297</ele>
        <time>2026-07-05T07:06:43.000Z</time>
      </trkpt>
      <trkpt lat="44.96548" lon="5.69571">
        <ele>803.20001220703</ele>
        <time>2026-07-05T07:06:44.000Z</time>
      </trkpt>
      <trkpt lat="44.96548" lon="5.69567">
        <ele>802.20001220703</ele>
        <time>2026-07-05T07:06:45.000Z</time>
      </trkpt>
      <trkpt lat="44.96547" lon="5.69563">
        <ele>801.20001220703</ele>
        <time>2026-07-05T07:06:46.000Z</time>
      </trkpt>
      <trkpt lat="44.96546" lon="5.69559">
        <ele>799.79998779297</ele>
        <time>2026-07-05T07:06:47.000Z</time>
      </trkpt>
      <trkpt lat="44.96546" lon="5.69555">
        <ele>798.79998779297</ele>
        <time>2026-07-05T07:06:48.000Z</time>
      </trkpt>
      <trkpt lat="44.96546" lon="5.69552">
        <ele>797.59997558594</ele>
        <time>2026-07-05T07:06:49.000Z</time>
      </trkpt>
      <trkpt lat="44.96546" lon="5.69548">
        <ele>796.59997558594</ele>
        <time>2026-07-05T07:06:50.000Z</time>
      </trkpt>
      <trkpt lat="44.96545" lon="5.69544">
        <ele>795.40002441406</ele>
        <time>2026-07-05T07:06:51.000Z</time>
      </trkpt>
      <trkpt lat="44.96545" lon="5.69541">
        <ele>794.40002441406</ele>
        <time>2026-07-05T07:06:52.000Z</time>
      </trkpt>
      <trkpt lat="44.96544" lon="5.69537">
        <ele>794.40002441406</ele>
        <time>2026-07-05T07:06:53.000Z</time>
      </trkpt>
      <trkpt lat="44.96544" lon="5.69533">
        <ele>794.20001220703</ele>
        <time>2026-07-05T07:06:54.000Z</time>
      </trkpt>
      <trkpt lat="44.96544" lon="5.6953">
        <ele>794</ele>
        <time>2026-07-05T07:06:55.000Z</time>
      </trkpt>
      <trkpt lat="44.96544" lon="5.69529">
        <ele>793.40002441406</ele>
        <time>2026-07-05T07:06:56.000Z</time>
      </trkpt>
      <trkpt lat="44.96542" lon="5.69528">
        <ele>793.20001220703</ele>
        <time>2026-07-05T07:06:57.000Z</time>
      </trkpt>
      <trkpt lat="44.9654" lon="5.69529">
        <ele>791.59997558594</ele>
        <time>2026-07-05T07:06:58.000Z</time>
      </trkpt>
      <trkpt lat="44.96538" lon="5.6953">
        <ele>791.40002441406</ele>
        <time>2026-07-05T07:06:59.000Z</time>
      </trkpt>
      <trkpt lat="44.96535" lon="5.69532">
        <ele>791.40002441406</ele>
        <time>2026-07-05T07:07:00.000Z</time>
      </trkpt>
      <trkpt lat="44.96533" lon="5.69534">
        <ele>791.20001220703</ele>
        <time>2026-07-05T07:07:01.000Z</time>
      </trkpt>
      <trkpt lat="44.96531" lon="5.69536">
        <ele>791.20001220703</ele>
        <time>2026-07-05T07:07:02.000Z</time>
      </trkpt>
      <trkpt lat="44.96528" lon="5.69538">
        <ele>791</ele>
        <time>2026-07-05T07:07:03.000Z</time>
      </trkpt>
      <trkpt lat="44.96526" lon="5.6954">
        <ele>791.20001220703</ele>
        <time>2026-07-05T07:07:04.000Z</time>
      </trkpt>
      <trkpt lat="44.96523" lon="5.69542">
        <ele>792</ele>
        <time>2026-07-05T07:07:05.000Z</time>
      </trkpt>
      <trkpt lat="44.96521" lon="5.69543">
        <ele>792.20001220703</ele>
        <time>2026-07-05T07:07:06.000Z</time>
      </trkpt>
      <trkpt lat="44.96519" lon="5.69545">
        <ele>792.40002441406</ele>
        <time>2026-07-05T07:07:07.000Z</time>
      </trkpt>
      <trkpt lat="44.96516" lon="5.69547">
        <ele>793</ele>
        <time>2026-07-05T07:07:08.000Z</time>
      </trkpt>
      <trkpt lat="44.96513" lon="5.69549">
        <ele>793.79998779297</ele>
        <time>2026-07-05T07:07:09.000Z</time>
      </trkpt>
      <trkpt lat="44.96511" lon="5.69551">
        <ele>794.40002441406</ele>
        <time>2026-07-05T07:07:10.000Z</time>
      </trkpt>
      <trkpt lat="44.96508" lon="5.69553">
        <ele>795.20001220703</ele>
        <time>2026-07-05T07:07:11.000Z</time>
      </trkpt>
      <trkpt lat="44.96505" lon="5.69556">
        <ele>795.20001220703</ele>
        <time>2026-07-05T07:07:12.000Z</time>
      </trkpt>
      <trkpt lat="44.96502" lon="5.69558">
        <ele>795.40002441406</ele>
        <time>2026-07-05T07:07:13.000Z</time>
      </trkpt>
      <trkpt lat="44.96499" lon="5.6956">
        <ele>795.59997558594</ele>
        <time>2026-07-05T07:07:14.000Z</time>
      </trkpt>
      <trkpt lat="44.96497" lon="5.69562">
        <ele>795.59997558594</ele>
        <time>2026-07-05T07:07:15.000Z</time>
      </trkpt>
      <trkpt lat="44.96495" lon="5.69564">
        <ele>795.40002441406</ele>
        <time>2026-07-05T07:07:16.000Z</time>
      </trkpt>
      <trkpt lat="44.96492" lon="5.69566">
        <ele>794.59997558594</ele>
        <time>2026-07-05T07:07:17.000Z</time>
      </trkpt>
      <trkpt lat="44.96489" lon="5.69567">
        <ele>794.59997558594</ele>
        <time>2026-07-05T07:07:18.000Z</time>
      </trkpt>
      <trkpt lat="44.96487" lon="5.69569">
        <ele>794.59997558594</ele>
        <time>2026-07-05T07:07:19.000Z</time>
      </trkpt>
      <trkpt lat="44.96484" lon="5.69571">
        <ele>794.40002441406</ele>
        <time>2026-07-05T07:07:20.000Z</time>
      </trkpt>
      <trkpt lat="44.96483" lon="5.69573">
        <ele>794.40002441406</ele>
        <time>2026-07-05T07:07:21.000Z</time>
      </trkpt>
      <trkpt lat="44.96481" lon="5.69577">
        <ele>794.40002441406</ele>
        <time>2026-07-05T07:07:22.000Z</time>
      </trkpt>
      <trkpt lat="44.9648" lon="5.6958">
        <ele>794.59997558594</ele>
        <time>2026-07-05T07:07:23.000Z</time>
      </trkpt>
      <trkpt lat="44.96479" lon="5.69583">
        <ele>794.59997558594</ele>
        <time>2026-07-05T07:07:24.000Z</time>
      </trkpt>
      <trkpt lat="44.96477" lon="5.69587">
        <ele>794.59997558594</ele>
        <time>2026-07-05T07:07:25.000Z</time>
      </trkpt>
      <trkpt lat="44.96476" lon="5.69589">
        <ele>794.79998779297</ele>
        <time>2026-07-05T07:07:26.000Z</time>
      </trkpt>
      <trkpt lat="44.96473" lon="5.69592">
        <ele>795</ele>
        <time>2026-07-05T07:07:27.000Z</time>
      </trkpt>
      <trkpt lat="44.96471" lon="5.69595">
        <ele>795</ele>
        <time>2026-07-05T07:07:28.000Z</time>
      </trkpt>
      <trkpt lat="44.96469" lon="5.69597">
        <ele>795.20001220703</ele>
        <time>2026-07-05T07:07:29.000Z</time>
      </trkpt>
      <trkpt lat="44.96468" lon="5.696">
        <ele>795.20001220703</ele>
        <time>2026-07-05T07:07:30.000Z</time>
      </trkpt>
      <trkpt lat="44.96466" lon="5.69604">
        <ele>795.20001220703</ele>
        <time>2026-07-05T07:07:31.000Z</time>
      </trkpt>
      <trkpt lat="44.96464" lon="5.69607">
        <ele>795.59997558594</ele>
        <time>2026-07-05T07:07:32.000Z</time>
      </trkpt>
      <trkpt lat="44.96463" lon="5.6961">
        <ele>795.59997558594</ele>
        <time>2026-07-05T07:07:33.000Z</time>
      </trkpt>
      <trkpt lat="44.96461" lon="5.69613">
        <ele>795.79998779297</ele>
        <time>2026-07-05T07:07:34.000Z</time>
      </trkpt>
      <trkpt lat="44.9646" lon="5.69615">
        <ele>795.79998779297</ele>
        <time>2026-07-05T07:07:35.000Z</time>
      </trkpt>
      <trkpt lat="44.96459" lon="5.69617">
        <ele>796</ele>
        <time>2026-07-05T07:07:36.000Z</time>
      </trkpt>
      <trkpt lat="44.96458" lon="5.6962">
        <ele>796.20001220703</ele>
        <time>2026-07-05T07:07:37.000Z</time>
      </trkpt>
      <trkpt lat="44.96456" lon="5.69622">
        <ele>796.40002441406</ele>
        <time>2026-07-05T07:07:38.000Z</time>
      </trkpt>
      <trkpt lat="44.96455" lon="5.69626">
        <ele>796.40002441406</ele>
        <time>2026-07-05T07:07:39.000Z</time>
      </trkpt>
      <trkpt lat="44.96453" lon="5.69629">
        <ele>797</ele>
        <time>2026-07-05T07:07:40.000Z</time>
      </trkpt>
      <trkpt lat="44.96452" lon="5.69631">
        <ele>797</ele>
        <time>2026-07-05T07:07:41.000Z</time>
      </trkpt>
      <trkpt lat="44.9645" lon="5.69635">
        <ele>797</ele>
        <time>2026-07-05T07:07:42.000Z</time>
      </trkpt>
      <trkpt lat="44.96449" lon="5.69637">
        <ele>797.20001220703</ele>
        <time>2026-07-05T07:07:43.000Z</time>
      </trkpt>
      <trkpt lat="44.96447" lon="5.69641">
        <ele>797.40002441406</ele>
        <time>2026-07-05T07:07:44.000Z</time>
      </trkpt>
      <trkpt lat="44.96446" lon="5.69644">
        <ele>797.40002441406</ele>
        <time>2026-07-05T07:07:45.000Z</time>
      </trkpt>
      <trkpt lat="44.96444" lon="5.69647">
        <ele>797.40002441406</ele>
        <time>2026-07-05T07:07:46.000Z</time>
      </trkpt>
      <trkpt lat="44.96443" lon="5.6965">
        <ele>797.40002441406</ele>
        <time>2026-07-05T07:07:47.000Z</time>
      </trkpt>
      <trkpt lat="44.96442" lon="5.69653">
        <ele>797.20001220703</ele>
        <time>2026-07-05T07:07:48.000Z</time>
      </trkpt>
      <trkpt lat="44.96441" lon="5.69657">
        <ele>797.20001220703</ele>
        <time>2026-07-05T07:07:49.000Z</time>
      </trkpt>
      <trkpt lat="44.9644" lon="5.6966">
        <ele>796.40002441406</ele>
        <time>2026-07-05T07:07:50.000Z</time>
      </trkpt>
      <trkpt lat="44.9644" lon="5.69664">
        <ele>795</ele>
        <time>2026-07-05T07:07:51.000Z</time>
      </trkpt>
      <trkpt lat="44.96439" lon="5.69668">
        <ele>793.79998779297</ele>
        <time>2026-07-05T07:07:52.000Z</time>
      </trkpt>
      <trkpt lat="44.96439" lon="5.69672">
        <ele>793</ele>
        <time>2026-07-05T07:07:53.000Z</time>
      </trkpt>
      <trkpt lat="44.9644" lon="5.69676">
        <ele>792.40002441406</ele>
        <time>2026-07-05T07:07:54.000Z</time>
      </trkpt>
      <trkpt lat="44.96441" lon="5.6968">
        <ele>792.20001220703</ele>
        <time>2026-07-05T07:07:55.000Z</time>
      </trkpt>
      <trkpt lat="44.96442" lon="5.69683">
        <ele>791.79998779297</ele>
        <time>2026-07-05T07:07:56.000Z</time>
      </trkpt>
      <trkpt lat="44.96444" lon="5.69687">
        <ele>791.79998779297</ele>
        <time>2026-07-05T07:07:57.000Z</time>
      </trkpt>
      <trkpt lat="44.96445" lon="5.6969">
        <ele>791.79998779297</ele>
        <time>2026-07-05T07:07:58.000Z</time>
      </trkpt>
      <trkpt lat="44.96447" lon="5.69693">
        <ele>792</ele>
        <time>2026-07-05T07:07:59.000Z</time>
      </trkpt>
      <trkpt lat="44.96448" lon="5.69697">
        <ele>792</ele>
        <time>2026-07-05T07:08:00.000Z</time>
      </trkpt>
      <trkpt lat="44.96449" lon="5.697">
        <ele>792</ele>
        <time>2026-07-05T07:08:01.000Z</time>
      </trkpt>
      <trkpt lat="44.96451" lon="5.69703">
        <ele>792</ele>
        <time>2026-07-05T07:08:02.000Z</time>
      </trkpt>
      <trkpt lat="44.96452" lon="5.69707">
        <ele>792</ele>
        <time>2026-07-05T07:08:03.000Z</time>
      </trkpt>
      <trkpt lat="44.96453" lon="5.69711">
        <ele>792</ele>
        <time>2026-07-05T07:08:04.000Z</time>
      </trkpt>
      <trkpt lat="44.96454" lon="5.69715">
        <ele>792</ele>
        <time>2026-07-05T07:08:05.000Z</time>
      </trkpt>
      <trkpt lat="44.96455" lon="5.69719">
        <ele>791.79998779297</ele>
        <time>2026-07-05T07:08:06.000Z</time>
      </trkpt>
      <trkpt lat="44.96455" lon="5.69723">
        <ele>791.79998779297</ele>
        <time>2026-07-05T07:08:07.000Z</time>
      </trkpt>
      <trkpt lat="44.96455" lon="5.69727">
        <ele>792</ele>
        <time>2026-07-05T07:08:08.000Z</time>
      </trkpt>
      <trkpt lat="44.96456" lon="5.69731">
        <ele>792</ele>
        <time>2026-07-05T07:08:09.000Z</time>
      </trkpt>
      <trkpt lat="44.96456" lon="5.69734">
        <ele>792</ele>
        <time>2026-07-05T07:08:10.000Z</time>
      </trkpt>
      <trkpt lat="44.96456" lon="5.69738">
        <ele>792.20001220703</ele>
        <time>2026-07-05T07:08:11.000Z</time>
      </trkpt>
      <trkpt lat="44.96457" lon="5.69741">
        <ele>792.40002441406</ele>
        <time>2026-07-05T07:08:12.000Z</time>
      </trkpt>
      <trkpt lat="44.96457" lon="5.69745">
        <ele>792.40002441406</ele>
        <time>2026-07-05T07:08:13.000Z</time>
      </trkpt>
      <trkpt lat="44.96458" lon="5.69748">
        <ele>792.40002441406</ele>
        <time>2026-07-05T07:08:14.000Z</time>
      </trkpt>
      <trkpt lat="44.96458" lon="5.69752">
        <ele>792.20001220703</ele>
        <time>2026-07-05T07:08:15.000Z</time>
      </trkpt>
      <trkpt lat="44.96458" lon="5.69756">
        <ele>792.20001220703</ele>
        <time>2026-07-05T07:08:16.000Z</time>
      </trkpt>
      <trkpt lat="44.96458" lon="5.69759">
        <ele>792.40002441406</ele>
        <time>2026-07-05T07:08:17.000Z</time>
      </trkpt>
      <trkpt lat="44.96458" lon="5.69764">
        <ele>792.40002441406</ele>
        <time>2026-07-05T07:08:18.000Z</time>
      </trkpt>
      <trkpt lat="44.96458" lon="5.69767">
        <ele>792.20001220703</ele>
        <time>2026-07-05T07:08:19.000Z</time>
      </trkpt>
      <trkpt lat="44.96458" lon="5.69772">
        <ele>792.20001220703</ele>
        <time>2026-07-05T07:08:20.000Z</time>
      </trkpt>
      <trkpt lat="44.96459" lon="5.69776">
        <ele>792.20001220703</ele>
        <time>2026-07-05T07:08:21.000Z</time>
      </trkpt>
      <trkpt lat="44.96459" lon="5.69779">
        <ele>792.20001220703</ele>
        <time>2026-07-05T07:08:22.000Z</time>
      </trkpt>
      <trkpt lat="44.9646" lon="5.69783">
        <ele>792.20001220703</ele>
        <time>2026-07-05T07:08:23.000Z</time>
      </trkpt>
      <trkpt lat="44.96461" lon="5.69787">
        <ele>792.20001220703</ele>
        <time>2026-07-05T07:08:24.000Z</time>
      </trkpt>
      <trkpt lat="44.96462" lon="5.69791">
        <ele>792</ele>
        <time>2026-07-05T07:08:25.000Z</time>
      </trkpt>
      <trkpt lat="44.96463" lon="5.69795">
        <ele>792</ele>
        <time>2026-07-05T07:08:26.000Z</time>
      </trkpt>
      <trkpt lat="44.96464" lon="5.69798">
        <ele>791.79998779297</ele>
        <time>2026-07-05T07:08:27.000Z</time>
      </trkpt>
      <trkpt lat="44.96465" lon="5.69802">
        <ele>791.79998779297</ele>
        <time>2026-07-05T07:08:28.000Z</time>
      </trkpt>
      <trkpt lat="44.96465" lon="5.69806">
        <ele>791.79998779297</ele>
        <time>2026-07-05T07:08:29.000Z</time>
      </trkpt>
      <trkpt lat="44.96466" lon="5.6981">
        <ele>791.79998779297</ele>
        <time>2026-07-05T07:08:30.000Z</time>
      </trkpt>
      <trkpt lat="44.96466" lon="5.69814">
        <ele>791.79998779297</ele>
        <time>2026-07-05T07:08:31.000Z</time>
      </trkpt>
      <trkpt lat="44.96467" lon="5.69817">
        <ele>791.79998779297</ele>
        <time>2026-07-05T07:08:32.000Z</time>
      </trkpt>
      <trkpt lat="44.96467" lon="5.69821">
        <ele>791.59997558594</ele>
        <time>2026-07-05T07:08:33.000Z</time>
      </trkpt>
      <trkpt lat="44.96467" lon="5.69825">
        <ele>791.59997558594</ele>
        <time>2026-07-05T07:08:34.000Z</time>
      </trkpt>
      <trkpt lat="44.96467" lon="5.69829">
        <ele>791.59997558594</ele>
        <time>2026-07-05T07:08:35.000Z</time>
      </trkpt>
      <trkpt lat="44.96467" lon="5.69833">
        <ele>791.79998779297</ele>
        <time>2026-07-05T07:08:36.000Z</time>
      </trkpt>
      <trkpt lat="44.96466" lon="5.69837">
        <ele>791.79998779297</ele>
        <time>2026-07-05T07:08:37.000Z</time>
      </trkpt>
      <trkpt lat="44.96464" lon="5.69841">
        <ele>791.79998779297</ele>
        <time>2026-07-05T07:08:38.000Z</time>
      </trkpt>
      <trkpt lat="44.96463" lon="5.69846">
        <ele>791.79998779297</ele>
        <time>2026-07-05T07:08:39.000Z</time>
      </trkpt>
      <trkpt lat="44.96463" lon="5.69849">
        <ele>791.79998779297</ele>
        <time>2026-07-05T07:08:40.000Z</time>
      </trkpt>
      <trkpt lat="44.96462" lon="5.69854">
        <ele>791.59997558594</ele>
        <time>2026-07-05T07:08:41.000Z</time>
      </trkpt>
      <trkpt lat="44.96461" lon="5.69858">
        <ele>791.59997558594</ele>
        <time>2026-07-05T07:08:42.000Z</time>
      </trkpt>
      <trkpt lat="44.9646" lon="5.69862">
        <ele>791.59997558594</ele>
        <time>2026-07-05T07:08:43.000Z</time>
      </trkpt>
      <trkpt lat="44.96458" lon="5.69866">
        <ele>791.59997558594</ele>
        <time>2026-07-05T07:08:44.000Z</time>
      </trkpt>
      <trkpt lat="44.96457" lon="5.6987">
        <ele>791.59997558594</ele>
        <time>2026-07-05T07:08:45.000Z</time>
      </trkpt>
      <trkpt lat="44.96456" lon="5.69874">
        <ele>791.59997558594</ele>
        <time>2026-07-05T07:08:46.000Z</time>
      </trkpt>
      <trkpt lat="44.96456" lon="5.69878">
        <ele>791.40002441406</ele>
        <time>2026-07-05T07:08:47.000Z</time>
      </trkpt>
      <trkpt lat="44.96455" lon="5.69881">
        <ele>791.40002441406</ele>
        <time>2026-07-05T07:08:48.000Z</time>
      </trkpt>
      <trkpt lat="44.96454" lon="5.69886">
        <ele>791.20001220703</ele>
        <time>2026-07-05T07:08:49.000Z</time>
      </trkpt>
      <trkpt lat="44.96453" lon="5.69889">
        <ele>791.20001220703</ele>
        <time>2026-07-05T07:08:50.000Z</time>
      </trkpt>
      <trkpt lat="44.96452" lon="5.69893">
        <ele>791.20001220703</ele>
        <time>2026-07-05T07:08:51.000Z</time>
      </trkpt>
      <trkpt lat="44.96451" lon="5.69896">
        <ele>791.20001220703</ele>
        <time>2026-07-05T07:08:52.000Z</time>
      </trkpt>
      <trkpt lat="44.9645" lon="5.699">
        <ele>791.20001220703</ele>
        <time>2026-07-05T07:08:53.000Z</time>
      </trkpt>
      <trkpt lat="44.96449" lon="5.69905">
        <ele>791.20001220703</ele>
        <time>2026-07-05T07:08:54.000Z</time>
      </trkpt>
      <trkpt lat="44.96447" lon="5.69908">
        <ele>791.20001220703</ele>
        <time>2026-07-05T07:08:55.000Z</time>
      </trkpt>
      <trkpt lat="44.96446" lon="5.69912">
        <ele>791.20001220703</ele>
        <time>2026-07-05T07:08:56.000Z</time>
      </trkpt>
      <trkpt lat="44.96445" lon="5.69915">
        <ele>791.20001220703</ele>
        <time>2026-07-05T07:08:57.000Z</time>
      </trkpt>
      <trkpt lat="44.96444" lon="5.69919">
        <ele>791.20001220703</ele>
        <time>2026-07-05T07:08:58.000Z</time>
      </trkpt>
      <trkpt lat="44.96443" lon="5.69923">
        <ele>791.20001220703</ele>
        <time>2026-07-05T07:08:59.000Z</time>
      </trkpt>
      <trkpt lat="44.96442" lon="5.69926">
        <ele>791</ele>
        <time>2026-07-05T07:09:00.000Z</time>
      </trkpt>
      <trkpt lat="44.96441" lon="5.69929">
        <ele>791</ele>
        <time>2026-07-05T07:09:01.000Z</time>
      </trkpt>
      <trkpt lat="44.9644" lon="5.69933">
        <ele>791</ele>
        <time>2026-07-05T07:09:02.000Z</time>
      </trkpt>
      <trkpt lat="44.96439" lon="5.69936">
        <ele>791.20001220703</ele>
        <time>2026-07-05T07:09:03.000Z</time>
      </trkpt>
      <trkpt lat="44.96438" lon="5.6994">
        <ele>791.20001220703</ele>
        <time>2026-07-05T07:09:04.000Z</time>
      </trkpt>
      <trkpt lat="44.96437" lon="5.69942">
        <ele>791.59997558594</ele>
        <time>2026-07-05T07:09:05.000Z</time>
      </trkpt>
      <trkpt lat="44.96436" lon="5.69946">
        <ele>791.59997558594</ele>
        <time>2026-07-05T07:09:06.000Z</time>
      </trkpt>
      <trkpt lat="44.96434" lon="5.69949">
        <ele>791.79998779297</ele>
        <time>2026-07-05T07:09:07.000Z</time>
      </trkpt>
      <trkpt lat="44.96433" lon="5.69952">
        <ele>791.79998779297</ele>
        <time>2026-07-05T07:09:08.000Z</time>
      </trkpt>
      <trkpt lat="44.96432" lon="5.69955">
        <ele>791.79998779297</ele>
        <time>2026-07-05T07:09:09.000Z</time>
      </trkpt>
      <trkpt lat="44.96431" lon="5.69958">
        <ele>791.79998779297</ele>
        <time>2026-07-05T07:09:10.000Z</time>
      </trkpt>
      <trkpt lat="44.9643" lon="5.69961">
        <ele>792</ele>
        <time>2026-07-05T07:09:11.000Z</time>
      </trkpt>
      <trkpt lat="44.96429" lon="5.69965">
        <ele>792.20001220703</ele>
        <time>2026-07-05T07:09:12.000Z</time>
      </trkpt>
      <trkpt lat="44.96427" lon="5.69967">
        <ele>792.20001220703</ele>
        <time>2026-07-05T07:09:13.000Z</time>
      </trkpt>
      <trkpt lat="44.96426" lon="5.69971">
        <ele>792.40002441406</ele>
        <time>2026-07-05T07:09:14.000Z</time>
      </trkpt>
      <trkpt lat="44.96425" lon="5.69973">
        <ele>792.40002441406</ele>
        <time>2026-07-05T07:09:15.000Z</time>
      </trkpt>
      <trkpt lat="44.96423" lon="5.69976">
        <ele>792.59997558594</ele>
        <time>2026-07-05T07:09:16.000Z</time>
      </trkpt>
      <trkpt lat="44.96422" lon="5.69979">
        <ele>792.59997558594</ele>
        <time>2026-07-05T07:09:17.000Z</time>
      </trkpt>
      <trkpt lat="44.96421" lon="5.69982">
        <ele>792.79998779297</ele>
        <time>2026-07-05T07:09:18.000Z</time>
      </trkpt>
      <trkpt lat="44.96419" lon="5.69985">
        <ele>793</ele>
        <time>2026-07-05T07:09:19.000Z</time>
      </trkpt>
      <trkpt lat="44.96418" lon="5.69988">
        <ele>793</ele>
        <time>2026-07-05T07:09:20.000Z</time>
      </trkpt>
      <trkpt lat="44.96417" lon="5.69991">
        <ele>793.20001220703</ele>
        <time>2026-07-05T07:09:21.000Z</time>
      </trkpt>
      <trkpt lat="44.96415" lon="5.69995">
        <ele>793.20001220703</ele>
        <time>2026-07-05T07:09:22.000Z</time>
      </trkpt>
      <trkpt lat="44.96414" lon="5.69998">
        <ele>793.40002441406</ele>
        <time>2026-07-05T07:09:23.000Z</time>
      </trkpt>
      <trkpt lat="44.96413" lon="5.70001">
        <ele>793.59997558594</ele>
        <time>2026-07-05T07:09:24.000Z</time>
      </trkpt>
      <trkpt lat="44.96412" lon="5.70004">
        <ele>793.59997558594</ele>
        <time>2026-07-05T07:09:25.000Z</time>
      </trkpt>
      <trkpt lat="44.9641" lon="5.70008">
        <ele>793.59997558594</ele>
        <time>2026-07-05T07:09:26.000Z</time>
      </trkpt>
      <trkpt lat="44.96409" lon="5.70012">
        <ele>793.59997558594</ele>
        <time>2026-07-05T07:09:27.000Z</time>
      </trkpt>
      <trkpt lat="44.96408" lon="5.70015">
        <ele>793.59997558594</ele>
        <time>2026-07-05T07:09:28.000Z</time>
      </trkpt>
      <trkpt lat="44.96406" lon="5.70019">
        <ele>793.59997558594</ele>
        <time>2026-07-05T07:09:29.000Z</time>
      </trkpt>
      <trkpt lat="44.96404" lon="5.70021">
        <ele>793.59997558594</ele>
        <time>2026-07-05T07:09:30.000Z</time>
      </trkpt>
      <trkpt lat="44.96402" lon="5.7002">
        <ele>793.59997558594</ele>
        <time>2026-07-05T07:09:31.000Z</time>
      </trkpt>
      <trkpt lat="44.96401" lon="5.70017">
        <ele>793.40002441406</ele>
        <time>2026-07-05T07:09:32.000Z</time>
      </trkpt>
      <trkpt lat="44.96401" lon="5.70012">
        <ele>793.20001220703</ele>
        <time>2026-07-05T07:09:33.000Z</time>
      </trkpt>
      <trkpt lat="44.96401" lon="5.70008">
        <ele>793</ele>
        <time>2026-07-05T07:09:34.000Z</time>
      </trkpt>
      <trkpt lat="44.96399" lon="5.70004">
        <ele>792.59997558594</ele>
        <time>2026-07-05T07:09:35.000Z</time>
      </trkpt>
      <trkpt lat="44.96397" lon="5.70001">
        <ele>792.40002441406</ele>
        <time>2026-07-05T07:09:36.000Z</time>
      </trkpt>
      <trkpt lat="44.96395" lon="5.69998">
        <ele>791.79998779297</ele>
        <time>2026-07-05T07:09:37.000Z</time>
      </trkpt>
      <trkpt lat="44.96392" lon="5.69997">
        <ele>791.59997558594</ele>
        <time>2026-07-05T07:09:38.000Z</time>
      </trkpt>
      <trkpt lat="44.96389" lon="5.69997">
        <ele>791</ele>
        <time>2026-07-05T07:09:39.000Z</time>
      </trkpt>
      <trkpt lat="44.96386" lon="5.69997">
        <ele>790.79998779297</ele>
        <time>2026-07-05T07:09:40.000Z</time>
      </trkpt>
      <trkpt lat="44.96383" lon="5.69998">
        <ele>790.59997558594</ele>
        <time>2026-07-05T07:09:41.000Z</time>
      </trkpt>
      <trkpt lat="44.9638" lon="5.69999">
        <ele>790.20001220703</ele>
        <time>2026-07-05T07:09:42.000Z</time>
      </trkpt>
      <trkpt lat="44.96377" lon="5.7">
        <ele>790.20001220703</ele>
        <time>2026-07-05T07:09:43.000Z</time>
      </trkpt>
      <trkpt lat="44.96374" lon="5.70002">
        <ele>790</ele>
        <time>2026-07-05T07:09:44.000Z</time>
      </trkpt>
      <trkpt lat="44.96371" lon="5.70005">
        <ele>789.79998779297</ele>
        <time>2026-07-05T07:09:45.000Z</time>
      </trkpt>
      <trkpt lat="44.96369" lon="5.70008">
        <ele>789.59997558594</ele>
        <time>2026-07-05T07:09:46.000Z</time>
      </trkpt>
      <trkpt lat="44.96366" lon="5.7001">
        <ele>789.40002441406</ele>
        <time>2026-07-05T07:09:47.000Z</time>
      </trkpt>
      <trkpt lat="44.96364" lon="5.70013">
        <ele>789.20001220703</ele>
        <time>2026-07-05T07:09:48.000Z</time>
      </trkpt>
      <trkpt lat="44.96362" lon="5.70016">
        <ele>789.20001220703</ele>
        <time>2026-07-05T07:09:49.000Z</time>
      </trkpt>
      <trkpt lat="44.9636" lon="5.7002">
        <ele>789</ele>
        <time>2026-07-05T07:09:50.000Z</time>
      </trkpt>
      <trkpt lat="44.96358" lon="5.70023">
        <ele>789</ele>
        <time>2026-07-05T07:09:51.000Z</time>
      </trkpt>
      <trkpt lat="44.96357" lon="5.70027">
        <ele>788.59997558594</ele>
        <time>2026-07-05T07:09:52.000Z</time>
      </trkpt>
      <trkpt lat="44.96355" lon="5.7003">
        <ele>788.59997558594</ele>
        <time>2026-07-05T07:09:53.000Z</time>
      </trkpt>
      <trkpt lat="44.96354" lon="5.70033">
        <ele>788.40002441406</ele>
        <time>2026-07-05T07:09:54.000Z</time>
      </trkpt>
      <trkpt lat="44.96352" lon="5.70037">
        <ele>788.40002441406</ele>
        <time>2026-07-05T07:09:55.000Z</time>
      </trkpt>
      <trkpt lat="44.96351" lon="5.70041">
        <ele>788.20001220703</ele>
        <time>2026-07-05T07:09:56.000Z</time>
      </trkpt>
      <trkpt lat="44.96349" lon="5.70045">
        <ele>788</ele>
        <time>2026-07-05T07:09:57.000Z</time>
      </trkpt>
      <trkpt lat="44.96348" lon="5.70048">
        <ele>787.79998779297</ele>
        <time>2026-07-05T07:09:58.000Z</time>
      </trkpt>
      <trkpt lat="44.96346" lon="5.70052">
        <ele>787.59997558594</ele>
        <time>2026-07-05T07:09:59.000Z</time>
      </trkpt>
      <trkpt lat="44.96345" lon="5.70056">
        <ele>787.40002441406</ele>
        <time>2026-07-05T07:10:00.000Z</time>
      </trkpt>
      <trkpt lat="44.96344" lon="5.7006">
        <ele>787.20001220703</ele>
        <time>2026-07-05T07:10:01.000Z</time>
      </trkpt>
      <trkpt lat="44.96343" lon="5.70063">
        <ele>787</ele>
        <time>2026-07-05T07:10:02.000Z</time>
      </trkpt>
      <trkpt lat="44.96341" lon="5.70067">
        <ele>786.79998779297</ele>
        <time>2026-07-05T07:10:03.000Z</time>
      </trkpt>
      <trkpt lat="44.96339" lon="5.7007">
        <ele>786.79998779297</ele>
        <time>2026-07-05T07:10:04.000Z</time>
      </trkpt>
      <trkpt lat="44.96338" lon="5.70073">
        <ele>786.59997558594</ele>
        <time>2026-07-05T07:10:05.000Z</time>
      </trkpt>
      <trkpt lat="44.96336" lon="5.70076">
        <ele>786.59997558594</ele>
        <time>2026-07-05T07:10:06.000Z</time>
      </trkpt>
      <trkpt lat="44.96334" lon="5.7008">
        <ele>786.40002441406</ele>
        <time>2026-07-05T07:10:07.000Z</time>
      </trkpt>
      <trkpt lat="44.96332" lon="5.70083">
        <ele>786.20001220703</ele>
        <time>2026-07-05T07:10:08.000Z</time>
      </trkpt>
      <trkpt lat="44.9633" lon="5.70086">
        <ele>786</ele>
        <time>2026-07-05T07:10:09.000Z</time>
      </trkpt>
      <trkpt lat="44.96328" lon="5.70089">
        <ele>785.79998779297</ele>
        <time>2026-07-05T07:10:10.000Z</time>
      </trkpt>
      <trkpt lat="44.96326" lon="5.70091">
        <ele>785.59997558594</ele>
        <time>2026-07-05T07:10:11.000Z</time>
      </trkpt>
      <trkpt lat="44.96323" lon="5.70093">
        <ele>785.40002441406</ele>
        <time>2026-07-05T07:10:12.000Z</time>
      </trkpt>
      <trkpt lat="44.96321" lon="5.70096">
        <ele>785.20001220703</ele>
        <time>2026-07-05T07:10:13.000Z</time>
      </trkpt>
      <trkpt lat="44.96318" lon="5.70098">
        <ele>785</ele>
        <time>2026-07-05T07:10:14.000Z</time>
      </trkpt>
      <trkpt lat="44.96316" lon="5.70101">
        <ele>784.79998779297</ele>
        <time>2026-07-05T07:10:15.000Z</time>
      </trkpt>
      <trkpt lat="44.96314" lon="5.70103">
        <ele>784.40002441406</ele>
        <time>2026-07-05T07:10:16.000Z</time>
      </trkpt>
      <trkpt lat="44.96311" lon="5.70106">
        <ele>784.20001220703</ele>
        <time>2026-07-05T07:10:17.000Z</time>
      </trkpt>
      <trkpt lat="44.96309" lon="5.70108">
        <ele>783.79998779297</ele>
        <time>2026-07-05T07:10:18.000Z</time>
      </trkpt>
      <trkpt lat="44.96306" lon="5.70111">
        <ele>783.59997558594</ele>
        <time>2026-07-05T07:10:19.000Z</time>
      </trkpt>
      <trkpt lat="44.96304" lon="5.70114">
        <ele>783.40002441406</ele>
        <time>2026-07-05T07:10:20.000Z</time>
      </trkpt>
      <trkpt lat="44.96301" lon="5.70116">
        <ele>783.20001220703</ele>
        <time>2026-07-05T07:10:21.000Z</time>
      </trkpt>
      <trkpt lat="44.96298" lon="5.70118">
        <ele>782.79998779297</ele>
        <time>2026-07-05T07:10:22.000Z</time>
      </trkpt>
      <trkpt lat="44.96295" lon="5.7012">
        <ele>782.59997558594</ele>
        <time>2026-07-05T07:10:23.000Z</time>
      </trkpt>
      <trkpt lat="44.96293" lon="5.70122">
        <ele>782.20001220703</ele>
        <time>2026-07-05T07:10:24.000Z</time>
      </trkpt>
      <trkpt lat="44.9629" lon="5.70124">
        <ele>781.79998779297</ele>
        <time>2026-07-05T07:10:25.000Z</time>
      </trkpt>
      <trkpt lat="44.96288" lon="5.70127">
        <ele>781.59997558594</ele>
        <time>2026-07-05T07:10:26.000Z</time>
      </trkpt>
      <trkpt lat="44.96285" lon="5.70129">
        <ele>781.40002441406</ele>
        <time>2026-07-05T07:10:27.000Z</time>
      </trkpt>
      <trkpt lat="44.96283" lon="5.70131">
        <ele>781.20001220703</ele>
        <time>2026-07-05T07:10:28.000Z</time>
      </trkpt>
      <trkpt lat="44.9628" lon="5.70133">
        <ele>781</ele>
        <time>2026-07-05T07:10:29.000Z</time>
      </trkpt>
      <trkpt lat="44.96278" lon="5.70135">
        <ele>780.79998779297</ele>
        <time>2026-07-05T07:10:30.000Z</time>
      </trkpt>
      <trkpt lat="44.96275" lon="5.70137">
        <ele>780.59997558594</ele>
        <time>2026-07-05T07:10:31.000Z</time>
      </trkpt>
      <trkpt lat="44.96272" lon="5.70139">
        <ele>780.40002441406</ele>
        <time>2026-07-05T07:10:32.000Z</time>
      </trkpt>
      <trkpt lat="44.9627" lon="5.70141">
        <ele>780.20001220703</ele>
        <time>2026-07-05T07:10:33.000Z</time>
      </trkpt>
      <trkpt lat="44.96267" lon="5.70142">
        <ele>780</ele>
        <time>2026-07-05T07:10:34.000Z</time>
      </trkpt>
      <trkpt lat="44.96264" lon="5.70144">
        <ele>779.59997558594</ele>
        <time>2026-07-05T07:10:35.000Z</time>
      </trkpt>
      <trkpt lat="44.96261" lon="5.70147">
        <ele>779.40002441406</ele>
        <time>2026-07-05T07:10:36.000Z</time>
      </trkpt>
      <trkpt lat="44.96258" lon="5.70149">
        <ele>779.20001220703</ele>
        <time>2026-07-05T07:10:37.000Z</time>
      </trkpt>
      <trkpt lat="44.96255" lon="5.70151">
        <ele>779</ele>
        <time>2026-07-05T07:10:38.000Z</time>
      </trkpt>
      <trkpt lat="44.96253" lon="5.70152">
        <ele>778.59997558594</ele>
        <time>2026-07-05T07:10:39.000Z</time>
      </trkpt>
      <trkpt lat="44.9625" lon="5.70154">
        <ele>778.20001220703</ele>
        <time>2026-07-05T07:10:40.000Z</time>
      </trkpt>
      <trkpt lat="44.96248" lon="5.70157">
        <ele>778</ele>
        <time>2026-07-05T07:10:41.000Z</time>
      </trkpt>
      <trkpt lat="44.96245" lon="5.70158">
        <ele>777.79998779297</ele>
        <time>2026-07-05T07:10:42.000Z</time>
      </trkpt>
      <trkpt lat="44.96242" lon="5.7016">
        <ele>777.79998779297</ele>
        <time>2026-07-05T07:10:43.000Z</time>
      </trkpt>
      <trkpt lat="44.96239" lon="5.70161">
        <ele>777.40002441406</ele>
        <time>2026-07-05T07:10:44.000Z</time>
      </trkpt>
      <trkpt lat="44.96237" lon="5.70163">
        <ele>777</ele>
        <time>2026-07-05T07:10:45.000Z</time>
      </trkpt>
      <trkpt lat="44.96233" lon="5.70164">
        <ele>776.79998779297</ele>
        <time>2026-07-05T07:10:46.000Z</time>
      </trkpt>
      <trkpt lat="44.96231" lon="5.70165">
        <ele>776.59997558594</ele>
        <time>2026-07-05T07:10:47.000Z</time>
      </trkpt>
      <trkpt lat="44.96227" lon="5.70166">
        <ele>776.40002441406</ele>
        <time>2026-07-05T07:10:48.000Z</time>
      </trkpt>
      <trkpt lat="44.96224" lon="5.70167">
        <ele>776.40002441406</ele>
        <time>2026-07-05T07:10:49.000Z</time>
      </trkpt>
      <trkpt lat="44.96221" lon="5.70168">
        <ele>776</ele>
        <time>2026-07-05T07:10:50.000Z</time>
      </trkpt>
      <trkpt lat="44.96218" lon="5.70169">
        <ele>775.79998779297</ele>
        <time>2026-07-05T07:10:51.000Z</time>
      </trkpt>
      <trkpt lat="44.96215" lon="5.70169">
        <ele>775.59997558594</ele>
        <time>2026-07-05T07:10:52.000Z</time>
      </trkpt>
      <trkpt lat="44.96212" lon="5.7017">
        <ele>775.40002441406</ele>
        <time>2026-07-05T07:10:53.000Z</time>
      </trkpt>
      <trkpt lat="44.96208" lon="5.70171">
        <ele>775.20001220703</ele>
        <time>2026-07-05T07:10:54.000Z</time>
      </trkpt>
      <trkpt lat="44.96206" lon="5.70171">
        <ele>775</ele>
        <time>2026-07-05T07:10:55.000Z</time>
      </trkpt>
      <trkpt lat="44.96202" lon="5.70172">
        <ele>774.59997558594</ele>
        <time>2026-07-05T07:10:56.000Z</time>
      </trkpt>
      <trkpt lat="44.96199" lon="5.70174">
        <ele>774.59997558594</ele>
        <time>2026-07-05T07:10:57.000Z</time>
      </trkpt>
      <trkpt lat="44.96197" lon="5.70175">
        <ele>774.20001220703</ele>
        <time>2026-07-05T07:10:58.000Z</time>
      </trkpt>
      <trkpt lat="44.96194" lon="5.70177">
        <ele>774</ele>
        <time>2026-07-05T07:10:59.000Z</time>
      </trkpt>
      <trkpt lat="44.96191" lon="5.70179">
        <ele>773.59997558594</ele>
        <time>2026-07-05T07:11:00.000Z</time>
      </trkpt>
      <trkpt lat="44.96188" lon="5.7018">
        <ele>773.40002441406</ele>
        <time>2026-07-05T07:11:01.000Z</time>
      </trkpt>
      <trkpt lat="44.96185" lon="5.70182">
        <ele>773</ele>
        <time>2026-07-05T07:11:02.000Z</time>
      </trkpt>
      <trkpt lat="44.96182" lon="5.70184">
        <ele>772.79998779297</ele>
        <time>2026-07-05T07:11:03.000Z</time>
      </trkpt>
      <trkpt lat="44.96179" lon="5.70185">
        <ele>772.40002441406</ele>
        <time>2026-07-05T07:11:04.000Z</time>
      </trkpt>
      <trkpt lat="44.96176" lon="5.70186">
        <ele>772.20001220703</ele>
        <time>2026-07-05T07:11:05.000Z</time>
      </trkpt>
      <trkpt lat="44.96173" lon="5.70187">
        <ele>772.20001220703</ele>
        <time>2026-07-05T07:11:06.000Z</time>
      </trkpt>
      <trkpt lat="44.9617" lon="5.70188">
        <ele>771.59997558594</ele>
        <time>2026-07-05T07:11:07.000Z</time>
      </trkpt>
      <trkpt lat="44.96167" lon="5.70189">
        <ele>771.20001220703</ele>
        <time>2026-07-05T07:11:08.000Z</time>
      </trkpt>
      <trkpt lat="44.96164" lon="5.7019">
        <ele>771</ele>
        <time>2026-07-05T07:11:09.000Z</time>
      </trkpt>
      <trkpt lat="44.96161" lon="5.7019">
        <ele>770.59997558594</ele>
        <time>2026-07-05T07:11:10.000Z</time>
      </trkpt>
      <trkpt lat="44.96158" lon="5.7019">
        <ele>770.40002441406</ele>
        <time>2026-07-05T07:11:11.000Z</time>
      </trkpt>
      <trkpt lat="44.96154" lon="5.7019">
        <ele>770.20001220703</ele>
        <time>2026-07-05T07:11:12.000Z</time>
      </trkpt>
      <trkpt lat="44.96151" lon="5.7019">
        <ele>769.79998779297</ele>
        <time>2026-07-05T07:11:13.000Z</time>
      </trkpt>
      <trkpt lat="44.96147" lon="5.7019">
        <ele>769.40002441406</ele>
        <time>2026-07-05T07:11:14.000Z</time>
      </trkpt>
      <trkpt lat="44.96144" lon="5.7019">
        <ele>769.20001220703</ele>
        <time>2026-07-05T07:11:15.000Z</time>
      </trkpt>
      <trkpt lat="44.96141" lon="5.7019">
        <ele>769</ele>
        <time>2026-07-05T07:11:16.000Z</time>
      </trkpt>
      <trkpt lat="44.96137" lon="5.7019">
        <ele>768.79998779297</ele>
        <time>2026-07-05T07:11:17.000Z</time>
      </trkpt>
      <trkpt lat="44.96134" lon="5.7019">
        <ele>768.59997558594</ele>
        <time>2026-07-05T07:11:18.000Z</time>
      </trkpt>
      <trkpt lat="44.96131" lon="5.7019">
        <ele>768.20001220703</ele>
        <time>2026-07-05T07:11:19.000Z</time>
      </trkpt>
      <trkpt lat="44.96128" lon="5.7019">
        <ele>768</ele>
        <time>2026-07-05T07:11:20.000Z</time>
      </trkpt>
      <trkpt lat="44.96125" lon="5.70191">
        <ele>767.59997558594</ele>
        <time>2026-07-05T07:11:21.000Z</time>
      </trkpt>
      <trkpt lat="44.96121" lon="5.70191">
        <ele>767.40002441406</ele>
        <time>2026-07-05T07:11:22.000Z</time>
      </trkpt>
      <trkpt lat="44.96118" lon="5.70192">
        <ele>767</ele>
        <time>2026-07-05T07:11:23.000Z</time>
      </trkpt>
      <trkpt lat="44.96115" lon="5.70193">
        <ele>766.59997558594</ele>
        <time>2026-07-05T07:11:24.000Z</time>
      </trkpt>
      <trkpt lat="44.96112" lon="5.70194">
        <ele>766.20001220703</ele>
        <time>2026-07-05T07:11:25.000Z</time>
      </trkpt>
      <trkpt lat="44.9611" lon="5.70195">
        <ele>765.79998779297</ele>
        <time>2026-07-05T07:11:26.000Z</time>
      </trkpt>
      <trkpt lat="44.96106" lon="5.70196">
        <ele>765.20001220703</ele>
        <time>2026-07-05T07:11:27.000Z</time>
      </trkpt>
      <trkpt lat="44.96104" lon="5.70196">
        <ele>765</ele>
        <time>2026-07-05T07:11:28.000Z</time>
      </trkpt>
      <trkpt lat="44.96101" lon="5.70198">
        <ele>764.59997558594</ele>
        <time>2026-07-05T07:11:29.000Z</time>
      </trkpt>
      <trkpt lat="44.96098" lon="5.70199">
        <ele>764.20001220703</ele>
        <time>2026-07-05T07:11:30.000Z</time>
      </trkpt>
      <trkpt lat="44.96095" lon="5.70201">
        <ele>764</ele>
        <time>2026-07-05T07:11:31.000Z</time>
      </trkpt>
      <trkpt lat="44.96092" lon="5.70203">
        <ele>764</ele>
        <time>2026-07-05T07:11:32.000Z</time>
      </trkpt>
      <trkpt lat="44.96089" lon="5.70204">
        <ele>763.79998779297</ele>
        <time>2026-07-05T07:11:33.000Z</time>
      </trkpt>
      <trkpt lat="44.96086" lon="5.70205">
        <ele>763.79998779297</ele>
        <time>2026-07-05T07:11:34.000Z</time>
      </trkpt>
      <trkpt lat="44.96083" lon="5.70207">
        <ele>763.40002441406</ele>
        <time>2026-07-05T07:11:35.000Z</time>
      </trkpt>
      <trkpt lat="44.9608" lon="5.70208">
        <ele>763.20001220703</ele>
        <time>2026-07-05T07:11:36.000Z</time>
      </trkpt>
      <trkpt lat="44.96077" lon="5.70209">
        <ele>763</ele>
        <time>2026-07-05T07:11:37.000Z</time>
      </trkpt>
      <trkpt lat="44.96074" lon="5.70209">
        <ele>763</ele>
        <time>2026-07-05T07:11:38.000Z</time>
      </trkpt>
      <trkpt lat="44.96071" lon="5.7021">
        <ele>762.79998779297</ele>
        <time>2026-07-05T07:11:39.000Z</time>
      </trkpt>
      <trkpt lat="44.96068" lon="5.7021">
        <ele>762.40002441406</ele>
        <time>2026-07-05T07:11:40.000Z</time>
      </trkpt>
      <trkpt lat="44.96065" lon="5.7021">
        <ele>762.40002441406</ele>
        <time>2026-07-05T07:11:41.000Z</time>
      </trkpt>
      <trkpt lat="44.96062" lon="5.7021">
        <ele>762.20001220703</ele>
        <time>2026-07-05T07:11:42.000Z</time>
      </trkpt>
      <trkpt lat="44.9606" lon="5.70209">
        <ele>762.20001220703</ele>
        <time>2026-07-05T07:11:43.000Z</time>
      </trkpt>
      <trkpt lat="44.96057" lon="5.70208">
        <ele>762.20001220703</ele>
        <time>2026-07-05T07:11:44.000Z</time>
      </trkpt>
      <trkpt lat="44.96054" lon="5.70206">
        <ele>762</ele>
        <time>2026-07-05T07:11:45.000Z</time>
      </trkpt>
      <trkpt lat="44.96051" lon="5.70204">
        <ele>762</ele>
        <time>2026-07-05T07:11:46.000Z</time>
      </trkpt>
      <trkpt lat="44.96049" lon="5.70201">
        <ele>762</ele>
        <time>2026-07-05T07:11:47.000Z</time>
      </trkpt>
      <trkpt lat="44.96046" lon="5.70197">
        <ele>761.79998779297</ele>
        <time>2026-07-05T07:11:48.000Z</time>
      </trkpt>
      <trkpt lat="44.96044" lon="5.70193">
        <ele>761.40002441406</ele>
        <time>2026-07-05T07:11:49.000Z</time>
      </trkpt>
      <trkpt lat="44.96041" lon="5.7019">
        <ele>761.20001220703</ele>
        <time>2026-07-05T07:11:50.000Z</time>
      </trkpt>
      <trkpt lat="44.96039" lon="5.70187">
        <ele>761</ele>
        <time>2026-07-05T07:11:51.000Z</time>
      </trkpt>
      <trkpt lat="44.96037" lon="5.70183">
        <ele>760.79998779297</ele>
        <time>2026-07-05T07:11:52.000Z</time>
      </trkpt>
      <trkpt lat="44.96035" lon="5.7018">
        <ele>760.59997558594</ele>
        <time>2026-07-05T07:11:53.000Z</time>
      </trkpt>
      <trkpt lat="44.96033" lon="5.70177">
        <ele>760.40002441406</ele>
        <time>2026-07-05T07:11:54.000Z</time>
      </trkpt>
      <trkpt lat="44.96031" lon="5.70173">
        <ele>760</ele>
        <time>2026-07-05T07:11:55.000Z</time>
      </trkpt>
      <trkpt lat="44.96029" lon="5.7017">
        <ele>759.79998779297</ele>
        <time>2026-07-05T07:11:56.000Z</time>
      </trkpt>
      <trkpt lat="44.96026" lon="5.70167">
        <ele>759.59997558594</ele>
        <time>2026-07-05T07:11:57.000Z</time>
      </trkpt>
      <trkpt lat="44.96023" lon="5.70164">
        <ele>759.40002441406</ele>
        <time>2026-07-05T07:11:58.000Z</time>
      </trkpt>
      <trkpt lat="44.9602" lon="5.70162">
        <ele>759.20001220703</ele>
        <time>2026-07-05T07:11:59.000Z</time>
      </trkpt>
      <trkpt lat="44.96017" lon="5.7016">
        <ele>759</ele>
        <time>2026-07-05T07:12:00.000Z</time>
      </trkpt>
      <trkpt lat="44.96015" lon="5.70158">
        <ele>758.79998779297</ele>
        <time>2026-07-05T07:12:01.000Z</time>
      </trkpt>
      <trkpt lat="44.96012" lon="5.70157">
        <ele>758.40002441406</ele>
        <time>2026-07-05T07:12:02.000Z</time>
      </trkpt>
      <trkpt lat="44.96009" lon="5.70156">
        <ele>758.40002441406</ele>
        <time>2026-07-05T07:12:03.000Z</time>
      </trkpt>
      <trkpt lat="44.96007" lon="5.70154">
        <ele>758.40002441406</ele>
        <time>2026-07-05T07:12:04.000Z</time>
      </trkpt>
      <trkpt lat="44.96004" lon="5.70154">
        <ele>758.20001220703</ele>
        <time>2026-07-05T07:12:05.000Z</time>
      </trkpt>
      <trkpt lat="44.96001" lon="5.70153">
        <ele>758.20001220703</ele>
        <time>2026-07-05T07:12:06.000Z</time>
      </trkpt>
      <trkpt lat="44.95998" lon="5.70153">
        <ele>758.20001220703</ele>
        <time>2026-07-05T07:12:07.000Z</time>
      </trkpt>
      <trkpt lat="44.95995" lon="5.70153">
        <ele>758</ele>
        <time>2026-07-05T07:12:08.000Z</time>
      </trkpt>
      <trkpt lat="44.95992" lon="5.70153">
        <ele>757.79998779297</ele>
        <time>2026-07-05T07:12:09.000Z</time>
      </trkpt>
      <trkpt lat="44.95989" lon="5.70153">
        <ele>757.40002441406</ele>
        <time>2026-07-05T07:12:10.000Z</time>
      </trkpt>
      <trkpt lat="44.95987" lon="5.70153">
        <ele>757.40002441406</ele>
        <time>2026-07-05T07:12:11.000Z</time>
      </trkpt>
      <trkpt lat="44.95984" lon="5.70153">
        <ele>757.20001220703</ele>
        <time>2026-07-05T07:12:12.000Z</time>
      </trkpt>
      <trkpt lat="44.9598" lon="5.70154">
        <ele>757.20001220703</ele>
        <time>2026-07-05T07:12:13.000Z</time>
      </trkpt>
      <trkpt lat="44.95978" lon="5.70154">
        <ele>757.20001220703</ele>
        <time>2026-07-05T07:12:14.000Z</time>
      </trkpt>
      <trkpt lat="44.95975" lon="5.70154">
        <ele>757.20001220703</ele>
        <time>2026-07-05T07:12:15.000Z</time>
      </trkpt>
      <trkpt lat="44.95972" lon="5.70153">
        <ele>757.20001220703</ele>
        <time>2026-07-05T07:12:16.000Z</time>
      </trkpt>
      <trkpt lat="44.9597" lon="5.70153">
        <ele>757.20001220703</ele>
        <time>2026-07-05T07:12:17.000Z</time>
      </trkpt>
      <trkpt lat="44.95967" lon="5.70153">
        <ele>757.20001220703</ele>
        <time>2026-07-05T07:12:18.000Z</time>
      </trkpt>
      <trkpt lat="44.95964" lon="5.70152">
        <ele>757.20001220703</ele>
        <time>2026-07-05T07:12:19.000Z</time>
      </trkpt>
      <trkpt lat="44.95961" lon="5.70152">
        <ele>757.40002441406</ele>
        <time>2026-07-05T07:12:20.000Z</time>
      </trkpt>
      <trkpt lat="44.95958" lon="5.70152">
        <ele>757.20001220703</ele>
        <time>2026-07-05T07:12:21.000Z</time>
      </trkpt>
      <trkpt lat="44.95954" lon="5.70151">
        <ele>757.20001220703</ele>
        <time>2026-07-05T07:12:22.000Z</time>
      </trkpt>
      <trkpt lat="44.95951" lon="5.70151">
        <ele>757</ele>
        <time>2026-07-05T07:12:23.000Z</time>
      </trkpt>
      <trkpt lat="44.95948" lon="5.70151">
        <ele>757</ele>
        <time>2026-07-05T07:12:24.000Z</time>
      </trkpt>
      <trkpt lat="44.95945" lon="5.70152">
        <ele>756.79998779297</ele>
        <time>2026-07-05T07:12:25.000Z</time>
      </trkpt>
      <trkpt lat="44.95942" lon="5.70151">
        <ele>756.79998779297</ele>
        <time>2026-07-05T07:12:26.000Z</time>
      </trkpt>
      <trkpt lat="44.95939" lon="5.70152">
        <ele>756.79998779297</ele>
        <time>2026-07-05T07:12:27.000Z</time>
      </trkpt>
      <trkpt lat="44.95937" lon="5.70152">
        <ele>756.79998779297</ele>
        <time>2026-07-05T07:12:28.000Z</time>
      </trkpt>
      <trkpt lat="44.95934" lon="5.70152">
        <ele>756.79998779297</ele>
        <time>2026-07-05T07:12:29.000Z</time>
      </trkpt>
      <trkpt lat="44.95931" lon="5.70152">
        <ele>756.79998779297</ele>
        <time>2026-07-05T07:12:30.000Z</time>
      </trkpt>
      <trkpt lat="44.95928" lon="5.70152">
        <ele>757</ele>
        <time>2026-07-05T07:12:31.000Z</time>
      </trkpt>
      <trkpt lat="44.95925" lon="5.70151">
        <ele>757</ele>
        <time>2026-07-05T07:12:32.000Z</time>
      </trkpt>
      <trkpt lat="44.95922" lon="5.70151">
        <ele>756.79998779297</ele>
        <time>2026-07-05T07:12:33.000Z</time>
      </trkpt>
      <trkpt lat="44.95919" lon="5.70151">
        <ele>756.79998779297</ele>
        <time>2026-07-05T07:12:34.000Z</time>
      </trkpt>
      <trkpt lat="44.95916" lon="5.7015">
        <ele>756.79998779297</ele>
        <time>2026-07-05T07:12:35.000Z</time>
      </trkpt>
      <trkpt lat="44.95914" lon="5.70149">
        <ele>756.79998779297</ele>
        <time>2026-07-05T07:12:36.000Z</time>
      </trkpt>
      <trkpt lat="44.95911" lon="5.70147">
        <ele>756.79998779297</ele>
        <time>2026-07-05T07:12:37.000Z</time>
      </trkpt>
      <trkpt lat="44.95908" lon="5.70145">
        <ele>756.79998779297</ele>
        <time>2026-07-05T07:12:38.000Z</time>
      </trkpt>
      <trkpt lat="44.95906" lon="5.70143">
        <ele>756.79998779297</ele>
        <time>2026-07-05T07:12:39.000Z</time>
      </trkpt>
      <trkpt lat="44.95903" lon="5.70142">
        <ele>756.79998779297</ele>
        <time>2026-07-05T07:12:40.000Z</time>
      </trkpt>
      <trkpt lat="44.95901" lon="5.7014">
        <ele>756.79998779297</ele>
        <time>2026-07-05T07:12:41.000Z</time>
      </trkpt>
      <trkpt lat="44.95898" lon="5.70139">
        <ele>756.79998779297</ele>
        <time>2026-07-05T07:12:42.000Z</time>
      </trkpt>
      <trkpt lat="44.95895" lon="5.70137">
        <ele>756.79998779297</ele>
        <time>2026-07-05T07:12:43.000Z</time>
      </trkpt>
      <trkpt lat="44.95892" lon="5.70136">
        <ele>756.79998779297</ele>
        <time>2026-07-05T07:12:44.000Z</time>
      </trkpt>
      <trkpt lat="44.95888" lon="5.70135">
        <ele>756.79998779297</ele>
        <time>2026-07-05T07:12:45.000Z</time>
      </trkpt>
      <trkpt lat="44.95886" lon="5.70134">
        <ele>756.59997558594</ele>
        <time>2026-07-05T07:12:46.000Z</time>
      </trkpt>
      <trkpt lat="44.95883" lon="5.70134">
        <ele>756.20001220703</ele>
        <time>2026-07-05T07:12:47.000Z</time>
      </trkpt>
      <trkpt lat="44.9588" lon="5.70133">
        <ele>756</ele>
        <time>2026-07-05T07:12:48.000Z</time>
      </trkpt>
      <trkpt lat="44.95878" lon="5.70132">
        <ele>755.79998779297</ele>
        <time>2026-07-05T07:12:49.000Z</time>
      </trkpt>
      <trkpt lat="44.95875" lon="5.70132">
        <ele>755.40002441406</ele>
        <time>2026-07-05T07:12:50.000Z</time>
      </trkpt>
      <trkpt lat="44.95872" lon="5.70131">
        <ele>755</ele>
        <time>2026-07-05T07:12:51.000Z</time>
      </trkpt>
      <trkpt lat="44.95869" lon="5.70131">
        <ele>754.40002441406</ele>
        <time>2026-07-05T07:12:52.000Z</time>
      </trkpt>
      <trkpt lat="44.95865" lon="5.70131">
        <ele>754.20001220703</ele>
        <time>2026-07-05T07:12:53.000Z</time>
      </trkpt>
      <trkpt lat="44.95862" lon="5.70131">
        <ele>753.79998779297</ele>
        <time>2026-07-05T07:12:54.000Z</time>
      </trkpt>
      <trkpt lat="44.95859" lon="5.7013">
        <ele>753.20001220703</ele>
        <time>2026-07-05T07:12:55.000Z</time>
      </trkpt>
      <trkpt lat="44.95856" lon="5.70129">
        <ele>752.79998779297</ele>
        <time>2026-07-05T07:12:56.000Z</time>
      </trkpt>
      <trkpt lat="44.95853" lon="5.70127">
        <ele>752.20001220703</ele>
        <time>2026-07-05T07:12:57.000Z</time>
      </trkpt>
      <trkpt lat="44.9585" lon="5.70125">
        <ele>751.79998779297</ele>
        <time>2026-07-05T07:12:58.000Z</time>
      </trkpt>
      <trkpt lat="44.95847" lon="5.70123">
        <ele>751.59997558594</ele>
        <time>2026-07-05T07:12:59.000Z</time>
      </trkpt>
      <trkpt lat="44.95844" lon="5.70121">
        <ele>751.20001220703</ele>
        <time>2026-07-05T07:13:00.000Z</time>
      </trkpt>
      <trkpt lat="44.95841" lon="5.70119">
        <ele>751</ele>
        <time>2026-07-05T07:13:01.000Z</time>
      </trkpt>
      <trkpt lat="44.95839" lon="5.70118">
        <ele>750.79998779297</ele>
        <time>2026-07-05T07:13:02.000Z</time>
      </trkpt>
      <trkpt lat="44.95836" lon="5.70116">
        <ele>750.40002441406</ele>
        <time>2026-07-05T07:13:03.000Z</time>
      </trkpt>
      <trkpt lat="44.95833" lon="5.70113">
        <ele>750.20001220703</ele>
        <time>2026-07-05T07:13:04.000Z</time>
      </trkpt>
      <trkpt lat="44.95831" lon="5.70111">
        <ele>749.79998779297</ele>
        <time>2026-07-05T07:13:05.000Z</time>
      </trkpt>
      <trkpt lat="44.95828" lon="5.70109">
        <ele>749.20001220703</ele>
        <time>2026-07-05T07:13:06.000Z</time>
      </trkpt>
      <trkpt lat="44.95827" lon="5.70106">
        <ele>748.59997558594</ele>
        <time>2026-07-05T07:13:07.000Z</time>
      </trkpt>
      <trkpt lat="44.95825" lon="5.70102">
        <ele>748.20001220703</ele>
        <time>2026-07-05T07:13:08.000Z</time>
      </trkpt>
      <trkpt lat="44.95825" lon="5.701">
        <ele>748.20001220703</ele>
        <time>2026-07-05T07:13:09.000Z</time>
      </trkpt>
      <trkpt lat="44.95825" lon="5.70097">
        <ele>747.79998779297</ele>
        <time>2026-07-05T07:13:10.000Z</time>
      </trkpt>
      <trkpt lat="44.95825" lon="5.70095">
        <ele>747.59997558594</ele>
        <time>2026-07-05T07:13:11.000Z</time>
      </trkpt>
      <trkpt lat="44.95824" lon="5.70093">
        <ele>747.40002441406</ele>
        <time>2026-07-05T07:13:12.000Z</time>
      </trkpt>
      <trkpt lat="44.95824" lon="5.7009">
        <ele>747</ele>
        <time>2026-07-05T07:13:13.000Z</time>
      </trkpt>
      <trkpt lat="44.95824" lon="5.70087">
        <ele>746.79998779297</ele>
        <time>2026-07-05T07:13:14.000Z</time>
      </trkpt>
      <trkpt lat="44.95824" lon="5.70084">
        <ele>746.20001220703</ele>
        <time>2026-07-05T07:13:15.000Z</time>
      </trkpt>
      <trkpt lat="44.95823" lon="5.70082">
        <ele>745.59997558594</ele>
        <time>2026-07-05T07:13:16.000Z</time>
      </trkpt>
      <trkpt lat="44.95822" lon="5.7008">
        <ele>745.20001220703</ele>
        <time>2026-07-05T07:13:17.000Z</time>
      </trkpt>
      <trkpt lat="44.9582" lon="5.70078">
        <ele>745</ele>
        <time>2026-07-05T07:13:18.000Z</time>
      </trkpt>
      <trkpt lat="44.95819" lon="5.70076">
        <ele>744.59997558594</ele>
        <time>2026-07-05T07:13:19.000Z</time>
      </trkpt>
      <trkpt lat="44.95818" lon="5.70072">
        <ele>744.40002441406</ele>
        <time>2026-07-05T07:13:20.000Z</time>
      </trkpt>
      <trkpt lat="44.95817" lon="5.70069">
        <ele>744</ele>
        <time>2026-07-05T07:13:21.000Z</time>
      </trkpt>
      <trkpt lat="44.95815" lon="5.70065">
        <ele>743.79998779297</ele>
        <time>2026-07-05T07:13:22.000Z</time>
      </trkpt>
      <trkpt lat="44.95814" lon="5.70064">
        <ele>743.40002441406</ele>
        <time>2026-07-05T07:13:23.000Z</time>
      </trkpt>
      <trkpt lat="44.95812" lon="5.70062">
        <ele>743</ele>
        <time>2026-07-05T07:13:24.000Z</time>
      </trkpt>
      <trkpt lat="44.9581" lon="5.70061">
        <ele>742.59997558594</ele>
        <time>2026-07-05T07:13:25.000Z</time>
      </trkpt>
      <trkpt lat="44.95809" lon="5.7006">
        <ele>742.59997558594</ele>
        <time>2026-07-05T07:13:26.000Z</time>
      </trkpt>
      <trkpt lat="44.95807" lon="5.70059">
        <ele>742.20001220703</ele>
        <time>2026-07-05T07:13:27.000Z</time>
      </trkpt>
      <trkpt lat="44.95806" lon="5.70058">
        <ele>741.40002441406</ele>
        <time>2026-07-05T07:13:28.000Z</time>
      </trkpt>
      <trkpt lat="44.95804" lon="5.70057">
        <ele>741</ele>
        <time>2026-07-05T07:13:29.000Z</time>
      </trkpt>
      <trkpt lat="44.95803" lon="5.70054">
        <ele>740.40002441406</ele>
        <time>2026-07-05T07:13:30.000Z</time>
      </trkpt>
      <trkpt lat="44.95803" lon="5.70052">
        <ele>739.40002441406</ele>
        <time>2026-07-05T07:13:31.000Z</time>
      </trkpt>
      <trkpt lat="44.95802" lon="5.70049">
        <ele>739.20001220703</ele>
        <time>2026-07-05T07:13:32.000Z</time>
      </trkpt>
      <trkpt lat="44.95801" lon="5.70047">
        <ele>738.40002441406</ele>
        <time>2026-07-05T07:13:33.000Z</time>
      </trkpt>
      <trkpt lat="44.95799" lon="5.70046">
        <ele>737.59997558594</ele>
        <time>2026-07-05T07:13:34.000Z</time>
      </trkpt>
      <trkpt lat="44.95797" lon="5.70045">
        <ele>737</ele>
        <time>2026-07-05T07:13:35.000Z</time>
      </trkpt>
      <trkpt lat="44.95797" lon="5.70044">
        <ele>736.40002441406</ele>
        <time>2026-07-05T07:13:36.000Z</time>
      </trkpt>
      <trkpt lat="44.95796" lon="5.70043">
        <ele>735.79998779297</ele>
        <time>2026-07-05T07:13:37.000Z</time>
      </trkpt>
      <trkpt lat="44.95795" lon="5.70041">
        <ele>735.20001220703</ele>
        <time>2026-07-05T07:13:38.000Z</time>
      </trkpt>
      <trkpt lat="44.95794" lon="5.70041">
        <ele>734.40002441406</ele>
        <time>2026-07-05T07:13:39.000Z</time>
      </trkpt>
      <trkpt lat="44.95794" lon="5.7004">
        <ele>733.79998779297</ele>
        <time>2026-07-05T07:13:40.000Z</time>
      </trkpt>
      <trkpt lat="44.95793" lon="5.70039">
        <ele>732.79998779297</ele>
        <time>2026-07-05T07:13:41.000Z</time>
      </trkpt>
      <trkpt lat="44.95792" lon="5.70039">
        <ele>732.40002441406</ele>
        <time>2026-07-05T07:13:42.000Z</time>
      </trkpt>
      <trkpt lat="44.95791" lon="5.7004">
        <ele>731.79998779297</ele>
        <time>2026-07-05T07:13:43.000Z</time>
      </trkpt>
      <trkpt lat="44.9579" lon="5.70038">
        <ele>731.59997558594</ele>
        <time>2026-07-05T07:13:44.000Z</time>
      </trkpt>
      <trkpt lat="44.95789" lon="5.70034">
        <ele>731.20001220703</ele>
        <time>2026-07-05T07:13:45.000Z</time>
      </trkpt>
      <trkpt lat="44.95789" lon="5.70032">
        <ele>730.40002441406</ele>
        <time>2026-07-05T07:13:46.000Z</time>
      </trkpt>
      <trkpt lat="44.95788" lon="5.7003">
        <ele>730.20001220703</ele>
        <time>2026-07-05T07:13:47.000Z</time>
      </trkpt>
      <trkpt lat="44.95786" lon="5.70029">
        <ele>730</ele>
        <time>2026-07-05T07:13:48.000Z</time>
      </trkpt>
      <trkpt lat="44.95785" lon="5.70028">
        <ele>729.59997558594</ele>
        <time>2026-07-05T07:13:49.000Z</time>
      </trkpt>
      <trkpt lat="44.95783" lon="5.70026">
        <ele>728.79998779297</ele>
        <time>2026-07-05T07:13:50.000Z</time>
      </trkpt>
      <trkpt lat="44.95782" lon="5.70024">
        <ele>728.20001220703</ele>
        <time>2026-07-05T07:13:51.000Z</time>
      </trkpt>
      <trkpt lat="44.9578" lon="5.70022">
        <ele>728</ele>
        <time>2026-07-05T07:13:52.000Z</time>
      </trkpt>
      <trkpt lat="44.95779" lon="5.70021">
        <ele>728</ele>
        <time>2026-07-05T07:13:53.000Z</time>
      </trkpt>
      <trkpt lat="44.95777" lon="5.70022">
        <ele>727.59997558594</ele>
        <time>2026-07-05T07:13:54.000Z</time>
      </trkpt>
      <trkpt lat="44.95775" lon="5.70022">
        <ele>727.20001220703</ele>
        <time>2026-07-05T07:13:55.000Z</time>
      </trkpt>
      <trkpt lat="44.95773" lon="5.70022">
        <ele>727</ele>
        <time>2026-07-05T07:13:56.000Z</time>
      </trkpt>
      <trkpt lat="44.95771" lon="5.70019">
        <ele>726</ele>
        <time>2026-07-05T07:13:57.000Z</time>
      </trkpt>
      <trkpt lat="44.95771" lon="5.70016">
        <ele>725</ele>
        <time>2026-07-05T07:13:58.000Z</time>
      </trkpt>
      <trkpt lat="44.9577" lon="5.70014">
        <ele>724.79998779297</ele>
        <time>2026-07-05T07:13:59.000Z</time>
      </trkpt>
      <trkpt lat="44.95769" lon="5.70011">
        <ele>724.40002441406</ele>
        <time>2026-07-05T07:14:00.000Z</time>
      </trkpt>
      <trkpt lat="44.95768" lon="5.70008">
        <ele>724.20001220703</ele>
        <time>2026-07-05T07:14:01.000Z</time>
      </trkpt>
      <trkpt lat="44.95767" lon="5.70006">
        <ele>724</ele>
        <time>2026-07-05T07:14:02.000Z</time>
      </trkpt>
      <trkpt lat="44.95765" lon="5.70006">
        <ele>723.59997558594</ele>
        <time>2026-07-05T07:14:03.000Z</time>
      </trkpt>
      <trkpt lat="44.95764" lon="5.70005">
        <ele>723</ele>
        <time>2026-07-05T07:14:04.000Z</time>
      </trkpt>
      <trkpt lat="44.95763" lon="5.70004">
        <ele>722.79998779297</ele>
        <time>2026-07-05T07:14:05.000Z</time>
      </trkpt>
      <trkpt lat="44.95762" lon="5.70003">
        <ele>722.40002441406</ele>
        <time>2026-07-05T07:14:06.000Z</time>
      </trkpt>
      <trkpt lat="44.9576" lon="5.70002">
        <ele>721.59997558594</ele>
        <time>2026-07-05T07:14:07.000Z</time>
      </trkpt>
      <trkpt lat="44.9576" lon="5.70002">
        <ele>720.40002441406</ele>
        <time>2026-07-05T07:14:08.000Z</time>
      </trkpt>
      <trkpt lat="44.95759" lon="5.70001">
        <ele>719.79998779297</ele>
        <time>2026-07-05T07:14:09.000Z</time>
      </trkpt>
      <trkpt lat="44.95759" lon="5.7">
        <ele>719</ele>
        <time>2026-07-05T07:14:10.000Z</time>
      </trkpt>
      <trkpt lat="44.95757" lon="5.69998">
        <ele>718</ele>
        <time>2026-07-05T07:14:11.000Z</time>
      </trkpt>
      <trkpt lat="44.95756" lon="5.69997">
        <ele>717.20001220703</ele>
        <time>2026-07-05T07:14:12.000Z</time>
      </trkpt>
      <trkpt lat="44.95755" lon="5.69996">
        <ele>716.20001220703</ele>
        <time>2026-07-05T07:14:13.000Z</time>
      </trkpt>
      <trkpt lat="44.95753" lon="5.69995">
        <ele>716.20001220703</ele>
        <time>2026-07-05T07:14:14.000Z</time>
      </trkpt>
      <trkpt lat="44.95753" lon="5.69995">
        <ele>715.20001220703</ele>
        <time>2026-07-05T07:14:15.000Z</time>
      </trkpt>
      <trkpt lat="44.95751" lon="5.69994">
        <ele>714.79998779297</ele>
        <time>2026-07-05T07:14:16.000Z</time>
      </trkpt>
      <trkpt lat="44.9575" lon="5.69993">
        <ele>714.40002441406</ele>
        <time>2026-07-05T07:14:17.000Z</time>
      </trkpt>
      <trkpt lat="44.95747" lon="5.69993">
        <ele>713.59997558594</ele>
        <time>2026-07-05T07:14:18.000Z</time>
      </trkpt>
      <trkpt lat="44.95744" lon="5.69993">
        <ele>712.59997558594</ele>
        <time>2026-07-05T07:14:19.000Z</time>
      </trkpt>
      <trkpt lat="44.95743" lon="5.69991">
        <ele>710.79998779297</ele>
        <time>2026-07-05T07:14:20.000Z</time>
      </trkpt>
      <trkpt lat="44.95742" lon="5.6999">
        <ele>709.20001220703</ele>
        <time>2026-07-05T07:14:21.000Z</time>
      </trkpt>
      <trkpt lat="44.9574" lon="5.6999">
        <ele>709.20001220703</ele>
        <time>2026-07-05T07:14:22.000Z</time>
      </trkpt>
      <trkpt lat="44.95739" lon="5.6999">
        <ele>709</ele>
        <time>2026-07-05T07:14:23.000Z</time>
      </trkpt>
      <trkpt lat="44.95737" lon="5.69989">
        <ele>708.79998779297</ele>
        <time>2026-07-05T07:14:24.000Z</time>
      </trkpt>
      <trkpt lat="44.95735" lon="5.69989">
        <ele>708.79998779297</ele>
        <time>2026-07-05T07:14:25.000Z</time>
      </trkpt>
      <trkpt lat="44.95734" lon="5.69987">
        <ele>708.79998779297</ele>
        <time>2026-07-05T07:14:26.000Z</time>
      </trkpt>
      <trkpt lat="44.95732" lon="5.69986">
        <ele>708.79998779297</ele>
        <time>2026-07-05T07:14:27.000Z</time>
      </trkpt>
      <trkpt lat="44.9573" lon="5.69985">
        <ele>708.40002441406</ele>
        <time>2026-07-05T07:14:28.000Z</time>
      </trkpt>
      <trkpt lat="44.95728" lon="5.69986">
        <ele>707.79998779297</ele>
        <time>2026-07-05T07:14:29.000Z</time>
      </trkpt>
      <trkpt lat="44.95727" lon="5.69986">
        <ele>707.20001220703</ele>
        <time>2026-07-05T07:14:30.000Z</time>
      </trkpt>
      <trkpt lat="44.95725" lon="5.69986">
        <ele>706.59997558594</ele>
        <time>2026-07-05T07:14:31.000Z</time>
      </trkpt>
      <trkpt lat="44.95724" lon="5.69984">
        <ele>705.59997558594</ele>
        <time>2026-07-05T07:14:32.000Z</time>
      </trkpt>
      <trkpt lat="44.95723" lon="5.69982">
        <ele>704.59997558594</ele>
        <time>2026-07-05T07:14:33.000Z</time>
      </trkpt>
      <trkpt lat="44.95721" lon="5.69982">
        <ele>704.40002441406</ele>
        <time>2026-07-05T07:14:34.000Z</time>
      </trkpt>
      <trkpt lat="44.95719" lon="5.69981">
        <ele>704</ele>
        <time>2026-07-05T07:14:35.000Z</time>
      </trkpt>
      <trkpt lat="44.95717" lon="5.6998">
        <ele>702.59997558594</ele>
        <time>2026-07-05T07:14:36.000Z</time>
      </trkpt>
      <trkpt lat="44.95716" lon="5.69979">
        <ele>702.40002441406</ele>
        <time>2026-07-05T07:14:37.000Z</time>
      </trkpt>
      <trkpt lat="44.95714" lon="5.69978">
        <ele>702.40002441406</ele>
        <time>2026-07-05T07:14:38.000Z</time>
      </trkpt>
      <trkpt lat="44.95712" lon="5.69977">
        <ele>702.20001220703</ele>
        <time>2026-07-05T07:14:39.000Z</time>
      </trkpt>
      <trkpt lat="44.95711" lon="5.69974">
        <ele>702</ele>
        <time>2026-07-05T07:14:40.000Z</time>
      </trkpt>
      <trkpt lat="44.9571" lon="5.69972">
        <ele>701.20001220703</ele>
        <time>2026-07-05T07:14:41.000Z</time>
      </trkpt>
      <trkpt lat="44.9571" lon="5.69969">
        <ele>701.20001220703</ele>
        <time>2026-07-05T07:14:42.000Z</time>
      </trkpt>
      <trkpt lat="44.95709" lon="5.69967">
        <ele>700.59997558594</ele>
        <time>2026-07-05T07:14:43.000Z</time>
      </trkpt>
      <trkpt lat="44.95709" lon="5.69965">
        <ele>700.40002441406</ele>
        <time>2026-07-05T07:14:44.000Z</time>
      </trkpt>
      <trkpt lat="44.95711" lon="5.69962">
        <ele>700</ele>
        <time>2026-07-05T07:14:45.000Z</time>
      </trkpt>
      <trkpt lat="44.95712" lon="5.69961">
        <ele>699.40002441406</ele>
        <time>2026-07-05T07:14:46.000Z</time>
      </trkpt>
      <trkpt lat="44.95715" lon="5.6996">
        <ele>698.59997558594</ele>
        <time>2026-07-05T07:14:47.000Z</time>
      </trkpt>
      <trkpt lat="44.95718" lon="5.69959">
        <ele>698</ele>
        <time>2026-07-05T07:14:48.000Z</time>
      </trkpt>
      <trkpt lat="44.9572" lon="5.69957">
        <ele>697.20001220703</ele>
        <time>2026-07-05T07:14:49.000Z</time>
      </trkpt>
      <trkpt lat="44.95722" lon="5.69957">
        <ele>696.40002441406</ele>
        <time>2026-07-05T07:14:50.000Z</time>
      </trkpt>
      <trkpt lat="44.95724" lon="5.69956">
        <ele>695</ele>
        <time>2026-07-05T07:14:51.000Z</time>
      </trkpt>
      <trkpt lat="44.95727" lon="5.69956">
        <ele>694.59997558594</ele>
        <time>2026-07-05T07:14:52.000Z</time>
      </trkpt>
      <trkpt lat="44.95728" lon="5.69956">
        <ele>694.40002441406</ele>
        <time>2026-07-05T07:14:53.000Z</time>
      </trkpt>
      <trkpt lat="44.9573" lon="5.69956">
        <ele>694.20001220703</ele>
        <time>2026-07-05T07:14:54.000Z</time>
      </trkpt>
      <trkpt lat="44.95732" lon="5.69957">
        <ele>694.40002441406</ele>
        <time>2026-07-05T07:14:55.000Z</time>
      </trkpt>
      <trkpt lat="44.95734" lon="5.69957">
        <ele>694.40002441406</ele>
        <time>2026-07-05T07:14:56.000Z</time>
      </trkpt>
      <trkpt lat="44.95737" lon="5.69957">
        <ele>694.59997558594</ele>
        <time>2026-07-05T07:14:57.000Z</time>
      </trkpt>
      <trkpt lat="44.95738" lon="5.69956">
        <ele>695.20001220703</ele>
        <time>2026-07-05T07:14:58.000Z</time>
      </trkpt>
      <trkpt lat="44.9574" lon="5.69956">
        <ele>695.79998779297</ele>
        <time>2026-07-05T07:14:59.000Z</time>
      </trkpt>
      <trkpt lat="44.95742" lon="5.69955">
        <ele>696.79998779297</ele>
        <time>2026-07-05T07:15:00.000Z</time>
      </trkpt>
      <trkpt lat="44.95745" lon="5.69956">
        <ele>697.59997558594</ele>
        <time>2026-07-05T07:15:01.000Z</time>
      </trkpt>
      <trkpt lat="44.95746" lon="5.69955">
        <ele>698.79998779297</ele>
        <time>2026-07-05T07:15:02.000Z</time>
      </trkpt>
      <trkpt lat="44.95748" lon="5.69954">
        <ele>699.40002441406</ele>
        <time>2026-07-05T07:15:03.000Z</time>
      </trkpt>
      <trkpt lat="44.9575" lon="5.69954">
        <ele>700</ele>
        <time>2026-07-05T07:15:04.000Z</time>
      </trkpt>
      <trkpt lat="44.95752" lon="5.69953">
        <ele>700.20001220703</ele>
        <time>2026-07-05T07:15:05.000Z</time>
      </trkpt>
      <trkpt lat="44.95754" lon="5.69953">
        <ele>700</ele>
        <time>2026-07-05T07:15:06.000Z</time>
      </trkpt>
      <trkpt lat="44.95756" lon="5.69953">
        <ele>699.79998779297</ele>
        <time>2026-07-05T07:15:07.000Z</time>
      </trkpt>
      <trkpt lat="44.95758" lon="5.69952">
        <ele>699.40002441406</ele>
        <time>2026-07-05T07:15:08.000Z</time>
      </trkpt>
      <trkpt lat="44.9576" lon="5.69951">
        <ele>699.20001220703</ele>
        <time>2026-07-05T07:15:09.000Z</time>
      </trkpt>
      <trkpt lat="44.95762" lon="5.6995">
        <ele>699</ele>
        <time>2026-07-05T07:15:10.000Z</time>
      </trkpt>
      <trkpt lat="44.95764" lon="5.6995">
        <ele>699.20001220703</ele>
        <time>2026-07-05T07:15:11.000Z</time>
      </trkpt>
      <trkpt lat="44.95766" lon="5.69948">
        <ele>699.20001220703</ele>
        <time>2026-07-05T07:15:12.000Z</time>
      </trkpt>
      <trkpt lat="44.95768" lon="5.69947">
        <ele>699.40002441406</ele>
        <time>2026-07-05T07:15:13.000Z</time>
      </trkpt>
      <trkpt lat="44.9577" lon="5.69946">
        <ele>699.20001220703</ele>
        <time>2026-07-05T07:15:14.000Z</time>
      </trkpt>
      <trkpt lat="44.95772" lon="5.69944">
        <ele>699</ele>
        <time>2026-07-05T07:15:15.000Z</time>
      </trkpt>
      <trkpt lat="44.95774" lon="5.69943">
        <ele>698.79998779297</ele>
        <time>2026-07-05T07:15:16.000Z</time>
      </trkpt>
      <trkpt lat="44.95776" lon="5.69942">
        <ele>698.59997558594</ele>
        <time>2026-07-05T07:15:17.000Z</time>
      </trkpt>
      <trkpt lat="44.95779" lon="5.69941">
        <ele>698.40002441406</ele>
        <time>2026-07-05T07:15:18.000Z</time>
      </trkpt>
      <trkpt lat="44.95781" lon="5.6994">
        <ele>697.20001220703</ele>
        <time>2026-07-05T07:15:19.000Z</time>
      </trkpt>
      <trkpt lat="44.95783" lon="5.69938">
        <ele>696.79998779297</ele>
        <time>2026-07-05T07:15:20.000Z</time>
      </trkpt>
      <trkpt lat="44.95786" lon="5.69937">
        <ele>696.59997558594</ele>
        <time>2026-07-05T07:15:21.000Z</time>
      </trkpt>
      <trkpt lat="44.95789" lon="5.69936">
        <ele>696.59997558594</ele>
        <time>2026-07-05T07:15:22.000Z</time>
      </trkpt>
      <trkpt lat="44.95792" lon="5.69936">
        <ele>696.40002441406</ele>
        <time>2026-07-05T07:15:23.000Z</time>
      </trkpt>
      <trkpt lat="44.95795" lon="5.69935">
        <ele>696.59997558594</ele>
        <time>2026-07-05T07:15:24.000Z</time>
      </trkpt>
      <trkpt lat="44.95798" lon="5.69935">
        <ele>696.59997558594</ele>
        <time>2026-07-05T07:15:25.000Z</time>
      </trkpt>
      <trkpt lat="44.95801" lon="5.69936">
        <ele>697</ele>
        <time>2026-07-05T07:15:26.000Z</time>
      </trkpt>
      <trkpt lat="44.95803" lon="5.69937">
        <ele>697.40002441406</ele>
        <time>2026-07-05T07:15:27.000Z</time>
      </trkpt>
      <trkpt lat="44.95806" lon="5.69938">
        <ele>697.59997558594</ele>
        <time>2026-07-05T07:15:28.000Z</time>
      </trkpt>
      <trkpt lat="44.95807" lon="5.6994">
        <ele>697.79998779297</ele>
        <time>2026-07-05T07:15:29.000Z</time>
      </trkpt>
      <trkpt lat="44.9581" lon="5.69941">
        <ele>698</ele>
        <time>2026-07-05T07:15:30.000Z</time>
      </trkpt>
      <trkpt lat="44.95812" lon="5.69943">
        <ele>698.40002441406</ele>
        <time>2026-07-05T07:15:31.000Z</time>
      </trkpt>
      <trkpt lat="44.95813" lon="5.69945">
        <ele>698.79998779297</ele>
        <time>2026-07-05T07:15:32.000Z</time>
      </trkpt>
      <trkpt lat="44.95815" lon="5.69947">
        <ele>699</ele>
        <time>2026-07-05T07:15:33.000Z</time>
      </trkpt>
      <trkpt lat="44.95817" lon="5.6995">
        <ele>699.20001220703</ele>
        <time>2026-07-05T07:15:34.000Z</time>
      </trkpt>
      <trkpt lat="44.95819" lon="5.69952">
        <ele>699.59997558594</ele>
        <time>2026-07-05T07:15:35.000Z</time>
      </trkpt>
      <trkpt lat="44.95821" lon="5.69954">
        <ele>699.79998779297</ele>
        <time>2026-07-05T07:15:36.000Z</time>
      </trkpt>
      <trkpt lat="44.95823" lon="5.69956">
        <ele>699.79998779297</ele>
        <time>2026-07-05T07:15:37.000Z</time>
      </trkpt>
      <trkpt lat="44.95825" lon="5.69957">
        <ele>700.20001220703</ele>
        <time>2026-07-05T07:15:38.000Z</time>
      </trkpt>
      <trkpt lat="44.95827" lon="5.69957">
        <ele>700.40002441406</ele>
        <time>2026-07-05T07:15:39.000Z</time>
      </trkpt>
      <trkpt lat="44.95829" lon="5.69958">
        <ele>700.79998779297</ele>
        <time>2026-07-05T07:15:40.000Z</time>
      </trkpt>
      <trkpt lat="44.95831" lon="5.69958">
        <ele>701</ele>
        <time>2026-07-05T07:15:41.000Z</time>
      </trkpt>
      <trkpt lat="44.95833" lon="5.69958">
        <ele>700.59997558594</ele>
        <time>2026-07-05T07:15:42.000Z</time>
      </trkpt>
      <trkpt lat="44.95835" lon="5.69958">
        <ele>700.20001220703</ele>
        <time>2026-07-05T07:15:43.000Z</time>
      </trkpt>
      <trkpt lat="44.95837" lon="5.69958">
        <ele>699.59997558594</ele>
        <time>2026-07-05T07:15:44.000Z</time>
      </trkpt>
      <trkpt lat="44.95838" lon="5.69957">
        <ele>698.79998779297</ele>
        <time>2026-07-05T07:15:45.000Z</time>
      </trkpt>
      <trkpt lat="44.9584" lon="5.69956">
        <ele>697.79998779297</ele>
        <time>2026-07-05T07:15:46.000Z</time>
      </trkpt>
      <trkpt lat="44.95841" lon="5.69956">
        <ele>696.59997558594</ele>
        <time>2026-07-05T07:15:47.000Z</time>
      </trkpt>
      <trkpt lat="44.95844" lon="5.69956">
        <ele>695.40002441406</ele>
        <time>2026-07-05T07:15:48.000Z</time>
      </trkpt>
      <trkpt lat="44.95846" lon="5.69956">
        <ele>694.40002441406</ele>
        <time>2026-07-05T07:15:49.000Z</time>
      </trkpt>
      <trkpt lat="44.95848" lon="5.69956">
        <ele>693.40002441406</ele>
        <time>2026-07-05T07:15:50.000Z</time>
      </trkpt>
      <trkpt lat="44.9585" lon="5.69956">
        <ele>692.79998779297</ele>
        <time>2026-07-05T07:15:51.000Z</time>
      </trkpt>
      <trkpt lat="44.95852" lon="5.69956">
        <ele>692.20001220703</ele>
        <time>2026-07-05T07:15:52.000Z</time>
      </trkpt>
      <trkpt lat="44.95854" lon="5.69956">
        <ele>691.79998779297</ele>
        <time>2026-07-05T07:15:53.000Z</time>
      </trkpt>
      <trkpt lat="44.95856" lon="5.69956">
        <ele>690.40002441406</ele>
        <time>2026-07-05T07:15:54.000Z</time>
      </trkpt>
      <trkpt lat="44.95858" lon="5.69957">
        <ele>689.20001220703</ele>
        <time>2026-07-05T07:15:55.000Z</time>
      </trkpt>
      <trkpt lat="44.9586" lon="5.69957">
        <ele>688.40002441406</ele>
        <time>2026-07-05T07:15:56.000Z</time>
      </trkpt>
      <trkpt lat="44.95862" lon="5.69957">
        <ele>687.79998779297</ele>
        <time>2026-07-05T07:15:57.000Z</time>
      </trkpt>
      <trkpt lat="44.95864" lon="5.69957">
        <ele>686.59997558594</ele>
        <time>2026-07-05T07:15:58.000Z</time>
      </trkpt>
      <trkpt lat="44.95866" lon="5.69957">
        <ele>685.59997558594</ele>
        <time>2026-07-05T07:15:59.000Z</time>
      </trkpt>
      <trkpt lat="44.95868" lon="5.69956">
        <ele>685</ele>
        <time>2026-07-05T07:16:00.000Z</time>
      </trkpt>
      <trkpt lat="44.9587" lon="5.69957">
        <ele>683.79998779297</ele>
        <time>2026-07-05T07:16:01.000Z</time>
      </trkpt>
      <trkpt lat="44.95873" lon="5.69956">
        <ele>683</ele>
        <time>2026-07-05T07:16:02.000Z</time>
      </trkpt>
      <trkpt lat="44.95876" lon="5.69955">
        <ele>682</ele>
        <time>2026-07-05T07:16:03.000Z</time>
      </trkpt>
      <trkpt lat="44.95877" lon="5.69955">
        <ele>681.79998779297</ele>
        <time>2026-07-05T07:16:04.000Z</time>
      </trkpt>
      <trkpt lat="44.95879" lon="5.69955">
        <ele>681.40002441406</ele>
        <time>2026-07-05T07:16:05.000Z</time>
      </trkpt>
      <trkpt lat="44.95881" lon="5.69954">
        <ele>681</ele>
        <time>2026-07-05T07:16:06.000Z</time>
      </trkpt>
      <trkpt lat="44.95883" lon="5.69954">
        <ele>680.59997558594</ele>
        <time>2026-07-05T07:16:07.000Z</time>
      </trkpt>
      <trkpt lat="44.95885" lon="5.69953">
        <ele>679.79998779297</ele>
        <time>2026-07-05T07:16:08.000Z</time>
      </trkpt>
      <trkpt lat="44.95887" lon="5.69953">
        <ele>678.79998779297</ele>
        <time>2026-07-05T07:16:09.000Z</time>
      </trkpt>
      <trkpt lat="44.95889" lon="5.69953">
        <ele>678.20001220703</ele>
        <time>2026-07-05T07:16:10.000Z</time>
      </trkpt>
      <trkpt lat="44.95891" lon="5.69954">
        <ele>677.79998779297</ele>
        <time>2026-07-05T07:16:11.000Z</time>
      </trkpt>
      <trkpt lat="44.95893" lon="5.69954">
        <ele>677.20001220703</ele>
        <time>2026-07-05T07:16:12.000Z</time>
      </trkpt>
      <trkpt lat="44.95896" lon="5.69954">
        <ele>677</ele>
        <time>2026-07-05T07:16:13.000Z</time>
      </trkpt>
      <trkpt lat="44.95898" lon="5.69954">
        <ele>676.59997558594</ele>
        <time>2026-07-05T07:16:14.000Z</time>
      </trkpt>
      <trkpt lat="44.95901" lon="5.69954">
        <ele>676.40002441406</ele>
        <time>2026-07-05T07:16:15.000Z</time>
      </trkpt>
      <trkpt lat="44.95902" lon="5.69954">
        <ele>676.59997558594</ele>
        <time>2026-07-05T07:16:16.000Z</time>
      </trkpt>
      <trkpt lat="44.95905" lon="5.69954">
        <ele>676.59997558594</ele>
        <time>2026-07-05T07:16:17.000Z</time>
      </trkpt>
      <trkpt lat="44.95906" lon="5.69953">
        <ele>676.59997558594</ele>
        <time>2026-07-05T07:16:18.000Z</time>
      </trkpt>
      <trkpt lat="44.95908" lon="5.69953">
        <ele>676.40002441406</ele>
        <time>2026-07-05T07:16:19.000Z</time>
      </trkpt>
      <trkpt lat="44.95909" lon="5.69952">
        <ele>676</ele>
        <time>2026-07-05T07:16:20.000Z</time>
      </trkpt>
      <trkpt lat="44.9591" lon="5.69953">
        <ele>675.40002441406</ele>
        <time>2026-07-05T07:16:21.000Z</time>
      </trkpt>
      <trkpt lat="44.95911" lon="5.69955">
        <ele>674.20001220703</ele>
        <time>2026-07-05T07:16:22.000Z</time>
      </trkpt>
      <trkpt lat="44.95912" lon="5.69958">
        <ele>674</ele>
        <time>2026-07-05T07:16:23.000Z</time>
      </trkpt>
      <trkpt lat="44.95913" lon="5.69961">
        <ele>673.40002441406</ele>
        <time>2026-07-05T07:16:24.000Z</time>
      </trkpt>
      <trkpt lat="44.95914" lon="5.69963">
        <ele>672.59997558594</ele>
        <time>2026-07-05T07:16:25.000Z</time>
      </trkpt>
      <trkpt lat="44.95915" lon="5.69966">
        <ele>672.20001220703</ele>
        <time>2026-07-05T07:16:26.000Z</time>
      </trkpt>
      <trkpt lat="44.95916" lon="5.69969">
        <ele>672</ele>
        <time>2026-07-05T07:16:27.000Z</time>
      </trkpt>
      <trkpt lat="44.95918" lon="5.6997">
        <ele>671.59997558594</ele>
        <time>2026-07-05T07:16:28.000Z</time>
      </trkpt>
      <trkpt lat="44.9592" lon="5.69972">
        <ele>671.20001220703</ele>
        <time>2026-07-05T07:16:29.000Z</time>
      </trkpt>
      <trkpt lat="44.95922" lon="5.69973">
        <ele>671.20001220703</ele>
        <time>2026-07-05T07:16:30.000Z</time>
      </trkpt>
      <trkpt lat="44.95923" lon="5.69972">
        <ele>670.79998779297</ele>
        <time>2026-07-05T07:16:31.000Z</time>
      </trkpt>
      <trkpt lat="44.95924" lon="5.69971">
        <ele>670.40002441406</ele>
        <time>2026-07-05T07:16:32.000Z</time>
      </trkpt>
      <trkpt lat="44.95925" lon="5.6997">
        <ele>670.20001220703</ele>
        <time>2026-07-05T07:16:33.000Z</time>
      </trkpt>
      <trkpt lat="44.95925" lon="5.69969">
        <ele>669.79998779297</ele>
        <time>2026-07-05T07:16:34.000Z</time>
      </trkpt>
      <trkpt lat="44.95926" lon="5.69968">
        <ele>668.20001220703</ele>
        <time>2026-07-05T07:16:35.000Z</time>
      </trkpt>
      <trkpt lat="44.95927" lon="5.69967">
        <ele>667.59997558594</ele>
        <time>2026-07-05T07:16:36.000Z</time>
      </trkpt>
      <trkpt lat="44.95927" lon="5.69965">
        <ele>667</ele>
        <time>2026-07-05T07:16:37.000Z</time>
      </trkpt>
      <trkpt lat="44.95928" lon="5.69964">
        <ele>666.59997558594</ele>
        <time>2026-07-05T07:16:38.000Z</time>
      </trkpt>
      <trkpt lat="44.95928" lon="5.69962">
        <ele>666.40002441406</ele>
        <time>2026-07-05T07:16:39.000Z</time>
      </trkpt>
      <trkpt lat="44.95929" lon="5.69959">
        <ele>665.40002441406</ele>
        <time>2026-07-05T07:16:40.000Z</time>
      </trkpt>
      <trkpt lat="44.95931" lon="5.69957">
        <ele>665.20001220703</ele>
        <time>2026-07-05T07:16:41.000Z</time>
      </trkpt>
      <trkpt lat="44.95933" lon="5.69956">
        <ele>665</ele>
        <time>2026-07-05T07:16:42.000Z</time>
      </trkpt>
      <trkpt lat="44.95935" lon="5.69954">
        <ele>664.59997558594</ele>
        <time>2026-07-05T07:16:43.000Z</time>
      </trkpt>
      <trkpt lat="44.95937" lon="5.69953">
        <ele>664.20001220703</ele>
        <time>2026-07-05T07:16:44.000Z</time>
      </trkpt>
      <trkpt lat="44.95938" lon="5.69952">
        <ele>664</ele>
        <time>2026-07-05T07:16:45.000Z</time>
      </trkpt>
      <trkpt lat="44.9594" lon="5.6995">
        <ele>663.59997558594</ele>
        <time>2026-07-05T07:16:46.000Z</time>
      </trkpt>
      <trkpt lat="44.9594" lon="5.69948">
        <ele>663.20001220703</ele>
        <time>2026-07-05T07:16:47.000Z</time>
      </trkpt>
      <trkpt lat="44.95942" lon="5.69946">
        <ele>663</ele>
        <time>2026-07-05T07:16:48.000Z</time>
      </trkpt>
      <trkpt lat="44.95943" lon="5.69945">
        <ele>662.59997558594</ele>
        <time>2026-07-05T07:16:49.000Z</time>
      </trkpt>
      <trkpt lat="44.95942" lon="5.69943">
        <ele>662.40002441406</ele>
        <time>2026-07-05T07:16:50.000Z</time>
      </trkpt>
      <trkpt lat="44.95943" lon="5.69941">
        <ele>662</ele>
        <time>2026-07-05T07:16:51.000Z</time>
      </trkpt>
      <trkpt lat="44.95944" lon="5.6994">
        <ele>661.40002441406</ele>
        <time>2026-07-05T07:16:52.000Z</time>
      </trkpt>
      <trkpt lat="44.95944" lon="5.69939">
        <ele>660.79998779297</ele>
        <time>2026-07-05T07:16:53.000Z</time>
      </trkpt>
      <trkpt lat="44.95944" lon="5.69938">
        <ele>660</ele>
        <time>2026-07-05T07:16:54.000Z</time>
      </trkpt>
      <trkpt lat="44.95942" lon="5.69939">
        <ele>659.79998779297</ele>
        <time>2026-07-05T07:16:55.000Z</time>
      </trkpt>
      <trkpt lat="44.95941" lon="5.69941">
        <ele>659.59997558594</ele>
        <time>2026-07-05T07:16:56.000Z</time>
      </trkpt>
      <trkpt lat="44.95938" lon="5.69942">
        <ele>659.79998779297</ele>
        <time>2026-07-05T07:16:57.000Z</time>
      </trkpt>
      <trkpt lat="44.95936" lon="5.69943">
        <ele>659.79998779297</ele>
        <time>2026-07-05T07:16:58.000Z</time>
      </trkpt>
      <trkpt lat="44.95933" lon="5.69943">
        <ele>660</ele>
        <time>2026-07-05T07:16:59.000Z</time>
      </trkpt>
      <trkpt lat="44.9593" lon="5.69944">
        <ele>660.20001220703</ele>
        <time>2026-07-05T07:17:00.000Z</time>
      </trkpt>
      <trkpt lat="44.95927" lon="5.69945">
        <ele>662</ele>
        <time>2026-07-05T07:17:01.000Z</time>
      </trkpt>
      <trkpt lat="44.95925" lon="5.69945">
        <ele>662.40002441406</ele>
        <time>2026-07-05T07:17:02.000Z</time>
      </trkpt>
      <trkpt lat="44.95922" lon="5.69946">
        <ele>662.59997558594</ele>
        <time>2026-07-05T07:17:03.000Z</time>
      </trkpt>
      <trkpt lat="44.9592" lon="5.69946">
        <ele>663.20001220703</ele>
        <time>2026-07-05T07:17:04.000Z</time>
      </trkpt>
      <trkpt lat="44.95917" lon="5.69946">
        <ele>664.20001220703</ele>
        <time>2026-07-05T07:17:05.000Z</time>
      </trkpt>
      <trkpt lat="44.95915" lon="5.69946">
        <ele>665.20001220703</ele>
        <time>2026-07-05T07:17:06.000Z</time>
      </trkpt>
      <trkpt lat="44.95912" lon="5.69946">
        <ele>666.20001220703</ele>
        <time>2026-07-05T07:17:07.000Z</time>
      </trkpt>
      <trkpt lat="44.95909" lon="5.69946">
        <ele>667.59997558594</ele>
        <time>2026-07-05T07:17:08.000Z</time>
      </trkpt>
      <trkpt lat="44.95907" lon="5.69945">
        <ele>667.40002441406</ele>
        <time>2026-07-05T07:17:09.000Z</time>
      </trkpt>
      <trkpt lat="44.95904" lon="5.69944">
        <ele>667.79998779297</ele>
        <time>2026-07-05T07:17:10.000Z</time>
      </trkpt>
      <trkpt lat="44.95901" lon="5.69944">
        <ele>668.20001220703</ele>
        <time>2026-07-05T07:17:11.000Z</time>
      </trkpt>
      <trkpt lat="44.95898" lon="5.69943">
        <ele>668.40002441406</ele>
        <time>2026-07-05T07:17:12.000Z</time>
      </trkpt>
      <trkpt lat="44.95895" lon="5.69942">
        <ele>668.40002441406</ele>
        <time>2026-07-05T07:17:13.000Z</time>
      </trkpt>
      <trkpt lat="44.95892" lon="5.69941">
        <ele>668.79998779297</ele>
        <time>2026-07-05T07:17:14.000Z</time>
      </trkpt>
      <trkpt lat="44.9589" lon="5.6994">
        <ele>669</ele>
        <time>2026-07-05T07:17:15.000Z</time>
      </trkpt>
      <trkpt lat="44.95887" lon="5.69939">
        <ele>669.40002441406</ele>
        <time>2026-07-05T07:17:16.000Z</time>
      </trkpt>
      <trkpt lat="44.95885" lon="5.69938">
        <ele>669.40002441406</ele>
        <time>2026-07-05T07:17:17.000Z</time>
      </trkpt>
      <trkpt lat="44.95882" lon="5.69937">
        <ele>669.20001220703</ele>
        <time>2026-07-05T07:17:18.000Z</time>
      </trkpt>
      <trkpt lat="44.95879" lon="5.69936">
        <ele>669.20001220703</ele>
        <time>2026-07-05T07:17:19.000Z</time>
      </trkpt>
      <trkpt lat="44.95876" lon="5.69936">
        <ele>669.20001220703</ele>
        <time>2026-07-05T07:17:20.000Z</time>
      </trkpt>
      <trkpt lat="44.95873" lon="5.69935">
        <ele>669</ele>
        <time>2026-07-05T07:17:21.000Z</time>
      </trkpt>
      <trkpt lat="44.95871" lon="5.69934">
        <ele>668.79998779297</ele>
        <time>2026-07-05T07:17:22.000Z</time>
      </trkpt>
      <trkpt lat="44.95868" lon="5.69933">
        <ele>668.79998779297</ele>
        <time>2026-07-05T07:17:23.000Z</time>
      </trkpt>
      <trkpt lat="44.95866" lon="5.69933">
        <ele>669</ele>
        <time>2026-07-05T07:17:24.000Z</time>
      </trkpt>
      <trkpt lat="44.95863" lon="5.69933">
        <ele>669</ele>
        <time>2026-07-05T07:17:25.000Z</time>
      </trkpt>
      <trkpt lat="44.95861" lon="5.69932">
        <ele>668.79998779297</ele>
        <time>2026-07-05T07:17:26.000Z</time>
      </trkpt>
      <trkpt lat="44.95858" lon="5.69931">
        <ele>668.59997558594</ele>
        <time>2026-07-05T07:17:27.000Z</time>
      </trkpt>
      <trkpt lat="44.95856" lon="5.6993">
        <ele>668.59997558594</ele>
        <time>2026-07-05T07:17:28.000Z</time>
      </trkpt>
      <trkpt lat="44.95853" lon="5.6993">
        <ele>668.59997558594</ele>
        <time>2026-07-05T07:17:29.000Z</time>
      </trkpt>
      <trkpt lat="44.95851" lon="5.69929">
        <ele>668.40002441406</ele>
        <time>2026-07-05T07:17:30.000Z</time>
      </trkpt>
      <trkpt lat="44.95848" lon="5.69928">
        <ele>668.40002441406</ele>
        <time>2026-07-05T07:17:31.000Z</time>
      </trkpt>
      <trkpt lat="44.95846" lon="5.69927">
        <ele>668.59997558594</ele>
        <time>2026-07-05T07:17:32.000Z</time>
      </trkpt>
      <trkpt lat="44.95843" lon="5.69927">
        <ele>668.59997558594</ele>
        <time>2026-07-05T07:17:33.000Z</time>
      </trkpt>
      <trkpt lat="44.9584" lon="5.69926">
        <ele>668.79998779297</ele>
        <time>2026-07-05T07:17:34.000Z</time>
      </trkpt>
      <trkpt lat="44.95837" lon="5.69925">
        <ele>669.20001220703</ele>
        <time>2026-07-05T07:17:35.000Z</time>
      </trkpt>
      <trkpt lat="44.95835" lon="5.69924">
        <ele>669.40002441406</ele>
        <time>2026-07-05T07:17:36.000Z</time>
      </trkpt>
      <trkpt lat="44.95832" lon="5.69923">
        <ele>669.59997558594</ele>
        <time>2026-07-05T07:17:37.000Z</time>
      </trkpt>
      <trkpt lat="44.95829" lon="5.69922">
        <ele>669.59997558594</ele>
        <time>2026-07-05T07:17:38.000Z</time>
      </trkpt>
      <trkpt lat="44.95826" lon="5.69922">
        <ele>670</ele>
        <time>2026-07-05T07:17:39.000Z</time>
      </trkpt>
      <trkpt lat="44.95824" lon="5.69921">
        <ele>670.79998779297</ele>
        <time>2026-07-05T07:17:40.000Z</time>
      </trkpt>
      <trkpt lat="44.95822" lon="5.6992">
        <ele>671</ele>
        <time>2026-07-05T07:17:41.000Z</time>
      </trkpt>
      <trkpt lat="44.95819" lon="5.69919">
        <ele>671.40002441406</ele>
        <time>2026-07-05T07:17:42.000Z</time>
      </trkpt>
      <trkpt lat="44.95817" lon="5.69918">
        <ele>671.59997558594</ele>
        <time>2026-07-05T07:17:43.000Z</time>
      </trkpt>
      <trkpt lat="44.95814" lon="5.69917">
        <ele>672</ele>
        <time>2026-07-05T07:17:44.000Z</time>
      </trkpt>
      <trkpt lat="44.95812" lon="5.69916">
        <ele>671.79998779297</ele>
        <time>2026-07-05T07:17:45.000Z</time>
      </trkpt>
      <trkpt lat="44.95809" lon="5.69916">
        <ele>671.79998779297</ele>
        <time>2026-07-05T07:17:46.000Z</time>
      </trkpt>
      <trkpt lat="44.95806" lon="5.69914">
        <ele>671.59997558594</ele>
        <time>2026-07-05T07:17:47.000Z</time>
      </trkpt>
      <trkpt lat="44.95804" lon="5.69913">
        <ele>671</ele>
        <time>2026-07-05T07:17:48.000Z</time>
      </trkpt>
      <trkpt lat="44.95801" lon="5.69912">
        <ele>670.40002441406</ele>
        <time>2026-07-05T07:17:49.000Z</time>
      </trkpt>
      <trkpt lat="44.95799" lon="5.69912">
        <ele>669.79998779297</ele>
        <time>2026-07-05T07:17:50.000Z</time>
      </trkpt>
      <trkpt lat="44.95796" lon="5.69911">
        <ele>669.79998779297</ele>
        <time>2026-07-05T07:17:51.000Z</time>
      </trkpt>
      <trkpt lat="44.95794" lon="5.6991">
        <ele>669.59997558594</ele>
        <time>2026-07-05T07:17:52.000Z</time>
      </trkpt>
      <trkpt lat="44.95791" lon="5.6991">
        <ele>669.79998779297</ele>
        <time>2026-07-05T07:17:53.000Z</time>
      </trkpt>
      <trkpt lat="44.95789" lon="5.69909">
        <ele>670</ele>
        <time>2026-07-05T07:17:54.000Z</time>
      </trkpt>
      <trkpt lat="44.95786" lon="5.69909">
        <ele>670.20001220703</ele>
        <time>2026-07-05T07:17:55.000Z</time>
      </trkpt>
      <trkpt lat="44.95784" lon="5.69909">
        <ele>670.59997558594</ele>
        <time>2026-07-05T07:17:56.000Z</time>
      </trkpt>
      <trkpt lat="44.95782" lon="5.69909">
        <ele>671</ele>
        <time>2026-07-05T07:17:57.000Z</time>
      </trkpt>
      <trkpt lat="44.9578" lon="5.69908">
        <ele>671.20001220703</ele>
        <time>2026-07-05T07:17:58.000Z</time>
      </trkpt>
      <trkpt lat="44.95777" lon="5.69908">
        <ele>671.20001220703</ele>
        <time>2026-07-05T07:17:59.000Z</time>
      </trkpt>
      <trkpt lat="44.95775" lon="5.69907">
        <ele>671.40002441406</ele>
        <time>2026-07-05T07:18:00.000Z</time>
      </trkpt>
      <trkpt lat="44.95772" lon="5.69908">
        <ele>671.40002441406</ele>
        <time>2026-07-05T07:18:01.000Z</time>
      </trkpt>
      <trkpt lat="44.95769" lon="5.69908">
        <ele>671.40002441406</ele>
        <time>2026-07-05T07:18:02.000Z</time>
      </trkpt>
      <trkpt lat="44.95767" lon="5.69909">
        <ele>671</ele>
        <time>2026-07-05T07:18:03.000Z</time>
      </trkpt>
      <trkpt lat="44.95765" lon="5.69909">
        <ele>671</ele>
        <time>2026-07-05T07:18:04.000Z</time>
      </trkpt>
      <trkpt lat="44.95763" lon="5.6991">
        <ele>671</ele>
        <time>2026-07-05T07:18:05.000Z</time>
      </trkpt>
      <trkpt lat="44.95761" lon="5.6991">
        <ele>670.79998779297</ele>
        <time>2026-07-05T07:18:06.000Z</time>
      </trkpt>
      <trkpt lat="44.95759" lon="5.69911">
        <ele>670.79998779297</ele>
        <time>2026-07-05T07:18:07.000Z</time>
      </trkpt>
      <trkpt lat="44.95757" lon="5.69912">
        <ele>670.79998779297</ele>
        <time>2026-07-05T07:18:08.000Z</time>
      </trkpt>
      <trkpt lat="44.95754" lon="5.69913">
        <ele>671</ele>
        <time>2026-07-05T07:18:09.000Z</time>
      </trkpt>
      <trkpt lat="44.95752" lon="5.69913">
        <ele>671.40002441406</ele>
        <time>2026-07-05T07:18:10.000Z</time>
      </trkpt>
      <trkpt lat="44.95749" lon="5.69914">
        <ele>671.59997558594</ele>
        <time>2026-07-05T07:18:11.000Z</time>
      </trkpt>
      <trkpt lat="44.95747" lon="5.69915">
        <ele>672.59997558594</ele>
        <time>2026-07-05T07:18:12.000Z</time>
      </trkpt>
      <trkpt lat="44.95745" lon="5.69916">
        <ele>673.79998779297</ele>
        <time>2026-07-05T07:18:13.000Z</time>
      </trkpt>
      <trkpt lat="44.95743" lon="5.69917">
        <ele>674</ele>
        <time>2026-07-05T07:18:14.000Z</time>
      </trkpt>
      <trkpt lat="44.95741" lon="5.69918">
        <ele>674.20001220703</ele>
        <time>2026-07-05T07:18:15.000Z</time>
      </trkpt>
      <trkpt lat="44.95739" lon="5.6992">
        <ele>674.59997558594</ele>
        <time>2026-07-05T07:18:16.000Z</time>
      </trkpt>
      <trkpt lat="44.95737" lon="5.69922">
        <ele>674.79998779297</ele>
        <time>2026-07-05T07:18:17.000Z</time>
      </trkpt>
      <trkpt lat="44.95735" lon="5.69924">
        <ele>675</ele>
        <time>2026-07-05T07:18:18.000Z</time>
      </trkpt>
      <trkpt lat="44.95732" lon="5.69926">
        <ele>675.20001220703</ele>
        <time>2026-07-05T07:18:19.000Z</time>
      </trkpt>
      <trkpt lat="44.9573" lon="5.69927">
        <ele>675</ele>
        <time>2026-07-05T07:18:20.000Z</time>
      </trkpt>
      <trkpt lat="44.95728" lon="5.69929">
        <ele>675</ele>
        <time>2026-07-05T07:18:21.000Z</time>
      </trkpt>
      <trkpt lat="44.95727" lon="5.69931">
        <ele>675</ele>
        <time>2026-07-05T07:18:22.000Z</time>
      </trkpt>
      <trkpt lat="44.95725" lon="5.69933">
        <ele>675</ele>
        <time>2026-07-05T07:18:23.000Z</time>
      </trkpt>
      <trkpt lat="44.95722" lon="5.69935">
        <ele>675</ele>
        <time>2026-07-05T07:18:24.000Z</time>
      </trkpt>
      <trkpt lat="44.9572" lon="5.69937">
        <ele>675</ele>
        <time>2026-07-05T07:18:25.000Z</time>
      </trkpt>
      <trkpt lat="44.95717" lon="5.69939">
        <ele>674.79998779297</ele>
        <time>2026-07-05T07:18:26.000Z</time>
      </trkpt>
      <trkpt lat="44.95715" lon="5.69941">
        <ele>674.79998779297</ele>
        <time>2026-07-05T07:18:27.000Z</time>
      </trkpt>
      <trkpt lat="44.95713" lon="5.69943">
        <ele>674.59997558594</ele>
        <time>2026-07-05T07:18:28.000Z</time>
      </trkpt>
      <trkpt lat="44.95711" lon="5.69946">
        <ele>674.59997558594</ele>
        <time>2026-07-05T07:18:29.000Z</time>
      </trkpt>
      <trkpt lat="44.95709" lon="5.69948">
        <ele>674.40002441406</ele>
        <time>2026-07-05T07:18:30.000Z</time>
      </trkpt>
      <trkpt lat="44.95707" lon="5.6995">
        <ele>674.40002441406</ele>
        <time>2026-07-05T07:18:31.000Z</time>
      </trkpt>
      <trkpt lat="44.95704" lon="5.69952">
        <ele>674.40002441406</ele>
        <time>2026-07-05T07:18:32.000Z</time>
      </trkpt>
      <trkpt lat="44.95702" lon="5.69955">
        <ele>674.40002441406</ele>
        <time>2026-07-05T07:18:33.000Z</time>
      </trkpt>
      <trkpt lat="44.957" lon="5.69957">
        <ele>674.40002441406</ele>
        <time>2026-07-05T07:18:34.000Z</time>
      </trkpt>
      <trkpt lat="44.95698" lon="5.69959">
        <ele>674.59997558594</ele>
        <time>2026-07-05T07:18:35.000Z</time>
      </trkpt>
      <trkpt lat="44.95696" lon="5.69961">
        <ele>674.59997558594</ele>
        <time>2026-07-05T07:18:36.000Z</time>
      </trkpt>
      <trkpt lat="44.95694" lon="5.69962">
        <ele>674.79998779297</ele>
        <time>2026-07-05T07:18:37.000Z</time>
      </trkpt>
      <trkpt lat="44.95693" lon="5.69964">
        <ele>673.59997558594</ele>
        <time>2026-07-05T07:18:38.000Z</time>
      </trkpt>
      <trkpt lat="44.95691" lon="5.69965">
        <ele>672.40002441406</ele>
        <time>2026-07-05T07:18:39.000Z</time>
      </trkpt>
      <trkpt lat="44.9569" lon="5.69967">
        <ele>671.20001220703</ele>
        <time>2026-07-05T07:18:40.000Z</time>
      </trkpt>
      <trkpt lat="44.95689" lon="5.69968">
        <ele>670.40002441406</ele>
        <time>2026-07-05T07:18:41.000Z</time>
      </trkpt>
      <trkpt lat="44.95687" lon="5.69969">
        <ele>669.40002441406</ele>
        <time>2026-07-05T07:18:42.000Z</time>
      </trkpt>
      <trkpt lat="44.95682" lon="5.69971">
        <ele>669.40002441406</ele>
        <time>2026-07-05T07:18:43.000Z</time>
      </trkpt>
      <trkpt lat="44.9568" lon="5.69974">
        <ele>669</ele>
        <time>2026-07-05T07:18:44.000Z</time>
      </trkpt>
      <trkpt lat="44.95678" lon="5.69977">
        <ele>669</ele>
        <time>2026-07-05T07:18:45.000Z</time>
      </trkpt>
      <trkpt lat="44.95675" lon="5.69977">
        <ele>669</ele>
        <time>2026-07-05T07:18:46.000Z</time>
      </trkpt>
      <trkpt lat="44.95673" lon="5.69979">
        <ele>669.20001220703</ele>
        <time>2026-07-05T07:18:47.000Z</time>
      </trkpt>
      <trkpt lat="44.9567" lon="5.69981">
        <ele>669.40002441406</ele>
        <time>2026-07-05T07:18:48.000Z</time>
      </trkpt>
      <trkpt lat="44.95668" lon="5.69982">
        <ele>669.40002441406</ele>
        <time>2026-07-05T07:18:49.000Z</time>
      </trkpt>
      <trkpt lat="44.95666" lon="5.69984">
        <ele>669.40002441406</ele>
        <time>2026-07-05T07:18:50.000Z</time>
      </trkpt>
      <trkpt lat="44.95664" lon="5.69986">
        <ele>669.40002441406</ele>
        <time>2026-07-05T07:18:51.000Z</time>
      </trkpt>
      <trkpt lat="44.95662" lon="5.69988">
        <ele>669.40002441406</ele>
        <time>2026-07-05T07:18:52.000Z</time>
      </trkpt>
      <trkpt lat="44.9566" lon="5.69989">
        <ele>669.59997558594</ele>
        <time>2026-07-05T07:18:53.000Z</time>
      </trkpt>
      <trkpt lat="44.95658" lon="5.69991">
        <ele>669.79998779297</ele>
        <time>2026-07-05T07:18:54.000Z</time>
      </trkpt>
      <trkpt lat="44.95655" lon="5.69993">
        <ele>670</ele>
        <time>2026-07-05T07:18:55.000Z</time>
      </trkpt>
      <trkpt lat="44.95653" lon="5.69994">
        <ele>670.20001220703</ele>
        <time>2026-07-05T07:18:56.000Z</time>
      </trkpt>
      <trkpt lat="44.95651" lon="5.69996">
        <ele>670.40002441406</ele>
        <time>2026-07-05T07:18:57.000Z</time>
      </trkpt>
      <trkpt lat="44.95649" lon="5.69998">
        <ele>670.40002441406</ele>
        <time>2026-07-05T07:18:58.000Z</time>
      </trkpt>
      <trkpt lat="44.95646" lon="5.69999">
        <ele>670.59997558594</ele>
        <time>2026-07-05T07:18:59.000Z</time>
      </trkpt>
      <trkpt lat="44.95644" lon="5.70001">
        <ele>670.59997558594</ele>
        <time>2026-07-05T07:19:00.000Z</time>
      </trkpt>
      <trkpt lat="44.95642" lon="5.70002">
        <ele>670.59997558594</ele>
        <time>2026-07-05T07:19:01.000Z</time>
      </trkpt>
      <trkpt lat="44.95639" lon="5.70003">
        <ele>670.59997558594</ele>
        <time>2026-07-05T07:19:02.000Z</time>
      </trkpt>
      <trkpt lat="44.95636" lon="5.70004">
        <ele>670.79998779297</ele>
        <time>2026-07-05T07:19:03.000Z</time>
      </trkpt>
      <trkpt lat="44.95634" lon="5.70005">
        <ele>670.79998779297</ele>
        <time>2026-07-05T07:19:04.000Z</time>
      </trkpt>
      <trkpt lat="44.95631" lon="5.70006">
        <ele>670.79998779297</ele>
        <time>2026-07-05T07:19:05.000Z</time>
      </trkpt>
      <trkpt lat="44.95629" lon="5.70007">
        <ele>670.79998779297</ele>
        <time>2026-07-05T07:19:06.000Z</time>
      </trkpt>
      <trkpt lat="44.95626" lon="5.70008">
        <ele>671</ele>
        <time>2026-07-05T07:19:07.000Z</time>
      </trkpt>
      <trkpt lat="44.95623" lon="5.70009">
        <ele>671</ele>
        <time>2026-07-05T07:19:08.000Z</time>
      </trkpt>
      <trkpt lat="44.95621" lon="5.70009">
        <ele>671</ele>
        <time>2026-07-05T07:19:09.000Z</time>
      </trkpt>
      <trkpt lat="44.95618" lon="5.7001">
        <ele>671.20001220703</ele>
        <time>2026-07-05T07:19:10.000Z</time>
      </trkpt>
      <trkpt lat="44.95616" lon="5.7001">
        <ele>671.20001220703</ele>
        <time>2026-07-05T07:19:11.000Z</time>
      </trkpt>
      <trkpt lat="44.95613" lon="5.70011">
        <ele>671.40002441406</ele>
        <time>2026-07-05T07:19:12.000Z</time>
      </trkpt>
      <trkpt lat="44.9561" lon="5.70011">
        <ele>671.59997558594</ele>
        <time>2026-07-05T07:19:13.000Z</time>
      </trkpt>
      <trkpt lat="44.95608" lon="5.7001">
        <ele>671.59997558594</ele>
        <time>2026-07-05T07:19:14.000Z</time>
      </trkpt>
      <trkpt lat="44.95605" lon="5.7001">
        <ele>671.79998779297</ele>
        <time>2026-07-05T07:19:15.000Z</time>
      </trkpt>
      <trkpt lat="44.95603" lon="5.7001">
        <ele>672</ele>
        <time>2026-07-05T07:19:16.000Z</time>
      </trkpt>
      <trkpt lat="44.956" lon="5.7001">
        <ele>672</ele>
        <time>2026-07-05T07:19:17.000Z</time>
      </trkpt>
      <trkpt lat="44.95597" lon="5.7001">
        <ele>672.20001220703</ele>
        <time>2026-07-05T07:19:18.000Z</time>
      </trkpt>
      <trkpt lat="44.95595" lon="5.70009">
        <ele>672.20001220703</ele>
        <time>2026-07-05T07:19:19.000Z</time>
      </trkpt>
      <trkpt lat="44.95592" lon="5.70008">
        <ele>672.40002441406</ele>
        <time>2026-07-05T07:19:20.000Z</time>
      </trkpt>
      <trkpt lat="44.95589" lon="5.70008">
        <ele>672.59997558594</ele>
        <time>2026-07-05T07:19:21.000Z</time>
      </trkpt>
      <trkpt lat="44.95586" lon="5.70006">
        <ele>672.59997558594</ele>
        <time>2026-07-05T07:19:22.000Z</time>
      </trkpt>
      <trkpt lat="44.95584" lon="5.70005">
        <ele>672.79998779297</ele>
        <time>2026-07-05T07:19:23.000Z</time>
      </trkpt>
      <trkpt lat="44.95581" lon="5.70004">
        <ele>673</ele>
        <time>2026-07-05T07:19:24.000Z</time>
      </trkpt>
      <trkpt lat="44.95579" lon="5.70002">
        <ele>673.20001220703</ele>
        <time>2026-07-05T07:19:25.000Z</time>
      </trkpt>
      <trkpt lat="44.95576" lon="5.70001">
        <ele>673.20001220703</ele>
        <time>2026-07-05T07:19:26.000Z</time>
      </trkpt>
      <trkpt lat="44.95574" lon="5.69999">
        <ele>673.20001220703</ele>
        <time>2026-07-05T07:19:27.000Z</time>
      </trkpt>
      <trkpt lat="44.95572" lon="5.69997">
        <ele>673.40002441406</ele>
        <time>2026-07-05T07:19:28.000Z</time>
      </trkpt>
      <trkpt lat="44.9557" lon="5.69995">
        <ele>673.40002441406</ele>
        <time>2026-07-05T07:19:29.000Z</time>
      </trkpt>
      <trkpt lat="44.95567" lon="5.69993">
        <ele>673.59997558594</ele>
        <time>2026-07-05T07:19:30.000Z</time>
      </trkpt>
      <trkpt lat="44.95565" lon="5.69991">
        <ele>673.79998779297</ele>
        <time>2026-07-05T07:19:31.000Z</time>
      </trkpt>
      <trkpt lat="44.95562" lon="5.69989">
        <ele>674</ele>
        <time>2026-07-05T07:19:32.000Z</time>
      </trkpt>
      <trkpt lat="44.9556" lon="5.69988">
        <ele>674.20001220703</ele>
        <time>2026-07-05T07:19:33.000Z</time>
      </trkpt>
      <trkpt lat="44.95558" lon="5.69987">
        <ele>674.20001220703</ele>
        <time>2026-07-05T07:19:34.000Z</time>
      </trkpt>
      <trkpt lat="44.95556" lon="5.69986">
        <ele>674.40002441406</ele>
        <time>2026-07-05T07:19:35.000Z</time>
      </trkpt>
      <trkpt lat="44.95555" lon="5.69985">
        <ele>674.40002441406</ele>
        <time>2026-07-05T07:19:36.000Z</time>
      </trkpt>
      <trkpt lat="44.95552" lon="5.69985">
        <ele>674.40002441406</ele>
        <time>2026-07-05T07:19:37.000Z</time>
      </trkpt>
      <trkpt lat="44.9555" lon="5.69985">
        <ele>674.40002441406</ele>
        <time>2026-07-05T07:19:38.000Z</time>
      </trkpt>
      <trkpt lat="44.95548" lon="5.69984">
        <ele>674.59997558594</ele>
        <time>2026-07-05T07:19:39.000Z</time>
      </trkpt>
      <trkpt lat="44.95546" lon="5.69983">
        <ele>674.59997558594</ele>
        <time>2026-07-05T07:19:40.000Z</time>
      </trkpt>
      <trkpt lat="44.95543" lon="5.69982">
        <ele>674.79998779297</ele>
        <time>2026-07-05T07:19:41.000Z</time>
      </trkpt>
      <trkpt lat="44.95541" lon="5.69979">
        <ele>674.79998779297</ele>
        <time>2026-07-05T07:19:42.000Z</time>
      </trkpt>
      <trkpt lat="44.95538" lon="5.69977">
        <ele>674.79998779297</ele>
        <time>2026-07-05T07:19:43.000Z</time>
      </trkpt>
      <trkpt lat="44.95536" lon="5.69975">
        <ele>674.79998779297</ele>
        <time>2026-07-05T07:19:44.000Z</time>
      </trkpt>
      <trkpt lat="44.95533" lon="5.69973">
        <ele>674.59997558594</ele>
        <time>2026-07-05T07:19:45.000Z</time>
      </trkpt>
      <trkpt lat="44.95532" lon="5.6997">
        <ele>674.59997558594</ele>
        <time>2026-07-05T07:19:46.000Z</time>
      </trkpt>
      <trkpt lat="44.9553" lon="5.69968">
        <ele>674.59997558594</ele>
        <time>2026-07-05T07:19:47.000Z</time>
      </trkpt>
      <trkpt lat="44.95529" lon="5.69966">
        <ele>674.59997558594</ele>
        <time>2026-07-05T07:19:48.000Z</time>
      </trkpt>
      <trkpt lat="44.95528" lon="5.69963">
        <ele>674.59997558594</ele>
        <time>2026-07-05T07:19:49.000Z</time>
      </trkpt>
      <trkpt lat="44.95526" lon="5.6996">
        <ele>674.59997558594</ele>
        <time>2026-07-05T07:19:50.000Z</time>
      </trkpt>
      <trkpt lat="44.95525" lon="5.69957">
        <ele>674.59997558594</ele>
        <time>2026-07-05T07:19:51.000Z</time>
      </trkpt>
      <trkpt lat="44.95524" lon="5.69955">
        <ele>674.59997558594</ele>
        <time>2026-07-05T07:19:52.000Z</time>
      </trkpt>
      <trkpt lat="44.95522" lon="5.69953">
        <ele>674.79998779297</ele>
        <time>2026-07-05T07:19:53.000Z</time>
      </trkpt>
      <trkpt lat="44.95522" lon="5.69951">
        <ele>674.79998779297</ele>
        <time>2026-07-05T07:19:54.000Z</time>
      </trkpt>
      <trkpt lat="44.95521" lon="5.6995">
        <ele>674.79998779297</ele>
        <time>2026-07-05T07:19:55.000Z</time>
      </trkpt>
      <trkpt lat="44.9552" lon="5.69949">
        <ele>674.40002441406</ele>
        <time>2026-07-05T07:19:56.000Z</time>
      </trkpt>
      <trkpt lat="44.95519" lon="5.69948">
        <ele>674.20001220703</ele>
        <time>2026-07-05T07:19:57.000Z</time>
      </trkpt>
      <trkpt lat="44.95517" lon="5.69947">
        <ele>674.40002441406</ele>
        <time>2026-07-05T07:19:58.000Z</time>
      </trkpt>
      <trkpt lat="44.95516" lon="5.69948">
        <ele>674.59997558594</ele>
        <time>2026-07-05T07:19:59.000Z</time>
      </trkpt>
      <trkpt lat="44.95515" lon="5.69948">
        <ele>675</ele>
        <time>2026-07-05T07:20:00.000Z</time>
      </trkpt>
      <trkpt lat="44.95514" lon="5.69948">
        <ele>675.20001220703</ele>
        <time>2026-07-05T07:20:01.000Z</time>
      </trkpt>
      <trkpt lat="44.95513" lon="5.69947">
        <ele>675.40002441406</ele>
        <time>2026-07-05T07:20:02.000Z</time>
      </trkpt>
      <trkpt lat="44.95512" lon="5.69947">
        <ele>675.79998779297</ele>
        <time>2026-07-05T07:20:03.000Z</time>
      </trkpt>
      <trkpt lat="44.95511" lon="5.69947">
        <ele>676</ele>
        <time>2026-07-05T07:20:04.000Z</time>
      </trkpt>
      <trkpt lat="44.9551" lon="5.69946">
        <ele>676.40002441406</ele>
        <time>2026-07-05T07:20:05.000Z</time>
      </trkpt>
      <trkpt lat="44.95509" lon="5.69945">
        <ele>676.59997558594</ele>
        <time>2026-07-05T07:20:06.000Z</time>
      </trkpt>
      <trkpt lat="44.95507" lon="5.69945">
        <ele>677.40002441406</ele>
        <time>2026-07-05T07:20:07.000Z</time>
      </trkpt>
      <trkpt lat="44.95507" lon="5.69945">
        <ele>678</ele>
        <time>2026-07-05T07:20:08.000Z</time>
      </trkpt>
      <trkpt lat="44.95505" lon="5.69944">
        <ele>678.20001220703</ele>
        <time>2026-07-05T07:20:09.000Z</time>
      </trkpt>
      <trkpt lat="44.95504" lon="5.69944">
        <ele>678.59997558594</ele>
        <time>2026-07-05T07:20:10.000Z</time>
      </trkpt>
      <trkpt lat="44.95502" lon="5.69944">
        <ele>678.79998779297</ele>
        <time>2026-07-05T07:20:11.000Z</time>
      </trkpt>
      <trkpt lat="44.95501" lon="5.69944">
        <ele>679</ele>
        <time>2026-07-05T07:20:12.000Z</time>
      </trkpt>
      <trkpt lat="44.95499" lon="5.69944">
        <ele>679.59997558594</ele>
        <time>2026-07-05T07:20:13.000Z</time>
      </trkpt>
      <trkpt lat="44.95498" lon="5.69944">
        <ele>680.20001220703</ele>
        <time>2026-07-05T07:20:14.000Z</time>
      </trkpt>
      <trkpt lat="44.95497" lon="5.69944">
        <ele>680.20001220703</ele>
        <time>2026-07-05T07:20:15.000Z</time>
      </trkpt>
      <trkpt lat="44.95496" lon="5.69945">
        <ele>680.40002441406</ele>
        <time>2026-07-05T07:20:16.000Z</time>
      </trkpt>
      <trkpt lat="44.95495" lon="5.69945">
        <ele>680.40002441406</ele>
        <time>2026-07-05T07:20:17.000Z</time>
      </trkpt>
      <trkpt lat="44.95493" lon="5.69945">
        <ele>680.40002441406</ele>
        <time>2026-07-05T07:20:18.000Z</time>
      </trkpt>
      <trkpt lat="44.95492" lon="5.69946">
        <ele>680.40002441406</ele>
        <time>2026-07-05T07:20:19.000Z</time>
      </trkpt>
      <trkpt lat="44.95492" lon="5.69946">
        <ele>680.20001220703</ele>
        <time>2026-07-05T07:20:20.000Z</time>
      </trkpt>
      <trkpt lat="44.95491" lon="5.69946">
        <ele>680.20001220703</ele>
        <time>2026-07-05T07:20:21.000Z</time>
      </trkpt>
      <trkpt lat="44.95489" lon="5.69946">
        <ele>680.20001220703</ele>
        <time>2026-07-05T07:20:22.000Z</time>
      </trkpt>
      <trkpt lat="44.95488" lon="5.69946">
        <ele>680.20001220703</ele>
        <time>2026-07-05T07:20:23.000Z</time>
      </trkpt>
      <trkpt lat="44.95487" lon="5.69946">
        <ele>680.20001220703</ele>
        <time>2026-07-05T07:20:24.000Z</time>
      </trkpt>
      <trkpt lat="44.95486" lon="5.69946">
        <ele>680.20001220703</ele>
        <time>2026-07-05T07:20:25.000Z</time>
      </trkpt>
      <trkpt lat="44.95486" lon="5.69947">
        <ele>680.59997558594</ele>
        <time>2026-07-05T07:20:26.000Z</time>
      </trkpt>
      <trkpt lat="44.95485" lon="5.69947">
        <ele>680.79998779297</ele>
        <time>2026-07-05T07:20:27.000Z</time>
      </trkpt>
      <trkpt lat="44.95483" lon="5.69946">
        <ele>681.20001220703</ele>
        <time>2026-07-05T07:20:28.000Z</time>
      </trkpt>
      <trkpt lat="44.95483" lon="5.69947">
        <ele>681.79998779297</ele>
        <time>2026-07-05T07:20:29.000Z</time>
      </trkpt>
      <trkpt lat="44.95482" lon="5.69947">
        <ele>682</ele>
        <time>2026-07-05T07:20:30.000Z</time>
      </trkpt>
      <trkpt lat="44.95481" lon="5.69947">
        <ele>682.40002441406</ele>
        <time>2026-07-05T07:20:31.000Z</time>
      </trkpt>
      <trkpt lat="44.9548" lon="5.69947">
        <ele>682.79998779297</ele>
        <time>2026-07-05T07:20:32.000Z</time>
      </trkpt>
      <trkpt lat="44.9548" lon="5.69948">
        <ele>683</ele>
        <time>2026-07-05T07:20:33.000Z</time>
      </trkpt>
      <trkpt lat="44.95479" lon="5.69948">
        <ele>683</ele>
        <time>2026-07-05T07:20:34.000Z</time>
      </trkpt>
      <trkpt lat="44.95478" lon="5.69948">
        <ele>683</ele>
        <time>2026-07-05T07:20:35.000Z</time>
      </trkpt>
      <trkpt lat="44.95477" lon="5.69948">
        <ele>683</ele>
        <time>2026-07-05T07:20:36.000Z</time>
      </trkpt>
      <trkpt lat="44.95476" lon="5.69948">
        <ele>683.20001220703</ele>
        <time>2026-07-05T07:20:37.000Z</time>
      </trkpt>
      <trkpt lat="44.95475" lon="5.69948">
        <ele>683.20001220703</ele>
        <time>2026-07-05T07:20:38.000Z</time>
      </trkpt>
      <trkpt lat="44.95474" lon="5.69949">
        <ele>683.59997558594</ele>
        <time>2026-07-05T07:20:39.000Z</time>
      </trkpt>
      <trkpt lat="44.95473" lon="5.69949">
        <ele>683.79998779297</ele>
        <time>2026-07-05T07:20:40.000Z</time>
      </trkpt>
      <trkpt lat="44.95472" lon="5.6995">
        <ele>684</ele>
        <time>2026-07-05T07:20:41.000Z</time>
      </trkpt>
      <trkpt lat="44.95471" lon="5.6995">
        <ele>684.20001220703</ele>
        <time>2026-07-05T07:20:42.000Z</time>
      </trkpt>
      <trkpt lat="44.9547" lon="5.69951">
        <ele>684.40002441406</ele>
        <time>2026-07-05T07:20:43.000Z</time>
      </trkpt>
      <trkpt lat="44.9547" lon="5.69952">
        <ele>684.79998779297</ele>
        <time>2026-07-05T07:20:44.000Z</time>
      </trkpt>
      <trkpt lat="44.95469" lon="5.69952">
        <ele>685.79998779297</ele>
        <time>2026-07-05T07:20:45.000Z</time>
      </trkpt>
      <trkpt lat="44.95468" lon="5.69952">
        <ele>686</ele>
        <time>2026-07-05T07:20:46.000Z</time>
      </trkpt>
      <trkpt lat="44.95467" lon="5.69953">
        <ele>686.20001220703</ele>
        <time>2026-07-05T07:20:47.000Z</time>
      </trkpt>
      <trkpt lat="44.95466" lon="5.69954">
        <ele>686.40002441406</ele>
        <time>2026-07-05T07:20:48.000Z</time>
      </trkpt>
      <trkpt lat="44.95466" lon="5.69954">
        <ele>687</ele>
        <time>2026-07-05T07:20:49.000Z</time>
      </trkpt>
      <trkpt lat="44.95465" lon="5.69955">
        <ele>687.59997558594</ele>
        <time>2026-07-05T07:20:50.000Z</time>
      </trkpt>
      <trkpt lat="44.95464" lon="5.69955">
        <ele>687.79998779297</ele>
        <time>2026-07-05T07:20:51.000Z</time>
      </trkpt>
      <trkpt lat="44.95463" lon="5.69955">
        <ele>688.20001220703</ele>
        <time>2026-07-05T07:20:52.000Z</time>
      </trkpt>
      <trkpt lat="44.95462" lon="5.69955">
        <ele>688.79998779297</ele>
        <time>2026-07-05T07:20:53.000Z</time>
      </trkpt>
      <trkpt lat="44.95461" lon="5.69956">
        <ele>689.20001220703</ele>
        <time>2026-07-05T07:20:54.000Z</time>
      </trkpt>
      <trkpt lat="44.9546" lon="5.69956">
        <ele>689.59997558594</ele>
        <time>2026-07-05T07:20:55.000Z</time>
      </trkpt>
      <trkpt lat="44.95459" lon="5.69956">
        <ele>689.59997558594</ele>
        <time>2026-07-05T07:20:56.000Z</time>
      </trkpt>
      <trkpt lat="44.95458" lon="5.69957">
        <ele>689.79998779297</ele>
        <time>2026-07-05T07:20:57.000Z</time>
      </trkpt>
      <trkpt lat="44.95457" lon="5.69957">
        <ele>690</ele>
        <time>2026-07-05T07:20:58.000Z</time>
      </trkpt>
      <trkpt lat="44.95456" lon="5.69957">
        <ele>690.59997558594</ele>
        <time>2026-07-05T07:20:59.000Z</time>
      </trkpt>
      <trkpt lat="44.95455" lon="5.69957">
        <ele>690.79998779297</ele>
        <time>2026-07-05T07:21:00.000Z</time>
      </trkpt>
      <trkpt lat="44.95453" lon="5.69958">
        <ele>691.20001220703</ele>
        <time>2026-07-05T07:21:01.000Z</time>
      </trkpt>
      <trkpt lat="44.95452" lon="5.69958">
        <ele>691.40002441406</ele>
        <time>2026-07-05T07:21:02.000Z</time>
      </trkpt>
      <trkpt lat="44.95451" lon="5.69959">
        <ele>691.59997558594</ele>
        <time>2026-07-05T07:21:03.000Z</time>
      </trkpt>
      <trkpt lat="44.9545" lon="5.69959">
        <ele>691.59997558594</ele>
        <time>2026-07-05T07:21:04.000Z</time>
      </trkpt>
      <trkpt lat="44.95449" lon="5.6996">
        <ele>691.79998779297</ele>
        <time>2026-07-05T07:21:05.000Z</time>
      </trkpt>
      <trkpt lat="44.95448" lon="5.6996">
        <ele>692.20001220703</ele>
        <time>2026-07-05T07:21:06.000Z</time>
      </trkpt>
      <trkpt lat="44.95446" lon="5.69961">
        <ele>692.40002441406</ele>
        <time>2026-07-05T07:21:07.000Z</time>
      </trkpt>
      <trkpt lat="44.95446" lon="5.69962">
        <ele>692.79998779297</ele>
        <time>2026-07-05T07:21:08.000Z</time>
      </trkpt>
      <trkpt lat="44.95445" lon="5.69963">
        <ele>693.20001220703</ele>
        <time>2026-07-05T07:21:09.000Z</time>
      </trkpt>
      <trkpt lat="44.95445" lon="5.69965">
        <ele>693.59997558594</ele>
        <time>2026-07-05T07:21:10.000Z</time>
      </trkpt>
      <trkpt lat="44.95445" lon="5.69966">
        <ele>694</ele>
        <time>2026-07-05T07:21:11.000Z</time>
      </trkpt>
      <trkpt lat="44.95445" lon="5.69968">
        <ele>694.20001220703</ele>
        <time>2026-07-05T07:21:12.000Z</time>
      </trkpt>
      <trkpt lat="44.95446" lon="5.69969">
        <ele>694.40002441406</ele>
        <time>2026-07-05T07:21:13.000Z</time>
      </trkpt>
      <trkpt lat="44.95446" lon="5.6997">
        <ele>694.59997558594</ele>
        <time>2026-07-05T07:21:14.000Z</time>
      </trkpt>
      <trkpt lat="44.95447" lon="5.69972">
        <ele>694.79998779297</ele>
        <time>2026-07-05T07:21:15.000Z</time>
      </trkpt>
      <trkpt lat="44.95448" lon="5.69973">
        <ele>695</ele>
        <time>2026-07-05T07:21:16.000Z</time>
      </trkpt>
      <trkpt lat="44.95448" lon="5.69974">
        <ele>695.40002441406</ele>
        <time>2026-07-05T07:21:17.000Z</time>
      </trkpt>
      <trkpt lat="44.95448" lon="5.69976">
        <ele>695.59997558594</ele>
        <time>2026-07-05T07:21:18.000Z</time>
      </trkpt>
      <trkpt lat="44.9545" lon="5.69977">
        <ele>695.59997558594</ele>
        <time>2026-07-05T07:21:19.000Z</time>
      </trkpt>
      <trkpt lat="44.95451" lon="5.69977">
        <ele>695.59997558594</ele>
        <time>2026-07-05T07:21:20.000Z</time>
      </trkpt>
      <trkpt lat="44.95452" lon="5.69978">
        <ele>696</ele>
        <time>2026-07-05T07:21:21.000Z</time>
      </trkpt>
      <trkpt lat="44.95452" lon="5.69979">
        <ele>696.20001220703</ele>
        <time>2026-07-05T07:21:22.000Z</time>
      </trkpt>
      <trkpt lat="44.95452" lon="5.69981">
        <ele>696.59997558594</ele>
        <time>2026-07-05T07:21:23.000Z</time>
      </trkpt>
      <trkpt lat="44.95453" lon="5.69982">
        <ele>696.79998779297</ele>
        <time>2026-07-05T07:21:24.000Z</time>
      </trkpt>
      <trkpt lat="44.95453" lon="5.69983">
        <ele>697</ele>
        <time>2026-07-05T07:21:25.000Z</time>
      </trkpt>
      <trkpt lat="44.95454" lon="5.69984">
        <ele>697.20001220703</ele>
        <time>2026-07-05T07:21:26.000Z</time>
      </trkpt>
      <trkpt lat="44.95454" lon="5.69985">
        <ele>697.59997558594</ele>
        <time>2026-07-05T07:21:27.000Z</time>
      </trkpt>
      <trkpt lat="44.95455" lon="5.69986">
        <ele>697.79998779297</ele>
        <time>2026-07-05T07:21:28.000Z</time>
      </trkpt>
      <trkpt lat="44.95456" lon="5.69988">
        <ele>698</ele>
        <time>2026-07-05T07:21:29.000Z</time>
      </trkpt>
      <trkpt lat="44.95457" lon="5.69989">
        <ele>698.20001220703</ele>
        <time>2026-07-05T07:21:30.000Z</time>
      </trkpt>
      <trkpt lat="44.95457" lon="5.6999">
        <ele>698.59997558594</ele>
        <time>2026-07-05T07:21:31.000Z</time>
      </trkpt>
      <trkpt lat="44.95458" lon="5.69991">
        <ele>699</ele>
        <time>2026-07-05T07:21:32.000Z</time>
      </trkpt>
      <trkpt lat="44.95459" lon="5.69992">
        <ele>699.20001220703</ele>
        <time>2026-07-05T07:21:33.000Z</time>
      </trkpt>
      <trkpt lat="44.95459" lon="5.69993">
        <ele>699.40002441406</ele>
        <time>2026-07-05T07:21:34.000Z</time>
      </trkpt>
      <trkpt lat="44.9546" lon="5.69994">
        <ele>699.59997558594</ele>
        <time>2026-07-05T07:21:35.000Z</time>
      </trkpt>
      <trkpt lat="44.9546" lon="5.69995">
        <ele>699.79998779297</ele>
        <time>2026-07-05T07:21:36.000Z</time>
      </trkpt>
      <trkpt lat="44.9546" lon="5.69996">
        <ele>700</ele>
        <time>2026-07-05T07:21:37.000Z</time>
      </trkpt>
      <trkpt lat="44.95461" lon="5.69997">
        <ele>700.20001220703</ele>
        <time>2026-07-05T07:21:38.000Z</time>
      </trkpt>
      <trkpt lat="44.95461" lon="5.69999">
        <ele>700.20001220703</ele>
        <time>2026-07-05T07:21:39.000Z</time>
      </trkpt>
      <trkpt lat="44.95461" lon="5.70001">
        <ele>700.59997558594</ele>
        <time>2026-07-05T07:21:40.000Z</time>
      </trkpt>
      <trkpt lat="44.95462" lon="5.70002">
        <ele>700.79998779297</ele>
        <time>2026-07-05T07:21:41.000Z</time>
      </trkpt>
      <trkpt lat="44.95462" lon="5.70004">
        <ele>700.79998779297</ele>
        <time>2026-07-05T07:21:42.000Z</time>
      </trkpt>
      <trkpt lat="44.95463" lon="5.70006">
        <ele>701.20001220703</ele>
        <time>2026-07-05T07:21:43.000Z</time>
      </trkpt>
      <trkpt lat="44.95463" lon="5.70007">
        <ele>701.40002441406</ele>
        <time>2026-07-05T07:21:44.000Z</time>
      </trkpt>
      <trkpt lat="44.95464" lon="5.70009">
        <ele>701.40002441406</ele>
        <time>2026-07-05T07:21:45.000Z</time>
      </trkpt>
      <trkpt lat="44.95464" lon="5.7001">
        <ele>701.40002441406</ele>
        <time>2026-07-05T07:21:46.000Z</time>
      </trkpt>
      <trkpt lat="44.95464" lon="5.70011">
        <ele>701.40002441406</ele>
        <time>2026-07-05T07:21:47.000Z</time>
      </trkpt>
      <trkpt lat="44.95465" lon="5.70012">
        <ele>701.40002441406</ele>
        <time>2026-07-05T07:21:48.000Z</time>
      </trkpt>
      <trkpt lat="44.95465" lon="5.70013">
        <ele>701.40002441406</ele>
        <time>2026-07-05T07:21:49.000Z</time>
      </trkpt>
      <trkpt lat="44.95466" lon="5.70014">
        <ele>701.40002441406</ele>
        <time>2026-07-05T07:21:50.000Z</time>
      </trkpt>
      <trkpt lat="44.95466" lon="5.70016">
        <ele>701.40002441406</ele>
        <time>2026-07-05T07:21:51.000Z</time>
      </trkpt>
      <trkpt lat="44.95467" lon="5.70017">
        <ele>701.40002441406</ele>
        <time>2026-07-05T07:21:52.000Z</time>
      </trkpt>
      <trkpt lat="44.95467" lon="5.70018">
        <ele>701.59997558594</ele>
        <time>2026-07-05T07:21:53.000Z</time>
      </trkpt>
      <trkpt lat="44.95467" lon="5.7002">
        <ele>701.79998779297</ele>
        <time>2026-07-05T07:21:54.000Z</time>
      </trkpt>
      <trkpt lat="44.95467" lon="5.70022">
        <ele>701.79998779297</ele>
        <time>2026-07-05T07:21:55.000Z</time>
      </trkpt>
      <trkpt lat="44.95468" lon="5.70023">
        <ele>702</ele>
        <time>2026-07-05T07:21:56.000Z</time>
      </trkpt>
      <trkpt lat="44.95468" lon="5.70025">
        <ele>702.20001220703</ele>
        <time>2026-07-05T07:21:57.000Z</time>
      </trkpt>
      <trkpt lat="44.95469" lon="5.70027">
        <ele>702.79998779297</ele>
        <time>2026-07-05T07:21:58.000Z</time>
      </trkpt>
      <trkpt lat="44.95469" lon="5.70028">
        <ele>703</ele>
        <time>2026-07-05T07:21:59.000Z</time>
      </trkpt>
      <trkpt lat="44.95469" lon="5.70029">
        <ele>703.40002441406</ele>
        <time>2026-07-05T07:22:00.000Z</time>
      </trkpt>
      <trkpt lat="44.9547" lon="5.70031">
        <ele>703.59997558594</ele>
        <time>2026-07-05T07:22:01.000Z</time>
      </trkpt>
      <trkpt lat="44.9547" lon="5.70032">
        <ele>704</ele>
        <time>2026-07-05T07:22:02.000Z</time>
      </trkpt>
      <trkpt lat="44.9547" lon="5.70033">
        <ele>704.40002441406</ele>
        <time>2026-07-05T07:22:03.000Z</time>
      </trkpt>
      <trkpt lat="44.95471" lon="5.70035">
        <ele>704.59997558594</ele>
        <time>2026-07-05T07:22:04.000Z</time>
      </trkpt>
      <trkpt lat="44.95471" lon="5.70037">
        <ele>704.79998779297</ele>
        <time>2026-07-05T07:22:05.000Z</time>
      </trkpt>
      <trkpt lat="44.95471" lon="5.70038">
        <ele>705.20001220703</ele>
        <time>2026-07-05T07:22:06.000Z</time>
      </trkpt>
      <trkpt lat="44.95471" lon="5.7004">
        <ele>705.59997558594</ele>
        <time>2026-07-05T07:22:07.000Z</time>
      </trkpt>
      <trkpt lat="44.95471" lon="5.70041">
        <ele>705.79998779297</ele>
        <time>2026-07-05T07:22:08.000Z</time>
      </trkpt>
      <trkpt lat="44.95471" lon="5.70043">
        <ele>706.20001220703</ele>
        <time>2026-07-05T07:22:09.000Z</time>
      </trkpt>
      <trkpt lat="44.9547" lon="5.70044">
        <ele>706.40002441406</ele>
        <time>2026-07-05T07:22:10.000Z</time>
      </trkpt>
      <trkpt lat="44.9547" lon="5.70045">
        <ele>706.40002441406</ele>
        <time>2026-07-05T07:22:11.000Z</time>
      </trkpt>
      <trkpt lat="44.95471" lon="5.70047">
        <ele>706.59997558594</ele>
        <time>2026-07-05T07:22:12.000Z</time>
      </trkpt>
      <trkpt lat="44.95471" lon="5.70048">
        <ele>707</ele>
        <time>2026-07-05T07:22:13.000Z</time>
      </trkpt>
      <trkpt lat="44.95471" lon="5.70049">
        <ele>707.20001220703</ele>
        <time>2026-07-05T07:22:14.000Z</time>
      </trkpt>
      <trkpt lat="44.95472" lon="5.70051">
        <ele>707.59997558594</ele>
        <time>2026-07-05T07:22:15.000Z</time>
      </trkpt>
      <trkpt lat="44.95472" lon="5.70052">
        <ele>708</ele>
        <time>2026-07-05T07:22:16.000Z</time>
      </trkpt>
      <trkpt lat="44.95472" lon="5.70053">
        <ele>708.20001220703</ele>
        <time>2026-07-05T07:22:17.000Z</time>
      </trkpt>
      <trkpt lat="44.95472" lon="5.70055">
        <ele>708.59997558594</ele>
        <time>2026-07-05T07:22:18.000Z</time>
      </trkpt>
      <trkpt lat="44.95472" lon="5.70056">
        <ele>709</ele>
        <time>2026-07-05T07:22:19.000Z</time>
      </trkpt>
      <trkpt lat="44.95472" lon="5.70058">
        <ele>709.20001220703</ele>
        <time>2026-07-05T07:22:20.000Z</time>
      </trkpt>
      <trkpt lat="44.95472" lon="5.7006">
        <ele>709.40002441406</ele>
        <time>2026-07-05T07:22:21.000Z</time>
      </trkpt>
      <trkpt lat="44.95472" lon="5.70062">
        <ele>709.59997558594</ele>
        <time>2026-07-05T07:22:22.000Z</time>
      </trkpt>
      <trkpt lat="44.95473" lon="5.70064">
        <ele>709.79998779297</ele>
        <time>2026-07-05T07:22:23.000Z</time>
      </trkpt>
      <trkpt lat="44.95473" lon="5.70066">
        <ele>709.79998779297</ele>
        <time>2026-07-05T07:22:24.000Z</time>
      </trkpt>
      <trkpt lat="44.95473" lon="5.70067">
        <ele>710.20001220703</ele>
        <time>2026-07-05T07:22:25.000Z</time>
      </trkpt>
      <trkpt lat="44.95473" lon="5.70069">
        <ele>710.40002441406</ele>
        <time>2026-07-05T07:22:26.000Z</time>
      </trkpt>
      <trkpt lat="44.95473" lon="5.7007">
        <ele>710.79998779297</ele>
        <time>2026-07-05T07:22:27.000Z</time>
      </trkpt>
      <trkpt lat="44.95473" lon="5.70071">
        <ele>711</ele>
        <time>2026-07-05T07:22:28.000Z</time>
      </trkpt>
      <trkpt lat="44.95473" lon="5.70073">
        <ele>711.20001220703</ele>
        <time>2026-07-05T07:22:29.000Z</time>
      </trkpt>
      <trkpt lat="44.95473" lon="5.70074">
        <ele>711.40002441406</ele>
        <time>2026-07-05T07:22:30.000Z</time>
      </trkpt>
      <trkpt lat="44.95473" lon="5.70075">
        <ele>711.59997558594</ele>
        <time>2026-07-05T07:22:31.000Z</time>
      </trkpt>
      <trkpt lat="44.95473" lon="5.70076">
        <ele>712</ele>
        <time>2026-07-05T07:22:32.000Z</time>
      </trkpt>
      <trkpt lat="44.95473" lon="5.70078">
        <ele>712.20001220703</ele>
        <time>2026-07-05T07:22:33.000Z</time>
      </trkpt>
      <trkpt lat="44.95473" lon="5.7008">
        <ele>712.79998779297</ele>
        <time>2026-07-05T07:22:34.000Z</time>
      </trkpt>
      <trkpt lat="44.95473" lon="5.70081">
        <ele>713.40002441406</ele>
        <time>2026-07-05T07:22:35.000Z</time>
      </trkpt>
      <trkpt lat="44.95473" lon="5.70082">
        <ele>714</ele>
        <time>2026-07-05T07:22:36.000Z</time>
      </trkpt>
      <trkpt lat="44.95474" lon="5.70084">
        <ele>714.79998779297</ele>
        <time>2026-07-05T07:22:37.000Z</time>
      </trkpt>
      <trkpt lat="44.95474" lon="5.70085">
        <ele>715.59997558594</ele>
        <time>2026-07-05T07:22:38.000Z</time>
      </trkpt>
      <trkpt lat="44.95474" lon="5.70086">
        <ele>715.79998779297</ele>
        <time>2026-07-05T07:22:39.000Z</time>
      </trkpt>
      <trkpt lat="44.95474" lon="5.70087">
        <ele>716</ele>
        <time>2026-07-05T07:22:40.000Z</time>
      </trkpt>
      <trkpt lat="44.95474" lon="5.70088">
        <ele>716.40002441406</ele>
        <time>2026-07-05T07:22:41.000Z</time>
      </trkpt>
      <trkpt lat="44.95474" lon="5.70089">
        <ele>716.59997558594</ele>
        <time>2026-07-05T07:22:42.000Z</time>
      </trkpt>
      <trkpt lat="44.95474" lon="5.70091">
        <ele>716.79998779297</ele>
        <time>2026-07-05T07:22:43.000Z</time>
      </trkpt>
      <trkpt lat="44.95474" lon="5.70091">
        <ele>717</ele>
        <time>2026-07-05T07:22:44.000Z</time>
      </trkpt>
      <trkpt lat="44.95474" lon="5.70093">
        <ele>717.20001220703</ele>
        <time>2026-07-05T07:22:45.000Z</time>
      </trkpt>
      <trkpt lat="44.95475" lon="5.70095">
        <ele>717.40002441406</ele>
        <time>2026-07-05T07:22:46.000Z</time>
      </trkpt>
      <trkpt lat="44.95475" lon="5.70096">
        <ele>717.59997558594</ele>
        <time>2026-07-05T07:22:47.000Z</time>
      </trkpt>
      <trkpt lat="44.95475" lon="5.70098">
        <ele>717.59997558594</ele>
        <time>2026-07-05T07:22:48.000Z</time>
      </trkpt>
      <trkpt lat="44.95475" lon="5.70099">
        <ele>718</ele>
        <time>2026-07-05T07:22:49.000Z</time>
      </trkpt>
      <trkpt lat="44.95475" lon="5.70101">
        <ele>718.79998779297</ele>
        <time>2026-07-05T07:22:50.000Z</time>
      </trkpt>
      <trkpt lat="44.95474" lon="5.70102">
        <ele>719.20001220703</ele>
        <time>2026-07-05T07:22:51.000Z</time>
      </trkpt>
      <trkpt lat="44.95474" lon="5.70103">
        <ele>719.59997558594</ele>
        <time>2026-07-05T07:22:52.000Z</time>
      </trkpt>
      <trkpt lat="44.95474" lon="5.70105">
        <ele>720.20001220703</ele>
        <time>2026-07-05T07:22:53.000Z</time>
      </trkpt>
      <trkpt lat="44.95475" lon="5.70107">
        <ele>720.59997558594</ele>
        <time>2026-07-05T07:22:54.000Z</time>
      </trkpt>
      <trkpt lat="44.95475" lon="5.70108">
        <ele>720.79998779297</ele>
        <time>2026-07-05T07:22:55.000Z</time>
      </trkpt>
      <trkpt lat="44.95475" lon="5.7011">
        <ele>721</ele>
        <time>2026-07-05T07:22:56.000Z</time>
      </trkpt>
      <trkpt lat="44.95475" lon="5.70112">
        <ele>721.20001220703</ele>
        <time>2026-07-05T07:22:57.000Z</time>
      </trkpt>
      <trkpt lat="44.95475" lon="5.70113">
        <ele>721.20001220703</ele>
        <time>2026-07-05T07:22:58.000Z</time>
      </trkpt>
      <trkpt lat="44.95475" lon="5.70115">
        <ele>721.20001220703</ele>
        <time>2026-07-05T07:22:59.000Z</time>
      </trkpt>
      <trkpt lat="44.95475" lon="5.70117">
        <ele>721.20001220703</ele>
        <time>2026-07-05T07:23:00.000Z</time>
      </trkpt>
      <trkpt lat="44.95475" lon="5.70118">
        <ele>721.20001220703</ele>
        <time>2026-07-05T07:23:01.000Z</time>
      </trkpt>
      <trkpt lat="44.95475" lon="5.7012">
        <ele>721.20001220703</ele>
        <time>2026-07-05T07:23:02.000Z</time>
      </trkpt>
      <trkpt lat="44.95475" lon="5.70121">
        <ele>721.20001220703</ele>
        <time>2026-07-05T07:23:03.000Z</time>
      </trkpt>
      <trkpt lat="44.95475" lon="5.70123">
        <ele>721.20001220703</ele>
        <time>2026-07-05T07:23:04.000Z</time>
      </trkpt>
      <trkpt lat="44.95475" lon="5.70124">
        <ele>721.40002441406</ele>
        <time>2026-07-05T07:23:05.000Z</time>
      </trkpt>
      <trkpt lat="44.95476" lon="5.70126">
        <ele>721.79998779297</ele>
        <time>2026-07-05T07:23:06.000Z</time>
      </trkpt>
      <trkpt lat="44.95476" lon="5.70127">
        <ele>722</ele>
        <time>2026-07-05T07:23:07.000Z</time>
      </trkpt>
      <trkpt lat="44.95476" lon="5.70128">
        <ele>722.40002441406</ele>
        <time>2026-07-05T07:23:08.000Z</time>
      </trkpt>
      <trkpt lat="44.95476" lon="5.7013">
        <ele>722.59997558594</ele>
        <time>2026-07-05T07:23:09.000Z</time>
      </trkpt>
      <trkpt lat="44.95477" lon="5.70132">
        <ele>722.79998779297</ele>
        <time>2026-07-05T07:23:10.000Z</time>
      </trkpt>
      <trkpt lat="44.95477" lon="5.70133">
        <ele>723.40002441406</ele>
        <time>2026-07-05T07:23:11.000Z</time>
      </trkpt>
      <trkpt lat="44.95477" lon="5.70135">
        <ele>723.59997558594</ele>
        <time>2026-07-05T07:23:12.000Z</time>
      </trkpt>
      <trkpt lat="44.95478" lon="5.70136">
        <ele>724</ele>
        <time>2026-07-05T07:23:13.000Z</time>
      </trkpt>
      <trkpt lat="44.95478" lon="5.70138">
        <ele>724.20001220703</ele>
        <time>2026-07-05T07:23:14.000Z</time>
      </trkpt>
      <trkpt lat="44.95479" lon="5.70139">
        <ele>724.59997558594</ele>
        <time>2026-07-05T07:23:15.000Z</time>
      </trkpt>
      <trkpt lat="44.95479" lon="5.70141">
        <ele>724.79998779297</ele>
        <time>2026-07-05T07:23:16.000Z</time>
      </trkpt>
      <trkpt lat="44.9548" lon="5.70142">
        <ele>725</ele>
        <time>2026-07-05T07:23:17.000Z</time>
      </trkpt>
      <trkpt lat="44.9548" lon="5.70144">
        <ele>725.20001220703</ele>
        <time>2026-07-05T07:23:18.000Z</time>
      </trkpt>
      <trkpt lat="44.9548" lon="5.70146">
        <ele>725.20001220703</ele>
        <time>2026-07-05T07:23:19.000Z</time>
      </trkpt>
      <trkpt lat="44.95481" lon="5.70147">
        <ele>725.40002441406</ele>
        <time>2026-07-05T07:23:20.000Z</time>
      </trkpt>
      <trkpt lat="44.95481" lon="5.70149">
        <ele>725.59997558594</ele>
        <time>2026-07-05T07:23:21.000Z</time>
      </trkpt>
      <trkpt lat="44.95481" lon="5.7015">
        <ele>725.79998779297</ele>
        <time>2026-07-05T07:23:22.000Z</time>
      </trkpt>
      <trkpt lat="44.95482" lon="5.70152">
        <ele>725.79998779297</ele>
        <time>2026-07-05T07:23:23.000Z</time>
      </trkpt>
      <trkpt lat="44.95482" lon="5.70154">
        <ele>725.79998779297</ele>
        <time>2026-07-05T07:23:24.000Z</time>
      </trkpt>
      <trkpt lat="44.95483" lon="5.70155">
        <ele>725.79998779297</ele>
        <time>2026-07-05T07:23:25.000Z</time>
      </trkpt>
      <trkpt lat="44.95483" lon="5.70157">
        <ele>725.79998779297</ele>
        <time>2026-07-05T07:23:26.000Z</time>
      </trkpt>
      <trkpt lat="44.95484" lon="5.70158">
        <ele>726</ele>
        <time>2026-07-05T07:23:27.000Z</time>
      </trkpt>
      <trkpt lat="44.95484" lon="5.7016">
        <ele>726.20001220703</ele>
        <time>2026-07-05T07:23:28.000Z</time>
      </trkpt>
      <trkpt lat="44.95485" lon="5.70162">
        <ele>727</ele>
        <time>2026-07-05T07:23:29.000Z</time>
      </trkpt>
      <trkpt lat="44.95486" lon="5.70163">
        <ele>727.20001220703</ele>
        <time>2026-07-05T07:23:30.000Z</time>
      </trkpt>
      <trkpt lat="44.95486" lon="5.70165">
        <ele>727.79998779297</ele>
        <time>2026-07-05T07:23:31.000Z</time>
      </trkpt>
      <trkpt lat="44.95487" lon="5.70166">
        <ele>728.20001220703</ele>
        <time>2026-07-05T07:23:32.000Z</time>
      </trkpt>
      <trkpt lat="44.95487" lon="5.70167">
        <ele>728.59997558594</ele>
        <time>2026-07-05T07:23:33.000Z</time>
      </trkpt>
      <trkpt lat="44.95488" lon="5.70169">
        <ele>729.20001220703</ele>
        <time>2026-07-05T07:23:34.000Z</time>
      </trkpt>
      <trkpt lat="44.95488" lon="5.70171">
        <ele>729.20001220703</ele>
        <time>2026-07-05T07:23:35.000Z</time>
      </trkpt>
      <trkpt lat="44.95489" lon="5.70172">
        <ele>729.40002441406</ele>
        <time>2026-07-05T07:23:36.000Z</time>
      </trkpt>
      <trkpt lat="44.95489" lon="5.70174">
        <ele>729.59997558594</ele>
        <time>2026-07-05T07:23:37.000Z</time>
      </trkpt>
      <trkpt lat="44.95489" lon="5.70175">
        <ele>729.79998779297</ele>
        <time>2026-07-05T07:23:38.000Z</time>
      </trkpt>
      <trkpt lat="44.95489" lon="5.70177">
        <ele>730</ele>
        <time>2026-07-05T07:23:39.000Z</time>
      </trkpt>
      <trkpt lat="44.9549" lon="5.70179">
        <ele>730.20001220703</ele>
        <time>2026-07-05T07:23:40.000Z</time>
      </trkpt>
      <trkpt lat="44.9549" lon="5.7018">
        <ele>730.40002441406</ele>
        <time>2026-07-05T07:23:41.000Z</time>
      </trkpt>
      <trkpt lat="44.9549" lon="5.70181">
        <ele>730.59997558594</ele>
        <time>2026-07-05T07:23:42.000Z</time>
      </trkpt>
      <trkpt lat="44.9549" lon="5.70183">
        <ele>730.79998779297</ele>
        <time>2026-07-05T07:23:43.000Z</time>
      </trkpt>
      <trkpt lat="44.95491" lon="5.70184">
        <ele>731</ele>
        <time>2026-07-05T07:23:44.000Z</time>
      </trkpt>
      <trkpt lat="44.95491" lon="5.70186">
        <ele>731.20001220703</ele>
        <time>2026-07-05T07:23:45.000Z</time>
      </trkpt>
      <trkpt lat="44.95492" lon="5.70188">
        <ele>731.79998779297</ele>
        <time>2026-07-05T07:23:46.000Z</time>
      </trkpt>
      <trkpt lat="44.95492" lon="5.7019">
        <ele>732</ele>
        <time>2026-07-05T07:23:47.000Z</time>
      </trkpt>
      <trkpt lat="44.95493" lon="5.70192">
        <ele>732</ele>
        <time>2026-07-05T07:23:48.000Z</time>
      </trkpt>
      <trkpt lat="44.95493" lon="5.70194">
        <ele>732.59997558594</ele>
        <time>2026-07-05T07:23:49.000Z</time>
      </trkpt>
      <trkpt lat="44.95494" lon="5.70196">
        <ele>732.79998779297</ele>
        <time>2026-07-05T07:23:50.000Z</time>
      </trkpt>
      <trkpt lat="44.95494" lon="5.70198">
        <ele>733</ele>
        <time>2026-07-05T07:23:51.000Z</time>
      </trkpt>
      <trkpt lat="44.95495" lon="5.702">
        <ele>733.40002441406</ele>
        <time>2026-07-05T07:23:52.000Z</time>
      </trkpt>
      <trkpt lat="44.95495" lon="5.70201">
        <ele>733.79998779297</ele>
        <time>2026-07-05T07:23:53.000Z</time>
      </trkpt>
      <trkpt lat="44.95496" lon="5.70203">
        <ele>734.40002441406</ele>
        <time>2026-07-05T07:23:54.000Z</time>
      </trkpt>
      <trkpt lat="44.95497" lon="5.70206">
        <ele>735</ele>
        <time>2026-07-05T07:23:55.000Z</time>
      </trkpt>
      <trkpt lat="44.95498" lon="5.70208">
        <ele>735.40002441406</ele>
        <time>2026-07-05T07:23:56.000Z</time>
      </trkpt>
      <trkpt lat="44.95498" lon="5.7021">
        <ele>736.79998779297</ele>
        <time>2026-07-05T07:23:57.000Z</time>
      </trkpt>
      <trkpt lat="44.95499" lon="5.70211">
        <ele>737.59997558594</ele>
        <time>2026-07-05T07:23:58.000Z</time>
      </trkpt>
      <trkpt lat="44.955" lon="5.70214">
        <ele>738</ele>
        <time>2026-07-05T07:23:59.000Z</time>
      </trkpt>
      <trkpt lat="44.95501" lon="5.70216">
        <ele>738.20001220703</ele>
        <time>2026-07-05T07:24:00.000Z</time>
      </trkpt>
      <trkpt lat="44.95502" lon="5.70218">
        <ele>738.59997558594</ele>
        <time>2026-07-05T07:24:01.000Z</time>
      </trkpt>
      <trkpt lat="44.95503" lon="5.70221">
        <ele>739.20001220703</ele>
        <time>2026-07-05T07:24:02.000Z</time>
      </trkpt>
      <trkpt lat="44.95504" lon="5.70223">
        <ele>739.40002441406</ele>
        <time>2026-07-05T07:24:03.000Z</time>
      </trkpt>
      <trkpt lat="44.95505" lon="5.70225">
        <ele>739.59997558594</ele>
        <time>2026-07-05T07:24:04.000Z</time>
      </trkpt>
      <trkpt lat="44.95506" lon="5.70228">
        <ele>739.79998779297</ele>
        <time>2026-07-05T07:24:05.000Z</time>
      </trkpt>
      <trkpt lat="44.95507" lon="5.7023">
        <ele>739.59997558594</ele>
        <time>2026-07-05T07:24:06.000Z</time>
      </trkpt>
      <trkpt lat="44.95508" lon="5.70232">
        <ele>739.20001220703</ele>
        <time>2026-07-05T07:24:07.000Z</time>
      </trkpt>
      <trkpt lat="44.95509" lon="5.70235">
        <ele>738.79998779297</ele>
        <time>2026-07-05T07:24:08.000Z</time>
      </trkpt>
      <trkpt lat="44.9551" lon="5.70238">
        <ele>739</ele>
        <time>2026-07-05T07:24:09.000Z</time>
      </trkpt>
      <trkpt lat="44.95511" lon="5.7024">
        <ele>739.20001220703</ele>
        <time>2026-07-05T07:24:10.000Z</time>
      </trkpt>
      <trkpt lat="44.95512" lon="5.70242">
        <ele>739.20001220703</ele>
        <time>2026-07-05T07:24:11.000Z</time>
      </trkpt>
      <trkpt lat="44.95513" lon="5.70244">
        <ele>739.40002441406</ele>
        <time>2026-07-05T07:24:12.000Z</time>
      </trkpt>
      <trkpt lat="44.95514" lon="5.70246">
        <ele>740.40002441406</ele>
        <time>2026-07-05T07:24:13.000Z</time>
      </trkpt>
      <trkpt lat="44.95515" lon="5.70248">
        <ele>741.20001220703</ele>
        <time>2026-07-05T07:24:14.000Z</time>
      </trkpt>
      <trkpt lat="44.95517" lon="5.7025">
        <ele>741.40002441406</ele>
        <time>2026-07-05T07:24:15.000Z</time>
      </trkpt>
      <trkpt lat="44.95518" lon="5.70252">
        <ele>741.59997558594</ele>
        <time>2026-07-05T07:24:16.000Z</time>
      </trkpt>
      <trkpt lat="44.95519" lon="5.70254">
        <ele>742</ele>
        <time>2026-07-05T07:24:17.000Z</time>
      </trkpt>
      <trkpt lat="44.9552" lon="5.70256">
        <ele>742.59997558594</ele>
        <time>2026-07-05T07:24:18.000Z</time>
      </trkpt>
      <trkpt lat="44.95521" lon="5.70257">
        <ele>744.20001220703</ele>
        <time>2026-07-05T07:24:19.000Z</time>
      </trkpt>
      <trkpt lat="44.95522" lon="5.70259">
        <ele>744.20001220703</ele>
        <time>2026-07-05T07:24:20.000Z</time>
      </trkpt>
      <trkpt lat="44.95523" lon="5.7026">
        <ele>744</ele>
        <time>2026-07-05T07:24:21.000Z</time>
      </trkpt>
      <trkpt lat="44.95524" lon="5.70262">
        <ele>744</ele>
        <time>2026-07-05T07:24:22.000Z</time>
      </trkpt>
      <trkpt lat="44.95526" lon="5.70263">
        <ele>744</ele>
        <time>2026-07-05T07:24:23.000Z</time>
      </trkpt>
      <trkpt lat="44.95527" lon="5.70265">
        <ele>744</ele>
        <time>2026-07-05T07:24:24.000Z</time>
      </trkpt>
      <trkpt lat="44.95528" lon="5.70267">
        <ele>744.20001220703</ele>
        <time>2026-07-05T07:24:25.000Z</time>
      </trkpt>
      <trkpt lat="44.9553" lon="5.70269">
        <ele>744.79998779297</ele>
        <time>2026-07-05T07:24:26.000Z</time>
      </trkpt>
      <trkpt lat="44.95531" lon="5.7027">
        <ele>745</ele>
        <time>2026-07-05T07:24:27.000Z</time>
      </trkpt>
      <trkpt lat="44.95533" lon="5.70272">
        <ele>745.20001220703</ele>
        <time>2026-07-05T07:24:28.000Z</time>
      </trkpt>
      <trkpt lat="44.95535" lon="5.70274">
        <ele>745.40002441406</ele>
        <time>2026-07-05T07:24:29.000Z</time>
      </trkpt>
      <trkpt lat="44.95536" lon="5.70275">
        <ele>745.40002441406</ele>
        <time>2026-07-05T07:24:30.000Z</time>
      </trkpt>
      <trkpt lat="44.95537" lon="5.70277">
        <ele>744.40002441406</ele>
        <time>2026-07-05T07:24:31.000Z</time>
      </trkpt>
      <trkpt lat="44.95539" lon="5.70279">
        <ele>744.20001220703</ele>
        <time>2026-07-05T07:24:32.000Z</time>
      </trkpt>
      <trkpt lat="44.9554" lon="5.70281">
        <ele>744.20001220703</ele>
        <time>2026-07-05T07:24:33.000Z</time>
      </trkpt>
      <trkpt lat="44.95541" lon="5.70283">
        <ele>743.79998779297</ele>
        <time>2026-07-05T07:24:34.000Z</time>
      </trkpt>
      <trkpt lat="44.95543" lon="5.70284">
        <ele>744</ele>
        <time>2026-07-05T07:24:35.000Z</time>
      </trkpt>
      <trkpt lat="44.95544" lon="5.70286">
        <ele>744.20001220703</ele>
        <time>2026-07-05T07:24:36.000Z</time>
      </trkpt>
      <trkpt lat="44.95546" lon="5.70287">
        <ele>744.59997558594</ele>
        <time>2026-07-05T07:24:37.000Z</time>
      </trkpt>
      <trkpt lat="44.95548" lon="5.70288">
        <ele>745.20001220703</ele>
        <time>2026-07-05T07:24:38.000Z</time>
      </trkpt>
      <trkpt lat="44.9555" lon="5.70289">
        <ele>745.59997558594</ele>
        <time>2026-07-05T07:24:39.000Z</time>
      </trkpt>
      <trkpt lat="44.95552" lon="5.70291">
        <ele>746.79998779297</ele>
        <time>2026-07-05T07:24:40.000Z</time>
      </trkpt>
      <trkpt lat="44.95554" lon="5.70292">
        <ele>748.79998779297</ele>
        <time>2026-07-05T07:24:41.000Z</time>
      </trkpt>
      <trkpt lat="44.95556" lon="5.70294">
        <ele>749.20001220703</ele>
        <time>2026-07-05T07:24:42.000Z</time>
      </trkpt>
      <trkpt lat="44.95557" lon="5.70295">
        <ele>749.40002441406</ele>
        <time>2026-07-05T07:24:43.000Z</time>
      </trkpt>
      <trkpt lat="44.95559" lon="5.70297">
        <ele>749.79998779297</ele>
        <time>2026-07-05T07:24:44.000Z</time>
      </trkpt>
      <trkpt lat="44.95561" lon="5.70298">
        <ele>750.20001220703</ele>
        <time>2026-07-05T07:24:45.000Z</time>
      </trkpt>
      <trkpt lat="44.95562" lon="5.703">
        <ele>750.40002441406</ele>
        <time>2026-07-05T07:24:46.000Z</time>
      </trkpt>
      <trkpt lat="44.95564" lon="5.70301">
        <ele>750.59997558594</ele>
        <time>2026-07-05T07:24:47.000Z</time>
      </trkpt>
      <trkpt lat="44.95566" lon="5.70302">
        <ele>750.79998779297</ele>
        <time>2026-07-05T07:24:48.000Z</time>
      </trkpt>
      <trkpt lat="44.95568" lon="5.70304">
        <ele>751</ele>
        <time>2026-07-05T07:24:49.000Z</time>
      </trkpt>
      <trkpt lat="44.9557" lon="5.70306">
        <ele>751</ele>
        <time>2026-07-05T07:24:50.000Z</time>
      </trkpt>
      <trkpt lat="44.95572" lon="5.70307">
        <ele>751.20001220703</ele>
        <time>2026-07-05T07:24:51.000Z</time>
      </trkpt>
      <trkpt lat="44.95574" lon="5.70308">
        <ele>751.20001220703</ele>
        <time>2026-07-05T07:24:52.000Z</time>
      </trkpt>
      <trkpt lat="44.95576" lon="5.7031">
        <ele>751</ele>
        <time>2026-07-05T07:24:53.000Z</time>
      </trkpt>
      <trkpt lat="44.95577" lon="5.70311">
        <ele>751</ele>
        <time>2026-07-05T07:24:54.000Z</time>
      </trkpt>
      <trkpt lat="44.95579" lon="5.70312">
        <ele>751.20001220703</ele>
        <time>2026-07-05T07:24:55.000Z</time>
      </trkpt>
      <trkpt lat="44.95581" lon="5.70314">
        <ele>751.59997558594</ele>
        <time>2026-07-05T07:24:56.000Z</time>
      </trkpt>
      <trkpt lat="44.95583" lon="5.70315">
        <ele>752</ele>
        <time>2026-07-05T07:24:57.000Z</time>
      </trkpt>
      <trkpt lat="44.95585" lon="5.70316">
        <ele>752.20001220703</ele>
        <time>2026-07-05T07:24:58.000Z</time>
      </trkpt>
      <trkpt lat="44.95586" lon="5.70317">
        <ele>752</ele>
        <time>2026-07-05T07:24:59.000Z</time>
      </trkpt>
      <trkpt lat="44.95588" lon="5.70318">
        <ele>751.79998779297</ele>
        <time>2026-07-05T07:25:00.000Z</time>
      </trkpt>
      <trkpt lat="44.9559" lon="5.70319">
        <ele>751.20001220703</ele>
        <time>2026-07-05T07:25:01.000Z</time>
      </trkpt>
      <trkpt lat="44.95592" lon="5.7032">
        <ele>751.20001220703</ele>
        <time>2026-07-05T07:25:02.000Z</time>
      </trkpt>
      <trkpt lat="44.95594" lon="5.70321">
        <ele>750.59997558594</ele>
        <time>2026-07-05T07:25:03.000Z</time>
      </trkpt>
      <trkpt lat="44.95596" lon="5.70322">
        <ele>750.59997558594</ele>
        <time>2026-07-05T07:25:04.000Z</time>
      </trkpt>
      <trkpt lat="44.95597" lon="5.70323">
        <ele>750.59997558594</ele>
        <time>2026-07-05T07:25:05.000Z</time>
      </trkpt>
      <trkpt lat="44.95599" lon="5.70324">
        <ele>750.79998779297</ele>
        <time>2026-07-05T07:25:06.000Z</time>
      </trkpt>
      <trkpt lat="44.95601" lon="5.70325">
        <ele>751.20001220703</ele>
        <time>2026-07-05T07:25:07.000Z</time>
      </trkpt>
      <trkpt lat="44.95603" lon="5.70326">
        <ele>751.40002441406</ele>
        <time>2026-07-05T07:25:08.000Z</time>
      </trkpt>
      <trkpt lat="44.95605" lon="5.70327">
        <ele>751.59997558594</ele>
        <time>2026-07-05T07:25:09.000Z</time>
      </trkpt>
      <trkpt lat="44.95607" lon="5.70327">
        <ele>752</ele>
        <time>2026-07-05T07:25:10.000Z</time>
      </trkpt>
      <trkpt lat="44.95609" lon="5.70327">
        <ele>752.20001220703</ele>
        <time>2026-07-05T07:25:11.000Z</time>
      </trkpt>
      <trkpt lat="44.9561" lon="5.70328">
        <ele>752.20001220703</ele>
        <time>2026-07-05T07:25:12.000Z</time>
      </trkpt>
      <trkpt lat="44.95612" lon="5.70328">
        <ele>752.20001220703</ele>
        <time>2026-07-05T07:25:13.000Z</time>
      </trkpt>
      <trkpt lat="44.95614" lon="5.70328">
        <ele>752.40002441406</ele>
        <time>2026-07-05T07:25:14.000Z</time>
      </trkpt>
      <trkpt lat="44.95616" lon="5.70328">
        <ele>752.59997558594</ele>
        <time>2026-07-05T07:25:15.000Z</time>
      </trkpt>
      <trkpt lat="44.95618" lon="5.70329">
        <ele>752.59997558594</ele>
        <time>2026-07-05T07:25:16.000Z</time>
      </trkpt>
      <trkpt lat="44.9562" lon="5.70329">
        <ele>753.59997558594</ele>
        <time>2026-07-05T07:25:17.000Z</time>
      </trkpt>
      <trkpt lat="44.95622" lon="5.70329">
        <ele>754.20001220703</ele>
        <time>2026-07-05T07:25:18.000Z</time>
      </trkpt>
      <trkpt lat="44.95624" lon="5.70329">
        <ele>754.20001220703</ele>
        <time>2026-07-05T07:25:19.000Z</time>
      </trkpt>
      <trkpt lat="44.95626" lon="5.7033">
        <ele>754.40002441406</ele>
        <time>2026-07-05T07:25:20.000Z</time>
      </trkpt>
      <trkpt lat="44.95627" lon="5.7033">
        <ele>754.40002441406</ele>
        <time>2026-07-05T07:25:21.000Z</time>
      </trkpt>
      <trkpt lat="44.95629" lon="5.7033">
        <ele>754.59997558594</ele>
        <time>2026-07-05T07:25:22.000Z</time>
      </trkpt>
      <trkpt lat="44.95632" lon="5.7033">
        <ele>754.40002441406</ele>
        <time>2026-07-05T07:25:23.000Z</time>
      </trkpt>
      <trkpt lat="44.95633" lon="5.70331">
        <ele>754.40002441406</ele>
        <time>2026-07-05T07:25:24.000Z</time>
      </trkpt>
      <trkpt lat="44.95635" lon="5.70331">
        <ele>754.40002441406</ele>
        <time>2026-07-05T07:25:25.000Z</time>
      </trkpt>
      <trkpt lat="44.95638" lon="5.70331">
        <ele>754.59997558594</ele>
        <time>2026-07-05T07:25:26.000Z</time>
      </trkpt>
      <trkpt lat="44.9564" lon="5.70331">
        <ele>754.59997558594</ele>
        <time>2026-07-05T07:25:27.000Z</time>
      </trkpt>
      <trkpt lat="44.95642" lon="5.70331">
        <ele>755.40002441406</ele>
        <time>2026-07-05T07:25:28.000Z</time>
      </trkpt>
      <trkpt lat="44.95644" lon="5.70331">
        <ele>756.20001220703</ele>
        <time>2026-07-05T07:25:29.000Z</time>
      </trkpt>
      <trkpt lat="44.95646" lon="5.7033">
        <ele>756.79998779297</ele>
        <time>2026-07-05T07:25:30.000Z</time>
      </trkpt>
      <trkpt lat="44.95648" lon="5.70331">
        <ele>757.59997558594</ele>
        <time>2026-07-05T07:25:31.000Z</time>
      </trkpt>
      <trkpt lat="44.9565" lon="5.70331">
        <ele>758.20001220703</ele>
        <time>2026-07-05T07:25:32.000Z</time>
      </trkpt>
      <trkpt lat="44.95652" lon="5.70331">
        <ele>758.79998779297</ele>
        <time>2026-07-05T07:25:33.000Z</time>
      </trkpt>
      <trkpt lat="44.95654" lon="5.70332">
        <ele>759.59997558594</ele>
        <time>2026-07-05T07:25:34.000Z</time>
      </trkpt>
      <trkpt lat="44.95656" lon="5.70332">
        <ele>760.20001220703</ele>
        <time>2026-07-05T07:25:35.000Z</time>
      </trkpt>
      <trkpt lat="44.95658" lon="5.70332">
        <ele>760.40002441406</ele>
        <time>2026-07-05T07:25:36.000Z</time>
      </trkpt>
      <trkpt lat="44.95659" lon="5.70333">
        <ele>759.40002441406</ele>
        <time>2026-07-05T07:25:37.000Z</time>
      </trkpt>
      <trkpt lat="44.95661" lon="5.70333">
        <ele>759.20001220703</ele>
        <time>2026-07-05T07:25:38.000Z</time>
      </trkpt>
      <trkpt lat="44.95663" lon="5.70334">
        <ele>759</ele>
        <time>2026-07-05T07:25:39.000Z</time>
      </trkpt>
      <trkpt lat="44.95665" lon="5.70334">
        <ele>759</ele>
        <time>2026-07-05T07:25:40.000Z</time>
      </trkpt>
      <trkpt lat="44.95667" lon="5.70335">
        <ele>759</ele>
        <time>2026-07-05T07:25:41.000Z</time>
      </trkpt>
      <trkpt lat="44.95668" lon="5.70335">
        <ele>758.79998779297</ele>
        <time>2026-07-05T07:25:42.000Z</time>
      </trkpt>
      <trkpt lat="44.9567" lon="5.70335">
        <ele>759</ele>
        <time>2026-07-05T07:25:43.000Z</time>
      </trkpt>
      <trkpt lat="44.95672" lon="5.70336">
        <ele>759</ele>
        <time>2026-07-05T07:25:44.000Z</time>
      </trkpt>
      <trkpt lat="44.95674" lon="5.70336">
        <ele>759</ele>
        <time>2026-07-05T07:25:45.000Z</time>
      </trkpt>
      <trkpt lat="44.95675" lon="5.70336">
        <ele>759</ele>
        <time>2026-07-05T07:25:46.000Z</time>
      </trkpt>
      <trkpt lat="44.95677" lon="5.70336">
        <ele>759.20001220703</ele>
        <time>2026-07-05T07:25:47.000Z</time>
      </trkpt>
      <trkpt lat="44.95678" lon="5.70336">
        <ele>759.20001220703</ele>
        <time>2026-07-05T07:25:48.000Z</time>
      </trkpt>
      <trkpt lat="44.9568" lon="5.70337">
        <ele>759.40002441406</ele>
        <time>2026-07-05T07:25:49.000Z</time>
      </trkpt>
      <trkpt lat="44.95681" lon="5.70337">
        <ele>759.79998779297</ele>
        <time>2026-07-05T07:25:50.000Z</time>
      </trkpt>
      <trkpt lat="44.95683" lon="5.70337">
        <ele>759.79998779297</ele>
        <time>2026-07-05T07:25:51.000Z</time>
      </trkpt>
      <trkpt lat="44.95684" lon="5.70337">
        <ele>760</ele>
        <time>2026-07-05T07:25:52.000Z</time>
      </trkpt>
      <trkpt lat="44.95686" lon="5.70338">
        <ele>760.20001220703</ele>
        <time>2026-07-05T07:25:53.000Z</time>
      </trkpt>
      <trkpt lat="44.95688" lon="5.70338">
        <ele>760.20001220703</ele>
        <time>2026-07-05T07:25:54.000Z</time>
      </trkpt>
      <trkpt lat="44.9569" lon="5.70339">
        <ele>760.20001220703</ele>
        <time>2026-07-05T07:25:55.000Z</time>
      </trkpt>
      <trkpt lat="44.95692" lon="5.7034">
        <ele>760.20001220703</ele>
        <time>2026-07-05T07:25:56.000Z</time>
      </trkpt>
      <trkpt lat="44.95694" lon="5.70341">
        <ele>760.20001220703</ele>
        <time>2026-07-05T07:25:57.000Z</time>
      </trkpt>
      <trkpt lat="44.95695" lon="5.70341">
        <ele>761</ele>
        <time>2026-07-05T07:25:58.000Z</time>
      </trkpt>
      <trkpt lat="44.95697" lon="5.70342">
        <ele>761.59997558594</ele>
        <time>2026-07-05T07:25:59.000Z</time>
      </trkpt>
      <trkpt lat="44.95699" lon="5.70343">
        <ele>762.40002441406</ele>
        <time>2026-07-05T07:26:00.000Z</time>
      </trkpt>
      <trkpt lat="44.95701" lon="5.70343">
        <ele>763</ele>
        <time>2026-07-05T07:26:01.000Z</time>
      </trkpt>
      <trkpt lat="44.95702" lon="5.70344">
        <ele>763.79998779297</ele>
        <time>2026-07-05T07:26:02.000Z</time>
      </trkpt>
      <trkpt lat="44.95704" lon="5.70345">
        <ele>763.40002441406</ele>
        <time>2026-07-05T07:26:03.000Z</time>
      </trkpt>
      <trkpt lat="44.95706" lon="5.70346">
        <ele>763.40002441406</ele>
        <time>2026-07-05T07:26:04.000Z</time>
      </trkpt>
      <trkpt lat="44.95708" lon="5.70347">
        <ele>763.40002441406</ele>
        <time>2026-07-05T07:26:05.000Z</time>
      </trkpt>
      <trkpt lat="44.9571" lon="5.70349">
        <ele>763.40002441406</ele>
        <time>2026-07-05T07:26:06.000Z</time>
      </trkpt>
      <trkpt lat="44.95712" lon="5.7035">
        <ele>763.40002441406</ele>
        <time>2026-07-05T07:26:07.000Z</time>
      </trkpt>
      <trkpt lat="44.95714" lon="5.7035">
        <ele>763.20001220703</ele>
        <time>2026-07-05T07:26:08.000Z</time>
      </trkpt>
      <trkpt lat="44.95715" lon="5.70351">
        <ele>762.79998779297</ele>
        <time>2026-07-05T07:26:09.000Z</time>
      </trkpt>
      <trkpt lat="44.95717" lon="5.70352">
        <ele>762.79998779297</ele>
        <time>2026-07-05T07:26:10.000Z</time>
      </trkpt>
      <trkpt lat="44.95718" lon="5.70353">
        <ele>762.79998779297</ele>
        <time>2026-07-05T07:26:11.000Z</time>
      </trkpt>
      <trkpt lat="44.9572" lon="5.70355">
        <ele>762.79998779297</ele>
        <time>2026-07-05T07:26:12.000Z</time>
      </trkpt>
      <trkpt lat="44.95722" lon="5.70356">
        <ele>762.79998779297</ele>
        <time>2026-07-05T07:26:13.000Z</time>
      </trkpt>
      <trkpt lat="44.95724" lon="5.70357">
        <ele>763.20001220703</ele>
        <time>2026-07-05T07:26:14.000Z</time>
      </trkpt>
      <trkpt lat="44.95726" lon="5.70358">
        <ele>763.79998779297</ele>
        <time>2026-07-05T07:26:15.000Z</time>
      </trkpt>
      <trkpt lat="44.95727" lon="5.70359">
        <ele>764.59997558594</ele>
        <time>2026-07-05T07:26:16.000Z</time>
      </trkpt>
      <trkpt lat="44.95729" lon="5.7036">
        <ele>764.40002441406</ele>
        <time>2026-07-05T07:26:17.000Z</time>
      </trkpt>
      <trkpt lat="44.95731" lon="5.70361">
        <ele>764.59997558594</ele>
        <time>2026-07-05T07:26:18.000Z</time>
      </trkpt>
      <trkpt lat="44.95733" lon="5.70362">
        <ele>764.59997558594</ele>
        <time>2026-07-05T07:26:19.000Z</time>
      </trkpt>
      <trkpt lat="44.95735" lon="5.70364">
        <ele>764.59997558594</ele>
        <time>2026-07-05T07:26:20.000Z</time>
      </trkpt>
      <trkpt lat="44.95737" lon="5.70366">
        <ele>764.79998779297</ele>
        <time>2026-07-05T07:26:21.000Z</time>
      </trkpt>
      <trkpt lat="44.95739" lon="5.70367">
        <ele>765.20001220703</ele>
        <time>2026-07-05T07:26:22.000Z</time>
      </trkpt>
      <trkpt lat="44.9574" lon="5.70369">
        <ele>765.59997558594</ele>
        <time>2026-07-05T07:26:23.000Z</time>
      </trkpt>
      <trkpt lat="44.95742" lon="5.7037">
        <ele>766</ele>
        <time>2026-07-05T07:26:24.000Z</time>
      </trkpt>
      <trkpt lat="44.95744" lon="5.70372">
        <ele>766.20001220703</ele>
        <time>2026-07-05T07:26:25.000Z</time>
      </trkpt>
      <trkpt lat="44.95745" lon="5.70374">
        <ele>766.59997558594</ele>
        <time>2026-07-05T07:26:26.000Z</time>
      </trkpt>
      <trkpt lat="44.95747" lon="5.70375">
        <ele>767.20001220703</ele>
        <time>2026-07-05T07:26:27.000Z</time>
      </trkpt>
      <trkpt lat="44.95749" lon="5.70377">
        <ele>767.79998779297</ele>
        <time>2026-07-05T07:26:28.000Z</time>
      </trkpt>
      <trkpt lat="44.9575" lon="5.70379">
        <ele>768.40002441406</ele>
        <time>2026-07-05T07:26:29.000Z</time>
      </trkpt>
      <trkpt lat="44.95752" lon="5.7038">
        <ele>769</ele>
        <time>2026-07-05T07:26:30.000Z</time>
      </trkpt>
      <trkpt lat="44.95754" lon="5.70381">
        <ele>769.59997558594</ele>
        <time>2026-07-05T07:26:31.000Z</time>
      </trkpt>
      <trkpt lat="44.95756" lon="5.70381">
        <ele>769.40002441406</ele>
        <time>2026-07-05T07:26:32.000Z</time>
      </trkpt>
      <trkpt lat="44.95757" lon="5.70382">
        <ele>769.59997558594</ele>
        <time>2026-07-05T07:26:33.000Z</time>
      </trkpt>
      <trkpt lat="44.95759" lon="5.70383">
        <ele>769.79998779297</ele>
        <time>2026-07-05T07:26:34.000Z</time>
      </trkpt>
      <trkpt lat="44.95761" lon="5.70384">
        <ele>769.59997558594</ele>
        <time>2026-07-05T07:26:35.000Z</time>
      </trkpt>
      <trkpt lat="44.95763" lon="5.70385">
        <ele>769.40002441406</ele>
        <time>2026-07-05T07:26:36.000Z</time>
      </trkpt>
      <trkpt lat="44.95765" lon="5.70385">
        <ele>769.20001220703</ele>
        <time>2026-07-05T07:26:37.000Z</time>
      </trkpt>
      <trkpt lat="44.95767" lon="5.70385">
        <ele>768.79998779297</ele>
        <time>2026-07-05T07:26:38.000Z</time>
      </trkpt>
      <trkpt lat="44.95769" lon="5.70386">
        <ele>768.59997558594</ele>
        <time>2026-07-05T07:26:39.000Z</time>
      </trkpt>
      <trkpt lat="44.9577" lon="5.70387">
        <ele>768.40002441406</ele>
        <time>2026-07-05T07:26:40.000Z</time>
      </trkpt>
      <trkpt lat="44.95772" lon="5.70387">
        <ele>768.20001220703</ele>
        <time>2026-07-05T07:26:41.000Z</time>
      </trkpt>
      <trkpt lat="44.95773" lon="5.70388">
        <ele>768</ele>
        <time>2026-07-05T07:26:42.000Z</time>
      </trkpt>
      <trkpt lat="44.95775" lon="5.70388">
        <ele>768</ele>
        <time>2026-07-05T07:26:43.000Z</time>
      </trkpt>
      <trkpt lat="44.95776" lon="5.70388">
        <ele>768</ele>
        <time>2026-07-05T07:26:44.000Z</time>
      </trkpt>
      <trkpt lat="44.95778" lon="5.70389">
        <ele>768</ele>
        <time>2026-07-05T07:26:45.000Z</time>
      </trkpt>
      <trkpt lat="44.95779" lon="5.70389">
        <ele>768</ele>
        <time>2026-07-05T07:26:46.000Z</time>
      </trkpt>
      <trkpt lat="44.95781" lon="5.7039">
        <ele>768.20001220703</ele>
        <time>2026-07-05T07:26:47.000Z</time>
      </trkpt>
      <trkpt lat="44.95782" lon="5.7039">
        <ele>768.79998779297</ele>
        <time>2026-07-05T07:26:48.000Z</time>
      </trkpt>
      <trkpt lat="44.95784" lon="5.70391">
        <ele>769</ele>
        <time>2026-07-05T07:26:49.000Z</time>
      </trkpt>
      <trkpt lat="44.95785" lon="5.70392">
        <ele>769.20001220703</ele>
        <time>2026-07-05T07:26:50.000Z</time>
      </trkpt>
      <trkpt lat="44.95787" lon="5.70392">
        <ele>769.79998779297</ele>
        <time>2026-07-05T07:26:51.000Z</time>
      </trkpt>
      <trkpt lat="44.95789" lon="5.70392">
        <ele>770</ele>
        <time>2026-07-05T07:26:52.000Z</time>
      </trkpt>
      <trkpt lat="44.9579" lon="5.70392">
        <ele>770</ele>
        <time>2026-07-05T07:26:53.000Z</time>
      </trkpt>
      <trkpt lat="44.95792" lon="5.70393">
        <ele>770</ele>
        <time>2026-07-05T07:26:54.000Z</time>
      </trkpt>
      <trkpt lat="44.95794" lon="5.70393">
        <ele>770.20001220703</ele>
        <time>2026-07-05T07:26:55.000Z</time>
      </trkpt>
      <trkpt lat="44.95795" lon="5.70394">
        <ele>770.20001220703</ele>
        <time>2026-07-05T07:26:56.000Z</time>
      </trkpt>
      <trkpt lat="44.95796" lon="5.70395">
        <ele>770.20001220703</ele>
        <time>2026-07-05T07:26:57.000Z</time>
      </trkpt>
      <trkpt lat="44.95798" lon="5.70396">
        <ele>770.20001220703</ele>
        <time>2026-07-05T07:26:58.000Z</time>
      </trkpt>
      <trkpt lat="44.958" lon="5.70397">
        <ele>770.20001220703</ele>
        <time>2026-07-05T07:26:59.000Z</time>
      </trkpt>
      <trkpt lat="44.95801" lon="5.70399">
        <ele>770.20001220703</ele>
        <time>2026-07-05T07:27:00.000Z</time>
      </trkpt>
      <trkpt lat="44.95802" lon="5.704">
        <ele>770.20001220703</ele>
        <time>2026-07-05T07:27:01.000Z</time>
      </trkpt>
      <trkpt lat="44.95804" lon="5.70401">
        <ele>770.20001220703</ele>
        <time>2026-07-05T07:27:02.000Z</time>
      </trkpt>
      <trkpt lat="44.95805" lon="5.70402">
        <ele>770.20001220703</ele>
        <time>2026-07-05T07:27:03.000Z</time>
      </trkpt>
      <trkpt lat="44.95807" lon="5.70404">
        <ele>770.20001220703</ele>
        <time>2026-07-05T07:27:04.000Z</time>
      </trkpt>
      <trkpt lat="44.95809" lon="5.70404">
        <ele>770.59997558594</ele>
        <time>2026-07-05T07:27:05.000Z</time>
      </trkpt>
      <trkpt lat="44.95811" lon="5.70405">
        <ele>771.20001220703</ele>
        <time>2026-07-05T07:27:06.000Z</time>
      </trkpt>
      <trkpt lat="44.95812" lon="5.70405">
        <ele>771.79998779297</ele>
        <time>2026-07-05T07:27:07.000Z</time>
      </trkpt>
      <trkpt lat="44.95814" lon="5.70405">
        <ele>772.59997558594</ele>
        <time>2026-07-05T07:27:08.000Z</time>
      </trkpt>
      <trkpt lat="44.95815" lon="5.70406">
        <ele>772.79998779297</ele>
        <time>2026-07-05T07:27:09.000Z</time>
      </trkpt>
      <trkpt lat="44.95817" lon="5.70406">
        <ele>773.59997558594</ele>
        <time>2026-07-05T07:27:10.000Z</time>
      </trkpt>
      <trkpt lat="44.95818" lon="5.70406">
        <ele>773.79998779297</ele>
        <time>2026-07-05T07:27:11.000Z</time>
      </trkpt>
      <trkpt lat="44.9582" lon="5.70406">
        <ele>774.20001220703</ele>
        <time>2026-07-05T07:27:12.000Z</time>
      </trkpt>
      <trkpt lat="44.95821" lon="5.70406">
        <ele>775.40002441406</ele>
        <time>2026-07-05T07:27:13.000Z</time>
      </trkpt>
      <trkpt lat="44.95823" lon="5.70406">
        <ele>776</ele>
        <time>2026-07-05T07:27:14.000Z</time>
      </trkpt>
      <trkpt lat="44.95824" lon="5.70406">
        <ele>776.40002441406</ele>
        <time>2026-07-05T07:27:15.000Z</time>
      </trkpt>
      <trkpt lat="44.95826" lon="5.70406">
        <ele>777.20001220703</ele>
        <time>2026-07-05T07:27:16.000Z</time>
      </trkpt>
      <trkpt lat="44.95827" lon="5.70406">
        <ele>777.40002441406</ele>
        <time>2026-07-05T07:27:17.000Z</time>
      </trkpt>
      <trkpt lat="44.95829" lon="5.70405">
        <ele>777.79998779297</ele>
        <time>2026-07-05T07:27:18.000Z</time>
      </trkpt>
      <trkpt lat="44.9583" lon="5.70405">
        <ele>778</ele>
        <time>2026-07-05T07:27:19.000Z</time>
      </trkpt>
      <trkpt lat="44.95832" lon="5.70405">
        <ele>778.20001220703</ele>
        <time>2026-07-05T07:27:20.000Z</time>
      </trkpt>
      <trkpt lat="44.95833" lon="5.70404">
        <ele>778.40002441406</ele>
        <time>2026-07-05T07:27:21.000Z</time>
      </trkpt>
      <trkpt lat="44.95835" lon="5.70404">
        <ele>778.59997558594</ele>
        <time>2026-07-05T07:27:22.000Z</time>
      </trkpt>
      <trkpt lat="44.95837" lon="5.70403">
        <ele>778.59997558594</ele>
        <time>2026-07-05T07:27:23.000Z</time>
      </trkpt>
      <trkpt lat="44.95838" lon="5.70403">
        <ele>778.59997558594</ele>
        <time>2026-07-05T07:27:24.000Z</time>
      </trkpt>
      <trkpt lat="44.95839" lon="5.70402">
        <ele>778.79998779297</ele>
        <time>2026-07-05T07:27:25.000Z</time>
      </trkpt>
      <trkpt lat="44.95841" lon="5.70401">
        <ele>778.79998779297</ele>
        <time>2026-07-05T07:27:26.000Z</time>
      </trkpt>
      <trkpt lat="44.95842" lon="5.70401">
        <ele>778.79998779297</ele>
        <time>2026-07-05T07:27:27.000Z</time>
      </trkpt>
      <trkpt lat="44.95844" lon="5.704">
        <ele>778.79998779297</ele>
        <time>2026-07-05T07:27:28.000Z</time>
      </trkpt>
      <trkpt lat="44.95845" lon="5.70399">
        <ele>778.79998779297</ele>
        <time>2026-07-05T07:27:29.000Z</time>
      </trkpt>
      <trkpt lat="44.95847" lon="5.70399">
        <ele>779</ele>
        <time>2026-07-05T07:27:30.000Z</time>
      </trkpt>
      <trkpt lat="44.95849" lon="5.70398">
        <ele>779</ele>
        <time>2026-07-05T07:27:31.000Z</time>
      </trkpt>
      <trkpt lat="44.9585" lon="5.70398">
        <ele>778.79998779297</ele>
        <time>2026-07-05T07:27:32.000Z</time>
      </trkpt>
      <trkpt lat="44.95852" lon="5.70397">
        <ele>778.59997558594</ele>
        <time>2026-07-05T07:27:33.000Z</time>
      </trkpt>
      <trkpt lat="44.95853" lon="5.70397">
        <ele>778.40002441406</ele>
        <time>2026-07-05T07:27:34.000Z</time>
      </trkpt>
      <trkpt lat="44.95854" lon="5.70396">
        <ele>778.40002441406</ele>
        <time>2026-07-05T07:27:35.000Z</time>
      </trkpt>
      <trkpt lat="44.95855" lon="5.70395">
        <ele>778</ele>
        <time>2026-07-05T07:27:36.000Z</time>
      </trkpt>
      <trkpt lat="44.95857" lon="5.70395">
        <ele>778.20001220703</ele>
        <time>2026-07-05T07:27:37.000Z</time>
      </trkpt>
      <trkpt lat="44.95858" lon="5.70395">
        <ele>778.20001220703</ele>
        <time>2026-07-05T07:27:38.000Z</time>
      </trkpt>
      <trkpt lat="44.9586" lon="5.70394">
        <ele>778.40002441406</ele>
        <time>2026-07-05T07:27:39.000Z</time>
      </trkpt>
      <trkpt lat="44.95861" lon="5.70393">
        <ele>778.40002441406</ele>
        <time>2026-07-05T07:27:40.000Z</time>
      </trkpt>
      <trkpt lat="44.95863" lon="5.70392">
        <ele>779</ele>
        <time>2026-07-05T07:27:41.000Z</time>
      </trkpt>
      <trkpt lat="44.95864" lon="5.70391">
        <ele>779.40002441406</ele>
        <time>2026-07-05T07:27:42.000Z</time>
      </trkpt>
      <trkpt lat="44.95865" lon="5.7039">
        <ele>779.79998779297</ele>
        <time>2026-07-05T07:27:43.000Z</time>
      </trkpt>
      <trkpt lat="44.95867" lon="5.70389">
        <ele>780.20001220703</ele>
        <time>2026-07-05T07:27:44.000Z</time>
      </trkpt>
      <trkpt lat="44.95868" lon="5.70388">
        <ele>781.20001220703</ele>
        <time>2026-07-05T07:27:45.000Z</time>
      </trkpt>
      <trkpt lat="44.95869" lon="5.70386">
        <ele>781.20001220703</ele>
        <time>2026-07-05T07:27:46.000Z</time>
      </trkpt>
      <trkpt lat="44.95871" lon="5.70385">
        <ele>781.79998779297</ele>
        <time>2026-07-05T07:27:47.000Z</time>
      </trkpt>
      <trkpt lat="44.95872" lon="5.70384">
        <ele>781.79998779297</ele>
        <time>2026-07-05T07:27:48.000Z</time>
      </trkpt>
      <trkpt lat="44.95874" lon="5.70384">
        <ele>782.20001220703</ele>
        <time>2026-07-05T07:27:49.000Z</time>
      </trkpt>
      <trkpt lat="44.95875" lon="5.70383">
        <ele>782.40002441406</ele>
        <time>2026-07-05T07:27:50.000Z</time>
      </trkpt>
      <trkpt lat="44.95877" lon="5.70382">
        <ele>782.40002441406</ele>
        <time>2026-07-05T07:27:51.000Z</time>
      </trkpt>
      <trkpt lat="44.95878" lon="5.70381">
        <ele>782.59997558594</ele>
        <time>2026-07-05T07:27:52.000Z</time>
      </trkpt>
      <trkpt lat="44.9588" lon="5.70381">
        <ele>783</ele>
        <time>2026-07-05T07:27:53.000Z</time>
      </trkpt>
      <trkpt lat="44.95881" lon="5.7038">
        <ele>783</ele>
        <time>2026-07-05T07:27:54.000Z</time>
      </trkpt>
      <trkpt lat="44.95883" lon="5.7038">
        <ele>783.20001220703</ele>
        <time>2026-07-05T07:27:55.000Z</time>
      </trkpt>
      <trkpt lat="44.95884" lon="5.7038">
        <ele>783.40002441406</ele>
        <time>2026-07-05T07:27:56.000Z</time>
      </trkpt>
      <trkpt lat="44.95886" lon="5.70379">
        <ele>783.40002441406</ele>
        <time>2026-07-05T07:27:57.000Z</time>
      </trkpt>
      <trkpt lat="44.95888" lon="5.70379">
        <ele>783.40002441406</ele>
        <time>2026-07-05T07:27:58.000Z</time>
      </trkpt>
      <trkpt lat="44.95889" lon="5.70379">
        <ele>783.59997558594</ele>
        <time>2026-07-05T07:27:59.000Z</time>
      </trkpt>
      <trkpt lat="44.95891" lon="5.70379">
        <ele>783.79998779297</ele>
        <time>2026-07-05T07:28:00.000Z</time>
      </trkpt>
      <trkpt lat="44.95893" lon="5.70379">
        <ele>784.20001220703</ele>
        <time>2026-07-05T07:28:01.000Z</time>
      </trkpt>
      <trkpt lat="44.95894" lon="5.70378">
        <ele>784.40002441406</ele>
        <time>2026-07-05T07:28:02.000Z</time>
      </trkpt>
      <trkpt lat="44.95896" lon="5.70378">
        <ele>784.79998779297</ele>
        <time>2026-07-05T07:28:03.000Z</time>
      </trkpt>
      <trkpt lat="44.95898" lon="5.70378">
        <ele>784.79998779297</ele>
        <time>2026-07-05T07:28:04.000Z</time>
      </trkpt>
      <trkpt lat="44.959" lon="5.70378">
        <ele>785.40002441406</ele>
        <time>2026-07-05T07:28:05.000Z</time>
      </trkpt>
      <trkpt lat="44.95901" lon="5.70378">
        <ele>785.59997558594</ele>
        <time>2026-07-05T07:28:06.000Z</time>
      </trkpt>
      <trkpt lat="44.95903" lon="5.70378">
        <ele>785.79998779297</ele>
        <time>2026-07-05T07:28:07.000Z</time>
      </trkpt>
      <trkpt lat="44.95905" lon="5.70379">
        <ele>786</ele>
        <time>2026-07-05T07:28:08.000Z</time>
      </trkpt>
      <trkpt lat="44.95907" lon="5.70379">
        <ele>786</ele>
        <time>2026-07-05T07:28:09.000Z</time>
      </trkpt>
      <trkpt lat="44.95908" lon="5.7038">
        <ele>786.40002441406</ele>
        <time>2026-07-05T07:28:10.000Z</time>
      </trkpt>
      <trkpt lat="44.95909" lon="5.7038">
        <ele>786.40002441406</ele>
        <time>2026-07-05T07:28:11.000Z</time>
      </trkpt>
      <trkpt lat="44.95911" lon="5.7038">
        <ele>786.40002441406</ele>
        <time>2026-07-05T07:28:12.000Z</time>
      </trkpt>
      <trkpt lat="44.95912" lon="5.70381">
        <ele>786.59997558594</ele>
        <time>2026-07-05T07:28:13.000Z</time>
      </trkpt>
      <trkpt lat="44.95913" lon="5.70381">
        <ele>786.59997558594</ele>
        <time>2026-07-05T07:28:14.000Z</time>
      </trkpt>
      <trkpt lat="44.95915" lon="5.70381">
        <ele>786.79998779297</ele>
        <time>2026-07-05T07:28:15.000Z</time>
      </trkpt>
      <trkpt lat="44.95917" lon="5.70381">
        <ele>786.79998779297</ele>
        <time>2026-07-05T07:28:16.000Z</time>
      </trkpt>
      <trkpt lat="44.95918" lon="5.70382">
        <ele>787</ele>
        <time>2026-07-05T07:28:17.000Z</time>
      </trkpt>
      <trkpt lat="44.95919" lon="5.70382">
        <ele>786.79998779297</ele>
        <time>2026-07-05T07:28:18.000Z</time>
      </trkpt>
      <trkpt lat="44.95921" lon="5.70382">
        <ele>786.79998779297</ele>
        <time>2026-07-05T07:28:19.000Z</time>
      </trkpt>
      <trkpt lat="44.95922" lon="5.70381">
        <ele>787.20001220703</ele>
        <time>2026-07-05T07:28:20.000Z</time>
      </trkpt>
      <trkpt lat="44.95924" lon="5.70381">
        <ele>787.20001220703</ele>
        <time>2026-07-05T07:28:21.000Z</time>
      </trkpt>
      <trkpt lat="44.95926" lon="5.70381">
        <ele>787.59997558594</ele>
        <time>2026-07-05T07:28:22.000Z</time>
      </trkpt>
      <trkpt lat="44.95927" lon="5.7038">
        <ele>788</ele>
        <time>2026-07-05T07:28:23.000Z</time>
      </trkpt>
      <trkpt lat="44.95929" lon="5.7038">
        <ele>788.40002441406</ele>
        <time>2026-07-05T07:28:24.000Z</time>
      </trkpt>
      <trkpt lat="44.9593" lon="5.70381">
        <ele>788.59997558594</ele>
        <time>2026-07-05T07:28:25.000Z</time>
      </trkpt>
      <trkpt lat="44.95932" lon="5.70381">
        <ele>789</ele>
        <time>2026-07-05T07:28:26.000Z</time>
      </trkpt>
      <trkpt lat="44.95934" lon="5.70382">
        <ele>789</ele>
        <time>2026-07-05T07:28:27.000Z</time>
      </trkpt>
      <trkpt lat="44.95935" lon="5.70383">
        <ele>789</ele>
        <time>2026-07-05T07:28:28.000Z</time>
      </trkpt>
      <trkpt lat="44.95936" lon="5.70385">
        <ele>789</ele>
        <time>2026-07-05T07:28:29.000Z</time>
      </trkpt>
      <trkpt lat="44.95937" lon="5.70388">
        <ele>789</ele>
        <time>2026-07-05T07:28:30.000Z</time>
      </trkpt>
      <trkpt lat="44.95937" lon="5.70391">
        <ele>789.20001220703</ele>
        <time>2026-07-05T07:28:31.000Z</time>
      </trkpt>
      <trkpt lat="44.95937" lon="5.70393">
        <ele>789.40002441406</ele>
        <time>2026-07-05T07:28:32.000Z</time>
      </trkpt>
      <trkpt lat="44.95936" lon="5.70396">
        <ele>789.59997558594</ele>
        <time>2026-07-05T07:28:33.000Z</time>
      </trkpt>
      <trkpt lat="44.95935" lon="5.70399">
        <ele>789.79998779297</ele>
        <time>2026-07-05T07:28:34.000Z</time>
      </trkpt>
      <trkpt lat="44.95934" lon="5.70402">
        <ele>790</ele>
        <time>2026-07-05T07:28:35.000Z</time>
      </trkpt>
      <trkpt lat="44.95933" lon="5.70405">
        <ele>790</ele>
        <time>2026-07-05T07:28:36.000Z</time>
      </trkpt>
      <trkpt lat="44.95932" lon="5.70408">
        <ele>790.20001220703</ele>
        <time>2026-07-05T07:28:37.000Z</time>
      </trkpt>
      <trkpt lat="44.95931" lon="5.70411">
        <ele>790.59997558594</ele>
        <time>2026-07-05T07:28:38.000Z</time>
      </trkpt>
      <trkpt lat="44.9593" lon="5.70414">
        <ele>790.79998779297</ele>
        <time>2026-07-05T07:28:39.000Z</time>
      </trkpt>
      <trkpt lat="44.95928" lon="5.70417">
        <ele>791.20001220703</ele>
        <time>2026-07-05T07:28:40.000Z</time>
      </trkpt>
      <trkpt lat="44.95927" lon="5.7042">
        <ele>791.59997558594</ele>
        <time>2026-07-05T07:28:41.000Z</time>
      </trkpt>
      <trkpt lat="44.95926" lon="5.70422">
        <ele>791.79998779297</ele>
        <time>2026-07-05T07:28:42.000Z</time>
      </trkpt>
      <trkpt lat="44.95924" lon="5.70425">
        <ele>791.79998779297</ele>
        <time>2026-07-05T07:28:43.000Z</time>
      </trkpt>
      <trkpt lat="44.95922" lon="5.70429">
        <ele>791.59997558594</ele>
        <time>2026-07-05T07:28:44.000Z</time>
      </trkpt>
      <trkpt lat="44.9592" lon="5.70431">
        <ele>791.59997558594</ele>
        <time>2026-07-05T07:28:45.000Z</time>
      </trkpt>
      <trkpt lat="44.95919" lon="5.70433">
        <ele>791.40002441406</ele>
        <time>2026-07-05T07:28:46.000Z</time>
      </trkpt>
      <trkpt lat="44.95916" lon="5.70437">
        <ele>791.40002441406</ele>
        <time>2026-07-05T07:28:47.000Z</time>
      </trkpt>
      <trkpt lat="44.95915" lon="5.7044">
        <ele>790.79998779297</ele>
        <time>2026-07-05T07:28:48.000Z</time>
      </trkpt>
      <trkpt lat="44.95913" lon="5.70442">
        <ele>790.40002441406</ele>
        <time>2026-07-05T07:28:49.000Z</time>
      </trkpt>
      <trkpt lat="44.9591" lon="5.70445">
        <ele>789.79998779297</ele>
        <time>2026-07-05T07:28:50.000Z</time>
      </trkpt>
      <trkpt lat="44.95908" lon="5.70448">
        <ele>789.40002441406</ele>
        <time>2026-07-05T07:28:51.000Z</time>
      </trkpt>
      <trkpt lat="44.95906" lon="5.70451">
        <ele>788.79998779297</ele>
        <time>2026-07-05T07:28:52.000Z</time>
      </trkpt>
      <trkpt lat="44.95904" lon="5.70454">
        <ele>788.40002441406</ele>
        <time>2026-07-05T07:28:53.000Z</time>
      </trkpt>
      <trkpt lat="44.95902" lon="5.70457">
        <ele>787.79998779297</ele>
        <time>2026-07-05T07:28:54.000Z</time>
      </trkpt>
      <trkpt lat="44.959" lon="5.7046">
        <ele>787.40002441406</ele>
        <time>2026-07-05T07:28:55.000Z</time>
      </trkpt>
      <trkpt lat="44.95899" lon="5.70463">
        <ele>786.79998779297</ele>
        <time>2026-07-05T07:28:56.000Z</time>
      </trkpt>
      <trkpt lat="44.95897" lon="5.70466">
        <ele>786.40002441406</ele>
        <time>2026-07-05T07:28:57.000Z</time>
      </trkpt>
      <trkpt lat="44.95895" lon="5.70469">
        <ele>786</ele>
        <time>2026-07-05T07:28:58.000Z</time>
      </trkpt>
      <trkpt lat="44.95893" lon="5.70472">
        <ele>785.79998779297</ele>
        <time>2026-07-05T07:28:59.000Z</time>
      </trkpt>
      <trkpt lat="44.95891" lon="5.70475">
        <ele>785.40002441406</ele>
        <time>2026-07-05T07:29:00.000Z</time>
      </trkpt>
      <trkpt lat="44.9589" lon="5.70478">
        <ele>784.79998779297</ele>
        <time>2026-07-05T07:29:01.000Z</time>
      </trkpt>
      <trkpt lat="44.95887" lon="5.70481">
        <ele>784</ele>
        <time>2026-07-05T07:29:02.000Z</time>
      </trkpt>
      <trkpt lat="44.95885" lon="5.70484">
        <ele>783.59997558594</ele>
        <time>2026-07-05T07:29:03.000Z</time>
      </trkpt>
      <trkpt lat="44.95883" lon="5.70487">
        <ele>783.59997558594</ele>
        <time>2026-07-05T07:29:04.000Z</time>
      </trkpt>
      <trkpt lat="44.95881" lon="5.7049">
        <ele>783.40002441406</ele>
        <time>2026-07-05T07:29:05.000Z</time>
      </trkpt>
      <trkpt lat="44.9588" lon="5.70493">
        <ele>783.40002441406</ele>
        <time>2026-07-05T07:29:06.000Z</time>
      </trkpt>
      <trkpt lat="44.95878" lon="5.70496">
        <ele>782.79998779297</ele>
        <time>2026-07-05T07:29:07.000Z</time>
      </trkpt>
      <trkpt lat="44.95877" lon="5.70498">
        <ele>782.59997558594</ele>
        <time>2026-07-05T07:29:08.000Z</time>
      </trkpt>
      <trkpt lat="44.95875" lon="5.70501">
        <ele>782.59997558594</ele>
        <time>2026-07-05T07:29:09.000Z</time>
      </trkpt>
      <trkpt lat="44.95873" lon="5.70503">
        <ele>782.40002441406</ele>
        <time>2026-07-05T07:29:10.000Z</time>
      </trkpt>
      <trkpt lat="44.95871" lon="5.70506">
        <ele>782</ele>
        <time>2026-07-05T07:29:11.000Z</time>
      </trkpt>
      <trkpt lat="44.95869" lon="5.70509">
        <ele>781.59997558594</ele>
        <time>2026-07-05T07:29:12.000Z</time>
      </trkpt>
      <trkpt lat="44.95866" lon="5.70512">
        <ele>781.40002441406</ele>
        <time>2026-07-05T07:29:13.000Z</time>
      </trkpt>
      <trkpt lat="44.95864" lon="5.70514">
        <ele>781</ele>
        <time>2026-07-05T07:29:14.000Z</time>
      </trkpt>
      <trkpt lat="44.95862" lon="5.70517">
        <ele>780.59997558594</ele>
        <time>2026-07-05T07:29:15.000Z</time>
      </trkpt>
      <trkpt lat="44.9586" lon="5.7052">
        <ele>780.20001220703</ele>
        <time>2026-07-05T07:29:16.000Z</time>
      </trkpt>
      <trkpt lat="44.95858" lon="5.70523">
        <ele>779.79998779297</ele>
        <time>2026-07-05T07:29:17.000Z</time>
      </trkpt>
      <trkpt lat="44.95856" lon="5.70526">
        <ele>779.40002441406</ele>
        <time>2026-07-05T07:29:18.000Z</time>
      </trkpt>
      <trkpt lat="44.95855" lon="5.70529">
        <ele>779.40002441406</ele>
        <time>2026-07-05T07:29:19.000Z</time>
      </trkpt>
      <trkpt lat="44.95853" lon="5.70531">
        <ele>779.20001220703</ele>
        <time>2026-07-05T07:29:20.000Z</time>
      </trkpt>
      <trkpt lat="44.95851" lon="5.70534">
        <ele>779.20001220703</ele>
        <time>2026-07-05T07:29:21.000Z</time>
      </trkpt>
      <trkpt lat="44.9585" lon="5.70538">
        <ele>779.20001220703</ele>
        <time>2026-07-05T07:29:22.000Z</time>
      </trkpt>
      <trkpt lat="44.95849" lon="5.70541">
        <ele>779</ele>
        <time>2026-07-05T07:29:23.000Z</time>
      </trkpt>
      <trkpt lat="44.95847" lon="5.70544">
        <ele>778.79998779297</ele>
        <time>2026-07-05T07:29:24.000Z</time>
      </trkpt>
      <trkpt lat="44.95846" lon="5.70547">
        <ele>778.20001220703</ele>
        <time>2026-07-05T07:29:25.000Z</time>
      </trkpt>
      <trkpt lat="44.95844" lon="5.70551">
        <ele>777.59997558594</ele>
        <time>2026-07-05T07:29:26.000Z</time>
      </trkpt>
      <trkpt lat="44.95843" lon="5.70555">
        <ele>777.40002441406</ele>
        <time>2026-07-05T07:29:27.000Z</time>
      </trkpt>
      <trkpt lat="44.95841" lon="5.70559">
        <ele>777.20001220703</ele>
        <time>2026-07-05T07:29:28.000Z</time>
      </trkpt>
      <trkpt lat="44.9584" lon="5.70563">
        <ele>776.79998779297</ele>
        <time>2026-07-05T07:29:29.000Z</time>
      </trkpt>
      <trkpt lat="44.95838" lon="5.70567">
        <ele>776.59997558594</ele>
        <time>2026-07-05T07:29:30.000Z</time>
      </trkpt>
      <trkpt lat="44.95836" lon="5.7057">
        <ele>776.40002441406</ele>
        <time>2026-07-05T07:29:31.000Z</time>
      </trkpt>
      <trkpt lat="44.95834" lon="5.70574">
        <ele>776.40002441406</ele>
        <time>2026-07-05T07:29:32.000Z</time>
      </trkpt>
      <trkpt lat="44.95832" lon="5.70577">
        <ele>776.20001220703</ele>
        <time>2026-07-05T07:29:33.000Z</time>
      </trkpt>
      <trkpt lat="44.95831" lon="5.7058">
        <ele>776.20001220703</ele>
        <time>2026-07-05T07:29:34.000Z</time>
      </trkpt>
      <trkpt lat="44.95829" lon="5.70584">
        <ele>776</ele>
        <time>2026-07-05T07:29:35.000Z</time>
      </trkpt>
      <trkpt lat="44.95827" lon="5.70587">
        <ele>775</ele>
        <time>2026-07-05T07:29:36.000Z</time>
      </trkpt>
      <trkpt lat="44.95826" lon="5.7059">
        <ele>773.79998779297</ele>
        <time>2026-07-05T07:29:37.000Z</time>
      </trkpt>
      <trkpt lat="44.95824" lon="5.70595">
        <ele>772.79998779297</ele>
        <time>2026-07-05T07:29:38.000Z</time>
      </trkpt>
      <trkpt lat="44.95822" lon="5.70598">
        <ele>772.59997558594</ele>
        <time>2026-07-05T07:29:39.000Z</time>
      </trkpt>
      <trkpt lat="44.95821" lon="5.70601">
        <ele>772.20001220703</ele>
        <time>2026-07-05T07:29:40.000Z</time>
      </trkpt>
      <trkpt lat="44.9582" lon="5.70604">
        <ele>772</ele>
        <time>2026-07-05T07:29:41.000Z</time>
      </trkpt>
      <trkpt lat="44.95818" lon="5.70608">
        <ele>771.59997558594</ele>
        <time>2026-07-05T07:29:42.000Z</time>
      </trkpt>
      <trkpt lat="44.95817" lon="5.70611">
        <ele>771.59997558594</ele>
        <time>2026-07-05T07:29:43.000Z</time>
      </trkpt>
      <trkpt lat="44.95816" lon="5.70616">
        <ele>771.79998779297</ele>
        <time>2026-07-05T07:29:44.000Z</time>
      </trkpt>
      <trkpt lat="44.95815" lon="5.7062">
        <ele>771.79998779297</ele>
        <time>2026-07-05T07:29:45.000Z</time>
      </trkpt>
      <trkpt lat="44.95814" lon="5.70624">
        <ele>772</ele>
        <time>2026-07-05T07:29:46.000Z</time>
      </trkpt>
      <trkpt lat="44.95814" lon="5.70629">
        <ele>772</ele>
        <time>2026-07-05T07:29:47.000Z</time>
      </trkpt>
      <trkpt lat="44.95814" lon="5.70632">
        <ele>772</ele>
        <time>2026-07-05T07:29:48.000Z</time>
      </trkpt>
      <trkpt lat="44.95814" lon="5.70637">
        <ele>771.79998779297</ele>
        <time>2026-07-05T07:29:49.000Z</time>
      </trkpt>
      <trkpt lat="44.95814" lon="5.70641">
        <ele>771.79998779297</ele>
        <time>2026-07-05T07:29:50.000Z</time>
      </trkpt>
      <trkpt lat="44.95815" lon="5.70645">
        <ele>771.40002441406</ele>
        <time>2026-07-05T07:29:51.000Z</time>
      </trkpt>
      <trkpt lat="44.95815" lon="5.70648">
        <ele>771</ele>
        <time>2026-07-05T07:29:52.000Z</time>
      </trkpt>
      <trkpt lat="44.95816" lon="5.70651">
        <ele>770.79998779297</ele>
        <time>2026-07-05T07:29:53.000Z</time>
      </trkpt>
      <trkpt lat="44.95817" lon="5.70654">
        <ele>770.79998779297</ele>
        <time>2026-07-05T07:29:54.000Z</time>
      </trkpt>
      <trkpt lat="44.95819" lon="5.70657">
        <ele>770.59997558594</ele>
        <time>2026-07-05T07:29:55.000Z</time>
      </trkpt>
      <trkpt lat="44.9582" lon="5.70661">
        <ele>770.40002441406</ele>
        <time>2026-07-05T07:29:56.000Z</time>
      </trkpt>
      <trkpt lat="44.95821" lon="5.70664">
        <ele>770.20001220703</ele>
        <time>2026-07-05T07:29:57.000Z</time>
      </trkpt>
      <trkpt lat="44.95823" lon="5.70668">
        <ele>768.79998779297</ele>
        <time>2026-07-05T07:29:58.000Z</time>
      </trkpt>
      <trkpt lat="44.95824" lon="5.70672">
        <ele>768.40002441406</ele>
        <time>2026-07-05T07:29:59.000Z</time>
      </trkpt>
      <trkpt lat="44.95825" lon="5.70675">
        <ele>768</ele>
        <time>2026-07-05T07:30:00.000Z</time>
      </trkpt>
      <trkpt lat="44.95826" lon="5.70679">
        <ele>767.59997558594</ele>
        <time>2026-07-05T07:30:01.000Z</time>
      </trkpt>
      <trkpt lat="44.95828" lon="5.70683">
        <ele>767.20001220703</ele>
        <time>2026-07-05T07:30:02.000Z</time>
      </trkpt>
      <trkpt lat="44.95829" lon="5.70686">
        <ele>766.79998779297</ele>
        <time>2026-07-05T07:30:03.000Z</time>
      </trkpt>
      <trkpt lat="44.9583" lon="5.7069">
        <ele>766.40002441406</ele>
        <time>2026-07-05T07:30:04.000Z</time>
      </trkpt>
      <trkpt lat="44.95831" lon="5.70694">
        <ele>765.59997558594</ele>
        <time>2026-07-05T07:30:05.000Z</time>
      </trkpt>
      <trkpt lat="44.95832" lon="5.70699">
        <ele>765.40002441406</ele>
        <time>2026-07-05T07:30:06.000Z</time>
      </trkpt>
      <trkpt lat="44.95834" lon="5.70703">
        <ele>765.20001220703</ele>
        <time>2026-07-05T07:30:07.000Z</time>
      </trkpt>
      <trkpt lat="44.95835" lon="5.70708">
        <ele>765</ele>
        <time>2026-07-05T07:30:08.000Z</time>
      </trkpt>
      <trkpt lat="44.95835" lon="5.70711">
        <ele>764.20001220703</ele>
        <time>2026-07-05T07:30:09.000Z</time>
      </trkpt>
      <trkpt lat="44.95836" lon="5.70715">
        <ele>763.20001220703</ele>
        <time>2026-07-05T07:30:10.000Z</time>
      </trkpt>
      <trkpt lat="44.95837" lon="5.70719">
        <ele>762.59997558594</ele>
        <time>2026-07-05T07:30:11.000Z</time>
      </trkpt>
      <trkpt lat="44.95838" lon="5.70723">
        <ele>762.20001220703</ele>
        <time>2026-07-05T07:30:12.000Z</time>
      </trkpt>
      <trkpt lat="44.95839" lon="5.70727">
        <ele>761.20001220703</ele>
        <time>2026-07-05T07:30:13.000Z</time>
      </trkpt>
      <trkpt lat="44.9584" lon="5.70731">
        <ele>761</ele>
        <time>2026-07-05T07:30:14.000Z</time>
      </trkpt>
      <trkpt lat="44.9584" lon="5.70735">
        <ele>760.59997558594</ele>
        <time>2026-07-05T07:30:15.000Z</time>
      </trkpt>
      <trkpt lat="44.95841" lon="5.70739">
        <ele>760.40002441406</ele>
        <time>2026-07-05T07:30:16.000Z</time>
      </trkpt>
      <trkpt lat="44.9584" lon="5.70743">
        <ele>760</ele>
        <time>2026-07-05T07:30:17.000Z</time>
      </trkpt>
      <trkpt lat="44.9584" lon="5.70747">
        <ele>760</ele>
        <time>2026-07-05T07:30:18.000Z</time>
      </trkpt>
      <trkpt lat="44.9584" lon="5.70751">
        <ele>760.20001220703</ele>
        <time>2026-07-05T07:30:19.000Z</time>
      </trkpt>
      <trkpt lat="44.95841" lon="5.70755">
        <ele>760.40002441406</ele>
        <time>2026-07-05T07:30:20.000Z</time>
      </trkpt>
      <trkpt lat="44.95841" lon="5.70759">
        <ele>760</ele>
        <time>2026-07-05T07:30:21.000Z</time>
      </trkpt>
      <trkpt lat="44.95841" lon="5.70763">
        <ele>759.79998779297</ele>
        <time>2026-07-05T07:30:22.000Z</time>
      </trkpt>
      <trkpt lat="44.95841" lon="5.70766">
        <ele>759.40002441406</ele>
        <time>2026-07-05T07:30:23.000Z</time>
      </trkpt>
      <trkpt lat="44.95841" lon="5.7077">
        <ele>758.79998779297</ele>
        <time>2026-07-05T07:30:24.000Z</time>
      </trkpt>
      <trkpt lat="44.95841" lon="5.70773">
        <ele>758.40002441406</ele>
        <time>2026-07-05T07:30:25.000Z</time>
      </trkpt>
      <trkpt lat="44.95841" lon="5.70776">
        <ele>757.79998779297</ele>
        <time>2026-07-05T07:30:26.000Z</time>
      </trkpt>
      <trkpt lat="44.95841" lon="5.70779">
        <ele>757.20001220703</ele>
        <time>2026-07-05T07:30:27.000Z</time>
      </trkpt>
      <trkpt lat="44.95842" lon="5.70783">
        <ele>755.59997558594</ele>
        <time>2026-07-05T07:30:28.000Z</time>
      </trkpt>
      <trkpt lat="44.95842" lon="5.70787">
        <ele>753.79998779297</ele>
        <time>2026-07-05T07:30:29.000Z</time>
      </trkpt>
      <trkpt lat="44.95841" lon="5.7079">
        <ele>753.59997558594</ele>
        <time>2026-07-05T07:30:30.000Z</time>
      </trkpt>
      <trkpt lat="44.95841" lon="5.70792">
        <ele>753.20001220703</ele>
        <time>2026-07-05T07:30:31.000Z</time>
      </trkpt>
      <trkpt lat="44.95841" lon="5.70794">
        <ele>753</ele>
        <time>2026-07-05T07:30:32.000Z</time>
      </trkpt>
      <trkpt lat="44.9584" lon="5.70797">
        <ele>752.59997558594</ele>
        <time>2026-07-05T07:30:33.000Z</time>
      </trkpt>
      <trkpt lat="44.9584" lon="5.70799">
        <ele>752.20001220703</ele>
        <time>2026-07-05T07:30:34.000Z</time>
      </trkpt>
      <trkpt lat="44.95839" lon="5.70802">
        <ele>751.79998779297</ele>
        <time>2026-07-05T07:30:35.000Z</time>
      </trkpt>
      <trkpt lat="44.95838" lon="5.70804">
        <ele>751.79998779297</ele>
        <time>2026-07-05T07:30:36.000Z</time>
      </trkpt>
      <trkpt lat="44.95837" lon="5.70807">
        <ele>751.59997558594</ele>
        <time>2026-07-05T07:30:37.000Z</time>
      </trkpt>
      <trkpt lat="44.95835" lon="5.70808">
        <ele>751</ele>
        <time>2026-07-05T07:30:38.000Z</time>
      </trkpt>
      <trkpt lat="44.95833" lon="5.7081">
        <ele>750.40002441406</ele>
        <time>2026-07-05T07:30:39.000Z</time>
      </trkpt>
      <trkpt lat="44.95831" lon="5.70812">
        <ele>749.79998779297</ele>
        <time>2026-07-05T07:30:40.000Z</time>
      </trkpt>
      <trkpt lat="44.95829" lon="5.70813">
        <ele>749.40002441406</ele>
        <time>2026-07-05T07:30:41.000Z</time>
      </trkpt>
      <trkpt lat="44.95826" lon="5.70814">
        <ele>748.79998779297</ele>
        <time>2026-07-05T07:30:42.000Z</time>
      </trkpt>
      <trkpt lat="44.95824" lon="5.70815">
        <ele>748</ele>
        <time>2026-07-05T07:30:43.000Z</time>
      </trkpt>
      <trkpt lat="44.95822" lon="5.70817">
        <ele>747.20001220703</ele>
        <time>2026-07-05T07:30:44.000Z</time>
      </trkpt>
      <trkpt lat="44.9582" lon="5.70818">
        <ele>746.79998779297</ele>
        <time>2026-07-05T07:30:45.000Z</time>
      </trkpt>
      <trkpt lat="44.95817" lon="5.70819">
        <ele>746.59997558594</ele>
        <time>2026-07-05T07:30:46.000Z</time>
      </trkpt>
      <trkpt lat="44.95815" lon="5.7082">
        <ele>746.40002441406</ele>
        <time>2026-07-05T07:30:47.000Z</time>
      </trkpt>
      <trkpt lat="44.95813" lon="5.70821">
        <ele>746.20001220703</ele>
        <time>2026-07-05T07:30:48.000Z</time>
      </trkpt>
      <trkpt lat="44.95811" lon="5.70821">
        <ele>746.20001220703</ele>
        <time>2026-07-05T07:30:49.000Z</time>
      </trkpt>
      <trkpt lat="44.95809" lon="5.70822">
        <ele>746</ele>
        <time>2026-07-05T07:30:50.000Z</time>
      </trkpt>
      <trkpt lat="44.95807" lon="5.70824">
        <ele>745.79998779297</ele>
        <time>2026-07-05T07:30:51.000Z</time>
      </trkpt>
      <trkpt lat="44.95805" lon="5.70825">
        <ele>745.79998779297</ele>
        <time>2026-07-05T07:30:52.000Z</time>
      </trkpt>
      <trkpt lat="44.95803" lon="5.70826">
        <ele>745.59997558594</ele>
        <time>2026-07-05T07:30:53.000Z</time>
      </trkpt>
      <trkpt lat="44.95801" lon="5.70828">
        <ele>745</ele>
        <time>2026-07-05T07:30:54.000Z</time>
      </trkpt>
      <trkpt lat="44.95799" lon="5.7083">
        <ele>744.40002441406</ele>
        <time>2026-07-05T07:30:55.000Z</time>
      </trkpt>
      <trkpt lat="44.95798" lon="5.70831">
        <ele>743.79998779297</ele>
        <time>2026-07-05T07:30:56.000Z</time>
      </trkpt>
      <trkpt lat="44.95796" lon="5.70832">
        <ele>743.20001220703</ele>
        <time>2026-07-05T07:30:57.000Z</time>
      </trkpt>
      <trkpt lat="44.95794" lon="5.70834">
        <ele>742.59997558594</ele>
        <time>2026-07-05T07:30:58.000Z</time>
      </trkpt>
      <trkpt lat="44.95792" lon="5.70836">
        <ele>742</ele>
        <time>2026-07-05T07:30:59.000Z</time>
      </trkpt>
      <trkpt lat="44.9579" lon="5.70838">
        <ele>741.40002441406</ele>
        <time>2026-07-05T07:31:00.000Z</time>
      </trkpt>
      <trkpt lat="44.95787" lon="5.7084">
        <ele>741.20001220703</ele>
        <time>2026-07-05T07:31:01.000Z</time>
      </trkpt>
      <trkpt lat="44.95785" lon="5.70841">
        <ele>741.20001220703</ele>
        <time>2026-07-05T07:31:02.000Z</time>
      </trkpt>
      <trkpt lat="44.95783" lon="5.70842">
        <ele>741.20001220703</ele>
        <time>2026-07-05T07:31:03.000Z</time>
      </trkpt>
      <trkpt lat="44.9578" lon="5.70842">
        <ele>741</ele>
        <time>2026-07-05T07:31:04.000Z</time>
      </trkpt>
      <trkpt lat="44.95779" lon="5.70843">
        <ele>740.79998779297</ele>
        <time>2026-07-05T07:31:05.000Z</time>
      </trkpt>
      <trkpt lat="44.95777" lon="5.70845">
        <ele>740.79998779297</ele>
        <time>2026-07-05T07:31:06.000Z</time>
      </trkpt>
      <trkpt lat="44.95776" lon="5.70847">
        <ele>740.59997558594</ele>
        <time>2026-07-05T07:31:07.000Z</time>
      </trkpt>
      <trkpt lat="44.95775" lon="5.7085">
        <ele>740</ele>
        <time>2026-07-05T07:31:08.000Z</time>
      </trkpt>
      <trkpt lat="44.95774" lon="5.70853">
        <ele>740</ele>
        <time>2026-07-05T07:31:09.000Z</time>
      </trkpt>
      <trkpt lat="44.95773" lon="5.70857">
        <ele>740</ele>
        <time>2026-07-05T07:31:10.000Z</time>
      </trkpt>
      <trkpt lat="44.95773" lon="5.70861">
        <ele>740</ele>
        <time>2026-07-05T07:31:11.000Z</time>
      </trkpt>
      <trkpt lat="44.95773" lon="5.70865">
        <ele>740</ele>
        <time>2026-07-05T07:31:12.000Z</time>
      </trkpt>
      <trkpt lat="44.95773" lon="5.70869">
        <ele>739.79998779297</ele>
        <time>2026-07-05T07:31:13.000Z</time>
      </trkpt>
      <trkpt lat="44.95773" lon="5.70873">
        <ele>739.79998779297</ele>
        <time>2026-07-05T07:31:14.000Z</time>
      </trkpt>
      <trkpt lat="44.95774" lon="5.70877">
        <ele>739.79998779297</ele>
        <time>2026-07-05T07:31:15.000Z</time>
      </trkpt>
      <trkpt lat="44.95774" lon="5.70881">
        <ele>739.59997558594</ele>
        <time>2026-07-05T07:31:16.000Z</time>
      </trkpt>
      <trkpt lat="44.95774" lon="5.70884">
        <ele>739.59997558594</ele>
        <time>2026-07-05T07:31:17.000Z</time>
      </trkpt>
      <trkpt lat="44.95774" lon="5.70888">
        <ele>739.20001220703</ele>
        <time>2026-07-05T07:31:18.000Z</time>
      </trkpt>
      <trkpt lat="44.95774" lon="5.70892">
        <ele>739.20001220703</ele>
        <time>2026-07-05T07:31:19.000Z</time>
      </trkpt>
      <trkpt lat="44.95773" lon="5.70896">
        <ele>739.20001220703</ele>
        <time>2026-07-05T07:31:20.000Z</time>
      </trkpt>
      <trkpt lat="44.95772" lon="5.709">
        <ele>739.20001220703</ele>
        <time>2026-07-05T07:31:21.000Z</time>
      </trkpt>
      <trkpt lat="44.9577" lon="5.70903">
        <ele>739.20001220703</ele>
        <time>2026-07-05T07:31:22.000Z</time>
      </trkpt>
      <trkpt lat="44.95769" lon="5.70906">
        <ele>739.20001220703</ele>
        <time>2026-07-05T07:31:23.000Z</time>
      </trkpt>
      <trkpt lat="44.95767" lon="5.7091">
        <ele>739.20001220703</ele>
        <time>2026-07-05T07:31:24.000Z</time>
      </trkpt>
      <trkpt lat="44.95766" lon="5.70913">
        <ele>739</ele>
        <time>2026-07-05T07:31:25.000Z</time>
      </trkpt>
      <trkpt lat="44.95765" lon="5.70915">
        <ele>738.79998779297</ele>
        <time>2026-07-05T07:31:26.000Z</time>
      </trkpt>
      <trkpt lat="44.95764" lon="5.70918">
        <ele>738.59997558594</ele>
        <time>2026-07-05T07:31:27.000Z</time>
      </trkpt>
      <trkpt lat="44.95763" lon="5.70921">
        <ele>738.40002441406</ele>
        <time>2026-07-05T07:31:28.000Z</time>
      </trkpt>
      <trkpt lat="44.95762" lon="5.70924">
        <ele>738.20001220703</ele>
        <time>2026-07-05T07:31:29.000Z</time>
      </trkpt>
      <trkpt lat="44.9576" lon="5.70927">
        <ele>737</ele>
        <time>2026-07-05T07:31:30.000Z</time>
      </trkpt>
      <trkpt lat="44.95759" lon="5.7093">
        <ele>736.40002441406</ele>
        <time>2026-07-05T07:31:31.000Z</time>
      </trkpt>
      <trkpt lat="44.95757" lon="5.70932">
        <ele>735.79998779297</ele>
        <time>2026-07-05T07:31:32.000Z</time>
      </trkpt>
      <trkpt lat="44.95755" lon="5.70935">
        <ele>735.20001220703</ele>
        <time>2026-07-05T07:31:33.000Z</time>
      </trkpt>
      <trkpt lat="44.95754" lon="5.70938">
        <ele>734.59997558594</ele>
        <time>2026-07-05T07:31:34.000Z</time>
      </trkpt>
      <trkpt lat="44.95752" lon="5.70941">
        <ele>734.40002441406</ele>
        <time>2026-07-05T07:31:35.000Z</time>
      </trkpt>
      <trkpt lat="44.9575" lon="5.70943">
        <ele>733.40002441406</ele>
        <time>2026-07-05T07:31:36.000Z</time>
      </trkpt>
      <trkpt lat="44.95748" lon="5.70946">
        <ele>732.59997558594</ele>
        <time>2026-07-05T07:31:37.000Z</time>
      </trkpt>
      <trkpt lat="44.95745" lon="5.70948">
        <ele>731.59997558594</ele>
        <time>2026-07-05T07:31:38.000Z</time>
      </trkpt>
      <trkpt lat="44.95742" lon="5.70952">
        <ele>730.79998779297</ele>
        <time>2026-07-05T07:31:39.000Z</time>
      </trkpt>
      <trkpt lat="44.9574" lon="5.70955">
        <ele>729.79998779297</ele>
        <time>2026-07-05T07:31:40.000Z</time>
      </trkpt>
      <trkpt lat="44.95738" lon="5.70958">
        <ele>729</ele>
        <time>2026-07-05T07:31:41.000Z</time>
      </trkpt>
      <trkpt lat="44.95736" lon="5.70962">
        <ele>728.20001220703</ele>
        <time>2026-07-05T07:31:42.000Z</time>
      </trkpt>
      <trkpt lat="44.95735" lon="5.70965">
        <ele>727.40002441406</ele>
        <time>2026-07-05T07:31:43.000Z</time>
      </trkpt>
      <trkpt lat="44.95733" lon="5.70969">
        <ele>726.79998779297</ele>
        <time>2026-07-05T07:31:44.000Z</time>
      </trkpt>
      <trkpt lat="44.9573" lon="5.70973">
        <ele>726</ele>
        <time>2026-07-05T07:31:45.000Z</time>
      </trkpt>
      <trkpt lat="44.95728" lon="5.70976">
        <ele>725.40002441406</ele>
        <time>2026-07-05T07:31:46.000Z</time>
      </trkpt>
      <trkpt lat="44.95726" lon="5.70978">
        <ele>724.59997558594</ele>
        <time>2026-07-05T07:31:47.000Z</time>
      </trkpt>
      <trkpt lat="44.95722" lon="5.7098">
        <ele>724.20001220703</ele>
        <time>2026-07-05T07:31:48.000Z</time>
      </trkpt>
      <trkpt lat="44.95718" lon="5.7098">
        <ele>723.79998779297</ele>
        <time>2026-07-05T07:31:49.000Z</time>
      </trkpt>
      <trkpt lat="44.95715" lon="5.70979">
        <ele>723.59997558594</ele>
        <time>2026-07-05T07:31:50.000Z</time>
      </trkpt>
      <trkpt lat="44.95712" lon="5.70975">
        <ele>723.20001220703</ele>
        <time>2026-07-05T07:31:51.000Z</time>
      </trkpt>
      <trkpt lat="44.9571" lon="5.70972">
        <ele>720.40002441406</ele>
        <time>2026-07-05T07:31:52.000Z</time>
      </trkpt>
      <trkpt lat="44.95708" lon="5.70967">
        <ele>719.59997558594</ele>
        <time>2026-07-05T07:31:53.000Z</time>
      </trkpt>
      <trkpt lat="44.95706" lon="5.70962">
        <ele>719.20001220703</ele>
        <time>2026-07-05T07:31:54.000Z</time>
      </trkpt>
      <trkpt lat="44.95705" lon="5.70957">
        <ele>719</ele>
        <time>2026-07-05T07:31:55.000Z</time>
      </trkpt>
      <trkpt lat="44.95704" lon="5.70953">
        <ele>718.79998779297</ele>
        <time>2026-07-05T07:31:56.000Z</time>
      </trkpt>
      <trkpt lat="44.95702" lon="5.70949">
        <ele>718.59997558594</ele>
        <time>2026-07-05T07:31:57.000Z</time>
      </trkpt>
      <trkpt lat="44.95701" lon="5.70945">
        <ele>718.40002441406</ele>
        <time>2026-07-05T07:31:58.000Z</time>
      </trkpt>
      <trkpt lat="44.95699" lon="5.70941">
        <ele>718.20001220703</ele>
        <time>2026-07-05T07:31:59.000Z</time>
      </trkpt>
      <trkpt lat="44.95697" lon="5.70937">
        <ele>717.79998779297</ele>
        <time>2026-07-05T07:32:00.000Z</time>
      </trkpt>
      <trkpt lat="44.95694" lon="5.70936">
        <ele>717.40002441406</ele>
        <time>2026-07-05T07:32:01.000Z</time>
      </trkpt>
      <trkpt lat="44.95692" lon="5.70937">
        <ele>717</ele>
        <time>2026-07-05T07:32:02.000Z</time>
      </trkpt>
      <trkpt lat="44.9569" lon="5.7094">
        <ele>716.59997558594</ele>
        <time>2026-07-05T07:32:03.000Z</time>
      </trkpt>
      <trkpt lat="44.9569" lon="5.70944">
        <ele>716.40002441406</ele>
        <time>2026-07-05T07:32:04.000Z</time>
      </trkpt>
      <trkpt lat="44.95689" lon="5.70948">
        <ele>716.20001220703</ele>
        <time>2026-07-05T07:32:05.000Z</time>
      </trkpt>
      <trkpt lat="44.95689" lon="5.70953">
        <ele>716</ele>
        <time>2026-07-05T07:32:06.000Z</time>
      </trkpt>
      <trkpt lat="44.95689" lon="5.70958">
        <ele>715.79998779297</ele>
        <time>2026-07-05T07:32:07.000Z</time>
      </trkpt>
      <trkpt lat="44.95688" lon="5.70962">
        <ele>715.79998779297</ele>
        <time>2026-07-05T07:32:08.000Z</time>
      </trkpt>
      <trkpt lat="44.95689" lon="5.70967">
        <ele>715.79998779297</ele>
        <time>2026-07-05T07:32:09.000Z</time>
      </trkpt>
      <trkpt lat="44.95689" lon="5.70971">
        <ele>715.79998779297</ele>
        <time>2026-07-05T07:32:10.000Z</time>
      </trkpt>
      <trkpt lat="44.95689" lon="5.70975">
        <ele>715.79998779297</ele>
        <time>2026-07-05T07:32:11.000Z</time>
      </trkpt>
      <trkpt lat="44.95689" lon="5.70979">
        <ele>716</ele>
        <time>2026-07-05T07:32:12.000Z</time>
      </trkpt>
      <trkpt lat="44.95689" lon="5.70984">
        <ele>715.59997558594</ele>
        <time>2026-07-05T07:32:13.000Z</time>
      </trkpt>
      <trkpt lat="44.95689" lon="5.70989">
        <ele>715.20001220703</ele>
        <time>2026-07-05T07:32:14.000Z</time>
      </trkpt>
      <trkpt lat="44.9569" lon="5.70993">
        <ele>715.20001220703</ele>
        <time>2026-07-05T07:32:15.000Z</time>
      </trkpt>
      <trkpt lat="44.9569" lon="5.70998">
        <ele>715.20001220703</ele>
        <time>2026-07-05T07:32:16.000Z</time>
      </trkpt>
      <trkpt lat="44.9569" lon="5.71001">
        <ele>715.40002441406</ele>
        <time>2026-07-05T07:32:17.000Z</time>
      </trkpt>
      <trkpt lat="44.9569" lon="5.71006">
        <ele>715.40002441406</ele>
        <time>2026-07-05T07:32:18.000Z</time>
      </trkpt>
      <trkpt lat="44.95691" lon="5.7101">
        <ele>715.59997558594</ele>
        <time>2026-07-05T07:32:19.000Z</time>
      </trkpt>
      <trkpt lat="44.95691" lon="5.71014">
        <ele>715.59997558594</ele>
        <time>2026-07-05T07:32:20.000Z</time>
      </trkpt>
      <trkpt lat="44.95692" lon="5.71018">
        <ele>715.79998779297</ele>
        <time>2026-07-05T07:32:21.000Z</time>
      </trkpt>
      <trkpt lat="44.95692" lon="5.71023">
        <ele>715.79998779297</ele>
        <time>2026-07-05T07:32:22.000Z</time>
      </trkpt>
      <trkpt lat="44.95692" lon="5.71027">
        <ele>715</ele>
        <time>2026-07-05T07:32:23.000Z</time>
      </trkpt>
      <trkpt lat="44.95693" lon="5.71031">
        <ele>715</ele>
        <time>2026-07-05T07:32:24.000Z</time>
      </trkpt>
      <trkpt lat="44.95694" lon="5.71035">
        <ele>714.79998779297</ele>
        <time>2026-07-05T07:32:25.000Z</time>
      </trkpt>
      <trkpt lat="44.95695" lon="5.71039">
        <ele>714.40002441406</ele>
        <time>2026-07-05T07:32:26.000Z</time>
      </trkpt>
      <trkpt lat="44.95697" lon="5.71043">
        <ele>714</ele>
        <time>2026-07-05T07:32:27.000Z</time>
      </trkpt>
      <trkpt lat="44.95698" lon="5.71046">
        <ele>713.79998779297</ele>
        <time>2026-07-05T07:32:28.000Z</time>
      </trkpt>
      <trkpt lat="44.957" lon="5.7105">
        <ele>713.59997558594</ele>
        <time>2026-07-05T07:32:29.000Z</time>
      </trkpt>
      <trkpt lat="44.95702" lon="5.71053">
        <ele>713.40002441406</ele>
        <time>2026-07-05T07:32:30.000Z</time>
      </trkpt>
      <trkpt lat="44.95704" lon="5.71057">
        <ele>713.20001220703</ele>
        <time>2026-07-05T07:32:31.000Z</time>
      </trkpt>
      <trkpt lat="44.95706" lon="5.7106">
        <ele>713</ele>
        <time>2026-07-05T07:32:32.000Z</time>
      </trkpt>
      <trkpt lat="44.95707" lon="5.71065">
        <ele>712.59997558594</ele>
        <time>2026-07-05T07:32:33.000Z</time>
      </trkpt>
      <trkpt lat="44.95707" lon="5.71069">
        <ele>712</ele>
        <time>2026-07-05T07:32:34.000Z</time>
      </trkpt>
      <trkpt lat="44.95708" lon="5.71074">
        <ele>712</ele>
        <time>2026-07-05T07:32:35.000Z</time>
      </trkpt>
      <trkpt lat="44.95708" lon="5.71079">
        <ele>711.79998779297</ele>
        <time>2026-07-05T07:32:36.000Z</time>
      </trkpt>
      <trkpt lat="44.95708" lon="5.71083">
        <ele>711.79998779297</ele>
        <time>2026-07-05T07:32:37.000Z</time>
      </trkpt>
      <trkpt lat="44.95707" lon="5.71088">
        <ele>711.79998779297</ele>
        <time>2026-07-05T07:32:38.000Z</time>
      </trkpt>
      <trkpt lat="44.95706" lon="5.71091">
        <ele>711.59997558594</ele>
        <time>2026-07-05T07:32:39.000Z</time>
      </trkpt>
      <trkpt lat="44.95703" lon="5.71091">
        <ele>711.20001220703</ele>
        <time>2026-07-05T07:32:40.000Z</time>
      </trkpt>
      <trkpt lat="44.957" lon="5.7109">
        <ele>711</ele>
        <time>2026-07-05T07:32:41.000Z</time>
      </trkpt>
      <trkpt lat="44.95698" lon="5.71088">
        <ele>710.79998779297</ele>
        <time>2026-07-05T07:32:42.000Z</time>
      </trkpt>
      <trkpt lat="44.95695" lon="5.71087">
        <ele>710.59997558594</ele>
        <time>2026-07-05T07:32:43.000Z</time>
      </trkpt>
      <trkpt lat="44.95692" lon="5.71085">
        <ele>710.40002441406</ele>
        <time>2026-07-05T07:32:44.000Z</time>
      </trkpt>
      <trkpt lat="44.9569" lon="5.71083">
        <ele>710</ele>
        <time>2026-07-05T07:32:45.000Z</time>
      </trkpt>
      <trkpt lat="44.95687" lon="5.71082">
        <ele>709.40002441406</ele>
        <time>2026-07-05T07:32:46.000Z</time>
      </trkpt>
      <trkpt lat="44.95684" lon="5.71081">
        <ele>707.40002441406</ele>
        <time>2026-07-05T07:32:47.000Z</time>
      </trkpt>
      <trkpt lat="44.95681" lon="5.71079">
        <ele>706.59997558594</ele>
        <time>2026-07-05T07:32:48.000Z</time>
      </trkpt>
      <trkpt lat="44.95679" lon="5.71078">
        <ele>705.59997558594</ele>
        <time>2026-07-05T07:32:49.000Z</time>
      </trkpt>
      <trkpt lat="44.95676" lon="5.71076">
        <ele>704.79998779297</ele>
        <time>2026-07-05T07:32:50.000Z</time>
      </trkpt>
      <trkpt lat="44.95673" lon="5.71074">
        <ele>703</ele>
        <time>2026-07-05T07:32:51.000Z</time>
      </trkpt>
      <trkpt lat="44.9567" lon="5.71073">
        <ele>702.59997558594</ele>
        <time>2026-07-05T07:32:52.000Z</time>
      </trkpt>
      <trkpt lat="44.95668" lon="5.71071">
        <ele>702.20001220703</ele>
        <time>2026-07-05T07:32:53.000Z</time>
      </trkpt>
      <trkpt lat="44.95665" lon="5.7107">
        <ele>702.79998779297</ele>
        <time>2026-07-05T07:32:54.000Z</time>
      </trkpt>
      <trkpt lat="44.95662" lon="5.71068">
        <ele>703</ele>
        <time>2026-07-05T07:32:55.000Z</time>
      </trkpt>
      <trkpt lat="44.95659" lon="5.71067">
        <ele>703.59997558594</ele>
        <time>2026-07-05T07:32:56.000Z</time>
      </trkpt>
      <trkpt lat="44.95656" lon="5.71067">
        <ele>703.20001220703</ele>
        <time>2026-07-05T07:32:57.000Z</time>
      </trkpt>
      <trkpt lat="44.95654" lon="5.71068">
        <ele>703</ele>
        <time>2026-07-05T07:32:58.000Z</time>
      </trkpt>
      <trkpt lat="44.95652" lon="5.71068">
        <ele>702.79998779297</ele>
        <time>2026-07-05T07:32:59.000Z</time>
      </trkpt>
      <trkpt lat="44.95649" lon="5.71069">
        <ele>702.59997558594</ele>
        <time>2026-07-05T07:33:00.000Z</time>
      </trkpt>
      <trkpt lat="44.95646" lon="5.7107">
        <ele>702.20001220703</ele>
        <time>2026-07-05T07:33:01.000Z</time>
      </trkpt>
      <trkpt lat="44.95644" lon="5.71071">
        <ele>701.59997558594</ele>
        <time>2026-07-05T07:33:02.000Z</time>
      </trkpt>
      <trkpt lat="44.95641" lon="5.71071">
        <ele>700.79998779297</ele>
        <time>2026-07-05T07:33:03.000Z</time>
      </trkpt>
      <trkpt lat="44.95638" lon="5.71072">
        <ele>700.20001220703</ele>
        <time>2026-07-05T07:33:04.000Z</time>
      </trkpt>
      <trkpt lat="44.95635" lon="5.71073">
        <ele>699.40002441406</ele>
        <time>2026-07-05T07:33:05.000Z</time>
      </trkpt>
      <trkpt lat="44.95633" lon="5.71074">
        <ele>697.79998779297</ele>
        <time>2026-07-05T07:33:06.000Z</time>
      </trkpt>
      <trkpt lat="44.95631" lon="5.71075">
        <ele>696</ele>
        <time>2026-07-05T07:33:07.000Z</time>
      </trkpt>
      <trkpt lat="44.95628" lon="5.71074">
        <ele>695</ele>
        <time>2026-07-05T07:33:08.000Z</time>
      </trkpt>
      <trkpt lat="44.95626" lon="5.71075">
        <ele>692.79998779297</ele>
        <time>2026-07-05T07:33:09.000Z</time>
      </trkpt>
      <trkpt lat="44.95624" lon="5.71077">
        <ele>692.79998779297</ele>
        <time>2026-07-05T07:33:10.000Z</time>
      </trkpt>
      <trkpt lat="44.95623" lon="5.71078">
        <ele>692.40002441406</ele>
        <time>2026-07-05T07:33:11.000Z</time>
      </trkpt>
      <trkpt lat="44.95622" lon="5.71081">
        <ele>691.79998779297</ele>
        <time>2026-07-05T07:33:12.000Z</time>
      </trkpt>
      <trkpt lat="44.95621" lon="5.71083">
        <ele>691.40002441406</ele>
        <time>2026-07-05T07:33:13.000Z</time>
      </trkpt>
      <trkpt lat="44.9562" lon="5.71085">
        <ele>691.40002441406</ele>
        <time>2026-07-05T07:33:14.000Z</time>
      </trkpt>
      <trkpt lat="44.95618" lon="5.71086">
        <ele>691</ele>
        <time>2026-07-05T07:33:15.000Z</time>
      </trkpt>
      <trkpt lat="44.95617" lon="5.71089">
        <ele>690.59997558594</ele>
        <time>2026-07-05T07:33:16.000Z</time>
      </trkpt>
      <trkpt lat="44.95617" lon="5.71092">
        <ele>690.40002441406</ele>
        <time>2026-07-05T07:33:17.000Z</time>
      </trkpt>
      <trkpt lat="44.95616" lon="5.71095">
        <ele>690</ele>
        <time>2026-07-05T07:33:18.000Z</time>
      </trkpt>
      <trkpt lat="44.95615" lon="5.71098">
        <ele>689.79998779297</ele>
        <time>2026-07-05T07:33:19.000Z</time>
      </trkpt>
      <trkpt lat="44.95615" lon="5.71101">
        <ele>689.40002441406</ele>
        <time>2026-07-05T07:33:20.000Z</time>
      </trkpt>
      <trkpt lat="44.95615" lon="5.71105">
        <ele>687.40002441406</ele>
        <time>2026-07-05T07:33:21.000Z</time>
      </trkpt>
      <trkpt lat="44.95616" lon="5.71108">
        <ele>687</ele>
        <time>2026-07-05T07:33:22.000Z</time>
      </trkpt>
      <trkpt lat="44.95616" lon="5.71112">
        <ele>686.59997558594</ele>
        <time>2026-07-05T07:33:23.000Z</time>
      </trkpt>
      <trkpt lat="44.95616" lon="5.71114">
        <ele>686.59997558594</ele>
        <time>2026-07-05T07:33:24.000Z</time>
      </trkpt>
      <trkpt lat="44.95616" lon="5.71118">
        <ele>686.40002441406</ele>
        <time>2026-07-05T07:33:25.000Z</time>
      </trkpt>
      <trkpt lat="44.95616" lon="5.71121">
        <ele>685.79998779297</ele>
        <time>2026-07-05T07:33:26.000Z</time>
      </trkpt>
      <trkpt lat="44.95615" lon="5.71124">
        <ele>685</ele>
        <time>2026-07-05T07:33:27.000Z</time>
      </trkpt>
      <trkpt lat="44.95614" lon="5.71126">
        <ele>684</ele>
        <time>2026-07-05T07:33:28.000Z</time>
      </trkpt>
      <trkpt lat="44.95613" lon="5.71129">
        <ele>683.79998779297</ele>
        <time>2026-07-05T07:33:29.000Z</time>
      </trkpt>
      <trkpt lat="44.95612" lon="5.71131">
        <ele>682.79998779297</ele>
        <time>2026-07-05T07:33:30.000Z</time>
      </trkpt>
      <trkpt lat="44.95612" lon="5.71134">
        <ele>682.40002441406</ele>
        <time>2026-07-05T07:33:31.000Z</time>
      </trkpt>
      <trkpt lat="44.95612" lon="5.71138">
        <ele>681.79998779297</ele>
        <time>2026-07-05T07:33:32.000Z</time>
      </trkpt>
      <trkpt lat="44.95612" lon="5.71141">
        <ele>681.40002441406</ele>
        <time>2026-07-05T07:33:33.000Z</time>
      </trkpt>
      <trkpt lat="44.95613" lon="5.71144">
        <ele>680.79998779297</ele>
        <time>2026-07-05T07:33:34.000Z</time>
      </trkpt>
      <trkpt lat="44.95614" lon="5.71147">
        <ele>680.40002441406</ele>
        <time>2026-07-05T07:33:35.000Z</time>
      </trkpt>
      <trkpt lat="44.95616" lon="5.71151">
        <ele>679.79998779297</ele>
        <time>2026-07-05T07:33:36.000Z</time>
      </trkpt>
      <trkpt lat="44.95618" lon="5.71153">
        <ele>678.59997558594</ele>
        <time>2026-07-05T07:33:37.000Z</time>
      </trkpt>
      <trkpt lat="44.9562" lon="5.71155">
        <ele>678.20001220703</ele>
        <time>2026-07-05T07:33:38.000Z</time>
      </trkpt>
      <trkpt lat="44.95622" lon="5.71158">
        <ele>677.79998779297</ele>
        <time>2026-07-05T07:33:39.000Z</time>
      </trkpt>
      <trkpt lat="44.95624" lon="5.71161">
        <ele>677.40002441406</ele>
        <time>2026-07-05T07:33:40.000Z</time>
      </trkpt>
      <trkpt lat="44.95626" lon="5.71164">
        <ele>676.79998779297</ele>
        <time>2026-07-05T07:33:41.000Z</time>
      </trkpt>
      <trkpt lat="44.95628" lon="5.71167">
        <ele>676.40002441406</ele>
        <time>2026-07-05T07:33:42.000Z</time>
      </trkpt>
      <trkpt lat="44.9563" lon="5.7117">
        <ele>676</ele>
        <time>2026-07-05T07:33:43.000Z</time>
      </trkpt>
      <trkpt lat="44.95632" lon="5.71174">
        <ele>675.79998779297</ele>
        <time>2026-07-05T07:33:44.000Z</time>
      </trkpt>
      <trkpt lat="44.95634" lon="5.71177">
        <ele>675.79998779297</ele>
        <time>2026-07-05T07:33:45.000Z</time>
      </trkpt>
      <trkpt lat="44.95635" lon="5.7118">
        <ele>675.59997558594</ele>
        <time>2026-07-05T07:33:46.000Z</time>
      </trkpt>
      <trkpt lat="44.95636" lon="5.71184">
        <ele>675.59997558594</ele>
        <time>2026-07-05T07:33:47.000Z</time>
      </trkpt>
      <trkpt lat="44.95637" lon="5.71188">
        <ele>675.59997558594</ele>
        <time>2026-07-05T07:33:48.000Z</time>
      </trkpt>
      <trkpt lat="44.95638" lon="5.71192">
        <ele>675.59997558594</ele>
        <time>2026-07-05T07:33:49.000Z</time>
      </trkpt>
      <trkpt lat="44.95639" lon="5.71195">
        <ele>675.59997558594</ele>
        <time>2026-07-05T07:33:50.000Z</time>
      </trkpt>
      <trkpt lat="44.95639" lon="5.71199">
        <ele>675.59997558594</ele>
        <time>2026-07-05T07:33:51.000Z</time>
      </trkpt>
      <trkpt lat="44.95638" lon="5.71203">
        <ele>675.40002441406</ele>
        <time>2026-07-05T07:33:52.000Z</time>
      </trkpt>
      <trkpt lat="44.95637" lon="5.71206">
        <ele>675.20001220703</ele>
        <time>2026-07-05T07:33:53.000Z</time>
      </trkpt>
      <trkpt lat="44.95637" lon="5.7121">
        <ele>675.20001220703</ele>
        <time>2026-07-05T07:33:54.000Z</time>
      </trkpt>
      <trkpt lat="44.95636" lon="5.71215">
        <ele>674.59997558594</ele>
        <time>2026-07-05T07:33:55.000Z</time>
      </trkpt>
      <trkpt lat="44.95637" lon="5.71218">
        <ele>674</ele>
        <time>2026-07-05T07:33:56.000Z</time>
      </trkpt>
      <trkpt lat="44.95638" lon="5.71222">
        <ele>674</ele>
        <time>2026-07-05T07:33:57.000Z</time>
      </trkpt>
      <trkpt lat="44.95638" lon="5.71226">
        <ele>674</ele>
        <time>2026-07-05T07:33:58.000Z</time>
      </trkpt>
      <trkpt lat="44.95638" lon="5.7123">
        <ele>674</ele>
        <time>2026-07-05T07:33:59.000Z</time>
      </trkpt>
      <trkpt lat="44.95638" lon="5.71233">
        <ele>673.79998779297</ele>
        <time>2026-07-05T07:34:00.000Z</time>
      </trkpt>
      <trkpt lat="44.95639" lon="5.71236">
        <ele>674</ele>
        <time>2026-07-05T07:34:01.000Z</time>
      </trkpt>
      <trkpt lat="44.95639" lon="5.71239">
        <ele>674</ele>
        <time>2026-07-05T07:34:02.000Z</time>
      </trkpt>
      <trkpt lat="44.9564" lon="5.71242">
        <ele>674</ele>
        <time>2026-07-05T07:34:03.000Z</time>
      </trkpt>
      <trkpt lat="44.95641" lon="5.71244">
        <ele>674.20001220703</ele>
        <time>2026-07-05T07:34:04.000Z</time>
      </trkpt>
      <trkpt lat="44.95642" lon="5.71247">
        <ele>674.59997558594</ele>
        <time>2026-07-05T07:34:05.000Z</time>
      </trkpt>
      <trkpt lat="44.95643" lon="5.7125">
        <ele>675.20001220703</ele>
        <time>2026-07-05T07:34:06.000Z</time>
      </trkpt>
      <trkpt lat="44.95644" lon="5.71252">
        <ele>675.59997558594</ele>
        <time>2026-07-05T07:34:07.000Z</time>
      </trkpt>
      <trkpt lat="44.95645" lon="5.71255">
        <ele>676</ele>
        <time>2026-07-05T07:34:08.000Z</time>
      </trkpt>
      <trkpt lat="44.95646" lon="5.71257">
        <ele>676.79998779297</ele>
        <time>2026-07-05T07:34:09.000Z</time>
      </trkpt>
      <trkpt lat="44.95648" lon="5.7126">
        <ele>677.59997558594</ele>
        <time>2026-07-05T07:34:10.000Z</time>
      </trkpt>
      <trkpt lat="44.95649" lon="5.71262">
        <ele>678.40002441406</ele>
        <time>2026-07-05T07:34:11.000Z</time>
      </trkpt>
      <trkpt lat="44.9565" lon="5.71264">
        <ele>679.20001220703</ele>
        <time>2026-07-05T07:34:12.000Z</time>
      </trkpt>
      <trkpt lat="44.95651" lon="5.71267">
        <ele>680</ele>
        <time>2026-07-05T07:34:13.000Z</time>
      </trkpt>
      <trkpt lat="44.95653" lon="5.71269">
        <ele>680.59997558594</ele>
        <time>2026-07-05T07:34:14.000Z</time>
      </trkpt>
      <trkpt lat="44.95654" lon="5.71272">
        <ele>681.20001220703</ele>
        <time>2026-07-05T07:34:15.000Z</time>
      </trkpt>
      <trkpt lat="44.95655" lon="5.71275">
        <ele>681.59997558594</ele>
        <time>2026-07-05T07:34:16.000Z</time>
      </trkpt>
      <trkpt lat="44.95657" lon="5.71278">
        <ele>682.20001220703</ele>
        <time>2026-07-05T07:34:17.000Z</time>
      </trkpt>
      <trkpt lat="44.95659" lon="5.7128">
        <ele>682.79998779297</ele>
        <time>2026-07-05T07:34:18.000Z</time>
      </trkpt>
      <trkpt lat="44.95661" lon="5.71283">
        <ele>683</ele>
        <time>2026-07-05T07:34:19.000Z</time>
      </trkpt>
      <trkpt lat="44.95662" lon="5.71285">
        <ele>683.20001220703</ele>
        <time>2026-07-05T07:34:20.000Z</time>
      </trkpt>
      <trkpt lat="44.95663" lon="5.71288">
        <ele>683.40002441406</ele>
        <time>2026-07-05T07:34:21.000Z</time>
      </trkpt>
      <trkpt lat="44.95665" lon="5.71291">
        <ele>683.59997558594</ele>
        <time>2026-07-05T07:34:22.000Z</time>
      </trkpt>
      <trkpt lat="44.95666" lon="5.71294">
        <ele>683.59997558594</ele>
        <time>2026-07-05T07:34:23.000Z</time>
      </trkpt>
      <trkpt lat="44.95667" lon="5.71296">
        <ele>683.20001220703</ele>
        <time>2026-07-05T07:34:24.000Z</time>
      </trkpt>
      <trkpt lat="44.95668" lon="5.71299">
        <ele>683</ele>
        <time>2026-07-05T07:34:25.000Z</time>
      </trkpt>
      <trkpt lat="44.95669" lon="5.71302">
        <ele>682.79998779297</ele>
        <time>2026-07-05T07:34:26.000Z</time>
      </trkpt>
      <trkpt lat="44.9567" lon="5.71305">
        <ele>682.59997558594</ele>
        <time>2026-07-05T07:34:27.000Z</time>
      </trkpt>
      <trkpt lat="44.95671" lon="5.71308">
        <ele>682.79998779297</ele>
        <time>2026-07-05T07:34:28.000Z</time>
      </trkpt>
      <trkpt lat="44.95672" lon="5.71311">
        <ele>682.79998779297</ele>
        <time>2026-07-05T07:34:29.000Z</time>
      </trkpt>
      <trkpt lat="44.95672" lon="5.71313">
        <ele>683</ele>
        <time>2026-07-05T07:34:30.000Z</time>
      </trkpt>
      <trkpt lat="44.95674" lon="5.71316">
        <ele>683.20001220703</ele>
        <time>2026-07-05T07:34:31.000Z</time>
      </trkpt>
      <trkpt lat="44.95674" lon="5.71319">
        <ele>683.40002441406</ele>
        <time>2026-07-05T07:34:32.000Z</time>
      </trkpt>
      <trkpt lat="44.95675" lon="5.71321">
        <ele>683.59997558594</ele>
        <time>2026-07-05T07:34:33.000Z</time>
      </trkpt>
      <trkpt lat="44.95676" lon="5.71325">
        <ele>683.79998779297</ele>
        <time>2026-07-05T07:34:34.000Z</time>
      </trkpt>
      <trkpt lat="44.95676" lon="5.71328">
        <ele>683.79998779297</ele>
        <time>2026-07-05T07:34:35.000Z</time>
      </trkpt>
      <trkpt lat="44.95677" lon="5.71331">
        <ele>683.59997558594</ele>
        <time>2026-07-05T07:34:36.000Z</time>
      </trkpt>
      <trkpt lat="44.95678" lon="5.71334">
        <ele>683.20001220703</ele>
        <time>2026-07-05T07:34:37.000Z</time>
      </trkpt>
      <trkpt lat="44.95678" lon="5.71336">
        <ele>683</ele>
        <time>2026-07-05T07:34:38.000Z</time>
      </trkpt>
      <trkpt lat="44.95679" lon="5.71339">
        <ele>682.79998779297</ele>
        <time>2026-07-05T07:34:39.000Z</time>
      </trkpt>
      <trkpt lat="44.95679" lon="5.71342">
        <ele>682.40002441406</ele>
        <time>2026-07-05T07:34:40.000Z</time>
      </trkpt>
      <trkpt lat="44.9568" lon="5.71344">
        <ele>682.20001220703</ele>
        <time>2026-07-05T07:34:41.000Z</time>
      </trkpt>
      <trkpt lat="44.95681" lon="5.71347">
        <ele>682.20001220703</ele>
        <time>2026-07-05T07:34:42.000Z</time>
      </trkpt>
      <trkpt lat="44.95681" lon="5.7135">
        <ele>682.20001220703</ele>
        <time>2026-07-05T07:34:43.000Z</time>
      </trkpt>
      <trkpt lat="44.95682" lon="5.71352">
        <ele>682.20001220703</ele>
        <time>2026-07-05T07:34:44.000Z</time>
      </trkpt>
      <trkpt lat="44.95682" lon="5.71356">
        <ele>682.20001220703</ele>
        <time>2026-07-05T07:34:45.000Z</time>
      </trkpt>
      <trkpt lat="44.95683" lon="5.71358">
        <ele>682.20001220703</ele>
        <time>2026-07-05T07:34:46.000Z</time>
      </trkpt>
      <trkpt lat="44.95684" lon="5.71361">
        <ele>682.20001220703</ele>
        <time>2026-07-05T07:34:47.000Z</time>
      </trkpt>
      <trkpt lat="44.95685" lon="5.71364">
        <ele>682.20001220703</ele>
        <time>2026-07-05T07:34:48.000Z</time>
      </trkpt>
      <trkpt lat="44.95685" lon="5.71367">
        <ele>682.20001220703</ele>
        <time>2026-07-05T07:34:49.000Z</time>
      </trkpt>
      <trkpt lat="44.95686" lon="5.71369">
        <ele>682.79998779297</ele>
        <time>2026-07-05T07:34:50.000Z</time>
      </trkpt>
      <trkpt lat="44.95687" lon="5.71372">
        <ele>683.40002441406</ele>
        <time>2026-07-05T07:34:51.000Z</time>
      </trkpt>
      <trkpt lat="44.95688" lon="5.71374">
        <ele>683.40002441406</ele>
        <time>2026-07-05T07:34:52.000Z</time>
      </trkpt>
      <trkpt lat="44.95689" lon="5.71377">
        <ele>683.59997558594</ele>
        <time>2026-07-05T07:34:53.000Z</time>
      </trkpt>
      <trkpt lat="44.9569" lon="5.71379">
        <ele>684</ele>
        <time>2026-07-05T07:34:54.000Z</time>
      </trkpt>
      <trkpt lat="44.95691" lon="5.71382">
        <ele>684.40002441406</ele>
        <time>2026-07-05T07:34:55.000Z</time>
      </trkpt>
      <trkpt lat="44.95692" lon="5.71385">
        <ele>684.59997558594</ele>
        <time>2026-07-05T07:34:56.000Z</time>
      </trkpt>
      <trkpt lat="44.95693" lon="5.71388">
        <ele>685.20001220703</ele>
        <time>2026-07-05T07:34:57.000Z</time>
      </trkpt>
      <trkpt lat="44.95694" lon="5.71392">
        <ele>685.59997558594</ele>
        <time>2026-07-05T07:34:58.000Z</time>
      </trkpt>
      <trkpt lat="44.95695" lon="5.71395">
        <ele>685.59997558594</ele>
        <time>2026-07-05T07:34:59.000Z</time>
      </trkpt>
      <trkpt lat="44.95697" lon="5.71398">
        <ele>685.40002441406</ele>
        <time>2026-07-05T07:35:00.000Z</time>
      </trkpt>
      <trkpt lat="44.95698" lon="5.71401">
        <ele>685.20001220703</ele>
        <time>2026-07-05T07:35:01.000Z</time>
      </trkpt>
      <trkpt lat="44.95699" lon="5.71404">
        <ele>684.79998779297</ele>
        <time>2026-07-05T07:35:02.000Z</time>
      </trkpt>
      <trkpt lat="44.957" lon="5.71408">
        <ele>684.59997558594</ele>
        <time>2026-07-05T07:35:03.000Z</time>
      </trkpt>
      <trkpt lat="44.95701" lon="5.71411">
        <ele>685.20001220703</ele>
        <time>2026-07-05T07:35:04.000Z</time>
      </trkpt>
      <trkpt lat="44.95703" lon="5.71414">
        <ele>685.20001220703</ele>
        <time>2026-07-05T07:35:05.000Z</time>
      </trkpt>
      <trkpt lat="44.95704" lon="5.71417">
        <ele>685.40002441406</ele>
        <time>2026-07-05T07:35:06.000Z</time>
      </trkpt>
      <trkpt lat="44.95705" lon="5.71421">
        <ele>685.59997558594</ele>
        <time>2026-07-05T07:35:07.000Z</time>
      </trkpt>
      <trkpt lat="44.95707" lon="5.71424">
        <ele>685.59997558594</ele>
        <time>2026-07-05T07:35:08.000Z</time>
      </trkpt>
      <trkpt lat="44.95708" lon="5.71427">
        <ele>685.40002441406</ele>
        <time>2026-07-05T07:35:09.000Z</time>
      </trkpt>
      <trkpt lat="44.95709" lon="5.7143">
        <ele>685.20001220703</ele>
        <time>2026-07-05T07:35:10.000Z</time>
      </trkpt>
      <trkpt lat="44.9571" lon="5.71434">
        <ele>685</ele>
        <time>2026-07-05T07:35:11.000Z</time>
      </trkpt>
      <trkpt lat="44.95711" lon="5.71436">
        <ele>684.79998779297</ele>
        <time>2026-07-05T07:35:12.000Z</time>
      </trkpt>
      <trkpt lat="44.95713" lon="5.71438">
        <ele>684.59997558594</ele>
        <time>2026-07-05T07:35:13.000Z</time>
      </trkpt>
      <trkpt lat="44.95715" lon="5.71441">
        <ele>684.79998779297</ele>
        <time>2026-07-05T07:35:14.000Z</time>
      </trkpt>
      <trkpt lat="44.95717" lon="5.71443">
        <ele>685.20001220703</ele>
        <time>2026-07-05T07:35:15.000Z</time>
      </trkpt>
      <trkpt lat="44.95718" lon="5.71446">
        <ele>685.79998779297</ele>
        <time>2026-07-05T07:35:16.000Z</time>
      </trkpt>
      <trkpt lat="44.9572" lon="5.71449">
        <ele>686.20001220703</ele>
        <time>2026-07-05T07:35:17.000Z</time>
      </trkpt>
      <trkpt lat="44.95722" lon="5.71452">
        <ele>686.40002441406</ele>
        <time>2026-07-05T07:35:18.000Z</time>
      </trkpt>
      <trkpt lat="44.95723" lon="5.71455">
        <ele>686.20001220703</ele>
        <time>2026-07-05T07:35:19.000Z</time>
      </trkpt>
      <trkpt lat="44.95724" lon="5.71457">
        <ele>685.59997558594</ele>
        <time>2026-07-05T07:35:20.000Z</time>
      </trkpt>
      <trkpt lat="44.95725" lon="5.7146">
        <ele>685.40002441406</ele>
        <time>2026-07-05T07:35:21.000Z</time>
      </trkpt>
      <trkpt lat="44.95726" lon="5.71463">
        <ele>685.20001220703</ele>
        <time>2026-07-05T07:35:22.000Z</time>
      </trkpt>
      <trkpt lat="44.95727" lon="5.71467">
        <ele>685</ele>
        <time>2026-07-05T07:35:23.000Z</time>
      </trkpt>
      <trkpt lat="44.95727" lon="5.7147">
        <ele>684.79998779297</ele>
        <time>2026-07-05T07:35:24.000Z</time>
      </trkpt>
      <trkpt lat="44.95727" lon="5.71475">
        <ele>684.59997558594</ele>
        <time>2026-07-05T07:35:25.000Z</time>
      </trkpt>
      <trkpt lat="44.95728" lon="5.71478">
        <ele>684.79998779297</ele>
        <time>2026-07-05T07:35:26.000Z</time>
      </trkpt>
      <trkpt lat="44.95728" lon="5.71482">
        <ele>685</ele>
        <time>2026-07-05T07:35:27.000Z</time>
      </trkpt>
      <trkpt lat="44.95727" lon="5.71486">
        <ele>685</ele>
        <time>2026-07-05T07:35:28.000Z</time>
      </trkpt>
      <trkpt lat="44.95727" lon="5.7149">
        <ele>685.20001220703</ele>
        <time>2026-07-05T07:35:29.000Z</time>
      </trkpt>
      <trkpt lat="44.95726" lon="5.71495">
        <ele>684.79998779297</ele>
        <time>2026-07-05T07:35:30.000Z</time>
      </trkpt>
      <trkpt lat="44.95726" lon="5.71498">
        <ele>684.40002441406</ele>
        <time>2026-07-05T07:35:31.000Z</time>
      </trkpt>
      <trkpt lat="44.95725" lon="5.71502">
        <ele>684</ele>
        <time>2026-07-05T07:35:32.000Z</time>
      </trkpt>
      <trkpt lat="44.95725" lon="5.71506">
        <ele>683.40002441406</ele>
        <time>2026-07-05T07:35:33.000Z</time>
      </trkpt>
      <trkpt lat="44.95725" lon="5.7151">
        <ele>683.20001220703</ele>
        <time>2026-07-05T07:35:34.000Z</time>
      </trkpt>
      <trkpt lat="44.95725" lon="5.71514">
        <ele>683</ele>
        <time>2026-07-05T07:35:35.000Z</time>
      </trkpt>
      <trkpt lat="44.95724" lon="5.71517">
        <ele>682.79998779297</ele>
        <time>2026-07-05T07:35:36.000Z</time>
      </trkpt>
      <trkpt lat="44.95723" lon="5.71521">
        <ele>682.40002441406</ele>
        <time>2026-07-05T07:35:37.000Z</time>
      </trkpt>
      <trkpt lat="44.95723" lon="5.71525">
        <ele>682.20001220703</ele>
        <time>2026-07-05T07:35:38.000Z</time>
      </trkpt>
      <trkpt lat="44.95722" lon="5.71529">
        <ele>682.40002441406</ele>
        <time>2026-07-05T07:35:39.000Z</time>
      </trkpt>
      <trkpt lat="44.95721" lon="5.71534">
        <ele>682.59997558594</ele>
        <time>2026-07-05T07:35:40.000Z</time>
      </trkpt>
      <trkpt lat="44.9572" lon="5.71537">
        <ele>682.59997558594</ele>
        <time>2026-07-05T07:35:41.000Z</time>
      </trkpt>
      <trkpt lat="44.9572" lon="5.71541">
        <ele>682.59997558594</ele>
        <time>2026-07-05T07:35:42.000Z</time>
      </trkpt>
      <trkpt lat="44.9572" lon="5.71544">
        <ele>682.20001220703</ele>
        <time>2026-07-05T07:35:43.000Z</time>
      </trkpt>
      <trkpt lat="44.95719" lon="5.71548">
        <ele>682</ele>
        <time>2026-07-05T07:35:44.000Z</time>
      </trkpt>
      <trkpt lat="44.95719" lon="5.71553">
        <ele>681.79998779297</ele>
        <time>2026-07-05T07:35:45.000Z</time>
      </trkpt>
      <trkpt lat="44.95719" lon="5.71557">
        <ele>681.79998779297</ele>
        <time>2026-07-05T07:35:46.000Z</time>
      </trkpt>
      <trkpt lat="44.9572" lon="5.71561">
        <ele>681.79998779297</ele>
        <time>2026-07-05T07:35:47.000Z</time>
      </trkpt>
      <trkpt lat="44.95719" lon="5.71565">
        <ele>681.59997558594</ele>
        <time>2026-07-05T07:35:48.000Z</time>
      </trkpt>
      <trkpt lat="44.95719" lon="5.71569">
        <ele>681.79998779297</ele>
        <time>2026-07-05T07:35:49.000Z</time>
      </trkpt>
      <trkpt lat="44.95719" lon="5.71573">
        <ele>682.20001220703</ele>
        <time>2026-07-05T07:35:50.000Z</time>
      </trkpt>
      <trkpt lat="44.95719" lon="5.71576">
        <ele>682.20001220703</ele>
        <time>2026-07-05T07:35:51.000Z</time>
      </trkpt>
      <trkpt lat="44.95719" lon="5.71579">
        <ele>682.40002441406</ele>
        <time>2026-07-05T07:35:52.000Z</time>
      </trkpt>
      <trkpt lat="44.95719" lon="5.71582">
        <ele>682.40002441406</ele>
        <time>2026-07-05T07:35:53.000Z</time>
      </trkpt>
      <trkpt lat="44.95719" lon="5.71585">
        <ele>682.40002441406</ele>
        <time>2026-07-05T07:35:54.000Z</time>
      </trkpt>
      <trkpt lat="44.95719" lon="5.71588">
        <ele>682.40002441406</ele>
        <time>2026-07-05T07:35:55.000Z</time>
      </trkpt>
      <trkpt lat="44.95719" lon="5.71591">
        <ele>682.20001220703</ele>
        <time>2026-07-05T07:35:56.000Z</time>
      </trkpt>
      <trkpt lat="44.9572" lon="5.71593">
        <ele>682.40002441406</ele>
        <time>2026-07-05T07:35:57.000Z</time>
      </trkpt>
      <trkpt lat="44.9572" lon="5.71596">
        <ele>682.40002441406</ele>
        <time>2026-07-05T07:35:58.000Z</time>
      </trkpt>
      <trkpt lat="44.95721" lon="5.71599">
        <ele>682.79998779297</ele>
        <time>2026-07-05T07:35:59.000Z</time>
      </trkpt>
      <trkpt lat="44.95722" lon="5.71603">
        <ele>683</ele>
        <time>2026-07-05T07:36:00.000Z</time>
      </trkpt>
      <trkpt lat="44.95723" lon="5.71605">
        <ele>683.40002441406</ele>
        <time>2026-07-05T07:36:01.000Z</time>
      </trkpt>
      <trkpt lat="44.95725" lon="5.71607">
        <ele>683.79998779297</ele>
        <time>2026-07-05T07:36:02.000Z</time>
      </trkpt>
      <trkpt lat="44.95727" lon="5.71608">
        <ele>684.20001220703</ele>
        <time>2026-07-05T07:36:03.000Z</time>
      </trkpt>
      <trkpt lat="44.95728" lon="5.71608">
        <ele>684.59997558594</ele>
        <time>2026-07-05T07:36:04.000Z</time>
      </trkpt>
      <trkpt lat="44.95729" lon="5.71608">
        <ele>684.59997558594</ele>
        <time>2026-07-05T07:36:05.000Z</time>
      </trkpt>
      <trkpt lat="44.9573" lon="5.71609">
        <ele>684.59997558594</ele>
        <time>2026-07-05T07:36:06.000Z</time>
      </trkpt>
      <trkpt lat="44.95732" lon="5.71609">
        <ele>684.59997558594</ele>
        <time>2026-07-05T07:36:07.000Z</time>
      </trkpt>
      <trkpt lat="44.95733" lon="5.71609">
        <ele>684.59997558594</ele>
        <time>2026-07-05T07:36:08.000Z</time>
      </trkpt>
      <trkpt lat="44.95734" lon="5.7161">
        <ele>684.79998779297</ele>
        <time>2026-07-05T07:36:09.000Z</time>
      </trkpt>
      <trkpt lat="44.95735" lon="5.7161">
        <ele>685</ele>
        <time>2026-07-05T07:36:10.000Z</time>
      </trkpt>
      <trkpt lat="44.95736" lon="5.71611">
        <ele>685.40002441406</ele>
        <time>2026-07-05T07:36:11.000Z</time>
      </trkpt>
      <trkpt lat="44.95737" lon="5.71612">
        <ele>685.79998779297</ele>
        <time>2026-07-05T07:36:12.000Z</time>
      </trkpt>
      <trkpt lat="44.95738" lon="5.71614">
        <ele>686.20001220703</ele>
        <time>2026-07-05T07:36:13.000Z</time>
      </trkpt>
      <trkpt lat="44.95739" lon="5.71615">
        <ele>686.59997558594</ele>
        <time>2026-07-05T07:36:14.000Z</time>
      </trkpt>
      <trkpt lat="44.95741" lon="5.71617">
        <ele>688.20001220703</ele>
        <time>2026-07-05T07:36:15.000Z</time>
      </trkpt>
      <trkpt lat="44.95741" lon="5.71619">
        <ele>688.59997558594</ele>
        <time>2026-07-05T07:36:16.000Z</time>
      </trkpt>
      <trkpt lat="44.95742" lon="5.71622">
        <ele>688.59997558594</ele>
        <time>2026-07-05T07:36:17.000Z</time>
      </trkpt>
      <trkpt lat="44.95743" lon="5.71623">
        <ele>688.59997558594</ele>
        <time>2026-07-05T07:36:18.000Z</time>
      </trkpt>
      <trkpt lat="44.95743" lon="5.71625">
        <ele>688.79998779297</ele>
        <time>2026-07-05T07:36:19.000Z</time>
      </trkpt>
      <trkpt lat="44.95744" lon="5.71627">
        <ele>688.79998779297</ele>
        <time>2026-07-05T07:36:20.000Z</time>
      </trkpt>
      <trkpt lat="44.95745" lon="5.71629">
        <ele>689.20001220703</ele>
        <time>2026-07-05T07:36:21.000Z</time>
      </trkpt>
      <trkpt lat="44.95746" lon="5.7163">
        <ele>689.59997558594</ele>
        <time>2026-07-05T07:36:22.000Z</time>
      </trkpt>
      <trkpt lat="44.95747" lon="5.71632">
        <ele>690</ele>
        <time>2026-07-05T07:36:23.000Z</time>
      </trkpt>
      <trkpt lat="44.95749" lon="5.71634">
        <ele>690.20001220703</ele>
        <time>2026-07-05T07:36:24.000Z</time>
      </trkpt>
      <trkpt lat="44.95751" lon="5.71635">
        <ele>690.40002441406</ele>
        <time>2026-07-05T07:36:25.000Z</time>
      </trkpt>
      <trkpt lat="44.95752" lon="5.71636">
        <ele>690.40002441406</ele>
        <time>2026-07-05T07:36:26.000Z</time>
      </trkpt>
      <trkpt lat="44.95754" lon="5.71637">
        <ele>690.79998779297</ele>
        <time>2026-07-05T07:36:27.000Z</time>
      </trkpt>
      <trkpt lat="44.95755" lon="5.71638">
        <ele>691.79998779297</ele>
        <time>2026-07-05T07:36:28.000Z</time>
      </trkpt>
      <trkpt lat="44.95756" lon="5.71639">
        <ele>692.20001220703</ele>
        <time>2026-07-05T07:36:29.000Z</time>
      </trkpt>
      <trkpt lat="44.95757" lon="5.71639">
        <ele>692.79998779297</ele>
        <time>2026-07-05T07:36:30.000Z</time>
      </trkpt>
      <trkpt lat="44.95759" lon="5.71639">
        <ele>693</ele>
        <time>2026-07-05T07:36:31.000Z</time>
      </trkpt>
      <trkpt lat="44.9576" lon="5.7164">
        <ele>693</ele>
        <time>2026-07-05T07:36:32.000Z</time>
      </trkpt>
      <trkpt lat="44.95761" lon="5.7164">
        <ele>693.59997558594</ele>
        <time>2026-07-05T07:36:33.000Z</time>
      </trkpt>
      <trkpt lat="44.95762" lon="5.71639">
        <ele>693.79998779297</ele>
        <time>2026-07-05T07:36:34.000Z</time>
      </trkpt>
      <trkpt lat="44.95764" lon="5.71639">
        <ele>693.79998779297</ele>
        <time>2026-07-05T07:36:35.000Z</time>
      </trkpt>
      <trkpt lat="44.95766" lon="5.71639">
        <ele>693.79998779297</ele>
        <time>2026-07-05T07:36:36.000Z</time>
      </trkpt>
      <trkpt lat="44.95768" lon="5.71638">
        <ele>694</ele>
        <time>2026-07-05T07:36:37.000Z</time>
      </trkpt>
      <trkpt lat="44.95769" lon="5.71637">
        <ele>694.20001220703</ele>
        <time>2026-07-05T07:36:38.000Z</time>
      </trkpt>
      <trkpt lat="44.9577" lon="5.71636">
        <ele>694.20001220703</ele>
        <time>2026-07-05T07:36:39.000Z</time>
      </trkpt>
      <trkpt lat="44.95771" lon="5.71635">
        <ele>694.20001220703</ele>
        <time>2026-07-05T07:36:40.000Z</time>
      </trkpt>
      <trkpt lat="44.95773" lon="5.71635">
        <ele>694.40002441406</ele>
        <time>2026-07-05T07:36:41.000Z</time>
      </trkpt>
      <trkpt lat="44.95774" lon="5.71634">
        <ele>694.40002441406</ele>
        <time>2026-07-05T07:36:42.000Z</time>
      </trkpt>
      <trkpt lat="44.95776" lon="5.71633">
        <ele>694.59997558594</ele>
        <time>2026-07-05T07:36:43.000Z</time>
      </trkpt>
      <trkpt lat="44.95777" lon="5.71633">
        <ele>694.59997558594</ele>
        <time>2026-07-05T07:36:44.000Z</time>
      </trkpt>
      <trkpt lat="44.95779" lon="5.71632">
        <ele>694.59997558594</ele>
        <time>2026-07-05T07:36:45.000Z</time>
      </trkpt>
      <trkpt lat="44.9578" lon="5.71632">
        <ele>694.79998779297</ele>
        <time>2026-07-05T07:36:46.000Z</time>
      </trkpt>
      <trkpt lat="44.95781" lon="5.71631">
        <ele>695</ele>
        <time>2026-07-05T07:36:47.000Z</time>
      </trkpt>
      <trkpt lat="44.95782" lon="5.71631">
        <ele>695</ele>
        <time>2026-07-05T07:36:48.000Z</time>
      </trkpt>
      <trkpt lat="44.95783" lon="5.7163">
        <ele>695</ele>
        <time>2026-07-05T07:36:49.000Z</time>
      </trkpt>
      <trkpt lat="44.95784" lon="5.7163">
        <ele>695.20001220703</ele>
        <time>2026-07-05T07:36:50.000Z</time>
      </trkpt>
      <trkpt lat="44.95786" lon="5.71629">
        <ele>695.79998779297</ele>
        <time>2026-07-05T07:36:51.000Z</time>
      </trkpt>
      <trkpt lat="44.95787" lon="5.71629">
        <ele>696.40002441406</ele>
        <time>2026-07-05T07:36:52.000Z</time>
      </trkpt>
      <trkpt lat="44.95788" lon="5.71628">
        <ele>697</ele>
        <time>2026-07-05T07:36:53.000Z</time>
      </trkpt>
      <trkpt lat="44.9579" lon="5.71628">
        <ele>697.20001220703</ele>
        <time>2026-07-05T07:36:54.000Z</time>
      </trkpt>
      <trkpt lat="44.95791" lon="5.71627">
        <ele>697.59997558594</ele>
        <time>2026-07-05T07:36:55.000Z</time>
      </trkpt>
      <trkpt lat="44.95792" lon="5.71627">
        <ele>698</ele>
        <time>2026-07-05T07:36:56.000Z</time>
      </trkpt>
      <trkpt lat="44.95793" lon="5.71626">
        <ele>698.59997558594</ele>
        <time>2026-07-05T07:36:57.000Z</time>
      </trkpt>
      <trkpt lat="44.95795" lon="5.71626">
        <ele>699</ele>
        <time>2026-07-05T07:36:58.000Z</time>
      </trkpt>
      <trkpt lat="44.95796" lon="5.71625">
        <ele>699.59997558594</ele>
        <time>2026-07-05T07:36:59.000Z</time>
      </trkpt>
      <trkpt lat="44.95796" lon="5.71625">
        <ele>700.20001220703</ele>
        <time>2026-07-05T07:37:00.000Z</time>
      </trkpt>
      <trkpt lat="44.95813" lon="5.71619">
        <ele>698.59997558594</ele>
        <time>2026-07-05T07:37:10.000Z</time>
      </trkpt>
      <trkpt lat="44.95806" lon="5.71624">
        <ele>698.40002441406</ele>
        <time>2026-07-05T07:37:11.000Z</time>
      </trkpt>
      <trkpt lat="44.95808" lon="5.71628">
        <ele>698.40002441406</ele>
        <time>2026-07-05T07:37:12.000Z</time>
      </trkpt>
      <trkpt lat="44.9581" lon="5.7163">
        <ele>698.59997558594</ele>
        <time>2026-07-05T07:37:13.000Z</time>
      </trkpt>
      <trkpt lat="44.95812" lon="5.71631">
        <ele>698.79998779297</ele>
        <time>2026-07-05T07:37:14.000Z</time>
      </trkpt>
      <trkpt lat="44.95814" lon="5.71633">
        <ele>698.59997558594</ele>
        <time>2026-07-05T07:37:15.000Z</time>
      </trkpt>
      <trkpt lat="44.95815" lon="5.71635">
        <ele>698.40002441406</ele>
        <time>2026-07-05T07:37:16.000Z</time>
      </trkpt>
      <trkpt lat="44.95816" lon="5.71637">
        <ele>698.20001220703</ele>
        <time>2026-07-05T07:37:17.000Z</time>
      </trkpt>
      <trkpt lat="44.95817" lon="5.71639">
        <ele>698.20001220703</ele>
        <time>2026-07-05T07:37:18.000Z</time>
      </trkpt>
      <trkpt lat="44.95816" lon="5.7164">
        <ele>698.20001220703</ele>
        <time>2026-07-05T07:37:19.000Z</time>
      </trkpt>
      <trkpt lat="44.95816" lon="5.71641">
        <ele>698</ele>
        <time>2026-07-05T07:37:20.000Z</time>
      </trkpt>
      <trkpt lat="44.95815" lon="5.71642">
        <ele>698.40002441406</ele>
        <time>2026-07-05T07:37:21.000Z</time>
      </trkpt>
      <trkpt lat="44.95815" lon="5.71643">
        <ele>698.79998779297</ele>
        <time>2026-07-05T07:37:22.000Z</time>
      </trkpt>
      <trkpt lat="44.95814" lon="5.71643">
        <ele>699.20001220703</ele>
        <time>2026-07-05T07:37:23.000Z</time>
      </trkpt>
      <trkpt lat="44.95814" lon="5.71644">
        <ele>699.40002441406</ele>
        <time>2026-07-05T07:37:24.000Z</time>
      </trkpt>
      <trkpt lat="44.95813" lon="5.71644">
        <ele>699.79998779297</ele>
        <time>2026-07-05T07:37:25.000Z</time>
      </trkpt>
      <trkpt lat="44.95812" lon="5.71645">
        <ele>699.79998779297</ele>
        <time>2026-07-05T07:37:26.000Z</time>
      </trkpt>
      <trkpt lat="44.95812" lon="5.71645">
        <ele>700.20001220703</ele>
        <time>2026-07-05T07:37:27.000Z</time>
      </trkpt>
      <trkpt lat="44.95811" lon="5.71646">
        <ele>700.20001220703</ele>
        <time>2026-07-05T07:37:28.000Z</time>
      </trkpt>
      <trkpt lat="44.9581" lon="5.71647">
        <ele>700.40002441406</ele>
        <time>2026-07-05T07:37:29.000Z</time>
      </trkpt>
      <trkpt lat="44.95809" lon="5.71648">
        <ele>700.40002441406</ele>
        <time>2026-07-05T07:37:30.000Z</time>
      </trkpt>
      <trkpt lat="44.95809" lon="5.71649">
        <ele>700.59997558594</ele>
        <time>2026-07-05T07:37:31.000Z</time>
      </trkpt>
      <trkpt lat="44.95809" lon="5.7165">
        <ele>700.59997558594</ele>
        <time>2026-07-05T07:37:32.000Z</time>
      </trkpt>
      <trkpt lat="44.95809" lon="5.71651">
        <ele>700.59997558594</ele>
        <time>2026-07-05T07:37:33.000Z</time>
      </trkpt>
      <trkpt lat="44.95809" lon="5.71651">
        <ele>700.40002441406</ele>
        <time>2026-07-05T07:37:34.000Z</time>
      </trkpt>
      <trkpt lat="44.95808" lon="5.71652">
        <ele>700.40002441406</ele>
        <time>2026-07-05T07:37:35.000Z</time>
      </trkpt>
      <trkpt lat="44.95807" lon="5.71652">
        <ele>700.59997558594</ele>
        <time>2026-07-05T07:37:36.000Z</time>
      </trkpt>
      <trkpt lat="44.95807" lon="5.71653">
        <ele>701</ele>
        <time>2026-07-05T07:37:37.000Z</time>
      </trkpt>
      <trkpt lat="44.95807" lon="5.71654">
        <ele>701.79998779297</ele>
        <time>2026-07-05T07:37:38.000Z</time>
      </trkpt>
      <trkpt lat="44.95806" lon="5.71655">
        <ele>702.20001220703</ele>
        <time>2026-07-05T07:37:39.000Z</time>
      </trkpt>
      <trkpt lat="44.95806" lon="5.71656">
        <ele>702.79998779297</ele>
        <time>2026-07-05T07:37:40.000Z</time>
      </trkpt>
      <trkpt lat="44.95806" lon="5.71657">
        <ele>703.20001220703</ele>
        <time>2026-07-05T07:37:41.000Z</time>
      </trkpt>
      <trkpt lat="44.95805" lon="5.71658">
        <ele>703.79998779297</ele>
        <time>2026-07-05T07:37:42.000Z</time>
      </trkpt>
      <trkpt lat="44.95806" lon="5.71659">
        <ele>704.40002441406</ele>
        <time>2026-07-05T07:37:43.000Z</time>
      </trkpt>
      <trkpt lat="44.95805" lon="5.7166">
        <ele>704.79998779297</ele>
        <time>2026-07-05T07:37:44.000Z</time>
      </trkpt>
      <trkpt lat="44.95805" lon="5.71661">
        <ele>705.20001220703</ele>
        <time>2026-07-05T07:37:45.000Z</time>
      </trkpt>
      <trkpt lat="44.95805" lon="5.71663">
        <ele>705.59997558594</ele>
        <time>2026-07-05T07:37:46.000Z</time>
      </trkpt>
      <trkpt lat="44.95805" lon="5.71664">
        <ele>705.79998779297</ele>
        <time>2026-07-05T07:37:47.000Z</time>
      </trkpt>
      <trkpt lat="44.95804" lon="5.71664">
        <ele>705.79998779297</ele>
        <time>2026-07-05T07:37:48.000Z</time>
      </trkpt>
      <trkpt lat="44.95804" lon="5.71666">
        <ele>706</ele>
        <time>2026-07-05T07:37:49.000Z</time>
      </trkpt>
      <trkpt lat="44.95804" lon="5.71668">
        <ele>706.20001220703</ele>
        <time>2026-07-05T07:37:50.000Z</time>
      </trkpt>
      <trkpt lat="44.95803" lon="5.71668">
        <ele>706.20001220703</ele>
        <time>2026-07-05T07:37:51.000Z</time>
      </trkpt>
      <trkpt lat="44.95803" lon="5.71668">
        <ele>706.59997558594</ele>
        <time>2026-07-05T07:37:52.000Z</time>
      </trkpt>
      <trkpt lat="44.95802" lon="5.71669">
        <ele>707</ele>
        <time>2026-07-05T07:37:53.000Z</time>
      </trkpt>
      <trkpt lat="44.95801" lon="5.71671">
        <ele>707.20001220703</ele>
        <time>2026-07-05T07:37:54.000Z</time>
      </trkpt>
      <trkpt lat="44.95801" lon="5.71672">
        <ele>707.59997558594</ele>
        <time>2026-07-05T07:37:55.000Z</time>
      </trkpt>
      <trkpt lat="44.95801" lon="5.71674">
        <ele>707.59997558594</ele>
        <time>2026-07-05T07:37:56.000Z</time>
      </trkpt>
      <trkpt lat="44.958" lon="5.71675">
        <ele>707.79998779297</ele>
        <time>2026-07-05T07:37:57.000Z</time>
      </trkpt>
      <trkpt lat="44.95801" lon="5.71676">
        <ele>707.79998779297</ele>
        <time>2026-07-05T07:37:58.000Z</time>
      </trkpt>
      <trkpt lat="44.95801" lon="5.71677">
        <ele>708</ele>
        <time>2026-07-05T07:37:59.000Z</time>
      </trkpt>
      <trkpt lat="44.95802" lon="5.71676">
        <ele>708</ele>
        <time>2026-07-05T07:38:00.000Z</time>
      </trkpt>
      <trkpt lat="44.95803" lon="5.71675">
        <ele>708.20001220703</ele>
        <time>2026-07-05T07:38:01.000Z</time>
      </trkpt>
      <trkpt lat="44.95803" lon="5.71674">
        <ele>708.20001220703</ele>
        <time>2026-07-05T07:38:02.000Z</time>
      </trkpt>
      <trkpt lat="44.95804" lon="5.71674">
        <ele>708.40002441406</ele>
        <time>2026-07-05T07:38:03.000Z</time>
      </trkpt>
      <trkpt lat="44.95804" lon="5.71673">
        <ele>708.59997558594</ele>
        <time>2026-07-05T07:38:04.000Z</time>
      </trkpt>
      <trkpt lat="44.95805" lon="5.71672">
        <ele>709</ele>
        <time>2026-07-05T07:38:05.000Z</time>
      </trkpt>
      <trkpt lat="44.95805" lon="5.71671">
        <ele>709</ele>
        <time>2026-07-05T07:38:06.000Z</time>
      </trkpt>
      <trkpt lat="44.95806" lon="5.7167">
        <ele>709.20001220703</ele>
        <time>2026-07-05T07:38:07.000Z</time>
      </trkpt>
      <trkpt lat="44.95807" lon="5.71669">
        <ele>709.59997558594</ele>
        <time>2026-07-05T07:38:08.000Z</time>
      </trkpt>
      <trkpt lat="44.95808" lon="5.71669">
        <ele>709.59997558594</ele>
        <time>2026-07-05T07:38:09.000Z</time>
      </trkpt>
      <trkpt lat="44.95809" lon="5.71669">
        <ele>709.79998779297</ele>
        <time>2026-07-05T07:38:10.000Z</time>
      </trkpt>
      <trkpt lat="44.9581" lon="5.7167">
        <ele>710</ele>
        <time>2026-07-05T07:38:11.000Z</time>
      </trkpt>
      <trkpt lat="44.9581" lon="5.71671">
        <ele>710.20001220703</ele>
        <time>2026-07-05T07:38:12.000Z</time>
      </trkpt>
      <trkpt lat="44.9581" lon="5.71673">
        <ele>710.40002441406</ele>
        <time>2026-07-05T07:38:13.000Z</time>
      </trkpt>
      <trkpt lat="44.95809" lon="5.71673">
        <ele>710.79998779297</ele>
        <time>2026-07-05T07:38:14.000Z</time>
      </trkpt>
      <trkpt lat="44.95808" lon="5.71674">
        <ele>711</ele>
        <time>2026-07-05T07:38:15.000Z</time>
      </trkpt>
      <trkpt lat="44.95808" lon="5.71675">
        <ele>711.20001220703</ele>
        <time>2026-07-05T07:38:16.000Z</time>
      </trkpt>
      <trkpt lat="44.95808" lon="5.71676">
        <ele>711.40002441406</ele>
        <time>2026-07-05T07:38:17.000Z</time>
      </trkpt>
      <trkpt lat="44.95808" lon="5.71678">
        <ele>711.59997558594</ele>
        <time>2026-07-05T07:38:18.000Z</time>
      </trkpt>
      <trkpt lat="44.95809" lon="5.71679">
        <ele>711.79998779297</ele>
        <time>2026-07-05T07:38:19.000Z</time>
      </trkpt>
      <trkpt lat="44.95809" lon="5.71679">
        <ele>712.20001220703</ele>
        <time>2026-07-05T07:38:20.000Z</time>
      </trkpt>
      <trkpt lat="44.95808" lon="5.7168">
        <ele>712.40002441406</ele>
        <time>2026-07-05T07:38:21.000Z</time>
      </trkpt>
      <trkpt lat="44.95809" lon="5.7168">
        <ele>712.59997558594</ele>
        <time>2026-07-05T07:38:22.000Z</time>
      </trkpt>
      <trkpt lat="44.95809" lon="5.7168">
        <ele>713</ele>
        <time>2026-07-05T07:38:23.000Z</time>
      </trkpt>
      <trkpt lat="44.9581" lon="5.71679">
        <ele>713.20001220703</ele>
        <time>2026-07-05T07:38:24.000Z</time>
      </trkpt>
      <trkpt lat="44.9581" lon="5.71678">
        <ele>713.40002441406</ele>
        <time>2026-07-05T07:38:25.000Z</time>
      </trkpt>
      <trkpt lat="44.95811" lon="5.71678">
        <ele>713.59997558594</ele>
        <time>2026-07-05T07:38:26.000Z</time>
      </trkpt>
      <trkpt lat="44.95811" lon="5.71676">
        <ele>714</ele>
        <time>2026-07-05T07:38:27.000Z</time>
      </trkpt>
      <trkpt lat="44.95812" lon="5.71675">
        <ele>714</ele>
        <time>2026-07-05T07:38:28.000Z</time>
      </trkpt>
      <trkpt lat="44.95814" lon="5.71675">
        <ele>714.20001220703</ele>
        <time>2026-07-05T07:38:29.000Z</time>
      </trkpt>
      <trkpt lat="44.95815" lon="5.71674">
        <ele>714.20001220703</ele>
        <time>2026-07-05T07:38:30.000Z</time>
      </trkpt>
      <trkpt lat="44.95816" lon="5.71674">
        <ele>714.20001220703</ele>
        <time>2026-07-05T07:38:31.000Z</time>
      </trkpt>
      <trkpt lat="44.95817" lon="5.71674">
        <ele>714.40002441406</ele>
        <time>2026-07-05T07:38:32.000Z</time>
      </trkpt>
      <trkpt lat="44.95818" lon="5.71675">
        <ele>714.59997558594</ele>
        <time>2026-07-05T07:38:33.000Z</time>
      </trkpt>
      <trkpt lat="44.95819" lon="5.71676">
        <ele>714.79998779297</ele>
        <time>2026-07-05T07:38:34.000Z</time>
      </trkpt>
      <trkpt lat="44.95818" lon="5.71677">
        <ele>715</ele>
        <time>2026-07-05T07:38:35.000Z</time>
      </trkpt>
      <trkpt lat="44.95818" lon="5.71678">
        <ele>715.40002441406</ele>
        <time>2026-07-05T07:38:36.000Z</time>
      </trkpt>
      <trkpt lat="44.95818" lon="5.71679">
        <ele>716</ele>
        <time>2026-07-05T07:38:37.000Z</time>
      </trkpt>
      <trkpt lat="44.95817" lon="5.7168">
        <ele>716.40002441406</ele>
        <time>2026-07-05T07:38:38.000Z</time>
      </trkpt>
      <trkpt lat="44.95817" lon="5.7168">
        <ele>716.59997558594</ele>
        <time>2026-07-05T07:38:39.000Z</time>
      </trkpt>
      <trkpt lat="44.95817" lon="5.71681">
        <ele>717</ele>
        <time>2026-07-05T07:38:40.000Z</time>
      </trkpt>
      <trkpt lat="44.95817" lon="5.71682">
        <ele>717.20001220703</ele>
        <time>2026-07-05T07:38:41.000Z</time>
      </trkpt>
      <trkpt lat="44.95816" lon="5.71684">
        <ele>717.59997558594</ele>
        <time>2026-07-05T07:38:42.000Z</time>
      </trkpt>
      <trkpt lat="44.95816" lon="5.71685">
        <ele>718.20001220703</ele>
        <time>2026-07-05T07:38:43.000Z</time>
      </trkpt>
      <trkpt lat="44.95816" lon="5.71686">
        <ele>718.59997558594</ele>
        <time>2026-07-05T07:38:44.000Z</time>
      </trkpt>
      <trkpt lat="44.95816" lon="5.71687">
        <ele>719.40002441406</ele>
        <time>2026-07-05T07:38:45.000Z</time>
      </trkpt>
      <trkpt lat="44.95815" lon="5.71689">
        <ele>719.79998779297</ele>
        <time>2026-07-05T07:38:46.000Z</time>
      </trkpt>
      <trkpt lat="44.95815" lon="5.71691">
        <ele>720</ele>
        <time>2026-07-05T07:38:47.000Z</time>
      </trkpt>
      <trkpt lat="44.95815" lon="5.71692">
        <ele>720</ele>
        <time>2026-07-05T07:38:48.000Z</time>
      </trkpt>
      <trkpt lat="44.95815" lon="5.71693">
        <ele>720</ele>
        <time>2026-07-05T07:38:49.000Z</time>
      </trkpt>
      <trkpt lat="44.95816" lon="5.71694">
        <ele>720</ele>
        <time>2026-07-05T07:38:50.000Z</time>
      </trkpt>
      <trkpt lat="44.95816" lon="5.71694">
        <ele>720</ele>
        <time>2026-07-05T07:38:51.000Z</time>
      </trkpt>
      <trkpt lat="44.95817" lon="5.71694">
        <ele>720.20001220703</ele>
        <time>2026-07-05T07:38:52.000Z</time>
      </trkpt>
      <trkpt lat="44.95818" lon="5.71693">
        <ele>720.40002441406</ele>
        <time>2026-07-05T07:38:53.000Z</time>
      </trkpt>
      <trkpt lat="44.95819" lon="5.71693">
        <ele>720.40002441406</ele>
        <time>2026-07-05T07:38:54.000Z</time>
      </trkpt>
      <trkpt lat="44.95819" lon="5.71693">
        <ele>720.59997558594</ele>
        <time>2026-07-05T07:38:55.000Z</time>
      </trkpt>
      <trkpt lat="44.9582" lon="5.71693">
        <ele>721</ele>
        <time>2026-07-05T07:38:56.000Z</time>
      </trkpt>
      <trkpt lat="44.95821" lon="5.71693">
        <ele>721</ele>
        <time>2026-07-05T07:38:57.000Z</time>
      </trkpt>
      <trkpt lat="44.95822" lon="5.71693">
        <ele>721.40002441406</ele>
        <time>2026-07-05T07:38:58.000Z</time>
      </trkpt>
      <trkpt lat="44.95823" lon="5.71693">
        <ele>721.79998779297</ele>
        <time>2026-07-05T07:38:59.000Z</time>
      </trkpt>
      <trkpt lat="44.95824" lon="5.71694">
        <ele>722</ele>
        <time>2026-07-05T07:39:00.000Z</time>
      </trkpt>
      <trkpt lat="44.95825" lon="5.71694">
        <ele>722.20001220703</ele>
        <time>2026-07-05T07:39:01.000Z</time>
      </trkpt>
      <trkpt lat="44.95826" lon="5.71694">
        <ele>722.20001220703</ele>
        <time>2026-07-05T07:39:02.000Z</time>
      </trkpt>
      <trkpt lat="44.95827" lon="5.71695">
        <ele>722.40002441406</ele>
        <time>2026-07-05T07:39:03.000Z</time>
      </trkpt>
      <trkpt lat="44.95828" lon="5.71695">
        <ele>722.59997558594</ele>
        <time>2026-07-05T07:39:04.000Z</time>
      </trkpt>
      <trkpt lat="44.95829" lon="5.71695">
        <ele>722.79998779297</ele>
        <time>2026-07-05T07:39:05.000Z</time>
      </trkpt>
      <trkpt lat="44.9583" lon="5.71696">
        <ele>723.20001220703</ele>
        <time>2026-07-05T07:39:06.000Z</time>
      </trkpt>
      <trkpt lat="44.95831" lon="5.71696">
        <ele>723.40002441406</ele>
        <time>2026-07-05T07:39:07.000Z</time>
      </trkpt>
      <trkpt lat="44.95832" lon="5.71697">
        <ele>723.79998779297</ele>
        <time>2026-07-05T07:39:08.000Z</time>
      </trkpt>
      <trkpt lat="44.95833" lon="5.71697">
        <ele>724</ele>
        <time>2026-07-05T07:39:09.000Z</time>
      </trkpt>
      <trkpt lat="44.95834" lon="5.71698">
        <ele>724.20001220703</ele>
        <time>2026-07-05T07:39:10.000Z</time>
      </trkpt>
      <trkpt lat="44.95835" lon="5.71698">
        <ele>724.59997558594</ele>
        <time>2026-07-05T07:39:11.000Z</time>
      </trkpt>
      <trkpt lat="44.95836" lon="5.71698">
        <ele>724.59997558594</ele>
        <time>2026-07-05T07:39:12.000Z</time>
      </trkpt>
      <trkpt lat="44.95837" lon="5.71698">
        <ele>724.59997558594</ele>
        <time>2026-07-05T07:39:13.000Z</time>
      </trkpt>
      <trkpt lat="44.95838" lon="5.71699">
        <ele>724.79998779297</ele>
        <time>2026-07-05T07:39:14.000Z</time>
      </trkpt>
      <trkpt lat="44.95839" lon="5.71699">
        <ele>724.79998779297</ele>
        <time>2026-07-05T07:39:15.000Z</time>
      </trkpt>
      <trkpt lat="44.95839" lon="5.71699">
        <ele>725</ele>
        <time>2026-07-05T07:39:16.000Z</time>
      </trkpt>
      <trkpt lat="44.9584" lon="5.717">
        <ele>725</ele>
        <time>2026-07-05T07:39:17.000Z</time>
      </trkpt>
      <trkpt lat="44.95841" lon="5.717">
        <ele>725</ele>
        <time>2026-07-05T07:39:18.000Z</time>
      </trkpt>
      <trkpt lat="44.95842" lon="5.717">
        <ele>725.20001220703</ele>
        <time>2026-07-05T07:39:19.000Z</time>
      </trkpt>
      <trkpt lat="44.95843" lon="5.71701">
        <ele>725.20001220703</ele>
        <time>2026-07-05T07:39:20.000Z</time>
      </trkpt>
      <trkpt lat="44.95845" lon="5.71701">
        <ele>725.40002441406</ele>
        <time>2026-07-05T07:39:21.000Z</time>
      </trkpt>
      <trkpt lat="44.95846" lon="5.71701">
        <ele>725.40002441406</ele>
        <time>2026-07-05T07:39:22.000Z</time>
      </trkpt>
      <trkpt lat="44.95847" lon="5.71701">
        <ele>726.20001220703</ele>
        <time>2026-07-05T07:39:23.000Z</time>
      </trkpt>
      <trkpt lat="44.95847" lon="5.71702">
        <ele>727</ele>
        <time>2026-07-05T07:39:24.000Z</time>
      </trkpt>
      <trkpt lat="44.95848" lon="5.71702">
        <ele>727.20001220703</ele>
        <time>2026-07-05T07:39:25.000Z</time>
      </trkpt>
      <trkpt lat="44.95849" lon="5.71703">
        <ele>728.20001220703</ele>
        <time>2026-07-05T07:39:26.000Z</time>
      </trkpt>
      <trkpt lat="44.95849" lon="5.71704">
        <ele>728.79998779297</ele>
        <time>2026-07-05T07:39:27.000Z</time>
      </trkpt>
      <trkpt lat="44.9585" lon="5.71704">
        <ele>729.59997558594</ele>
        <time>2026-07-05T07:39:28.000Z</time>
      </trkpt>
      <trkpt lat="44.95852" lon="5.71705">
        <ele>730</ele>
        <time>2026-07-05T07:39:29.000Z</time>
      </trkpt>
      <trkpt lat="44.95853" lon="5.71705">
        <ele>730.59997558594</ele>
        <time>2026-07-05T07:39:30.000Z</time>
      </trkpt>
      <trkpt lat="44.95854" lon="5.71705">
        <ele>731</ele>
        <time>2026-07-05T07:39:31.000Z</time>
      </trkpt>
      <trkpt lat="44.95855" lon="5.71705">
        <ele>731.20001220703</ele>
        <time>2026-07-05T07:39:32.000Z</time>
      </trkpt>
      <trkpt lat="44.95856" lon="5.71705">
        <ele>731.40002441406</ele>
        <time>2026-07-05T07:39:33.000Z</time>
      </trkpt>
      <trkpt lat="44.95857" lon="5.71705">
        <ele>731.59997558594</ele>
        <time>2026-07-05T07:39:34.000Z</time>
      </trkpt>
      <trkpt lat="44.95858" lon="5.71704">
        <ele>731.59997558594</ele>
        <time>2026-07-05T07:39:35.000Z</time>
      </trkpt>
      <trkpt lat="44.95859" lon="5.71704">
        <ele>731.59997558594</ele>
        <time>2026-07-05T07:39:36.000Z</time>
      </trkpt>
      <trkpt lat="44.9586" lon="5.71704">
        <ele>731.59997558594</ele>
        <time>2026-07-05T07:39:37.000Z</time>
      </trkpt>
      <trkpt lat="44.95861" lon="5.71704">
        <ele>731.59997558594</ele>
        <time>2026-07-05T07:39:38.000Z</time>
      </trkpt>
      <trkpt lat="44.95862" lon="5.71705">
        <ele>731.59997558594</ele>
        <time>2026-07-05T07:39:39.000Z</time>
      </trkpt>
      <trkpt lat="44.95863" lon="5.71706">
        <ele>731.79998779297</ele>
        <time>2026-07-05T07:39:40.000Z</time>
      </trkpt>
      <trkpt lat="44.95864" lon="5.71706">
        <ele>732</ele>
        <time>2026-07-05T07:39:41.000Z</time>
      </trkpt>
      <trkpt lat="44.95865" lon="5.71706">
        <ele>732.40002441406</ele>
        <time>2026-07-05T07:39:42.000Z</time>
      </trkpt>
      <trkpt lat="44.95866" lon="5.71706">
        <ele>732.59997558594</ele>
        <time>2026-07-05T07:39:43.000Z</time>
      </trkpt>
      <trkpt lat="44.95867" lon="5.71707">
        <ele>732.79998779297</ele>
        <time>2026-07-05T07:39:44.000Z</time>
      </trkpt>
      <trkpt lat="44.95868" lon="5.71708">
        <ele>733</ele>
        <time>2026-07-05T07:39:45.000Z</time>
      </trkpt>
      <trkpt lat="44.95869" lon="5.71709">
        <ele>733</ele>
        <time>2026-07-05T07:39:46.000Z</time>
      </trkpt>
      <trkpt lat="44.9587" lon="5.7171">
        <ele>733</ele>
        <time>2026-07-05T07:39:47.000Z</time>
      </trkpt>
      <trkpt lat="44.95872" lon="5.71711">
        <ele>732.79998779297</ele>
        <time>2026-07-05T07:39:48.000Z</time>
      </trkpt>
      <trkpt lat="44.95873" lon="5.71712">
        <ele>732.79998779297</ele>
        <time>2026-07-05T07:39:49.000Z</time>
      </trkpt>
      <trkpt lat="44.95874" lon="5.71713">
        <ele>732.59997558594</ele>
        <time>2026-07-05T07:39:50.000Z</time>
      </trkpt>
      <trkpt lat="44.95875" lon="5.71713">
        <ele>732.79998779297</ele>
        <time>2026-07-05T07:39:51.000Z</time>
      </trkpt>
      <trkpt lat="44.95875" lon="5.71714">
        <ele>733</ele>
        <time>2026-07-05T07:39:52.000Z</time>
      </trkpt>
      <trkpt lat="44.95876" lon="5.71714">
        <ele>733.20001220703</ele>
        <time>2026-07-05T07:39:53.000Z</time>
      </trkpt>
      <trkpt lat="44.95877" lon="5.71715">
        <ele>734</ele>
        <time>2026-07-05T07:39:54.000Z</time>
      </trkpt>
      <trkpt lat="44.95877" lon="5.71715">
        <ele>734.79998779297</ele>
        <time>2026-07-05T07:39:55.000Z</time>
      </trkpt>
      <trkpt lat="44.95878" lon="5.71716">
        <ele>735.40002441406</ele>
        <time>2026-07-05T07:39:56.000Z</time>
      </trkpt>
      <trkpt lat="44.95879" lon="5.71716">
        <ele>735.40002441406</ele>
        <time>2026-07-05T07:39:57.000Z</time>
      </trkpt>
      <trkpt lat="44.9588" lon="5.71717">
        <ele>735.79998779297</ele>
        <time>2026-07-05T07:39:58.000Z</time>
      </trkpt>
      <trkpt lat="44.95881" lon="5.71718">
        <ele>736.59997558594</ele>
        <time>2026-07-05T07:39:59.000Z</time>
      </trkpt>
      <trkpt lat="44.95881" lon="5.71719">
        <ele>737.40002441406</ele>
        <time>2026-07-05T07:40:00.000Z</time>
      </trkpt>
      <trkpt lat="44.95882" lon="5.71721">
        <ele>738.20001220703</ele>
        <time>2026-07-05T07:40:01.000Z</time>
      </trkpt>
      <trkpt lat="44.95882" lon="5.71722">
        <ele>738.59997558594</ele>
        <time>2026-07-05T07:40:02.000Z</time>
      </trkpt>
      <trkpt lat="44.95883" lon="5.71723">
        <ele>738.59997558594</ele>
        <time>2026-07-05T07:40:03.000Z</time>
      </trkpt>
      <trkpt lat="44.95883" lon="5.71724">
        <ele>739</ele>
        <time>2026-07-05T07:40:04.000Z</time>
      </trkpt>
      <trkpt lat="44.95884" lon="5.71724">
        <ele>739.20001220703</ele>
        <time>2026-07-05T07:40:05.000Z</time>
      </trkpt>
      <trkpt lat="44.95885" lon="5.71725">
        <ele>739.40002441406</ele>
        <time>2026-07-05T07:40:06.000Z</time>
      </trkpt>
      <trkpt lat="44.95885" lon="5.71726">
        <ele>739.40002441406</ele>
        <time>2026-07-05T07:40:07.000Z</time>
      </trkpt>
      <trkpt lat="44.95886" lon="5.71727">
        <ele>739.40002441406</ele>
        <time>2026-07-05T07:40:08.000Z</time>
      </trkpt>
      <trkpt lat="44.95887" lon="5.71728">
        <ele>739.20001220703</ele>
        <time>2026-07-05T07:40:09.000Z</time>
      </trkpt>
      <trkpt lat="44.95888" lon="5.71728">
        <ele>739.20001220703</ele>
        <time>2026-07-05T07:40:10.000Z</time>
      </trkpt>
      <trkpt lat="44.95889" lon="5.71729">
        <ele>739</ele>
        <time>2026-07-05T07:40:11.000Z</time>
      </trkpt>
      <trkpt lat="44.95889" lon="5.7173">
        <ele>739</ele>
        <time>2026-07-05T07:40:12.000Z</time>
      </trkpt>
      <trkpt lat="44.95889" lon="5.71731">
        <ele>739</ele>
        <time>2026-07-05T07:40:13.000Z</time>
      </trkpt>
      <trkpt lat="44.9589" lon="5.71732">
        <ele>739.20001220703</ele>
        <time>2026-07-05T07:40:14.000Z</time>
      </trkpt>
      <trkpt lat="44.9589" lon="5.71732">
        <ele>739.40002441406</ele>
        <time>2026-07-05T07:40:15.000Z</time>
      </trkpt>
      <trkpt lat="44.95891" lon="5.71733">
        <ele>739.59997558594</ele>
        <time>2026-07-05T07:40:16.000Z</time>
      </trkpt>
      <trkpt lat="44.95891" lon="5.71734">
        <ele>740</ele>
        <time>2026-07-05T07:40:17.000Z</time>
      </trkpt>
      <trkpt lat="44.95891" lon="5.71735">
        <ele>740.40002441406</ele>
        <time>2026-07-05T07:40:18.000Z</time>
      </trkpt>
      <trkpt lat="44.95892" lon="5.71736">
        <ele>740.79998779297</ele>
        <time>2026-07-05T07:40:19.000Z</time>
      </trkpt>
      <trkpt lat="44.95893" lon="5.71736">
        <ele>741</ele>
        <time>2026-07-05T07:40:20.000Z</time>
      </trkpt>
      <trkpt lat="44.95894" lon="5.71737">
        <ele>741.20001220703</ele>
        <time>2026-07-05T07:40:21.000Z</time>
      </trkpt>
      <trkpt lat="44.95894" lon="5.71738">
        <ele>741.59997558594</ele>
        <time>2026-07-05T07:40:22.000Z</time>
      </trkpt>
      <trkpt lat="44.95895" lon="5.71739">
        <ele>741.79998779297</ele>
        <time>2026-07-05T07:40:23.000Z</time>
      </trkpt>
      <trkpt lat="44.95896" lon="5.7174">
        <ele>742.20001220703</ele>
        <time>2026-07-05T07:40:24.000Z</time>
      </trkpt>
      <trkpt lat="44.95896" lon="5.71741">
        <ele>742.40002441406</ele>
        <time>2026-07-05T07:40:25.000Z</time>
      </trkpt>
      <trkpt lat="44.95897" lon="5.71742">
        <ele>742.40002441406</ele>
        <time>2026-07-05T07:40:26.000Z</time>
      </trkpt>
      <trkpt lat="44.95898" lon="5.71743">
        <ele>742.79998779297</ele>
        <time>2026-07-05T07:40:27.000Z</time>
      </trkpt>
      <trkpt lat="44.95899" lon="5.71745">
        <ele>743.20001220703</ele>
        <time>2026-07-05T07:40:28.000Z</time>
      </trkpt>
      <trkpt lat="44.959" lon="5.71745">
        <ele>743.59997558594</ele>
        <time>2026-07-05T07:40:29.000Z</time>
      </trkpt>
      <trkpt lat="44.959" lon="5.71746">
        <ele>744.20001220703</ele>
        <time>2026-07-05T07:40:30.000Z</time>
      </trkpt>
      <trkpt lat="44.959" lon="5.71747">
        <ele>744.59997558594</ele>
        <time>2026-07-05T07:40:31.000Z</time>
      </trkpt>
      <trkpt lat="44.95901" lon="5.71748">
        <ele>745</ele>
        <time>2026-07-05T07:40:32.000Z</time>
      </trkpt>
      <trkpt lat="44.95901" lon="5.71749">
        <ele>745.20001220703</ele>
        <time>2026-07-05T07:40:33.000Z</time>
      </trkpt>
      <trkpt lat="44.95902" lon="5.7175">
        <ele>745.40002441406</ele>
        <time>2026-07-05T07:40:34.000Z</time>
      </trkpt>
      <trkpt lat="44.95902" lon="5.71751">
        <ele>745.59997558594</ele>
        <time>2026-07-05T07:40:35.000Z</time>
      </trkpt>
      <trkpt lat="44.95902" lon="5.71752">
        <ele>745.59997558594</ele>
        <time>2026-07-05T07:40:36.000Z</time>
      </trkpt>
      <trkpt lat="44.95903" lon="5.71754">
        <ele>745.79998779297</ele>
        <time>2026-07-05T07:40:37.000Z</time>
      </trkpt>
      <trkpt lat="44.95903" lon="5.71755">
        <ele>745.79998779297</ele>
        <time>2026-07-05T07:40:38.000Z</time>
      </trkpt>
      <trkpt lat="44.95904" lon="5.71757">
        <ele>746</ele>
        <time>2026-07-05T07:40:39.000Z</time>
      </trkpt>
      <trkpt lat="44.95905" lon="5.71758">
        <ele>746</ele>
        <time>2026-07-05T07:40:40.000Z</time>
      </trkpt>
      <trkpt lat="44.95906" lon="5.71759">
        <ele>746.20001220703</ele>
        <time>2026-07-05T07:40:41.000Z</time>
      </trkpt>
      <trkpt lat="44.95907" lon="5.71759">
        <ele>746.20001220703</ele>
        <time>2026-07-05T07:40:42.000Z</time>
      </trkpt>
      <trkpt lat="44.95908" lon="5.7176">
        <ele>746.59997558594</ele>
        <time>2026-07-05T07:40:43.000Z</time>
      </trkpt>
      <trkpt lat="44.95909" lon="5.7176">
        <ele>746.79998779297</ele>
        <time>2026-07-05T07:40:44.000Z</time>
      </trkpt>
      <trkpt lat="44.9591" lon="5.71761">
        <ele>746.79998779297</ele>
        <time>2026-07-05T07:40:45.000Z</time>
      </trkpt>
      <trkpt lat="44.95911" lon="5.71761">
        <ele>747</ele>
        <time>2026-07-05T07:40:46.000Z</time>
      </trkpt>
      <trkpt lat="44.95911" lon="5.71761">
        <ele>747.20001220703</ele>
        <time>2026-07-05T07:40:47.000Z</time>
      </trkpt>
      <trkpt lat="44.95912" lon="5.71762">
        <ele>747.59997558594</ele>
        <time>2026-07-05T07:40:48.000Z</time>
      </trkpt>
      <trkpt lat="44.95913" lon="5.71762">
        <ele>748.20001220703</ele>
        <time>2026-07-05T07:40:49.000Z</time>
      </trkpt>
      <trkpt lat="44.95914" lon="5.71762">
        <ele>748.59997558594</ele>
        <time>2026-07-05T07:40:50.000Z</time>
      </trkpt>
      <trkpt lat="44.95914" lon="5.71763">
        <ele>749</ele>
        <time>2026-07-05T07:40:51.000Z</time>
      </trkpt>
      <trkpt lat="44.95915" lon="5.71763">
        <ele>749.40002441406</ele>
        <time>2026-07-05T07:40:52.000Z</time>
      </trkpt>
      <trkpt lat="44.95916" lon="5.71763">
        <ele>749.59997558594</ele>
        <time>2026-07-05T07:40:53.000Z</time>
      </trkpt>
      <trkpt lat="44.95916" lon="5.71764">
        <ele>750.40002441406</ele>
        <time>2026-07-05T07:40:54.000Z</time>
      </trkpt>
      <trkpt lat="44.95917" lon="5.71764">
        <ele>750.59997558594</ele>
        <time>2026-07-05T07:40:55.000Z</time>
      </trkpt>
      <trkpt lat="44.95918" lon="5.71764">
        <ele>750.59997558594</ele>
        <time>2026-07-05T07:40:56.000Z</time>
      </trkpt>
      <trkpt lat="44.95918" lon="5.71764">
        <ele>750.59997558594</ele>
        <time>2026-07-05T07:40:57.000Z</time>
      </trkpt>
      <trkpt lat="44.95919" lon="5.71765">
        <ele>750.59997558594</ele>
        <time>2026-07-05T07:40:58.000Z</time>
      </trkpt>
      <trkpt lat="44.9592" lon="5.71765">
        <ele>750.59997558594</ele>
        <time>2026-07-05T07:40:59.000Z</time>
      </trkpt>
      <trkpt lat="44.9592" lon="5.71765">
        <ele>750.79998779297</ele>
        <time>2026-07-05T07:41:00.000Z</time>
      </trkpt>
      <trkpt lat="44.95921" lon="5.71765">
        <ele>751</ele>
        <time>2026-07-05T07:41:01.000Z</time>
      </trkpt>
      <trkpt lat="44.95922" lon="5.71766">
        <ele>751.40002441406</ele>
        <time>2026-07-05T07:41:02.000Z</time>
      </trkpt>
      <trkpt lat="44.95923" lon="5.71766">
        <ele>751.79998779297</ele>
        <time>2026-07-05T07:41:03.000Z</time>
      </trkpt>
      <trkpt lat="44.95924" lon="5.71766">
        <ele>752.20001220703</ele>
        <time>2026-07-05T07:41:04.000Z</time>
      </trkpt>
      <trkpt lat="44.95925" lon="5.71767">
        <ele>752.40002441406</ele>
        <time>2026-07-05T07:41:05.000Z</time>
      </trkpt>
      <trkpt lat="44.95926" lon="5.71767">
        <ele>752.79998779297</ele>
        <time>2026-07-05T07:41:06.000Z</time>
      </trkpt>
      <trkpt lat="44.95927" lon="5.71767">
        <ele>753.20001220703</ele>
        <time>2026-07-05T07:41:07.000Z</time>
      </trkpt>
      <trkpt lat="44.95928" lon="5.71767">
        <ele>753.59997558594</ele>
        <time>2026-07-05T07:41:08.000Z</time>
      </trkpt>
      <trkpt lat="44.9593" lon="5.71767">
        <ele>753.79998779297</ele>
        <time>2026-07-05T07:41:09.000Z</time>
      </trkpt>
      <trkpt lat="44.95931" lon="5.71767">
        <ele>753.79998779297</ele>
        <time>2026-07-05T07:41:10.000Z</time>
      </trkpt>
      <trkpt lat="44.95932" lon="5.71767">
        <ele>753.79998779297</ele>
        <time>2026-07-05T07:41:11.000Z</time>
      </trkpt>
      <trkpt lat="44.95933" lon="5.71767">
        <ele>753.79998779297</ele>
        <time>2026-07-05T07:41:12.000Z</time>
      </trkpt>
      <trkpt lat="44.95934" lon="5.71767">
        <ele>753.79998779297</ele>
        <time>2026-07-05T07:41:13.000Z</time>
      </trkpt>
      <trkpt lat="44.95934" lon="5.71767">
        <ele>754</ele>
        <time>2026-07-05T07:41:14.000Z</time>
      </trkpt>
      <trkpt lat="44.95935" lon="5.71767">
        <ele>754.40002441406</ele>
        <time>2026-07-05T07:41:15.000Z</time>
      </trkpt>
      <trkpt lat="44.95935" lon="5.71767">
        <ele>755</ele>
        <time>2026-07-05T07:41:16.000Z</time>
      </trkpt>
      <trkpt lat="44.95936" lon="5.71767">
        <ele>755</ele>
        <time>2026-07-05T07:41:17.000Z</time>
      </trkpt>
      <trkpt lat="44.95937" lon="5.71767">
        <ele>755</ele>
        <time>2026-07-05T07:41:18.000Z</time>
      </trkpt>
      <trkpt lat="44.95938" lon="5.71768">
        <ele>755.40002441406</ele>
        <time>2026-07-05T07:41:19.000Z</time>
      </trkpt>
      <trkpt lat="44.95938" lon="5.71768">
        <ele>755.59997558594</ele>
        <time>2026-07-05T07:41:20.000Z</time>
      </trkpt>
      <trkpt lat="44.95939" lon="5.71769">
        <ele>755.79998779297</ele>
        <time>2026-07-05T07:41:21.000Z</time>
      </trkpt>
      <trkpt lat="44.95939" lon="5.71769">
        <ele>756.20001220703</ele>
        <time>2026-07-05T07:41:22.000Z</time>
      </trkpt>
      <trkpt lat="44.9594" lon="5.7177">
        <ele>756.59997558594</ele>
        <time>2026-07-05T07:41:23.000Z</time>
      </trkpt>
      <trkpt lat="44.9594" lon="5.71772">
        <ele>757.40002441406</ele>
        <time>2026-07-05T07:41:24.000Z</time>
      </trkpt>
      <trkpt lat="44.95941" lon="5.71773">
        <ele>758.20001220703</ele>
        <time>2026-07-05T07:41:25.000Z</time>
      </trkpt>
      <trkpt lat="44.95942" lon="5.71774">
        <ele>758.40002441406</ele>
        <time>2026-07-05T07:41:26.000Z</time>
      </trkpt>
      <trkpt lat="44.95943" lon="5.71774">
        <ele>758.59997558594</ele>
        <time>2026-07-05T07:41:27.000Z</time>
      </trkpt>
      <trkpt lat="44.95944" lon="5.71775">
        <ele>759.79998779297</ele>
        <time>2026-07-05T07:41:28.000Z</time>
      </trkpt>
      <trkpt lat="44.95946" lon="5.71776">
        <ele>760.40002441406</ele>
        <time>2026-07-05T07:41:29.000Z</time>
      </trkpt>
      <trkpt lat="44.95947" lon="5.71778">
        <ele>760.79998779297</ele>
        <time>2026-07-05T07:41:30.000Z</time>
      </trkpt>
      <trkpt lat="44.95949" lon="5.71778">
        <ele>762.20001220703</ele>
        <time>2026-07-05T07:41:31.000Z</time>
      </trkpt>
      <trkpt lat="44.95949" lon="5.71779">
        <ele>763.40002441406</ele>
        <time>2026-07-05T07:41:32.000Z</time>
      </trkpt>
      <trkpt lat="44.95951" lon="5.7178">
        <ele>764.40002441406</ele>
        <time>2026-07-05T07:41:33.000Z</time>
      </trkpt>
      <trkpt lat="44.95952" lon="5.71781">
        <ele>764.59997558594</ele>
        <time>2026-07-05T07:41:34.000Z</time>
      </trkpt>
      <trkpt lat="44.95953" lon="5.71782">
        <ele>765</ele>
        <time>2026-07-05T07:41:35.000Z</time>
      </trkpt>
      <trkpt lat="44.95954" lon="5.71783">
        <ele>765.40002441406</ele>
        <time>2026-07-05T07:41:36.000Z</time>
      </trkpt>
      <trkpt lat="44.95956" lon="5.71783">
        <ele>765.59997558594</ele>
        <time>2026-07-05T07:41:37.000Z</time>
      </trkpt>
      <trkpt lat="44.95957" lon="5.71784">
        <ele>765.79998779297</ele>
        <time>2026-07-05T07:41:38.000Z</time>
      </trkpt>
      <trkpt lat="44.95959" lon="5.71785">
        <ele>766</ele>
        <time>2026-07-05T07:41:39.000Z</time>
      </trkpt>
      <trkpt lat="44.9596" lon="5.71786">
        <ele>766.20001220703</ele>
        <time>2026-07-05T07:41:40.000Z</time>
      </trkpt>
      <trkpt lat="44.95962" lon="5.71787">
        <ele>766.20001220703</ele>
        <time>2026-07-05T07:41:41.000Z</time>
      </trkpt>
      <trkpt lat="44.95963" lon="5.71788">
        <ele>766.20001220703</ele>
        <time>2026-07-05T07:41:42.000Z</time>
      </trkpt>
      <trkpt lat="44.95965" lon="5.71789">
        <ele>766</ele>
        <time>2026-07-05T07:41:43.000Z</time>
      </trkpt>
      <trkpt lat="44.95966" lon="5.7179">
        <ele>766</ele>
        <time>2026-07-05T07:41:44.000Z</time>
      </trkpt>
      <trkpt lat="44.95967" lon="5.71791">
        <ele>766</ele>
        <time>2026-07-05T07:41:45.000Z</time>
      </trkpt>
      <trkpt lat="44.95968" lon="5.71791">
        <ele>766</ele>
        <time>2026-07-05T07:41:46.000Z</time>
      </trkpt>
      <trkpt lat="44.95969" lon="5.71792">
        <ele>766.20001220703</ele>
        <time>2026-07-05T07:41:47.000Z</time>
      </trkpt>
      <trkpt lat="44.9597" lon="5.71792">
        <ele>766.20001220703</ele>
        <time>2026-07-05T07:41:48.000Z</time>
      </trkpt>
      <trkpt lat="44.95972" lon="5.71793">
        <ele>766.20001220703</ele>
        <time>2026-07-05T07:41:49.000Z</time>
      </trkpt>
      <trkpt lat="44.95973" lon="5.71794">
        <ele>766</ele>
        <time>2026-07-05T07:41:50.000Z</time>
      </trkpt>
      <trkpt lat="44.95975" lon="5.71795">
        <ele>766.20001220703</ele>
        <time>2026-07-05T07:41:51.000Z</time>
      </trkpt>
      <trkpt lat="44.95977" lon="5.71796">
        <ele>766.59997558594</ele>
        <time>2026-07-05T07:41:52.000Z</time>
      </trkpt>
      <trkpt lat="44.95978" lon="5.71797">
        <ele>767</ele>
        <time>2026-07-05T07:41:53.000Z</time>
      </trkpt>
      <trkpt lat="44.9598" lon="5.71798">
        <ele>767.40002441406</ele>
        <time>2026-07-05T07:41:54.000Z</time>
      </trkpt>
      <trkpt lat="44.95982" lon="5.71799">
        <ele>767.79998779297</ele>
        <time>2026-07-05T07:41:55.000Z</time>
      </trkpt>
      <trkpt lat="44.95984" lon="5.718">
        <ele>769.79998779297</ele>
        <time>2026-07-05T07:41:56.000Z</time>
      </trkpt>
      <trkpt lat="44.95985" lon="5.71801">
        <ele>770</ele>
        <time>2026-07-05T07:41:57.000Z</time>
      </trkpt>
      <trkpt lat="44.95987" lon="5.71801">
        <ele>770.20001220703</ele>
        <time>2026-07-05T07:41:58.000Z</time>
      </trkpt>
      <trkpt lat="44.95989" lon="5.71802">
        <ele>770.79998779297</ele>
        <time>2026-07-05T07:41:59.000Z</time>
      </trkpt>
      <trkpt lat="44.9599" lon="5.71802">
        <ele>771.59997558594</ele>
        <time>2026-07-05T07:42:00.000Z</time>
      </trkpt>
      <trkpt lat="44.95992" lon="5.71803">
        <ele>772.59997558594</ele>
        <time>2026-07-05T07:42:01.000Z</time>
      </trkpt>
      <trkpt lat="44.95993" lon="5.71803">
        <ele>773</ele>
        <time>2026-07-05T07:42:02.000Z</time>
      </trkpt>
      <trkpt lat="44.95994" lon="5.71804">
        <ele>773.59997558594</ele>
        <time>2026-07-05T07:42:03.000Z</time>
      </trkpt>
      <trkpt lat="44.95996" lon="5.71804">
        <ele>774</ele>
        <time>2026-07-05T07:42:04.000Z</time>
      </trkpt>
      <trkpt lat="44.95997" lon="5.71805">
        <ele>774.59997558594</ele>
        <time>2026-07-05T07:42:05.000Z</time>
      </trkpt>
      <trkpt lat="44.95999" lon="5.71805">
        <ele>774.40002441406</ele>
        <time>2026-07-05T07:42:06.000Z</time>
      </trkpt>
      <trkpt lat="44.96" lon="5.71806">
        <ele>773.79998779297</ele>
        <time>2026-07-05T07:42:07.000Z</time>
      </trkpt>
      <trkpt lat="44.96002" lon="5.71806">
        <ele>773.79998779297</ele>
        <time>2026-07-05T07:42:08.000Z</time>
      </trkpt>
      <trkpt lat="44.96003" lon="5.71807">
        <ele>773.59997558594</ele>
        <time>2026-07-05T07:42:09.000Z</time>
      </trkpt>
      <trkpt lat="44.96006" lon="5.71807">
        <ele>773.59997558594</ele>
        <time>2026-07-05T07:42:10.000Z</time>
      </trkpt>
      <trkpt lat="44.96007" lon="5.71808">
        <ele>773.79998779297</ele>
        <time>2026-07-05T07:42:11.000Z</time>
      </trkpt>
      <trkpt lat="44.96008" lon="5.71809">
        <ele>774</ele>
        <time>2026-07-05T07:42:12.000Z</time>
      </trkpt>
      <trkpt lat="44.9601" lon="5.71809">
        <ele>773.79998779297</ele>
        <time>2026-07-05T07:42:13.000Z</time>
      </trkpt>
      <trkpt lat="44.96011" lon="5.7181">
        <ele>774</ele>
        <time>2026-07-05T07:42:14.000Z</time>
      </trkpt>
      <trkpt lat="44.96013" lon="5.71811">
        <ele>774</ele>
        <time>2026-07-05T07:42:15.000Z</time>
      </trkpt>
      <trkpt lat="44.96014" lon="5.71812">
        <ele>774</ele>
        <time>2026-07-05T07:42:16.000Z</time>
      </trkpt>
      <trkpt lat="44.96016" lon="5.71812">
        <ele>774</ele>
        <time>2026-07-05T07:42:17.000Z</time>
      </trkpt>
      <trkpt lat="44.96017" lon="5.71813">
        <ele>774</ele>
        <time>2026-07-05T07:42:18.000Z</time>
      </trkpt>
      <trkpt lat="44.96019" lon="5.71814">
        <ele>774.59997558594</ele>
        <time>2026-07-05T07:42:19.000Z</time>
      </trkpt>
      <trkpt lat="44.9602" lon="5.71815">
        <ele>774.79998779297</ele>
        <time>2026-07-05T07:42:20.000Z</time>
      </trkpt>
      <trkpt lat="44.96022" lon="5.71816">
        <ele>774.79998779297</ele>
        <time>2026-07-05T07:42:21.000Z</time>
      </trkpt>
      <trkpt lat="44.96023" lon="5.71817">
        <ele>775</ele>
        <time>2026-07-05T07:42:22.000Z</time>
      </trkpt>
      <trkpt lat="44.96025" lon="5.71818">
        <ele>775</ele>
        <time>2026-07-05T07:42:23.000Z</time>
      </trkpt>
      <trkpt lat="44.96027" lon="5.71819">
        <ele>775.20001220703</ele>
        <time>2026-07-05T07:42:24.000Z</time>
      </trkpt>
      <trkpt lat="44.96029" lon="5.7182">
        <ele>775.20001220703</ele>
        <time>2026-07-05T07:42:25.000Z</time>
      </trkpt>
      <trkpt lat="44.96031" lon="5.7182">
        <ele>775.40002441406</ele>
        <time>2026-07-05T07:42:26.000Z</time>
      </trkpt>
      <trkpt lat="44.96033" lon="5.71821">
        <ele>776</ele>
        <time>2026-07-05T07:42:27.000Z</time>
      </trkpt>
      <trkpt lat="44.96034" lon="5.71821">
        <ele>776.40002441406</ele>
        <time>2026-07-05T07:42:28.000Z</time>
      </trkpt>
      <trkpt lat="44.96036" lon="5.71823">
        <ele>776.40002441406</ele>
        <time>2026-07-05T07:42:29.000Z</time>
      </trkpt>
      <trkpt lat="44.96038" lon="5.71824">
        <ele>776.20001220703</ele>
        <time>2026-07-05T07:42:30.000Z</time>
      </trkpt>
      <trkpt lat="44.96039" lon="5.71825">
        <ele>776.20001220703</ele>
        <time>2026-07-05T07:42:31.000Z</time>
      </trkpt>
      <trkpt lat="44.96041" lon="5.71826">
        <ele>776.20001220703</ele>
        <time>2026-07-05T07:42:32.000Z</time>
      </trkpt>
      <trkpt lat="44.96042" lon="5.71826">
        <ele>776.20001220703</ele>
        <time>2026-07-05T07:42:33.000Z</time>
      </trkpt>
      <trkpt lat="44.96044" lon="5.71827">
        <ele>776.20001220703</ele>
        <time>2026-07-05T07:42:34.000Z</time>
      </trkpt>
      <trkpt lat="44.96045" lon="5.71827">
        <ele>776.59997558594</ele>
        <time>2026-07-05T07:42:35.000Z</time>
      </trkpt>
      <trkpt lat="44.96047" lon="5.71828">
        <ele>776.79998779297</ele>
        <time>2026-07-05T07:42:36.000Z</time>
      </trkpt>
      <trkpt lat="44.96048" lon="5.71828">
        <ele>777.20001220703</ele>
        <time>2026-07-05T07:42:37.000Z</time>
      </trkpt>
      <trkpt lat="44.96049" lon="5.71829">
        <ele>777.40002441406</ele>
        <time>2026-07-05T07:42:38.000Z</time>
      </trkpt>
      <trkpt lat="44.9605" lon="5.7183">
        <ele>778</ele>
        <time>2026-07-05T07:42:39.000Z</time>
      </trkpt>
      <trkpt lat="44.96052" lon="5.71831">
        <ele>778.59997558594</ele>
        <time>2026-07-05T07:42:40.000Z</time>
      </trkpt>
      <trkpt lat="44.96054" lon="5.71832">
        <ele>778.79998779297</ele>
        <time>2026-07-05T07:42:41.000Z</time>
      </trkpt>
      <trkpt lat="44.96055" lon="5.71832">
        <ele>779.40002441406</ele>
        <time>2026-07-05T07:42:42.000Z</time>
      </trkpt>
      <trkpt lat="44.96057" lon="5.71833">
        <ele>779.59997558594</ele>
        <time>2026-07-05T07:42:43.000Z</time>
      </trkpt>
      <trkpt lat="44.96058" lon="5.71834">
        <ele>779.79998779297</ele>
        <time>2026-07-05T07:42:44.000Z</time>
      </trkpt>
      <trkpt lat="44.96059" lon="5.71835">
        <ele>780</ele>
        <time>2026-07-05T07:42:45.000Z</time>
      </trkpt>
      <trkpt lat="44.96061" lon="5.71835">
        <ele>780.20001220703</ele>
        <time>2026-07-05T07:42:46.000Z</time>
      </trkpt>
      <trkpt lat="44.96062" lon="5.71836">
        <ele>780.40002441406</ele>
        <time>2026-07-05T07:42:47.000Z</time>
      </trkpt>
      <trkpt lat="44.96063" lon="5.71836">
        <ele>780.59997558594</ele>
        <time>2026-07-05T07:42:48.000Z</time>
      </trkpt>
      <trkpt lat="44.96065" lon="5.71837">
        <ele>780.79998779297</ele>
        <time>2026-07-05T07:42:49.000Z</time>
      </trkpt>
      <trkpt lat="44.96066" lon="5.71837">
        <ele>781.59997558594</ele>
        <time>2026-07-05T07:42:50.000Z</time>
      </trkpt>
      <trkpt lat="44.96067" lon="5.71838">
        <ele>781.59997558594</ele>
        <time>2026-07-05T07:42:51.000Z</time>
      </trkpt>
      <trkpt lat="44.96068" lon="5.71838">
        <ele>781.59997558594</ele>
        <time>2026-07-05T07:42:52.000Z</time>
      </trkpt>
      <trkpt lat="44.96069" lon="5.71839">
        <ele>781.40002441406</ele>
        <time>2026-07-05T07:42:53.000Z</time>
      </trkpt>
      <trkpt lat="44.9607" lon="5.7184">
        <ele>781.40002441406</ele>
        <time>2026-07-05T07:42:54.000Z</time>
      </trkpt>
      <trkpt lat="44.96071" lon="5.7184">
        <ele>781.40002441406</ele>
        <time>2026-07-05T07:42:55.000Z</time>
      </trkpt>
      <trkpt lat="44.96072" lon="5.71841">
        <ele>781.59997558594</ele>
        <time>2026-07-05T07:42:56.000Z</time>
      </trkpt>
      <trkpt lat="44.96073" lon="5.71842">
        <ele>781.79998779297</ele>
        <time>2026-07-05T07:42:57.000Z</time>
      </trkpt>
      <trkpt lat="44.96074" lon="5.71843">
        <ele>781.79998779297</ele>
        <time>2026-07-05T07:42:58.000Z</time>
      </trkpt>
      <trkpt lat="44.96076" lon="5.71843">
        <ele>782</ele>
        <time>2026-07-05T07:42:59.000Z</time>
      </trkpt>
      <trkpt lat="44.96077" lon="5.71843">
        <ele>782.20001220703</ele>
        <time>2026-07-05T07:43:00.000Z</time>
      </trkpt>
      <trkpt lat="44.96079" lon="5.71844">
        <ele>782.79998779297</ele>
        <time>2026-07-05T07:43:01.000Z</time>
      </trkpt>
      <trkpt lat="44.96081" lon="5.71844">
        <ele>783.20001220703</ele>
        <time>2026-07-05T07:43:02.000Z</time>
      </trkpt>
      <trkpt lat="44.96083" lon="5.71845">
        <ele>783.40002441406</ele>
        <time>2026-07-05T07:43:03.000Z</time>
      </trkpt>
      <trkpt lat="44.96084" lon="5.71847">
        <ele>784.20001220703</ele>
        <time>2026-07-05T07:43:04.000Z</time>
      </trkpt>
      <trkpt lat="44.96086" lon="5.7185">
        <ele>784.40002441406</ele>
        <time>2026-07-05T07:43:05.000Z</time>
      </trkpt>
      <trkpt lat="44.96087" lon="5.71852">
        <ele>784.59997558594</ele>
        <time>2026-07-05T07:43:06.000Z</time>
      </trkpt>
      <trkpt lat="44.96087" lon="5.71855">
        <ele>784.20001220703</ele>
        <time>2026-07-05T07:43:07.000Z</time>
      </trkpt>
      <trkpt lat="44.96088" lon="5.71858">
        <ele>783.40002441406</ele>
        <time>2026-07-05T07:43:08.000Z</time>
      </trkpt>
      <trkpt lat="44.96088" lon="5.71861">
        <ele>782.79998779297</ele>
        <time>2026-07-05T07:43:09.000Z</time>
      </trkpt>
      <trkpt lat="44.96089" lon="5.71864">
        <ele>782.59997558594</ele>
        <time>2026-07-05T07:43:10.000Z</time>
      </trkpt>
      <trkpt lat="44.9609" lon="5.71867">
        <ele>781.79998779297</ele>
        <time>2026-07-05T07:43:11.000Z</time>
      </trkpt>
      <trkpt lat="44.9609" lon="5.71869">
        <ele>781.40002441406</ele>
        <time>2026-07-05T07:43:12.000Z</time>
      </trkpt>
      <trkpt lat="44.96091" lon="5.71873">
        <ele>781</ele>
        <time>2026-07-05T07:43:13.000Z</time>
      </trkpt>
      <trkpt lat="44.96093" lon="5.71876">
        <ele>780.59997558594</ele>
        <time>2026-07-05T07:43:14.000Z</time>
      </trkpt>
      <trkpt lat="44.96094" lon="5.7188">
        <ele>780.40002441406</ele>
        <time>2026-07-05T07:43:15.000Z</time>
      </trkpt>
      <trkpt lat="44.96096" lon="5.71883">
        <ele>780.20001220703</ele>
        <time>2026-07-05T07:43:16.000Z</time>
      </trkpt>
      <trkpt lat="44.96098" lon="5.71885">
        <ele>779.79998779297</ele>
        <time>2026-07-05T07:43:17.000Z</time>
      </trkpt>
      <trkpt lat="44.961" lon="5.71888">
        <ele>779.59997558594</ele>
        <time>2026-07-05T07:43:18.000Z</time>
      </trkpt>
      <trkpt lat="44.96102" lon="5.7189">
        <ele>779.40002441406</ele>
        <time>2026-07-05T07:43:19.000Z</time>
      </trkpt>
      <trkpt lat="44.96104" lon="5.71893">
        <ele>779.20001220703</ele>
        <time>2026-07-05T07:43:20.000Z</time>
      </trkpt>
      <trkpt lat="44.96106" lon="5.71896">
        <ele>779</ele>
        <time>2026-07-05T07:43:21.000Z</time>
      </trkpt>
      <trkpt lat="44.96109" lon="5.71898">
        <ele>779</ele>
        <time>2026-07-05T07:43:22.000Z</time>
      </trkpt>
      <trkpt lat="44.96111" lon="5.71901">
        <ele>778.59997558594</ele>
        <time>2026-07-05T07:43:23.000Z</time>
      </trkpt>
      <trkpt lat="44.96113" lon="5.71903">
        <ele>778.20001220703</ele>
        <time>2026-07-05T07:43:24.000Z</time>
      </trkpt>
      <trkpt lat="44.96116" lon="5.71906">
        <ele>778</ele>
        <time>2026-07-05T07:43:25.000Z</time>
      </trkpt>
      <trkpt lat="44.96118" lon="5.71909">
        <ele>777.59997558594</ele>
        <time>2026-07-05T07:43:26.000Z</time>
      </trkpt>
      <trkpt lat="44.9612" lon="5.71911">
        <ele>777.40002441406</ele>
        <time>2026-07-05T07:43:27.000Z</time>
      </trkpt>
      <trkpt lat="44.96122" lon="5.71914">
        <ele>777</ele>
        <time>2026-07-05T07:43:28.000Z</time>
      </trkpt>
      <trkpt lat="44.96124" lon="5.71917">
        <ele>776.79998779297</ele>
        <time>2026-07-05T07:43:29.000Z</time>
      </trkpt>
      <trkpt lat="44.96125" lon="5.7192">
        <ele>776.59997558594</ele>
        <time>2026-07-05T07:43:30.000Z</time>
      </trkpt>
      <trkpt lat="44.96126" lon="5.71924">
        <ele>776.20001220703</ele>
        <time>2026-07-05T07:43:31.000Z</time>
      </trkpt>
      <trkpt lat="44.96127" lon="5.71928">
        <ele>775.59997558594</ele>
        <time>2026-07-05T07:43:32.000Z</time>
      </trkpt>
      <trkpt lat="44.96129" lon="5.71933">
        <ele>774.79998779297</ele>
        <time>2026-07-05T07:43:33.000Z</time>
      </trkpt>
      <trkpt lat="44.96129" lon="5.71936">
        <ele>774.20001220703</ele>
        <time>2026-07-05T07:43:34.000Z</time>
      </trkpt>
      <trkpt lat="44.96131" lon="5.71939">
        <ele>773.79998779297</ele>
        <time>2026-07-05T07:43:35.000Z</time>
      </trkpt>
      <trkpt lat="44.96132" lon="5.71941">
        <ele>773.20001220703</ele>
        <time>2026-07-05T07:43:36.000Z</time>
      </trkpt>
      <trkpt lat="44.96134" lon="5.71943">
        <ele>772.79998779297</ele>
        <time>2026-07-05T07:43:37.000Z</time>
      </trkpt>
      <trkpt lat="44.96136" lon="5.71945">
        <ele>772.40002441406</ele>
        <time>2026-07-05T07:43:38.000Z</time>
      </trkpt>
      <trkpt lat="44.96138" lon="5.71947">
        <ele>772.20001220703</ele>
        <time>2026-07-05T07:43:39.000Z</time>
      </trkpt>
      <trkpt lat="44.96141" lon="5.7195">
        <ele>772</ele>
        <time>2026-07-05T07:43:40.000Z</time>
      </trkpt>
      <trkpt lat="44.96143" lon="5.71951">
        <ele>771.59997558594</ele>
        <time>2026-07-05T07:43:41.000Z</time>
      </trkpt>
      <trkpt lat="44.96146" lon="5.71953">
        <ele>771.40002441406</ele>
        <time>2026-07-05T07:43:42.000Z</time>
      </trkpt>
      <trkpt lat="44.96148" lon="5.71955">
        <ele>771.20001220703</ele>
        <time>2026-07-05T07:43:43.000Z</time>
      </trkpt>
      <trkpt lat="44.9615" lon="5.71956">
        <ele>770.79998779297</ele>
        <time>2026-07-05T07:43:44.000Z</time>
      </trkpt>
      <trkpt lat="44.96153" lon="5.71957">
        <ele>770.79998779297</ele>
        <time>2026-07-05T07:43:45.000Z</time>
      </trkpt>
      <trkpt lat="44.96155" lon="5.71959">
        <ele>770.59997558594</ele>
        <time>2026-07-05T07:43:46.000Z</time>
      </trkpt>
      <trkpt lat="44.96156" lon="5.71962">
        <ele>770.40002441406</ele>
        <time>2026-07-05T07:43:47.000Z</time>
      </trkpt>
      <trkpt lat="44.96157" lon="5.71964">
        <ele>770.20001220703</ele>
        <time>2026-07-05T07:43:48.000Z</time>
      </trkpt>
      <trkpt lat="44.96158" lon="5.71967">
        <ele>770.20001220703</ele>
        <time>2026-07-05T07:43:49.000Z</time>
      </trkpt>
      <trkpt lat="44.96159" lon="5.7197">
        <ele>770</ele>
        <time>2026-07-05T07:43:50.000Z</time>
      </trkpt>
      <trkpt lat="44.9616" lon="5.71973">
        <ele>770</ele>
        <time>2026-07-05T07:43:51.000Z</time>
      </trkpt>
      <trkpt lat="44.96161" lon="5.71975">
        <ele>771.59997558594</ele>
        <time>2026-07-05T07:43:52.000Z</time>
      </trkpt>
      <trkpt lat="44.96163" lon="5.71977">
        <ele>772.20001220703</ele>
        <time>2026-07-05T07:43:53.000Z</time>
      </trkpt>
      <trkpt lat="44.96164" lon="5.71979">
        <ele>772.59997558594</ele>
        <time>2026-07-05T07:43:54.000Z</time>
      </trkpt>
      <trkpt lat="44.96165" lon="5.71982">
        <ele>772.79998779297</ele>
        <time>2026-07-05T07:43:55.000Z</time>
      </trkpt>
      <trkpt lat="44.96166" lon="5.71984">
        <ele>773</ele>
        <time>2026-07-05T07:43:56.000Z</time>
      </trkpt>
      <trkpt lat="44.96167" lon="5.71986">
        <ele>773.20001220703</ele>
        <time>2026-07-05T07:43:57.000Z</time>
      </trkpt>
      <trkpt lat="44.96168" lon="5.71988">
        <ele>773.40002441406</ele>
        <time>2026-07-05T07:43:58.000Z</time>
      </trkpt>
      <trkpt lat="44.96169" lon="5.71991">
        <ele>773.40002441406</ele>
        <time>2026-07-05T07:43:59.000Z</time>
      </trkpt>
      <trkpt lat="44.96169" lon="5.71994">
        <ele>773.40002441406</ele>
        <time>2026-07-05T07:44:00.000Z</time>
      </trkpt>
      <trkpt lat="44.9617" lon="5.71997">
        <ele>773.59997558594</ele>
        <time>2026-07-05T07:44:01.000Z</time>
      </trkpt>
      <trkpt lat="44.96171" lon="5.72001">
        <ele>773.79998779297</ele>
        <time>2026-07-05T07:44:02.000Z</time>
      </trkpt>
      <trkpt lat="44.96172" lon="5.72005">
        <ele>774.79998779297</ele>
        <time>2026-07-05T07:44:03.000Z</time>
      </trkpt>
      <trkpt lat="44.96172" lon="5.7201">
        <ele>775.20001220703</ele>
        <time>2026-07-05T07:44:04.000Z</time>
      </trkpt>
      <trkpt lat="44.96172" lon="5.72013">
        <ele>776</ele>
        <time>2026-07-05T07:44:05.000Z</time>
      </trkpt>
      <trkpt lat="44.96172" lon="5.72017">
        <ele>775.79998779297</ele>
        <time>2026-07-05T07:44:06.000Z</time>
      </trkpt>
      <trkpt lat="44.96173" lon="5.72021">
        <ele>776</ele>
        <time>2026-07-05T07:44:07.000Z</time>
      </trkpt>
      <trkpt lat="44.96174" lon="5.72024">
        <ele>775.79998779297</ele>
        <time>2026-07-05T07:44:08.000Z</time>
      </trkpt>
      <trkpt lat="44.96174" lon="5.72028">
        <ele>775.79998779297</ele>
        <time>2026-07-05T07:44:09.000Z</time>
      </trkpt>
      <trkpt lat="44.96176" lon="5.72032">
        <ele>775.59997558594</ele>
        <time>2026-07-05T07:44:10.000Z</time>
      </trkpt>
      <trkpt lat="44.96178" lon="5.72035">
        <ele>775.59997558594</ele>
        <time>2026-07-05T07:44:11.000Z</time>
      </trkpt>
      <trkpt lat="44.96179" lon="5.72038">
        <ele>775.40002441406</ele>
        <time>2026-07-05T07:44:12.000Z</time>
      </trkpt>
      <trkpt lat="44.96181" lon="5.7204">
        <ele>776.59997558594</ele>
        <time>2026-07-05T07:44:13.000Z</time>
      </trkpt>
      <trkpt lat="44.96183" lon="5.72041">
        <ele>776.79998779297</ele>
        <time>2026-07-05T07:44:14.000Z</time>
      </trkpt>
      <trkpt lat="44.96184" lon="5.72043">
        <ele>777</ele>
        <time>2026-07-05T07:44:15.000Z</time>
      </trkpt>
      <trkpt lat="44.96186" lon="5.72044">
        <ele>777</ele>
        <time>2026-07-05T07:44:16.000Z</time>
      </trkpt>
      <trkpt lat="44.96188" lon="5.72045">
        <ele>777.20001220703</ele>
        <time>2026-07-05T07:44:17.000Z</time>
      </trkpt>
      <trkpt lat="44.9619" lon="5.72045">
        <ele>777.20001220703</ele>
        <time>2026-07-05T07:44:18.000Z</time>
      </trkpt>
      <trkpt lat="44.96191" lon="5.72047">
        <ele>776.20001220703</ele>
        <time>2026-07-05T07:44:19.000Z</time>
      </trkpt>
      <trkpt lat="44.96192" lon="5.72048">
        <ele>775.59997558594</ele>
        <time>2026-07-05T07:44:20.000Z</time>
      </trkpt>
      <trkpt lat="44.96193" lon="5.72049">
        <ele>775.20001220703</ele>
        <time>2026-07-05T07:44:21.000Z</time>
      </trkpt>
      <trkpt lat="44.96195" lon="5.72051">
        <ele>775.20001220703</ele>
        <time>2026-07-05T07:44:22.000Z</time>
      </trkpt>
      <trkpt lat="44.96196" lon="5.72053">
        <ele>775.20001220703</ele>
        <time>2026-07-05T07:44:23.000Z</time>
      </trkpt>
      <trkpt lat="44.96197" lon="5.72054">
        <ele>775.20001220703</ele>
        <time>2026-07-05T07:44:24.000Z</time>
      </trkpt>
      <trkpt lat="44.96197" lon="5.72057">
        <ele>775.20001220703</ele>
        <time>2026-07-05T07:44:25.000Z</time>
      </trkpt>
      <trkpt lat="44.96198" lon="5.72059">
        <ele>775.40002441406</ele>
        <time>2026-07-05T07:44:26.000Z</time>
      </trkpt>
      <trkpt lat="44.96199" lon="5.72061">
        <ele>776</ele>
        <time>2026-07-05T07:44:27.000Z</time>
      </trkpt>
      <trkpt lat="44.96199" lon="5.72064">
        <ele>776.59997558594</ele>
        <time>2026-07-05T07:44:28.000Z</time>
      </trkpt>
      <trkpt lat="44.962" lon="5.72067">
        <ele>777.20001220703</ele>
        <time>2026-07-05T07:44:29.000Z</time>
      </trkpt>
      <trkpt lat="44.962" lon="5.72069">
        <ele>778</ele>
        <time>2026-07-05T07:44:30.000Z</time>
      </trkpt>
      <trkpt lat="44.962" lon="5.72071">
        <ele>778.59997558594</ele>
        <time>2026-07-05T07:44:31.000Z</time>
      </trkpt>
      <trkpt lat="44.962" lon="5.72074">
        <ele>779.40002441406</ele>
        <time>2026-07-05T07:44:32.000Z</time>
      </trkpt>
      <trkpt lat="44.962" lon="5.72077">
        <ele>779.59997558594</ele>
        <time>2026-07-05T07:44:33.000Z</time>
      </trkpt>
      <trkpt lat="44.962" lon="5.72081">
        <ele>779.79998779297</ele>
        <time>2026-07-05T07:44:34.000Z</time>
      </trkpt>
      <trkpt lat="44.96201" lon="5.72084">
        <ele>780.20001220703</ele>
        <time>2026-07-05T07:44:35.000Z</time>
      </trkpt>
      <trkpt lat="44.96202" lon="5.72087">
        <ele>780</ele>
        <time>2026-07-05T07:44:36.000Z</time>
      </trkpt>
      <trkpt lat="44.96203" lon="5.7209">
        <ele>780</ele>
        <time>2026-07-05T07:44:37.000Z</time>
      </trkpt>
      <trkpt lat="44.96203" lon="5.72094">
        <ele>780</ele>
        <time>2026-07-05T07:44:38.000Z</time>
      </trkpt>
      <trkpt lat="44.96204" lon="5.72098">
        <ele>780</ele>
        <time>2026-07-05T07:44:39.000Z</time>
      </trkpt>
      <trkpt lat="44.96205" lon="5.72103">
        <ele>779.79998779297</ele>
        <time>2026-07-05T07:44:40.000Z</time>
      </trkpt>
      <trkpt lat="44.96205" lon="5.72107">
        <ele>779.79998779297</ele>
        <time>2026-07-05T07:44:41.000Z</time>
      </trkpt>
      <trkpt lat="44.96204" lon="5.7211">
        <ele>780.20001220703</ele>
        <time>2026-07-05T07:44:42.000Z</time>
      </trkpt>
      <trkpt lat="44.96204" lon="5.72113">
        <ele>780.40002441406</ele>
        <time>2026-07-05T07:44:43.000Z</time>
      </trkpt>
      <trkpt lat="44.96205" lon="5.72117">
        <ele>780.40002441406</ele>
        <time>2026-07-05T07:44:44.000Z</time>
      </trkpt>
      <trkpt lat="44.96205" lon="5.72121">
        <ele>780.59997558594</ele>
        <time>2026-07-05T07:44:45.000Z</time>
      </trkpt>
      <trkpt lat="44.96205" lon="5.72125">
        <ele>781</ele>
        <time>2026-07-05T07:44:46.000Z</time>
      </trkpt>
      <trkpt lat="44.96205" lon="5.72128">
        <ele>781.20001220703</ele>
        <time>2026-07-05T07:44:47.000Z</time>
      </trkpt>
      <trkpt lat="44.96205" lon="5.72133">
        <ele>781.59997558594</ele>
        <time>2026-07-05T07:44:48.000Z</time>
      </trkpt>
      <trkpt lat="44.96205" lon="5.72136">
        <ele>782</ele>
        <time>2026-07-05T07:44:49.000Z</time>
      </trkpt>
      <trkpt lat="44.96204" lon="5.72141">
        <ele>781</ele>
        <time>2026-07-05T07:44:50.000Z</time>
      </trkpt>
      <trkpt lat="44.96204" lon="5.72144">
        <ele>780.20001220703</ele>
        <time>2026-07-05T07:44:51.000Z</time>
      </trkpt>
      <trkpt lat="44.96204" lon="5.72147">
        <ele>779.79998779297</ele>
        <time>2026-07-05T07:44:52.000Z</time>
      </trkpt>
      <trkpt lat="44.96204" lon="5.72151">
        <ele>779.20001220703</ele>
        <time>2026-07-05T07:44:53.000Z</time>
      </trkpt>
      <trkpt lat="44.96204" lon="5.72154">
        <ele>778.79998779297</ele>
        <time>2026-07-05T07:44:54.000Z</time>
      </trkpt>
      <trkpt lat="44.96204" lon="5.72158">
        <ele>778.59997558594</ele>
        <time>2026-07-05T07:44:55.000Z</time>
      </trkpt>
      <trkpt lat="44.96203" lon="5.72162">
        <ele>778.40002441406</ele>
        <time>2026-07-05T07:44:56.000Z</time>
      </trkpt>
      <trkpt lat="44.96202" lon="5.72165">
        <ele>778.20001220703</ele>
        <time>2026-07-05T07:44:57.000Z</time>
      </trkpt>
      <trkpt lat="44.96202" lon="5.72169">
        <ele>778.20001220703</ele>
        <time>2026-07-05T07:44:58.000Z</time>
      </trkpt>
      <trkpt lat="44.96201" lon="5.72173">
        <ele>778</ele>
        <time>2026-07-05T07:44:59.000Z</time>
      </trkpt>
      <trkpt lat="44.962" lon="5.72176">
        <ele>777.79998779297</ele>
        <time>2026-07-05T07:45:00.000Z</time>
      </trkpt>
      <trkpt lat="44.96199" lon="5.7218">
        <ele>777.79998779297</ele>
        <time>2026-07-05T07:45:01.000Z</time>
      </trkpt>
      <trkpt lat="44.96198" lon="5.72184">
        <ele>777.40002441406</ele>
        <time>2026-07-05T07:45:02.000Z</time>
      </trkpt>
      <trkpt lat="44.96197" lon="5.72189">
        <ele>777</ele>
        <time>2026-07-05T07:45:03.000Z</time>
      </trkpt>
      <trkpt lat="44.96197" lon="5.72193">
        <ele>776.59997558594</ele>
        <time>2026-07-05T07:45:04.000Z</time>
      </trkpt>
      <trkpt lat="44.96196" lon="5.72197">
        <ele>775.79998779297</ele>
        <time>2026-07-05T07:45:05.000Z</time>
      </trkpt>
      <trkpt lat="44.96196" lon="5.72201">
        <ele>775.59997558594</ele>
        <time>2026-07-05T07:45:06.000Z</time>
      </trkpt>
      <trkpt lat="44.96196" lon="5.72205">
        <ele>775.20001220703</ele>
        <time>2026-07-05T07:45:07.000Z</time>
      </trkpt>
      <trkpt lat="44.96196" lon="5.72209">
        <ele>775</ele>
        <time>2026-07-05T07:45:08.000Z</time>
      </trkpt>
      <trkpt lat="44.96196" lon="5.72213">
        <ele>774.79998779297</ele>
        <time>2026-07-05T07:45:09.000Z</time>
      </trkpt>
      <trkpt lat="44.96196" lon="5.72217">
        <ele>774.79998779297</ele>
        <time>2026-07-05T07:45:10.000Z</time>
      </trkpt>
      <trkpt lat="44.96196" lon="5.7222">
        <ele>774.79998779297</ele>
        <time>2026-07-05T07:45:11.000Z</time>
      </trkpt>
      <trkpt lat="44.96197" lon="5.72223">
        <ele>774.79998779297</ele>
        <time>2026-07-05T07:45:12.000Z</time>
      </trkpt>
      <trkpt lat="44.96198" lon="5.72227">
        <ele>774.79998779297</ele>
        <time>2026-07-05T07:45:13.000Z</time>
      </trkpt>
      <trkpt lat="44.96199" lon="5.7223">
        <ele>774.79998779297</ele>
        <time>2026-07-05T07:45:14.000Z</time>
      </trkpt>
      <trkpt lat="44.962" lon="5.72234">
        <ele>774.59997558594</ele>
        <time>2026-07-05T07:45:15.000Z</time>
      </trkpt>
      <trkpt lat="44.96201" lon="5.72237">
        <ele>774.59997558594</ele>
        <time>2026-07-05T07:45:16.000Z</time>
      </trkpt>
      <trkpt lat="44.96202" lon="5.72241">
        <ele>774.59997558594</ele>
        <time>2026-07-05T07:45:17.000Z</time>
      </trkpt>
      <trkpt lat="44.96204" lon="5.72244">
        <ele>774.59997558594</ele>
        <time>2026-07-05T07:45:18.000Z</time>
      </trkpt>
      <trkpt lat="44.96205" lon="5.72245">
        <ele>774.79998779297</ele>
        <time>2026-07-05T07:45:19.000Z</time>
      </trkpt>
      <trkpt lat="44.96207" lon="5.72248">
        <ele>774.79998779297</ele>
        <time>2026-07-05T07:45:20.000Z</time>
      </trkpt>
      <trkpt lat="44.96208" lon="5.7225">
        <ele>775</ele>
        <time>2026-07-05T07:45:21.000Z</time>
      </trkpt>
      <trkpt lat="44.9621" lon="5.72252">
        <ele>775.20001220703</ele>
        <time>2026-07-05T07:45:22.000Z</time>
      </trkpt>
      <trkpt lat="44.96211" lon="5.72254">
        <ele>775.40002441406</ele>
        <time>2026-07-05T07:45:23.000Z</time>
      </trkpt>
      <trkpt lat="44.96212" lon="5.72257">
        <ele>775.40002441406</ele>
        <time>2026-07-05T07:45:24.000Z</time>
      </trkpt>
      <trkpt lat="44.96214" lon="5.72259">
        <ele>775.59997558594</ele>
        <time>2026-07-05T07:45:25.000Z</time>
      </trkpt>
      <trkpt lat="44.96216" lon="5.72262">
        <ele>775.79998779297</ele>
        <time>2026-07-05T07:45:26.000Z</time>
      </trkpt>
      <trkpt lat="44.96217" lon="5.72265">
        <ele>775.59997558594</ele>
        <time>2026-07-05T07:45:27.000Z</time>
      </trkpt>
      <trkpt lat="44.96219" lon="5.72268">
        <ele>775.59997558594</ele>
        <time>2026-07-05T07:45:28.000Z</time>
      </trkpt>
      <trkpt lat="44.96221" lon="5.72271">
        <ele>775.40002441406</ele>
        <time>2026-07-05T07:45:29.000Z</time>
      </trkpt>
      <trkpt lat="44.96223" lon="5.72274">
        <ele>775.20001220703</ele>
        <time>2026-07-05T07:45:30.000Z</time>
      </trkpt>
      <trkpt lat="44.96225" lon="5.72276">
        <ele>773.79998779297</ele>
        <time>2026-07-05T07:45:31.000Z</time>
      </trkpt>
      <trkpt lat="44.96227" lon="5.72278">
        <ele>772.40002441406</ele>
        <time>2026-07-05T07:45:32.000Z</time>
      </trkpt>
      <trkpt lat="44.96229" lon="5.7228">
        <ele>771</ele>
        <time>2026-07-05T07:45:33.000Z</time>
      </trkpt>
      <trkpt lat="44.96231" lon="5.72282">
        <ele>770.59997558594</ele>
        <time>2026-07-05T07:45:34.000Z</time>
      </trkpt>
      <trkpt lat="44.96233" lon="5.72285">
        <ele>769.40002441406</ele>
        <time>2026-07-05T07:45:35.000Z</time>
      </trkpt>
      <trkpt lat="44.96235" lon="5.72287">
        <ele>769.20001220703</ele>
        <time>2026-07-05T07:45:36.000Z</time>
      </trkpt>
      <trkpt lat="44.96237" lon="5.7229">
        <ele>769.20001220703</ele>
        <time>2026-07-05T07:45:37.000Z</time>
      </trkpt>
      <trkpt lat="44.96239" lon="5.72292">
        <ele>769.20001220703</ele>
        <time>2026-07-05T07:45:38.000Z</time>
      </trkpt>
      <trkpt lat="44.96241" lon="5.72294">
        <ele>769.20001220703</ele>
        <time>2026-07-05T07:45:39.000Z</time>
      </trkpt>
      <trkpt lat="44.96244" lon="5.72296">
        <ele>769.40002441406</ele>
        <time>2026-07-05T07:45:40.000Z</time>
      </trkpt>
      <trkpt lat="44.96246" lon="5.72297">
        <ele>769.79998779297</ele>
        <time>2026-07-05T07:45:41.000Z</time>
      </trkpt>
      <trkpt lat="44.96249" lon="5.72297">
        <ele>770</ele>
        <time>2026-07-05T07:45:42.000Z</time>
      </trkpt>
      <trkpt lat="44.96251" lon="5.72298">
        <ele>770.40002441406</ele>
        <time>2026-07-05T07:45:43.000Z</time>
      </trkpt>
      <trkpt lat="44.96253" lon="5.72299">
        <ele>770.59997558594</ele>
        <time>2026-07-05T07:45:44.000Z</time>
      </trkpt>
      <trkpt lat="44.96256" lon="5.723">
        <ele>771</ele>
        <time>2026-07-05T07:45:45.000Z</time>
      </trkpt>
      <trkpt lat="44.96258" lon="5.72301">
        <ele>771.40002441406</ele>
        <time>2026-07-05T07:45:46.000Z</time>
      </trkpt>
      <trkpt lat="44.9626" lon="5.72302">
        <ele>771.79998779297</ele>
        <time>2026-07-05T07:45:47.000Z</time>
      </trkpt>
      <trkpt lat="44.96263" lon="5.72303">
        <ele>771.79998779297</ele>
        <time>2026-07-05T07:45:48.000Z</time>
      </trkpt>
      <trkpt lat="44.96266" lon="5.72304">
        <ele>771.79998779297</ele>
        <time>2026-07-05T07:45:49.000Z</time>
      </trkpt>
      <trkpt lat="44.96268" lon="5.72305">
        <ele>771.59997558594</ele>
        <time>2026-07-05T07:45:50.000Z</time>
      </trkpt>
      <trkpt lat="44.96271" lon="5.72307">
        <ele>771.40002441406</ele>
        <time>2026-07-05T07:45:51.000Z</time>
      </trkpt>
      <trkpt lat="44.96273" lon="5.72308">
        <ele>771.20001220703</ele>
        <time>2026-07-05T07:45:52.000Z</time>
      </trkpt>
      <trkpt lat="44.96276" lon="5.72308">
        <ele>770.79998779297</ele>
        <time>2026-07-05T07:45:53.000Z</time>
      </trkpt>
      <trkpt lat="44.96278" lon="5.72309">
        <ele>770.20001220703</ele>
        <time>2026-07-05T07:45:54.000Z</time>
      </trkpt>
      <trkpt lat="44.96281" lon="5.7231">
        <ele>770.20001220703</ele>
        <time>2026-07-05T07:45:55.000Z</time>
      </trkpt>
      <trkpt lat="44.96282" lon="5.7231">
        <ele>770</ele>
        <time>2026-07-05T07:45:56.000Z</time>
      </trkpt>
      <trkpt lat="44.96285" lon="5.7231">
        <ele>770.20001220703</ele>
        <time>2026-07-05T07:45:57.000Z</time>
      </trkpt>
      <trkpt lat="44.96286" lon="5.72311">
        <ele>770.79998779297</ele>
        <time>2026-07-05T07:45:58.000Z</time>
      </trkpt>
      <trkpt lat="44.96288" lon="5.72312">
        <ele>771.20001220703</ele>
        <time>2026-07-05T07:45:59.000Z</time>
      </trkpt>
      <trkpt lat="44.9629" lon="5.72313">
        <ele>771.40002441406</ele>
        <time>2026-07-05T07:46:00.000Z</time>
      </trkpt>
      <trkpt lat="44.96292" lon="5.72314">
        <ele>772.20001220703</ele>
        <time>2026-07-05T07:46:01.000Z</time>
      </trkpt>
      <trkpt lat="44.96295" lon="5.72316">
        <ele>772.20001220703</ele>
        <time>2026-07-05T07:46:02.000Z</time>
      </trkpt>
      <trkpt lat="44.96297" lon="5.72318">
        <ele>772.40002441406</ele>
        <time>2026-07-05T07:46:03.000Z</time>
      </trkpt>
      <trkpt lat="44.963" lon="5.72319">
        <ele>772.59997558594</ele>
        <time>2026-07-05T07:46:04.000Z</time>
      </trkpt>
      <trkpt lat="44.96303" lon="5.72321">
        <ele>772.79998779297</ele>
        <time>2026-07-05T07:46:05.000Z</time>
      </trkpt>
      <trkpt lat="44.96306" lon="5.72323">
        <ele>772.79998779297</ele>
        <time>2026-07-05T07:46:06.000Z</time>
      </trkpt>
      <trkpt lat="44.96308" lon="5.72325">
        <ele>772.79998779297</ele>
        <time>2026-07-05T07:46:07.000Z</time>
      </trkpt>
      <trkpt lat="44.96311" lon="5.72326">
        <ele>772.79998779297</ele>
        <time>2026-07-05T07:46:08.000Z</time>
      </trkpt>
      <trkpt lat="44.96313" lon="5.72328">
        <ele>771.79998779297</ele>
        <time>2026-07-05T07:46:09.000Z</time>
      </trkpt>
      <trkpt lat="44.96315" lon="5.72331">
        <ele>770.59997558594</ele>
        <time>2026-07-05T07:46:10.000Z</time>
      </trkpt>
      <trkpt lat="44.96316" lon="5.72334">
        <ele>769.59997558594</ele>
        <time>2026-07-05T07:46:11.000Z</time>
      </trkpt>
      <trkpt lat="44.96317" lon="5.72338">
        <ele>769.20001220703</ele>
        <time>2026-07-05T07:46:12.000Z</time>
      </trkpt>
      <trkpt lat="44.96319" lon="5.72342">
        <ele>768.79998779297</ele>
        <time>2026-07-05T07:46:13.000Z</time>
      </trkpt>
      <trkpt lat="44.9632" lon="5.72346">
        <ele>768.40002441406</ele>
        <time>2026-07-05T07:46:14.000Z</time>
      </trkpt>
      <trkpt lat="44.96321" lon="5.72349">
        <ele>768</ele>
        <time>2026-07-05T07:46:15.000Z</time>
      </trkpt>
      <trkpt lat="44.96323" lon="5.72353">
        <ele>768.20001220703</ele>
        <time>2026-07-05T07:46:16.000Z</time>
      </trkpt>
      <trkpt lat="44.96324" lon="5.72357">
        <ele>768.20001220703</ele>
        <time>2026-07-05T07:46:17.000Z</time>
      </trkpt>
      <trkpt lat="44.96325" lon="5.7236">
        <ele>768.79998779297</ele>
        <time>2026-07-05T07:46:18.000Z</time>
      </trkpt>
      <trkpt lat="44.96327" lon="5.72363">
        <ele>769.40002441406</ele>
        <time>2026-07-05T07:46:19.000Z</time>
      </trkpt>
      <trkpt lat="44.96328" lon="5.72367">
        <ele>770</ele>
        <time>2026-07-05T07:46:20.000Z</time>
      </trkpt>
      <trkpt lat="44.96329" lon="5.7237">
        <ele>770</ele>
        <time>2026-07-05T07:46:21.000Z</time>
      </trkpt>
      <trkpt lat="44.96331" lon="5.72374">
        <ele>770.20001220703</ele>
        <time>2026-07-05T07:46:22.000Z</time>
      </trkpt>
      <trkpt lat="44.96332" lon="5.72377">
        <ele>770.59997558594</ele>
        <time>2026-07-05T07:46:23.000Z</time>
      </trkpt>
      <trkpt lat="44.96334" lon="5.7238">
        <ele>770.79998779297</ele>
        <time>2026-07-05T07:46:24.000Z</time>
      </trkpt>
      <trkpt lat="44.96335" lon="5.72384">
        <ele>771.40002441406</ele>
        <time>2026-07-05T07:46:25.000Z</time>
      </trkpt>
      <trkpt lat="44.96336" lon="5.72387">
        <ele>771.59997558594</ele>
        <time>2026-07-05T07:46:26.000Z</time>
      </trkpt>
      <trkpt lat="44.96337" lon="5.7239">
        <ele>771.79998779297</ele>
        <time>2026-07-05T07:46:27.000Z</time>
      </trkpt>
      <trkpt lat="44.96338" lon="5.72394">
        <ele>771.79998779297</ele>
        <time>2026-07-05T07:46:28.000Z</time>
      </trkpt>
      <trkpt lat="44.9634" lon="5.72397">
        <ele>772</ele>
        <time>2026-07-05T07:46:29.000Z</time>
      </trkpt>
      <trkpt lat="44.96341" lon="5.724">
        <ele>772</ele>
        <time>2026-07-05T07:46:30.000Z</time>
      </trkpt>
      <trkpt lat="44.96342" lon="5.72403">
        <ele>771.40002441406</ele>
        <time>2026-07-05T07:46:31.000Z</time>
      </trkpt>
      <trkpt lat="44.96343" lon="5.72406">
        <ele>770.59997558594</ele>
        <time>2026-07-05T07:46:32.000Z</time>
      </trkpt>
      <trkpt lat="44.96344" lon="5.7241">
        <ele>770</ele>
        <time>2026-07-05T07:46:33.000Z</time>
      </trkpt>
      <trkpt lat="44.96345" lon="5.72414">
        <ele>769.40002441406</ele>
        <time>2026-07-05T07:46:34.000Z</time>
      </trkpt>
      <trkpt lat="44.96345" lon="5.72417">
        <ele>768.79998779297</ele>
        <time>2026-07-05T07:46:35.000Z</time>
      </trkpt>
      <trkpt lat="44.96345" lon="5.7242">
        <ele>767.79998779297</ele>
        <time>2026-07-05T07:46:36.000Z</time>
      </trkpt>
      <trkpt lat="44.96346" lon="5.72424">
        <ele>767.59997558594</ele>
        <time>2026-07-05T07:46:37.000Z</time>
      </trkpt>
      <trkpt lat="44.96346" lon="5.72427">
        <ele>766.79998779297</ele>
        <time>2026-07-05T07:46:38.000Z</time>
      </trkpt>
      <trkpt lat="44.96347" lon="5.7243">
        <ele>766.20001220703</ele>
        <time>2026-07-05T07:46:39.000Z</time>
      </trkpt>
      <trkpt lat="44.96347" lon="5.72433">
        <ele>766</ele>
        <time>2026-07-05T07:46:40.000Z</time>
      </trkpt>
      <trkpt lat="44.96348" lon="5.72436">
        <ele>765.40002441406</ele>
        <time>2026-07-05T07:46:41.000Z</time>
      </trkpt>
      <trkpt lat="44.96349" lon="5.72439">
        <ele>764.79998779297</ele>
        <time>2026-07-05T07:46:42.000Z</time>
      </trkpt>
      <trkpt lat="44.9635" lon="5.72443">
        <ele>764.79998779297</ele>
        <time>2026-07-05T07:46:43.000Z</time>
      </trkpt>
      <trkpt lat="44.96351" lon="5.72447">
        <ele>764.79998779297</ele>
        <time>2026-07-05T07:46:44.000Z</time>
      </trkpt>
      <trkpt lat="44.96352" lon="5.72451">
        <ele>764.79998779297</ele>
        <time>2026-07-05T07:46:45.000Z</time>
      </trkpt>
      <trkpt lat="44.96353" lon="5.72454">
        <ele>764.79998779297</ele>
        <time>2026-07-05T07:46:46.000Z</time>
      </trkpt>
      <trkpt lat="44.96354" lon="5.72456">
        <ele>764.79998779297</ele>
        <time>2026-07-05T07:46:47.000Z</time>
      </trkpt>
      <trkpt lat="44.96355" lon="5.7246">
        <ele>764.79998779297</ele>
        <time>2026-07-05T07:46:48.000Z</time>
      </trkpt>
      <trkpt lat="44.96356" lon="5.72461">
        <ele>764.79998779297</ele>
        <time>2026-07-05T07:46:49.000Z</time>
      </trkpt>
      <trkpt lat="44.96357" lon="5.72463">
        <ele>764.79998779297</ele>
        <time>2026-07-05T07:46:50.000Z</time>
      </trkpt>
      <trkpt lat="44.96359" lon="5.72465">
        <ele>764</ele>
        <time>2026-07-05T07:46:51.000Z</time>
      </trkpt>
      <trkpt lat="44.96362" lon="5.72466">
        <ele>763.79998779297</ele>
        <time>2026-07-05T07:46:52.000Z</time>
      </trkpt>
      <trkpt lat="44.96365" lon="5.72467">
        <ele>763.59997558594</ele>
        <time>2026-07-05T07:46:53.000Z</time>
      </trkpt>
      <trkpt lat="44.96369" lon="5.72468">
        <ele>763</ele>
        <time>2026-07-05T07:46:54.000Z</time>
      </trkpt>
      <trkpt lat="44.96372" lon="5.72469">
        <ele>762</ele>
        <time>2026-07-05T07:46:55.000Z</time>
      </trkpt>
      <trkpt lat="44.96376" lon="5.72471">
        <ele>760.79998779297</ele>
        <time>2026-07-05T07:46:56.000Z</time>
      </trkpt>
      <trkpt lat="44.96379" lon="5.72471">
        <ele>759.79998779297</ele>
        <time>2026-07-05T07:46:57.000Z</time>
      </trkpt>
      <trkpt lat="44.96382" lon="5.72473">
        <ele>758.59997558594</ele>
        <time>2026-07-05T07:46:58.000Z</time>
      </trkpt>
      <trkpt lat="44.96384" lon="5.72474">
        <ele>755.79998779297</ele>
        <time>2026-07-05T07:46:59.000Z</time>
      </trkpt>
      <trkpt lat="44.96386" lon="5.72475">
        <ele>755.59997558594</ele>
        <time>2026-07-05T07:47:00.000Z</time>
      </trkpt>
      <trkpt lat="44.96388" lon="5.72476">
        <ele>755</ele>
        <time>2026-07-05T07:47:01.000Z</time>
      </trkpt>
      <trkpt lat="44.9639" lon="5.72477">
        <ele>754.79998779297</ele>
        <time>2026-07-05T07:47:02.000Z</time>
      </trkpt>
      <trkpt lat="44.96392" lon="5.72479">
        <ele>754.40002441406</ele>
        <time>2026-07-05T07:47:03.000Z</time>
      </trkpt>
      <trkpt lat="44.96394" lon="5.72481">
        <ele>754</ele>
        <time>2026-07-05T07:47:04.000Z</time>
      </trkpt>
      <trkpt lat="44.96396" lon="5.72483">
        <ele>753.79998779297</ele>
        <time>2026-07-05T07:47:05.000Z</time>
      </trkpt>
      <trkpt lat="44.96399" lon="5.72486">
        <ele>753.40002441406</ele>
        <time>2026-07-05T07:47:06.000Z</time>
      </trkpt>
      <trkpt lat="44.96402" lon="5.72489">
        <ele>753.20001220703</ele>
        <time>2026-07-05T07:47:07.000Z</time>
      </trkpt>
      <trkpt lat="44.96405" lon="5.72491">
        <ele>753</ele>
        <time>2026-07-05T07:47:08.000Z</time>
      </trkpt>
      <trkpt lat="44.96407" lon="5.72492">
        <ele>752.79998779297</ele>
        <time>2026-07-05T07:47:09.000Z</time>
      </trkpt>
      <trkpt lat="44.9641" lon="5.72494">
        <ele>753</ele>
        <time>2026-07-05T07:47:10.000Z</time>
      </trkpt>
      <trkpt lat="44.96413" lon="5.72495">
        <ele>752.79998779297</ele>
        <time>2026-07-05T07:47:11.000Z</time>
      </trkpt>
      <trkpt lat="44.96416" lon="5.72496">
        <ele>752.59997558594</ele>
        <time>2026-07-05T07:47:12.000Z</time>
      </trkpt>
      <trkpt lat="44.96419" lon="5.72498">
        <ele>752.20001220703</ele>
        <time>2026-07-05T07:47:13.000Z</time>
      </trkpt>
      <trkpt lat="44.96421" lon="5.72499">
        <ele>751.79998779297</ele>
        <time>2026-07-05T07:47:14.000Z</time>
      </trkpt>
      <trkpt lat="44.96424" lon="5.72499">
        <ele>751.40002441406</ele>
        <time>2026-07-05T07:47:15.000Z</time>
      </trkpt>
      <trkpt lat="44.96427" lon="5.725">
        <ele>751</ele>
        <time>2026-07-05T07:47:16.000Z</time>
      </trkpt>
      <trkpt lat="44.96429" lon="5.725">
        <ele>750.79998779297</ele>
        <time>2026-07-05T07:47:17.000Z</time>
      </trkpt>
      <trkpt lat="44.96432" lon="5.725">
        <ele>750.79998779297</ele>
        <time>2026-07-05T07:47:18.000Z</time>
      </trkpt>
      <trkpt lat="44.96435" lon="5.72502">
        <ele>750.59997558594</ele>
        <time>2026-07-05T07:47:19.000Z</time>
      </trkpt>
      <trkpt lat="44.96438" lon="5.72504">
        <ele>750.40002441406</ele>
        <time>2026-07-05T07:47:20.000Z</time>
      </trkpt>
      <trkpt lat="44.96441" lon="5.72506">
        <ele>750.40002441406</ele>
        <time>2026-07-05T07:47:21.000Z</time>
      </trkpt>
      <trkpt lat="44.96443" lon="5.72507">
        <ele>750.20001220703</ele>
        <time>2026-07-05T07:47:22.000Z</time>
      </trkpt>
      <trkpt lat="44.96445" lon="5.7251">
        <ele>750.20001220703</ele>
        <time>2026-07-05T07:47:23.000Z</time>
      </trkpt>
      <trkpt lat="44.96448" lon="5.72513">
        <ele>749.20001220703</ele>
        <time>2026-07-05T07:47:24.000Z</time>
      </trkpt>
      <trkpt lat="44.9645" lon="5.72517">
        <ele>748.40002441406</ele>
        <time>2026-07-05T07:47:25.000Z</time>
      </trkpt>
      <trkpt lat="44.96452" lon="5.72521">
        <ele>747.40002441406</ele>
        <time>2026-07-05T07:47:26.000Z</time>
      </trkpt>
      <trkpt lat="44.96454" lon="5.72524">
        <ele>746.59997558594</ele>
        <time>2026-07-05T07:47:27.000Z</time>
      </trkpt>
      <trkpt lat="44.96456" lon="5.72527">
        <ele>745.59997558594</ele>
        <time>2026-07-05T07:47:28.000Z</time>
      </trkpt>
      <trkpt lat="44.96458" lon="5.7253">
        <ele>745.40002441406</ele>
        <time>2026-07-05T07:47:29.000Z</time>
      </trkpt>
      <trkpt lat="44.9646" lon="5.72532">
        <ele>745.20001220703</ele>
        <time>2026-07-05T07:47:30.000Z</time>
      </trkpt>
      <trkpt lat="44.96462" lon="5.72534">
        <ele>745</ele>
        <time>2026-07-05T07:47:31.000Z</time>
      </trkpt>
      <trkpt lat="44.96464" lon="5.72536">
        <ele>744.59997558594</ele>
        <time>2026-07-05T07:47:32.000Z</time>
      </trkpt>
      <trkpt lat="44.96466" lon="5.72539">
        <ele>744.59997558594</ele>
        <time>2026-07-05T07:47:33.000Z</time>
      </trkpt>
      <trkpt lat="44.96468" lon="5.7254">
        <ele>743.79998779297</ele>
        <time>2026-07-05T07:47:34.000Z</time>
      </trkpt>
      <trkpt lat="44.9647" lon="5.72543">
        <ele>743.59997558594</ele>
        <time>2026-07-05T07:47:35.000Z</time>
      </trkpt>
      <trkpt lat="44.96473" lon="5.72546">
        <ele>743.40002441406</ele>
        <time>2026-07-05T07:47:36.000Z</time>
      </trkpt>
      <trkpt lat="44.96476" lon="5.72549">
        <ele>743.20001220703</ele>
        <time>2026-07-05T07:47:37.000Z</time>
      </trkpt>
      <trkpt lat="44.96478" lon="5.72552">
        <ele>742.79998779297</ele>
        <time>2026-07-05T07:47:38.000Z</time>
      </trkpt>
      <trkpt lat="44.9648" lon="5.72553">
        <ele>742.20001220703</ele>
        <time>2026-07-05T07:47:39.000Z</time>
      </trkpt>
      <trkpt lat="44.96483" lon="5.72555">
        <ele>742</ele>
        <time>2026-07-05T07:47:40.000Z</time>
      </trkpt>
      <trkpt lat="44.96485" lon="5.72555">
        <ele>742</ele>
        <time>2026-07-05T07:47:41.000Z</time>
      </trkpt>
      <trkpt lat="44.96488" lon="5.72555">
        <ele>742</ele>
        <time>2026-07-05T07:47:42.000Z</time>
      </trkpt>
      <trkpt lat="44.96491" lon="5.72553">
        <ele>742</ele>
        <time>2026-07-05T07:47:43.000Z</time>
      </trkpt>
      <trkpt lat="44.96493" lon="5.72552">
        <ele>742.40002441406</ele>
        <time>2026-07-05T07:47:44.000Z</time>
      </trkpt>
      <trkpt lat="44.96496" lon="5.72551">
        <ele>742.59997558594</ele>
        <time>2026-07-05T07:47:45.000Z</time>
      </trkpt>
      <trkpt lat="44.96498" lon="5.72552">
        <ele>742.20001220703</ele>
        <time>2026-07-05T07:47:46.000Z</time>
      </trkpt>
      <trkpt lat="44.96501" lon="5.72557">
        <ele>741.79998779297</ele>
        <time>2026-07-05T07:47:47.000Z</time>
      </trkpt>
      <trkpt lat="44.96502" lon="5.72561">
        <ele>741.40002441406</ele>
        <time>2026-07-05T07:47:48.000Z</time>
      </trkpt>
      <trkpt lat="44.96503" lon="5.72566">
        <ele>740.79998779297</ele>
        <time>2026-07-05T07:47:49.000Z</time>
      </trkpt>
      <trkpt lat="44.96504" lon="5.7257">
        <ele>740.20001220703</ele>
        <time>2026-07-05T07:47:50.000Z</time>
      </trkpt>
      <trkpt lat="44.96505" lon="5.72574">
        <ele>739.59997558594</ele>
        <time>2026-07-05T07:47:51.000Z</time>
      </trkpt>
      <trkpt lat="44.96506" lon="5.72577">
        <ele>738.40002441406</ele>
        <time>2026-07-05T07:47:52.000Z</time>
      </trkpt>
      <trkpt lat="44.96507" lon="5.7258">
        <ele>737.79998779297</ele>
        <time>2026-07-05T07:47:53.000Z</time>
      </trkpt>
      <trkpt lat="44.96508" lon="5.72583">
        <ele>737</ele>
        <time>2026-07-05T07:47:54.000Z</time>
      </trkpt>
      <trkpt lat="44.9651" lon="5.72586">
        <ele>736.40002441406</ele>
        <time>2026-07-05T07:47:55.000Z</time>
      </trkpt>
      <trkpt lat="44.96511" lon="5.72589">
        <ele>735.59997558594</ele>
        <time>2026-07-05T07:47:56.000Z</time>
      </trkpt>
      <trkpt lat="44.96512" lon="5.72592">
        <ele>735</ele>
        <time>2026-07-05T07:47:57.000Z</time>
      </trkpt>
      <trkpt lat="44.96514" lon="5.72595">
        <ele>735</ele>
        <time>2026-07-05T07:47:58.000Z</time>
      </trkpt>
      <trkpt lat="44.96516" lon="5.72598">
        <ele>735.20001220703</ele>
        <time>2026-07-05T07:47:59.000Z</time>
      </trkpt>
      <trkpt lat="44.96518" lon="5.726">
        <ele>735.20001220703</ele>
        <time>2026-07-05T07:48:00.000Z</time>
      </trkpt>
      <trkpt lat="44.9652" lon="5.72602">
        <ele>734.79998779297</ele>
        <time>2026-07-05T07:48:01.000Z</time>
      </trkpt>
      <trkpt lat="44.96522" lon="5.72604">
        <ele>734.40002441406</ele>
        <time>2026-07-05T07:48:02.000Z</time>
      </trkpt>
      <trkpt lat="44.96525" lon="5.72606">
        <ele>734.20001220703</ele>
        <time>2026-07-05T07:48:03.000Z</time>
      </trkpt>
      <trkpt lat="44.96526" lon="5.72609">
        <ele>733.79998779297</ele>
        <time>2026-07-05T07:48:04.000Z</time>
      </trkpt>
      <trkpt lat="44.96528" lon="5.72613">
        <ele>733.59997558594</ele>
        <time>2026-07-05T07:48:05.000Z</time>
      </trkpt>
      <trkpt lat="44.96528" lon="5.72618">
        <ele>733.20001220703</ele>
        <time>2026-07-05T07:48:06.000Z</time>
      </trkpt>
      <trkpt lat="44.96529" lon="5.72623">
        <ele>733</ele>
        <time>2026-07-05T07:48:07.000Z</time>
      </trkpt>
      <trkpt lat="44.96529" lon="5.72626">
        <ele>731.20001220703</ele>
        <time>2026-07-05T07:48:08.000Z</time>
      </trkpt>
      <trkpt lat="44.96528" lon="5.72629">
        <ele>731.20001220703</ele>
        <time>2026-07-05T07:48:09.000Z</time>
      </trkpt>
      <trkpt lat="44.96527" lon="5.72632">
        <ele>731.20001220703</ele>
        <time>2026-07-05T07:48:10.000Z</time>
      </trkpt>
      <trkpt lat="44.96526" lon="5.72635">
        <ele>730.79998779297</ele>
        <time>2026-07-05T07:48:11.000Z</time>
      </trkpt>
      <trkpt lat="44.96525" lon="5.72638">
        <ele>730.59997558594</ele>
        <time>2026-07-05T07:48:12.000Z</time>
      </trkpt>
      <trkpt lat="44.96524" lon="5.72642">
        <ele>730.40002441406</ele>
        <time>2026-07-05T07:48:13.000Z</time>
      </trkpt>
      <trkpt lat="44.96522" lon="5.72645">
        <ele>730.20001220703</ele>
        <time>2026-07-05T07:48:14.000Z</time>
      </trkpt>
      <trkpt lat="44.96521" lon="5.72648">
        <ele>730</ele>
        <time>2026-07-05T07:48:15.000Z</time>
      </trkpt>
      <trkpt lat="44.96519" lon="5.72651">
        <ele>730.40002441406</ele>
        <time>2026-07-05T07:48:16.000Z</time>
      </trkpt>
      <trkpt lat="44.96517" lon="5.72654">
        <ele>731.40002441406</ele>
        <time>2026-07-05T07:48:17.000Z</time>
      </trkpt>
      <trkpt lat="44.96516" lon="5.72657">
        <ele>731.40002441406</ele>
        <time>2026-07-05T07:48:18.000Z</time>
      </trkpt>
      <trkpt lat="44.96514" lon="5.72659">
        <ele>731.40002441406</ele>
        <time>2026-07-05T07:48:19.000Z</time>
      </trkpt>
      <trkpt lat="44.96512" lon="5.72662">
        <ele>731.40002441406</ele>
        <time>2026-07-05T07:48:20.000Z</time>
      </trkpt>
      <trkpt lat="44.96511" lon="5.72664">
        <ele>731.79998779297</ele>
        <time>2026-07-05T07:48:21.000Z</time>
      </trkpt>
      <trkpt lat="44.96509" lon="5.72667">
        <ele>731.59997558594</ele>
        <time>2026-07-05T07:48:22.000Z</time>
      </trkpt>
      <trkpt lat="44.96506" lon="5.72669">
        <ele>731.59997558594</ele>
        <time>2026-07-05T07:48:23.000Z</time>
      </trkpt>
      <trkpt lat="44.96504" lon="5.72672">
        <ele>731.59997558594</ele>
        <time>2026-07-05T07:48:24.000Z</time>
      </trkpt>
      <trkpt lat="44.96502" lon="5.72674">
        <ele>731.40002441406</ele>
        <time>2026-07-05T07:48:25.000Z</time>
      </trkpt>
      <trkpt lat="44.965" lon="5.72675">
        <ele>731.40002441406</ele>
        <time>2026-07-05T07:48:26.000Z</time>
      </trkpt>
      <trkpt lat="44.96497" lon="5.72677">
        <ele>731.40002441406</ele>
        <time>2026-07-05T07:48:27.000Z</time>
      </trkpt>
      <trkpt lat="44.96495" lon="5.72679">
        <ele>731.20001220703</ele>
        <time>2026-07-05T07:48:28.000Z</time>
      </trkpt>
      <trkpt lat="44.96492" lon="5.72681">
        <ele>731.40002441406</ele>
        <time>2026-07-05T07:48:29.000Z</time>
      </trkpt>
      <trkpt lat="44.96489" lon="5.72683">
        <ele>731.59997558594</ele>
        <time>2026-07-05T07:48:30.000Z</time>
      </trkpt>
      <trkpt lat="44.96487" lon="5.72684">
        <ele>731.79998779297</ele>
        <time>2026-07-05T07:48:31.000Z</time>
      </trkpt>
      <trkpt lat="44.96484" lon="5.72685">
        <ele>732</ele>
        <time>2026-07-05T07:48:32.000Z</time>
      </trkpt>
      <trkpt lat="44.96482" lon="5.72686">
        <ele>732.40002441406</ele>
        <time>2026-07-05T07:48:33.000Z</time>
      </trkpt>
      <trkpt lat="44.96479" lon="5.72686">
        <ele>733.20001220703</ele>
        <time>2026-07-05T07:48:34.000Z</time>
      </trkpt>
      <trkpt lat="44.96477" lon="5.72686">
        <ele>733.40002441406</ele>
        <time>2026-07-05T07:48:35.000Z</time>
      </trkpt>
      <trkpt lat="44.96475" lon="5.72686">
        <ele>734.20001220703</ele>
        <time>2026-07-05T07:48:36.000Z</time>
      </trkpt>
      <trkpt lat="44.96473" lon="5.72685">
        <ele>734.79998779297</ele>
        <time>2026-07-05T07:48:37.000Z</time>
      </trkpt>
      <trkpt lat="44.9647" lon="5.72684">
        <ele>735.20001220703</ele>
        <time>2026-07-05T07:48:38.000Z</time>
      </trkpt>
      <trkpt lat="44.96468" lon="5.72684">
        <ele>735.79998779297</ele>
        <time>2026-07-05T07:48:39.000Z</time>
      </trkpt>
      <trkpt lat="44.96465" lon="5.72683">
        <ele>736.59997558594</ele>
        <time>2026-07-05T07:48:40.000Z</time>
      </trkpt>
      <trkpt lat="44.96463" lon="5.72682">
        <ele>737.79998779297</ele>
        <time>2026-07-05T07:48:41.000Z</time>
      </trkpt>
      <trkpt lat="44.96461" lon="5.72681">
        <ele>739</ele>
        <time>2026-07-05T07:48:42.000Z</time>
      </trkpt>
      <trkpt lat="44.96459" lon="5.7268">
        <ele>739.79998779297</ele>
        <time>2026-07-05T07:48:43.000Z</time>
      </trkpt>
      <trkpt lat="44.96458" lon="5.72679">
        <ele>740</ele>
        <time>2026-07-05T07:48:44.000Z</time>
      </trkpt>
      <trkpt lat="44.96456" lon="5.72679">
        <ele>740</ele>
        <time>2026-07-05T07:48:45.000Z</time>
      </trkpt>
      <trkpt lat="44.96454" lon="5.72678">
        <ele>740.20001220703</ele>
        <time>2026-07-05T07:48:46.000Z</time>
      </trkpt>
      <trkpt lat="44.96452" lon="5.72677">
        <ele>740.40002441406</ele>
        <time>2026-07-05T07:48:47.000Z</time>
      </trkpt>
      <trkpt lat="44.9645" lon="5.72677">
        <ele>740.59997558594</ele>
        <time>2026-07-05T07:48:48.000Z</time>
      </trkpt>
      <trkpt lat="44.96448" lon="5.72676">
        <ele>740.79998779297</ele>
        <time>2026-07-05T07:48:49.000Z</time>
      </trkpt>
      <trkpt lat="44.96446" lon="5.72676">
        <ele>740.79998779297</ele>
        <time>2026-07-05T07:48:50.000Z</time>
      </trkpt>
      <trkpt lat="44.96445" lon="5.72675">
        <ele>741</ele>
        <time>2026-07-05T07:48:51.000Z</time>
      </trkpt>
      <trkpt lat="44.96443" lon="5.72674">
        <ele>741.40002441406</ele>
        <time>2026-07-05T07:48:52.000Z</time>
      </trkpt>
      <trkpt lat="44.96441" lon="5.72673">
        <ele>742</ele>
        <time>2026-07-05T07:48:53.000Z</time>
      </trkpt>
      <trkpt lat="44.9644" lon="5.72672">
        <ele>742.40002441406</ele>
        <time>2026-07-05T07:48:54.000Z</time>
      </trkpt>
      <trkpt lat="44.96438" lon="5.72671">
        <ele>742.79998779297</ele>
        <time>2026-07-05T07:48:55.000Z</time>
      </trkpt>
      <trkpt lat="44.96437" lon="5.7267">
        <ele>743.79998779297</ele>
        <time>2026-07-05T07:48:56.000Z</time>
      </trkpt>
      <trkpt lat="44.96435" lon="5.72669">
        <ele>744.20001220703</ele>
        <time>2026-07-05T07:48:57.000Z</time>
      </trkpt>
      <trkpt lat="44.96433" lon="5.72668">
        <ele>744.20001220703</ele>
        <time>2026-07-05T07:48:58.000Z</time>
      </trkpt>
      <trkpt lat="44.96431" lon="5.72667">
        <ele>744.40002441406</ele>
        <time>2026-07-05T07:48:59.000Z</time>
      </trkpt>
      <trkpt lat="44.9643" lon="5.72666">
        <ele>744.59997558594</ele>
        <time>2026-07-05T07:49:00.000Z</time>
      </trkpt>
      <trkpt lat="44.96428" lon="5.72665">
        <ele>744.59997558594</ele>
        <time>2026-07-05T07:49:01.000Z</time>
      </trkpt>
      <trkpt lat="44.96426" lon="5.72665">
        <ele>744.79998779297</ele>
        <time>2026-07-05T07:49:02.000Z</time>
      </trkpt>
      <trkpt lat="44.96425" lon="5.72665">
        <ele>744.79998779297</ele>
        <time>2026-07-05T07:49:03.000Z</time>
      </trkpt>
      <trkpt lat="44.96424" lon="5.72664">
        <ele>745</ele>
        <time>2026-07-05T07:49:04.000Z</time>
      </trkpt>
      <trkpt lat="44.96423" lon="5.72664">
        <ele>745.20001220703</ele>
        <time>2026-07-05T07:49:05.000Z</time>
      </trkpt>
      <trkpt lat="44.96421" lon="5.72662">
        <ele>745.79998779297</ele>
        <time>2026-07-05T07:49:06.000Z</time>
      </trkpt>
      <trkpt lat="44.96419" lon="5.72662">
        <ele>746.20001220703</ele>
        <time>2026-07-05T07:49:07.000Z</time>
      </trkpt>
      <trkpt lat="44.96418" lon="5.72661">
        <ele>746.40002441406</ele>
        <time>2026-07-05T07:49:08.000Z</time>
      </trkpt>
      <trkpt lat="44.96416" lon="5.72661">
        <ele>746.79998779297</ele>
        <time>2026-07-05T07:49:09.000Z</time>
      </trkpt>
      <trkpt lat="44.96415" lon="5.72661">
        <ele>747.20001220703</ele>
        <time>2026-07-05T07:49:10.000Z</time>
      </trkpt>
      <trkpt lat="44.96414" lon="5.72661">
        <ele>747.79998779297</ele>
        <time>2026-07-05T07:49:11.000Z</time>
      </trkpt>
      <trkpt lat="44.96412" lon="5.72661">
        <ele>748</ele>
        <time>2026-07-05T07:49:12.000Z</time>
      </trkpt>
      <trkpt lat="44.9641" lon="5.72662">
        <ele>748.20001220703</ele>
        <time>2026-07-05T07:49:13.000Z</time>
      </trkpt>
      <trkpt lat="44.96409" lon="5.72662">
        <ele>748.20001220703</ele>
        <time>2026-07-05T07:49:14.000Z</time>
      </trkpt>
      <trkpt lat="44.96407" lon="5.72662">
        <ele>748.20001220703</ele>
        <time>2026-07-05T07:49:15.000Z</time>
      </trkpt>
      <trkpt lat="44.96406" lon="5.72662">
        <ele>748.59997558594</ele>
        <time>2026-07-05T07:49:16.000Z</time>
      </trkpt>
      <trkpt lat="44.96404" lon="5.72661">
        <ele>749</ele>
        <time>2026-07-05T07:49:17.000Z</time>
      </trkpt>
      <trkpt lat="44.96402" lon="5.72661">
        <ele>749.20001220703</ele>
        <time>2026-07-05T07:49:18.000Z</time>
      </trkpt>
      <trkpt lat="44.96401" lon="5.72661">
        <ele>749.40002441406</ele>
        <time>2026-07-05T07:49:19.000Z</time>
      </trkpt>
      <trkpt lat="44.96399" lon="5.7266">
        <ele>749.79998779297</ele>
        <time>2026-07-05T07:49:20.000Z</time>
      </trkpt>
      <trkpt lat="44.96397" lon="5.7266">
        <ele>750</ele>
        <time>2026-07-05T07:49:21.000Z</time>
      </trkpt>
      <trkpt lat="44.96396" lon="5.7266">
        <ele>750.20001220703</ele>
        <time>2026-07-05T07:49:22.000Z</time>
      </trkpt>
      <trkpt lat="44.96395" lon="5.7266">
        <ele>750.20001220703</ele>
        <time>2026-07-05T07:49:23.000Z</time>
      </trkpt>
      <trkpt lat="44.96393" lon="5.72659">
        <ele>750.40002441406</ele>
        <time>2026-07-05T07:49:24.000Z</time>
      </trkpt>
      <trkpt lat="44.96391" lon="5.72659">
        <ele>750.59997558594</ele>
        <time>2026-07-05T07:49:25.000Z</time>
      </trkpt>
      <trkpt lat="44.9639" lon="5.72659">
        <ele>750.79998779297</ele>
        <time>2026-07-05T07:49:26.000Z</time>
      </trkpt>
      <trkpt lat="44.96388" lon="5.72659">
        <ele>751</ele>
        <time>2026-07-05T07:49:27.000Z</time>
      </trkpt>
      <trkpt lat="44.96386" lon="5.7266">
        <ele>751.40002441406</ele>
        <time>2026-07-05T07:49:28.000Z</time>
      </trkpt>
      <trkpt lat="44.96385" lon="5.7266">
        <ele>751.40002441406</ele>
        <time>2026-07-05T07:49:29.000Z</time>
      </trkpt>
      <trkpt lat="44.96383" lon="5.72659">
        <ele>751.59997558594</ele>
        <time>2026-07-05T07:49:30.000Z</time>
      </trkpt>
      <trkpt lat="44.96381" lon="5.72659">
        <ele>751.59997558594</ele>
        <time>2026-07-05T07:49:31.000Z</time>
      </trkpt>
      <trkpt lat="44.9638" lon="5.72659">
        <ele>751.59997558594</ele>
        <time>2026-07-05T07:49:32.000Z</time>
      </trkpt>
      <trkpt lat="44.96378" lon="5.72659">
        <ele>751.59997558594</ele>
        <time>2026-07-05T07:49:33.000Z</time>
      </trkpt>
      <trkpt lat="44.96376" lon="5.72658">
        <ele>751.59997558594</ele>
        <time>2026-07-05T07:49:34.000Z</time>
      </trkpt>
      <trkpt lat="44.96375" lon="5.72658">
        <ele>751.59997558594</ele>
        <time>2026-07-05T07:49:35.000Z</time>
      </trkpt>
      <trkpt lat="44.96373" lon="5.72658">
        <ele>751.59997558594</ele>
        <time>2026-07-05T07:49:36.000Z</time>
      </trkpt>
      <trkpt lat="44.96372" lon="5.72657">
        <ele>751.59997558594</ele>
        <time>2026-07-05T07:49:37.000Z</time>
      </trkpt>
      <trkpt lat="44.9637" lon="5.72656">
        <ele>751.79998779297</ele>
        <time>2026-07-05T07:49:38.000Z</time>
      </trkpt>
      <trkpt lat="44.96368" lon="5.72655">
        <ele>751.79998779297</ele>
        <time>2026-07-05T07:49:39.000Z</time>
      </trkpt>
      <trkpt lat="44.96366" lon="5.72654">
        <ele>752</ele>
        <time>2026-07-05T07:49:40.000Z</time>
      </trkpt>
      <trkpt lat="44.96364" lon="5.72653">
        <ele>752.20001220703</ele>
        <time>2026-07-05T07:49:41.000Z</time>
      </trkpt>
      <trkpt lat="44.96362" lon="5.72652">
        <ele>752.40002441406</ele>
        <time>2026-07-05T07:49:42.000Z</time>
      </trkpt>
      <trkpt lat="44.9636" lon="5.72652">
        <ele>752.59997558594</ele>
        <time>2026-07-05T07:49:43.000Z</time>
      </trkpt>
      <trkpt lat="44.96358" lon="5.72651">
        <ele>753</ele>
        <time>2026-07-05T07:49:44.000Z</time>
      </trkpt>
      <trkpt lat="44.96356" lon="5.72651">
        <ele>752.40002441406</ele>
        <time>2026-07-05T07:49:45.000Z</time>
      </trkpt>
      <trkpt lat="44.96354" lon="5.7265">
        <ele>751.59997558594</ele>
        <time>2026-07-05T07:49:46.000Z</time>
      </trkpt>
      <trkpt lat="44.96351" lon="5.7265">
        <ele>751</ele>
        <time>2026-07-05T07:49:47.000Z</time>
      </trkpt>
      <trkpt lat="44.96349" lon="5.72649">
        <ele>748.59997558594</ele>
        <time>2026-07-05T07:49:48.000Z</time>
      </trkpt>
      <trkpt lat="44.96347" lon="5.72649">
        <ele>746.20001220703</ele>
        <time>2026-07-05T07:49:49.000Z</time>
      </trkpt>
      <trkpt lat="44.96345" lon="5.72648">
        <ele>746.20001220703</ele>
        <time>2026-07-05T07:49:50.000Z</time>
      </trkpt>
      <trkpt lat="44.96343" lon="5.72648">
        <ele>746.40002441406</ele>
        <time>2026-07-05T07:49:51.000Z</time>
      </trkpt>
      <trkpt lat="44.96341" lon="5.72648">
        <ele>746.59997558594</ele>
        <time>2026-07-05T07:49:52.000Z</time>
      </trkpt>
      <trkpt lat="44.96339" lon="5.72648">
        <ele>746.79998779297</ele>
        <time>2026-07-05T07:49:53.000Z</time>
      </trkpt>
      <trkpt lat="44.96337" lon="5.72648">
        <ele>747.20001220703</ele>
        <time>2026-07-05T07:49:54.000Z</time>
      </trkpt>
      <trkpt lat="44.96335" lon="5.72648">
        <ele>747.59997558594</ele>
        <time>2026-07-05T07:49:55.000Z</time>
      </trkpt>
      <trkpt lat="44.96333" lon="5.72649">
        <ele>747.79998779297</ele>
        <time>2026-07-05T07:49:56.000Z</time>
      </trkpt>
      <trkpt lat="44.96331" lon="5.7265">
        <ele>748</ele>
        <time>2026-07-05T07:49:57.000Z</time>
      </trkpt>
      <trkpt lat="44.96329" lon="5.72651">
        <ele>748.20001220703</ele>
        <time>2026-07-05T07:49:58.000Z</time>
      </trkpt>
      <trkpt lat="44.96327" lon="5.72652">
        <ele>748.20001220703</ele>
        <time>2026-07-05T07:49:59.000Z</time>
      </trkpt>
      <trkpt lat="44.96325" lon="5.72653">
        <ele>748.40002441406</ele>
        <time>2026-07-05T07:50:00.000Z</time>
      </trkpt>
      <trkpt lat="44.96323" lon="5.72654">
        <ele>748.40002441406</ele>
        <time>2026-07-05T07:50:01.000Z</time>
      </trkpt>
      <trkpt lat="44.96321" lon="5.72655">
        <ele>748.59997558594</ele>
        <time>2026-07-05T07:50:02.000Z</time>
      </trkpt>
      <trkpt lat="44.96319" lon="5.72656">
        <ele>748.79998779297</ele>
        <time>2026-07-05T07:50:03.000Z</time>
      </trkpt>
      <trkpt lat="44.96317" lon="5.72658">
        <ele>749</ele>
        <time>2026-07-05T07:50:04.000Z</time>
      </trkpt>
      <trkpt lat="44.96316" lon="5.72659">
        <ele>749.20001220703</ele>
        <time>2026-07-05T07:50:05.000Z</time>
      </trkpt>
      <trkpt lat="44.96314" lon="5.7266">
        <ele>749.40002441406</ele>
        <time>2026-07-05T07:50:06.000Z</time>
      </trkpt>
      <trkpt lat="44.96312" lon="5.72661">
        <ele>749.79998779297</ele>
        <time>2026-07-05T07:50:07.000Z</time>
      </trkpt>
      <trkpt lat="44.96311" lon="5.72663">
        <ele>750</ele>
        <time>2026-07-05T07:50:08.000Z</time>
      </trkpt>
      <trkpt lat="44.9631" lon="5.72664">
        <ele>750.40002441406</ele>
        <time>2026-07-05T07:50:09.000Z</time>
      </trkpt>
      <trkpt lat="44.96308" lon="5.72665">
        <ele>750.59997558594</ele>
        <time>2026-07-05T07:50:10.000Z</time>
      </trkpt>
      <trkpt lat="44.96307" lon="5.72667">
        <ele>750.79998779297</ele>
        <time>2026-07-05T07:50:11.000Z</time>
      </trkpt>
      <trkpt lat="44.96306" lon="5.72669">
        <ele>751</ele>
        <time>2026-07-05T07:50:12.000Z</time>
      </trkpt>
      <trkpt lat="44.96305" lon="5.72671">
        <ele>751</ele>
        <time>2026-07-05T07:50:13.000Z</time>
      </trkpt>
      <trkpt lat="44.96304" lon="5.72672">
        <ele>751.20001220703</ele>
        <time>2026-07-05T07:50:14.000Z</time>
      </trkpt>
      <trkpt lat="44.96303" lon="5.72675">
        <ele>751.40002441406</ele>
        <time>2026-07-05T07:50:15.000Z</time>
      </trkpt>
      <trkpt lat="44.96303" lon="5.72677">
        <ele>751.40002441406</ele>
        <time>2026-07-05T07:50:16.000Z</time>
      </trkpt>
      <trkpt lat="44.96302" lon="5.72678">
        <ele>751.59997558594</ele>
        <time>2026-07-05T07:50:17.000Z</time>
      </trkpt>
      <trkpt lat="44.96302" lon="5.72681">
        <ele>751.79998779297</ele>
        <time>2026-07-05T07:50:18.000Z</time>
      </trkpt>
      <trkpt lat="44.96301" lon="5.72683">
        <ele>752.20001220703</ele>
        <time>2026-07-05T07:50:19.000Z</time>
      </trkpt>
      <trkpt lat="44.96301" lon="5.72685">
        <ele>752.59997558594</ele>
        <time>2026-07-05T07:50:20.000Z</time>
      </trkpt>
      <trkpt lat="44.963" lon="5.72688">
        <ele>753</ele>
        <time>2026-07-05T07:50:21.000Z</time>
      </trkpt>
      <trkpt lat="44.963" lon="5.7269">
        <ele>753.40002441406</ele>
        <time>2026-07-05T07:50:22.000Z</time>
      </trkpt>
      <trkpt lat="44.96299" lon="5.72693">
        <ele>753.59997558594</ele>
        <time>2026-07-05T07:50:23.000Z</time>
      </trkpt>
      <trkpt lat="44.96298" lon="5.72695">
        <ele>754</ele>
        <time>2026-07-05T07:50:24.000Z</time>
      </trkpt>
      <trkpt lat="44.96297" lon="5.72697">
        <ele>754.20001220703</ele>
        <time>2026-07-05T07:50:25.000Z</time>
      </trkpt>
      <trkpt lat="44.96295" lon="5.72699">
        <ele>754.40002441406</ele>
        <time>2026-07-05T07:50:26.000Z</time>
      </trkpt>
      <trkpt lat="44.96293" lon="5.72699">
        <ele>754.40002441406</ele>
        <time>2026-07-05T07:50:27.000Z</time>
      </trkpt>
      <trkpt lat="44.96291" lon="5.72699">
        <ele>754.59997558594</ele>
        <time>2026-07-05T07:50:28.000Z</time>
      </trkpt>
      <trkpt lat="44.96289" lon="5.72698">
        <ele>754.59997558594</ele>
        <time>2026-07-05T07:50:29.000Z</time>
      </trkpt>
      <trkpt lat="44.96286" lon="5.72696">
        <ele>754.40002441406</ele>
        <time>2026-07-05T07:50:30.000Z</time>
      </trkpt>
      <trkpt lat="44.96285" lon="5.72695">
        <ele>754.40002441406</ele>
        <time>2026-07-05T07:50:31.000Z</time>
      </trkpt>
      <trkpt lat="44.96283" lon="5.72693">
        <ele>754.40002441406</ele>
        <time>2026-07-05T07:50:32.000Z</time>
      </trkpt>
      <trkpt lat="44.96281" lon="5.7269">
        <ele>754.40002441406</ele>
        <time>2026-07-05T07:50:33.000Z</time>
      </trkpt>
      <trkpt lat="44.96279" lon="5.72688">
        <ele>754.40002441406</ele>
        <time>2026-07-05T07:50:34.000Z</time>
      </trkpt>
      <trkpt lat="44.96277" lon="5.72687">
        <ele>754.59997558594</ele>
        <time>2026-07-05T07:50:35.000Z</time>
      </trkpt>
      <trkpt lat="44.96275" lon="5.72686">
        <ele>754.79998779297</ele>
        <time>2026-07-05T07:50:36.000Z</time>
      </trkpt>
      <trkpt lat="44.96273" lon="5.72683">
        <ele>754.79998779297</ele>
        <time>2026-07-05T07:50:37.000Z</time>
      </trkpt>
      <trkpt lat="44.96272" lon="5.72681">
        <ele>754.79998779297</ele>
        <time>2026-07-05T07:50:38.000Z</time>
      </trkpt>
      <trkpt lat="44.96272" lon="5.72678">
        <ele>754.79998779297</ele>
        <time>2026-07-05T07:50:39.000Z</time>
      </trkpt>
      <trkpt lat="44.96271" lon="5.72677">
        <ele>754.79998779297</ele>
        <time>2026-07-05T07:50:40.000Z</time>
      </trkpt>
      <trkpt lat="44.96271" lon="5.72677">
        <ele>754.79998779297</ele>
        <time>2026-07-05T07:50:41.000Z</time>
      </trkpt>
      <trkpt lat="44.96271" lon="5.72677">
        <ele>754.59997558594</ele>
        <time>2026-07-05T07:50:42.000Z</time>
      </trkpt>
      <trkpt lat="44.96271" lon="5.72677">
        <ele>754.59997558594</ele>
        <time>2026-07-05T07:50:43.000Z</time>
      </trkpt>
      <trkpt lat="44.96271" lon="5.72677">
        <ele>754.59997558594</ele>
        <time>2026-07-05T07:50:44.000Z</time>
      </trkpt>
      <trkpt lat="44.96271" lon="5.72677">
        <ele>754.59997558594</ele>
        <time>2026-07-05T07:50:45.000Z</time>
      </trkpt>
      <trkpt lat="44.96271" lon="5.72677">
        <ele>754.59997558594</ele>
        <time>2026-07-05T07:50:46.000Z</time>
      </trkpt>
      <trkpt lat="44.96271" lon="5.72679">
        <ele>754.59997558594</ele>
        <time>2026-07-05T07:50:47.000Z</time>
      </trkpt>
      <trkpt lat="44.96269" lon="5.7268">
        <ele>754.59997558594</ele>
        <time>2026-07-05T07:50:48.000Z</time>
      </trkpt>
      <trkpt lat="44.96267" lon="5.72679">
        <ele>754.59997558594</ele>
        <time>2026-07-05T07:50:49.000Z</time>
      </trkpt>
      <trkpt lat="44.96264" lon="5.72677">
        <ele>754.79998779297</ele>
        <time>2026-07-05T07:50:50.000Z</time>
      </trkpt>
      <trkpt lat="44.96262" lon="5.72676">
        <ele>754.79998779297</ele>
        <time>2026-07-05T07:50:51.000Z</time>
      </trkpt>
      <trkpt lat="44.9626" lon="5.72674">
        <ele>755</ele>
        <time>2026-07-05T07:50:52.000Z</time>
      </trkpt>
      <trkpt lat="44.96257" lon="5.72672">
        <ele>755</ele>
        <time>2026-07-05T07:50:53.000Z</time>
      </trkpt>
      <trkpt lat="44.96255" lon="5.72671">
        <ele>755.20001220703</ele>
        <time>2026-07-05T07:50:54.000Z</time>
      </trkpt>
      <trkpt lat="44.96252" lon="5.72669">
        <ele>755</ele>
        <time>2026-07-05T07:50:55.000Z</time>
      </trkpt>
      <trkpt lat="44.9625" lon="5.72668">
        <ele>754.79998779297</ele>
        <time>2026-07-05T07:50:56.000Z</time>
      </trkpt>
      <trkpt lat="44.96247" lon="5.72667">
        <ele>754.59997558594</ele>
        <time>2026-07-05T07:50:57.000Z</time>
      </trkpt>
      <trkpt lat="44.96245" lon="5.72666">
        <ele>754.40002441406</ele>
        <time>2026-07-05T07:50:58.000Z</time>
      </trkpt>
      <trkpt lat="44.96242" lon="5.72664">
        <ele>754.20001220703</ele>
        <time>2026-07-05T07:50:59.000Z</time>
      </trkpt>
      <trkpt lat="44.96239" lon="5.72663">
        <ele>754</ele>
        <time>2026-07-05T07:51:00.000Z</time>
      </trkpt>
      <trkpt lat="44.96236" lon="5.72662">
        <ele>753.79998779297</ele>
        <time>2026-07-05T07:51:01.000Z</time>
      </trkpt>
      <trkpt lat="44.96233" lon="5.72661">
        <ele>753.59997558594</ele>
        <time>2026-07-05T07:51:02.000Z</time>
      </trkpt>
      <trkpt lat="44.9623" lon="5.7266">
        <ele>753.40002441406</ele>
        <time>2026-07-05T07:51:03.000Z</time>
      </trkpt>
      <trkpt lat="44.96227" lon="5.72659">
        <ele>753.20001220703</ele>
        <time>2026-07-05T07:51:04.000Z</time>
      </trkpt>
      <trkpt lat="44.96225" lon="5.72658">
        <ele>753</ele>
        <time>2026-07-05T07:51:05.000Z</time>
      </trkpt>
      <trkpt lat="44.96222" lon="5.72657">
        <ele>752.79998779297</ele>
        <time>2026-07-05T07:51:06.000Z</time>
      </trkpt>
      <trkpt lat="44.96219" lon="5.72656">
        <ele>752.59997558594</ele>
        <time>2026-07-05T07:51:07.000Z</time>
      </trkpt>
      <trkpt lat="44.96216" lon="5.72655">
        <ele>752.40002441406</ele>
        <time>2026-07-05T07:51:08.000Z</time>
      </trkpt>
      <trkpt lat="44.96213" lon="5.72654">
        <ele>752</ele>
        <time>2026-07-05T07:51:09.000Z</time>
      </trkpt>
      <trkpt lat="44.96211" lon="5.72653">
        <ele>751.79998779297</ele>
        <time>2026-07-05T07:51:10.000Z</time>
      </trkpt>
      <trkpt lat="44.96208" lon="5.72652">
        <ele>751.79998779297</ele>
        <time>2026-07-05T07:51:11.000Z</time>
      </trkpt>
      <trkpt lat="44.96206" lon="5.72651">
        <ele>751.59997558594</ele>
        <time>2026-07-05T07:51:12.000Z</time>
      </trkpt>
      <trkpt lat="44.96203" lon="5.72649">
        <ele>751.40002441406</ele>
        <time>2026-07-05T07:51:13.000Z</time>
      </trkpt>
      <trkpt lat="44.962" lon="5.72648">
        <ele>751.20001220703</ele>
        <time>2026-07-05T07:51:14.000Z</time>
      </trkpt>
      <trkpt lat="44.96197" lon="5.72646">
        <ele>751</ele>
        <time>2026-07-05T07:51:15.000Z</time>
      </trkpt>
      <trkpt lat="44.96194" lon="5.72644">
        <ele>750.79998779297</ele>
        <time>2026-07-05T07:51:16.000Z</time>
      </trkpt>
      <trkpt lat="44.96191" lon="5.72643">
        <ele>750.40002441406</ele>
        <time>2026-07-05T07:51:17.000Z</time>
      </trkpt>
      <trkpt lat="44.96187" lon="5.72641">
        <ele>750.20001220703</ele>
        <time>2026-07-05T07:51:18.000Z</time>
      </trkpt>
      <trkpt lat="44.96185" lon="5.7264">
        <ele>750.20001220703</ele>
        <time>2026-07-05T07:51:19.000Z</time>
      </trkpt>
      <trkpt lat="44.96182" lon="5.72638">
        <ele>750</ele>
        <time>2026-07-05T07:51:20.000Z</time>
      </trkpt>
      <trkpt lat="44.96179" lon="5.72637">
        <ele>749.79998779297</ele>
        <time>2026-07-05T07:51:21.000Z</time>
      </trkpt>
      <trkpt lat="44.96176" lon="5.72636">
        <ele>749.40002441406</ele>
        <time>2026-07-05T07:51:22.000Z</time>
      </trkpt>
      <trkpt lat="44.96173" lon="5.72634">
        <ele>749.20001220703</ele>
        <time>2026-07-05T07:51:23.000Z</time>
      </trkpt>
      <trkpt lat="44.9617" lon="5.72633">
        <ele>748.79998779297</ele>
        <time>2026-07-05T07:51:24.000Z</time>
      </trkpt>
      <trkpt lat="44.96167" lon="5.72632">
        <ele>748.59997558594</ele>
        <time>2026-07-05T07:51:25.000Z</time>
      </trkpt>
      <trkpt lat="44.96164" lon="5.72631">
        <ele>748.20001220703</ele>
        <time>2026-07-05T07:51:26.000Z</time>
      </trkpt>
      <trkpt lat="44.96161" lon="5.72629">
        <ele>748.20001220703</ele>
        <time>2026-07-05T07:51:27.000Z</time>
      </trkpt>
      <trkpt lat="44.96158" lon="5.72627">
        <ele>747.79998779297</ele>
        <time>2026-07-05T07:51:28.000Z</time>
      </trkpt>
      <trkpt lat="44.96155" lon="5.72626">
        <ele>747.59997558594</ele>
        <time>2026-07-05T07:51:29.000Z</time>
      </trkpt>
      <trkpt lat="44.96152" lon="5.72625">
        <ele>747.59997558594</ele>
        <time>2026-07-05T07:51:30.000Z</time>
      </trkpt>
      <trkpt lat="44.96149" lon="5.72623">
        <ele>747.40002441406</ele>
        <time>2026-07-05T07:51:31.000Z</time>
      </trkpt>
      <trkpt lat="44.96146" lon="5.72621">
        <ele>747.20001220703</ele>
        <time>2026-07-05T07:51:32.000Z</time>
      </trkpt>
      <trkpt lat="44.96144" lon="5.7262">
        <ele>747</ele>
        <time>2026-07-05T07:51:33.000Z</time>
      </trkpt>
      <trkpt lat="44.9614" lon="5.72618">
        <ele>746.79998779297</ele>
        <time>2026-07-05T07:51:34.000Z</time>
      </trkpt>
      <trkpt lat="44.96138" lon="5.72617">
        <ele>746.79998779297</ele>
        <time>2026-07-05T07:51:35.000Z</time>
      </trkpt>
      <trkpt lat="44.96135" lon="5.72615">
        <ele>746.40002441406</ele>
        <time>2026-07-05T07:51:36.000Z</time>
      </trkpt>
      <trkpt lat="44.96132" lon="5.72613">
        <ele>746.20001220703</ele>
        <time>2026-07-05T07:51:37.000Z</time>
      </trkpt>
      <trkpt lat="44.96129" lon="5.72611">
        <ele>746.20001220703</ele>
        <time>2026-07-05T07:51:38.000Z</time>
      </trkpt>
      <trkpt lat="44.96126" lon="5.72609">
        <ele>745.79998779297</ele>
        <time>2026-07-05T07:51:39.000Z</time>
      </trkpt>
      <trkpt lat="44.96124" lon="5.72607">
        <ele>745.59997558594</ele>
        <time>2026-07-05T07:51:40.000Z</time>
      </trkpt>
      <trkpt lat="44.96121" lon="5.72605">
        <ele>745.59997558594</ele>
        <time>2026-07-05T07:51:41.000Z</time>
      </trkpt>
      <trkpt lat="44.96118" lon="5.72603">
        <ele>745.20001220703</ele>
        <time>2026-07-05T07:51:42.000Z</time>
      </trkpt>
      <trkpt lat="44.96116" lon="5.726">
        <ele>745</ele>
        <time>2026-07-05T07:51:43.000Z</time>
      </trkpt>
      <trkpt lat="44.96113" lon="5.72598">
        <ele>744.59997558594</ele>
        <time>2026-07-05T07:51:44.000Z</time>
      </trkpt>
      <trkpt lat="44.96111" lon="5.72596">
        <ele>744.59997558594</ele>
        <time>2026-07-05T07:51:45.000Z</time>
      </trkpt>
      <trkpt lat="44.96108" lon="5.72593">
        <ele>744.40002441406</ele>
        <time>2026-07-05T07:51:46.000Z</time>
      </trkpt>
      <trkpt lat="44.96105" lon="5.72591">
        <ele>744</ele>
        <time>2026-07-05T07:51:47.000Z</time>
      </trkpt>
      <trkpt lat="44.96102" lon="5.72589">
        <ele>743.59997558594</ele>
        <time>2026-07-05T07:51:48.000Z</time>
      </trkpt>
      <trkpt lat="44.96099" lon="5.72586">
        <ele>743.40002441406</ele>
        <time>2026-07-05T07:51:49.000Z</time>
      </trkpt>
      <trkpt lat="44.96096" lon="5.72583">
        <ele>743</ele>
        <time>2026-07-05T07:51:50.000Z</time>
      </trkpt>
      <trkpt lat="44.96093" lon="5.72581">
        <ele>742.79998779297</ele>
        <time>2026-07-05T07:51:51.000Z</time>
      </trkpt>
      <trkpt lat="44.9609" lon="5.72578">
        <ele>742.59997558594</ele>
        <time>2026-07-05T07:51:52.000Z</time>
      </trkpt>
      <trkpt lat="44.96087" lon="5.72576">
        <ele>742.40002441406</ele>
        <time>2026-07-05T07:51:53.000Z</time>
      </trkpt>
      <trkpt lat="44.96085" lon="5.72573">
        <ele>742.20001220703</ele>
        <time>2026-07-05T07:51:54.000Z</time>
      </trkpt>
      <trkpt lat="44.96082" lon="5.7257">
        <ele>742</ele>
        <time>2026-07-05T07:51:55.000Z</time>
      </trkpt>
      <trkpt lat="44.96079" lon="5.72568">
        <ele>742</ele>
        <time>2026-07-05T07:51:56.000Z</time>
      </trkpt>
      <trkpt lat="44.96077" lon="5.72565">
        <ele>741.79998779297</ele>
        <time>2026-07-05T07:51:57.000Z</time>
      </trkpt>
      <trkpt lat="44.96074" lon="5.72562">
        <ele>741.40002441406</ele>
        <time>2026-07-05T07:51:58.000Z</time>
      </trkpt>
      <trkpt lat="44.96072" lon="5.72559">
        <ele>741.20001220703</ele>
        <time>2026-07-05T07:51:59.000Z</time>
      </trkpt>
      <trkpt lat="44.96069" lon="5.72556">
        <ele>741.20001220703</ele>
        <time>2026-07-05T07:52:00.000Z</time>
      </trkpt>
      <trkpt lat="44.96067" lon="5.72554">
        <ele>741</ele>
        <time>2026-07-05T07:52:01.000Z</time>
      </trkpt>
      <trkpt lat="44.96064" lon="5.72551">
        <ele>740.79998779297</ele>
        <time>2026-07-05T07:52:02.000Z</time>
      </trkpt>
      <trkpt lat="44.96062" lon="5.72549">
        <ele>740.59997558594</ele>
        <time>2026-07-05T07:52:03.000Z</time>
      </trkpt>
      <trkpt lat="44.96059" lon="5.72546">
        <ele>740.20001220703</ele>
        <time>2026-07-05T07:52:04.000Z</time>
      </trkpt>
      <trkpt lat="44.96056" lon="5.72544">
        <ele>739.79998779297</ele>
        <time>2026-07-05T07:52:05.000Z</time>
      </trkpt>
      <trkpt lat="44.96054" lon="5.72542">
        <ele>739.79998779297</ele>
        <time>2026-07-05T07:52:06.000Z</time>
      </trkpt>
      <trkpt lat="44.9605" lon="5.7254">
        <ele>739.59997558594</ele>
        <time>2026-07-05T07:52:07.000Z</time>
      </trkpt>
      <trkpt lat="44.96047" lon="5.72538">
        <ele>739.59997558594</ele>
        <time>2026-07-05T07:52:08.000Z</time>
      </trkpt>
      <trkpt lat="44.96044" lon="5.72536">
        <ele>739.59997558594</ele>
        <time>2026-07-05T07:52:09.000Z</time>
      </trkpt>
      <trkpt lat="44.96041" lon="5.72535">
        <ele>739.40002441406</ele>
        <time>2026-07-05T07:52:10.000Z</time>
      </trkpt>
      <trkpt lat="44.96038" lon="5.72535">
        <ele>739.20001220703</ele>
        <time>2026-07-05T07:52:11.000Z</time>
      </trkpt>
      <trkpt lat="44.96035" lon="5.72535">
        <ele>739.20001220703</ele>
        <time>2026-07-05T07:52:12.000Z</time>
      </trkpt>
      <trkpt lat="44.96032" lon="5.72535">
        <ele>738.79998779297</ele>
        <time>2026-07-05T07:52:13.000Z</time>
      </trkpt>
      <trkpt lat="44.9603" lon="5.72535">
        <ele>738.59997558594</ele>
        <time>2026-07-05T07:52:14.000Z</time>
      </trkpt>
      <trkpt lat="44.96027" lon="5.72535">
        <ele>738.40002441406</ele>
        <time>2026-07-05T07:52:15.000Z</time>
      </trkpt>
      <trkpt lat="44.96024" lon="5.72535">
        <ele>738.20001220703</ele>
        <time>2026-07-05T07:52:16.000Z</time>
      </trkpt>
      <trkpt lat="44.96021" lon="5.72535">
        <ele>737.79998779297</ele>
        <time>2026-07-05T07:52:17.000Z</time>
      </trkpt>
      <trkpt lat="44.96018" lon="5.72536">
        <ele>737.79998779297</ele>
        <time>2026-07-05T07:52:18.000Z</time>
      </trkpt>
      <trkpt lat="44.96015" lon="5.72536">
        <ele>737.40002441406</ele>
        <time>2026-07-05T07:52:19.000Z</time>
      </trkpt>
      <trkpt lat="44.96012" lon="5.72537">
        <ele>737.20001220703</ele>
        <time>2026-07-05T07:52:20.000Z</time>
      </trkpt>
      <trkpt lat="44.96009" lon="5.72537">
        <ele>737.20001220703</ele>
        <time>2026-07-05T07:52:21.000Z</time>
      </trkpt>
      <trkpt lat="44.96006" lon="5.72538">
        <ele>737</ele>
        <time>2026-07-05T07:52:22.000Z</time>
      </trkpt>
      <trkpt lat="44.96003" lon="5.72538">
        <ele>736.79998779297</ele>
        <time>2026-07-05T07:52:23.000Z</time>
      </trkpt>
      <trkpt lat="44.96" lon="5.72538">
        <ele>736.79998779297</ele>
        <time>2026-07-05T07:52:24.000Z</time>
      </trkpt>
      <trkpt lat="44.95997" lon="5.72539">
        <ele>736.59997558594</ele>
        <time>2026-07-05T07:52:25.000Z</time>
      </trkpt>
      <trkpt lat="44.95994" lon="5.72539">
        <ele>736.40002441406</ele>
        <time>2026-07-05T07:52:26.000Z</time>
      </trkpt>
      <trkpt lat="44.9599" lon="5.7254">
        <ele>736.20001220703</ele>
        <time>2026-07-05T07:52:27.000Z</time>
      </trkpt>
      <trkpt lat="44.95988" lon="5.72541">
        <ele>736.20001220703</ele>
        <time>2026-07-05T07:52:28.000Z</time>
      </trkpt>
      <trkpt lat="44.95985" lon="5.72543">
        <ele>736</ele>
        <time>2026-07-05T07:52:29.000Z</time>
      </trkpt>
      <trkpt lat="44.95982" lon="5.72543">
        <ele>735.79998779297</ele>
        <time>2026-07-05T07:52:30.000Z</time>
      </trkpt>
      <trkpt lat="44.95979" lon="5.72545">
        <ele>735.59997558594</ele>
        <time>2026-07-05T07:52:31.000Z</time>
      </trkpt>
      <trkpt lat="44.95976" lon="5.72546">
        <ele>735.40002441406</ele>
        <time>2026-07-05T07:52:32.000Z</time>
      </trkpt>
      <trkpt lat="44.95973" lon="5.72548">
        <ele>735.20001220703</ele>
        <time>2026-07-05T07:52:33.000Z</time>
      </trkpt>
      <trkpt lat="44.9597" lon="5.7255">
        <ele>735</ele>
        <time>2026-07-05T07:52:34.000Z</time>
      </trkpt>
      <trkpt lat="44.95968" lon="5.72551">
        <ele>734.79998779297</ele>
        <time>2026-07-05T07:52:35.000Z</time>
      </trkpt>
      <trkpt lat="44.95965" lon="5.72552">
        <ele>734.59997558594</ele>
        <time>2026-07-05T07:52:36.000Z</time>
      </trkpt>
      <trkpt lat="44.95962" lon="5.72553">
        <ele>734.40002441406</ele>
        <time>2026-07-05T07:52:37.000Z</time>
      </trkpt>
      <trkpt lat="44.9596" lon="5.72554">
        <ele>734.20001220703</ele>
        <time>2026-07-05T07:52:38.000Z</time>
      </trkpt>
      <trkpt lat="44.95957" lon="5.72556">
        <ele>734.20001220703</ele>
        <time>2026-07-05T07:52:39.000Z</time>
      </trkpt>
      <trkpt lat="44.95954" lon="5.72558">
        <ele>734</ele>
        <time>2026-07-05T07:52:40.000Z</time>
      </trkpt>
      <trkpt lat="44.95951" lon="5.7256">
        <ele>733.79998779297</ele>
        <time>2026-07-05T07:52:41.000Z</time>
      </trkpt>
      <trkpt lat="44.95949" lon="5.72561">
        <ele>733.59997558594</ele>
        <time>2026-07-05T07:52:42.000Z</time>
      </trkpt>
      <trkpt lat="44.95946" lon="5.72563">
        <ele>733.40002441406</ele>
        <time>2026-07-05T07:52:43.000Z</time>
      </trkpt>
      <trkpt lat="44.95943" lon="5.72564">
        <ele>733</ele>
        <time>2026-07-05T07:52:44.000Z</time>
      </trkpt>
      <trkpt lat="44.9594" lon="5.72566">
        <ele>732.40002441406</ele>
        <time>2026-07-05T07:52:45.000Z</time>
      </trkpt>
      <trkpt lat="44.95937" lon="5.72567">
        <ele>732</ele>
        <time>2026-07-05T07:52:46.000Z</time>
      </trkpt>
      <trkpt lat="44.95934" lon="5.72568">
        <ele>731.59997558594</ele>
        <time>2026-07-05T07:52:47.000Z</time>
      </trkpt>
      <trkpt lat="44.95932" lon="5.72568">
        <ele>731.20001220703</ele>
        <time>2026-07-05T07:52:48.000Z</time>
      </trkpt>
      <trkpt lat="44.95929" lon="5.72568">
        <ele>731.20001220703</ele>
        <time>2026-07-05T07:52:49.000Z</time>
      </trkpt>
      <trkpt lat="44.95927" lon="5.72566">
        <ele>731.20001220703</ele>
        <time>2026-07-05T07:52:50.000Z</time>
      </trkpt>
      <trkpt lat="44.95924" lon="5.72565">
        <ele>731.40002441406</ele>
        <time>2026-07-05T07:52:51.000Z</time>
      </trkpt>
      <trkpt lat="44.95922" lon="5.72564">
        <ele>731.40002441406</ele>
        <time>2026-07-05T07:52:52.000Z</time>
      </trkpt>
      <trkpt lat="44.95919" lon="5.72563">
        <ele>731.40002441406</ele>
        <time>2026-07-05T07:52:53.000Z</time>
      </trkpt>
      <trkpt lat="44.95917" lon="5.72563">
        <ele>731.40002441406</ele>
        <time>2026-07-05T07:52:54.000Z</time>
      </trkpt>
      <trkpt lat="44.95914" lon="5.72564">
        <ele>731.59997558594</ele>
        <time>2026-07-05T07:52:55.000Z</time>
      </trkpt>
      <trkpt lat="44.95912" lon="5.72565">
        <ele>731.79998779297</ele>
        <time>2026-07-05T07:52:56.000Z</time>
      </trkpt>
      <trkpt lat="44.9591" lon="5.72566">
        <ele>732</ele>
        <time>2026-07-05T07:52:57.000Z</time>
      </trkpt>
      <trkpt lat="44.95908" lon="5.72567">
        <ele>732.40002441406</ele>
        <time>2026-07-05T07:52:58.000Z</time>
      </trkpt>
      <trkpt lat="44.95906" lon="5.72568">
        <ele>732.59997558594</ele>
        <time>2026-07-05T07:52:59.000Z</time>
      </trkpt>
      <trkpt lat="44.95904" lon="5.72569">
        <ele>732.79998779297</ele>
        <time>2026-07-05T07:53:00.000Z</time>
      </trkpt>
      <trkpt lat="44.95903" lon="5.7257">
        <ele>733</ele>
        <time>2026-07-05T07:53:01.000Z</time>
      </trkpt>
      <trkpt lat="44.95901" lon="5.72571">
        <ele>733</ele>
        <time>2026-07-05T07:53:02.000Z</time>
      </trkpt>
      <trkpt lat="44.95899" lon="5.72571">
        <ele>733.20001220703</ele>
        <time>2026-07-05T07:53:03.000Z</time>
      </trkpt>
      <trkpt lat="44.95898" lon="5.72571">
        <ele>733.40002441406</ele>
        <time>2026-07-05T07:53:04.000Z</time>
      </trkpt>
      <trkpt lat="44.95896" lon="5.72572">
        <ele>733.79998779297</ele>
        <time>2026-07-05T07:53:05.000Z</time>
      </trkpt>
      <trkpt lat="44.95895" lon="5.72573">
        <ele>734.20001220703</ele>
        <time>2026-07-05T07:53:06.000Z</time>
      </trkpt>
      <trkpt lat="44.95893" lon="5.72574">
        <ele>734.59997558594</ele>
        <time>2026-07-05T07:53:07.000Z</time>
      </trkpt>
      <trkpt lat="44.95891" lon="5.72575">
        <ele>734.79998779297</ele>
        <time>2026-07-05T07:53:08.000Z</time>
      </trkpt>
      <trkpt lat="44.9589" lon="5.72575">
        <ele>735</ele>
        <time>2026-07-05T07:53:09.000Z</time>
      </trkpt>
      <trkpt lat="44.95889" lon="5.72576">
        <ele>735.20001220703</ele>
        <time>2026-07-05T07:53:10.000Z</time>
      </trkpt>
      <trkpt lat="44.95887" lon="5.72577">
        <ele>735.40002441406</ele>
        <time>2026-07-05T07:53:11.000Z</time>
      </trkpt>
      <trkpt lat="44.95886" lon="5.72577">
        <ele>735.59997558594</ele>
        <time>2026-07-05T07:53:12.000Z</time>
      </trkpt>
      <trkpt lat="44.95885" lon="5.72577">
        <ele>735.79998779297</ele>
        <time>2026-07-05T07:53:13.000Z</time>
      </trkpt>
      <trkpt lat="44.95884" lon="5.72577">
        <ele>735.79998779297</ele>
        <time>2026-07-05T07:53:14.000Z</time>
      </trkpt>
      <trkpt lat="44.95883" lon="5.72578">
        <ele>736</ele>
        <time>2026-07-05T07:53:15.000Z</time>
      </trkpt>
      <trkpt lat="44.95881" lon="5.72578">
        <ele>736.20001220703</ele>
        <time>2026-07-05T07:53:16.000Z</time>
      </trkpt>
      <trkpt lat="44.95879" lon="5.72579">
        <ele>736.40002441406</ele>
        <time>2026-07-05T07:53:17.000Z</time>
      </trkpt>
      <trkpt lat="44.95877" lon="5.72579">
        <ele>736.79998779297</ele>
        <time>2026-07-05T07:53:18.000Z</time>
      </trkpt>
      <trkpt lat="44.95874" lon="5.72579">
        <ele>737</ele>
        <time>2026-07-05T07:53:19.000Z</time>
      </trkpt>
      <trkpt lat="44.95872" lon="5.72579">
        <ele>737.20001220703</ele>
        <time>2026-07-05T07:53:20.000Z</time>
      </trkpt>
      <trkpt lat="44.9587" lon="5.72579">
        <ele>737.40002441406</ele>
        <time>2026-07-05T07:53:21.000Z</time>
      </trkpt>
      <trkpt lat="44.95868" lon="5.72579">
        <ele>737.59997558594</ele>
        <time>2026-07-05T07:53:22.000Z</time>
      </trkpt>
      <trkpt lat="44.95866" lon="5.7258">
        <ele>737.79998779297</ele>
        <time>2026-07-05T07:53:23.000Z</time>
      </trkpt>
      <trkpt lat="44.95864" lon="5.7258">
        <ele>738</ele>
        <time>2026-07-05T07:53:24.000Z</time>
      </trkpt>
      <trkpt lat="44.95862" lon="5.7258">
        <ele>738</ele>
        <time>2026-07-05T07:53:25.000Z</time>
      </trkpt>
      <trkpt lat="44.95861" lon="5.7258">
        <ele>738.20001220703</ele>
        <time>2026-07-05T07:53:26.000Z</time>
      </trkpt>
      <trkpt lat="44.95859" lon="5.7258">
        <ele>738.20001220703</ele>
        <time>2026-07-05T07:53:27.000Z</time>
      </trkpt>
      <trkpt lat="44.95857" lon="5.72581">
        <ele>738.20001220703</ele>
        <time>2026-07-05T07:53:28.000Z</time>
      </trkpt>
      <trkpt lat="44.95855" lon="5.72581">
        <ele>738.40002441406</ele>
        <time>2026-07-05T07:53:29.000Z</time>
      </trkpt>
      <trkpt lat="44.95853" lon="5.72582">
        <ele>738.59997558594</ele>
        <time>2026-07-05T07:53:30.000Z</time>
      </trkpt>
      <trkpt lat="44.95851" lon="5.72583">
        <ele>738.59997558594</ele>
        <time>2026-07-05T07:53:31.000Z</time>
      </trkpt>
      <trkpt lat="44.9585" lon="5.72584">
        <ele>738.79998779297</ele>
        <time>2026-07-05T07:53:32.000Z</time>
      </trkpt>
      <trkpt lat="44.95848" lon="5.72585">
        <ele>739</ele>
        <time>2026-07-05T07:53:33.000Z</time>
      </trkpt>
      <trkpt lat="44.95847" lon="5.72586">
        <ele>739.20001220703</ele>
        <time>2026-07-05T07:53:34.000Z</time>
      </trkpt>
      <trkpt lat="44.95845" lon="5.72587">
        <ele>739.20001220703</ele>
        <time>2026-07-05T07:53:35.000Z</time>
      </trkpt>
      <trkpt lat="44.95844" lon="5.72588">
        <ele>739.40002441406</ele>
        <time>2026-07-05T07:53:36.000Z</time>
      </trkpt>
      <trkpt lat="44.95842" lon="5.72589">
        <ele>739.40002441406</ele>
        <time>2026-07-05T07:53:37.000Z</time>
      </trkpt>
      <trkpt lat="44.9584" lon="5.72591">
        <ele>739.59997558594</ele>
        <time>2026-07-05T07:53:38.000Z</time>
      </trkpt>
      <trkpt lat="44.95839" lon="5.72592">
        <ele>739.79998779297</ele>
        <time>2026-07-05T07:53:39.000Z</time>
      </trkpt>
      <trkpt lat="44.95837" lon="5.72593">
        <ele>739.79998779297</ele>
        <time>2026-07-05T07:53:40.000Z</time>
      </trkpt>
      <trkpt lat="44.95835" lon="5.72595">
        <ele>740.20001220703</ele>
        <time>2026-07-05T07:53:41.000Z</time>
      </trkpt>
      <trkpt lat="44.95833" lon="5.72596">
        <ele>740.20001220703</ele>
        <time>2026-07-05T07:53:42.000Z</time>
      </trkpt>
      <trkpt lat="44.95831" lon="5.72598">
        <ele>740.40002441406</ele>
        <time>2026-07-05T07:53:43.000Z</time>
      </trkpt>
      <trkpt lat="44.9583" lon="5.726">
        <ele>740.40002441406</ele>
        <time>2026-07-05T07:53:44.000Z</time>
      </trkpt>
      <trkpt lat="44.95827" lon="5.72602">
        <ele>740.59997558594</ele>
        <time>2026-07-05T07:53:45.000Z</time>
      </trkpt>
      <trkpt lat="44.95826" lon="5.72603">
        <ele>740.59997558594</ele>
        <time>2026-07-05T07:53:46.000Z</time>
      </trkpt>
      <trkpt lat="44.95824" lon="5.72605">
        <ele>740.79998779297</ele>
        <time>2026-07-05T07:53:47.000Z</time>
      </trkpt>
      <trkpt lat="44.95822" lon="5.72607">
        <ele>740.79998779297</ele>
        <time>2026-07-05T07:53:48.000Z</time>
      </trkpt>
      <trkpt lat="44.9582" lon="5.72608">
        <ele>741</ele>
        <time>2026-07-05T07:53:49.000Z</time>
      </trkpt>
      <trkpt lat="44.95819" lon="5.72611">
        <ele>741</ele>
        <time>2026-07-05T07:53:50.000Z</time>
      </trkpt>
      <trkpt lat="44.95817" lon="5.72613">
        <ele>741</ele>
        <time>2026-07-05T07:53:51.000Z</time>
      </trkpt>
      <trkpt lat="44.95816" lon="5.72615">
        <ele>741.20001220703</ele>
        <time>2026-07-05T07:53:52.000Z</time>
      </trkpt>
      <trkpt lat="44.95815" lon="5.72617">
        <ele>741.20001220703</ele>
        <time>2026-07-05T07:53:53.000Z</time>
      </trkpt>
      <trkpt lat="44.95813" lon="5.72618">
        <ele>741.40002441406</ele>
        <time>2026-07-05T07:53:54.000Z</time>
      </trkpt>
      <trkpt lat="44.95812" lon="5.72621">
        <ele>741.59997558594</ele>
        <time>2026-07-05T07:53:55.000Z</time>
      </trkpt>
      <trkpt lat="44.95811" lon="5.72623">
        <ele>741.59997558594</ele>
        <time>2026-07-05T07:53:56.000Z</time>
      </trkpt>
      <trkpt lat="44.95809" lon="5.72624">
        <ele>741.79998779297</ele>
        <time>2026-07-05T07:53:57.000Z</time>
      </trkpt>
      <trkpt lat="44.95808" lon="5.72627">
        <ele>741.79998779297</ele>
        <time>2026-07-05T07:53:58.000Z</time>
      </trkpt>
      <trkpt lat="44.95806" lon="5.72629">
        <ele>742</ele>
        <time>2026-07-05T07:53:59.000Z</time>
      </trkpt>
      <trkpt lat="44.95805" lon="5.7263">
        <ele>742.20001220703</ele>
        <time>2026-07-05T07:54:00.000Z</time>
      </trkpt>
      <trkpt lat="44.95804" lon="5.72632">
        <ele>742.40002441406</ele>
        <time>2026-07-05T07:54:01.000Z</time>
      </trkpt>
      <trkpt lat="44.95802" lon="5.72634">
        <ele>742.40002441406</ele>
        <time>2026-07-05T07:54:02.000Z</time>
      </trkpt>
      <trkpt lat="44.95801" lon="5.72636">
        <ele>742.59997558594</ele>
        <time>2026-07-05T07:54:03.000Z</time>
      </trkpt>
      <trkpt lat="44.95801" lon="5.72637">
        <ele>742.79998779297</ele>
        <time>2026-07-05T07:54:04.000Z</time>
      </trkpt>
      <trkpt lat="44.958" lon="5.72639">
        <ele>742.79998779297</ele>
        <time>2026-07-05T07:54:05.000Z</time>
      </trkpt>
      <trkpt lat="44.95798" lon="5.72641">
        <ele>743</ele>
        <time>2026-07-05T07:54:06.000Z</time>
      </trkpt>
      <trkpt lat="44.95797" lon="5.72643">
        <ele>743.20001220703</ele>
        <time>2026-07-05T07:54:07.000Z</time>
      </trkpt>
      <trkpt lat="44.95796" lon="5.72646">
        <ele>743.40002441406</ele>
        <time>2026-07-05T07:54:08.000Z</time>
      </trkpt>
      <trkpt lat="44.95795" lon="5.72648">
        <ele>743.59997558594</ele>
        <time>2026-07-05T07:54:09.000Z</time>
      </trkpt>
      <trkpt lat="44.95794" lon="5.72649">
        <ele>743.79998779297</ele>
        <time>2026-07-05T07:54:10.000Z</time>
      </trkpt>
      <trkpt lat="44.95793" lon="5.72651">
        <ele>743.79998779297</ele>
        <time>2026-07-05T07:54:11.000Z</time>
      </trkpt>
      <trkpt lat="44.95792" lon="5.72653">
        <ele>744</ele>
        <time>2026-07-05T07:54:12.000Z</time>
      </trkpt>
      <trkpt lat="44.95792" lon="5.72655">
        <ele>744.20001220703</ele>
        <time>2026-07-05T07:54:13.000Z</time>
      </trkpt>
      <trkpt lat="44.95791" lon="5.72657">
        <ele>744.20001220703</ele>
        <time>2026-07-05T07:54:14.000Z</time>
      </trkpt>
      <trkpt lat="44.95791" lon="5.72659">
        <ele>744.40002441406</ele>
        <time>2026-07-05T07:54:15.000Z</time>
      </trkpt>
      <trkpt lat="44.9579" lon="5.72661">
        <ele>744.59997558594</ele>
        <time>2026-07-05T07:54:16.000Z</time>
      </trkpt>
      <trkpt lat="44.9579" lon="5.72662">
        <ele>744.79998779297</ele>
        <time>2026-07-05T07:54:17.000Z</time>
      </trkpt>
      <trkpt lat="44.95789" lon="5.72664">
        <ele>745</ele>
        <time>2026-07-05T07:54:18.000Z</time>
      </trkpt>
      <trkpt lat="44.95788" lon="5.72666">
        <ele>745.20001220703</ele>
        <time>2026-07-05T07:54:19.000Z</time>
      </trkpt>
      <trkpt lat="44.95788" lon="5.72668">
        <ele>745.40002441406</ele>
        <time>2026-07-05T07:54:20.000Z</time>
      </trkpt>
      <trkpt lat="44.95787" lon="5.72669">
        <ele>745.59997558594</ele>
        <time>2026-07-05T07:54:21.000Z</time>
      </trkpt>
      <trkpt lat="44.95786" lon="5.72671">
        <ele>745.79998779297</ele>
        <time>2026-07-05T07:54:22.000Z</time>
      </trkpt>
      <trkpt lat="44.95785" lon="5.72673">
        <ele>746.20001220703</ele>
        <time>2026-07-05T07:54:23.000Z</time>
      </trkpt>
      <trkpt lat="44.95785" lon="5.72675">
        <ele>746.20001220703</ele>
        <time>2026-07-05T07:54:24.000Z</time>
      </trkpt>
      <trkpt lat="44.95784" lon="5.72677">
        <ele>746.40002441406</ele>
        <time>2026-07-05T07:54:25.000Z</time>
      </trkpt>
      <trkpt lat="44.95784" lon="5.72678">
        <ele>746.59997558594</ele>
        <time>2026-07-05T07:54:26.000Z</time>
      </trkpt>
      <trkpt lat="44.95784" lon="5.7268">
        <ele>746.79998779297</ele>
        <time>2026-07-05T07:54:27.000Z</time>
      </trkpt>
      <trkpt lat="44.95783" lon="5.72682">
        <ele>747</ele>
        <time>2026-07-05T07:54:28.000Z</time>
      </trkpt>
      <trkpt lat="44.95783" lon="5.72684">
        <ele>747.20001220703</ele>
        <time>2026-07-05T07:54:29.000Z</time>
      </trkpt>
      <trkpt lat="44.95782" lon="5.72686">
        <ele>747.40002441406</ele>
        <time>2026-07-05T07:54:30.000Z</time>
      </trkpt>
      <trkpt lat="44.95782" lon="5.72688">
        <ele>747.59997558594</ele>
        <time>2026-07-05T07:54:31.000Z</time>
      </trkpt>
      <trkpt lat="44.95781" lon="5.72689">
        <ele>747.79998779297</ele>
        <time>2026-07-05T07:54:32.000Z</time>
      </trkpt>
      <trkpt lat="44.9578" lon="5.72691">
        <ele>748</ele>
        <time>2026-07-05T07:54:33.000Z</time>
      </trkpt>
      <trkpt lat="44.9578" lon="5.72692">
        <ele>748.20001220703</ele>
        <time>2026-07-05T07:54:34.000Z</time>
      </trkpt>
      <trkpt lat="44.9578" lon="5.72693">
        <ele>748.40002441406</ele>
        <time>2026-07-05T07:54:35.000Z</time>
      </trkpt>
      <trkpt lat="44.95779" lon="5.72694">
        <ele>748.59997558594</ele>
        <time>2026-07-05T07:54:36.000Z</time>
      </trkpt>
      <trkpt lat="44.95779" lon="5.72696">
        <ele>748.79998779297</ele>
        <time>2026-07-05T07:54:37.000Z</time>
      </trkpt>
      <trkpt lat="44.95779" lon="5.72698">
        <ele>748.79998779297</ele>
        <time>2026-07-05T07:54:38.000Z</time>
      </trkpt>
      <trkpt lat="44.95779" lon="5.727">
        <ele>749</ele>
        <time>2026-07-05T07:54:39.000Z</time>
      </trkpt>
      <trkpt lat="44.95778" lon="5.72701">
        <ele>749.20001220703</ele>
        <time>2026-07-05T07:54:40.000Z</time>
      </trkpt>
      <trkpt lat="44.95778" lon="5.72702">
        <ele>749.40002441406</ele>
        <time>2026-07-05T07:54:41.000Z</time>
      </trkpt>
      <trkpt lat="44.95778" lon="5.72704">
        <ele>749.59997558594</ele>
        <time>2026-07-05T07:54:42.000Z</time>
      </trkpt>
      <trkpt lat="44.95777" lon="5.72706">
        <ele>750</ele>
        <time>2026-07-05T07:54:43.000Z</time>
      </trkpt>
      <trkpt lat="44.95777" lon="5.72707">
        <ele>750.20001220703</ele>
        <time>2026-07-05T07:54:44.000Z</time>
      </trkpt>
      <trkpt lat="44.95776" lon="5.72709">
        <ele>750.40002441406</ele>
        <time>2026-07-05T07:54:45.000Z</time>
      </trkpt>
      <trkpt lat="44.95776" lon="5.72711">
        <ele>750.59997558594</ele>
        <time>2026-07-05T07:54:46.000Z</time>
      </trkpt>
      <trkpt lat="44.95776" lon="5.72713">
        <ele>750.79998779297</ele>
        <time>2026-07-05T07:54:47.000Z</time>
      </trkpt>
      <trkpt lat="44.95775" lon="5.72714">
        <ele>751</ele>
        <time>2026-07-05T07:54:48.000Z</time>
      </trkpt>
      <trkpt lat="44.95775" lon="5.72716">
        <ele>751.20001220703</ele>
        <time>2026-07-05T07:54:49.000Z</time>
      </trkpt>
      <trkpt lat="44.95775" lon="5.72718">
        <ele>751.40002441406</ele>
        <time>2026-07-05T07:54:50.000Z</time>
      </trkpt>
      <trkpt lat="44.95775" lon="5.7272">
        <ele>751.59997558594</ele>
        <time>2026-07-05T07:54:51.000Z</time>
      </trkpt>
      <trkpt lat="44.95774" lon="5.72722">
        <ele>751.79998779297</ele>
        <time>2026-07-05T07:54:52.000Z</time>
      </trkpt>
      <trkpt lat="44.95774" lon="5.72723">
        <ele>752</ele>
        <time>2026-07-05T07:54:53.000Z</time>
      </trkpt>
      <trkpt lat="44.95774" lon="5.72726">
        <ele>752.40002441406</ele>
        <time>2026-07-05T07:54:54.000Z</time>
      </trkpt>
      <trkpt lat="44.95774" lon="5.72727">
        <ele>752.59997558594</ele>
        <time>2026-07-05T07:54:55.000Z</time>
      </trkpt>
      <trkpt lat="44.95774" lon="5.7273">
        <ele>752.79998779297</ele>
        <time>2026-07-05T07:54:56.000Z</time>
      </trkpt>
      <trkpt lat="44.95774" lon="5.72731">
        <ele>752.79998779297</ele>
        <time>2026-07-05T07:54:57.000Z</time>
      </trkpt>
      <trkpt lat="44.95774" lon="5.72734">
        <ele>753.20001220703</ele>
        <time>2026-07-05T07:54:58.000Z</time>
      </trkpt>
      <trkpt lat="44.95774" lon="5.72736">
        <ele>753.40002441406</ele>
        <time>2026-07-05T07:54:59.000Z</time>
      </trkpt>
      <trkpt lat="44.95774" lon="5.72738">
        <ele>753.59997558594</ele>
        <time>2026-07-05T07:55:00.000Z</time>
      </trkpt>
      <trkpt lat="44.95774" lon="5.7274">
        <ele>753.79998779297</ele>
        <time>2026-07-05T07:55:01.000Z</time>
      </trkpt>
      <trkpt lat="44.95774" lon="5.72742">
        <ele>754</ele>
        <time>2026-07-05T07:55:02.000Z</time>
      </trkpt>
      <trkpt lat="44.95774" lon="5.72744">
        <ele>754.20001220703</ele>
        <time>2026-07-05T07:55:03.000Z</time>
      </trkpt>
      <trkpt lat="44.95774" lon="5.72746">
        <ele>754.40002441406</ele>
        <time>2026-07-05T07:55:04.000Z</time>
      </trkpt>
      <trkpt lat="44.95774" lon="5.72748">
        <ele>754.59997558594</ele>
        <time>2026-07-05T07:55:05.000Z</time>
      </trkpt>
      <trkpt lat="44.95775" lon="5.7275">
        <ele>754.59997558594</ele>
        <time>2026-07-05T07:55:06.000Z</time>
      </trkpt>
      <trkpt lat="44.95775" lon="5.72751">
        <ele>755</ele>
        <time>2026-07-05T07:55:07.000Z</time>
      </trkpt>
      <trkpt lat="44.95776" lon="5.72753">
        <ele>755.20001220703</ele>
        <time>2026-07-05T07:55:08.000Z</time>
      </trkpt>
      <trkpt lat="44.95777" lon="5.72754">
        <ele>755.40002441406</ele>
        <time>2026-07-05T07:55:09.000Z</time>
      </trkpt>
      <trkpt lat="44.95778" lon="5.72755">
        <ele>755.59997558594</ele>
        <time>2026-07-05T07:55:10.000Z</time>
      </trkpt>
      <trkpt lat="44.95779" lon="5.72757">
        <ele>755.59997558594</ele>
        <time>2026-07-05T07:55:11.000Z</time>
      </trkpt>
      <trkpt lat="44.95779" lon="5.72758">
        <ele>755.79998779297</ele>
        <time>2026-07-05T07:55:12.000Z</time>
      </trkpt>
      <trkpt lat="44.95779" lon="5.72759">
        <ele>756</ele>
        <time>2026-07-05T07:55:13.000Z</time>
      </trkpt>
      <trkpt lat="44.9578" lon="5.7276">
        <ele>756.20001220703</ele>
        <time>2026-07-05T07:55:14.000Z</time>
      </trkpt>
      <trkpt lat="44.95781" lon="5.72762">
        <ele>756.40002441406</ele>
        <time>2026-07-05T07:55:15.000Z</time>
      </trkpt>
      <trkpt lat="44.95781" lon="5.72763">
        <ele>756.40002441406</ele>
        <time>2026-07-05T07:55:16.000Z</time>
      </trkpt>
      <trkpt lat="44.95782" lon="5.72765">
        <ele>756.79998779297</ele>
        <time>2026-07-05T07:55:17.000Z</time>
      </trkpt>
      <trkpt lat="44.95783" lon="5.72766">
        <ele>756.79998779297</ele>
        <time>2026-07-05T07:55:18.000Z</time>
      </trkpt>
      <trkpt lat="44.95784" lon="5.72768">
        <ele>757.20001220703</ele>
        <time>2026-07-05T07:55:19.000Z</time>
      </trkpt>
      <trkpt lat="44.95785" lon="5.7277">
        <ele>757.40002441406</ele>
        <time>2026-07-05T07:55:20.000Z</time>
      </trkpt>
      <trkpt lat="44.95786" lon="5.72771">
        <ele>757.59997558594</ele>
        <time>2026-07-05T07:55:21.000Z</time>
      </trkpt>
      <trkpt lat="44.95787" lon="5.72773">
        <ele>757.79998779297</ele>
        <time>2026-07-05T07:55:22.000Z</time>
      </trkpt>
      <trkpt lat="44.95789" lon="5.72775">
        <ele>758</ele>
        <time>2026-07-05T07:55:23.000Z</time>
      </trkpt>
      <trkpt lat="44.9579" lon="5.72777">
        <ele>758.20001220703</ele>
        <time>2026-07-05T07:55:24.000Z</time>
      </trkpt>
      <trkpt lat="44.95791" lon="5.72779">
        <ele>758.59997558594</ele>
        <time>2026-07-05T07:55:25.000Z</time>
      </trkpt>
      <trkpt lat="44.95792" lon="5.7278">
        <ele>758.79998779297</ele>
        <time>2026-07-05T07:55:26.000Z</time>
      </trkpt>
      <trkpt lat="44.95793" lon="5.72781">
        <ele>759</ele>
        <time>2026-07-05T07:55:27.000Z</time>
      </trkpt>
      <trkpt lat="44.95793" lon="5.72782">
        <ele>759</ele>
        <time>2026-07-05T07:55:28.000Z</time>
      </trkpt>
      <trkpt lat="44.95794" lon="5.72783">
        <ele>759.20001220703</ele>
        <time>2026-07-05T07:55:29.000Z</time>
      </trkpt>
      <trkpt lat="44.95796" lon="5.72785">
        <ele>759.40002441406</ele>
        <time>2026-07-05T07:55:30.000Z</time>
      </trkpt>
      <trkpt lat="44.95796" lon="5.72786">
        <ele>759.59997558594</ele>
        <time>2026-07-05T07:55:31.000Z</time>
      </trkpt>
      <trkpt lat="44.95797" lon="5.72787">
        <ele>760</ele>
        <time>2026-07-05T07:55:32.000Z</time>
      </trkpt>
      <trkpt lat="44.95799" lon="5.72788">
        <ele>760.20001220703</ele>
        <time>2026-07-05T07:55:33.000Z</time>
      </trkpt>
      <trkpt lat="44.958" lon="5.72789">
        <ele>760.20001220703</ele>
        <time>2026-07-05T07:55:34.000Z</time>
      </trkpt>
      <trkpt lat="44.958" lon="5.72791">
        <ele>760.40002441406</ele>
        <time>2026-07-05T07:55:35.000Z</time>
      </trkpt>
      <trkpt lat="44.95801" lon="5.72792">
        <ele>760.59997558594</ele>
        <time>2026-07-05T07:55:36.000Z</time>
      </trkpt>
      <trkpt lat="44.95802" lon="5.72793">
        <ele>760.59997558594</ele>
        <time>2026-07-05T07:55:37.000Z</time>
      </trkpt>
      <trkpt lat="44.95803" lon="5.72795">
        <ele>760.79998779297</ele>
        <time>2026-07-05T07:55:38.000Z</time>
      </trkpt>
      <trkpt lat="44.95804" lon="5.72796">
        <ele>761</ele>
        <time>2026-07-05T07:55:39.000Z</time>
      </trkpt>
      <trkpt lat="44.95805" lon="5.72797">
        <ele>761.20001220703</ele>
        <time>2026-07-05T07:55:40.000Z</time>
      </trkpt>
      <trkpt lat="44.95805" lon="5.72798">
        <ele>761.20001220703</ele>
        <time>2026-07-05T07:55:41.000Z</time>
      </trkpt>
      <trkpt lat="44.95806" lon="5.72799">
        <ele>761.40002441406</ele>
        <time>2026-07-05T07:55:42.000Z</time>
      </trkpt>
      <trkpt lat="44.95807" lon="5.728">
        <ele>761.40002441406</ele>
        <time>2026-07-05T07:55:43.000Z</time>
      </trkpt>
      <trkpt lat="44.95808" lon="5.72801">
        <ele>761.59997558594</ele>
        <time>2026-07-05T07:55:44.000Z</time>
      </trkpt>
      <trkpt lat="44.95808" lon="5.72803">
        <ele>761.59997558594</ele>
        <time>2026-07-05T07:55:45.000Z</time>
      </trkpt>
      <trkpt lat="44.9581" lon="5.72804">
        <ele>761.40002441406</ele>
        <time>2026-07-05T07:55:46.000Z</time>
      </trkpt>
      <trkpt lat="44.95811" lon="5.72805">
        <ele>761.40002441406</ele>
        <time>2026-07-05T07:55:47.000Z</time>
      </trkpt>
      <trkpt lat="44.95811" lon="5.72806">
        <ele>761.40002441406</ele>
        <time>2026-07-05T07:55:48.000Z</time>
      </trkpt>
      <trkpt lat="44.95812" lon="5.72807">
        <ele>761.40002441406</ele>
        <time>2026-07-05T07:55:49.000Z</time>
      </trkpt>
      <trkpt lat="44.95813" lon="5.72808">
        <ele>761.40002441406</ele>
        <time>2026-07-05T07:55:50.000Z</time>
      </trkpt>
      <trkpt lat="44.95814" lon="5.7281">
        <ele>761.20001220703</ele>
        <time>2026-07-05T07:55:51.000Z</time>
      </trkpt>
      <trkpt lat="44.95815" lon="5.72811">
        <ele>761.20001220703</ele>
        <time>2026-07-05T07:55:52.000Z</time>
      </trkpt>
      <trkpt lat="44.95816" lon="5.72812">
        <ele>761.20001220703</ele>
        <time>2026-07-05T07:55:53.000Z</time>
      </trkpt>
      <trkpt lat="44.95817" lon="5.72813">
        <ele>761.20001220703</ele>
        <time>2026-07-05T07:55:54.000Z</time>
      </trkpt>
      <trkpt lat="44.95818" lon="5.72814">
        <ele>761.20001220703</ele>
        <time>2026-07-05T07:55:55.000Z</time>
      </trkpt>
      <trkpt lat="44.95819" lon="5.72815">
        <ele>761.20001220703</ele>
        <time>2026-07-05T07:55:56.000Z</time>
      </trkpt>
      <trkpt lat="44.9582" lon="5.72816">
        <ele>761</ele>
        <time>2026-07-05T07:55:57.000Z</time>
      </trkpt>
      <trkpt lat="44.95821" lon="5.72818">
        <ele>761</ele>
        <time>2026-07-05T07:55:58.000Z</time>
      </trkpt>
      <trkpt lat="44.95822" lon="5.72819">
        <ele>761</ele>
        <time>2026-07-05T07:55:59.000Z</time>
      </trkpt>
      <trkpt lat="44.95823" lon="5.7282">
        <ele>761</ele>
        <time>2026-07-05T07:56:00.000Z</time>
      </trkpt>
      <trkpt lat="44.95824" lon="5.7282">
        <ele>761</ele>
        <time>2026-07-05T07:56:01.000Z</time>
      </trkpt>
      <trkpt lat="44.95825" lon="5.72821">
        <ele>761.20001220703</ele>
        <time>2026-07-05T07:56:02.000Z</time>
      </trkpt>
      <trkpt lat="44.95826" lon="5.72822">
        <ele>761.20001220703</ele>
        <time>2026-07-05T07:56:03.000Z</time>
      </trkpt>
      <trkpt lat="44.95827" lon="5.72823">
        <ele>761.40002441406</ele>
        <time>2026-07-05T07:56:04.000Z</time>
      </trkpt>
      <trkpt lat="44.95829" lon="5.72824">
        <ele>761.79998779297</ele>
        <time>2026-07-05T07:56:05.000Z</time>
      </trkpt>
      <trkpt lat="44.9583" lon="5.72825">
        <ele>761.79998779297</ele>
        <time>2026-07-05T07:56:06.000Z</time>
      </trkpt>
      <trkpt lat="44.9583" lon="5.72826">
        <ele>762.20001220703</ele>
        <time>2026-07-05T07:56:07.000Z</time>
      </trkpt>
      <trkpt lat="44.95831" lon="5.72827">
        <ele>762.59997558594</ele>
        <time>2026-07-05T07:56:08.000Z</time>
      </trkpt>
      <trkpt lat="44.95832" lon="5.72828">
        <ele>763</ele>
        <time>2026-07-05T07:56:09.000Z</time>
      </trkpt>
      <trkpt lat="44.95833" lon="5.72829">
        <ele>763.20001220703</ele>
        <time>2026-07-05T07:56:10.000Z</time>
      </trkpt>
      <trkpt lat="44.95835" lon="5.7283">
        <ele>763.40002441406</ele>
        <time>2026-07-05T07:56:11.000Z</time>
      </trkpt>
      <trkpt lat="44.95836" lon="5.72831">
        <ele>763.59997558594</ele>
        <time>2026-07-05T07:56:12.000Z</time>
      </trkpt>
      <trkpt lat="44.95837" lon="5.72831">
        <ele>763.79998779297</ele>
        <time>2026-07-05T07:56:13.000Z</time>
      </trkpt>
      <trkpt lat="44.95839" lon="5.72832">
        <ele>764.20001220703</ele>
        <time>2026-07-05T07:56:14.000Z</time>
      </trkpt>
      <trkpt lat="44.9584" lon="5.72833">
        <ele>765</ele>
        <time>2026-07-05T07:56:15.000Z</time>
      </trkpt>
      <trkpt lat="44.95841" lon="5.72835">
        <ele>765.20001220703</ele>
        <time>2026-07-05T07:56:16.000Z</time>
      </trkpt>
      <trkpt lat="44.95843" lon="5.72836">
        <ele>765.40002441406</ele>
        <time>2026-07-05T07:56:17.000Z</time>
      </trkpt>
      <trkpt lat="44.95844" lon="5.72836">
        <ele>766</ele>
        <time>2026-07-05T07:56:18.000Z</time>
      </trkpt>
      <trkpt lat="44.95845" lon="5.72837">
        <ele>766.40002441406</ele>
        <time>2026-07-05T07:56:19.000Z</time>
      </trkpt>
      <trkpt lat="44.95846" lon="5.72838">
        <ele>766.59997558594</ele>
        <time>2026-07-05T07:56:20.000Z</time>
      </trkpt>
      <trkpt lat="44.95848" lon="5.7284">
        <ele>766.79998779297</ele>
        <time>2026-07-05T07:56:21.000Z</time>
      </trkpt>
      <trkpt lat="44.95849" lon="5.72841">
        <ele>767.20001220703</ele>
        <time>2026-07-05T07:56:22.000Z</time>
      </trkpt>
      <trkpt lat="44.9585" lon="5.72843">
        <ele>767.59997558594</ele>
        <time>2026-07-05T07:56:23.000Z</time>
      </trkpt>
      <trkpt lat="44.9585" lon="5.72844">
        <ele>768.79998779297</ele>
        <time>2026-07-05T07:56:24.000Z</time>
      </trkpt>
      <trkpt lat="44.95851" lon="5.72845">
        <ele>769.40002441406</ele>
        <time>2026-07-05T07:56:25.000Z</time>
      </trkpt>
      <trkpt lat="44.95852" lon="5.72847">
        <ele>770</ele>
        <time>2026-07-05T07:56:26.000Z</time>
      </trkpt>
      <trkpt lat="44.95853" lon="5.72849">
        <ele>770.40002441406</ele>
        <time>2026-07-05T07:56:27.000Z</time>
      </trkpt>
      <trkpt lat="44.95854" lon="5.7285">
        <ele>770.59997558594</ele>
        <time>2026-07-05T07:56:28.000Z</time>
      </trkpt>
      <trkpt lat="44.95855" lon="5.72852">
        <ele>771</ele>
        <time>2026-07-05T07:56:29.000Z</time>
      </trkpt>
      <trkpt lat="44.95856" lon="5.72853">
        <ele>771.20001220703</ele>
        <time>2026-07-05T07:56:30.000Z</time>
      </trkpt>
      <trkpt lat="44.95857" lon="5.72855">
        <ele>771.40002441406</ele>
        <time>2026-07-05T07:56:31.000Z</time>
      </trkpt>
      <trkpt lat="44.95857" lon="5.72855">
        <ele>771.79998779297</ele>
        <time>2026-07-05T07:56:32.000Z</time>
      </trkpt>
      <trkpt lat="44.95859" lon="5.72857">
        <ele>771.79998779297</ele>
        <time>2026-07-05T07:56:33.000Z</time>
      </trkpt>
      <trkpt lat="44.95859" lon="5.72859">
        <ele>772.40002441406</ele>
        <time>2026-07-05T07:56:34.000Z</time>
      </trkpt>
      <trkpt lat="44.9586" lon="5.7286">
        <ele>772.59997558594</ele>
        <time>2026-07-05T07:56:35.000Z</time>
      </trkpt>
      <trkpt lat="44.95861" lon="5.72861">
        <ele>772.79998779297</ele>
        <time>2026-07-05T07:56:36.000Z</time>
      </trkpt>
      <trkpt lat="44.95862" lon="5.72863">
        <ele>773</ele>
        <time>2026-07-05T07:56:37.000Z</time>
      </trkpt>
      <trkpt lat="44.95863" lon="5.72864">
        <ele>773</ele>
        <time>2026-07-05T07:56:38.000Z</time>
      </trkpt>
      <trkpt lat="44.95864" lon="5.72865">
        <ele>773</ele>
        <time>2026-07-05T07:56:39.000Z</time>
      </trkpt>
      <trkpt lat="44.95865" lon="5.72867">
        <ele>773</ele>
        <time>2026-07-05T07:56:40.000Z</time>
      </trkpt>
      <trkpt lat="44.95866" lon="5.72868">
        <ele>772.79998779297</ele>
        <time>2026-07-05T07:56:41.000Z</time>
      </trkpt>
      <trkpt lat="44.95867" lon="5.72869">
        <ele>772.59997558594</ele>
        <time>2026-07-05T07:56:42.000Z</time>
      </trkpt>
      <trkpt lat="44.95867" lon="5.7287">
        <ele>772.40002441406</ele>
        <time>2026-07-05T07:56:43.000Z</time>
      </trkpt>
      <trkpt lat="44.95868" lon="5.72872">
        <ele>771.59997558594</ele>
        <time>2026-07-05T07:56:44.000Z</time>
      </trkpt>
      <trkpt lat="44.95869" lon="5.72872">
        <ele>771.40002441406</ele>
        <time>2026-07-05T07:56:45.000Z</time>
      </trkpt>
      <trkpt lat="44.9587" lon="5.72873">
        <ele>771</ele>
        <time>2026-07-05T07:56:46.000Z</time>
      </trkpt>
      <trkpt lat="44.95871" lon="5.72875">
        <ele>770.79998779297</ele>
        <time>2026-07-05T07:56:47.000Z</time>
      </trkpt>
      <trkpt lat="44.95872" lon="5.72876">
        <ele>770.79998779297</ele>
        <time>2026-07-05T07:56:48.000Z</time>
      </trkpt>
      <trkpt lat="44.95873" lon="5.72877">
        <ele>770.59997558594</ele>
        <time>2026-07-05T07:56:49.000Z</time>
      </trkpt>
      <trkpt lat="44.95874" lon="5.72878">
        <ele>770.79998779297</ele>
        <time>2026-07-05T07:56:50.000Z</time>
      </trkpt>
      <trkpt lat="44.95875" lon="5.72879">
        <ele>771</ele>
        <time>2026-07-05T07:56:51.000Z</time>
      </trkpt>
      <trkpt lat="44.95876" lon="5.7288">
        <ele>772</ele>
        <time>2026-07-05T07:56:52.000Z</time>
      </trkpt>
      <trkpt lat="44.95876" lon="5.72882">
        <ele>772.20001220703</ele>
        <time>2026-07-05T07:56:53.000Z</time>
      </trkpt>
      <trkpt lat="44.95877" lon="5.72883">
        <ele>773</ele>
        <time>2026-07-05T07:56:54.000Z</time>
      </trkpt>
      <trkpt lat="44.95878" lon="5.72884">
        <ele>773.59997558594</ele>
        <time>2026-07-05T07:56:55.000Z</time>
      </trkpt>
      <trkpt lat="44.95879" lon="5.72886">
        <ele>774</ele>
        <time>2026-07-05T07:56:56.000Z</time>
      </trkpt>
      <trkpt lat="44.9588" lon="5.72887">
        <ele>774.59997558594</ele>
        <time>2026-07-05T07:56:57.000Z</time>
      </trkpt>
      <trkpt lat="44.95881" lon="5.72888">
        <ele>775</ele>
        <time>2026-07-05T07:56:58.000Z</time>
      </trkpt>
      <trkpt lat="44.95882" lon="5.72889">
        <ele>775.59997558594</ele>
        <time>2026-07-05T07:56:59.000Z</time>
      </trkpt>
      <trkpt lat="44.95882" lon="5.7289">
        <ele>776</ele>
        <time>2026-07-05T07:57:00.000Z</time>
      </trkpt>
      <trkpt lat="44.95883" lon="5.72891">
        <ele>776</ele>
        <time>2026-07-05T07:57:01.000Z</time>
      </trkpt>
      <trkpt lat="44.95883" lon="5.72893">
        <ele>775.79998779297</ele>
        <time>2026-07-05T07:57:02.000Z</time>
      </trkpt>
      <trkpt lat="44.95884" lon="5.72894">
        <ele>775.79998779297</ele>
        <time>2026-07-05T07:57:03.000Z</time>
      </trkpt>
      <trkpt lat="44.95885" lon="5.72896">
        <ele>775.79998779297</ele>
        <time>2026-07-05T07:57:04.000Z</time>
      </trkpt>
      <trkpt lat="44.95886" lon="5.72897">
        <ele>776</ele>
        <time>2026-07-05T07:57:05.000Z</time>
      </trkpt>
      <trkpt lat="44.95887" lon="5.72899">
        <ele>776</ele>
        <time>2026-07-05T07:57:06.000Z</time>
      </trkpt>
      <trkpt lat="44.95887" lon="5.729">
        <ele>776.40002441406</ele>
        <time>2026-07-05T07:57:07.000Z</time>
      </trkpt>
      <trkpt lat="44.95888" lon="5.72901">
        <ele>776.79998779297</ele>
        <time>2026-07-05T07:57:08.000Z</time>
      </trkpt>
      <trkpt lat="44.95889" lon="5.72901">
        <ele>777</ele>
        <time>2026-07-05T07:57:09.000Z</time>
      </trkpt>
      <trkpt lat="44.9589" lon="5.72903">
        <ele>777.20001220703</ele>
        <time>2026-07-05T07:57:10.000Z</time>
      </trkpt>
      <trkpt lat="44.95891" lon="5.72904">
        <ele>777.40002441406</ele>
        <time>2026-07-05T07:57:11.000Z</time>
      </trkpt>
      <trkpt lat="44.95892" lon="5.72905">
        <ele>777.40002441406</ele>
        <time>2026-07-05T07:57:12.000Z</time>
      </trkpt>
      <trkpt lat="44.95894" lon="5.72906">
        <ele>777.59997558594</ele>
        <time>2026-07-05T07:57:13.000Z</time>
      </trkpt>
      <trkpt lat="44.95894" lon="5.72908">
        <ele>777.59997558594</ele>
        <time>2026-07-05T07:57:14.000Z</time>
      </trkpt>
      <trkpt lat="44.95895" lon="5.72909">
        <ele>777.79998779297</ele>
        <time>2026-07-05T07:57:15.000Z</time>
      </trkpt>
      <trkpt lat="44.95896" lon="5.7291">
        <ele>778.40002441406</ele>
        <time>2026-07-05T07:57:16.000Z</time>
      </trkpt>
      <trkpt lat="44.95896" lon="5.72912">
        <ele>778.79998779297</ele>
        <time>2026-07-05T07:57:17.000Z</time>
      </trkpt>
      <trkpt lat="44.95897" lon="5.72913">
        <ele>778.79998779297</ele>
        <time>2026-07-05T07:57:18.000Z</time>
      </trkpt>
      <trkpt lat="44.95897" lon="5.72915">
        <ele>778.79998779297</ele>
        <time>2026-07-05T07:57:19.000Z</time>
      </trkpt>
      <trkpt lat="44.95898" lon="5.72917">
        <ele>779</ele>
        <time>2026-07-05T07:57:20.000Z</time>
      </trkpt>
      <trkpt lat="44.95899" lon="5.72918">
        <ele>779</ele>
        <time>2026-07-05T07:57:21.000Z</time>
      </trkpt>
      <trkpt lat="44.959" lon="5.72919">
        <ele>779</ele>
        <time>2026-07-05T07:57:22.000Z</time>
      </trkpt>
      <trkpt lat="44.95901" lon="5.72921">
        <ele>779.20001220703</ele>
        <time>2026-07-05T07:57:23.000Z</time>
      </trkpt>
      <trkpt lat="44.95903" lon="5.72922">
        <ele>779.20001220703</ele>
        <time>2026-07-05T07:57:24.000Z</time>
      </trkpt>
      <trkpt lat="44.95904" lon="5.72924">
        <ele>779.20001220703</ele>
        <time>2026-07-05T07:57:25.000Z</time>
      </trkpt>
      <trkpt lat="44.95905" lon="5.72925">
        <ele>779.59997558594</ele>
        <time>2026-07-05T07:57:26.000Z</time>
      </trkpt>
      <trkpt lat="44.95906" lon="5.72926">
        <ele>780</ele>
        <time>2026-07-05T07:57:27.000Z</time>
      </trkpt>
      <trkpt lat="44.95907" lon="5.72928">
        <ele>780.59997558594</ele>
        <time>2026-07-05T07:57:28.000Z</time>
      </trkpt>
      <trkpt lat="44.95908" lon="5.7293">
        <ele>781</ele>
        <time>2026-07-05T07:57:29.000Z</time>
      </trkpt>
      <trkpt lat="44.95909" lon="5.72932">
        <ele>782.79998779297</ele>
        <time>2026-07-05T07:57:30.000Z</time>
      </trkpt>
      <trkpt lat="44.9591" lon="5.72933">
        <ele>783</ele>
        <time>2026-07-05T07:57:31.000Z</time>
      </trkpt>
      <trkpt lat="44.95912" lon="5.72934">
        <ele>783.40002441406</ele>
        <time>2026-07-05T07:57:32.000Z</time>
      </trkpt>
      <trkpt lat="44.95913" lon="5.72936">
        <ele>784</ele>
        <time>2026-07-05T07:57:33.000Z</time>
      </trkpt>
      <trkpt lat="44.95913" lon="5.72938">
        <ele>784.20001220703</ele>
        <time>2026-07-05T07:57:34.000Z</time>
      </trkpt>
      <trkpt lat="44.95915" lon="5.7294">
        <ele>784.40002441406</ele>
        <time>2026-07-05T07:57:35.000Z</time>
      </trkpt>
      <trkpt lat="44.95916" lon="5.72941">
        <ele>784.59997558594</ele>
        <time>2026-07-05T07:57:36.000Z</time>
      </trkpt>
      <trkpt lat="44.95917" lon="5.72943">
        <ele>785</ele>
        <time>2026-07-05T07:57:37.000Z</time>
      </trkpt>
      <trkpt lat="44.95918" lon="5.72944">
        <ele>785.20001220703</ele>
        <time>2026-07-05T07:57:38.000Z</time>
      </trkpt>
      <trkpt lat="44.95919" lon="5.72945">
        <ele>785</ele>
        <time>2026-07-05T07:57:39.000Z</time>
      </trkpt>
      <trkpt lat="44.9592" lon="5.72948">
        <ele>784.59997558594</ele>
        <time>2026-07-05T07:57:40.000Z</time>
      </trkpt>
      <trkpt lat="44.95921" lon="5.72949">
        <ele>784.40002441406</ele>
        <time>2026-07-05T07:57:41.000Z</time>
      </trkpt>
      <trkpt lat="44.95922" lon="5.7295">
        <ele>784</ele>
        <time>2026-07-05T07:57:42.000Z</time>
      </trkpt>
      <trkpt lat="44.95923" lon="5.72951">
        <ele>783.59997558594</ele>
        <time>2026-07-05T07:57:43.000Z</time>
      </trkpt>
      <trkpt lat="44.95924" lon="5.72953">
        <ele>783.79998779297</ele>
        <time>2026-07-05T07:57:44.000Z</time>
      </trkpt>
      <trkpt lat="44.95925" lon="5.72955">
        <ele>783.79998779297</ele>
        <time>2026-07-05T07:57:45.000Z</time>
      </trkpt>
      <trkpt lat="44.95926" lon="5.72957">
        <ele>784</ele>
        <time>2026-07-05T07:57:46.000Z</time>
      </trkpt>
      <trkpt lat="44.95927" lon="5.72958">
        <ele>784.40002441406</ele>
        <time>2026-07-05T07:57:47.000Z</time>
      </trkpt>
      <trkpt lat="44.95927" lon="5.7296">
        <ele>784.79998779297</ele>
        <time>2026-07-05T07:57:48.000Z</time>
      </trkpt>
      <trkpt lat="44.95928" lon="5.72961">
        <ele>785.20001220703</ele>
        <time>2026-07-05T07:57:49.000Z</time>
      </trkpt>
      <trkpt lat="44.95929" lon="5.72963">
        <ele>785.59997558594</ele>
        <time>2026-07-05T07:57:50.000Z</time>
      </trkpt>
      <trkpt lat="44.95929" lon="5.72965">
        <ele>786.20001220703</ele>
        <time>2026-07-05T07:57:51.000Z</time>
      </trkpt>
      <trkpt lat="44.9593" lon="5.72967">
        <ele>786.59997558594</ele>
        <time>2026-07-05T07:57:52.000Z</time>
      </trkpt>
      <trkpt lat="44.95931" lon="5.72969">
        <ele>786.79998779297</ele>
        <time>2026-07-05T07:57:53.000Z</time>
      </trkpt>
      <trkpt lat="44.95931" lon="5.72971">
        <ele>787.20001220703</ele>
        <time>2026-07-05T07:57:54.000Z</time>
      </trkpt>
      <trkpt lat="44.95932" lon="5.72973">
        <ele>787.40002441406</ele>
        <time>2026-07-05T07:57:55.000Z</time>
      </trkpt>
      <trkpt lat="44.95932" lon="5.72975">
        <ele>787.20001220703</ele>
        <time>2026-07-05T07:57:56.000Z</time>
      </trkpt>
      <trkpt lat="44.95932" lon="5.72977">
        <ele>787</ele>
        <time>2026-07-05T07:57:57.000Z</time>
      </trkpt>
      <trkpt lat="44.95933" lon="5.72979">
        <ele>786.79998779297</ele>
        <time>2026-07-05T07:57:58.000Z</time>
      </trkpt>
      <trkpt lat="44.95933" lon="5.72982">
        <ele>787</ele>
        <time>2026-07-05T07:57:59.000Z</time>
      </trkpt>
      <trkpt lat="44.95933" lon="5.72984">
        <ele>787</ele>
        <time>2026-07-05T07:58:00.000Z</time>
      </trkpt>
      <trkpt lat="44.95934" lon="5.72985">
        <ele>787</ele>
        <time>2026-07-05T07:58:01.000Z</time>
      </trkpt>
      <trkpt lat="44.95934" lon="5.72988">
        <ele>787.40002441406</ele>
        <time>2026-07-05T07:58:02.000Z</time>
      </trkpt>
      <trkpt lat="44.95934" lon="5.7299">
        <ele>788</ele>
        <time>2026-07-05T07:58:03.000Z</time>
      </trkpt>
      <trkpt lat="44.95935" lon="5.72992">
        <ele>788.20001220703</ele>
        <time>2026-07-05T07:58:04.000Z</time>
      </trkpt>
      <trkpt lat="44.95935" lon="5.72994">
        <ele>788.20001220703</ele>
        <time>2026-07-05T07:58:05.000Z</time>
      </trkpt>
      <trkpt lat="44.95935" lon="5.72996">
        <ele>788.59997558594</ele>
        <time>2026-07-05T07:58:06.000Z</time>
      </trkpt>
      <trkpt lat="44.95936" lon="5.72998">
        <ele>788.79998779297</ele>
        <time>2026-07-05T07:58:07.000Z</time>
      </trkpt>
      <trkpt lat="44.95936" lon="5.73001">
        <ele>789</ele>
        <time>2026-07-05T07:58:08.000Z</time>
      </trkpt>
      <trkpt lat="44.95936" lon="5.73003">
        <ele>789.40002441406</ele>
        <time>2026-07-05T07:58:09.000Z</time>
      </trkpt>
      <trkpt lat="44.95937" lon="5.73005">
        <ele>789.59997558594</ele>
        <time>2026-07-05T07:58:10.000Z</time>
      </trkpt>
      <trkpt lat="44.95937" lon="5.73007">
        <ele>790.40002441406</ele>
        <time>2026-07-05T07:58:11.000Z</time>
      </trkpt>
      <trkpt lat="44.95938" lon="5.73009">
        <ele>791.20001220703</ele>
        <time>2026-07-05T07:58:12.000Z</time>
      </trkpt>
      <trkpt lat="44.95938" lon="5.73011">
        <ele>792</ele>
        <time>2026-07-05T07:58:13.000Z</time>
      </trkpt>
      <trkpt lat="44.95939" lon="5.73013">
        <ele>792.59997558594</ele>
        <time>2026-07-05T07:58:14.000Z</time>
      </trkpt>
      <trkpt lat="44.95939" lon="5.73014">
        <ele>793.40002441406</ele>
        <time>2026-07-05T07:58:15.000Z</time>
      </trkpt>
      <trkpt lat="44.9594" lon="5.73016">
        <ele>793.59997558594</ele>
        <time>2026-07-05T07:58:16.000Z</time>
      </trkpt>
      <trkpt lat="44.9594" lon="5.73018">
        <ele>794.59997558594</ele>
        <time>2026-07-05T07:58:17.000Z</time>
      </trkpt>
      <trkpt lat="44.95941" lon="5.7302">
        <ele>795</ele>
        <time>2026-07-05T07:58:18.000Z</time>
      </trkpt>
      <trkpt lat="44.95942" lon="5.73021">
        <ele>795.40002441406</ele>
        <time>2026-07-05T07:58:19.000Z</time>
      </trkpt>
      <trkpt lat="44.95942" lon="5.73023">
        <ele>795.40002441406</ele>
        <time>2026-07-05T07:58:20.000Z</time>
      </trkpt>
      <trkpt lat="44.95942" lon="5.73025">
        <ele>795.59997558594</ele>
        <time>2026-07-05T07:58:21.000Z</time>
      </trkpt>
      <trkpt lat="44.95943" lon="5.73026">
        <ele>795.59997558594</ele>
        <time>2026-07-05T07:58:22.000Z</time>
      </trkpt>
      <trkpt lat="44.95943" lon="5.73028">
        <ele>795.79998779297</ele>
        <time>2026-07-05T07:58:23.000Z</time>
      </trkpt>
      <trkpt lat="44.95943" lon="5.7303">
        <ele>795.79998779297</ele>
        <time>2026-07-05T07:58:24.000Z</time>
      </trkpt>
      <trkpt lat="44.95944" lon="5.73032">
        <ele>795.59997558594</ele>
        <time>2026-07-05T07:58:25.000Z</time>
      </trkpt>
      <trkpt lat="44.95944" lon="5.73034">
        <ele>795.59997558594</ele>
        <time>2026-07-05T07:58:26.000Z</time>
      </trkpt>
      <trkpt lat="44.95945" lon="5.73035">
        <ele>795.59997558594</ele>
        <time>2026-07-05T07:58:27.000Z</time>
      </trkpt>
      <trkpt lat="44.95945" lon="5.73037">
        <ele>795.59997558594</ele>
        <time>2026-07-05T07:58:28.000Z</time>
      </trkpt>
      <trkpt lat="44.95945" lon="5.73039">
        <ele>795.40002441406</ele>
        <time>2026-07-05T07:58:29.000Z</time>
      </trkpt>
      <trkpt lat="44.95946" lon="5.7304">
        <ele>795.59997558594</ele>
        <time>2026-07-05T07:58:30.000Z</time>
      </trkpt>
      <trkpt lat="44.95946" lon="5.73041">
        <ele>796</ele>
        <time>2026-07-05T07:58:31.000Z</time>
      </trkpt>
      <trkpt lat="44.95947" lon="5.73043">
        <ele>796.20001220703</ele>
        <time>2026-07-05T07:58:32.000Z</time>
      </trkpt>
      <trkpt lat="44.95947" lon="5.73045">
        <ele>796.20001220703</ele>
        <time>2026-07-05T07:58:33.000Z</time>
      </trkpt>
      <trkpt lat="44.95947" lon="5.73044">
        <ele>796.40002441406</ele>
        <time>2026-07-05T07:58:34.000Z</time>
      </trkpt>
      <trkpt lat="44.95948" lon="5.73045">
        <ele>796.40002441406</ele>
        <time>2026-07-05T07:58:35.000Z</time>
      </trkpt>
      <trkpt lat="44.95948" lon="5.73047">
        <ele>796.59997558594</ele>
        <time>2026-07-05T07:58:36.000Z</time>
      </trkpt>
      <trkpt lat="44.95949" lon="5.73049">
        <ele>797.40002441406</ele>
        <time>2026-07-05T07:58:37.000Z</time>
      </trkpt>
      <trkpt lat="44.95949" lon="5.73051">
        <ele>798</ele>
        <time>2026-07-05T07:58:38.000Z</time>
      </trkpt>
      <trkpt lat="44.9595" lon="5.73052">
        <ele>798.40002441406</ele>
        <time>2026-07-05T07:58:39.000Z</time>
      </trkpt>
      <trkpt lat="44.9595" lon="5.73054">
        <ele>799</ele>
        <time>2026-07-05T07:58:40.000Z</time>
      </trkpt>
      <trkpt lat="44.95951" lon="5.73055">
        <ele>799.59997558594</ele>
        <time>2026-07-05T07:58:41.000Z</time>
      </trkpt>
      <trkpt lat="44.95952" lon="5.73056">
        <ele>799.79998779297</ele>
        <time>2026-07-05T07:58:42.000Z</time>
      </trkpt>
      <trkpt lat="44.95953" lon="5.73058">
        <ele>799.79998779297</ele>
        <time>2026-07-05T07:58:43.000Z</time>
      </trkpt>
      <trkpt lat="44.95954" lon="5.73059">
        <ele>800</ele>
        <time>2026-07-05T07:58:44.000Z</time>
      </trkpt>
      <trkpt lat="44.95954" lon="5.7306">
        <ele>800</ele>
        <time>2026-07-05T07:58:45.000Z</time>
      </trkpt>
      <trkpt lat="44.95955" lon="5.73061">
        <ele>800</ele>
        <time>2026-07-05T07:58:46.000Z</time>
      </trkpt>
      <trkpt lat="44.95956" lon="5.73062">
        <ele>800.40002441406</ele>
        <time>2026-07-05T07:58:47.000Z</time>
      </trkpt>
      <trkpt lat="44.95956" lon="5.73064">
        <ele>800.59997558594</ele>
        <time>2026-07-05T07:58:48.000Z</time>
      </trkpt>
      <trkpt lat="44.95957" lon="5.73065">
        <ele>800.79998779297</ele>
        <time>2026-07-05T07:58:49.000Z</time>
      </trkpt>
      <trkpt lat="44.95958" lon="5.73066">
        <ele>801.20001220703</ele>
        <time>2026-07-05T07:58:50.000Z</time>
      </trkpt>
      <trkpt lat="44.95959" lon="5.73067">
        <ele>801.40002441406</ele>
        <time>2026-07-05T07:58:51.000Z</time>
      </trkpt>
      <trkpt lat="44.9596" lon="5.73067">
        <ele>801.79998779297</ele>
        <time>2026-07-05T07:58:52.000Z</time>
      </trkpt>
      <trkpt lat="44.95961" lon="5.73068">
        <ele>802</ele>
        <time>2026-07-05T07:58:53.000Z</time>
      </trkpt>
      <trkpt lat="44.95961" lon="5.73069">
        <ele>802.20001220703</ele>
        <time>2026-07-05T07:58:54.000Z</time>
      </trkpt>
      <trkpt lat="44.95963" lon="5.73071">
        <ele>802.20001220703</ele>
        <time>2026-07-05T07:58:55.000Z</time>
      </trkpt>
      <trkpt lat="44.95964" lon="5.73072">
        <ele>802.40002441406</ele>
        <time>2026-07-05T07:58:56.000Z</time>
      </trkpt>
      <trkpt lat="44.95964" lon="5.73074">
        <ele>802.40002441406</ele>
        <time>2026-07-05T07:58:57.000Z</time>
      </trkpt>
      <trkpt lat="44.95965" lon="5.73076">
        <ele>802.40002441406</ele>
        <time>2026-07-05T07:58:58.000Z</time>
      </trkpt>
      <trkpt lat="44.95966" lon="5.73079">
        <ele>802.40002441406</ele>
        <time>2026-07-05T07:58:59.000Z</time>
      </trkpt>
      <trkpt lat="44.95966" lon="5.73081">
        <ele>802</ele>
        <time>2026-07-05T07:59:00.000Z</time>
      </trkpt>
      <trkpt lat="44.95967" lon="5.73084">
        <ele>802</ele>
        <time>2026-07-05T07:59:01.000Z</time>
      </trkpt>
      <trkpt lat="44.95967" lon="5.73087">
        <ele>802</ele>
        <time>2026-07-05T07:59:02.000Z</time>
      </trkpt>
      <trkpt lat="44.95967" lon="5.73089">
        <ele>802</ele>
        <time>2026-07-05T07:59:03.000Z</time>
      </trkpt>
      <trkpt lat="44.95967" lon="5.73092">
        <ele>802.20001220703</ele>
        <time>2026-07-05T07:59:04.000Z</time>
      </trkpt>
      <trkpt lat="44.95967" lon="5.73095">
        <ele>803.20001220703</ele>
        <time>2026-07-05T07:59:05.000Z</time>
      </trkpt>
      <trkpt lat="44.95968" lon="5.73098">
        <ele>804.40002441406</ele>
        <time>2026-07-05T07:59:06.000Z</time>
      </trkpt>
      <trkpt lat="44.95968" lon="5.731">
        <ele>805</ele>
        <time>2026-07-05T07:59:07.000Z</time>
      </trkpt>
      <trkpt lat="44.95969" lon="5.73104">
        <ele>805.79998779297</ele>
        <time>2026-07-05T07:59:08.000Z</time>
      </trkpt>
      <trkpt lat="44.95969" lon="5.73106">
        <ele>806.20001220703</ele>
        <time>2026-07-05T07:59:09.000Z</time>
      </trkpt>
      <trkpt lat="44.9597" lon="5.73109">
        <ele>807.40002441406</ele>
        <time>2026-07-05T07:59:10.000Z</time>
      </trkpt>
      <trkpt lat="44.9597" lon="5.73112">
        <ele>807.79998779297</ele>
        <time>2026-07-05T07:59:11.000Z</time>
      </trkpt>
      <trkpt lat="44.9597" lon="5.73115">
        <ele>807.79998779297</ele>
        <time>2026-07-05T07:59:12.000Z</time>
      </trkpt>
      <trkpt lat="44.95971" lon="5.73118">
        <ele>807.79998779297</ele>
        <time>2026-07-05T07:59:13.000Z</time>
      </trkpt>
      <trkpt lat="44.95972" lon="5.73121">
        <ele>807.79998779297</ele>
        <time>2026-07-05T07:59:14.000Z</time>
      </trkpt>
      <trkpt lat="44.95973" lon="5.73124">
        <ele>807.59997558594</ele>
        <time>2026-07-05T07:59:15.000Z</time>
      </trkpt>
      <trkpt lat="44.95974" lon="5.73127">
        <ele>807.59997558594</ele>
        <time>2026-07-05T07:59:16.000Z</time>
      </trkpt>
      <trkpt lat="44.95974" lon="5.7313">
        <ele>807.59997558594</ele>
        <time>2026-07-05T07:59:17.000Z</time>
      </trkpt>
      <trkpt lat="44.95975" lon="5.73133">
        <ele>807</ele>
        <time>2026-07-05T07:59:18.000Z</time>
      </trkpt>
      <trkpt lat="44.95976" lon="5.73136">
        <ele>806.40002441406</ele>
        <time>2026-07-05T07:59:19.000Z</time>
      </trkpt>
      <trkpt lat="44.95977" lon="5.73139">
        <ele>806.20001220703</ele>
        <time>2026-07-05T07:59:20.000Z</time>
      </trkpt>
      <trkpt lat="44.95978" lon="5.73142">
        <ele>806</ele>
        <time>2026-07-05T07:59:21.000Z</time>
      </trkpt>
      <trkpt lat="44.95979" lon="5.73146">
        <ele>805.59997558594</ele>
        <time>2026-07-05T07:59:22.000Z</time>
      </trkpt>
      <trkpt lat="44.95979" lon="5.73149">
        <ele>804.40002441406</ele>
        <time>2026-07-05T07:59:23.000Z</time>
      </trkpt>
      <trkpt lat="44.95979" lon="5.73153">
        <ele>804</ele>
        <time>2026-07-05T07:59:24.000Z</time>
      </trkpt>
      <trkpt lat="44.95979" lon="5.73157">
        <ele>803.59997558594</ele>
        <time>2026-07-05T07:59:25.000Z</time>
      </trkpt>
      <trkpt lat="44.95978" lon="5.7316">
        <ele>803.40002441406</ele>
        <time>2026-07-05T07:59:26.000Z</time>
      </trkpt>
      <trkpt lat="44.95978" lon="5.73163">
        <ele>803</ele>
        <time>2026-07-05T07:59:27.000Z</time>
      </trkpt>
      <trkpt lat="44.95978" lon="5.73167">
        <ele>802.59997558594</ele>
        <time>2026-07-05T07:59:28.000Z</time>
      </trkpt>
      <trkpt lat="44.95978" lon="5.73171">
        <ele>803</ele>
        <time>2026-07-05T07:59:29.000Z</time>
      </trkpt>
      <trkpt lat="44.95977" lon="5.73175">
        <ele>803.20001220703</ele>
        <time>2026-07-05T07:59:30.000Z</time>
      </trkpt>
      <trkpt lat="44.95976" lon="5.73179">
        <ele>803.20001220703</ele>
        <time>2026-07-05T07:59:31.000Z</time>
      </trkpt>
      <trkpt lat="44.95975" lon="5.73183">
        <ele>803.20001220703</ele>
        <time>2026-07-05T07:59:32.000Z</time>
      </trkpt>
      <trkpt lat="44.95974" lon="5.73186">
        <ele>803.20001220703</ele>
        <time>2026-07-05T07:59:33.000Z</time>
      </trkpt>
      <trkpt lat="44.95973" lon="5.73191">
        <ele>803.20001220703</ele>
        <time>2026-07-05T07:59:34.000Z</time>
      </trkpt>
      <trkpt lat="44.95972" lon="5.73194">
        <ele>802.79998779297</ele>
        <time>2026-07-05T07:59:35.000Z</time>
      </trkpt>
      <trkpt lat="44.95971" lon="5.73198">
        <ele>802.59997558594</ele>
        <time>2026-07-05T07:59:36.000Z</time>
      </trkpt>
      <trkpt lat="44.9597" lon="5.73202">
        <ele>802.40002441406</ele>
        <time>2026-07-05T07:59:37.000Z</time>
      </trkpt>
      <trkpt lat="44.9597" lon="5.73206">
        <ele>802</ele>
        <time>2026-07-05T07:59:38.000Z</time>
      </trkpt>
      <trkpt lat="44.9597" lon="5.7321">
        <ele>802</ele>
        <time>2026-07-05T07:59:39.000Z</time>
      </trkpt>
      <trkpt lat="44.95969" lon="5.73213">
        <ele>801.79998779297</ele>
        <time>2026-07-05T07:59:40.000Z</time>
      </trkpt>
      <trkpt lat="44.95969" lon="5.73217">
        <ele>801.79998779297</ele>
        <time>2026-07-05T07:59:41.000Z</time>
      </trkpt>
      <trkpt lat="44.95967" lon="5.73219">
        <ele>801.59997558594</ele>
        <time>2026-07-05T07:59:42.000Z</time>
      </trkpt>
      <trkpt lat="44.95966" lon="5.73222">
        <ele>801.59997558594</ele>
        <time>2026-07-05T07:59:43.000Z</time>
      </trkpt>
      <trkpt lat="44.95965" lon="5.73226">
        <ele>801.59997558594</ele>
        <time>2026-07-05T07:59:44.000Z</time>
      </trkpt>
      <trkpt lat="44.95963" lon="5.73229">
        <ele>801.59997558594</ele>
        <time>2026-07-05T07:59:45.000Z</time>
      </trkpt>
      <trkpt lat="44.95961" lon="5.73233">
        <ele>801.40002441406</ele>
        <time>2026-07-05T07:59:46.000Z</time>
      </trkpt>
      <trkpt lat="44.9596" lon="5.73236">
        <ele>801</ele>
        <time>2026-07-05T07:59:47.000Z</time>
      </trkpt>
      <trkpt lat="44.95958" lon="5.7324">
        <ele>800.79998779297</ele>
        <time>2026-07-05T07:59:48.000Z</time>
      </trkpt>
      <trkpt lat="44.95957" lon="5.73244">
        <ele>800.59997558594</ele>
        <time>2026-07-05T07:59:49.000Z</time>
      </trkpt>
      <trkpt lat="44.95956" lon="5.73247">
        <ele>800.79998779297</ele>
        <time>2026-07-05T07:59:50.000Z</time>
      </trkpt>
      <trkpt lat="44.95955" lon="5.73252">
        <ele>802</ele>
        <time>2026-07-05T07:59:51.000Z</time>
      </trkpt>
      <trkpt lat="44.95954" lon="5.73256">
        <ele>802.79998779297</ele>
        <time>2026-07-05T07:59:52.000Z</time>
      </trkpt>
      <trkpt lat="44.95953" lon="5.73259">
        <ele>802.79998779297</ele>
        <time>2026-07-05T07:59:53.000Z</time>
      </trkpt>
      <trkpt lat="44.9595" lon="5.73263">
        <ele>802.79998779297</ele>
        <time>2026-07-05T07:59:54.000Z</time>
      </trkpt>
      <trkpt lat="44.95949" lon="5.73265">
        <ele>802.59997558594</ele>
        <time>2026-07-05T07:59:55.000Z</time>
      </trkpt>
      <trkpt lat="44.95947" lon="5.73268">
        <ele>802.59997558594</ele>
        <time>2026-07-05T07:59:56.000Z</time>
      </trkpt>
      <trkpt lat="44.95945" lon="5.73271">
        <ele>800.59997558594</ele>
        <time>2026-07-05T07:59:57.000Z</time>
      </trkpt>
      <trkpt lat="44.95943" lon="5.73274">
        <ele>798.79998779297</ele>
        <time>2026-07-05T07:59:58.000Z</time>
      </trkpt>
      <trkpt lat="44.95939" lon="5.73277">
        <ele>797</ele>
        <time>2026-07-05T07:59:59.000Z</time>
      </trkpt>
      <trkpt lat="44.95936" lon="5.73279">
        <ele>796.20001220703</ele>
        <time>2026-07-05T08:00:00.000Z</time>
      </trkpt>
      <trkpt lat="44.95934" lon="5.73282">
        <ele>795.20001220703</ele>
        <time>2026-07-05T08:00:01.000Z</time>
      </trkpt>
      <trkpt lat="44.95932" lon="5.73285">
        <ele>794.40002441406</ele>
        <time>2026-07-05T08:00:02.000Z</time>
      </trkpt>
      <trkpt lat="44.95929" lon="5.73287">
        <ele>794.20001220703</ele>
        <time>2026-07-05T08:00:03.000Z</time>
      </trkpt>
      <trkpt lat="44.95926" lon="5.73289">
        <ele>793.79998779297</ele>
        <time>2026-07-05T08:00:04.000Z</time>
      </trkpt>
      <trkpt lat="44.95924" lon="5.73292">
        <ele>793.79998779297</ele>
        <time>2026-07-05T08:00:05.000Z</time>
      </trkpt>
      <trkpt lat="44.95921" lon="5.73295">
        <ele>793.59997558594</ele>
        <time>2026-07-05T08:00:06.000Z</time>
      </trkpt>
      <trkpt lat="44.95919" lon="5.73296">
        <ele>793.40002441406</ele>
        <time>2026-07-05T08:00:07.000Z</time>
      </trkpt>
      <trkpt lat="44.95917" lon="5.73298">
        <ele>792.79998779297</ele>
        <time>2026-07-05T08:00:08.000Z</time>
      </trkpt>
      <trkpt lat="44.95915" lon="5.733">
        <ele>792.40002441406</ele>
        <time>2026-07-05T08:00:09.000Z</time>
      </trkpt>
      <trkpt lat="44.95912" lon="5.73303">
        <ele>792.20001220703</ele>
        <time>2026-07-05T08:00:10.000Z</time>
      </trkpt>
      <trkpt lat="44.9591" lon="5.73306">
        <ele>791.40002441406</ele>
        <time>2026-07-05T08:00:11.000Z</time>
      </trkpt>
      <trkpt lat="44.95908" lon="5.73309">
        <ele>790.79998779297</ele>
        <time>2026-07-05T08:00:12.000Z</time>
      </trkpt>
      <trkpt lat="44.95906" lon="5.73312">
        <ele>790.40002441406</ele>
        <time>2026-07-05T08:00:13.000Z</time>
      </trkpt>
      <trkpt lat="44.95904" lon="5.73315">
        <ele>790</ele>
        <time>2026-07-05T08:00:14.000Z</time>
      </trkpt>
      <trkpt lat="44.95902" lon="5.73318">
        <ele>789.59997558594</ele>
        <time>2026-07-05T08:00:15.000Z</time>
      </trkpt>
      <trkpt lat="44.959" lon="5.73321">
        <ele>789</ele>
        <time>2026-07-05T08:00:16.000Z</time>
      </trkpt>
      <trkpt lat="44.95899" lon="5.73324">
        <ele>788.40002441406</ele>
        <time>2026-07-05T08:00:17.000Z</time>
      </trkpt>
      <trkpt lat="44.95897" lon="5.73327">
        <ele>788.20001220703</ele>
        <time>2026-07-05T08:00:18.000Z</time>
      </trkpt>
      <trkpt lat="44.95896" lon="5.73331">
        <ele>788</ele>
        <time>2026-07-05T08:00:19.000Z</time>
      </trkpt>
      <trkpt lat="44.95895" lon="5.73334">
        <ele>787.59997558594</ele>
        <time>2026-07-05T08:00:20.000Z</time>
      </trkpt>
      <trkpt lat="44.95894" lon="5.73338">
        <ele>787.40002441406</ele>
        <time>2026-07-05T08:00:21.000Z</time>
      </trkpt>
      <trkpt lat="44.95892" lon="5.73342">
        <ele>787.20001220703</ele>
        <time>2026-07-05T08:00:22.000Z</time>
      </trkpt>
      <trkpt lat="44.95891" lon="5.73346">
        <ele>786.79998779297</ele>
        <time>2026-07-05T08:00:23.000Z</time>
      </trkpt>
      <trkpt lat="44.9589" lon="5.7335">
        <ele>786.40002441406</ele>
        <time>2026-07-05T08:00:24.000Z</time>
      </trkpt>
      <trkpt lat="44.95889" lon="5.73354">
        <ele>786</ele>
        <time>2026-07-05T08:00:25.000Z</time>
      </trkpt>
      <trkpt lat="44.95887" lon="5.73358">
        <ele>785.59997558594</ele>
        <time>2026-07-05T08:00:26.000Z</time>
      </trkpt>
      <trkpt lat="44.95886" lon="5.73362">
        <ele>785.40002441406</ele>
        <time>2026-07-05T08:00:27.000Z</time>
      </trkpt>
      <trkpt lat="44.95885" lon="5.73366">
        <ele>785.20001220703</ele>
        <time>2026-07-05T08:00:28.000Z</time>
      </trkpt>
      <trkpt lat="44.95883" lon="5.73369">
        <ele>785</ele>
        <time>2026-07-05T08:00:29.000Z</time>
      </trkpt>
      <trkpt lat="44.95882" lon="5.73373">
        <ele>784.59997558594</ele>
        <time>2026-07-05T08:00:30.000Z</time>
      </trkpt>
      <trkpt lat="44.95881" lon="5.73377">
        <ele>784.59997558594</ele>
        <time>2026-07-05T08:00:31.000Z</time>
      </trkpt>
      <trkpt lat="44.9588" lon="5.73381">
        <ele>784.40002441406</ele>
        <time>2026-07-05T08:00:32.000Z</time>
      </trkpt>
      <trkpt lat="44.95878" lon="5.73386">
        <ele>784.20001220703</ele>
        <time>2026-07-05T08:00:33.000Z</time>
      </trkpt>
      <trkpt lat="44.95877" lon="5.73389">
        <ele>784</ele>
        <time>2026-07-05T08:00:34.000Z</time>
      </trkpt>
      <trkpt lat="44.95876" lon="5.73394">
        <ele>783.40002441406</ele>
        <time>2026-07-05T08:00:35.000Z</time>
      </trkpt>
      <trkpt lat="44.95876" lon="5.73398">
        <ele>783.40002441406</ele>
        <time>2026-07-05T08:00:36.000Z</time>
      </trkpt>
      <trkpt lat="44.95875" lon="5.73402">
        <ele>783.40002441406</ele>
        <time>2026-07-05T08:00:37.000Z</time>
      </trkpt>
      <trkpt lat="44.95874" lon="5.73405">
        <ele>783.40002441406</ele>
        <time>2026-07-05T08:00:38.000Z</time>
      </trkpt>
      <trkpt lat="44.95873" lon="5.73409">
        <ele>783.59997558594</ele>
        <time>2026-07-05T08:00:39.000Z</time>
      </trkpt>
      <trkpt lat="44.95872" lon="5.73413">
        <ele>783.79998779297</ele>
        <time>2026-07-05T08:00:40.000Z</time>
      </trkpt>
      <trkpt lat="44.95871" lon="5.73416">
        <ele>784</ele>
        <time>2026-07-05T08:00:41.000Z</time>
      </trkpt>
      <trkpt lat="44.95869" lon="5.7342">
        <ele>784.40002441406</ele>
        <time>2026-07-05T08:00:42.000Z</time>
      </trkpt>
      <trkpt lat="44.95868" lon="5.73423">
        <ele>784.59997558594</ele>
        <time>2026-07-05T08:00:43.000Z</time>
      </trkpt>
      <trkpt lat="44.95867" lon="5.73427">
        <ele>784.59997558594</ele>
        <time>2026-07-05T08:00:44.000Z</time>
      </trkpt>
      <trkpt lat="44.95865" lon="5.7343">
        <ele>784.79998779297</ele>
        <time>2026-07-05T08:00:45.000Z</time>
      </trkpt>
      <trkpt lat="44.95864" lon="5.73433">
        <ele>784.79998779297</ele>
        <time>2026-07-05T08:00:46.000Z</time>
      </trkpt>
      <trkpt lat="44.95863" lon="5.73437">
        <ele>784.59997558594</ele>
        <time>2026-07-05T08:00:47.000Z</time>
      </trkpt>
      <trkpt lat="44.95863" lon="5.73441">
        <ele>784.59997558594</ele>
        <time>2026-07-05T08:00:48.000Z</time>
      </trkpt>
      <trkpt lat="44.95862" lon="5.73444">
        <ele>784.40002441406</ele>
        <time>2026-07-05T08:00:49.000Z</time>
      </trkpt>
      <trkpt lat="44.95862" lon="5.73448">
        <ele>784.40002441406</ele>
        <time>2026-07-05T08:00:50.000Z</time>
      </trkpt>
      <trkpt lat="44.95861" lon="5.73451">
        <ele>784.20001220703</ele>
        <time>2026-07-05T08:00:51.000Z</time>
      </trkpt>
      <trkpt lat="44.95861" lon="5.73455">
        <ele>784.20001220703</ele>
        <time>2026-07-05T08:00:52.000Z</time>
      </trkpt>
      <trkpt lat="44.95861" lon="5.73458">
        <ele>784</ele>
        <time>2026-07-05T08:00:53.000Z</time>
      </trkpt>
      <trkpt lat="44.95861" lon="5.73462">
        <ele>784</ele>
        <time>2026-07-05T08:00:54.000Z</time>
      </trkpt>
      <trkpt lat="44.95861" lon="5.73466">
        <ele>783.79998779297</ele>
        <time>2026-07-05T08:00:55.000Z</time>
      </trkpt>
      <trkpt lat="44.9586" lon="5.73469">
        <ele>783.59997558594</ele>
        <time>2026-07-05T08:00:56.000Z</time>
      </trkpt>
      <trkpt lat="44.9586" lon="5.73474">
        <ele>783.40002441406</ele>
        <time>2026-07-05T08:00:57.000Z</time>
      </trkpt>
      <trkpt lat="44.9586" lon="5.73477">
        <ele>783.20001220703</ele>
        <time>2026-07-05T08:00:58.000Z</time>
      </trkpt>
      <trkpt lat="44.9586" lon="5.73481">
        <ele>783.20001220703</ele>
        <time>2026-07-05T08:00:59.000Z</time>
      </trkpt>
      <trkpt lat="44.9586" lon="5.73485">
        <ele>783.20001220703</ele>
        <time>2026-07-05T08:01:00.000Z</time>
      </trkpt>
      <trkpt lat="44.95859" lon="5.73489">
        <ele>783</ele>
        <time>2026-07-05T08:01:01.000Z</time>
      </trkpt>
      <trkpt lat="44.95858" lon="5.73493">
        <ele>783</ele>
        <time>2026-07-05T08:01:02.000Z</time>
      </trkpt>
      <trkpt lat="44.95856" lon="5.73496">
        <ele>783</ele>
        <time>2026-07-05T08:01:03.000Z</time>
      </trkpt>
      <trkpt lat="44.95853" lon="5.735">
        <ele>783</ele>
        <time>2026-07-05T08:01:04.000Z</time>
      </trkpt>
      <trkpt lat="44.95851" lon="5.73502">
        <ele>782.79998779297</ele>
        <time>2026-07-05T08:01:05.000Z</time>
      </trkpt>
      <trkpt lat="44.95848" lon="5.73506">
        <ele>782.40002441406</ele>
        <time>2026-07-05T08:01:06.000Z</time>
      </trkpt>
      <trkpt lat="44.95846" lon="5.73508">
        <ele>782.20001220703</ele>
        <time>2026-07-05T08:01:07.000Z</time>
      </trkpt>
      <trkpt lat="44.95843" lon="5.73511">
        <ele>782</ele>
        <time>2026-07-05T08:01:08.000Z</time>
      </trkpt>
      <trkpt lat="44.9584" lon="5.73514">
        <ele>781.59997558594</ele>
        <time>2026-07-05T08:01:09.000Z</time>
      </trkpt>
      <trkpt lat="44.95838" lon="5.73516">
        <ele>781.20001220703</ele>
        <time>2026-07-05T08:01:10.000Z</time>
      </trkpt>
      <trkpt lat="44.95836" lon="5.73519">
        <ele>781</ele>
        <time>2026-07-05T08:01:11.000Z</time>
      </trkpt>
      <trkpt lat="44.95834" lon="5.73522">
        <ele>781</ele>
        <time>2026-07-05T08:01:12.000Z</time>
      </trkpt>
      <trkpt lat="44.95831" lon="5.73526">
        <ele>780.79998779297</ele>
        <time>2026-07-05T08:01:13.000Z</time>
      </trkpt>
      <trkpt lat="44.95829" lon="5.73529">
        <ele>780.40002441406</ele>
        <time>2026-07-05T08:01:14.000Z</time>
      </trkpt>
      <trkpt lat="44.95827" lon="5.73532">
        <ele>780.40002441406</ele>
        <time>2026-07-05T08:01:15.000Z</time>
      </trkpt>
      <trkpt lat="44.95825" lon="5.73535">
        <ele>780</ele>
        <time>2026-07-05T08:01:16.000Z</time>
      </trkpt>
      <trkpt lat="44.95823" lon="5.73539">
        <ele>779.79998779297</ele>
        <time>2026-07-05T08:01:17.000Z</time>
      </trkpt>
      <trkpt lat="44.95821" lon="5.73542">
        <ele>779.40002441406</ele>
        <time>2026-07-05T08:01:18.000Z</time>
      </trkpt>
      <trkpt lat="44.95819" lon="5.73545">
        <ele>779.20001220703</ele>
        <time>2026-07-05T08:01:19.000Z</time>
      </trkpt>
      <trkpt lat="44.95817" lon="5.73548">
        <ele>778.79998779297</ele>
        <time>2026-07-05T08:01:20.000Z</time>
      </trkpt>
      <trkpt lat="44.95815" lon="5.73551">
        <ele>778.59997558594</ele>
        <time>2026-07-05T08:01:21.000Z</time>
      </trkpt>
      <trkpt lat="44.95813" lon="5.73554">
        <ele>778.59997558594</ele>
        <time>2026-07-05T08:01:22.000Z</time>
      </trkpt>
      <trkpt lat="44.95811" lon="5.73557">
        <ele>778.40002441406</ele>
        <time>2026-07-05T08:01:23.000Z</time>
      </trkpt>
      <trkpt lat="44.9581" lon="5.73561">
        <ele>778</ele>
        <time>2026-07-05T08:01:24.000Z</time>
      </trkpt>
      <trkpt lat="44.95808" lon="5.73564">
        <ele>777.79998779297</ele>
        <time>2026-07-05T08:01:25.000Z</time>
      </trkpt>
      <trkpt lat="44.95807" lon="5.73568">
        <ele>777.79998779297</ele>
        <time>2026-07-05T08:01:26.000Z</time>
      </trkpt>
      <trkpt lat="44.95805" lon="5.73571">
        <ele>777.59997558594</ele>
        <time>2026-07-05T08:01:27.000Z</time>
      </trkpt>
      <trkpt lat="44.95804" lon="5.73574">
        <ele>777.40002441406</ele>
        <time>2026-07-05T08:01:28.000Z</time>
      </trkpt>
      <trkpt lat="44.95803" lon="5.73578">
        <ele>777.40002441406</ele>
        <time>2026-07-05T08:01:29.000Z</time>
      </trkpt>
      <trkpt lat="44.95801" lon="5.73581">
        <ele>777.20001220703</ele>
        <time>2026-07-05T08:01:30.000Z</time>
      </trkpt>
      <trkpt lat="44.958" lon="5.73584">
        <ele>777</ele>
        <time>2026-07-05T08:01:31.000Z</time>
      </trkpt>
      <trkpt lat="44.95797" lon="5.73588">
        <ele>776.79998779297</ele>
        <time>2026-07-05T08:01:32.000Z</time>
      </trkpt>
      <trkpt lat="44.95796" lon="5.73591">
        <ele>776.59997558594</ele>
        <time>2026-07-05T08:01:33.000Z</time>
      </trkpt>
      <trkpt lat="44.95794" lon="5.73595">
        <ele>776.40002441406</ele>
        <time>2026-07-05T08:01:34.000Z</time>
      </trkpt>
      <trkpt lat="44.95792" lon="5.73598">
        <ele>776.20001220703</ele>
        <time>2026-07-05T08:01:35.000Z</time>
      </trkpt>
      <trkpt lat="44.95791" lon="5.73602">
        <ele>776</ele>
        <time>2026-07-05T08:01:36.000Z</time>
      </trkpt>
      <trkpt lat="44.95789" lon="5.73605">
        <ele>775.79998779297</ele>
        <time>2026-07-05T08:01:37.000Z</time>
      </trkpt>
      <trkpt lat="44.95787" lon="5.73608">
        <ele>775.79998779297</ele>
        <time>2026-07-05T08:01:38.000Z</time>
      </trkpt>
      <trkpt lat="44.95785" lon="5.73611">
        <ele>775.59997558594</ele>
        <time>2026-07-05T08:01:39.000Z</time>
      </trkpt>
      <trkpt lat="44.95784" lon="5.73614">
        <ele>775.59997558594</ele>
        <time>2026-07-05T08:01:40.000Z</time>
      </trkpt>
      <trkpt lat="44.95782" lon="5.73618">
        <ele>775.59997558594</ele>
        <time>2026-07-05T08:01:41.000Z</time>
      </trkpt>
      <trkpt lat="44.95779" lon="5.7362">
        <ele>775.59997558594</ele>
        <time>2026-07-05T08:01:42.000Z</time>
      </trkpt>
      <trkpt lat="44.95777" lon="5.73623">
        <ele>775.59997558594</ele>
        <time>2026-07-05T08:01:43.000Z</time>
      </trkpt>
      <trkpt lat="44.95775" lon="5.73625">
        <ele>775.59997558594</ele>
        <time>2026-07-05T08:01:44.000Z</time>
      </trkpt>
      <trkpt lat="44.95773" lon="5.73627">
        <ele>775.59997558594</ele>
        <time>2026-07-05T08:01:45.000Z</time>
      </trkpt>
      <trkpt lat="44.9577" lon="5.73629">
        <ele>775.79998779297</ele>
        <time>2026-07-05T08:01:46.000Z</time>
      </trkpt>
      <trkpt lat="44.95768" lon="5.73631">
        <ele>775.79998779297</ele>
        <time>2026-07-05T08:01:47.000Z</time>
      </trkpt>
      <trkpt lat="44.95766" lon="5.73633">
        <ele>775.79998779297</ele>
        <time>2026-07-05T08:01:48.000Z</time>
      </trkpt>
      <trkpt lat="44.95764" lon="5.73635">
        <ele>776</ele>
        <time>2026-07-05T08:01:49.000Z</time>
      </trkpt>
      <trkpt lat="44.95762" lon="5.73638">
        <ele>776</ele>
        <time>2026-07-05T08:01:50.000Z</time>
      </trkpt>
      <trkpt lat="44.95759" lon="5.73641">
        <ele>776</ele>
        <time>2026-07-05T08:01:51.000Z</time>
      </trkpt>
      <trkpt lat="44.95756" lon="5.73644">
        <ele>775.79998779297</ele>
        <time>2026-07-05T08:01:52.000Z</time>
      </trkpt>
      <trkpt lat="44.95754" lon="5.73646">
        <ele>775.79998779297</ele>
        <time>2026-07-05T08:01:53.000Z</time>
      </trkpt>
      <trkpt lat="44.95751" lon="5.73648">
        <ele>775.79998779297</ele>
        <time>2026-07-05T08:01:54.000Z</time>
      </trkpt>
      <trkpt lat="44.9575" lon="5.7365">
        <ele>776</ele>
        <time>2026-07-05T08:01:55.000Z</time>
      </trkpt>
      <trkpt lat="44.95748" lon="5.73652">
        <ele>776</ele>
        <time>2026-07-05T08:01:56.000Z</time>
      </trkpt>
      <trkpt lat="44.95746" lon="5.73654">
        <ele>776.40002441406</ele>
        <time>2026-07-05T08:01:57.000Z</time>
      </trkpt>
      <trkpt lat="44.95743" lon="5.73655">
        <ele>776.59997558594</ele>
        <time>2026-07-05T08:01:58.000Z</time>
      </trkpt>
      <trkpt lat="44.95741" lon="5.73657">
        <ele>776.79998779297</ele>
        <time>2026-07-05T08:01:59.000Z</time>
      </trkpt>
      <trkpt lat="44.95739" lon="5.73659">
        <ele>776.79998779297</ele>
        <time>2026-07-05T08:02:00.000Z</time>
      </trkpt>
      <trkpt lat="44.95736" lon="5.7366">
        <ele>777</ele>
        <time>2026-07-05T08:02:01.000Z</time>
      </trkpt>
      <trkpt lat="44.95733" lon="5.73661">
        <ele>777</ele>
        <time>2026-07-05T08:02:02.000Z</time>
      </trkpt>
      <trkpt lat="44.95731" lon="5.73662">
        <ele>777.20001220703</ele>
        <time>2026-07-05T08:02:03.000Z</time>
      </trkpt>
      <trkpt lat="44.95728" lon="5.73663">
        <ele>777.20001220703</ele>
        <time>2026-07-05T08:02:04.000Z</time>
      </trkpt>
      <trkpt lat="44.95725" lon="5.73664">
        <ele>777.40002441406</ele>
        <time>2026-07-05T08:02:05.000Z</time>
      </trkpt>
      <trkpt lat="44.95722" lon="5.73665">
        <ele>777.40002441406</ele>
        <time>2026-07-05T08:02:06.000Z</time>
      </trkpt>
      <trkpt lat="44.9572" lon="5.73665">
        <ele>777.40002441406</ele>
        <time>2026-07-05T08:02:07.000Z</time>
      </trkpt>
      <trkpt lat="44.95717" lon="5.73665">
        <ele>777.40002441406</ele>
        <time>2026-07-05T08:02:08.000Z</time>
      </trkpt>
      <trkpt lat="44.95714" lon="5.73665">
        <ele>777.40002441406</ele>
        <time>2026-07-05T08:02:09.000Z</time>
      </trkpt>
      <trkpt lat="44.95712" lon="5.73664">
        <ele>777.40002441406</ele>
        <time>2026-07-05T08:02:10.000Z</time>
      </trkpt>
      <trkpt lat="44.9571" lon="5.73662">
        <ele>777.40002441406</ele>
        <time>2026-07-05T08:02:11.000Z</time>
      </trkpt>
      <trkpt lat="44.95709" lon="5.73659">
        <ele>777.59997558594</ele>
        <time>2026-07-05T08:02:12.000Z</time>
      </trkpt>
      <trkpt lat="44.95708" lon="5.73656">
        <ele>777.79998779297</ele>
        <time>2026-07-05T08:02:13.000Z</time>
      </trkpt>
      <trkpt lat="44.95708" lon="5.73653">
        <ele>778.20001220703</ele>
        <time>2026-07-05T08:02:14.000Z</time>
      </trkpt>
      <trkpt lat="44.95707" lon="5.7365">
        <ele>778.40002441406</ele>
        <time>2026-07-05T08:02:15.000Z</time>
      </trkpt>
      <trkpt lat="44.95707" lon="5.73647">
        <ele>778.40002441406</ele>
        <time>2026-07-05T08:02:16.000Z</time>
      </trkpt>
      <trkpt lat="44.95706" lon="5.73644">
        <ele>778.59997558594</ele>
        <time>2026-07-05T08:02:17.000Z</time>
      </trkpt>
      <trkpt lat="44.95705" lon="5.73641">
        <ele>778.79998779297</ele>
        <time>2026-07-05T08:02:18.000Z</time>
      </trkpt>
      <trkpt lat="44.95704" lon="5.73639">
        <ele>779.20001220703</ele>
        <time>2026-07-05T08:02:19.000Z</time>
      </trkpt>
      <trkpt lat="44.95704" lon="5.73636">
        <ele>779.59997558594</ele>
        <time>2026-07-05T08:02:20.000Z</time>
      </trkpt>
      <trkpt lat="44.95703" lon="5.73633">
        <ele>779.79998779297</ele>
        <time>2026-07-05T08:02:21.000Z</time>
      </trkpt>
      <trkpt lat="44.95702" lon="5.73631">
        <ele>780</ele>
        <time>2026-07-05T08:02:22.000Z</time>
      </trkpt>
      <trkpt lat="44.95702" lon="5.73627">
        <ele>780.20001220703</ele>
        <time>2026-07-05T08:02:23.000Z</time>
      </trkpt>
      <trkpt lat="44.95701" lon="5.73625">
        <ele>780.20001220703</ele>
        <time>2026-07-05T08:02:24.000Z</time>
      </trkpt>
      <trkpt lat="44.957" lon="5.73622">
        <ele>780.40002441406</ele>
        <time>2026-07-05T08:02:25.000Z</time>
      </trkpt>
      <trkpt lat="44.957" lon="5.7362">
        <ele>780.59997558594</ele>
        <time>2026-07-05T08:02:26.000Z</time>
      </trkpt>
      <trkpt lat="44.957" lon="5.73619">
        <ele>780.79998779297</ele>
        <time>2026-07-05T08:02:27.000Z</time>
      </trkpt>
      <trkpt lat="44.95699" lon="5.73617">
        <ele>781.20001220703</ele>
        <time>2026-07-05T08:02:28.000Z</time>
      </trkpt>
      <trkpt lat="44.95699" lon="5.73614">
        <ele>781.40002441406</ele>
        <time>2026-07-05T08:02:29.000Z</time>
      </trkpt>
      <trkpt lat="44.95699" lon="5.73612">
        <ele>781.79998779297</ele>
        <time>2026-07-05T08:02:30.000Z</time>
      </trkpt>
      <trkpt lat="44.95699" lon="5.73611">
        <ele>782</ele>
        <time>2026-07-05T08:02:31.000Z</time>
      </trkpt>
      <trkpt lat="44.95699" lon="5.7361">
        <ele>782.20001220703</ele>
        <time>2026-07-05T08:02:32.000Z</time>
      </trkpt>
      <trkpt lat="44.95698" lon="5.73608">
        <ele>782.40002441406</ele>
        <time>2026-07-05T08:02:33.000Z</time>
      </trkpt>
      <trkpt lat="44.95698" lon="5.73606">
        <ele>782.59997558594</ele>
        <time>2026-07-05T08:02:34.000Z</time>
      </trkpt>
      <trkpt lat="44.95697" lon="5.73604">
        <ele>782.79998779297</ele>
        <time>2026-07-05T08:02:35.000Z</time>
      </trkpt>
      <trkpt lat="44.95696" lon="5.73602">
        <ele>783.20001220703</ele>
        <time>2026-07-05T08:02:36.000Z</time>
      </trkpt>
      <trkpt lat="44.95695" lon="5.73601">
        <ele>783.40002441406</ele>
        <time>2026-07-05T08:02:37.000Z</time>
      </trkpt>
      <trkpt lat="44.95694" lon="5.73599">
        <ele>783.59997558594</ele>
        <time>2026-07-05T08:02:38.000Z</time>
      </trkpt>
      <trkpt lat="44.95694" lon="5.73597">
        <ele>784</ele>
        <time>2026-07-05T08:02:39.000Z</time>
      </trkpt>
      <trkpt lat="44.95693" lon="5.73595">
        <ele>784.20001220703</ele>
        <time>2026-07-05T08:02:40.000Z</time>
      </trkpt>
      <trkpt lat="44.95692" lon="5.73593">
        <ele>784.59997558594</ele>
        <time>2026-07-05T08:02:41.000Z</time>
      </trkpt>
      <trkpt lat="44.95691" lon="5.73591">
        <ele>784.79998779297</ele>
        <time>2026-07-05T08:02:42.000Z</time>
      </trkpt>
      <trkpt lat="44.9569" lon="5.73589">
        <ele>784.79998779297</ele>
        <time>2026-07-05T08:02:43.000Z</time>
      </trkpt>
      <trkpt lat="44.95689" lon="5.73587">
        <ele>785</ele>
        <time>2026-07-05T08:02:44.000Z</time>
      </trkpt>
      <trkpt lat="44.95688" lon="5.73586">
        <ele>785.20001220703</ele>
        <time>2026-07-05T08:02:45.000Z</time>
      </trkpt>
      <trkpt lat="44.95688" lon="5.73584">
        <ele>785.59997558594</ele>
        <time>2026-07-05T08:02:46.000Z</time>
      </trkpt>
      <trkpt lat="44.95687" lon="5.73581">
        <ele>785.79998779297</ele>
        <time>2026-07-05T08:02:47.000Z</time>
      </trkpt>
      <trkpt lat="44.95686" lon="5.7358">
        <ele>786.20001220703</ele>
        <time>2026-07-05T08:02:48.000Z</time>
      </trkpt>
      <trkpt lat="44.95686" lon="5.73578">
        <ele>786.20001220703</ele>
        <time>2026-07-05T08:02:49.000Z</time>
      </trkpt>
      <trkpt lat="44.95685" lon="5.73576">
        <ele>786.40002441406</ele>
        <time>2026-07-05T08:02:50.000Z</time>
      </trkpt>
      <trkpt lat="44.95684" lon="5.73574">
        <ele>786.40002441406</ele>
        <time>2026-07-05T08:02:51.000Z</time>
      </trkpt>
      <trkpt lat="44.95683" lon="5.73572">
        <ele>786.59997558594</ele>
        <time>2026-07-05T08:02:52.000Z</time>
      </trkpt>
      <trkpt lat="44.95682" lon="5.7357">
        <ele>786.79998779297</ele>
        <time>2026-07-05T08:02:53.000Z</time>
      </trkpt>
      <trkpt lat="44.95682" lon="5.73568">
        <ele>787</ele>
        <time>2026-07-05T08:02:54.000Z</time>
      </trkpt>
      <trkpt lat="44.95682" lon="5.73566">
        <ele>787.20001220703</ele>
        <time>2026-07-05T08:02:55.000Z</time>
      </trkpt>
      <trkpt lat="44.95681" lon="5.73564">
        <ele>787.40002441406</ele>
        <time>2026-07-05T08:02:56.000Z</time>
      </trkpt>
      <trkpt lat="44.9568" lon="5.73562">
        <ele>787.59997558594</ele>
        <time>2026-07-05T08:02:57.000Z</time>
      </trkpt>
      <trkpt lat="44.9568" lon="5.73561">
        <ele>788</ele>
        <time>2026-07-05T08:02:58.000Z</time>
      </trkpt>
      <trkpt lat="44.95679" lon="5.73559">
        <ele>788.20001220703</ele>
        <time>2026-07-05T08:02:59.000Z</time>
      </trkpt>
      <trkpt lat="44.95679" lon="5.73557">
        <ele>788.40002441406</ele>
        <time>2026-07-05T08:03:00.000Z</time>
      </trkpt>
      <trkpt lat="44.95679" lon="5.73555">
        <ele>788.59997558594</ele>
        <time>2026-07-05T08:03:01.000Z</time>
      </trkpt>
      <trkpt lat="44.95678" lon="5.73553">
        <ele>788.79998779297</ele>
        <time>2026-07-05T08:03:02.000Z</time>
      </trkpt>
      <trkpt lat="44.95677" lon="5.73551">
        <ele>789</ele>
        <time>2026-07-05T08:03:03.000Z</time>
      </trkpt>
      <trkpt lat="44.95677" lon="5.73549">
        <ele>789.20001220703</ele>
        <time>2026-07-05T08:03:04.000Z</time>
      </trkpt>
      <trkpt lat="44.95676" lon="5.73547">
        <ele>789.40002441406</ele>
        <time>2026-07-05T08:03:05.000Z</time>
      </trkpt>
      <trkpt lat="44.95676" lon="5.73545">
        <ele>789.59997558594</ele>
        <time>2026-07-05T08:03:06.000Z</time>
      </trkpt>
      <trkpt lat="44.95675" lon="5.73543">
        <ele>789.79998779297</ele>
        <time>2026-07-05T08:03:07.000Z</time>
      </trkpt>
      <trkpt lat="44.95675" lon="5.73541">
        <ele>790.20001220703</ele>
        <time>2026-07-05T08:03:08.000Z</time>
      </trkpt>
      <trkpt lat="44.95674" lon="5.7354">
        <ele>790.20001220703</ele>
        <time>2026-07-05T08:03:09.000Z</time>
      </trkpt>
      <trkpt lat="44.95674" lon="5.73538">
        <ele>790.40002441406</ele>
        <time>2026-07-05T08:03:10.000Z</time>
      </trkpt>
      <trkpt lat="44.95674" lon="5.73537">
        <ele>790.59997558594</ele>
        <time>2026-07-05T08:03:11.000Z</time>
      </trkpt>
      <trkpt lat="44.95674" lon="5.73535">
        <ele>790.79998779297</ele>
        <time>2026-07-05T08:03:12.000Z</time>
      </trkpt>
      <trkpt lat="44.95673" lon="5.73533">
        <ele>791</ele>
        <time>2026-07-05T08:03:13.000Z</time>
      </trkpt>
      <trkpt lat="44.95673" lon="5.73531">
        <ele>791.20001220703</ele>
        <time>2026-07-05T08:03:14.000Z</time>
      </trkpt>
      <trkpt lat="44.95672" lon="5.7353">
        <ele>791.40002441406</ele>
        <time>2026-07-05T08:03:15.000Z</time>
      </trkpt>
      <trkpt lat="44.95672" lon="5.73528">
        <ele>791.59997558594</ele>
        <time>2026-07-05T08:03:16.000Z</time>
      </trkpt>
      <trkpt lat="44.95672" lon="5.73527">
        <ele>791.79998779297</ele>
        <time>2026-07-05T08:03:17.000Z</time>
      </trkpt>
      <trkpt lat="44.95671" lon="5.73525">
        <ele>792</ele>
        <time>2026-07-05T08:03:18.000Z</time>
      </trkpt>
      <trkpt lat="44.95671" lon="5.73523">
        <ele>792.20001220703</ele>
        <time>2026-07-05T08:03:19.000Z</time>
      </trkpt>
      <trkpt lat="44.95671" lon="5.73521">
        <ele>792.40002441406</ele>
        <time>2026-07-05T08:03:20.000Z</time>
      </trkpt>
      <trkpt lat="44.9567" lon="5.73519">
        <ele>792.59997558594</ele>
        <time>2026-07-05T08:03:21.000Z</time>
      </trkpt>
      <trkpt lat="44.9567" lon="5.73517">
        <ele>792.79998779297</ele>
        <time>2026-07-05T08:03:22.000Z</time>
      </trkpt>
      <trkpt lat="44.9567" lon="5.73515">
        <ele>793</ele>
        <time>2026-07-05T08:03:23.000Z</time>
      </trkpt>
      <trkpt lat="44.95669" lon="5.73513">
        <ele>793.40002441406</ele>
        <time>2026-07-05T08:03:24.000Z</time>
      </trkpt>
      <trkpt lat="44.95669" lon="5.73511">
        <ele>793.59997558594</ele>
        <time>2026-07-05T08:03:25.000Z</time>
      </trkpt>
      <trkpt lat="44.95668" lon="5.73509">
        <ele>793.79998779297</ele>
        <time>2026-07-05T08:03:26.000Z</time>
      </trkpt>
      <trkpt lat="44.95667" lon="5.73507">
        <ele>794</ele>
        <time>2026-07-05T08:03:27.000Z</time>
      </trkpt>
      <trkpt lat="44.95667" lon="5.73505">
        <ele>794.40002441406</ele>
        <time>2026-07-05T08:03:28.000Z</time>
      </trkpt>
      <trkpt lat="44.95666" lon="5.73502">
        <ele>794.40002441406</ele>
        <time>2026-07-05T08:03:29.000Z</time>
      </trkpt>
      <trkpt lat="44.95665" lon="5.735">
        <ele>794.59997558594</ele>
        <time>2026-07-05T08:03:30.000Z</time>
      </trkpt>
      <trkpt lat="44.95665" lon="5.73499">
        <ele>794.79998779297</ele>
        <time>2026-07-05T08:03:31.000Z</time>
      </trkpt>
      <trkpt lat="44.95665" lon="5.73497">
        <ele>795.20001220703</ele>
        <time>2026-07-05T08:03:32.000Z</time>
      </trkpt>
      <trkpt lat="44.95664" lon="5.73495">
        <ele>795.40002441406</ele>
        <time>2026-07-05T08:03:33.000Z</time>
      </trkpt>
      <trkpt lat="44.95664" lon="5.73493">
        <ele>795.59997558594</ele>
        <time>2026-07-05T08:03:34.000Z</time>
      </trkpt>
      <trkpt lat="44.95663" lon="5.73491">
        <ele>795.79998779297</ele>
        <time>2026-07-05T08:03:35.000Z</time>
      </trkpt>
      <trkpt lat="44.95662" lon="5.73488">
        <ele>795.79998779297</ele>
        <time>2026-07-05T08:03:36.000Z</time>
      </trkpt>
      <trkpt lat="44.95661" lon="5.73487">
        <ele>796</ele>
        <time>2026-07-05T08:03:37.000Z</time>
      </trkpt>
      <trkpt lat="44.95661" lon="5.73485">
        <ele>796.20001220703</ele>
        <time>2026-07-05T08:03:38.000Z</time>
      </trkpt>
      <trkpt lat="44.9566" lon="5.73484">
        <ele>796.40002441406</ele>
        <time>2026-07-05T08:03:39.000Z</time>
      </trkpt>
      <trkpt lat="44.9566" lon="5.73483">
        <ele>796.59997558594</ele>
        <time>2026-07-05T08:03:40.000Z</time>
      </trkpt>
      <trkpt lat="44.95659" lon="5.73481">
        <ele>796.79998779297</ele>
        <time>2026-07-05T08:03:41.000Z</time>
      </trkpt>
      <trkpt lat="44.95658" lon="5.73479">
        <ele>797.20001220703</ele>
        <time>2026-07-05T08:03:42.000Z</time>
      </trkpt>
      <trkpt lat="44.95658" lon="5.73477">
        <ele>797.40002441406</ele>
        <time>2026-07-05T08:03:43.000Z</time>
      </trkpt>
      <trkpt lat="44.95657" lon="5.73475">
        <ele>797.59997558594</ele>
        <time>2026-07-05T08:03:44.000Z</time>
      </trkpt>
      <trkpt lat="44.95656" lon="5.73473">
        <ele>798</ele>
        <time>2026-07-05T08:03:45.000Z</time>
      </trkpt>
      <trkpt lat="44.95655" lon="5.73471">
        <ele>798.20001220703</ele>
        <time>2026-07-05T08:03:46.000Z</time>
      </trkpt>
      <trkpt lat="44.95654" lon="5.7347">
        <ele>798.20001220703</ele>
        <time>2026-07-05T08:03:47.000Z</time>
      </trkpt>
      <trkpt lat="44.95653" lon="5.73469">
        <ele>798.40002441406</ele>
        <time>2026-07-05T08:03:48.000Z</time>
      </trkpt>
      <trkpt lat="44.95653" lon="5.73467">
        <ele>798.59997558594</ele>
        <time>2026-07-05T08:03:49.000Z</time>
      </trkpt>
      <trkpt lat="44.95652" lon="5.73465">
        <ele>799</ele>
        <time>2026-07-05T08:03:50.000Z</time>
      </trkpt>
      <trkpt lat="44.95651" lon="5.73463">
        <ele>799</ele>
        <time>2026-07-05T08:03:51.000Z</time>
      </trkpt>
      <trkpt lat="44.9565" lon="5.73462">
        <ele>799.20001220703</ele>
        <time>2026-07-05T08:03:52.000Z</time>
      </trkpt>
      <trkpt lat="44.95649" lon="5.7346">
        <ele>799.40002441406</ele>
        <time>2026-07-05T08:03:53.000Z</time>
      </trkpt>
      <trkpt lat="44.95648" lon="5.73459">
        <ele>799.59997558594</ele>
        <time>2026-07-05T08:03:54.000Z</time>
      </trkpt>
      <trkpt lat="44.95646" lon="5.73457">
        <ele>800</ele>
        <time>2026-07-05T08:03:55.000Z</time>
      </trkpt>
      <trkpt lat="44.95645" lon="5.73456">
        <ele>800.20001220703</ele>
        <time>2026-07-05T08:03:56.000Z</time>
      </trkpt>
      <trkpt lat="44.95644" lon="5.73455">
        <ele>800.40002441406</ele>
        <time>2026-07-05T08:03:57.000Z</time>
      </trkpt>
      <trkpt lat="44.95643" lon="5.73453">
        <ele>800.59997558594</ele>
        <time>2026-07-05T08:03:58.000Z</time>
      </trkpt>
      <trkpt lat="44.95641" lon="5.73452">
        <ele>800.79998779297</ele>
        <time>2026-07-05T08:03:59.000Z</time>
      </trkpt>
      <trkpt lat="44.9564" lon="5.73451">
        <ele>801</ele>
        <time>2026-07-05T08:04:00.000Z</time>
      </trkpt>
      <trkpt lat="44.95639" lon="5.7345">
        <ele>801.40002441406</ele>
        <time>2026-07-05T08:04:01.000Z</time>
      </trkpt>
      <trkpt lat="44.95638" lon="5.73449">
        <ele>801.59997558594</ele>
        <time>2026-07-05T08:04:02.000Z</time>
      </trkpt>
      <trkpt lat="44.95637" lon="5.73448">
        <ele>801.79998779297</ele>
        <time>2026-07-05T08:04:03.000Z</time>
      </trkpt>
      <trkpt lat="44.95636" lon="5.73447">
        <ele>802</ele>
        <time>2026-07-05T08:04:04.000Z</time>
      </trkpt>
      <trkpt lat="44.95635" lon="5.73445">
        <ele>802.20001220703</ele>
        <time>2026-07-05T08:04:05.000Z</time>
      </trkpt>
      <trkpt lat="44.95634" lon="5.73444">
        <ele>802.59997558594</ele>
        <time>2026-07-05T08:04:06.000Z</time>
      </trkpt>
      <trkpt lat="44.95632" lon="5.73443">
        <ele>802.79998779297</ele>
        <time>2026-07-05T08:04:07.000Z</time>
      </trkpt>
      <trkpt lat="44.95631" lon="5.73442">
        <ele>803</ele>
        <time>2026-07-05T08:04:08.000Z</time>
      </trkpt>
      <trkpt lat="44.95629" lon="5.7344">
        <ele>803</ele>
        <time>2026-07-05T08:04:09.000Z</time>
      </trkpt>
      <trkpt lat="44.95628" lon="5.73439">
        <ele>803.20001220703</ele>
        <time>2026-07-05T08:04:10.000Z</time>
      </trkpt>
      <trkpt lat="44.95626" lon="5.73437">
        <ele>803.40002441406</ele>
        <time>2026-07-05T08:04:11.000Z</time>
      </trkpt>
      <trkpt lat="44.95625" lon="5.73436">
        <ele>803.40002441406</ele>
        <time>2026-07-05T08:04:12.000Z</time>
      </trkpt>
      <trkpt lat="44.95623" lon="5.73436">
        <ele>803.59997558594</ele>
        <time>2026-07-05T08:04:13.000Z</time>
      </trkpt>
      <trkpt lat="44.95622" lon="5.73435">
        <ele>803.59997558594</ele>
        <time>2026-07-05T08:04:14.000Z</time>
      </trkpt>
      <trkpt lat="44.95621" lon="5.73436">
        <ele>803.79998779297</ele>
        <time>2026-07-05T08:04:15.000Z</time>
      </trkpt>
      <trkpt lat="44.9562" lon="5.73436">
        <ele>803.79998779297</ele>
        <time>2026-07-05T08:04:16.000Z</time>
      </trkpt>
      <trkpt lat="44.95618" lon="5.73437">
        <ele>804</ele>
        <time>2026-07-05T08:04:17.000Z</time>
      </trkpt>
      <trkpt lat="44.95616" lon="5.73438">
        <ele>804.20001220703</ele>
        <time>2026-07-05T08:04:18.000Z</time>
      </trkpt>
      <trkpt lat="44.95616" lon="5.7344">
        <ele>804.40002441406</ele>
        <time>2026-07-05T08:04:19.000Z</time>
      </trkpt>
      <trkpt lat="44.95616" lon="5.73442">
        <ele>804.59997558594</ele>
        <time>2026-07-05T08:04:20.000Z</time>
      </trkpt>
      <trkpt lat="44.95616" lon="5.73444">
        <ele>804.79998779297</ele>
        <time>2026-07-05T08:04:21.000Z</time>
      </trkpt>
      <trkpt lat="44.95616" lon="5.73446">
        <ele>805</ele>
        <time>2026-07-05T08:04:22.000Z</time>
      </trkpt>
      <trkpt lat="44.95616" lon="5.73449">
        <ele>805.40002441406</ele>
        <time>2026-07-05T08:04:23.000Z</time>
      </trkpt>
      <trkpt lat="44.95617" lon="5.73451">
        <ele>805.59997558594</ele>
        <time>2026-07-05T08:04:24.000Z</time>
      </trkpt>
      <trkpt lat="44.95617" lon="5.73453">
        <ele>805.59997558594</ele>
        <time>2026-07-05T08:04:25.000Z</time>
      </trkpt>
      <trkpt lat="44.95617" lon="5.73455">
        <ele>805.79998779297</ele>
        <time>2026-07-05T08:04:26.000Z</time>
      </trkpt>
      <trkpt lat="44.95618" lon="5.73457">
        <ele>806</ele>
        <time>2026-07-05T08:04:27.000Z</time>
      </trkpt>
      <trkpt lat="44.95618" lon="5.7346">
        <ele>806.20001220703</ele>
        <time>2026-07-05T08:04:28.000Z</time>
      </trkpt>
      <trkpt lat="44.95618" lon="5.73462">
        <ele>806.20001220703</ele>
        <time>2026-07-05T08:04:29.000Z</time>
      </trkpt>
      <trkpt lat="44.95619" lon="5.73464">
        <ele>806.59997558594</ele>
        <time>2026-07-05T08:04:30.000Z</time>
      </trkpt>
      <trkpt lat="44.95619" lon="5.73467">
        <ele>806.79998779297</ele>
        <time>2026-07-05T08:04:31.000Z</time>
      </trkpt>
      <trkpt lat="44.95619" lon="5.7347">
        <ele>807</ele>
        <time>2026-07-05T08:04:32.000Z</time>
      </trkpt>
      <trkpt lat="44.95619" lon="5.73472">
        <ele>807</ele>
        <time>2026-07-05T08:04:33.000Z</time>
      </trkpt>
      <trkpt lat="44.95619" lon="5.73475">
        <ele>807.20001220703</ele>
        <time>2026-07-05T08:04:34.000Z</time>
      </trkpt>
      <trkpt lat="44.95619" lon="5.73478">
        <ele>807.40002441406</ele>
        <time>2026-07-05T08:04:35.000Z</time>
      </trkpt>
      <trkpt lat="44.95619" lon="5.7348">
        <ele>807.59997558594</ele>
        <time>2026-07-05T08:04:36.000Z</time>
      </trkpt>
      <trkpt lat="44.95619" lon="5.73483">
        <ele>807.59997558594</ele>
        <time>2026-07-05T08:04:37.000Z</time>
      </trkpt>
      <trkpt lat="44.95619" lon="5.73486">
        <ele>807.79998779297</ele>
        <time>2026-07-05T08:04:38.000Z</time>
      </trkpt>
      <trkpt lat="44.95619" lon="5.73488">
        <ele>808.20001220703</ele>
        <time>2026-07-05T08:04:39.000Z</time>
      </trkpt>
      <trkpt lat="44.95619" lon="5.73492">
        <ele>808.59997558594</ele>
        <time>2026-07-05T08:04:40.000Z</time>
      </trkpt>
      <trkpt lat="44.95619" lon="5.73495">
        <ele>808.79998779297</ele>
        <time>2026-07-05T08:04:41.000Z</time>
      </trkpt>
      <trkpt lat="44.95619" lon="5.73497">
        <ele>809.20001220703</ele>
        <time>2026-07-05T08:04:42.000Z</time>
      </trkpt>
      <trkpt lat="44.95619" lon="5.735">
        <ele>809.40002441406</ele>
        <time>2026-07-05T08:04:43.000Z</time>
      </trkpt>
      <trkpt lat="44.95619" lon="5.73502">
        <ele>809.40002441406</ele>
        <time>2026-07-05T08:04:44.000Z</time>
      </trkpt>
      <trkpt lat="44.95619" lon="5.73505">
        <ele>809.79998779297</ele>
        <time>2026-07-05T08:04:45.000Z</time>
      </trkpt>
      <trkpt lat="44.95618" lon="5.73508">
        <ele>810</ele>
        <time>2026-07-05T08:04:46.000Z</time>
      </trkpt>
      <trkpt lat="44.95618" lon="5.73511">
        <ele>810.20001220703</ele>
        <time>2026-07-05T08:04:47.000Z</time>
      </trkpt>
      <trkpt lat="44.95618" lon="5.73514">
        <ele>810.20001220703</ele>
        <time>2026-07-05T08:04:48.000Z</time>
      </trkpt>
      <trkpt lat="44.95617" lon="5.73517">
        <ele>810.40002441406</ele>
        <time>2026-07-05T08:04:49.000Z</time>
      </trkpt>
      <trkpt lat="44.95617" lon="5.7352">
        <ele>810.59997558594</ele>
        <time>2026-07-05T08:04:50.000Z</time>
      </trkpt>
      <trkpt lat="44.95617" lon="5.73523">
        <ele>810.79998779297</ele>
        <time>2026-07-05T08:04:51.000Z</time>
      </trkpt>
      <trkpt lat="44.95616" lon="5.73526">
        <ele>810.79998779297</ele>
        <time>2026-07-05T08:04:52.000Z</time>
      </trkpt>
      <trkpt lat="44.95616" lon="5.73529">
        <ele>810.79998779297</ele>
        <time>2026-07-05T08:04:53.000Z</time>
      </trkpt>
      <trkpt lat="44.95616" lon="5.73532">
        <ele>810.79998779297</ele>
        <time>2026-07-05T08:04:54.000Z</time>
      </trkpt>
      <trkpt lat="44.95615" lon="5.73536">
        <ele>810.79998779297</ele>
        <time>2026-07-05T08:04:55.000Z</time>
      </trkpt>
      <trkpt lat="44.95615" lon="5.73539">
        <ele>810.79998779297</ele>
        <time>2026-07-05T08:04:56.000Z</time>
      </trkpt>
      <trkpt lat="44.95615" lon="5.73542">
        <ele>810.79998779297</ele>
        <time>2026-07-05T08:04:57.000Z</time>
      </trkpt>
      <trkpt lat="44.95615" lon="5.73545">
        <ele>810.79998779297</ele>
        <time>2026-07-05T08:04:58.000Z</time>
      </trkpt>
      <trkpt lat="44.95614" lon="5.73548">
        <ele>811</ele>
        <time>2026-07-05T08:04:59.000Z</time>
      </trkpt>
      <trkpt lat="44.95614" lon="5.73551">
        <ele>811</ele>
        <time>2026-07-05T08:05:00.000Z</time>
      </trkpt>
      <trkpt lat="44.95614" lon="5.73554">
        <ele>811.20001220703</ele>
        <time>2026-07-05T08:05:01.000Z</time>
      </trkpt>
      <trkpt lat="44.95614" lon="5.73558">
        <ele>811.20001220703</ele>
        <time>2026-07-05T08:05:02.000Z</time>
      </trkpt>
      <trkpt lat="44.95613" lon="5.73561">
        <ele>811.20001220703</ele>
        <time>2026-07-05T08:05:03.000Z</time>
      </trkpt>
      <trkpt lat="44.95613" lon="5.73564">
        <ele>811.40002441406</ele>
        <time>2026-07-05T08:05:04.000Z</time>
      </trkpt>
      <trkpt lat="44.95613" lon="5.73567">
        <ele>811.40002441406</ele>
        <time>2026-07-05T08:05:05.000Z</time>
      </trkpt>
      <trkpt lat="44.95613" lon="5.73571">
        <ele>811.40002441406</ele>
        <time>2026-07-05T08:05:06.000Z</time>
      </trkpt>
      <trkpt lat="44.95613" lon="5.73573">
        <ele>811.59997558594</ele>
        <time>2026-07-05T08:05:07.000Z</time>
      </trkpt>
      <trkpt lat="44.95613" lon="5.73576">
        <ele>812</ele>
        <time>2026-07-05T08:05:08.000Z</time>
      </trkpt>
      <trkpt lat="44.95613" lon="5.7358">
        <ele>812.20001220703</ele>
        <time>2026-07-05T08:05:09.000Z</time>
      </trkpt>
      <trkpt lat="44.95613" lon="5.73583">
        <ele>812.40002441406</ele>
        <time>2026-07-05T08:05:10.000Z</time>
      </trkpt>
      <trkpt lat="44.95613" lon="5.73586">
        <ele>812</ele>
        <time>2026-07-05T08:05:11.000Z</time>
      </trkpt>
      <trkpt lat="44.95613" lon="5.73589">
        <ele>812.20001220703</ele>
        <time>2026-07-05T08:05:12.000Z</time>
      </trkpt>
      <trkpt lat="44.95613" lon="5.73592">
        <ele>812.20001220703</ele>
        <time>2026-07-05T08:05:13.000Z</time>
      </trkpt>
      <trkpt lat="44.95613" lon="5.73595">
        <ele>812.40002441406</ele>
        <time>2026-07-05T08:05:14.000Z</time>
      </trkpt>
      <trkpt lat="44.95613" lon="5.73598">
        <ele>812.40002441406</ele>
        <time>2026-07-05T08:05:15.000Z</time>
      </trkpt>
      <trkpt lat="44.95613" lon="5.73601">
        <ele>812.40002441406</ele>
        <time>2026-07-05T08:05:16.000Z</time>
      </trkpt>
      <trkpt lat="44.95613" lon="5.73605">
        <ele>812.40002441406</ele>
        <time>2026-07-05T08:05:17.000Z</time>
      </trkpt>
      <trkpt lat="44.95613" lon="5.73608">
        <ele>812.40002441406</ele>
        <time>2026-07-05T08:05:18.000Z</time>
      </trkpt>
      <trkpt lat="44.95613" lon="5.73611">
        <ele>812.40002441406</ele>
        <time>2026-07-05T08:05:19.000Z</time>
      </trkpt>
      <trkpt lat="44.95612" lon="5.73614">
        <ele>812.40002441406</ele>
        <time>2026-07-05T08:05:20.000Z</time>
      </trkpt>
      <trkpt lat="44.95612" lon="5.73617">
        <ele>812.59997558594</ele>
        <time>2026-07-05T08:05:21.000Z</time>
      </trkpt>
      <trkpt lat="44.95611" lon="5.7362">
        <ele>812.59997558594</ele>
        <time>2026-07-05T08:05:22.000Z</time>
      </trkpt>
      <trkpt lat="44.95611" lon="5.73623">
        <ele>812.79998779297</ele>
        <time>2026-07-05T08:05:23.000Z</time>
      </trkpt>
      <trkpt lat="44.95611" lon="5.73627">
        <ele>812.79998779297</ele>
        <time>2026-07-05T08:05:24.000Z</time>
      </trkpt>
      <trkpt lat="44.9561" lon="5.7363">
        <ele>813</ele>
        <time>2026-07-05T08:05:25.000Z</time>
      </trkpt>
      <trkpt lat="44.9561" lon="5.73633">
        <ele>813</ele>
        <time>2026-07-05T08:05:26.000Z</time>
      </trkpt>
      <trkpt lat="44.95609" lon="5.73636">
        <ele>813.20001220703</ele>
        <time>2026-07-05T08:05:27.000Z</time>
      </trkpt>
      <trkpt lat="44.95609" lon="5.73639">
        <ele>813.40002441406</ele>
        <time>2026-07-05T08:05:28.000Z</time>
      </trkpt>
      <trkpt lat="44.95609" lon="5.73642">
        <ele>813.40002441406</ele>
        <time>2026-07-05T08:05:29.000Z</time>
      </trkpt>
      <trkpt lat="44.95608" lon="5.73644">
        <ele>813.59997558594</ele>
        <time>2026-07-05T08:05:30.000Z</time>
      </trkpt>
      <trkpt lat="44.95607" lon="5.73647">
        <ele>813.79998779297</ele>
        <time>2026-07-05T08:05:31.000Z</time>
      </trkpt>
      <trkpt lat="44.95607" lon="5.73649">
        <ele>814</ele>
        <time>2026-07-05T08:05:32.000Z</time>
      </trkpt>
      <trkpt lat="44.95607" lon="5.73652">
        <ele>814.20001220703</ele>
        <time>2026-07-05T08:05:33.000Z</time>
      </trkpt>
      <trkpt lat="44.95606" lon="5.73654">
        <ele>814.40002441406</ele>
        <time>2026-07-05T08:05:34.000Z</time>
      </trkpt>
      <trkpt lat="44.95606" lon="5.73657">
        <ele>814.59997558594</ele>
        <time>2026-07-05T08:05:35.000Z</time>
      </trkpt>
      <trkpt lat="44.95605" lon="5.73659">
        <ele>814.79998779297</ele>
        <time>2026-07-05T08:05:36.000Z</time>
      </trkpt>
      <trkpt lat="44.95605" lon="5.73661">
        <ele>815</ele>
        <time>2026-07-05T08:05:37.000Z</time>
      </trkpt>
      <trkpt lat="44.95604" lon="5.73662">
        <ele>815.20001220703</ele>
        <time>2026-07-05T08:05:38.000Z</time>
      </trkpt>
      <trkpt lat="44.95604" lon="5.73665">
        <ele>815.40002441406</ele>
        <time>2026-07-05T08:05:39.000Z</time>
      </trkpt>
      <trkpt lat="44.95603" lon="5.73667">
        <ele>815.40002441406</ele>
        <time>2026-07-05T08:05:40.000Z</time>
      </trkpt>
      <trkpt lat="44.95603" lon="5.7367">
        <ele>815.59997558594</ele>
        <time>2026-07-05T08:05:41.000Z</time>
      </trkpt>
      <trkpt lat="44.95603" lon="5.73672">
        <ele>815.79998779297</ele>
        <time>2026-07-05T08:05:42.000Z</time>
      </trkpt>
      <trkpt lat="44.95603" lon="5.73674">
        <ele>816</ele>
        <time>2026-07-05T08:05:43.000Z</time>
      </trkpt>
      <trkpt lat="44.95602" lon="5.73676">
        <ele>816.20001220703</ele>
        <time>2026-07-05T08:05:44.000Z</time>
      </trkpt>
      <trkpt lat="44.95601" lon="5.73679">
        <ele>816.40002441406</ele>
        <time>2026-07-05T08:05:45.000Z</time>
      </trkpt>
      <trkpt lat="44.956" lon="5.73682">
        <ele>816.59997558594</ele>
        <time>2026-07-05T08:05:46.000Z</time>
      </trkpt>
      <trkpt lat="44.95599" lon="5.73684">
        <ele>816.79998779297</ele>
        <time>2026-07-05T08:05:47.000Z</time>
      </trkpt>
      <trkpt lat="44.95599" lon="5.73687">
        <ele>817.20001220703</ele>
        <time>2026-07-05T08:05:48.000Z</time>
      </trkpt>
      <trkpt lat="44.95598" lon="5.7369">
        <ele>817.40002441406</ele>
        <time>2026-07-05T08:05:49.000Z</time>
      </trkpt>
      <trkpt lat="44.95597" lon="5.73692">
        <ele>817.79998779297</ele>
        <time>2026-07-05T08:05:50.000Z</time>
      </trkpt>
      <trkpt lat="44.95596" lon="5.73694">
        <ele>818.20001220703</ele>
        <time>2026-07-05T08:05:51.000Z</time>
      </trkpt>
      <trkpt lat="44.95596" lon="5.73696">
        <ele>818.59997558594</ele>
        <time>2026-07-05T08:05:52.000Z</time>
      </trkpt>
      <trkpt lat="44.95595" lon="5.73699">
        <ele>819</ele>
        <time>2026-07-05T08:05:53.000Z</time>
      </trkpt>
      <trkpt lat="44.95594" lon="5.737">
        <ele>819.40002441406</ele>
        <time>2026-07-05T08:05:54.000Z</time>
      </trkpt>
      <trkpt lat="44.95594" lon="5.73702">
        <ele>819.79998779297</ele>
        <time>2026-07-05T08:05:55.000Z</time>
      </trkpt>
      <trkpt lat="44.95593" lon="5.73704">
        <ele>820</ele>
        <time>2026-07-05T08:05:56.000Z</time>
      </trkpt>
      <trkpt lat="44.95592" lon="5.73707">
        <ele>820.40002441406</ele>
        <time>2026-07-05T08:05:57.000Z</time>
      </trkpt>
      <trkpt lat="44.95592" lon="5.73709">
        <ele>820.59997558594</ele>
        <time>2026-07-05T08:05:58.000Z</time>
      </trkpt>
      <trkpt lat="44.95592" lon="5.73711">
        <ele>821</ele>
        <time>2026-07-05T08:05:59.000Z</time>
      </trkpt>
      <trkpt lat="44.95592" lon="5.73713">
        <ele>821.20001220703</ele>
        <time>2026-07-05T08:06:00.000Z</time>
      </trkpt>
      <trkpt lat="44.95592" lon="5.73716">
        <ele>821.40002441406</ele>
        <time>2026-07-05T08:06:01.000Z</time>
      </trkpt>
      <trkpt lat="44.95592" lon="5.73718">
        <ele>821.59997558594</ele>
        <time>2026-07-05T08:06:02.000Z</time>
      </trkpt>
      <trkpt lat="44.95592" lon="5.7372">
        <ele>821.79998779297</ele>
        <time>2026-07-05T08:06:03.000Z</time>
      </trkpt>
      <trkpt lat="44.95591" lon="5.73722">
        <ele>821.79998779297</ele>
        <time>2026-07-05T08:06:04.000Z</time>
      </trkpt>
      <trkpt lat="44.95591" lon="5.73724">
        <ele>822</ele>
        <time>2026-07-05T08:06:05.000Z</time>
      </trkpt>
      <trkpt lat="44.95591" lon="5.73726">
        <ele>822.20001220703</ele>
        <time>2026-07-05T08:06:06.000Z</time>
      </trkpt>
      <trkpt lat="44.95591" lon="5.73728">
        <ele>822.20001220703</ele>
        <time>2026-07-05T08:06:07.000Z</time>
      </trkpt>
      <trkpt lat="44.9559" lon="5.73729">
        <ele>822.40002441406</ele>
        <time>2026-07-05T08:06:08.000Z</time>
      </trkpt>
      <trkpt lat="44.9559" lon="5.73731">
        <ele>822.59997558594</ele>
        <time>2026-07-05T08:06:09.000Z</time>
      </trkpt>
      <trkpt lat="44.95589" lon="5.73733">
        <ele>823</ele>
        <time>2026-07-05T08:06:10.000Z</time>
      </trkpt>
      <trkpt lat="44.95589" lon="5.73735">
        <ele>823.20001220703</ele>
        <time>2026-07-05T08:06:11.000Z</time>
      </trkpt>
      <trkpt lat="44.95588" lon="5.73737">
        <ele>823.20001220703</ele>
        <time>2026-07-05T08:06:12.000Z</time>
      </trkpt>
      <trkpt lat="44.95588" lon="5.73739">
        <ele>823.40002441406</ele>
        <time>2026-07-05T08:06:13.000Z</time>
      </trkpt>
      <trkpt lat="44.95587" lon="5.73741">
        <ele>823.59997558594</ele>
        <time>2026-07-05T08:06:14.000Z</time>
      </trkpt>
      <trkpt lat="44.95587" lon="5.73744">
        <ele>824</ele>
        <time>2026-07-05T08:06:15.000Z</time>
      </trkpt>
      <trkpt lat="44.95586" lon="5.73746">
        <ele>824.40002441406</ele>
        <time>2026-07-05T08:06:16.000Z</time>
      </trkpt>
      <trkpt lat="44.95585" lon="5.73749">
        <ele>824.79998779297</ele>
        <time>2026-07-05T08:06:17.000Z</time>
      </trkpt>
      <trkpt lat="44.95585" lon="5.7375">
        <ele>825</ele>
        <time>2026-07-05T08:06:18.000Z</time>
      </trkpt>
      <trkpt lat="44.95584" lon="5.73753">
        <ele>825.20001220703</ele>
        <time>2026-07-05T08:06:19.000Z</time>
      </trkpt>
      <trkpt lat="44.95584" lon="5.73756">
        <ele>825.40002441406</ele>
        <time>2026-07-05T08:06:20.000Z</time>
      </trkpt>
      <trkpt lat="44.95584" lon="5.73759">
        <ele>825.40002441406</ele>
        <time>2026-07-05T08:06:21.000Z</time>
      </trkpt>
      <trkpt lat="44.95583" lon="5.73762">
        <ele>825.59997558594</ele>
        <time>2026-07-05T08:06:22.000Z</time>
      </trkpt>
      <trkpt lat="44.95583" lon="5.73765">
        <ele>825.59997558594</ele>
        <time>2026-07-05T08:06:23.000Z</time>
      </trkpt>
      <trkpt lat="44.95582" lon="5.73767">
        <ele>825.59997558594</ele>
        <time>2026-07-05T08:06:24.000Z</time>
      </trkpt>
      <trkpt lat="44.95582" lon="5.7377">
        <ele>825.79998779297</ele>
        <time>2026-07-05T08:06:25.000Z</time>
      </trkpt>
      <trkpt lat="44.95581" lon="5.73773">
        <ele>825.79998779297</ele>
        <time>2026-07-05T08:06:26.000Z</time>
      </trkpt>
      <trkpt lat="44.95581" lon="5.73776">
        <ele>826</ele>
        <time>2026-07-05T08:06:27.000Z</time>
      </trkpt>
      <trkpt lat="44.95581" lon="5.73779">
        <ele>826</ele>
        <time>2026-07-05T08:06:28.000Z</time>
      </trkpt>
      <trkpt lat="44.9558" lon="5.73782">
        <ele>826.20001220703</ele>
        <time>2026-07-05T08:06:29.000Z</time>
      </trkpt>
      <trkpt lat="44.9558" lon="5.73784">
        <ele>826.20001220703</ele>
        <time>2026-07-05T08:06:30.000Z</time>
      </trkpt>
      <trkpt lat="44.9558" lon="5.73787">
        <ele>826.20001220703</ele>
        <time>2026-07-05T08:06:31.000Z</time>
      </trkpt>
      <trkpt lat="44.95579" lon="5.73791">
        <ele>826.20001220703</ele>
        <time>2026-07-05T08:06:32.000Z</time>
      </trkpt>
      <trkpt lat="44.95579" lon="5.73794">
        <ele>826.20001220703</ele>
        <time>2026-07-05T08:06:33.000Z</time>
      </trkpt>
      <trkpt lat="44.95579" lon="5.73797">
        <ele>826.20001220703</ele>
        <time>2026-07-05T08:06:34.000Z</time>
      </trkpt>
      <trkpt lat="44.95579" lon="5.73801">
        <ele>825.79998779297</ele>
        <time>2026-07-05T08:06:35.000Z</time>
      </trkpt>
      <trkpt lat="44.95579" lon="5.73804">
        <ele>825.40002441406</ele>
        <time>2026-07-05T08:06:36.000Z</time>
      </trkpt>
      <trkpt lat="44.95579" lon="5.73808">
        <ele>825.20001220703</ele>
        <time>2026-07-05T08:06:37.000Z</time>
      </trkpt>
      <trkpt lat="44.95579" lon="5.73812">
        <ele>825</ele>
        <time>2026-07-05T08:06:38.000Z</time>
      </trkpt>
      <trkpt lat="44.95578" lon="5.73816">
        <ele>824.79998779297</ele>
        <time>2026-07-05T08:06:39.000Z</time>
      </trkpt>
      <trkpt lat="44.95577" lon="5.73819">
        <ele>824.59997558594</ele>
        <time>2026-07-05T08:06:40.000Z</time>
      </trkpt>
      <trkpt lat="44.95576" lon="5.73823">
        <ele>824.59997558594</ele>
        <time>2026-07-05T08:06:41.000Z</time>
      </trkpt>
      <trkpt lat="44.95575" lon="5.73826">
        <ele>824.40002441406</ele>
        <time>2026-07-05T08:06:42.000Z</time>
      </trkpt>
      <trkpt lat="44.95575" lon="5.7383">
        <ele>824.20001220703</ele>
        <time>2026-07-05T08:06:43.000Z</time>
      </trkpt>
      <trkpt lat="44.95573" lon="5.73833">
        <ele>823.79998779297</ele>
        <time>2026-07-05T08:06:44.000Z</time>
      </trkpt>
      <trkpt lat="44.95572" lon="5.73837">
        <ele>823.59997558594</ele>
        <time>2026-07-05T08:06:45.000Z</time>
      </trkpt>
      <trkpt lat="44.95571" lon="5.7384">
        <ele>823.40002441406</ele>
        <time>2026-07-05T08:06:46.000Z</time>
      </trkpt>
      <trkpt lat="44.9557" lon="5.73844">
        <ele>823.20001220703</ele>
        <time>2026-07-05T08:06:47.000Z</time>
      </trkpt>
      <trkpt lat="44.95569" lon="5.73847">
        <ele>823</ele>
        <time>2026-07-05T08:06:48.000Z</time>
      </trkpt>
      <trkpt lat="44.95568" lon="5.73851">
        <ele>823</ele>
        <time>2026-07-05T08:06:49.000Z</time>
      </trkpt>
      <trkpt lat="44.95568" lon="5.73854">
        <ele>822.79998779297</ele>
        <time>2026-07-05T08:06:50.000Z</time>
      </trkpt>
      <trkpt lat="44.95567" lon="5.73858">
        <ele>822.79998779297</ele>
        <time>2026-07-05T08:06:51.000Z</time>
      </trkpt>
      <trkpt lat="44.95566" lon="5.73862">
        <ele>822.59997558594</ele>
        <time>2026-07-05T08:06:52.000Z</time>
      </trkpt>
      <trkpt lat="44.95566" lon="5.73865">
        <ele>822.40002441406</ele>
        <time>2026-07-05T08:06:53.000Z</time>
      </trkpt>
      <trkpt lat="44.95566" lon="5.73869">
        <ele>822.40002441406</ele>
        <time>2026-07-05T08:06:54.000Z</time>
      </trkpt>
      <trkpt lat="44.95565" lon="5.73873">
        <ele>822.20001220703</ele>
        <time>2026-07-05T08:06:55.000Z</time>
      </trkpt>
      <trkpt lat="44.95565" lon="5.73876">
        <ele>822</ele>
        <time>2026-07-05T08:06:56.000Z</time>
      </trkpt>
      <trkpt lat="44.95565" lon="5.7388">
        <ele>822</ele>
        <time>2026-07-05T08:06:57.000Z</time>
      </trkpt>
      <trkpt lat="44.95565" lon="5.73884">
        <ele>822</ele>
        <time>2026-07-05T08:06:58.000Z</time>
      </trkpt>
      <trkpt lat="44.95565" lon="5.73887">
        <ele>822</ele>
        <time>2026-07-05T08:06:59.000Z</time>
      </trkpt>
      <trkpt lat="44.95565" lon="5.73891">
        <ele>822</ele>
        <time>2026-07-05T08:07:00.000Z</time>
      </trkpt>
      <trkpt lat="44.95565" lon="5.73894">
        <ele>822</ele>
        <time>2026-07-05T08:07:01.000Z</time>
      </trkpt>
      <trkpt lat="44.95565" lon="5.73897">
        <ele>822</ele>
        <time>2026-07-05T08:07:02.000Z</time>
      </trkpt>
      <trkpt lat="44.95565" lon="5.73901">
        <ele>822</ele>
        <time>2026-07-05T08:07:03.000Z</time>
      </trkpt>
      <trkpt lat="44.95565" lon="5.73905">
        <ele>822</ele>
        <time>2026-07-05T08:07:04.000Z</time>
      </trkpt>
      <trkpt lat="44.95565" lon="5.73909">
        <ele>822</ele>
        <time>2026-07-05T08:07:05.000Z</time>
      </trkpt>
      <trkpt lat="44.95566" lon="5.73913">
        <ele>822</ele>
        <time>2026-07-05T08:07:06.000Z</time>
      </trkpt>
      <trkpt lat="44.95567" lon="5.73917">
        <ele>822</ele>
        <time>2026-07-05T08:07:07.000Z</time>
      </trkpt>
      <trkpt lat="44.95568" lon="5.7392">
        <ele>822</ele>
        <time>2026-07-05T08:07:08.000Z</time>
      </trkpt>
      <trkpt lat="44.95569" lon="5.73923">
        <ele>822</ele>
        <time>2026-07-05T08:07:09.000Z</time>
      </trkpt>
      <trkpt lat="44.9557" lon="5.73926">
        <ele>821.79998779297</ele>
        <time>2026-07-05T08:07:10.000Z</time>
      </trkpt>
      <trkpt lat="44.95572" lon="5.73929">
        <ele>821.79998779297</ele>
        <time>2026-07-05T08:07:11.000Z</time>
      </trkpt>
      <trkpt lat="44.95574" lon="5.7393">
        <ele>821.79998779297</ele>
        <time>2026-07-05T08:07:12.000Z</time>
      </trkpt>
      <trkpt lat="44.95575" lon="5.73932">
        <ele>821.79998779297</ele>
        <time>2026-07-05T08:07:13.000Z</time>
      </trkpt>
      <trkpt lat="44.95577" lon="5.73933">
        <ele>822</ele>
        <time>2026-07-05T08:07:14.000Z</time>
      </trkpt>
      <trkpt lat="44.9558" lon="5.73935">
        <ele>822.40002441406</ele>
        <time>2026-07-05T08:07:15.000Z</time>
      </trkpt>
      <trkpt lat="44.95582" lon="5.73936">
        <ele>822.79998779297</ele>
        <time>2026-07-05T08:07:16.000Z</time>
      </trkpt>
      <trkpt lat="44.95584" lon="5.73938">
        <ele>823</ele>
        <time>2026-07-05T08:07:17.000Z</time>
      </trkpt>
      <trkpt lat="44.95586" lon="5.73939">
        <ele>823.20001220703</ele>
        <time>2026-07-05T08:07:18.000Z</time>
      </trkpt>
      <trkpt lat="44.95587" lon="5.7394">
        <ele>823.40002441406</ele>
        <time>2026-07-05T08:07:19.000Z</time>
      </trkpt>
      <trkpt lat="44.95589" lon="5.73942">
        <ele>823.40002441406</ele>
        <time>2026-07-05T08:07:20.000Z</time>
      </trkpt>
      <trkpt lat="44.95591" lon="5.73943">
        <ele>823.79998779297</ele>
        <time>2026-07-05T08:07:21.000Z</time>
      </trkpt>
      <trkpt lat="44.95593" lon="5.73944">
        <ele>824</ele>
        <time>2026-07-05T08:07:22.000Z</time>
      </trkpt>
      <trkpt lat="44.95595" lon="5.73946">
        <ele>824.20001220703</ele>
        <time>2026-07-05T08:07:23.000Z</time>
      </trkpt>
      <trkpt lat="44.95597" lon="5.73947">
        <ele>824.40002441406</ele>
        <time>2026-07-05T08:07:24.000Z</time>
      </trkpt>
      <trkpt lat="44.95598" lon="5.73948">
        <ele>824.40002441406</ele>
        <time>2026-07-05T08:07:25.000Z</time>
      </trkpt>
      <trkpt lat="44.956" lon="5.7395">
        <ele>824.40002441406</ele>
        <time>2026-07-05T08:07:26.000Z</time>
      </trkpt>
      <trkpt lat="44.95601" lon="5.73951">
        <ele>824.59997558594</ele>
        <time>2026-07-05T08:07:27.000Z</time>
      </trkpt>
      <trkpt lat="44.95603" lon="5.73953">
        <ele>824.59997558594</ele>
        <time>2026-07-05T08:07:28.000Z</time>
      </trkpt>
      <trkpt lat="44.95605" lon="5.73955">
        <ele>824.79998779297</ele>
        <time>2026-07-05T08:07:29.000Z</time>
      </trkpt>
      <trkpt lat="44.95606" lon="5.73956">
        <ele>825.20001220703</ele>
        <time>2026-07-05T08:07:30.000Z</time>
      </trkpt>
      <trkpt lat="44.95608" lon="5.73957">
        <ele>825.59997558594</ele>
        <time>2026-07-05T08:07:31.000Z</time>
      </trkpt>
      <trkpt lat="44.95609" lon="5.73958">
        <ele>825.79998779297</ele>
        <time>2026-07-05T08:07:32.000Z</time>
      </trkpt>
      <trkpt lat="44.95611" lon="5.7396">
        <ele>826.20001220703</ele>
        <time>2026-07-05T08:07:33.000Z</time>
      </trkpt>
      <trkpt lat="44.95612" lon="5.73961">
        <ele>826.40002441406</ele>
        <time>2026-07-05T08:07:34.000Z</time>
      </trkpt>
      <trkpt lat="44.95614" lon="5.73963">
        <ele>826.59997558594</ele>
        <time>2026-07-05T08:07:35.000Z</time>
      </trkpt>
      <trkpt lat="44.95615" lon="5.73964">
        <ele>827</ele>
        <time>2026-07-05T08:07:36.000Z</time>
      </trkpt>
      <trkpt lat="44.95616" lon="5.73966">
        <ele>827.40002441406</ele>
        <time>2026-07-05T08:07:37.000Z</time>
      </trkpt>
      <trkpt lat="44.95617" lon="5.73968">
        <ele>827.59997558594</ele>
        <time>2026-07-05T08:07:38.000Z</time>
      </trkpt>
      <trkpt lat="44.95618" lon="5.73969">
        <ele>827.79998779297</ele>
        <time>2026-07-05T08:07:39.000Z</time>
      </trkpt>
      <trkpt lat="44.95619" lon="5.73971">
        <ele>827.79998779297</ele>
        <time>2026-07-05T08:07:40.000Z</time>
      </trkpt>
      <trkpt lat="44.9562" lon="5.73973">
        <ele>828</ele>
        <time>2026-07-05T08:07:41.000Z</time>
      </trkpt>
      <trkpt lat="44.95621" lon="5.73975">
        <ele>828.20001220703</ele>
        <time>2026-07-05T08:07:42.000Z</time>
      </trkpt>
      <trkpt lat="44.95622" lon="5.73976">
        <ele>828.59997558594</ele>
        <time>2026-07-05T08:07:43.000Z</time>
      </trkpt>
      <trkpt lat="44.95623" lon="5.73978">
        <ele>828.79998779297</ele>
        <time>2026-07-05T08:07:44.000Z</time>
      </trkpt>
      <trkpt lat="44.95624" lon="5.7398">
        <ele>829.20001220703</ele>
        <time>2026-07-05T08:07:45.000Z</time>
      </trkpt>
      <trkpt lat="44.95624" lon="5.73982">
        <ele>829.40002441406</ele>
        <time>2026-07-05T08:07:46.000Z</time>
      </trkpt>
      <trkpt lat="44.95625" lon="5.73983">
        <ele>829.79998779297</ele>
        <time>2026-07-05T08:07:47.000Z</time>
      </trkpt>
      <trkpt lat="44.95626" lon="5.73985">
        <ele>830</ele>
        <time>2026-07-05T08:07:48.000Z</time>
      </trkpt>
      <trkpt lat="44.95627" lon="5.73986">
        <ele>830.40002441406</ele>
        <time>2026-07-05T08:07:49.000Z</time>
      </trkpt>
      <trkpt lat="44.95627" lon="5.73988">
        <ele>830.79998779297</ele>
        <time>2026-07-05T08:07:50.000Z</time>
      </trkpt>
      <trkpt lat="44.95628" lon="5.7399">
        <ele>831</ele>
        <time>2026-07-05T08:07:51.000Z</time>
      </trkpt>
      <trkpt lat="44.95629" lon="5.73992">
        <ele>831.40002441406</ele>
        <time>2026-07-05T08:07:52.000Z</time>
      </trkpt>
      <trkpt lat="44.9563" lon="5.73993">
        <ele>831.59997558594</ele>
        <time>2026-07-05T08:07:53.000Z</time>
      </trkpt>
      <trkpt lat="44.95631" lon="5.73995">
        <ele>832</ele>
        <time>2026-07-05T08:07:54.000Z</time>
      </trkpt>
      <trkpt lat="44.95631" lon="5.73997">
        <ele>832.20001220703</ele>
        <time>2026-07-05T08:07:55.000Z</time>
      </trkpt>
      <trkpt lat="44.95632" lon="5.73999">
        <ele>832.40002441406</ele>
        <time>2026-07-05T08:07:56.000Z</time>
      </trkpt>
      <trkpt lat="44.95632" lon="5.74001">
        <ele>832.79998779297</ele>
        <time>2026-07-05T08:07:57.000Z</time>
      </trkpt>
      <trkpt lat="44.95633" lon="5.74003">
        <ele>833</ele>
        <time>2026-07-05T08:07:58.000Z</time>
      </trkpt>
      <trkpt lat="44.95634" lon="5.74005">
        <ele>833.40002441406</ele>
        <time>2026-07-05T08:07:59.000Z</time>
      </trkpt>
      <trkpt lat="44.95634" lon="5.74007">
        <ele>833.59997558594</ele>
        <time>2026-07-05T08:08:00.000Z</time>
      </trkpt>
      <trkpt lat="44.95635" lon="5.74008">
        <ele>833.79998779297</ele>
        <time>2026-07-05T08:08:01.000Z</time>
      </trkpt>
      <trkpt lat="44.95635" lon="5.7401">
        <ele>834</ele>
        <time>2026-07-05T08:08:02.000Z</time>
      </trkpt>
      <trkpt lat="44.95636" lon="5.74012">
        <ele>834.20001220703</ele>
        <time>2026-07-05T08:08:03.000Z</time>
      </trkpt>
      <trkpt lat="44.95636" lon="5.74014">
        <ele>834.59997558594</ele>
        <time>2026-07-05T08:08:04.000Z</time>
      </trkpt>
      <trkpt lat="44.95637" lon="5.74015">
        <ele>834.79998779297</ele>
        <time>2026-07-05T08:08:05.000Z</time>
      </trkpt>
      <trkpt lat="44.95637" lon="5.74017">
        <ele>835</ele>
        <time>2026-07-05T08:08:06.000Z</time>
      </trkpt>
      <trkpt lat="44.95637" lon="5.74019">
        <ele>835.20001220703</ele>
        <time>2026-07-05T08:08:07.000Z</time>
      </trkpt>
      <trkpt lat="44.95638" lon="5.74021">
        <ele>835.40002441406</ele>
        <time>2026-07-05T08:08:08.000Z</time>
      </trkpt>
      <trkpt lat="44.95638" lon="5.74023">
        <ele>835.79998779297</ele>
        <time>2026-07-05T08:08:09.000Z</time>
      </trkpt>
      <trkpt lat="44.95638" lon="5.74025">
        <ele>836</ele>
        <time>2026-07-05T08:08:10.000Z</time>
      </trkpt>
      <trkpt lat="44.95638" lon="5.74027">
        <ele>836.20001220703</ele>
        <time>2026-07-05T08:08:11.000Z</time>
      </trkpt>
      <trkpt lat="44.95639" lon="5.74028">
        <ele>836.40002441406</ele>
        <time>2026-07-05T08:08:12.000Z</time>
      </trkpt>
      <trkpt lat="44.95639" lon="5.7403">
        <ele>836.59997558594</ele>
        <time>2026-07-05T08:08:13.000Z</time>
      </trkpt>
      <trkpt lat="44.9564" lon="5.74032">
        <ele>836.79998779297</ele>
        <time>2026-07-05T08:08:14.000Z</time>
      </trkpt>
      <trkpt lat="44.9564" lon="5.74034">
        <ele>837.20001220703</ele>
        <time>2026-07-05T08:08:15.000Z</time>
      </trkpt>
      <trkpt lat="44.9564" lon="5.74036">
        <ele>837.40002441406</ele>
        <time>2026-07-05T08:08:16.000Z</time>
      </trkpt>
      <trkpt lat="44.9564" lon="5.74037">
        <ele>837.40002441406</ele>
        <time>2026-07-05T08:08:17.000Z</time>
      </trkpt>
      <trkpt lat="44.95641" lon="5.7404">
        <ele>837.40002441406</ele>
        <time>2026-07-05T08:08:18.000Z</time>
      </trkpt>
      <trkpt lat="44.95641" lon="5.74042">
        <ele>837.40002441406</ele>
        <time>2026-07-05T08:08:19.000Z</time>
      </trkpt>
      <trkpt lat="44.95642" lon="5.74044">
        <ele>837.59997558594</ele>
        <time>2026-07-05T08:08:20.000Z</time>
      </trkpt>
      <trkpt lat="44.95642" lon="5.74046">
        <ele>837.59997558594</ele>
        <time>2026-07-05T08:08:21.000Z</time>
      </trkpt>
      <trkpt lat="44.95643" lon="5.74049">
        <ele>838</ele>
        <time>2026-07-05T08:08:22.000Z</time>
      </trkpt>
      <trkpt lat="44.95643" lon="5.74051">
        <ele>838.40002441406</ele>
        <time>2026-07-05T08:08:23.000Z</time>
      </trkpt>
      <trkpt lat="44.95644" lon="5.74052">
        <ele>838.79998779297</ele>
        <time>2026-07-05T08:08:24.000Z</time>
      </trkpt>
      <trkpt lat="44.95644" lon="5.74054">
        <ele>839</ele>
        <time>2026-07-05T08:08:25.000Z</time>
      </trkpt>
      <trkpt lat="44.95644" lon="5.74055">
        <ele>839.40002441406</ele>
        <time>2026-07-05T08:08:26.000Z</time>
      </trkpt>
      <trkpt lat="44.95645" lon="5.74057">
        <ele>839.59997558594</ele>
        <time>2026-07-05T08:08:27.000Z</time>
      </trkpt>
      <trkpt lat="44.95645" lon="5.74059">
        <ele>839.59997558594</ele>
        <time>2026-07-05T08:08:28.000Z</time>
      </trkpt>
      <trkpt lat="44.95646" lon="5.74061">
        <ele>839.79998779297</ele>
        <time>2026-07-05T08:08:29.000Z</time>
      </trkpt>
      <trkpt lat="44.95646" lon="5.74063">
        <ele>840.20001220703</ele>
        <time>2026-07-05T08:08:30.000Z</time>
      </trkpt>
      <trkpt lat="44.95647" lon="5.74065">
        <ele>841.40002441406</ele>
        <time>2026-07-05T08:08:31.000Z</time>
      </trkpt>
      <trkpt lat="44.95648" lon="5.74067">
        <ele>842</ele>
        <time>2026-07-05T08:08:32.000Z</time>
      </trkpt>
      <trkpt lat="44.95649" lon="5.74069">
        <ele>842.40002441406</ele>
        <time>2026-07-05T08:08:33.000Z</time>
      </trkpt>
      <trkpt lat="44.9565" lon="5.74072">
        <ele>842.59997558594</ele>
        <time>2026-07-05T08:08:34.000Z</time>
      </trkpt>
      <trkpt lat="44.95651" lon="5.74074">
        <ele>842.79998779297</ele>
        <time>2026-07-05T08:08:35.000Z</time>
      </trkpt>
      <trkpt lat="44.95652" lon="5.74076">
        <ele>843</ele>
        <time>2026-07-05T08:08:36.000Z</time>
      </trkpt>
      <trkpt lat="44.95653" lon="5.74078">
        <ele>843.59997558594</ele>
        <time>2026-07-05T08:08:37.000Z</time>
      </trkpt>
      <trkpt lat="44.95654" lon="5.7408">
        <ele>844.59997558594</ele>
        <time>2026-07-05T08:08:38.000Z</time>
      </trkpt>
      <trkpt lat="44.95655" lon="5.74082">
        <ele>845.59997558594</ele>
        <time>2026-07-05T08:08:39.000Z</time>
      </trkpt>
      <trkpt lat="44.95656" lon="5.74084">
        <ele>846.59997558594</ele>
        <time>2026-07-05T08:08:40.000Z</time>
      </trkpt>
      <trkpt lat="44.95657" lon="5.74086">
        <ele>847.59997558594</ele>
        <time>2026-07-05T08:08:41.000Z</time>
      </trkpt>
      <trkpt lat="44.95658" lon="5.74088">
        <ele>848.40002441406</ele>
        <time>2026-07-05T08:08:42.000Z</time>
      </trkpt>
      <trkpt lat="44.9566" lon="5.7409">
        <ele>847.79998779297</ele>
        <time>2026-07-05T08:08:43.000Z</time>
      </trkpt>
      <trkpt lat="44.95661" lon="5.74091">
        <ele>846.79998779297</ele>
        <time>2026-07-05T08:08:44.000Z</time>
      </trkpt>
      <trkpt lat="44.95662" lon="5.74094">
        <ele>846.40002441406</ele>
        <time>2026-07-05T08:08:45.000Z</time>
      </trkpt>
      <trkpt lat="44.95663" lon="5.74096">
        <ele>846</ele>
        <time>2026-07-05T08:08:46.000Z</time>
      </trkpt>
      <trkpt lat="44.95665" lon="5.74098">
        <ele>845.59997558594</ele>
        <time>2026-07-05T08:08:47.000Z</time>
      </trkpt>
      <trkpt lat="44.95666" lon="5.74099">
        <ele>845.20001220703</ele>
        <time>2026-07-05T08:08:48.000Z</time>
      </trkpt>
      <trkpt lat="44.95667" lon="5.74101">
        <ele>844.79998779297</ele>
        <time>2026-07-05T08:08:49.000Z</time>
      </trkpt>
      <trkpt lat="44.95668" lon="5.74103">
        <ele>844</ele>
        <time>2026-07-05T08:08:50.000Z</time>
      </trkpt>
      <trkpt lat="44.95669" lon="5.74105">
        <ele>843.79998779297</ele>
        <time>2026-07-05T08:08:51.000Z</time>
      </trkpt>
      <trkpt lat="44.9567" lon="5.74107">
        <ele>843.79998779297</ele>
        <time>2026-07-05T08:08:52.000Z</time>
      </trkpt>
      <trkpt lat="44.95671" lon="5.74109">
        <ele>843.79998779297</ele>
        <time>2026-07-05T08:08:53.000Z</time>
      </trkpt>
      <trkpt lat="44.95672" lon="5.74111">
        <ele>843.59997558594</ele>
        <time>2026-07-05T08:08:54.000Z</time>
      </trkpt>
      <trkpt lat="44.95673" lon="5.74112">
        <ele>843.40002441406</ele>
        <time>2026-07-05T08:08:55.000Z</time>
      </trkpt>
      <trkpt lat="44.95674" lon="5.74115">
        <ele>843.59997558594</ele>
        <time>2026-07-05T08:08:56.000Z</time>
      </trkpt>
      <trkpt lat="44.95676" lon="5.74116">
        <ele>843.79998779297</ele>
        <time>2026-07-05T08:08:57.000Z</time>
      </trkpt>
      <trkpt lat="44.95677" lon="5.74118">
        <ele>843.79998779297</ele>
        <time>2026-07-05T08:08:58.000Z</time>
      </trkpt>
      <trkpt lat="44.95678" lon="5.7412">
        <ele>844</ele>
        <time>2026-07-05T08:08:59.000Z</time>
      </trkpt>
      <trkpt lat="44.95679" lon="5.74123">
        <ele>844.20001220703</ele>
        <time>2026-07-05T08:09:00.000Z</time>
      </trkpt>
      <trkpt lat="44.9568" lon="5.74125">
        <ele>844.59997558594</ele>
        <time>2026-07-05T08:09:01.000Z</time>
      </trkpt>
      <trkpt lat="44.95681" lon="5.74127">
        <ele>845.20001220703</ele>
        <time>2026-07-05T08:09:02.000Z</time>
      </trkpt>
      <trkpt lat="44.95683" lon="5.74129">
        <ele>845.59997558594</ele>
        <time>2026-07-05T08:09:03.000Z</time>
      </trkpt>
      <trkpt lat="44.95684" lon="5.74131">
        <ele>846</ele>
        <time>2026-07-05T08:09:04.000Z</time>
      </trkpt>
      <trkpt lat="44.95685" lon="5.74133">
        <ele>846.20001220703</ele>
        <time>2026-07-05T08:09:05.000Z</time>
      </trkpt>
      <trkpt lat="44.95686" lon="5.74135">
        <ele>846.20001220703</ele>
        <time>2026-07-05T08:09:06.000Z</time>
      </trkpt>
      <trkpt lat="44.95687" lon="5.74137">
        <ele>846.20001220703</ele>
        <time>2026-07-05T08:09:07.000Z</time>
      </trkpt>
      <trkpt lat="44.95688" lon="5.74139">
        <ele>846.40002441406</ele>
        <time>2026-07-05T08:09:08.000Z</time>
      </trkpt>
      <trkpt lat="44.95689" lon="5.74141">
        <ele>846.59997558594</ele>
        <time>2026-07-05T08:09:09.000Z</time>
      </trkpt>
      <trkpt lat="44.9569" lon="5.74144">
        <ele>846.79998779297</ele>
        <time>2026-07-05T08:09:10.000Z</time>
      </trkpt>
      <trkpt lat="44.95691" lon="5.74146">
        <ele>847.20001220703</ele>
        <time>2026-07-05T08:09:11.000Z</time>
      </trkpt>
      <trkpt lat="44.95693" lon="5.74148">
        <ele>847.59997558594</ele>
        <time>2026-07-05T08:09:12.000Z</time>
      </trkpt>
      <trkpt lat="44.95694" lon="5.7415">
        <ele>847.79998779297</ele>
        <time>2026-07-05T08:09:13.000Z</time>
      </trkpt>
      <trkpt lat="44.95695" lon="5.74151">
        <ele>848.59997558594</ele>
        <time>2026-07-05T08:09:14.000Z</time>
      </trkpt>
      <trkpt lat="44.95697" lon="5.74153">
        <ele>849.20001220703</ele>
        <time>2026-07-05T08:09:15.000Z</time>
      </trkpt>
      <trkpt lat="44.95699" lon="5.74154">
        <ele>849.79998779297</ele>
        <time>2026-07-05T08:09:16.000Z</time>
      </trkpt>
      <trkpt lat="44.95701" lon="5.74155">
        <ele>850</ele>
        <time>2026-07-05T08:09:17.000Z</time>
      </trkpt>
      <trkpt lat="44.95703" lon="5.74154">
        <ele>850.20001220703</ele>
        <time>2026-07-05T08:09:18.000Z</time>
      </trkpt>
      <trkpt lat="44.95705" lon="5.74154">
        <ele>850</ele>
        <time>2026-07-05T08:09:19.000Z</time>
      </trkpt>
      <trkpt lat="44.95707" lon="5.74155">
        <ele>849.79998779297</ele>
        <time>2026-07-05T08:09:20.000Z</time>
      </trkpt>
      <trkpt lat="44.95709" lon="5.74155">
        <ele>849.79998779297</ele>
        <time>2026-07-05T08:09:21.000Z</time>
      </trkpt>
      <trkpt lat="44.95711" lon="5.74155">
        <ele>849.79998779297</ele>
        <time>2026-07-05T08:09:22.000Z</time>
      </trkpt>
      <trkpt lat="44.95713" lon="5.74155">
        <ele>850.20001220703</ele>
        <time>2026-07-05T08:09:23.000Z</time>
      </trkpt>
      <trkpt lat="44.95716" lon="5.74155">
        <ele>850.59997558594</ele>
        <time>2026-07-05T08:09:24.000Z</time>
      </trkpt>
      <trkpt lat="44.95717" lon="5.74155">
        <ele>850.79998779297</ele>
        <time>2026-07-05T08:09:25.000Z</time>
      </trkpt>
      <trkpt lat="44.9572" lon="5.74156">
        <ele>851.20001220703</ele>
        <time>2026-07-05T08:09:26.000Z</time>
      </trkpt>
      <trkpt lat="44.95722" lon="5.74155">
        <ele>850.79998779297</ele>
        <time>2026-07-05T08:09:27.000Z</time>
      </trkpt>
      <trkpt lat="44.95725" lon="5.74155">
        <ele>850.59997558594</ele>
        <time>2026-07-05T08:09:28.000Z</time>
      </trkpt>
      <trkpt lat="44.95727" lon="5.74155">
        <ele>850</ele>
        <time>2026-07-05T08:09:29.000Z</time>
      </trkpt>
      <trkpt lat="44.9573" lon="5.74155">
        <ele>850</ele>
        <time>2026-07-05T08:09:30.000Z</time>
      </trkpt>
      <trkpt lat="44.95732" lon="5.74155">
        <ele>849.59997558594</ele>
        <time>2026-07-05T08:09:31.000Z</time>
      </trkpt>
      <trkpt lat="44.95734" lon="5.74155">
        <ele>849.59997558594</ele>
        <time>2026-07-05T08:09:32.000Z</time>
      </trkpt>
      <trkpt lat="44.95736" lon="5.74154">
        <ele>849.59997558594</ele>
        <time>2026-07-05T08:09:33.000Z</time>
      </trkpt>
      <trkpt lat="44.95738" lon="5.74154">
        <ele>849.59997558594</ele>
        <time>2026-07-05T08:09:34.000Z</time>
      </trkpt>
      <trkpt lat="44.9574" lon="5.74154">
        <ele>849.79998779297</ele>
        <time>2026-07-05T08:09:35.000Z</time>
      </trkpt>
      <trkpt lat="44.95742" lon="5.74154">
        <ele>850</ele>
        <time>2026-07-05T08:09:36.000Z</time>
      </trkpt>
      <trkpt lat="44.95744" lon="5.74154">
        <ele>850.40002441406</ele>
        <time>2026-07-05T08:09:37.000Z</time>
      </trkpt>
      <trkpt lat="44.95747" lon="5.74154">
        <ele>850.59997558594</ele>
        <time>2026-07-05T08:09:38.000Z</time>
      </trkpt>
      <trkpt lat="44.95749" lon="5.74153">
        <ele>851</ele>
        <time>2026-07-05T08:09:39.000Z</time>
      </trkpt>
      <trkpt lat="44.95751" lon="5.74153">
        <ele>851.20001220703</ele>
        <time>2026-07-05T08:09:40.000Z</time>
      </trkpt>
      <trkpt lat="44.95753" lon="5.74153">
        <ele>851.20001220703</ele>
        <time>2026-07-05T08:09:41.000Z</time>
      </trkpt>
      <trkpt lat="44.95755" lon="5.74153">
        <ele>851.40002441406</ele>
        <time>2026-07-05T08:09:42.000Z</time>
      </trkpt>
      <trkpt lat="44.95757" lon="5.74152">
        <ele>852</ele>
        <time>2026-07-05T08:09:43.000Z</time>
      </trkpt>
      <trkpt lat="44.9576" lon="5.74152">
        <ele>852.59997558594</ele>
        <time>2026-07-05T08:09:44.000Z</time>
      </trkpt>
      <trkpt lat="44.95762" lon="5.74152">
        <ele>853.20001220703</ele>
        <time>2026-07-05T08:09:45.000Z</time>
      </trkpt>
      <trkpt lat="44.95764" lon="5.74151">
        <ele>853.79998779297</ele>
        <time>2026-07-05T08:09:46.000Z</time>
      </trkpt>
      <trkpt lat="44.95767" lon="5.74151">
        <ele>854.40002441406</ele>
        <time>2026-07-05T08:09:47.000Z</time>
      </trkpt>
      <trkpt lat="44.95769" lon="5.74151">
        <ele>855</ele>
        <time>2026-07-05T08:09:48.000Z</time>
      </trkpt>
      <trkpt lat="44.95771" lon="5.74151">
        <ele>855.59997558594</ele>
        <time>2026-07-05T08:09:49.000Z</time>
      </trkpt>
      <trkpt lat="44.95773" lon="5.7415">
        <ele>856.20001220703</ele>
        <time>2026-07-05T08:09:50.000Z</time>
      </trkpt>
      <trkpt lat="44.95775" lon="5.7415">
        <ele>857.20001220703</ele>
        <time>2026-07-05T08:09:51.000Z</time>
      </trkpt>
      <trkpt lat="44.95777" lon="5.7415">
        <ele>857.40002441406</ele>
        <time>2026-07-05T08:09:52.000Z</time>
      </trkpt>
      <trkpt lat="44.95779" lon="5.7415">
        <ele>857.59997558594</ele>
        <time>2026-07-05T08:09:53.000Z</time>
      </trkpt>
      <trkpt lat="44.95781" lon="5.7415">
        <ele>857.79998779297</ele>
        <time>2026-07-05T08:09:54.000Z</time>
      </trkpt>
      <trkpt lat="44.95783" lon="5.74149">
        <ele>858</ele>
        <time>2026-07-05T08:09:55.000Z</time>
      </trkpt>
      <trkpt lat="44.95785" lon="5.74149">
        <ele>857.79998779297</ele>
        <time>2026-07-05T08:09:56.000Z</time>
      </trkpt>
      <trkpt lat="44.95788" lon="5.74149">
        <ele>857.59997558594</ele>
        <time>2026-07-05T08:09:57.000Z</time>
      </trkpt>
      <trkpt lat="44.9579" lon="5.74148">
        <ele>857.59997558594</ele>
        <time>2026-07-05T08:09:58.000Z</time>
      </trkpt>
      <trkpt lat="44.95792" lon="5.74148">
        <ele>857.40002441406</ele>
        <time>2026-07-05T08:09:59.000Z</time>
      </trkpt>
      <trkpt lat="44.95794" lon="5.74147">
        <ele>857.20001220703</ele>
        <time>2026-07-05T08:10:00.000Z</time>
      </trkpt>
      <trkpt lat="44.95797" lon="5.74147">
        <ele>857.20001220703</ele>
        <time>2026-07-05T08:10:01.000Z</time>
      </trkpt>
      <trkpt lat="44.95799" lon="5.74147">
        <ele>857.20001220703</ele>
        <time>2026-07-05T08:10:02.000Z</time>
      </trkpt>
      <trkpt lat="44.95802" lon="5.74147">
        <ele>854.79998779297</ele>
        <time>2026-07-05T08:10:03.000Z</time>
      </trkpt>
      <trkpt lat="44.95805" lon="5.74147">
        <ele>854</ele>
        <time>2026-07-05T08:10:04.000Z</time>
      </trkpt>
      <trkpt lat="44.95807" lon="5.74147">
        <ele>853</ele>
        <time>2026-07-05T08:10:05.000Z</time>
      </trkpt>
      <trkpt lat="44.95809" lon="5.74147">
        <ele>852.59997558594</ele>
        <time>2026-07-05T08:10:06.000Z</time>
      </trkpt>
      <trkpt lat="44.95812" lon="5.74148">
        <ele>851.79998779297</ele>
        <time>2026-07-05T08:10:07.000Z</time>
      </trkpt>
      <trkpt lat="44.95814" lon="5.74148">
        <ele>851.20001220703</ele>
        <time>2026-07-05T08:10:08.000Z</time>
      </trkpt>
      <trkpt lat="44.95817" lon="5.74148">
        <ele>851</ele>
        <time>2026-07-05T08:10:09.000Z</time>
      </trkpt>
      <trkpt lat="44.95819" lon="5.74148">
        <ele>851</ele>
        <time>2026-07-05T08:10:10.000Z</time>
      </trkpt>
      <trkpt lat="44.95822" lon="5.74148">
        <ele>851.20001220703</ele>
        <time>2026-07-05T08:10:11.000Z</time>
      </trkpt>
      <trkpt lat="44.95824" lon="5.74149">
        <ele>851.20001220703</ele>
        <time>2026-07-05T08:10:12.000Z</time>
      </trkpt>
      <trkpt lat="44.95826" lon="5.74149">
        <ele>851.59997558594</ele>
        <time>2026-07-05T08:10:13.000Z</time>
      </trkpt>
      <trkpt lat="44.95829" lon="5.74149">
        <ele>851.59997558594</ele>
        <time>2026-07-05T08:10:14.000Z</time>
      </trkpt>
      <trkpt lat="44.95831" lon="5.74149">
        <ele>851.79998779297</ele>
        <time>2026-07-05T08:10:15.000Z</time>
      </trkpt>
      <trkpt lat="44.95833" lon="5.7415">
        <ele>852</ele>
        <time>2026-07-05T08:10:16.000Z</time>
      </trkpt>
      <trkpt lat="44.95836" lon="5.7415">
        <ele>852.20001220703</ele>
        <time>2026-07-05T08:10:17.000Z</time>
      </trkpt>
      <trkpt lat="44.95838" lon="5.7415">
        <ele>852.20001220703</ele>
        <time>2026-07-05T08:10:18.000Z</time>
      </trkpt>
      <trkpt lat="44.9584" lon="5.7415">
        <ele>852.20001220703</ele>
        <time>2026-07-05T08:10:19.000Z</time>
      </trkpt>
      <trkpt lat="44.95843" lon="5.7415">
        <ele>852.20001220703</ele>
        <time>2026-07-05T08:10:20.000Z</time>
      </trkpt>
      <trkpt lat="44.95845" lon="5.7415">
        <ele>852.20001220703</ele>
        <time>2026-07-05T08:10:21.000Z</time>
      </trkpt>
      <trkpt lat="44.95847" lon="5.7415">
        <ele>852.20001220703</ele>
        <time>2026-07-05T08:10:22.000Z</time>
      </trkpt>
      <trkpt lat="44.9585" lon="5.74151">
        <ele>852</ele>
        <time>2026-07-05T08:10:23.000Z</time>
      </trkpt>
      <trkpt lat="44.95852" lon="5.74152">
        <ele>852</ele>
        <time>2026-07-05T08:10:24.000Z</time>
      </trkpt>
      <trkpt lat="44.95854" lon="5.74152">
        <ele>852.20001220703</ele>
        <time>2026-07-05T08:10:25.000Z</time>
      </trkpt>
      <trkpt lat="44.95856" lon="5.74152">
        <ele>852.40002441406</ele>
        <time>2026-07-05T08:10:26.000Z</time>
      </trkpt>
      <trkpt lat="44.95858" lon="5.74152">
        <ele>852.59997558594</ele>
        <time>2026-07-05T08:10:27.000Z</time>
      </trkpt>
      <trkpt lat="44.9586" lon="5.74152">
        <ele>852.79998779297</ele>
        <time>2026-07-05T08:10:28.000Z</time>
      </trkpt>
      <trkpt lat="44.95862" lon="5.74152">
        <ele>853</ele>
        <time>2026-07-05T08:10:29.000Z</time>
      </trkpt>
      <trkpt lat="44.95864" lon="5.74152">
        <ele>853.20001220703</ele>
        <time>2026-07-05T08:10:30.000Z</time>
      </trkpt>
      <trkpt lat="44.95866" lon="5.74152">
        <ele>853.59997558594</ele>
        <time>2026-07-05T08:10:31.000Z</time>
      </trkpt>
      <trkpt lat="44.95868" lon="5.74153">
        <ele>853.79998779297</ele>
        <time>2026-07-05T08:10:32.000Z</time>
      </trkpt>
      <trkpt lat="44.9587" lon="5.74153">
        <ele>854</ele>
        <time>2026-07-05T08:10:33.000Z</time>
      </trkpt>
      <trkpt lat="44.95872" lon="5.74153">
        <ele>854</ele>
        <time>2026-07-05T08:10:34.000Z</time>
      </trkpt>
      <trkpt lat="44.95875" lon="5.74153">
        <ele>854.20001220703</ele>
        <time>2026-07-05T08:10:35.000Z</time>
      </trkpt>
      <trkpt lat="44.95877" lon="5.74153">
        <ele>854.20001220703</ele>
        <time>2026-07-05T08:10:36.000Z</time>
      </trkpt>
      <trkpt lat="44.95879" lon="5.74153">
        <ele>854.59997558594</ele>
        <time>2026-07-05T08:10:37.000Z</time>
      </trkpt>
      <trkpt lat="44.95882" lon="5.74154">
        <ele>856</ele>
        <time>2026-07-05T08:10:38.000Z</time>
      </trkpt>
      <trkpt lat="44.95884" lon="5.74155">
        <ele>856.20001220703</ele>
        <time>2026-07-05T08:10:39.000Z</time>
      </trkpt>
      <trkpt lat="44.95886" lon="5.74156">
        <ele>856.40002441406</ele>
        <time>2026-07-05T08:10:40.000Z</time>
      </trkpt>
      <trkpt lat="44.95888" lon="5.74158">
        <ele>856.79998779297</ele>
        <time>2026-07-05T08:10:41.000Z</time>
      </trkpt>
      <trkpt lat="44.95889" lon="5.7416">
        <ele>857</ele>
        <time>2026-07-05T08:10:42.000Z</time>
      </trkpt>
      <trkpt lat="44.9589" lon="5.74161">
        <ele>856.40002441406</ele>
        <time>2026-07-05T08:10:43.000Z</time>
      </trkpt>
      <trkpt lat="44.95891" lon="5.74163">
        <ele>856.20001220703</ele>
        <time>2026-07-05T08:10:44.000Z</time>
      </trkpt>
      <trkpt lat="44.95892" lon="5.74165">
        <ele>856</ele>
        <time>2026-07-05T08:10:45.000Z</time>
      </trkpt>
      <trkpt lat="44.95893" lon="5.74166">
        <ele>856</ele>
        <time>2026-07-05T08:10:46.000Z</time>
      </trkpt>
      <trkpt lat="44.95895" lon="5.74168">
        <ele>855.79998779297</ele>
        <time>2026-07-05T08:10:47.000Z</time>
      </trkpt>
      <trkpt lat="44.95896" lon="5.74169">
        <ele>855.79998779297</ele>
        <time>2026-07-05T08:10:48.000Z</time>
      </trkpt>
      <trkpt lat="44.95897" lon="5.74171">
        <ele>855.79998779297</ele>
        <time>2026-07-05T08:10:49.000Z</time>
      </trkpt>
      <trkpt lat="44.95898" lon="5.74173">
        <ele>856</ele>
        <time>2026-07-05T08:10:50.000Z</time>
      </trkpt>
      <trkpt lat="44.95899" lon="5.74174">
        <ele>856</ele>
        <time>2026-07-05T08:10:51.000Z</time>
      </trkpt>
      <trkpt lat="44.95899" lon="5.74175">
        <ele>856.20001220703</ele>
        <time>2026-07-05T08:10:52.000Z</time>
      </trkpt>
      <trkpt lat="44.959" lon="5.74176">
        <ele>856.20001220703</ele>
        <time>2026-07-05T08:10:53.000Z</time>
      </trkpt>
      <trkpt lat="44.959" lon="5.74177">
        <ele>857</ele>
        <time>2026-07-05T08:10:54.000Z</time>
      </trkpt>
      <trkpt lat="44.95901" lon="5.74178">
        <ele>857.40002441406</ele>
        <time>2026-07-05T08:10:55.000Z</time>
      </trkpt>
      <trkpt lat="44.95901" lon="5.74179">
        <ele>857.59997558594</ele>
        <time>2026-07-05T08:10:56.000Z</time>
      </trkpt>
      <trkpt lat="44.95902" lon="5.7418">
        <ele>858.20001220703</ele>
        <time>2026-07-05T08:10:57.000Z</time>
      </trkpt>
      <trkpt lat="44.95902" lon="5.74182">
        <ele>859</ele>
        <time>2026-07-05T08:10:58.000Z</time>
      </trkpt>
      <trkpt lat="44.95903" lon="5.74184">
        <ele>859.40002441406</ele>
        <time>2026-07-05T08:10:59.000Z</time>
      </trkpt>
      <trkpt lat="44.95903" lon="5.74186">
        <ele>860.20001220703</ele>
        <time>2026-07-05T08:11:00.000Z</time>
      </trkpt>
      <trkpt lat="44.95903" lon="5.74188">
        <ele>860.79998779297</ele>
        <time>2026-07-05T08:11:01.000Z</time>
      </trkpt>
      <trkpt lat="44.95904" lon="5.74189">
        <ele>861.20001220703</ele>
        <time>2026-07-05T08:11:02.000Z</time>
      </trkpt>
      <trkpt lat="44.95904" lon="5.74191">
        <ele>861.59997558594</ele>
        <time>2026-07-05T08:11:03.000Z</time>
      </trkpt>
      <trkpt lat="44.95905" lon="5.74193">
        <ele>861.79998779297</ele>
        <time>2026-07-05T08:11:04.000Z</time>
      </trkpt>
      <trkpt lat="44.95906" lon="5.74194">
        <ele>861.79998779297</ele>
        <time>2026-07-05T08:11:05.000Z</time>
      </trkpt>
      <trkpt lat="44.95907" lon="5.74196">
        <ele>862</ele>
        <time>2026-07-05T08:11:06.000Z</time>
      </trkpt>
      <trkpt lat="44.95908" lon="5.74197">
        <ele>862</ele>
        <time>2026-07-05T08:11:07.000Z</time>
      </trkpt>
      <trkpt lat="44.95909" lon="5.74198">
        <ele>862.20001220703</ele>
        <time>2026-07-05T08:11:08.000Z</time>
      </trkpt>
      <trkpt lat="44.9591" lon="5.74198">
        <ele>862.40002441406</ele>
        <time>2026-07-05T08:11:09.000Z</time>
      </trkpt>
      <trkpt lat="44.95911" lon="5.74199">
        <ele>862.59997558594</ele>
        <time>2026-07-05T08:11:10.000Z</time>
      </trkpt>
      <trkpt lat="44.95911" lon="5.74201">
        <ele>862.79998779297</ele>
        <time>2026-07-05T08:11:11.000Z</time>
      </trkpt>
      <trkpt lat="44.95912" lon="5.74203">
        <ele>862.79998779297</ele>
        <time>2026-07-05T08:11:12.000Z</time>
      </trkpt>
      <trkpt lat="44.95913" lon="5.74204">
        <ele>862.79998779297</ele>
        <time>2026-07-05T08:11:13.000Z</time>
      </trkpt>
      <trkpt lat="44.95914" lon="5.74205">
        <ele>862.59997558594</ele>
        <time>2026-07-05T08:11:14.000Z</time>
      </trkpt>
      <trkpt lat="44.95914" lon="5.74207">
        <ele>862.40002441406</ele>
        <time>2026-07-05T08:11:15.000Z</time>
      </trkpt>
      <trkpt lat="44.95915" lon="5.74208">
        <ele>862.20001220703</ele>
        <time>2026-07-05T08:11:16.000Z</time>
      </trkpt>
      <trkpt lat="44.95916" lon="5.7421">
        <ele>862</ele>
        <time>2026-07-05T08:11:17.000Z</time>
      </trkpt>
      <trkpt lat="44.95917" lon="5.74212">
        <ele>862</ele>
        <time>2026-07-05T08:11:18.000Z</time>
      </trkpt>
      <trkpt lat="44.95918" lon="5.74215">
        <ele>862</ele>
        <time>2026-07-05T08:11:19.000Z</time>
      </trkpt>
      <trkpt lat="44.95919" lon="5.74216">
        <ele>862.20001220703</ele>
        <time>2026-07-05T08:11:20.000Z</time>
      </trkpt>
      <trkpt lat="44.95919" lon="5.74217">
        <ele>862.40002441406</ele>
        <time>2026-07-05T08:11:21.000Z</time>
      </trkpt>
      <trkpt lat="44.9592" lon="5.74218">
        <ele>862.79998779297</ele>
        <time>2026-07-05T08:11:22.000Z</time>
      </trkpt>
      <trkpt lat="44.9592" lon="5.7422">
        <ele>863</ele>
        <time>2026-07-05T08:11:23.000Z</time>
      </trkpt>
      <trkpt lat="44.95921" lon="5.74221">
        <ele>863.40002441406</ele>
        <time>2026-07-05T08:11:24.000Z</time>
      </trkpt>
      <trkpt lat="44.95922" lon="5.74222">
        <ele>864</ele>
        <time>2026-07-05T08:11:25.000Z</time>
      </trkpt>
      <trkpt lat="44.95923" lon="5.74224">
        <ele>865</ele>
        <time>2026-07-05T08:11:26.000Z</time>
      </trkpt>
      <trkpt lat="44.95924" lon="5.74226">
        <ele>865.40002441406</ele>
        <time>2026-07-05T08:11:27.000Z</time>
      </trkpt>
      <trkpt lat="44.95925" lon="5.74228">
        <ele>865.59997558594</ele>
        <time>2026-07-05T08:11:28.000Z</time>
      </trkpt>
      <trkpt lat="44.95926" lon="5.7423">
        <ele>866</ele>
        <time>2026-07-05T08:11:29.000Z</time>
      </trkpt>
      <trkpt lat="44.95926" lon="5.74232">
        <ele>866.20001220703</ele>
        <time>2026-07-05T08:11:30.000Z</time>
      </trkpt>
      <trkpt lat="44.95927" lon="5.74234">
        <ele>866.20001220703</ele>
        <time>2026-07-05T08:11:31.000Z</time>
      </trkpt>
      <trkpt lat="44.95928" lon="5.74236">
        <ele>866</ele>
        <time>2026-07-05T08:11:32.000Z</time>
      </trkpt>
      <trkpt lat="44.95929" lon="5.74237">
        <ele>866</ele>
        <time>2026-07-05T08:11:33.000Z</time>
      </trkpt>
      <trkpt lat="44.95929" lon="5.74238">
        <ele>865.79998779297</ele>
        <time>2026-07-05T08:11:34.000Z</time>
      </trkpt>
      <trkpt lat="44.95929" lon="5.74239">
        <ele>866.20001220703</ele>
        <time>2026-07-05T08:11:35.000Z</time>
      </trkpt>
      <trkpt lat="44.9593" lon="5.74241">
        <ele>866.59997558594</ele>
        <time>2026-07-05T08:11:36.000Z</time>
      </trkpt>
      <trkpt lat="44.95931" lon="5.74243">
        <ele>866.59997558594</ele>
        <time>2026-07-05T08:11:37.000Z</time>
      </trkpt>
      <trkpt lat="44.95932" lon="5.74245">
        <ele>866.79998779297</ele>
        <time>2026-07-05T08:11:38.000Z</time>
      </trkpt>
      <trkpt lat="44.95933" lon="5.74247">
        <ele>867.20001220703</ele>
        <time>2026-07-05T08:11:39.000Z</time>
      </trkpt>
      <trkpt lat="44.95935" lon="5.74248">
        <ele>867.40002441406</ele>
        <time>2026-07-05T08:11:40.000Z</time>
      </trkpt>
      <trkpt lat="44.95936" lon="5.74249">
        <ele>868</ele>
        <time>2026-07-05T08:11:41.000Z</time>
      </trkpt>
      <trkpt lat="44.95938" lon="5.74249">
        <ele>868.59997558594</ele>
        <time>2026-07-05T08:11:42.000Z</time>
      </trkpt>
      <trkpt lat="44.95939" lon="5.74249">
        <ele>869.20001220703</ele>
        <time>2026-07-05T08:11:43.000Z</time>
      </trkpt>
      <trkpt lat="44.9594" lon="5.74249">
        <ele>869.79998779297</ele>
        <time>2026-07-05T08:11:44.000Z</time>
      </trkpt>
      <trkpt lat="44.95942" lon="5.74249">
        <ele>870.40002441406</ele>
        <time>2026-07-05T08:11:45.000Z</time>
      </trkpt>
      <trkpt lat="44.95944" lon="5.74248">
        <ele>871</ele>
        <time>2026-07-05T08:11:46.000Z</time>
      </trkpt>
      <trkpt lat="44.95945" lon="5.74248">
        <ele>871.59997558594</ele>
        <time>2026-07-05T08:11:47.000Z</time>
      </trkpt>
      <trkpt lat="44.95948" lon="5.74248">
        <ele>872.20001220703</ele>
        <time>2026-07-05T08:11:48.000Z</time>
      </trkpt>
      <trkpt lat="44.9595" lon="5.74248">
        <ele>872.79998779297</ele>
        <time>2026-07-05T08:11:49.000Z</time>
      </trkpt>
      <trkpt lat="44.95951" lon="5.74248">
        <ele>872.59997558594</ele>
        <time>2026-07-05T08:11:50.000Z</time>
      </trkpt>
      <trkpt lat="44.95954" lon="5.74249">
        <ele>872.40002441406</ele>
        <time>2026-07-05T08:11:51.000Z</time>
      </trkpt>
      <trkpt lat="44.95956" lon="5.74249">
        <ele>872.40002441406</ele>
        <time>2026-07-05T08:11:52.000Z</time>
      </trkpt>
      <trkpt lat="44.95957" lon="5.74249">
        <ele>872.40002441406</ele>
        <time>2026-07-05T08:11:53.000Z</time>
      </trkpt>
      <trkpt lat="44.95959" lon="5.74249">
        <ele>872.40002441406</ele>
        <time>2026-07-05T08:11:54.000Z</time>
      </trkpt>
      <trkpt lat="44.95961" lon="5.74249">
        <ele>872.59997558594</ele>
        <time>2026-07-05T08:11:55.000Z</time>
      </trkpt>
      <trkpt lat="44.95963" lon="5.74249">
        <ele>873</ele>
        <time>2026-07-05T08:11:56.000Z</time>
      </trkpt>
      <trkpt lat="44.95964" lon="5.74248">
        <ele>872.79998779297</ele>
        <time>2026-07-05T08:11:57.000Z</time>
      </trkpt>
      <trkpt lat="44.95966" lon="5.74248">
        <ele>872.59997558594</ele>
        <time>2026-07-05T08:11:58.000Z</time>
      </trkpt>
      <trkpt lat="44.95968" lon="5.74248">
        <ele>872.40002441406</ele>
        <time>2026-07-05T08:11:59.000Z</time>
      </trkpt>
      <trkpt lat="44.95971" lon="5.74247">
        <ele>872.20001220703</ele>
        <time>2026-07-05T08:12:00.000Z</time>
      </trkpt>
      <trkpt lat="44.95974" lon="5.74247">
        <ele>872.20001220703</ele>
        <time>2026-07-05T08:12:01.000Z</time>
      </trkpt>
      <trkpt lat="44.95976" lon="5.74248">
        <ele>872.40002441406</ele>
        <time>2026-07-05T08:12:02.000Z</time>
      </trkpt>
      <trkpt lat="44.95978" lon="5.74248">
        <ele>872.40002441406</ele>
        <time>2026-07-05T08:12:03.000Z</time>
      </trkpt>
      <trkpt lat="44.9598" lon="5.74248">
        <ele>873.20001220703</ele>
        <time>2026-07-05T08:12:04.000Z</time>
      </trkpt>
      <trkpt lat="44.95983" lon="5.74248">
        <ele>874</ele>
        <time>2026-07-05T08:12:05.000Z</time>
      </trkpt>
      <trkpt lat="44.95985" lon="5.74248">
        <ele>874.79998779297</ele>
        <time>2026-07-05T08:12:06.000Z</time>
      </trkpt>
      <trkpt lat="44.95988" lon="5.74247">
        <ele>875</ele>
        <time>2026-07-05T08:12:07.000Z</time>
      </trkpt>
      <trkpt lat="44.95991" lon="5.74247">
        <ele>875</ele>
        <time>2026-07-05T08:12:08.000Z</time>
      </trkpt>
      <trkpt lat="44.95993" lon="5.74247">
        <ele>875.20001220703</ele>
        <time>2026-07-05T08:12:09.000Z</time>
      </trkpt>
      <trkpt lat="44.95996" lon="5.74247">
        <ele>875.20001220703</ele>
        <time>2026-07-05T08:12:10.000Z</time>
      </trkpt>
      <trkpt lat="44.95998" lon="5.74247">
        <ele>875.40002441406</ele>
        <time>2026-07-05T08:12:11.000Z</time>
      </trkpt>
      <trkpt lat="44.96001" lon="5.74247">
        <ele>875.40002441406</ele>
        <time>2026-07-05T08:12:12.000Z</time>
      </trkpt>
      <trkpt lat="44.96003" lon="5.74247">
        <ele>875.40002441406</ele>
        <time>2026-07-05T08:12:13.000Z</time>
      </trkpt>
      <trkpt lat="44.96006" lon="5.74247">
        <ele>875</ele>
        <time>2026-07-05T08:12:14.000Z</time>
      </trkpt>
      <trkpt lat="44.96009" lon="5.74247">
        <ele>874.79998779297</ele>
        <time>2026-07-05T08:12:15.000Z</time>
      </trkpt>
      <trkpt lat="44.96012" lon="5.74246">
        <ele>874.59997558594</ele>
        <time>2026-07-05T08:12:16.000Z</time>
      </trkpt>
      <trkpt lat="44.96014" lon="5.74246">
        <ele>874.40002441406</ele>
        <time>2026-07-05T08:12:17.000Z</time>
      </trkpt>
      <trkpt lat="44.96016" lon="5.74247">
        <ele>874.40002441406</ele>
        <time>2026-07-05T08:12:18.000Z</time>
      </trkpt>
      <trkpt lat="44.96019" lon="5.74246">
        <ele>874.40002441406</ele>
        <time>2026-07-05T08:12:19.000Z</time>
      </trkpt>
      <trkpt lat="44.96022" lon="5.74246">
        <ele>874.20001220703</ele>
        <time>2026-07-05T08:12:20.000Z</time>
      </trkpt>
      <trkpt lat="44.96024" lon="5.74246">
        <ele>874.20001220703</ele>
        <time>2026-07-05T08:12:21.000Z</time>
      </trkpt>
      <trkpt lat="44.96027" lon="5.74246">
        <ele>874</ele>
        <time>2026-07-05T08:12:22.000Z</time>
      </trkpt>
      <trkpt lat="44.96029" lon="5.74246">
        <ele>873.79998779297</ele>
        <time>2026-07-05T08:12:23.000Z</time>
      </trkpt>
      <trkpt lat="44.96032" lon="5.74245">
        <ele>874</ele>
        <time>2026-07-05T08:12:24.000Z</time>
      </trkpt>
      <trkpt lat="44.96034" lon="5.74245">
        <ele>874.40002441406</ele>
        <time>2026-07-05T08:12:25.000Z</time>
      </trkpt>
      <trkpt lat="44.96037" lon="5.74244">
        <ele>874.59997558594</ele>
        <time>2026-07-05T08:12:26.000Z</time>
      </trkpt>
      <trkpt lat="44.96039" lon="5.74244">
        <ele>875</ele>
        <time>2026-07-05T08:12:27.000Z</time>
      </trkpt>
      <trkpt lat="44.96042" lon="5.74242">
        <ele>875.40002441406</ele>
        <time>2026-07-05T08:12:28.000Z</time>
      </trkpt>
      <trkpt lat="44.96044" lon="5.74241">
        <ele>875.40002441406</ele>
        <time>2026-07-05T08:12:29.000Z</time>
      </trkpt>
      <trkpt lat="44.96047" lon="5.7424">
        <ele>875.59997558594</ele>
        <time>2026-07-05T08:12:30.000Z</time>
      </trkpt>
      <trkpt lat="44.9605" lon="5.74238">
        <ele>875.79998779297</ele>
        <time>2026-07-05T08:12:31.000Z</time>
      </trkpt>
      <trkpt lat="44.96052" lon="5.74237">
        <ele>876</ele>
        <time>2026-07-05T08:12:32.000Z</time>
      </trkpt>
      <trkpt lat="44.96055" lon="5.74236">
        <ele>876</ele>
        <time>2026-07-05T08:12:33.000Z</time>
      </trkpt>
      <trkpt lat="44.96058" lon="5.74235">
        <ele>876</ele>
        <time>2026-07-05T08:12:34.000Z</time>
      </trkpt>
      <trkpt lat="44.9606" lon="5.74235">
        <ele>876</ele>
        <time>2026-07-05T08:12:35.000Z</time>
      </trkpt>
      <trkpt lat="44.96063" lon="5.74236">
        <ele>876</ele>
        <time>2026-07-05T08:12:36.000Z</time>
      </trkpt>
      <trkpt lat="44.96066" lon="5.74235">
        <ele>875.20001220703</ele>
        <time>2026-07-05T08:12:37.000Z</time>
      </trkpt>
      <trkpt lat="44.96069" lon="5.74235">
        <ele>875.20001220703</ele>
        <time>2026-07-05T08:12:38.000Z</time>
      </trkpt>
      <trkpt lat="44.96072" lon="5.74235">
        <ele>875.40002441406</ele>
        <time>2026-07-05T08:12:39.000Z</time>
      </trkpt>
      <trkpt lat="44.96075" lon="5.74236">
        <ele>875.40002441406</ele>
        <time>2026-07-05T08:12:40.000Z</time>
      </trkpt>
      <trkpt lat="44.96077" lon="5.74237">
        <ele>875.20001220703</ele>
        <time>2026-07-05T08:12:41.000Z</time>
      </trkpt>
      <trkpt lat="44.96079" lon="5.74237">
        <ele>875.20001220703</ele>
        <time>2026-07-05T08:12:42.000Z</time>
      </trkpt>
      <trkpt lat="44.96082" lon="5.74238">
        <ele>874.79998779297</ele>
        <time>2026-07-05T08:12:43.000Z</time>
      </trkpt>
      <trkpt lat="44.96084" lon="5.74239">
        <ele>874.79998779297</ele>
        <time>2026-07-05T08:12:44.000Z</time>
      </trkpt>
      <trkpt lat="44.96085" lon="5.7424">
        <ele>874.40002441406</ele>
        <time>2026-07-05T08:12:45.000Z</time>
      </trkpt>
      <trkpt lat="44.96087" lon="5.74241">
        <ele>873.79998779297</ele>
        <time>2026-07-05T08:12:46.000Z</time>
      </trkpt>
      <trkpt lat="44.9609" lon="5.74242">
        <ele>873.59997558594</ele>
        <time>2026-07-05T08:12:47.000Z</time>
      </trkpt>
      <trkpt lat="44.96091" lon="5.74243">
        <ele>873.40002441406</ele>
        <time>2026-07-05T08:12:48.000Z</time>
      </trkpt>
      <trkpt lat="44.96093" lon="5.74244">
        <ele>873.40002441406</ele>
        <time>2026-07-05T08:12:49.000Z</time>
      </trkpt>
      <trkpt lat="44.96095" lon="5.74245">
        <ele>873.79998779297</ele>
        <time>2026-07-05T08:12:50.000Z</time>
      </trkpt>
      <trkpt lat="44.96096" lon="5.74246">
        <ele>874</ele>
        <time>2026-07-05T08:12:51.000Z</time>
      </trkpt>
      <trkpt lat="44.96096" lon="5.74246">
        <ele>874.40002441406</ele>
        <time>2026-07-05T08:12:52.000Z</time>
      </trkpt>
      <trkpt lat="44.96075" lon="5.74248">
        <ele>874</ele>
        <time>2026-07-05T08:14:09.000Z</time>
      </trkpt>
      <trkpt lat="44.96074" lon="5.7425">
        <ele>874.79998779297</ele>
        <time>2026-07-05T08:14:10.000Z</time>
      </trkpt>
      <trkpt lat="44.96071" lon="5.74252">
        <ele>875.40002441406</ele>
        <time>2026-07-05T08:14:11.000Z</time>
      </trkpt>
      <trkpt lat="44.9607" lon="5.74251">
        <ele>876.40002441406</ele>
        <time>2026-07-05T08:14:12.000Z</time>
      </trkpt>
      <trkpt lat="44.96067" lon="5.74249">
        <ele>876.79998779297</ele>
        <time>2026-07-05T08:14:13.000Z</time>
      </trkpt>
      <trkpt lat="44.96066" lon="5.74247">
        <ele>876.79998779297</ele>
        <time>2026-07-05T08:14:14.000Z</time>
      </trkpt>
      <trkpt lat="44.96066" lon="5.74246">
        <ele>876.59997558594</ele>
        <time>2026-07-05T08:14:15.000Z</time>
      </trkpt>
      <trkpt lat="44.96067" lon="5.74246">
        <ele>876.20001220703</ele>
        <time>2026-07-05T08:14:16.000Z</time>
      </trkpt>
      <trkpt lat="44.96067" lon="5.74246">
        <ele>876</ele>
        <time>2026-07-05T08:14:17.000Z</time>
      </trkpt>
      <trkpt lat="44.96066" lon="5.74246">
        <ele>875.79998779297</ele>
        <time>2026-07-05T08:14:18.000Z</time>
      </trkpt>
      <trkpt lat="44.96066" lon="5.74246">
        <ele>875.59997558594</ele>
        <time>2026-07-05T08:14:19.000Z</time>
      </trkpt>
      <trkpt lat="44.96067" lon="5.74246">
        <ele>875.40002441406</ele>
        <time>2026-07-05T08:14:20.000Z</time>
      </trkpt>
      <trkpt lat="44.96067" lon="5.74247">
        <ele>875.40002441406</ele>
        <time>2026-07-05T08:14:21.000Z</time>
      </trkpt>
      <trkpt lat="44.96067" lon="5.74247">
        <ele>875.40002441406</ele>
        <time>2026-07-05T08:14:22.000Z</time>
      </trkpt>
      <trkpt lat="44.96067" lon="5.74247">
        <ele>875.40002441406</ele>
        <time>2026-07-05T08:14:23.000Z</time>
      </trkpt>
      <trkpt lat="44.96067" lon="5.74247">
        <ele>875.40002441406</ele>
        <time>2026-07-05T08:14:24.000Z</time>
      </trkpt>
      <trkpt lat="44.96067" lon="5.74247">
        <ele>875.40002441406</ele>
        <time>2026-07-05T08:14:25.000Z</time>
      </trkpt>
      <trkpt lat="44.96067" lon="5.74247">
        <ele>875.40002441406</ele>
        <time>2026-07-05T08:14:26.000Z</time>
      </trkpt>
      <trkpt lat="44.96067" lon="5.74247">
        <ele>875.40002441406</ele>
        <time>2026-07-05T08:14:27.000Z</time>
      </trkpt>
      <trkpt lat="44.96067" lon="5.74247">
        <ele>875.40002441406</ele>
        <time>2026-07-05T08:14:28.000Z</time>
      </trkpt>
      <trkpt lat="44.96067" lon="5.74247">
        <ele>875.40002441406</ele>
        <time>2026-07-05T08:14:29.000Z</time>
      </trkpt>
      <trkpt lat="44.96067" lon="5.74247">
        <ele>875.59997558594</ele>
        <time>2026-07-05T08:14:30.000Z</time>
      </trkpt>
      <trkpt lat="44.96066" lon="5.74247">
        <ele>875.79998779297</ele>
        <time>2026-07-05T08:14:31.000Z</time>
      </trkpt>
      <trkpt lat="44.96065" lon="5.74248">
        <ele>876</ele>
        <time>2026-07-05T08:14:32.000Z</time>
      </trkpt>
      <trkpt lat="44.96064" lon="5.74247">
        <ele>876</ele>
        <time>2026-07-05T08:14:33.000Z</time>
      </trkpt>
      <trkpt lat="44.96063" lon="5.74247">
        <ele>876</ele>
        <time>2026-07-05T08:14:34.000Z</time>
      </trkpt>
      <trkpt lat="44.96062" lon="5.74247">
        <ele>875.79998779297</ele>
        <time>2026-07-05T08:14:35.000Z</time>
      </trkpt>
      <trkpt lat="44.9606" lon="5.74248">
        <ele>875.59997558594</ele>
        <time>2026-07-05T08:14:36.000Z</time>
      </trkpt>
      <trkpt lat="44.96058" lon="5.74248">
        <ele>875.59997558594</ele>
        <time>2026-07-05T08:14:37.000Z</time>
      </trkpt>
      <trkpt lat="44.96056" lon="5.74249">
        <ele>875.59997558594</ele>
        <time>2026-07-05T08:14:38.000Z</time>
      </trkpt>
      <trkpt lat="44.96054" lon="5.7425">
        <ele>875.59997558594</ele>
        <time>2026-07-05T08:14:39.000Z</time>
      </trkpt>
      <trkpt lat="44.96051" lon="5.74251">
        <ele>875.59997558594</ele>
        <time>2026-07-05T08:14:40.000Z</time>
      </trkpt>
      <trkpt lat="44.96049" lon="5.74252">
        <ele>875.59997558594</ele>
        <time>2026-07-05T08:14:41.000Z</time>
      </trkpt>
      <trkpt lat="44.96047" lon="5.74254">
        <ele>875.59997558594</ele>
        <time>2026-07-05T08:14:42.000Z</time>
      </trkpt>
      <trkpt lat="44.96044" lon="5.74254">
        <ele>875.59997558594</ele>
        <time>2026-07-05T08:14:43.000Z</time>
      </trkpt>
      <trkpt lat="44.96042" lon="5.74255">
        <ele>875.59997558594</ele>
        <time>2026-07-05T08:14:44.000Z</time>
      </trkpt>
      <trkpt lat="44.9604" lon="5.74257">
        <ele>875.40002441406</ele>
        <time>2026-07-05T08:14:45.000Z</time>
      </trkpt>
      <trkpt lat="44.96039" lon="5.74259">
        <ele>875.40002441406</ele>
        <time>2026-07-05T08:14:46.000Z</time>
      </trkpt>
      <trkpt lat="44.96037" lon="5.74262">
        <ele>875.79998779297</ele>
        <time>2026-07-05T08:14:47.000Z</time>
      </trkpt>
      <trkpt lat="44.96037" lon="5.74265">
        <ele>876.20001220703</ele>
        <time>2026-07-05T08:14:48.000Z</time>
      </trkpt>
      <trkpt lat="44.96036" lon="5.74268">
        <ele>876</ele>
        <time>2026-07-05T08:14:49.000Z</time>
      </trkpt>
      <trkpt lat="44.96035" lon="5.74272">
        <ele>876</ele>
        <time>2026-07-05T08:14:50.000Z</time>
      </trkpt>
      <trkpt lat="44.96035" lon="5.74275">
        <ele>876.20001220703</ele>
        <time>2026-07-05T08:14:51.000Z</time>
      </trkpt>
      <trkpt lat="44.96035" lon="5.74279">
        <ele>876</ele>
        <time>2026-07-05T08:14:52.000Z</time>
      </trkpt>
      <trkpt lat="44.96034" lon="5.74283">
        <ele>876</ele>
        <time>2026-07-05T08:14:53.000Z</time>
      </trkpt>
      <trkpt lat="44.96034" lon="5.74287">
        <ele>876</ele>
        <time>2026-07-05T08:14:54.000Z</time>
      </trkpt>
      <trkpt lat="44.96034" lon="5.74291">
        <ele>875.59997558594</ele>
        <time>2026-07-05T08:14:55.000Z</time>
      </trkpt>
      <trkpt lat="44.96033" lon="5.74294">
        <ele>875.59997558594</ele>
        <time>2026-07-05T08:14:56.000Z</time>
      </trkpt>
      <trkpt lat="44.96033" lon="5.74297">
        <ele>875.59997558594</ele>
        <time>2026-07-05T08:14:57.000Z</time>
      </trkpt>
      <trkpt lat="44.96032" lon="5.74301">
        <ele>875.59997558594</ele>
        <time>2026-07-05T08:14:58.000Z</time>
      </trkpt>
      <trkpt lat="44.9603" lon="5.74305">
        <ele>876</ele>
        <time>2026-07-05T08:14:59.000Z</time>
      </trkpt>
      <trkpt lat="44.96029" lon="5.74308">
        <ele>876.40002441406</ele>
        <time>2026-07-05T08:15:00.000Z</time>
      </trkpt>
      <trkpt lat="44.96027" lon="5.74312">
        <ele>876.79998779297</ele>
        <time>2026-07-05T08:15:01.000Z</time>
      </trkpt>
      <trkpt lat="44.96025" lon="5.74314">
        <ele>877.20001220703</ele>
        <time>2026-07-05T08:15:02.000Z</time>
      </trkpt>
      <trkpt lat="44.96022" lon="5.74317">
        <ele>877.79998779297</ele>
        <time>2026-07-05T08:15:03.000Z</time>
      </trkpt>
      <trkpt lat="44.9602" lon="5.74319">
        <ele>878.20001220703</ele>
        <time>2026-07-05T08:15:04.000Z</time>
      </trkpt>
      <trkpt lat="44.96018" lon="5.74321">
        <ele>878.59997558594</ele>
        <time>2026-07-05T08:15:05.000Z</time>
      </trkpt>
      <trkpt lat="44.96015" lon="5.74322">
        <ele>878.79998779297</ele>
        <time>2026-07-05T08:15:06.000Z</time>
      </trkpt>
      <trkpt lat="44.96013" lon="5.74324">
        <ele>881.20001220703</ele>
        <time>2026-07-05T08:15:07.000Z</time>
      </trkpt>
      <trkpt lat="44.96011" lon="5.74325">
        <ele>881.40002441406</ele>
        <time>2026-07-05T08:15:08.000Z</time>
      </trkpt>
      <trkpt lat="44.96009" lon="5.74326">
        <ele>881.40002441406</ele>
        <time>2026-07-05T08:15:09.000Z</time>
      </trkpt>
      <trkpt lat="44.96007" lon="5.74328">
        <ele>881.20001220703</ele>
        <time>2026-07-05T08:15:10.000Z</time>
      </trkpt>
      <trkpt lat="44.96005" lon="5.7433">
        <ele>881.40002441406</ele>
        <time>2026-07-05T08:15:11.000Z</time>
      </trkpt>
      <trkpt lat="44.96003" lon="5.74331">
        <ele>881.40002441406</ele>
        <time>2026-07-05T08:15:12.000Z</time>
      </trkpt>
      <trkpt lat="44.96001" lon="5.74333">
        <ele>881.20001220703</ele>
        <time>2026-07-05T08:15:13.000Z</time>
      </trkpt>
      <trkpt lat="44.96" lon="5.74334">
        <ele>881</ele>
        <time>2026-07-05T08:15:14.000Z</time>
      </trkpt>
      <trkpt lat="44.95998" lon="5.74336">
        <ele>881</ele>
        <time>2026-07-05T08:15:15.000Z</time>
      </trkpt>
      <trkpt lat="44.95996" lon="5.74337">
        <ele>881</ele>
        <time>2026-07-05T08:15:16.000Z</time>
      </trkpt>
      <trkpt lat="44.95993" lon="5.74338">
        <ele>881</ele>
        <time>2026-07-05T08:15:17.000Z</time>
      </trkpt>
      <trkpt lat="44.95991" lon="5.74339">
        <ele>881</ele>
        <time>2026-07-05T08:15:18.000Z</time>
      </trkpt>
      <trkpt lat="44.95989" lon="5.7434">
        <ele>880.40002441406</ele>
        <time>2026-07-05T08:15:19.000Z</time>
      </trkpt>
      <trkpt lat="44.95987" lon="5.74341">
        <ele>880</ele>
        <time>2026-07-05T08:15:20.000Z</time>
      </trkpt>
      <trkpt lat="44.95985" lon="5.74342">
        <ele>879.79998779297</ele>
        <time>2026-07-05T08:15:21.000Z</time>
      </trkpt>
      <trkpt lat="44.95982" lon="5.74344">
        <ele>879.40002441406</ele>
        <time>2026-07-05T08:15:22.000Z</time>
      </trkpt>
      <trkpt lat="44.9598" lon="5.74345">
        <ele>879.20001220703</ele>
        <time>2026-07-05T08:15:23.000Z</time>
      </trkpt>
      <trkpt lat="44.95978" lon="5.74346">
        <ele>878.79998779297</ele>
        <time>2026-07-05T08:15:24.000Z</time>
      </trkpt>
      <trkpt lat="44.95976" lon="5.74348">
        <ele>878.79998779297</ele>
        <time>2026-07-05T08:15:25.000Z</time>
      </trkpt>
      <trkpt lat="44.95974" lon="5.74349">
        <ele>878.59997558594</ele>
        <time>2026-07-05T08:15:26.000Z</time>
      </trkpt>
      <trkpt lat="44.95971" lon="5.74351">
        <ele>878.59997558594</ele>
        <time>2026-07-05T08:15:27.000Z</time>
      </trkpt>
      <trkpt lat="44.95969" lon="5.74352">
        <ele>878.40002441406</ele>
        <time>2026-07-05T08:15:28.000Z</time>
      </trkpt>
      <trkpt lat="44.95967" lon="5.74354">
        <ele>878.40002441406</ele>
        <time>2026-07-05T08:15:29.000Z</time>
      </trkpt>
      <trkpt lat="44.95964" lon="5.74356">
        <ele>878.79998779297</ele>
        <time>2026-07-05T08:15:30.000Z</time>
      </trkpt>
      <trkpt lat="44.95962" lon="5.74357">
        <ele>879.40002441406</ele>
        <time>2026-07-05T08:15:31.000Z</time>
      </trkpt>
      <trkpt lat="44.9596" lon="5.74358">
        <ele>879.79998779297</ele>
        <time>2026-07-05T08:15:32.000Z</time>
      </trkpt>
      <trkpt lat="44.95958" lon="5.7436">
        <ele>880.79998779297</ele>
        <time>2026-07-05T08:15:33.000Z</time>
      </trkpt>
      <trkpt lat="44.95956" lon="5.74361">
        <ele>881.59997558594</ele>
        <time>2026-07-05T08:15:34.000Z</time>
      </trkpt>
      <trkpt lat="44.95953" lon="5.74362">
        <ele>881.59997558594</ele>
        <time>2026-07-05T08:15:35.000Z</time>
      </trkpt>
      <trkpt lat="44.95951" lon="5.74364">
        <ele>881.79998779297</ele>
        <time>2026-07-05T08:15:36.000Z</time>
      </trkpt>
      <trkpt lat="44.95949" lon="5.74365">
        <ele>881.59997558594</ele>
        <time>2026-07-05T08:15:37.000Z</time>
      </trkpt>
      <trkpt lat="44.95947" lon="5.74367">
        <ele>881.59997558594</ele>
        <time>2026-07-05T08:15:38.000Z</time>
      </trkpt>
      <trkpt lat="44.95945" lon="5.74369">
        <ele>881.40002441406</ele>
        <time>2026-07-05T08:15:39.000Z</time>
      </trkpt>
      <trkpt lat="44.95943" lon="5.74371">
        <ele>881.40002441406</ele>
        <time>2026-07-05T08:15:40.000Z</time>
      </trkpt>
      <trkpt lat="44.95941" lon="5.74373">
        <ele>881</ele>
        <time>2026-07-05T08:15:41.000Z</time>
      </trkpt>
      <trkpt lat="44.95939" lon="5.74375">
        <ele>880.79998779297</ele>
        <time>2026-07-05T08:15:42.000Z</time>
      </trkpt>
      <trkpt lat="44.95937" lon="5.74377">
        <ele>880.59997558594</ele>
        <time>2026-07-05T08:15:43.000Z</time>
      </trkpt>
      <trkpt lat="44.95936" lon="5.74379">
        <ele>880.59997558594</ele>
        <time>2026-07-05T08:15:44.000Z</time>
      </trkpt>
      <trkpt lat="44.95933" lon="5.7438">
        <ele>880.59997558594</ele>
        <time>2026-07-05T08:15:45.000Z</time>
      </trkpt>
      <trkpt lat="44.95932" lon="5.74382">
        <ele>880.59997558594</ele>
        <time>2026-07-05T08:15:46.000Z</time>
      </trkpt>
      <trkpt lat="44.9593" lon="5.74384">
        <ele>880.59997558594</ele>
        <time>2026-07-05T08:15:47.000Z</time>
      </trkpt>
      <trkpt lat="44.95927" lon="5.74387">
        <ele>881.79998779297</ele>
        <time>2026-07-05T08:15:48.000Z</time>
      </trkpt>
      <trkpt lat="44.95926" lon="5.74389">
        <ele>881.79998779297</ele>
        <time>2026-07-05T08:15:49.000Z</time>
      </trkpt>
      <trkpt lat="44.95924" lon="5.7439">
        <ele>881.79998779297</ele>
        <time>2026-07-05T08:15:50.000Z</time>
      </trkpt>
      <trkpt lat="44.95922" lon="5.74392">
        <ele>882.20001220703</ele>
        <time>2026-07-05T08:15:51.000Z</time>
      </trkpt>
      <trkpt lat="44.95921" lon="5.74394">
        <ele>882.40002441406</ele>
        <time>2026-07-05T08:15:52.000Z</time>
      </trkpt>
      <trkpt lat="44.95919" lon="5.74396">
        <ele>883.20001220703</ele>
        <time>2026-07-05T08:15:53.000Z</time>
      </trkpt>
      <trkpt lat="44.95917" lon="5.74398">
        <ele>883.40002441406</ele>
        <time>2026-07-05T08:15:54.000Z</time>
      </trkpt>
      <trkpt lat="44.95916" lon="5.744">
        <ele>883.40002441406</ele>
        <time>2026-07-05T08:15:55.000Z</time>
      </trkpt>
      <trkpt lat="44.95914" lon="5.74402">
        <ele>883.59997558594</ele>
        <time>2026-07-05T08:15:56.000Z</time>
      </trkpt>
      <trkpt lat="44.95912" lon="5.74403">
        <ele>883.79998779297</ele>
        <time>2026-07-05T08:15:57.000Z</time>
      </trkpt>
      <trkpt lat="44.9591" lon="5.74404">
        <ele>884</ele>
        <time>2026-07-05T08:15:58.000Z</time>
      </trkpt>
      <trkpt lat="44.95908" lon="5.74406">
        <ele>884</ele>
        <time>2026-07-05T08:15:59.000Z</time>
      </trkpt>
      <trkpt lat="44.95906" lon="5.74407">
        <ele>884</ele>
        <time>2026-07-05T08:16:00.000Z</time>
      </trkpt>
      <trkpt lat="44.95904" lon="5.74409">
        <ele>884.40002441406</ele>
        <time>2026-07-05T08:16:01.000Z</time>
      </trkpt>
      <trkpt lat="44.95902" lon="5.74411">
        <ele>885</ele>
        <time>2026-07-05T08:16:02.000Z</time>
      </trkpt>
      <trkpt lat="44.959" lon="5.74412">
        <ele>885.59997558594</ele>
        <time>2026-07-05T08:16:03.000Z</time>
      </trkpt>
      <trkpt lat="44.95898" lon="5.74413">
        <ele>886.59997558594</ele>
        <time>2026-07-05T08:16:04.000Z</time>
      </trkpt>
      <trkpt lat="44.95897" lon="5.74414">
        <ele>887.20001220703</ele>
        <time>2026-07-05T08:16:05.000Z</time>
      </trkpt>
      <trkpt lat="44.95895" lon="5.74415">
        <ele>887.79998779297</ele>
        <time>2026-07-05T08:16:06.000Z</time>
      </trkpt>
      <trkpt lat="44.95893" lon="5.74416">
        <ele>888.40002441406</ele>
        <time>2026-07-05T08:16:07.000Z</time>
      </trkpt>
      <trkpt lat="44.95891" lon="5.74417">
        <ele>888.40002441406</ele>
        <time>2026-07-05T08:16:08.000Z</time>
      </trkpt>
      <trkpt lat="44.95889" lon="5.74419">
        <ele>888.59997558594</ele>
        <time>2026-07-05T08:16:09.000Z</time>
      </trkpt>
      <trkpt lat="44.95887" lon="5.7442">
        <ele>888.40002441406</ele>
        <time>2026-07-05T08:16:10.000Z</time>
      </trkpt>
      <trkpt lat="44.95886" lon="5.7442">
        <ele>888.20001220703</ele>
        <time>2026-07-05T08:16:11.000Z</time>
      </trkpt>
      <trkpt lat="44.95884" lon="5.74421">
        <ele>888.20001220703</ele>
        <time>2026-07-05T08:16:12.000Z</time>
      </trkpt>
      <trkpt lat="44.95883" lon="5.74422">
        <ele>888.40002441406</ele>
        <time>2026-07-05T08:16:13.000Z</time>
      </trkpt>
      <trkpt lat="44.95881" lon="5.74423">
        <ele>888.40002441406</ele>
        <time>2026-07-05T08:16:14.000Z</time>
      </trkpt>
      <trkpt lat="44.9588" lon="5.74424">
        <ele>888.40002441406</ele>
        <time>2026-07-05T08:16:15.000Z</time>
      </trkpt>
      <trkpt lat="44.95878" lon="5.74425">
        <ele>888</ele>
        <time>2026-07-05T08:16:16.000Z</time>
      </trkpt>
      <trkpt lat="44.95876" lon="5.74427">
        <ele>887.79998779297</ele>
        <time>2026-07-05T08:16:17.000Z</time>
      </trkpt>
      <trkpt lat="44.95875" lon="5.74429">
        <ele>886.79998779297</ele>
        <time>2026-07-05T08:16:18.000Z</time>
      </trkpt>
      <trkpt lat="44.95874" lon="5.7443">
        <ele>886.40002441406</ele>
        <time>2026-07-05T08:16:19.000Z</time>
      </trkpt>
      <trkpt lat="44.95872" lon="5.74431">
        <ele>886</ele>
        <time>2026-07-05T08:16:20.000Z</time>
      </trkpt>
      <trkpt lat="44.9587" lon="5.74432">
        <ele>886</ele>
        <time>2026-07-05T08:16:21.000Z</time>
      </trkpt>
      <trkpt lat="44.95869" lon="5.74434">
        <ele>886.20001220703</ele>
        <time>2026-07-05T08:16:22.000Z</time>
      </trkpt>
      <trkpt lat="44.95867" lon="5.74435">
        <ele>886.20001220703</ele>
        <time>2026-07-05T08:16:23.000Z</time>
      </trkpt>
      <trkpt lat="44.95866" lon="5.74437">
        <ele>886.20001220703</ele>
        <time>2026-07-05T08:16:24.000Z</time>
      </trkpt>
      <trkpt lat="44.95865" lon="5.74438">
        <ele>886.59997558594</ele>
        <time>2026-07-05T08:16:25.000Z</time>
      </trkpt>
      <trkpt lat="44.95863" lon="5.74439">
        <ele>886.79998779297</ele>
        <time>2026-07-05T08:16:26.000Z</time>
      </trkpt>
      <trkpt lat="44.95861" lon="5.7444">
        <ele>886.79998779297</ele>
        <time>2026-07-05T08:16:27.000Z</time>
      </trkpt>
      <trkpt lat="44.95859" lon="5.74441">
        <ele>887</ele>
        <time>2026-07-05T08:16:28.000Z</time>
      </trkpt>
      <trkpt lat="44.95858" lon="5.74441">
        <ele>887</ele>
        <time>2026-07-05T08:16:29.000Z</time>
      </trkpt>
      <trkpt lat="44.95856" lon="5.74442">
        <ele>888.20001220703</ele>
        <time>2026-07-05T08:16:30.000Z</time>
      </trkpt>
      <trkpt lat="44.95854" lon="5.74444">
        <ele>889</ele>
        <time>2026-07-05T08:16:31.000Z</time>
      </trkpt>
      <trkpt lat="44.95852" lon="5.74445">
        <ele>889.59997558594</ele>
        <time>2026-07-05T08:16:32.000Z</time>
      </trkpt>
      <trkpt lat="44.95851" lon="5.74446">
        <ele>889.79998779297</ele>
        <time>2026-07-05T08:16:33.000Z</time>
      </trkpt>
      <trkpt lat="44.95849" lon="5.74447">
        <ele>890</ele>
        <time>2026-07-05T08:16:34.000Z</time>
      </trkpt>
      <trkpt lat="44.95848" lon="5.74448">
        <ele>890.20001220703</ele>
        <time>2026-07-05T08:16:35.000Z</time>
      </trkpt>
      <trkpt lat="44.95846" lon="5.7445">
        <ele>890.79998779297</ele>
        <time>2026-07-05T08:16:36.000Z</time>
      </trkpt>
      <trkpt lat="44.95844" lon="5.74451">
        <ele>891.40002441406</ele>
        <time>2026-07-05T08:16:37.000Z</time>
      </trkpt>
      <trkpt lat="44.95843" lon="5.74452">
        <ele>892</ele>
        <time>2026-07-05T08:16:38.000Z</time>
      </trkpt>
      <trkpt lat="44.95841" lon="5.74453">
        <ele>892.59997558594</ele>
        <time>2026-07-05T08:16:39.000Z</time>
      </trkpt>
      <trkpt lat="44.95839" lon="5.74454">
        <ele>892.79998779297</ele>
        <time>2026-07-05T08:16:40.000Z</time>
      </trkpt>
      <trkpt lat="44.95838" lon="5.74455">
        <ele>893</ele>
        <time>2026-07-05T08:16:41.000Z</time>
      </trkpt>
      <trkpt lat="44.95837" lon="5.74456">
        <ele>893</ele>
        <time>2026-07-05T08:16:42.000Z</time>
      </trkpt>
      <trkpt lat="44.95835" lon="5.74457">
        <ele>893.20001220703</ele>
        <time>2026-07-05T08:16:43.000Z</time>
      </trkpt>
      <trkpt lat="44.95834" lon="5.74458">
        <ele>893.59997558594</ele>
        <time>2026-07-05T08:16:44.000Z</time>
      </trkpt>
      <trkpt lat="44.95832" lon="5.7446">
        <ele>893.79998779297</ele>
        <time>2026-07-05T08:16:45.000Z</time>
      </trkpt>
      <trkpt lat="44.9583" lon="5.74461">
        <ele>894.20001220703</ele>
        <time>2026-07-05T08:16:46.000Z</time>
      </trkpt>
      <trkpt lat="44.95829" lon="5.74462">
        <ele>894.40002441406</ele>
        <time>2026-07-05T08:16:47.000Z</time>
      </trkpt>
      <trkpt lat="44.95827" lon="5.74465">
        <ele>894.79998779297</ele>
        <time>2026-07-05T08:16:48.000Z</time>
      </trkpt>
      <trkpt lat="44.95826" lon="5.74467">
        <ele>894.20001220703</ele>
        <time>2026-07-05T08:16:49.000Z</time>
      </trkpt>
      <trkpt lat="44.95824" lon="5.74469">
        <ele>893.79998779297</ele>
        <time>2026-07-05T08:16:50.000Z</time>
      </trkpt>
      <trkpt lat="44.95822" lon="5.7447">
        <ele>893.79998779297</ele>
        <time>2026-07-05T08:16:51.000Z</time>
      </trkpt>
      <trkpt lat="44.95821" lon="5.74472">
        <ele>893.59997558594</ele>
        <time>2026-07-05T08:16:52.000Z</time>
      </trkpt>
      <trkpt lat="44.9582" lon="5.74474">
        <ele>893.40002441406</ele>
        <time>2026-07-05T08:16:53.000Z</time>
      </trkpt>
      <trkpt lat="44.95819" lon="5.74475">
        <ele>893.40002441406</ele>
        <time>2026-07-05T08:16:54.000Z</time>
      </trkpt>
      <trkpt lat="44.95817" lon="5.74477">
        <ele>893.40002441406</ele>
        <time>2026-07-05T08:16:55.000Z</time>
      </trkpt>
      <trkpt lat="44.95816" lon="5.74479">
        <ele>893.40002441406</ele>
        <time>2026-07-05T08:16:56.000Z</time>
      </trkpt>
      <trkpt lat="44.95814" lon="5.74482">
        <ele>893.40002441406</ele>
        <time>2026-07-05T08:16:57.000Z</time>
      </trkpt>
      <trkpt lat="44.95812" lon="5.74484">
        <ele>893.59997558594</ele>
        <time>2026-07-05T08:16:58.000Z</time>
      </trkpt>
      <trkpt lat="44.9581" lon="5.74486">
        <ele>894</ele>
        <time>2026-07-05T08:16:59.000Z</time>
      </trkpt>
      <trkpt lat="44.95808" lon="5.74488">
        <ele>894.40002441406</ele>
        <time>2026-07-05T08:17:00.000Z</time>
      </trkpt>
      <trkpt lat="44.95806" lon="5.74489">
        <ele>894.79998779297</ele>
        <time>2026-07-05T08:17:01.000Z</time>
      </trkpt>
      <trkpt lat="44.95804" lon="5.74491">
        <ele>895.20001220703</ele>
        <time>2026-07-05T08:17:02.000Z</time>
      </trkpt>
      <trkpt lat="44.95803" lon="5.74493">
        <ele>895.59997558594</ele>
        <time>2026-07-05T08:17:03.000Z</time>
      </trkpt>
      <trkpt lat="44.95802" lon="5.74495">
        <ele>896</ele>
        <time>2026-07-05T08:17:04.000Z</time>
      </trkpt>
      <trkpt lat="44.958" lon="5.74497">
        <ele>895.40002441406</ele>
        <time>2026-07-05T08:17:05.000Z</time>
      </trkpt>
      <trkpt lat="44.95798" lon="5.74499">
        <ele>894.59997558594</ele>
        <time>2026-07-05T08:17:06.000Z</time>
      </trkpt>
      <trkpt lat="44.95796" lon="5.74501">
        <ele>894</ele>
        <time>2026-07-05T08:17:07.000Z</time>
      </trkpt>
      <trkpt lat="44.95794" lon="5.74503">
        <ele>893.79998779297</ele>
        <time>2026-07-05T08:17:08.000Z</time>
      </trkpt>
      <trkpt lat="44.95792" lon="5.74505">
        <ele>893.79998779297</ele>
        <time>2026-07-05T08:17:09.000Z</time>
      </trkpt>
      <trkpt lat="44.9579" lon="5.74507">
        <ele>893.59997558594</ele>
        <time>2026-07-05T08:17:10.000Z</time>
      </trkpt>
      <trkpt lat="44.95787" lon="5.74509">
        <ele>893.40002441406</ele>
        <time>2026-07-05T08:17:11.000Z</time>
      </trkpt>
      <trkpt lat="44.95785" lon="5.74509">
        <ele>893.59997558594</ele>
        <time>2026-07-05T08:17:12.000Z</time>
      </trkpt>
      <trkpt lat="44.95782" lon="5.7451">
        <ele>894</ele>
        <time>2026-07-05T08:17:13.000Z</time>
      </trkpt>
      <trkpt lat="44.95779" lon="5.74511">
        <ele>894</ele>
        <time>2026-07-05T08:17:14.000Z</time>
      </trkpt>
      <trkpt lat="44.95777" lon="5.74512">
        <ele>894.20001220703</ele>
        <time>2026-07-05T08:17:15.000Z</time>
      </trkpt>
      <trkpt lat="44.95774" lon="5.74513">
        <ele>894.59997558594</ele>
        <time>2026-07-05T08:17:16.000Z</time>
      </trkpt>
      <trkpt lat="44.95772" lon="5.74514">
        <ele>894.79998779297</ele>
        <time>2026-07-05T08:17:17.000Z</time>
      </trkpt>
      <trkpt lat="44.9577" lon="5.74514">
        <ele>896</ele>
        <time>2026-07-05T08:17:18.000Z</time>
      </trkpt>
      <trkpt lat="44.95767" lon="5.74515">
        <ele>897</ele>
        <time>2026-07-05T08:17:19.000Z</time>
      </trkpt>
      <trkpt lat="44.95765" lon="5.74515">
        <ele>896.79998779297</ele>
        <time>2026-07-05T08:17:20.000Z</time>
      </trkpt>
      <trkpt lat="44.95763" lon="5.74516">
        <ele>896.59997558594</ele>
        <time>2026-07-05T08:17:21.000Z</time>
      </trkpt>
      <trkpt lat="44.95761" lon="5.74517">
        <ele>896.59997558594</ele>
        <time>2026-07-05T08:17:22.000Z</time>
      </trkpt>
      <trkpt lat="44.95758" lon="5.74517">
        <ele>896.59997558594</ele>
        <time>2026-07-05T08:17:23.000Z</time>
      </trkpt>
      <trkpt lat="44.95756" lon="5.74517">
        <ele>896.20001220703</ele>
        <time>2026-07-05T08:17:24.000Z</time>
      </trkpt>
      <trkpt lat="44.95754" lon="5.74518">
        <ele>896</ele>
        <time>2026-07-05T08:17:25.000Z</time>
      </trkpt>
      <trkpt lat="44.95752" lon="5.74519">
        <ele>895.79998779297</ele>
        <time>2026-07-05T08:17:26.000Z</time>
      </trkpt>
      <trkpt lat="44.95749" lon="5.7452">
        <ele>895.59997558594</ele>
        <time>2026-07-05T08:17:27.000Z</time>
      </trkpt>
      <trkpt lat="44.95747" lon="5.74521">
        <ele>895.20001220703</ele>
        <time>2026-07-05T08:17:28.000Z</time>
      </trkpt>
      <trkpt lat="44.95745" lon="5.74522">
        <ele>895</ele>
        <time>2026-07-05T08:17:29.000Z</time>
      </trkpt>
      <trkpt lat="44.95743" lon="5.74523">
        <ele>894.79998779297</ele>
        <time>2026-07-05T08:17:30.000Z</time>
      </trkpt>
      <trkpt lat="44.95741" lon="5.74525">
        <ele>894.40002441406</ele>
        <time>2026-07-05T08:17:31.000Z</time>
      </trkpt>
      <trkpt lat="44.95739" lon="5.74526">
        <ele>894.20001220703</ele>
        <time>2026-07-05T08:17:32.000Z</time>
      </trkpt>
      <trkpt lat="44.95737" lon="5.74527">
        <ele>893.59997558594</ele>
        <time>2026-07-05T08:17:33.000Z</time>
      </trkpt>
      <trkpt lat="44.95734" lon="5.74528">
        <ele>893.20001220703</ele>
        <time>2026-07-05T08:17:34.000Z</time>
      </trkpt>
      <trkpt lat="44.95732" lon="5.74529">
        <ele>893.20001220703</ele>
        <time>2026-07-05T08:17:35.000Z</time>
      </trkpt>
      <trkpt lat="44.9573" lon="5.7453">
        <ele>893.20001220703</ele>
        <time>2026-07-05T08:17:36.000Z</time>
      </trkpt>
      <trkpt lat="44.95728" lon="5.74532">
        <ele>893.20001220703</ele>
        <time>2026-07-05T08:17:37.000Z</time>
      </trkpt>
      <trkpt lat="44.95727" lon="5.74533">
        <ele>893.20001220703</ele>
        <time>2026-07-05T08:17:38.000Z</time>
      </trkpt>
      <trkpt lat="44.95725" lon="5.74534">
        <ele>893.20001220703</ele>
        <time>2026-07-05T08:17:39.000Z</time>
      </trkpt>
      <trkpt lat="44.95722" lon="5.74536">
        <ele>893.20001220703</ele>
        <time>2026-07-05T08:17:40.000Z</time>
      </trkpt>
      <trkpt lat="44.95721" lon="5.74537">
        <ele>893.40002441406</ele>
        <time>2026-07-05T08:17:41.000Z</time>
      </trkpt>
      <trkpt lat="44.95718" lon="5.74539">
        <ele>893.59997558594</ele>
        <time>2026-07-05T08:17:42.000Z</time>
      </trkpt>
      <trkpt lat="44.95717" lon="5.74541">
        <ele>893.79998779297</ele>
        <time>2026-07-05T08:17:43.000Z</time>
      </trkpt>
      <trkpt lat="44.95715" lon="5.74543">
        <ele>894</ele>
        <time>2026-07-05T08:17:44.000Z</time>
      </trkpt>
      <trkpt lat="44.95713" lon="5.74545">
        <ele>894.20001220703</ele>
        <time>2026-07-05T08:17:45.000Z</time>
      </trkpt>
      <trkpt lat="44.95712" lon="5.74546">
        <ele>894</ele>
        <time>2026-07-05T08:17:46.000Z</time>
      </trkpt>
      <trkpt lat="44.9571" lon="5.74548">
        <ele>894</ele>
        <time>2026-07-05T08:17:47.000Z</time>
      </trkpt>
      <trkpt lat="44.95708" lon="5.7455">
        <ele>894</ele>
        <time>2026-07-05T08:17:48.000Z</time>
      </trkpt>
      <trkpt lat="44.95707" lon="5.74552">
        <ele>894</ele>
        <time>2026-07-05T08:17:49.000Z</time>
      </trkpt>
      <trkpt lat="44.95706" lon="5.74553">
        <ele>894</ele>
        <time>2026-07-05T08:17:50.000Z</time>
      </trkpt>
      <trkpt lat="44.95704" lon="5.74555">
        <ele>894.20001220703</ele>
        <time>2026-07-05T08:17:51.000Z</time>
      </trkpt>
      <trkpt lat="44.95703" lon="5.74557">
        <ele>894.20001220703</ele>
        <time>2026-07-05T08:17:52.000Z</time>
      </trkpt>
      <trkpt lat="44.95701" lon="5.74558">
        <ele>894.40002441406</ele>
        <time>2026-07-05T08:17:53.000Z</time>
      </trkpt>
      <trkpt lat="44.95699" lon="5.7456">
        <ele>894.59997558594</ele>
        <time>2026-07-05T08:17:54.000Z</time>
      </trkpt>
      <trkpt lat="44.95698" lon="5.74562">
        <ele>895.20001220703</ele>
        <time>2026-07-05T08:17:55.000Z</time>
      </trkpt>
      <trkpt lat="44.95697" lon="5.74563">
        <ele>895.59997558594</ele>
        <time>2026-07-05T08:17:56.000Z</time>
      </trkpt>
      <trkpt lat="44.95695" lon="5.74564">
        <ele>896</ele>
        <time>2026-07-05T08:17:57.000Z</time>
      </trkpt>
      <trkpt lat="44.95694" lon="5.74566">
        <ele>896.40002441406</ele>
        <time>2026-07-05T08:17:58.000Z</time>
      </trkpt>
      <trkpt lat="44.95693" lon="5.74568">
        <ele>896.79998779297</ele>
        <time>2026-07-05T08:17:59.000Z</time>
      </trkpt>
      <trkpt lat="44.95691" lon="5.7457">
        <ele>897.79998779297</ele>
        <time>2026-07-05T08:18:00.000Z</time>
      </trkpt>
      <trkpt lat="44.9569" lon="5.74571">
        <ele>898.79998779297</ele>
        <time>2026-07-05T08:18:01.000Z</time>
      </trkpt>
      <trkpt lat="44.95689" lon="5.74573">
        <ele>898.79998779297</ele>
        <time>2026-07-05T08:18:02.000Z</time>
      </trkpt>
      <trkpt lat="44.95688" lon="5.74575">
        <ele>898.79998779297</ele>
        <time>2026-07-05T08:18:03.000Z</time>
      </trkpt>
      <trkpt lat="44.95687" lon="5.74576">
        <ele>899.40002441406</ele>
        <time>2026-07-05T08:18:04.000Z</time>
      </trkpt>
      <trkpt lat="44.95686" lon="5.74578">
        <ele>899.59997558594</ele>
        <time>2026-07-05T08:18:05.000Z</time>
      </trkpt>
      <trkpt lat="44.95685" lon="5.7458">
        <ele>899.79998779297</ele>
        <time>2026-07-05T08:18:06.000Z</time>
      </trkpt>
      <trkpt lat="44.95684" lon="5.74581">
        <ele>900.20001220703</ele>
        <time>2026-07-05T08:18:07.000Z</time>
      </trkpt>
      <trkpt lat="44.95683" lon="5.74584">
        <ele>900.59997558594</ele>
        <time>2026-07-05T08:18:08.000Z</time>
      </trkpt>
      <trkpt lat="44.95682" lon="5.74586">
        <ele>901</ele>
        <time>2026-07-05T08:18:09.000Z</time>
      </trkpt>
      <trkpt lat="44.95681" lon="5.74587">
        <ele>901.59997558594</ele>
        <time>2026-07-05T08:18:10.000Z</time>
      </trkpt>
      <trkpt lat="44.95681" lon="5.74589">
        <ele>902</ele>
        <time>2026-07-05T08:18:11.000Z</time>
      </trkpt>
      <trkpt lat="44.95679" lon="5.74591">
        <ele>902.20001220703</ele>
        <time>2026-07-05T08:18:12.000Z</time>
      </trkpt>
      <trkpt lat="44.95679" lon="5.74593">
        <ele>903</ele>
        <time>2026-07-05T08:18:13.000Z</time>
      </trkpt>
      <trkpt lat="44.95678" lon="5.74595">
        <ele>903.20001220703</ele>
        <time>2026-07-05T08:18:14.000Z</time>
      </trkpt>
      <trkpt lat="44.95677" lon="5.74597">
        <ele>903.40002441406</ele>
        <time>2026-07-05T08:18:15.000Z</time>
      </trkpt>
      <trkpt lat="44.95676" lon="5.74599">
        <ele>903.40002441406</ele>
        <time>2026-07-05T08:18:16.000Z</time>
      </trkpt>
      <trkpt lat="44.95675" lon="5.74601">
        <ele>903.40002441406</ele>
        <time>2026-07-05T08:18:17.000Z</time>
      </trkpt>
      <trkpt lat="44.95674" lon="5.74602">
        <ele>903.59997558594</ele>
        <time>2026-07-05T08:18:18.000Z</time>
      </trkpt>
      <trkpt lat="44.95674" lon="5.74604">
        <ele>903.79998779297</ele>
        <time>2026-07-05T08:18:19.000Z</time>
      </trkpt>
      <trkpt lat="44.95673" lon="5.74606">
        <ele>904</ele>
        <time>2026-07-05T08:18:20.000Z</time>
      </trkpt>
      <trkpt lat="44.95673" lon="5.74607">
        <ele>904.20001220703</ele>
        <time>2026-07-05T08:18:21.000Z</time>
      </trkpt>
      <trkpt lat="44.95672" lon="5.74609">
        <ele>904.20001220703</ele>
        <time>2026-07-05T08:18:22.000Z</time>
      </trkpt>
      <trkpt lat="44.95672" lon="5.7461">
        <ele>904.20001220703</ele>
        <time>2026-07-05T08:18:23.000Z</time>
      </trkpt>
      <trkpt lat="44.95671" lon="5.74612">
        <ele>904</ele>
        <time>2026-07-05T08:18:24.000Z</time>
      </trkpt>
      <trkpt lat="44.9567" lon="5.74614">
        <ele>904.20001220703</ele>
        <time>2026-07-05T08:18:25.000Z</time>
      </trkpt>
      <trkpt lat="44.95669" lon="5.74615">
        <ele>904.20001220703</ele>
        <time>2026-07-05T08:18:26.000Z</time>
      </trkpt>
      <trkpt lat="44.95668" lon="5.74617">
        <ele>904.20001220703</ele>
        <time>2026-07-05T08:18:27.000Z</time>
      </trkpt>
      <trkpt lat="44.95668" lon="5.74619">
        <ele>904.79998779297</ele>
        <time>2026-07-05T08:18:28.000Z</time>
      </trkpt>
      <trkpt lat="44.95667" lon="5.74621">
        <ele>905</ele>
        <time>2026-07-05T08:18:29.000Z</time>
      </trkpt>
      <trkpt lat="44.95666" lon="5.74622">
        <ele>904.79998779297</ele>
        <time>2026-07-05T08:18:30.000Z</time>
      </trkpt>
      <trkpt lat="44.95665" lon="5.74624">
        <ele>905</ele>
        <time>2026-07-05T08:18:31.000Z</time>
      </trkpt>
      <trkpt lat="44.95664" lon="5.74626">
        <ele>905</ele>
        <time>2026-07-05T08:18:32.000Z</time>
      </trkpt>
      <trkpt lat="44.95664" lon="5.74628">
        <ele>905</ele>
        <time>2026-07-05T08:18:33.000Z</time>
      </trkpt>
      <trkpt lat="44.95663" lon="5.7463">
        <ele>905</ele>
        <time>2026-07-05T08:18:34.000Z</time>
      </trkpt>
      <trkpt lat="44.95662" lon="5.74631">
        <ele>905.20001220703</ele>
        <time>2026-07-05T08:18:35.000Z</time>
      </trkpt>
      <trkpt lat="44.95661" lon="5.74633">
        <ele>905.59997558594</ele>
        <time>2026-07-05T08:18:36.000Z</time>
      </trkpt>
      <trkpt lat="44.9566" lon="5.74635">
        <ele>905.79998779297</ele>
        <time>2026-07-05T08:18:37.000Z</time>
      </trkpt>
      <trkpt lat="44.9566" lon="5.74636">
        <ele>905.79998779297</ele>
        <time>2026-07-05T08:18:38.000Z</time>
      </trkpt>
      <trkpt lat="44.95659" lon="5.74638">
        <ele>906</ele>
        <time>2026-07-05T08:18:39.000Z</time>
      </trkpt>
      <trkpt lat="44.95658" lon="5.74639">
        <ele>906.20001220703</ele>
        <time>2026-07-05T08:18:40.000Z</time>
      </trkpt>
      <trkpt lat="44.95657" lon="5.74641">
        <ele>906.20001220703</ele>
        <time>2026-07-05T08:18:41.000Z</time>
      </trkpt>
      <trkpt lat="44.95656" lon="5.74643">
        <ele>906.59997558594</ele>
        <time>2026-07-05T08:18:42.000Z</time>
      </trkpt>
      <trkpt lat="44.95656" lon="5.74644">
        <ele>906.59997558594</ele>
        <time>2026-07-05T08:18:43.000Z</time>
      </trkpt>
      <trkpt lat="44.95655" lon="5.74646">
        <ele>906.79998779297</ele>
        <time>2026-07-05T08:18:44.000Z</time>
      </trkpt>
      <trkpt lat="44.95655" lon="5.74648">
        <ele>907</ele>
        <time>2026-07-05T08:18:45.000Z</time>
      </trkpt>
      <trkpt lat="44.95654" lon="5.7465">
        <ele>907.20001220703</ele>
        <time>2026-07-05T08:18:46.000Z</time>
      </trkpt>
      <trkpt lat="44.95653" lon="5.74652">
        <ele>907.40002441406</ele>
        <time>2026-07-05T08:18:47.000Z</time>
      </trkpt>
      <trkpt lat="44.95653" lon="5.74653">
        <ele>908</ele>
        <time>2026-07-05T08:18:48.000Z</time>
      </trkpt>
      <trkpt lat="44.95651" lon="5.74655">
        <ele>908</ele>
        <time>2026-07-05T08:18:49.000Z</time>
      </trkpt>
      <trkpt lat="44.95651" lon="5.74657">
        <ele>908.20001220703</ele>
        <time>2026-07-05T08:18:50.000Z</time>
      </trkpt>
      <trkpt lat="44.9565" lon="5.74658">
        <ele>908.79998779297</ele>
        <time>2026-07-05T08:18:51.000Z</time>
      </trkpt>
      <trkpt lat="44.95649" lon="5.7466">
        <ele>908.79998779297</ele>
        <time>2026-07-05T08:18:52.000Z</time>
      </trkpt>
      <trkpt lat="44.95648" lon="5.74661">
        <ele>908.79998779297</ele>
        <time>2026-07-05T08:18:53.000Z</time>
      </trkpt>
      <trkpt lat="44.95648" lon="5.74663">
        <ele>908.79998779297</ele>
        <time>2026-07-05T08:18:54.000Z</time>
      </trkpt>
      <trkpt lat="44.95647" lon="5.74665">
        <ele>908.79998779297</ele>
        <time>2026-07-05T08:18:55.000Z</time>
      </trkpt>
      <trkpt lat="44.95646" lon="5.74666">
        <ele>909.20001220703</ele>
        <time>2026-07-05T08:18:56.000Z</time>
      </trkpt>
      <trkpt lat="44.95646" lon="5.74668">
        <ele>909.40002441406</ele>
        <time>2026-07-05T08:18:57.000Z</time>
      </trkpt>
      <trkpt lat="44.95645" lon="5.7467">
        <ele>909.40002441406</ele>
        <time>2026-07-05T08:18:58.000Z</time>
      </trkpt>
      <trkpt lat="44.95644" lon="5.74671">
        <ele>909.59997558594</ele>
        <time>2026-07-05T08:18:59.000Z</time>
      </trkpt>
      <trkpt lat="44.95643" lon="5.74673">
        <ele>909.79998779297</ele>
        <time>2026-07-05T08:19:00.000Z</time>
      </trkpt>
      <trkpt lat="44.95642" lon="5.74675">
        <ele>909.79998779297</ele>
        <time>2026-07-05T08:19:01.000Z</time>
      </trkpt>
      <trkpt lat="44.95641" lon="5.74677">
        <ele>909.79998779297</ele>
        <time>2026-07-05T08:19:02.000Z</time>
      </trkpt>
      <trkpt lat="44.9564" lon="5.74679">
        <ele>910</ele>
        <time>2026-07-05T08:19:03.000Z</time>
      </trkpt>
      <trkpt lat="44.95639" lon="5.74681">
        <ele>910.20001220703</ele>
        <time>2026-07-05T08:19:04.000Z</time>
      </trkpt>
      <trkpt lat="44.95638" lon="5.74683">
        <ele>910.40002441406</ele>
        <time>2026-07-05T08:19:05.000Z</time>
      </trkpt>
      <trkpt lat="44.95637" lon="5.74684">
        <ele>911</ele>
        <time>2026-07-05T08:19:06.000Z</time>
      </trkpt>
      <trkpt lat="44.95637" lon="5.74687">
        <ele>911.79998779297</ele>
        <time>2026-07-05T08:19:07.000Z</time>
      </trkpt>
      <trkpt lat="44.95636" lon="5.74689">
        <ele>912.59997558594</ele>
        <time>2026-07-05T08:19:08.000Z</time>
      </trkpt>
      <trkpt lat="44.95635" lon="5.7469">
        <ele>913</ele>
        <time>2026-07-05T08:19:09.000Z</time>
      </trkpt>
      <trkpt lat="44.95634" lon="5.74692">
        <ele>913.40002441406</ele>
        <time>2026-07-05T08:19:10.000Z</time>
      </trkpt>
      <trkpt lat="44.95633" lon="5.74695">
        <ele>913.59997558594</ele>
        <time>2026-07-05T08:19:11.000Z</time>
      </trkpt>
      <trkpt lat="44.95633" lon="5.74697">
        <ele>913.79998779297</ele>
        <time>2026-07-05T08:19:12.000Z</time>
      </trkpt>
      <trkpt lat="44.95632" lon="5.74698">
        <ele>913.79998779297</ele>
        <time>2026-07-05T08:19:13.000Z</time>
      </trkpt>
      <trkpt lat="44.95631" lon="5.74701">
        <ele>913.79998779297</ele>
        <time>2026-07-05T08:19:14.000Z</time>
      </trkpt>
      <trkpt lat="44.95631" lon="5.74703">
        <ele>913.79998779297</ele>
        <time>2026-07-05T08:19:15.000Z</time>
      </trkpt>
      <trkpt lat="44.9563" lon="5.74705">
        <ele>913.79998779297</ele>
        <time>2026-07-05T08:19:16.000Z</time>
      </trkpt>
      <trkpt lat="44.9563" lon="5.74707">
        <ele>914</ele>
        <time>2026-07-05T08:19:17.000Z</time>
      </trkpt>
      <trkpt lat="44.95629" lon="5.74709">
        <ele>914</ele>
        <time>2026-07-05T08:19:18.000Z</time>
      </trkpt>
      <trkpt lat="44.95628" lon="5.74711">
        <ele>914.20001220703</ele>
        <time>2026-07-05T08:19:19.000Z</time>
      </trkpt>
      <trkpt lat="44.95627" lon="5.74713">
        <ele>914.40002441406</ele>
        <time>2026-07-05T08:19:20.000Z</time>
      </trkpt>
      <trkpt lat="44.95625" lon="5.74714">
        <ele>914.40002441406</ele>
        <time>2026-07-05T08:19:21.000Z</time>
      </trkpt>
      <trkpt lat="44.95624" lon="5.74715">
        <ele>914.40002441406</ele>
        <time>2026-07-05T08:19:22.000Z</time>
      </trkpt>
      <trkpt lat="44.95622" lon="5.74714">
        <ele>914.40002441406</ele>
        <time>2026-07-05T08:19:23.000Z</time>
      </trkpt>
      <trkpt lat="44.95621" lon="5.74714">
        <ele>914.40002441406</ele>
        <time>2026-07-05T08:19:24.000Z</time>
      </trkpt>
      <trkpt lat="44.9562" lon="5.74714">
        <ele>914.40002441406</ele>
        <time>2026-07-05T08:19:25.000Z</time>
      </trkpt>
      <trkpt lat="44.95618" lon="5.74713">
        <ele>914.40002441406</ele>
        <time>2026-07-05T08:19:26.000Z</time>
      </trkpt>
      <trkpt lat="44.95617" lon="5.74713">
        <ele>914.79998779297</ele>
        <time>2026-07-05T08:19:27.000Z</time>
      </trkpt>
      <trkpt lat="44.95615" lon="5.74712">
        <ele>915</ele>
        <time>2026-07-05T08:19:28.000Z</time>
      </trkpt>
      <trkpt lat="44.95614" lon="5.74712">
        <ele>915.59997558594</ele>
        <time>2026-07-05T08:19:29.000Z</time>
      </trkpt>
      <trkpt lat="44.95613" lon="5.74711">
        <ele>916</ele>
        <time>2026-07-05T08:19:30.000Z</time>
      </trkpt>
      <trkpt lat="44.95611" lon="5.74709">
        <ele>916.40002441406</ele>
        <time>2026-07-05T08:19:31.000Z</time>
      </trkpt>
      <trkpt lat="44.9561" lon="5.74708">
        <ele>916.79998779297</ele>
        <time>2026-07-05T08:19:32.000Z</time>
      </trkpt>
      <trkpt lat="44.95609" lon="5.74707">
        <ele>917.20001220703</ele>
        <time>2026-07-05T08:19:33.000Z</time>
      </trkpt>
      <trkpt lat="44.95608" lon="5.74706">
        <ele>917.40002441406</ele>
        <time>2026-07-05T08:19:34.000Z</time>
      </trkpt>
      <trkpt lat="44.95607" lon="5.74705">
        <ele>917.59997558594</ele>
        <time>2026-07-05T08:19:35.000Z</time>
      </trkpt>
      <trkpt lat="44.95605" lon="5.74705">
        <ele>917.79998779297</ele>
        <time>2026-07-05T08:19:36.000Z</time>
      </trkpt>
      <trkpt lat="44.95604" lon="5.74704">
        <ele>918</ele>
        <time>2026-07-05T08:19:37.000Z</time>
      </trkpt>
      <trkpt lat="44.95603" lon="5.74704">
        <ele>918.20001220703</ele>
        <time>2026-07-05T08:19:38.000Z</time>
      </trkpt>
      <trkpt lat="44.95602" lon="5.74704">
        <ele>918.59997558594</ele>
        <time>2026-07-05T08:19:39.000Z</time>
      </trkpt>
      <trkpt lat="44.95601" lon="5.74703">
        <ele>919.20001220703</ele>
        <time>2026-07-05T08:19:40.000Z</time>
      </trkpt>
      <trkpt lat="44.956" lon="5.74703">
        <ele>919.40002441406</ele>
        <time>2026-07-05T08:19:41.000Z</time>
      </trkpt>
      <trkpt lat="44.95599" lon="5.74702">
        <ele>919.59997558594</ele>
        <time>2026-07-05T08:19:42.000Z</time>
      </trkpt>
      <trkpt lat="44.95598" lon="5.74702">
        <ele>919.79998779297</ele>
        <time>2026-07-05T08:19:43.000Z</time>
      </trkpt>
      <trkpt lat="44.95597" lon="5.74701">
        <ele>919.79998779297</ele>
        <time>2026-07-05T08:19:44.000Z</time>
      </trkpt>
      <trkpt lat="44.95595" lon="5.74701">
        <ele>919.79998779297</ele>
        <time>2026-07-05T08:19:45.000Z</time>
      </trkpt>
      <trkpt lat="44.95594" lon="5.74701">
        <ele>919.79998779297</ele>
        <time>2026-07-05T08:19:46.000Z</time>
      </trkpt>
      <trkpt lat="44.95592" lon="5.747">
        <ele>919.79998779297</ele>
        <time>2026-07-05T08:19:47.000Z</time>
      </trkpt>
      <trkpt lat="44.95591" lon="5.74699">
        <ele>920</ele>
        <time>2026-07-05T08:19:48.000Z</time>
      </trkpt>
      <trkpt lat="44.95589" lon="5.74699">
        <ele>920</ele>
        <time>2026-07-05T08:19:49.000Z</time>
      </trkpt>
      <trkpt lat="44.95588" lon="5.74698">
        <ele>920.20001220703</ele>
        <time>2026-07-05T08:19:50.000Z</time>
      </trkpt>
      <trkpt lat="44.95587" lon="5.74698">
        <ele>920.20001220703</ele>
        <time>2026-07-05T08:19:51.000Z</time>
      </trkpt>
      <trkpt lat="44.95586" lon="5.74697">
        <ele>920.40002441406</ele>
        <time>2026-07-05T08:19:52.000Z</time>
      </trkpt>
      <trkpt lat="44.95584" lon="5.74697">
        <ele>920.59997558594</ele>
        <time>2026-07-05T08:19:53.000Z</time>
      </trkpt>
      <trkpt lat="44.95583" lon="5.74696">
        <ele>921.20001220703</ele>
        <time>2026-07-05T08:19:54.000Z</time>
      </trkpt>
      <trkpt lat="44.95582" lon="5.74696">
        <ele>921.40002441406</ele>
        <time>2026-07-05T08:19:55.000Z</time>
      </trkpt>
      <trkpt lat="44.95581" lon="5.74696">
        <ele>921.79998779297</ele>
        <time>2026-07-05T08:19:56.000Z</time>
      </trkpt>
      <trkpt lat="44.9558" lon="5.74695">
        <ele>922.20001220703</ele>
        <time>2026-07-05T08:19:57.000Z</time>
      </trkpt>
      <trkpt lat="44.95579" lon="5.74695">
        <ele>922.59997558594</ele>
        <time>2026-07-05T08:19:58.000Z</time>
      </trkpt>
      <trkpt lat="44.95577" lon="5.74695">
        <ele>923</ele>
        <time>2026-07-05T08:19:59.000Z</time>
      </trkpt>
      <trkpt lat="44.95576" lon="5.74694">
        <ele>923.20001220703</ele>
        <time>2026-07-05T08:20:00.000Z</time>
      </trkpt>
      <trkpt lat="44.95574" lon="5.74694">
        <ele>923.20001220703</ele>
        <time>2026-07-05T08:20:01.000Z</time>
      </trkpt>
      <trkpt lat="44.95573" lon="5.74694">
        <ele>923.40002441406</ele>
        <time>2026-07-05T08:20:02.000Z</time>
      </trkpt>
      <trkpt lat="44.95571" lon="5.74694">
        <ele>923.59997558594</ele>
        <time>2026-07-05T08:20:03.000Z</time>
      </trkpt>
      <trkpt lat="44.9557" lon="5.74693">
        <ele>923.79998779297</ele>
        <time>2026-07-05T08:20:04.000Z</time>
      </trkpt>
      <trkpt lat="44.95568" lon="5.74693">
        <ele>924</ele>
        <time>2026-07-05T08:20:05.000Z</time>
      </trkpt>
      <trkpt lat="44.95567" lon="5.74693">
        <ele>924.40002441406</ele>
        <time>2026-07-05T08:20:06.000Z</time>
      </trkpt>
      <trkpt lat="44.95565" lon="5.74693">
        <ele>924.79998779297</ele>
        <time>2026-07-05T08:20:07.000Z</time>
      </trkpt>
      <trkpt lat="44.95564" lon="5.74692">
        <ele>925</ele>
        <time>2026-07-05T08:20:08.000Z</time>
      </trkpt>
      <trkpt lat="44.95562" lon="5.74691">
        <ele>925.20001220703</ele>
        <time>2026-07-05T08:20:09.000Z</time>
      </trkpt>
      <trkpt lat="44.9556" lon="5.7469">
        <ele>925.40002441406</ele>
        <time>2026-07-05T08:20:10.000Z</time>
      </trkpt>
      <trkpt lat="44.95559" lon="5.7469">
        <ele>925.40002441406</ele>
        <time>2026-07-05T08:20:11.000Z</time>
      </trkpt>
      <trkpt lat="44.95557" lon="5.74689">
        <ele>925.79998779297</ele>
        <time>2026-07-05T08:20:12.000Z</time>
      </trkpt>
      <trkpt lat="44.95555" lon="5.74689">
        <ele>926</ele>
        <time>2026-07-05T08:20:13.000Z</time>
      </trkpt>
      <trkpt lat="44.95554" lon="5.74688">
        <ele>926.40002441406</ele>
        <time>2026-07-05T08:20:14.000Z</time>
      </trkpt>
      <trkpt lat="44.95552" lon="5.74688">
        <ele>926.79998779297</ele>
        <time>2026-07-05T08:20:15.000Z</time>
      </trkpt>
      <trkpt lat="44.95551" lon="5.74688">
        <ele>927</ele>
        <time>2026-07-05T08:20:16.000Z</time>
      </trkpt>
      <trkpt lat="44.95549" lon="5.74687">
        <ele>927.20001220703</ele>
        <time>2026-07-05T08:20:17.000Z</time>
      </trkpt>
      <trkpt lat="44.95547" lon="5.74687">
        <ele>927.40002441406</ele>
        <time>2026-07-05T08:20:18.000Z</time>
      </trkpt>
      <trkpt lat="44.95546" lon="5.74686">
        <ele>927.59997558594</ele>
        <time>2026-07-05T08:20:19.000Z</time>
      </trkpt>
      <trkpt lat="44.95544" lon="5.74685">
        <ele>927.59997558594</ele>
        <time>2026-07-05T08:20:20.000Z</time>
      </trkpt>
      <trkpt lat="44.95542" lon="5.74685">
        <ele>927.79998779297</ele>
        <time>2026-07-05T08:20:21.000Z</time>
      </trkpt>
      <trkpt lat="44.95541" lon="5.74685">
        <ele>927.79998779297</ele>
        <time>2026-07-05T08:20:22.000Z</time>
      </trkpt>
      <trkpt lat="44.95539" lon="5.74685">
        <ele>927.79998779297</ele>
        <time>2026-07-05T08:20:23.000Z</time>
      </trkpt>
      <trkpt lat="44.95538" lon="5.74685">
        <ele>927.79998779297</ele>
        <time>2026-07-05T08:20:24.000Z</time>
      </trkpt>
      <trkpt lat="44.95537" lon="5.74685">
        <ele>927.79998779297</ele>
        <time>2026-07-05T08:20:25.000Z</time>
      </trkpt>
      <trkpt lat="44.95535" lon="5.74684">
        <ele>927.79998779297</ele>
        <time>2026-07-05T08:20:26.000Z</time>
      </trkpt>
      <trkpt lat="44.95533" lon="5.74684">
        <ele>927.79998779297</ele>
        <time>2026-07-05T08:20:27.000Z</time>
      </trkpt>
      <trkpt lat="44.95532" lon="5.74684">
        <ele>928.20001220703</ele>
        <time>2026-07-05T08:20:28.000Z</time>
      </trkpt>
      <trkpt lat="44.95531" lon="5.74684">
        <ele>928.20001220703</ele>
        <time>2026-07-05T08:20:29.000Z</time>
      </trkpt>
      <trkpt lat="44.95529" lon="5.74685">
        <ele>928.40002441406</ele>
        <time>2026-07-05T08:20:30.000Z</time>
      </trkpt>
      <trkpt lat="44.95528" lon="5.74684">
        <ele>928.59997558594</ele>
        <time>2026-07-05T08:20:31.000Z</time>
      </trkpt>
      <trkpt lat="44.95527" lon="5.74684">
        <ele>928.79998779297</ele>
        <time>2026-07-05T08:20:32.000Z</time>
      </trkpt>
      <trkpt lat="44.95526" lon="5.74684">
        <ele>928.79998779297</ele>
        <time>2026-07-05T08:20:33.000Z</time>
      </trkpt>
      <trkpt lat="44.95524" lon="5.74685">
        <ele>929.20001220703</ele>
        <time>2026-07-05T08:20:34.000Z</time>
      </trkpt>
      <trkpt lat="44.95523" lon="5.74684">
        <ele>929.40002441406</ele>
        <time>2026-07-05T08:20:35.000Z</time>
      </trkpt>
      <trkpt lat="44.95521" lon="5.74685">
        <ele>929.59997558594</ele>
        <time>2026-07-05T08:20:36.000Z</time>
      </trkpt>
      <trkpt lat="44.9552" lon="5.74686">
        <ele>929.79998779297</ele>
        <time>2026-07-05T08:20:37.000Z</time>
      </trkpt>
      <trkpt lat="44.95518" lon="5.74686">
        <ele>929.79998779297</ele>
        <time>2026-07-05T08:20:38.000Z</time>
      </trkpt>
      <trkpt lat="44.95517" lon="5.74686">
        <ele>930</ele>
        <time>2026-07-05T08:20:39.000Z</time>
      </trkpt>
      <trkpt lat="44.95516" lon="5.74686">
        <ele>930</ele>
        <time>2026-07-05T08:20:40.000Z</time>
      </trkpt>
      <trkpt lat="44.95515" lon="5.74687">
        <ele>930</ele>
        <time>2026-07-05T08:20:41.000Z</time>
      </trkpt>
      <trkpt lat="44.95513" lon="5.74687">
        <ele>930.40002441406</ele>
        <time>2026-07-05T08:20:42.000Z</time>
      </trkpt>
      <trkpt lat="44.95512" lon="5.74687">
        <ele>930.40002441406</ele>
        <time>2026-07-05T08:20:43.000Z</time>
      </trkpt>
      <trkpt lat="44.9551" lon="5.74688">
        <ele>930.59997558594</ele>
        <time>2026-07-05T08:20:44.000Z</time>
      </trkpt>
      <trkpt lat="44.95509" lon="5.74688">
        <ele>931</ele>
        <time>2026-07-05T08:20:45.000Z</time>
      </trkpt>
      <trkpt lat="44.95507" lon="5.74688">
        <ele>931.40002441406</ele>
        <time>2026-07-05T08:20:46.000Z</time>
      </trkpt>
      <trkpt lat="44.95506" lon="5.74688">
        <ele>931.79998779297</ele>
        <time>2026-07-05T08:20:47.000Z</time>
      </trkpt>
      <trkpt lat="44.95504" lon="5.74689">
        <ele>932</ele>
        <time>2026-07-05T08:20:48.000Z</time>
      </trkpt>
      <trkpt lat="44.95503" lon="5.74689">
        <ele>932.40002441406</ele>
        <time>2026-07-05T08:20:49.000Z</time>
      </trkpt>
      <trkpt lat="44.95501" lon="5.74689">
        <ele>932.59997558594</ele>
        <time>2026-07-05T08:20:50.000Z</time>
      </trkpt>
      <trkpt lat="44.955" lon="5.74688">
        <ele>932.79998779297</ele>
        <time>2026-07-05T08:20:51.000Z</time>
      </trkpt>
      <trkpt lat="44.95498" lon="5.74688">
        <ele>933</ele>
        <time>2026-07-05T08:20:52.000Z</time>
      </trkpt>
      <trkpt lat="44.95497" lon="5.74688">
        <ele>933</ele>
        <time>2026-07-05T08:20:53.000Z</time>
      </trkpt>
      <trkpt lat="44.95495" lon="5.74688">
        <ele>933.40002441406</ele>
        <time>2026-07-05T08:20:54.000Z</time>
      </trkpt>
      <trkpt lat="44.95494" lon="5.74687">
        <ele>934.20001220703</ele>
        <time>2026-07-05T08:20:55.000Z</time>
      </trkpt>
      <trkpt lat="44.95493" lon="5.74687">
        <ele>934.40002441406</ele>
        <time>2026-07-05T08:20:56.000Z</time>
      </trkpt>
      <trkpt lat="44.95491" lon="5.74687">
        <ele>934.59997558594</ele>
        <time>2026-07-05T08:20:57.000Z</time>
      </trkpt>
      <trkpt lat="44.9549" lon="5.74686">
        <ele>934.79998779297</ele>
        <time>2026-07-05T08:20:58.000Z</time>
      </trkpt>
      <trkpt lat="44.95489" lon="5.74686">
        <ele>935</ele>
        <time>2026-07-05T08:20:59.000Z</time>
      </trkpt>
      <trkpt lat="44.95487" lon="5.74685">
        <ele>935</ele>
        <time>2026-07-05T08:21:00.000Z</time>
      </trkpt>
      <trkpt lat="44.95486" lon="5.74685">
        <ele>935</ele>
        <time>2026-07-05T08:21:01.000Z</time>
      </trkpt>
      <trkpt lat="44.95485" lon="5.74684">
        <ele>935.40002441406</ele>
        <time>2026-07-05T08:21:02.000Z</time>
      </trkpt>
      <trkpt lat="44.95484" lon="5.74683">
        <ele>935.40002441406</ele>
        <time>2026-07-05T08:21:03.000Z</time>
      </trkpt>
      <trkpt lat="44.95482" lon="5.74682">
        <ele>935.79998779297</ele>
        <time>2026-07-05T08:21:04.000Z</time>
      </trkpt>
      <trkpt lat="44.95481" lon="5.74682">
        <ele>936</ele>
        <time>2026-07-05T08:21:05.000Z</time>
      </trkpt>
      <trkpt lat="44.9548" lon="5.74681">
        <ele>936.20001220703</ele>
        <time>2026-07-05T08:21:06.000Z</time>
      </trkpt>
      <trkpt lat="44.95478" lon="5.74681">
        <ele>936.20001220703</ele>
        <time>2026-07-05T08:21:07.000Z</time>
      </trkpt>
      <trkpt lat="44.95477" lon="5.7468">
        <ele>936.79998779297</ele>
        <time>2026-07-05T08:21:08.000Z</time>
      </trkpt>
      <trkpt lat="44.95475" lon="5.7468">
        <ele>937.20001220703</ele>
        <time>2026-07-05T08:21:09.000Z</time>
      </trkpt>
      <trkpt lat="44.95473" lon="5.7468">
        <ele>937.59997558594</ele>
        <time>2026-07-05T08:21:10.000Z</time>
      </trkpt>
      <trkpt lat="44.95472" lon="5.74679">
        <ele>937.59997558594</ele>
        <time>2026-07-05T08:21:11.000Z</time>
      </trkpt>
      <trkpt lat="44.95471" lon="5.74679">
        <ele>937.79998779297</ele>
        <time>2026-07-05T08:21:12.000Z</time>
      </trkpt>
      <trkpt lat="44.95469" lon="5.74679">
        <ele>938</ele>
        <time>2026-07-05T08:21:13.000Z</time>
      </trkpt>
      <trkpt lat="44.95468" lon="5.74678">
        <ele>938</ele>
        <time>2026-07-05T08:21:14.000Z</time>
      </trkpt>
      <trkpt lat="44.95467" lon="5.74678">
        <ele>938.20001220703</ele>
        <time>2026-07-05T08:21:15.000Z</time>
      </trkpt>
      <trkpt lat="44.95465" lon="5.74678">
        <ele>938.40002441406</ele>
        <time>2026-07-05T08:21:16.000Z</time>
      </trkpt>
      <trkpt lat="44.95464" lon="5.74677">
        <ele>938.40002441406</ele>
        <time>2026-07-05T08:21:17.000Z</time>
      </trkpt>
      <trkpt lat="44.95462" lon="5.74676">
        <ele>939</ele>
        <time>2026-07-05T08:21:18.000Z</time>
      </trkpt>
      <trkpt lat="44.95461" lon="5.74676">
        <ele>939.20001220703</ele>
        <time>2026-07-05T08:21:19.000Z</time>
      </trkpt>
      <trkpt lat="44.95459" lon="5.74675">
        <ele>939.59997558594</ele>
        <time>2026-07-05T08:21:20.000Z</time>
      </trkpt>
      <trkpt lat="44.95458" lon="5.74674">
        <ele>939.79998779297</ele>
        <time>2026-07-05T08:21:21.000Z</time>
      </trkpt>
      <trkpt lat="44.95457" lon="5.74673">
        <ele>940.20001220703</ele>
        <time>2026-07-05T08:21:22.000Z</time>
      </trkpt>
      <trkpt lat="44.95455" lon="5.74673">
        <ele>940.20001220703</ele>
        <time>2026-07-05T08:21:23.000Z</time>
      </trkpt>
      <trkpt lat="44.95454" lon="5.74671">
        <ele>940.20001220703</ele>
        <time>2026-07-05T08:21:24.000Z</time>
      </trkpt>
      <trkpt lat="44.95452" lon="5.7467">
        <ele>940.40002441406</ele>
        <time>2026-07-05T08:21:25.000Z</time>
      </trkpt>
      <trkpt lat="44.95451" lon="5.74669">
        <ele>940.40002441406</ele>
        <time>2026-07-05T08:21:26.000Z</time>
      </trkpt>
      <trkpt lat="44.95449" lon="5.74668">
        <ele>940.20001220703</ele>
        <time>2026-07-05T08:21:27.000Z</time>
      </trkpt>
      <trkpt lat="44.95448" lon="5.74667">
        <ele>940</ele>
        <time>2026-07-05T08:21:28.000Z</time>
      </trkpt>
      <trkpt lat="44.95447" lon="5.74666">
        <ele>939.59997558594</ele>
        <time>2026-07-05T08:21:29.000Z</time>
      </trkpt>
      <trkpt lat="44.95446" lon="5.74665">
        <ele>939.40002441406</ele>
        <time>2026-07-05T08:21:30.000Z</time>
      </trkpt>
      <trkpt lat="44.95444" lon="5.74664">
        <ele>939.20001220703</ele>
        <time>2026-07-05T08:21:31.000Z</time>
      </trkpt>
      <trkpt lat="44.95443" lon="5.74663">
        <ele>939.20001220703</ele>
        <time>2026-07-05T08:21:32.000Z</time>
      </trkpt>
      <trkpt lat="44.95441" lon="5.74662">
        <ele>939</ele>
        <time>2026-07-05T08:21:33.000Z</time>
      </trkpt>
      <trkpt lat="44.95439" lon="5.74661">
        <ele>938.79998779297</ele>
        <time>2026-07-05T08:21:34.000Z</time>
      </trkpt>
      <trkpt lat="44.95438" lon="5.7466">
        <ele>939.20001220703</ele>
        <time>2026-07-05T08:21:35.000Z</time>
      </trkpt>
      <trkpt lat="44.95436" lon="5.74659">
        <ele>939.59997558594</ele>
        <time>2026-07-05T08:21:36.000Z</time>
      </trkpt>
      <trkpt lat="44.95434" lon="5.74659">
        <ele>940.20001220703</ele>
        <time>2026-07-05T08:21:37.000Z</time>
      </trkpt>
      <trkpt lat="44.95433" lon="5.74657">
        <ele>940.59997558594</ele>
        <time>2026-07-05T08:21:38.000Z</time>
      </trkpt>
      <trkpt lat="44.95431" lon="5.74656">
        <ele>941.20001220703</ele>
        <time>2026-07-05T08:21:39.000Z</time>
      </trkpt>
      <trkpt lat="44.9543" lon="5.74656">
        <ele>941.59997558594</ele>
        <time>2026-07-05T08:21:40.000Z</time>
      </trkpt>
      <trkpt lat="44.95428" lon="5.74655">
        <ele>942.20001220703</ele>
        <time>2026-07-05T08:21:41.000Z</time>
      </trkpt>
      <trkpt lat="44.95426" lon="5.74654">
        <ele>942.59997558594</ele>
        <time>2026-07-05T08:21:42.000Z</time>
      </trkpt>
      <trkpt lat="44.95425" lon="5.74652">
        <ele>942.59997558594</ele>
        <time>2026-07-05T08:21:43.000Z</time>
      </trkpt>
      <trkpt lat="44.95424" lon="5.74651">
        <ele>942.79998779297</ele>
        <time>2026-07-05T08:21:44.000Z</time>
      </trkpt>
      <trkpt lat="44.95422" lon="5.74649">
        <ele>942.79998779297</ele>
        <time>2026-07-05T08:21:45.000Z</time>
      </trkpt>
      <trkpt lat="44.95421" lon="5.74648">
        <ele>943</ele>
        <time>2026-07-05T08:21:46.000Z</time>
      </trkpt>
      <trkpt lat="44.95419" lon="5.74647">
        <ele>943</ele>
        <time>2026-07-05T08:21:47.000Z</time>
      </trkpt>
      <trkpt lat="44.95418" lon="5.74646">
        <ele>945</ele>
        <time>2026-07-05T08:21:48.000Z</time>
      </trkpt>
      <trkpt lat="44.95416" lon="5.74645">
        <ele>945.20001220703</ele>
        <time>2026-07-05T08:21:49.000Z</time>
      </trkpt>
      <trkpt lat="44.95414" lon="5.74644">
        <ele>945.40002441406</ele>
        <time>2026-07-05T08:21:50.000Z</time>
      </trkpt>
      <trkpt lat="44.95412" lon="5.74643">
        <ele>945.59997558594</ele>
        <time>2026-07-05T08:21:51.000Z</time>
      </trkpt>
      <trkpt lat="44.9541" lon="5.74642">
        <ele>946</ele>
        <time>2026-07-05T08:21:52.000Z</time>
      </trkpt>
      <trkpt lat="44.95407" lon="5.74641">
        <ele>946.40002441406</ele>
        <time>2026-07-05T08:21:53.000Z</time>
      </trkpt>
      <trkpt lat="44.95405" lon="5.74638">
        <ele>947</ele>
        <time>2026-07-05T08:21:54.000Z</time>
      </trkpt>
      <trkpt lat="44.95403" lon="5.74637">
        <ele>947.40002441406</ele>
        <time>2026-07-05T08:21:55.000Z</time>
      </trkpt>
      <trkpt lat="44.95401" lon="5.74636">
        <ele>947.79998779297</ele>
        <time>2026-07-05T08:21:56.000Z</time>
      </trkpt>
      <trkpt lat="44.95399" lon="5.74635">
        <ele>948.40002441406</ele>
        <time>2026-07-05T08:21:57.000Z</time>
      </trkpt>
      <trkpt lat="44.95398" lon="5.74634">
        <ele>948.59997558594</ele>
        <time>2026-07-05T08:21:58.000Z</time>
      </trkpt>
      <trkpt lat="44.95396" lon="5.74634">
        <ele>948.79998779297</ele>
        <time>2026-07-05T08:21:59.000Z</time>
      </trkpt>
      <trkpt lat="44.95394" lon="5.74633">
        <ele>949</ele>
        <time>2026-07-05T08:22:00.000Z</time>
      </trkpt>
      <trkpt lat="44.95392" lon="5.74632">
        <ele>949.40002441406</ele>
        <time>2026-07-05T08:22:01.000Z</time>
      </trkpt>
      <trkpt lat="44.9539" lon="5.74631">
        <ele>949.59997558594</ele>
        <time>2026-07-05T08:22:02.000Z</time>
      </trkpt>
      <trkpt lat="44.95388" lon="5.7463">
        <ele>949.79998779297</ele>
        <time>2026-07-05T08:22:03.000Z</time>
      </trkpt>
      <trkpt lat="44.95386" lon="5.74629">
        <ele>950</ele>
        <time>2026-07-05T08:22:04.000Z</time>
      </trkpt>
      <trkpt lat="44.95384" lon="5.74629">
        <ele>950.20001220703</ele>
        <time>2026-07-05T08:22:05.000Z</time>
      </trkpt>
      <trkpt lat="44.95382" lon="5.74628">
        <ele>949.79998779297</ele>
        <time>2026-07-05T08:22:06.000Z</time>
      </trkpt>
      <trkpt lat="44.95381" lon="5.74627">
        <ele>949</ele>
        <time>2026-07-05T08:22:07.000Z</time>
      </trkpt>
      <trkpt lat="44.95379" lon="5.74627">
        <ele>948.59997558594</ele>
        <time>2026-07-05T08:22:08.000Z</time>
      </trkpt>
      <trkpt lat="44.95377" lon="5.74626">
        <ele>948.59997558594</ele>
        <time>2026-07-05T08:22:09.000Z</time>
      </trkpt>
      <trkpt lat="44.95376" lon="5.74626">
        <ele>948.40002441406</ele>
        <time>2026-07-05T08:22:10.000Z</time>
      </trkpt>
      <trkpt lat="44.95374" lon="5.74625">
        <ele>948.20001220703</ele>
        <time>2026-07-05T08:22:11.000Z</time>
      </trkpt>
      <trkpt lat="44.95372" lon="5.74624">
        <ele>948</ele>
        <time>2026-07-05T08:22:12.000Z</time>
      </trkpt>
      <trkpt lat="44.95371" lon="5.74624">
        <ele>948</ele>
        <time>2026-07-05T08:22:13.000Z</time>
      </trkpt>
      <trkpt lat="44.95369" lon="5.74624">
        <ele>948</ele>
        <time>2026-07-05T08:22:14.000Z</time>
      </trkpt>
      <trkpt lat="44.95367" lon="5.74624">
        <ele>948</ele>
        <time>2026-07-05T08:22:15.000Z</time>
      </trkpt>
      <trkpt lat="44.95365" lon="5.74624">
        <ele>947.79998779297</ele>
        <time>2026-07-05T08:22:16.000Z</time>
      </trkpt>
      <trkpt lat="44.95363" lon="5.74624">
        <ele>948</ele>
        <time>2026-07-05T08:22:17.000Z</time>
      </trkpt>
      <trkpt lat="44.95362" lon="5.74624">
        <ele>948</ele>
        <time>2026-07-05T08:22:18.000Z</time>
      </trkpt>
      <trkpt lat="44.9536" lon="5.74623">
        <ele>948</ele>
        <time>2026-07-05T08:22:19.000Z</time>
      </trkpt>
      <trkpt lat="44.95358" lon="5.74623">
        <ele>948.40002441406</ele>
        <time>2026-07-05T08:22:20.000Z</time>
      </trkpt>
      <trkpt lat="44.95356" lon="5.74623">
        <ele>948.79998779297</ele>
        <time>2026-07-05T08:22:21.000Z</time>
      </trkpt>
      <trkpt lat="44.95354" lon="5.74623">
        <ele>949.20001220703</ele>
        <time>2026-07-05T08:22:22.000Z</time>
      </trkpt>
      <trkpt lat="44.95352" lon="5.74623">
        <ele>949.79998779297</ele>
        <time>2026-07-05T08:22:23.000Z</time>
      </trkpt>
      <trkpt lat="44.9535" lon="5.74622">
        <ele>950.20001220703</ele>
        <time>2026-07-05T08:22:24.000Z</time>
      </trkpt>
      <trkpt lat="44.95348" lon="5.74622">
        <ele>950.59997558594</ele>
        <time>2026-07-05T08:22:25.000Z</time>
      </trkpt>
      <trkpt lat="44.95346" lon="5.74621">
        <ele>951</ele>
        <time>2026-07-05T08:22:26.000Z</time>
      </trkpt>
      <trkpt lat="44.95345" lon="5.74621">
        <ele>950.40002441406</ele>
        <time>2026-07-05T08:22:27.000Z</time>
      </trkpt>
      <trkpt lat="44.95343" lon="5.7462">
        <ele>950.20001220703</ele>
        <time>2026-07-05T08:22:28.000Z</time>
      </trkpt>
      <trkpt lat="44.95342" lon="5.7462">
        <ele>950.20001220703</ele>
        <time>2026-07-05T08:22:29.000Z</time>
      </trkpt>
      <trkpt lat="44.9534" lon="5.7462">
        <ele>950</ele>
        <time>2026-07-05T08:22:30.000Z</time>
      </trkpt>
      <trkpt lat="44.95338" lon="5.74619">
        <ele>950</ele>
        <time>2026-07-05T08:22:31.000Z</time>
      </trkpt>
      <trkpt lat="44.95336" lon="5.74619">
        <ele>950.40002441406</ele>
        <time>2026-07-05T08:22:32.000Z</time>
      </trkpt>
      <trkpt lat="44.95334" lon="5.74618">
        <ele>950.79998779297</ele>
        <time>2026-07-05T08:22:33.000Z</time>
      </trkpt>
      <trkpt lat="44.95332" lon="5.74617">
        <ele>951.20001220703</ele>
        <time>2026-07-05T08:22:34.000Z</time>
      </trkpt>
      <trkpt lat="44.9533" lon="5.74617">
        <ele>951.59997558594</ele>
        <time>2026-07-05T08:22:35.000Z</time>
      </trkpt>
      <trkpt lat="44.95328" lon="5.74616">
        <ele>952</ele>
        <time>2026-07-05T08:22:36.000Z</time>
      </trkpt>
      <trkpt lat="44.95327" lon="5.74616">
        <ele>952.20001220703</ele>
        <time>2026-07-05T08:22:37.000Z</time>
      </trkpt>
      <trkpt lat="44.95325" lon="5.74615">
        <ele>952.40002441406</ele>
        <time>2026-07-05T08:22:38.000Z</time>
      </trkpt>
      <trkpt lat="44.95323" lon="5.74615">
        <ele>952.59997558594</ele>
        <time>2026-07-05T08:22:39.000Z</time>
      </trkpt>
      <trkpt lat="44.95321" lon="5.74614">
        <ele>952.79998779297</ele>
        <time>2026-07-05T08:22:40.000Z</time>
      </trkpt>
      <trkpt lat="44.95319" lon="5.74614">
        <ele>953.40002441406</ele>
        <time>2026-07-05T08:22:41.000Z</time>
      </trkpt>
      <trkpt lat="44.95318" lon="5.74613">
        <ele>954</ele>
        <time>2026-07-05T08:22:42.000Z</time>
      </trkpt>
      <trkpt lat="44.95316" lon="5.74613">
        <ele>953.79998779297</ele>
        <time>2026-07-05T08:22:43.000Z</time>
      </trkpt>
      <trkpt lat="44.95315" lon="5.74613">
        <ele>953.79998779297</ele>
        <time>2026-07-05T08:22:44.000Z</time>
      </trkpt>
      <trkpt lat="44.95313" lon="5.74612">
        <ele>953.79998779297</ele>
        <time>2026-07-05T08:22:45.000Z</time>
      </trkpt>
      <trkpt lat="44.95312" lon="5.74612">
        <ele>953.79998779297</ele>
        <time>2026-07-05T08:22:46.000Z</time>
      </trkpt>
      <trkpt lat="44.9531" lon="5.74611">
        <ele>953.79998779297</ele>
        <time>2026-07-05T08:22:47.000Z</time>
      </trkpt>
      <trkpt lat="44.95308" lon="5.74611">
        <ele>953.59997558594</ele>
        <time>2026-07-05T08:22:48.000Z</time>
      </trkpt>
      <trkpt lat="44.95307" lon="5.7461">
        <ele>953.59997558594</ele>
        <time>2026-07-05T08:22:49.000Z</time>
      </trkpt>
      <trkpt lat="44.95305" lon="5.7461">
        <ele>954.20001220703</ele>
        <time>2026-07-05T08:22:50.000Z</time>
      </trkpt>
      <trkpt lat="44.95304" lon="5.74609">
        <ele>954.59997558594</ele>
        <time>2026-07-05T08:22:51.000Z</time>
      </trkpt>
      <trkpt lat="44.95302" lon="5.74609">
        <ele>955.20001220703</ele>
        <time>2026-07-05T08:22:52.000Z</time>
      </trkpt>
      <trkpt lat="44.953" lon="5.74609">
        <ele>955.59997558594</ele>
        <time>2026-07-05T08:22:53.000Z</time>
      </trkpt>
      <trkpt lat="44.95298" lon="5.74608">
        <ele>956.20001220703</ele>
        <time>2026-07-05T08:22:54.000Z</time>
      </trkpt>
      <trkpt lat="44.95296" lon="5.74607">
        <ele>956.59997558594</ele>
        <time>2026-07-05T08:22:55.000Z</time>
      </trkpt>
      <trkpt lat="44.95294" lon="5.74607">
        <ele>956.79998779297</ele>
        <time>2026-07-05T08:22:56.000Z</time>
      </trkpt>
      <trkpt lat="44.95292" lon="5.74606">
        <ele>957.20001220703</ele>
        <time>2026-07-05T08:22:57.000Z</time>
      </trkpt>
      <trkpt lat="44.9529" lon="5.74604">
        <ele>957.40002441406</ele>
        <time>2026-07-05T08:22:58.000Z</time>
      </trkpt>
      <trkpt lat="44.95288" lon="5.74603">
        <ele>957.79998779297</ele>
        <time>2026-07-05T08:22:59.000Z</time>
      </trkpt>
      <trkpt lat="44.95286" lon="5.74602">
        <ele>958.20001220703</ele>
        <time>2026-07-05T08:23:00.000Z</time>
      </trkpt>
      <trkpt lat="44.95284" lon="5.74601">
        <ele>958.59997558594</ele>
        <time>2026-07-05T08:23:01.000Z</time>
      </trkpt>
      <trkpt lat="44.95281" lon="5.746">
        <ele>958.79998779297</ele>
        <time>2026-07-05T08:23:02.000Z</time>
      </trkpt>
      <trkpt lat="44.95279" lon="5.74599">
        <ele>959.20001220703</ele>
        <time>2026-07-05T08:23:03.000Z</time>
      </trkpt>
      <trkpt lat="44.95277" lon="5.74598">
        <ele>958.79998779297</ele>
        <time>2026-07-05T08:23:04.000Z</time>
      </trkpt>
      <trkpt lat="44.95276" lon="5.74596">
        <ele>959.20001220703</ele>
        <time>2026-07-05T08:23:05.000Z</time>
      </trkpt>
      <trkpt lat="44.95274" lon="5.74595">
        <ele>959.40002441406</ele>
        <time>2026-07-05T08:23:06.000Z</time>
      </trkpt>
      <trkpt lat="44.95272" lon="5.74593">
        <ele>959.79998779297</ele>
        <time>2026-07-05T08:23:07.000Z</time>
      </trkpt>
      <trkpt lat="44.9527" lon="5.74593">
        <ele>960</ele>
        <time>2026-07-05T08:23:08.000Z</time>
      </trkpt>
      <trkpt lat="44.95268" lon="5.74592">
        <ele>960.40002441406</ele>
        <time>2026-07-05T08:23:09.000Z</time>
      </trkpt>
      <trkpt lat="44.95267" lon="5.74591">
        <ele>960.59997558594</ele>
        <time>2026-07-05T08:23:10.000Z</time>
      </trkpt>
      <trkpt lat="44.95265" lon="5.7459">
        <ele>961</ele>
        <time>2026-07-05T08:23:11.000Z</time>
      </trkpt>
      <trkpt lat="44.95263" lon="5.74589">
        <ele>961.20001220703</ele>
        <time>2026-07-05T08:23:12.000Z</time>
      </trkpt>
      <trkpt lat="44.95261" lon="5.74588">
        <ele>961.59997558594</ele>
        <time>2026-07-05T08:23:13.000Z</time>
      </trkpt>
      <trkpt lat="44.95259" lon="5.74587">
        <ele>961.79998779297</ele>
        <time>2026-07-05T08:23:14.000Z</time>
      </trkpt>
      <trkpt lat="44.95257" lon="5.74585">
        <ele>962.20001220703</ele>
        <time>2026-07-05T08:23:15.000Z</time>
      </trkpt>
      <trkpt lat="44.95255" lon="5.74585">
        <ele>962.40002441406</ele>
        <time>2026-07-05T08:23:16.000Z</time>
      </trkpt>
      <trkpt lat="44.95253" lon="5.74583">
        <ele>961.79998779297</ele>
        <time>2026-07-05T08:23:17.000Z</time>
      </trkpt>
      <trkpt lat="44.9525" lon="5.74582">
        <ele>961.40002441406</ele>
        <time>2026-07-05T08:23:18.000Z</time>
      </trkpt>
      <trkpt lat="44.95248" lon="5.74581">
        <ele>960.79998779297</ele>
        <time>2026-07-05T08:23:19.000Z</time>
      </trkpt>
      <trkpt lat="44.95246" lon="5.7458">
        <ele>960.40002441406</ele>
        <time>2026-07-05T08:23:20.000Z</time>
      </trkpt>
      <trkpt lat="44.95244" lon="5.74579">
        <ele>959.79998779297</ele>
        <time>2026-07-05T08:23:21.000Z</time>
      </trkpt>
      <trkpt lat="44.95242" lon="5.74579">
        <ele>958.79998779297</ele>
        <time>2026-07-05T08:23:22.000Z</time>
      </trkpt>
      <trkpt lat="44.95239" lon="5.74578">
        <ele>958.20001220703</ele>
        <time>2026-07-05T08:23:23.000Z</time>
      </trkpt>
      <trkpt lat="44.95237" lon="5.74577">
        <ele>958</ele>
        <time>2026-07-05T08:23:24.000Z</time>
      </trkpt>
      <trkpt lat="44.95235" lon="5.74577">
        <ele>957.79998779297</ele>
        <time>2026-07-05T08:23:25.000Z</time>
      </trkpt>
      <trkpt lat="44.95233" lon="5.74576">
        <ele>957.40002441406</ele>
        <time>2026-07-05T08:23:26.000Z</time>
      </trkpt>
      <trkpt lat="44.95231" lon="5.74575">
        <ele>956.79998779297</ele>
        <time>2026-07-05T08:23:27.000Z</time>
      </trkpt>
      <trkpt lat="44.95229" lon="5.74574">
        <ele>956.40002441406</ele>
        <time>2026-07-05T08:23:28.000Z</time>
      </trkpt>
      <trkpt lat="44.95226" lon="5.74573">
        <ele>956.20001220703</ele>
        <time>2026-07-05T08:23:29.000Z</time>
      </trkpt>
      <trkpt lat="44.95224" lon="5.74571">
        <ele>956.20001220703</ele>
        <time>2026-07-05T08:23:30.000Z</time>
      </trkpt>
      <trkpt lat="44.95222" lon="5.7457">
        <ele>956.20001220703</ele>
        <time>2026-07-05T08:23:31.000Z</time>
      </trkpt>
      <trkpt lat="44.95219" lon="5.74569">
        <ele>956.40002441406</ele>
        <time>2026-07-05T08:23:32.000Z</time>
      </trkpt>
      <trkpt lat="44.95217" lon="5.74568">
        <ele>956.40002441406</ele>
        <time>2026-07-05T08:23:33.000Z</time>
      </trkpt>
      <trkpt lat="44.95215" lon="5.74567">
        <ele>956.59997558594</ele>
        <time>2026-07-05T08:23:34.000Z</time>
      </trkpt>
      <trkpt lat="44.95212" lon="5.74566">
        <ele>957.59997558594</ele>
        <time>2026-07-05T08:23:35.000Z</time>
      </trkpt>
      <trkpt lat="44.95211" lon="5.74565">
        <ele>958.40002441406</ele>
        <time>2026-07-05T08:23:36.000Z</time>
      </trkpt>
      <trkpt lat="44.95208" lon="5.74563">
        <ele>959</ele>
        <time>2026-07-05T08:23:37.000Z</time>
      </trkpt>
      <trkpt lat="44.95206" lon="5.74562">
        <ele>959.20001220703</ele>
        <time>2026-07-05T08:23:38.000Z</time>
      </trkpt>
      <trkpt lat="44.95204" lon="5.74562">
        <ele>959</ele>
        <time>2026-07-05T08:23:39.000Z</time>
      </trkpt>
      <trkpt lat="44.95202" lon="5.74561">
        <ele>958.79998779297</ele>
        <time>2026-07-05T08:23:40.000Z</time>
      </trkpt>
      <trkpt lat="44.952" lon="5.7456">
        <ele>958.59997558594</ele>
        <time>2026-07-05T08:23:41.000Z</time>
      </trkpt>
      <trkpt lat="44.95198" lon="5.7456">
        <ele>958.20001220703</ele>
        <time>2026-07-05T08:23:42.000Z</time>
      </trkpt>
      <trkpt lat="44.95196" lon="5.7456">
        <ele>957.79998779297</ele>
        <time>2026-07-05T08:23:43.000Z</time>
      </trkpt>
      <trkpt lat="44.95194" lon="5.7456">
        <ele>957.40002441406</ele>
        <time>2026-07-05T08:23:44.000Z</time>
      </trkpt>
      <trkpt lat="44.95192" lon="5.74559">
        <ele>957</ele>
        <time>2026-07-05T08:23:45.000Z</time>
      </trkpt>
      <trkpt lat="44.9519" lon="5.74559">
        <ele>956.59997558594</ele>
        <time>2026-07-05T08:23:46.000Z</time>
      </trkpt>
      <trkpt lat="44.95188" lon="5.74558">
        <ele>956.40002441406</ele>
        <time>2026-07-05T08:23:47.000Z</time>
      </trkpt>
      <trkpt lat="44.95186" lon="5.74557">
        <ele>956.59997558594</ele>
        <time>2026-07-05T08:23:48.000Z</time>
      </trkpt>
      <trkpt lat="44.95184" lon="5.74555">
        <ele>956.79998779297</ele>
        <time>2026-07-05T08:23:49.000Z</time>
      </trkpt>
      <trkpt lat="44.95181" lon="5.74554">
        <ele>957</ele>
        <time>2026-07-05T08:23:50.000Z</time>
      </trkpt>
      <trkpt lat="44.95179" lon="5.74553">
        <ele>957.20001220703</ele>
        <time>2026-07-05T08:23:51.000Z</time>
      </trkpt>
      <trkpt lat="44.95177" lon="5.74551">
        <ele>957.40002441406</ele>
        <time>2026-07-05T08:23:52.000Z</time>
      </trkpt>
      <trkpt lat="44.95175" lon="5.74549">
        <ele>957.40002441406</ele>
        <time>2026-07-05T08:23:53.000Z</time>
      </trkpt>
      <trkpt lat="44.95173" lon="5.74548">
        <ele>957.59997558594</ele>
        <time>2026-07-05T08:23:54.000Z</time>
      </trkpt>
      <trkpt lat="44.95171" lon="5.74546">
        <ele>957.79998779297</ele>
        <time>2026-07-05T08:23:55.000Z</time>
      </trkpt>
      <trkpt lat="44.9517" lon="5.74545">
        <ele>957.79998779297</ele>
        <time>2026-07-05T08:23:56.000Z</time>
      </trkpt>
      <trkpt lat="44.95168" lon="5.74542">
        <ele>958</ele>
        <time>2026-07-05T08:23:57.000Z</time>
      </trkpt>
      <trkpt lat="44.95166" lon="5.7454">
        <ele>958.59997558594</ele>
        <time>2026-07-05T08:23:58.000Z</time>
      </trkpt>
      <trkpt lat="44.95164" lon="5.74538">
        <ele>959</ele>
        <time>2026-07-05T08:23:59.000Z</time>
      </trkpt>
      <trkpt lat="44.95162" lon="5.74535">
        <ele>959.59997558594</ele>
        <time>2026-07-05T08:24:00.000Z</time>
      </trkpt>
      <trkpt lat="44.9516" lon="5.74534">
        <ele>960</ele>
        <time>2026-07-05T08:24:01.000Z</time>
      </trkpt>
      <trkpt lat="44.95158" lon="5.74532">
        <ele>961</ele>
        <time>2026-07-05T08:24:02.000Z</time>
      </trkpt>
      <trkpt lat="44.95156" lon="5.74531">
        <ele>961.40002441406</ele>
        <time>2026-07-05T08:24:03.000Z</time>
      </trkpt>
      <trkpt lat="44.95155" lon="5.7453">
        <ele>961.40002441406</ele>
        <time>2026-07-05T08:24:04.000Z</time>
      </trkpt>
      <trkpt lat="44.95153" lon="5.74529">
        <ele>961.40002441406</ele>
        <time>2026-07-05T08:24:05.000Z</time>
      </trkpt>
      <trkpt lat="44.95151" lon="5.74527">
        <ele>961.59997558594</ele>
        <time>2026-07-05T08:24:06.000Z</time>
      </trkpt>
      <trkpt lat="44.95149" lon="5.74526">
        <ele>961.59997558594</ele>
        <time>2026-07-05T08:24:07.000Z</time>
      </trkpt>
      <trkpt lat="44.95147" lon="5.74524">
        <ele>961.59997558594</ele>
        <time>2026-07-05T08:24:08.000Z</time>
      </trkpt>
      <trkpt lat="44.95145" lon="5.74523">
        <ele>961.40002441406</ele>
        <time>2026-07-05T08:24:09.000Z</time>
      </trkpt>
      <trkpt lat="44.95144" lon="5.74521">
        <ele>961.59997558594</ele>
        <time>2026-07-05T08:24:10.000Z</time>
      </trkpt>
      <trkpt lat="44.95142" lon="5.7452">
        <ele>961.79998779297</ele>
        <time>2026-07-05T08:24:11.000Z</time>
      </trkpt>
      <trkpt lat="44.9514" lon="5.74519">
        <ele>961.79998779297</ele>
        <time>2026-07-05T08:24:12.000Z</time>
      </trkpt>
      <trkpt lat="44.95138" lon="5.74518">
        <ele>962</ele>
        <time>2026-07-05T08:24:13.000Z</time>
      </trkpt>
      <trkpt lat="44.95136" lon="5.74516">
        <ele>962.20001220703</ele>
        <time>2026-07-05T08:24:14.000Z</time>
      </trkpt>
      <trkpt lat="44.95135" lon="5.74515">
        <ele>962.20001220703</ele>
        <time>2026-07-05T08:24:15.000Z</time>
      </trkpt>
      <trkpt lat="44.95133" lon="5.74514">
        <ele>962.20001220703</ele>
        <time>2026-07-05T08:24:16.000Z</time>
      </trkpt>
      <trkpt lat="44.95131" lon="5.74512">
        <ele>962.40002441406</ele>
        <time>2026-07-05T08:24:17.000Z</time>
      </trkpt>
      <trkpt lat="44.95129" lon="5.74509">
        <ele>962.40002441406</ele>
        <time>2026-07-05T08:24:18.000Z</time>
      </trkpt>
      <trkpt lat="44.95127" lon="5.74507">
        <ele>962.40002441406</ele>
        <time>2026-07-05T08:24:19.000Z</time>
      </trkpt>
      <trkpt lat="44.95125" lon="5.74506">
        <ele>962.59997558594</ele>
        <time>2026-07-05T08:24:20.000Z</time>
      </trkpt>
      <trkpt lat="44.95123" lon="5.74505">
        <ele>963.40002441406</ele>
        <time>2026-07-05T08:24:21.000Z</time>
      </trkpt>
      <trkpt lat="44.95121" lon="5.74503">
        <ele>963.59997558594</ele>
        <time>2026-07-05T08:24:22.000Z</time>
      </trkpt>
      <trkpt lat="44.9512" lon="5.74501">
        <ele>963.59997558594</ele>
        <time>2026-07-05T08:24:23.000Z</time>
      </trkpt>
      <trkpt lat="44.95118" lon="5.74499">
        <ele>963.59997558594</ele>
        <time>2026-07-05T08:24:24.000Z</time>
      </trkpt>
      <trkpt lat="44.95117" lon="5.74497">
        <ele>963.59997558594</ele>
        <time>2026-07-05T08:24:25.000Z</time>
      </trkpt>
      <trkpt lat="44.95115" lon="5.74495">
        <ele>963.59997558594</ele>
        <time>2026-07-05T08:24:26.000Z</time>
      </trkpt>
      <trkpt lat="44.95113" lon="5.74493">
        <ele>963.79998779297</ele>
        <time>2026-07-05T08:24:27.000Z</time>
      </trkpt>
      <trkpt lat="44.95112" lon="5.74492">
        <ele>963.59997558594</ele>
        <time>2026-07-05T08:24:28.000Z</time>
      </trkpt>
      <trkpt lat="44.95111" lon="5.7449">
        <ele>963.40002441406</ele>
        <time>2026-07-05T08:24:29.000Z</time>
      </trkpt>
      <trkpt lat="44.95109" lon="5.74489">
        <ele>963.79998779297</ele>
        <time>2026-07-05T08:24:30.000Z</time>
      </trkpt>
      <trkpt lat="44.95108" lon="5.74488">
        <ele>964.20001220703</ele>
        <time>2026-07-05T08:24:31.000Z</time>
      </trkpt>
      <trkpt lat="44.95107" lon="5.74487">
        <ele>964.20001220703</ele>
        <time>2026-07-05T08:24:32.000Z</time>
      </trkpt>
      <trkpt lat="44.95106" lon="5.74486">
        <ele>964.20001220703</ele>
        <time>2026-07-05T08:24:33.000Z</time>
      </trkpt>
      <trkpt lat="44.95105" lon="5.74485">
        <ele>964.40002441406</ele>
        <time>2026-07-05T08:24:34.000Z</time>
      </trkpt>
      <trkpt lat="44.95104" lon="5.74483">
        <ele>964.40002441406</ele>
        <time>2026-07-05T08:24:35.000Z</time>
      </trkpt>
      <trkpt lat="44.95103" lon="5.74482">
        <ele>964.20001220703</ele>
        <time>2026-07-05T08:24:36.000Z</time>
      </trkpt>
      <trkpt lat="44.95102" lon="5.7448">
        <ele>964.20001220703</ele>
        <time>2026-07-05T08:24:37.000Z</time>
      </trkpt>
      <trkpt lat="44.95101" lon="5.74478">
        <ele>964.20001220703</ele>
        <time>2026-07-05T08:24:38.000Z</time>
      </trkpt>
      <trkpt lat="44.951" lon="5.74477">
        <ele>964.20001220703</ele>
        <time>2026-07-05T08:24:39.000Z</time>
      </trkpt>
      <trkpt lat="44.95099" lon="5.74475">
        <ele>964.59997558594</ele>
        <time>2026-07-05T08:24:40.000Z</time>
      </trkpt>
      <trkpt lat="44.95098" lon="5.74473">
        <ele>964.79998779297</ele>
        <time>2026-07-05T08:24:41.000Z</time>
      </trkpt>
      <trkpt lat="44.95096" lon="5.74471">
        <ele>965.20001220703</ele>
        <time>2026-07-05T08:24:42.000Z</time>
      </trkpt>
      <trkpt lat="44.95094" lon="5.7447">
        <ele>965.59997558594</ele>
        <time>2026-07-05T08:24:43.000Z</time>
      </trkpt>
      <trkpt lat="44.95092" lon="5.74469">
        <ele>965.40002441406</ele>
        <time>2026-07-05T08:24:44.000Z</time>
      </trkpt>
      <trkpt lat="44.95091" lon="5.74467">
        <ele>965.59997558594</ele>
        <time>2026-07-05T08:24:45.000Z</time>
      </trkpt>
      <trkpt lat="44.9509" lon="5.74466">
        <ele>965.79998779297</ele>
        <time>2026-07-05T08:24:46.000Z</time>
      </trkpt>
      <trkpt lat="44.95088" lon="5.74464">
        <ele>966</ele>
        <time>2026-07-05T08:24:47.000Z</time>
      </trkpt>
      <trkpt lat="44.95087" lon="5.74463">
        <ele>966.40002441406</ele>
        <time>2026-07-05T08:24:48.000Z</time>
      </trkpt>
      <trkpt lat="44.95086" lon="5.74461">
        <ele>966.59997558594</ele>
        <time>2026-07-05T08:24:49.000Z</time>
      </trkpt>
      <trkpt lat="44.95084" lon="5.74459">
        <ele>967.79998779297</ele>
        <time>2026-07-05T08:24:50.000Z</time>
      </trkpt>
      <trkpt lat="44.95083" lon="5.74457">
        <ele>969</ele>
        <time>2026-07-05T08:24:51.000Z</time>
      </trkpt>
      <trkpt lat="44.95082" lon="5.74455">
        <ele>969</ele>
        <time>2026-07-05T08:24:52.000Z</time>
      </trkpt>
      <trkpt lat="44.95081" lon="5.74454">
        <ele>969</ele>
        <time>2026-07-05T08:24:53.000Z</time>
      </trkpt>
      <trkpt lat="44.9508" lon="5.74452">
        <ele>969.20001220703</ele>
        <time>2026-07-05T08:24:54.000Z</time>
      </trkpt>
      <trkpt lat="44.95079" lon="5.7445">
        <ele>969.20001220703</ele>
        <time>2026-07-05T08:24:55.000Z</time>
      </trkpt>
      <trkpt lat="44.95077" lon="5.74448">
        <ele>969.20001220703</ele>
        <time>2026-07-05T08:24:56.000Z</time>
      </trkpt>
      <trkpt lat="44.95076" lon="5.74447">
        <ele>968.79998779297</ele>
        <time>2026-07-05T08:24:57.000Z</time>
      </trkpt>
      <trkpt lat="44.95074" lon="5.74446">
        <ele>968.40002441406</ele>
        <time>2026-07-05T08:24:58.000Z</time>
      </trkpt>
      <trkpt lat="44.95073" lon="5.74444">
        <ele>968.20001220703</ele>
        <time>2026-07-05T08:24:59.000Z</time>
      </trkpt>
      <trkpt lat="44.95072" lon="5.74443">
        <ele>968</ele>
        <time>2026-07-05T08:25:00.000Z</time>
      </trkpt>
      <trkpt lat="44.9507" lon="5.74441">
        <ele>967.79998779297</ele>
        <time>2026-07-05T08:25:01.000Z</time>
      </trkpt>
      <trkpt lat="44.95069" lon="5.7444">
        <ele>968</ele>
        <time>2026-07-05T08:25:02.000Z</time>
      </trkpt>
      <trkpt lat="44.95068" lon="5.74439">
        <ele>968.20001220703</ele>
        <time>2026-07-05T08:25:03.000Z</time>
      </trkpt>
      <trkpt lat="44.95067" lon="5.74437">
        <ele>968.20001220703</ele>
        <time>2026-07-05T08:25:04.000Z</time>
      </trkpt>
      <trkpt lat="44.95066" lon="5.74436">
        <ele>968.59997558594</ele>
        <time>2026-07-05T08:25:05.000Z</time>
      </trkpt>
      <trkpt lat="44.95065" lon="5.74435">
        <ele>969</ele>
        <time>2026-07-05T08:25:06.000Z</time>
      </trkpt>
      <trkpt lat="44.95064" lon="5.74433">
        <ele>969.40002441406</ele>
        <time>2026-07-05T08:25:07.000Z</time>
      </trkpt>
      <trkpt lat="44.95063" lon="5.7443">
        <ele>969.40002441406</ele>
        <time>2026-07-05T08:25:08.000Z</time>
      </trkpt>
      <trkpt lat="44.95062" lon="5.74429">
        <ele>969.79998779297</ele>
        <time>2026-07-05T08:25:09.000Z</time>
      </trkpt>
      <trkpt lat="44.95061" lon="5.74427">
        <ele>970.20001220703</ele>
        <time>2026-07-05T08:25:10.000Z</time>
      </trkpt>
      <trkpt lat="44.9506" lon="5.74425">
        <ele>970.20001220703</ele>
        <time>2026-07-05T08:25:11.000Z</time>
      </trkpt>
      <trkpt lat="44.95059" lon="5.74423">
        <ele>970.59997558594</ele>
        <time>2026-07-05T08:25:12.000Z</time>
      </trkpt>
      <trkpt lat="44.95058" lon="5.74421">
        <ele>970.79998779297</ele>
        <time>2026-07-05T08:25:13.000Z</time>
      </trkpt>
      <trkpt lat="44.95056" lon="5.74419">
        <ele>971.20001220703</ele>
        <time>2026-07-05T08:25:14.000Z</time>
      </trkpt>
      <trkpt lat="44.95055" lon="5.74417">
        <ele>971.79998779297</ele>
        <time>2026-07-05T08:25:15.000Z</time>
      </trkpt>
      <trkpt lat="44.95055" lon="5.74415">
        <ele>972</ele>
        <time>2026-07-05T08:25:16.000Z</time>
      </trkpt>
      <trkpt lat="44.95054" lon="5.74414">
        <ele>972.20001220703</ele>
        <time>2026-07-05T08:25:17.000Z</time>
      </trkpt>
      <trkpt lat="44.95053" lon="5.74413">
        <ele>972.59997558594</ele>
        <time>2026-07-05T08:25:18.000Z</time>
      </trkpt>
      <trkpt lat="44.95052" lon="5.74411">
        <ele>972.79998779297</ele>
        <time>2026-07-05T08:25:19.000Z</time>
      </trkpt>
      <trkpt lat="44.95052" lon="5.74409">
        <ele>973</ele>
        <time>2026-07-05T08:25:20.000Z</time>
      </trkpt>
      <trkpt lat="44.95051" lon="5.74407">
        <ele>973.20001220703</ele>
        <time>2026-07-05T08:25:21.000Z</time>
      </trkpt>
      <trkpt lat="44.9505" lon="5.74405">
        <ele>973.40002441406</ele>
        <time>2026-07-05T08:25:22.000Z</time>
      </trkpt>
      <trkpt lat="44.95049" lon="5.74403">
        <ele>973.40002441406</ele>
        <time>2026-07-05T08:25:23.000Z</time>
      </trkpt>
      <trkpt lat="44.95049" lon="5.744">
        <ele>973.59997558594</ele>
        <time>2026-07-05T08:25:24.000Z</time>
      </trkpt>
      <trkpt lat="44.95048" lon="5.74398">
        <ele>974.40002441406</ele>
        <time>2026-07-05T08:25:25.000Z</time>
      </trkpt>
      <trkpt lat="44.95048" lon="5.74396">
        <ele>974.40002441406</ele>
        <time>2026-07-05T08:25:26.000Z</time>
      </trkpt>
      <trkpt lat="44.95047" lon="5.74393">
        <ele>974.20001220703</ele>
        <time>2026-07-05T08:25:27.000Z</time>
      </trkpt>
      <trkpt lat="44.95046" lon="5.74391">
        <ele>974.40002441406</ele>
        <time>2026-07-05T08:25:28.000Z</time>
      </trkpt>
      <trkpt lat="44.95045" lon="5.74389">
        <ele>974.40002441406</ele>
        <time>2026-07-05T08:25:29.000Z</time>
      </trkpt>
      <trkpt lat="44.95044" lon="5.74386">
        <ele>974.59997558594</ele>
        <time>2026-07-05T08:25:30.000Z</time>
      </trkpt>
      <trkpt lat="44.95043" lon="5.74384">
        <ele>975</ele>
        <time>2026-07-05T08:25:31.000Z</time>
      </trkpt>
      <trkpt lat="44.95043" lon="5.74381">
        <ele>975.79998779297</ele>
        <time>2026-07-05T08:25:32.000Z</time>
      </trkpt>
      <trkpt lat="44.95042" lon="5.74379">
        <ele>976.20001220703</ele>
        <time>2026-07-05T08:25:33.000Z</time>
      </trkpt>
      <trkpt lat="44.95042" lon="5.74376">
        <ele>976.79998779297</ele>
        <time>2026-07-05T08:25:34.000Z</time>
      </trkpt>
      <trkpt lat="44.95041" lon="5.74374">
        <ele>977.20001220703</ele>
        <time>2026-07-05T08:25:35.000Z</time>
      </trkpt>
      <trkpt lat="44.95041" lon="5.74372">
        <ele>977.40002441406</ele>
        <time>2026-07-05T08:25:36.000Z</time>
      </trkpt>
      <trkpt lat="44.9504" lon="5.74369">
        <ele>977.79998779297</ele>
        <time>2026-07-05T08:25:37.000Z</time>
      </trkpt>
      <trkpt lat="44.9504" lon="5.74367">
        <ele>978</ele>
        <time>2026-07-05T08:25:38.000Z</time>
      </trkpt>
      <trkpt lat="44.95039" lon="5.74364">
        <ele>978.40002441406</ele>
        <time>2026-07-05T08:25:39.000Z</time>
      </trkpt>
      <trkpt lat="44.95039" lon="5.74361">
        <ele>978.79998779297</ele>
        <time>2026-07-05T08:25:40.000Z</time>
      </trkpt>
      <trkpt lat="44.95038" lon="5.74358">
        <ele>979</ele>
        <time>2026-07-05T08:25:41.000Z</time>
      </trkpt>
      <trkpt lat="44.95038" lon="5.74355">
        <ele>979.20001220703</ele>
        <time>2026-07-05T08:25:42.000Z</time>
      </trkpt>
      <trkpt lat="44.95038" lon="5.74352">
        <ele>979.40002441406</ele>
        <time>2026-07-05T08:25:43.000Z</time>
      </trkpt>
      <trkpt lat="44.95038" lon="5.74349">
        <ele>979.59997558594</ele>
        <time>2026-07-05T08:25:44.000Z</time>
      </trkpt>
      <trkpt lat="44.95038" lon="5.74346">
        <ele>979.79998779297</ele>
        <time>2026-07-05T08:25:45.000Z</time>
      </trkpt>
      <trkpt lat="44.95038" lon="5.74343">
        <ele>979.40002441406</ele>
        <time>2026-07-05T08:25:46.000Z</time>
      </trkpt>
      <trkpt lat="44.95038" lon="5.74341">
        <ele>979</ele>
        <time>2026-07-05T08:25:47.000Z</time>
      </trkpt>
      <trkpt lat="44.95038" lon="5.74338">
        <ele>978.59997558594</ele>
        <time>2026-07-05T08:25:48.000Z</time>
      </trkpt>
      <trkpt lat="44.95038" lon="5.74336">
        <ele>978.20001220703</ele>
        <time>2026-07-05T08:25:49.000Z</time>
      </trkpt>
      <trkpt lat="44.95038" lon="5.74333">
        <ele>977.59997558594</ele>
        <time>2026-07-05T08:25:50.000Z</time>
      </trkpt>
      <trkpt lat="44.95038" lon="5.7433">
        <ele>977.20001220703</ele>
        <time>2026-07-05T08:25:51.000Z</time>
      </trkpt>
      <trkpt lat="44.95039" lon="5.74328">
        <ele>977</ele>
        <time>2026-07-05T08:25:52.000Z</time>
      </trkpt>
      <trkpt lat="44.95038" lon="5.74325">
        <ele>977.20001220703</ele>
        <time>2026-07-05T08:25:53.000Z</time>
      </trkpt>
      <trkpt lat="44.95039" lon="5.74323">
        <ele>977.59997558594</ele>
        <time>2026-07-05T08:25:54.000Z</time>
      </trkpt>
      <trkpt lat="44.95039" lon="5.7432">
        <ele>977.79998779297</ele>
        <time>2026-07-05T08:25:55.000Z</time>
      </trkpt>
      <trkpt lat="44.95039" lon="5.74317">
        <ele>978.20001220703</ele>
        <time>2026-07-05T08:25:56.000Z</time>
      </trkpt>
      <trkpt lat="44.95039" lon="5.74315">
        <ele>978.40002441406</ele>
        <time>2026-07-05T08:25:57.000Z</time>
      </trkpt>
      <trkpt lat="44.9504" lon="5.74312">
        <ele>978.59997558594</ele>
        <time>2026-07-05T08:25:58.000Z</time>
      </trkpt>
      <trkpt lat="44.9504" lon="5.74309">
        <ele>979</ele>
        <time>2026-07-05T08:25:59.000Z</time>
      </trkpt>
      <trkpt lat="44.9504" lon="5.74306">
        <ele>979.20001220703</ele>
        <time>2026-07-05T08:26:00.000Z</time>
      </trkpt>
      <trkpt lat="44.95041" lon="5.74304">
        <ele>979.59997558594</ele>
        <time>2026-07-05T08:26:01.000Z</time>
      </trkpt>
      <trkpt lat="44.95041" lon="5.74301">
        <ele>979.79998779297</ele>
        <time>2026-07-05T08:26:02.000Z</time>
      </trkpt>
      <trkpt lat="44.95041" lon="5.74299">
        <ele>980.59997558594</ele>
        <time>2026-07-05T08:26:03.000Z</time>
      </trkpt>
      <trkpt lat="44.95042" lon="5.74296">
        <ele>980.79998779297</ele>
        <time>2026-07-05T08:26:04.000Z</time>
      </trkpt>
      <trkpt lat="44.95042" lon="5.74294">
        <ele>980.79998779297</ele>
        <time>2026-07-05T08:26:05.000Z</time>
      </trkpt>
      <trkpt lat="44.95042" lon="5.74292">
        <ele>981.40002441406</ele>
        <time>2026-07-05T08:26:06.000Z</time>
      </trkpt>
      <trkpt lat="44.95043" lon="5.74289">
        <ele>981.79998779297</ele>
        <time>2026-07-05T08:26:07.000Z</time>
      </trkpt>
      <trkpt lat="44.95043" lon="5.74286">
        <ele>982.20001220703</ele>
        <time>2026-07-05T08:26:08.000Z</time>
      </trkpt>
      <trkpt lat="44.95043" lon="5.74282">
        <ele>981.59997558594</ele>
        <time>2026-07-05T08:26:09.000Z</time>
      </trkpt>
      <trkpt lat="44.95044" lon="5.7428">
        <ele>981.40002441406</ele>
        <time>2026-07-05T08:26:10.000Z</time>
      </trkpt>
      <trkpt lat="44.95044" lon="5.74277">
        <ele>981.20001220703</ele>
        <time>2026-07-05T08:26:11.000Z</time>
      </trkpt>
      <trkpt lat="44.95044" lon="5.74275">
        <ele>981</ele>
        <time>2026-07-05T08:26:12.000Z</time>
      </trkpt>
      <trkpt lat="44.95044" lon="5.74272">
        <ele>980.20001220703</ele>
        <time>2026-07-05T08:26:13.000Z</time>
      </trkpt>
      <trkpt lat="44.95043" lon="5.7427">
        <ele>979.59997558594</ele>
        <time>2026-07-05T08:26:14.000Z</time>
      </trkpt>
      <trkpt lat="44.95043" lon="5.74266">
        <ele>979.40002441406</ele>
        <time>2026-07-05T08:26:15.000Z</time>
      </trkpt>
      <trkpt lat="44.95043" lon="5.74263">
        <ele>979</ele>
        <time>2026-07-05T08:26:16.000Z</time>
      </trkpt>
      <trkpt lat="44.95043" lon="5.74261">
        <ele>978.20001220703</ele>
        <time>2026-07-05T08:26:17.000Z</time>
      </trkpt>
      <trkpt lat="44.95043" lon="5.74258">
        <ele>978</ele>
        <time>2026-07-05T08:26:18.000Z</time>
      </trkpt>
      <trkpt lat="44.95043" lon="5.74255">
        <ele>977.79998779297</ele>
        <time>2026-07-05T08:26:19.000Z</time>
      </trkpt>
      <trkpt lat="44.95043" lon="5.74253">
        <ele>977.79998779297</ele>
        <time>2026-07-05T08:26:20.000Z</time>
      </trkpt>
      <trkpt lat="44.95042" lon="5.74251">
        <ele>978</ele>
        <time>2026-07-05T08:26:21.000Z</time>
      </trkpt>
      <trkpt lat="44.95041" lon="5.74248">
        <ele>978</ele>
        <time>2026-07-05T08:26:22.000Z</time>
      </trkpt>
      <trkpt lat="44.95041" lon="5.74245">
        <ele>978.59997558594</ele>
        <time>2026-07-05T08:26:23.000Z</time>
      </trkpt>
      <trkpt lat="44.95041" lon="5.74243">
        <ele>978.79998779297</ele>
        <time>2026-07-05T08:26:24.000Z</time>
      </trkpt>
      <trkpt lat="44.9504" lon="5.7424">
        <ele>979.20001220703</ele>
        <time>2026-07-05T08:26:25.000Z</time>
      </trkpt>
      <trkpt lat="44.95039" lon="5.74237">
        <ele>979.40002441406</ele>
        <time>2026-07-05T08:26:26.000Z</time>
      </trkpt>
      <trkpt lat="44.95039" lon="5.74234">
        <ele>979.59997558594</ele>
        <time>2026-07-05T08:26:27.000Z</time>
      </trkpt>
      <trkpt lat="44.95039" lon="5.7423">
        <ele>979.59997558594</ele>
        <time>2026-07-05T08:26:28.000Z</time>
      </trkpt>
      <trkpt lat="44.95039" lon="5.74228">
        <ele>979.79998779297</ele>
        <time>2026-07-05T08:26:29.000Z</time>
      </trkpt>
      <trkpt lat="44.95039" lon="5.74225">
        <ele>980</ele>
        <time>2026-07-05T08:26:30.000Z</time>
      </trkpt>
      <trkpt lat="44.95039" lon="5.74223">
        <ele>981</ele>
        <time>2026-07-05T08:26:31.000Z</time>
      </trkpt>
      <trkpt lat="44.9504" lon="5.7422">
        <ele>981.79998779297</ele>
        <time>2026-07-05T08:26:32.000Z</time>
      </trkpt>
      <trkpt lat="44.9504" lon="5.74218">
        <ele>982.59997558594</ele>
        <time>2026-07-05T08:26:33.000Z</time>
      </trkpt>
      <trkpt lat="44.9504" lon="5.74217">
        <ele>983.40002441406</ele>
        <time>2026-07-05T08:26:34.000Z</time>
      </trkpt>
      <trkpt lat="44.9504" lon="5.74215">
        <ele>984</ele>
        <time>2026-07-05T08:26:35.000Z</time>
      </trkpt>
      <trkpt lat="44.9504" lon="5.74213">
        <ele>984.79998779297</ele>
        <time>2026-07-05T08:26:36.000Z</time>
      </trkpt>
      <trkpt lat="44.9504" lon="5.74211">
        <ele>985.59997558594</ele>
        <time>2026-07-05T08:26:37.000Z</time>
      </trkpt>
      <trkpt lat="44.9504" lon="5.74208">
        <ele>985.20001220703</ele>
        <time>2026-07-05T08:26:38.000Z</time>
      </trkpt>
      <trkpt lat="44.9504" lon="5.74207">
        <ele>985.20001220703</ele>
        <time>2026-07-05T08:26:39.000Z</time>
      </trkpt>
      <trkpt lat="44.95041" lon="5.74205">
        <ele>985.20001220703</ele>
        <time>2026-07-05T08:26:40.000Z</time>
      </trkpt>
      <trkpt lat="44.95041" lon="5.74203">
        <ele>985.20001220703</ele>
        <time>2026-07-05T08:26:41.000Z</time>
      </trkpt>
      <trkpt lat="44.95042" lon="5.74201">
        <ele>985.20001220703</ele>
        <time>2026-07-05T08:26:42.000Z</time>
      </trkpt>
      <trkpt lat="44.95042" lon="5.74199">
        <ele>985.20001220703</ele>
        <time>2026-07-05T08:26:43.000Z</time>
      </trkpt>
      <trkpt lat="44.95042" lon="5.74196">
        <ele>985.40002441406</ele>
        <time>2026-07-05T08:26:44.000Z</time>
      </trkpt>
      <trkpt lat="44.95042" lon="5.74193">
        <ele>985.40002441406</ele>
        <time>2026-07-05T08:26:45.000Z</time>
      </trkpt>
      <trkpt lat="44.95043" lon="5.74191">
        <ele>985.59997558594</ele>
        <time>2026-07-05T08:26:46.000Z</time>
      </trkpt>
      <trkpt lat="44.95043" lon="5.74189">
        <ele>985.79998779297</ele>
        <time>2026-07-05T08:26:47.000Z</time>
      </trkpt>
      <trkpt lat="44.95043" lon="5.74186">
        <ele>986</ele>
        <time>2026-07-05T08:26:48.000Z</time>
      </trkpt>
      <trkpt lat="44.95044" lon="5.74184">
        <ele>986</ele>
        <time>2026-07-05T08:26:49.000Z</time>
      </trkpt>
      <trkpt lat="44.95044" lon="5.74182">
        <ele>986.20001220703</ele>
        <time>2026-07-05T08:26:50.000Z</time>
      </trkpt>
      <trkpt lat="44.95045" lon="5.74179">
        <ele>986.40002441406</ele>
        <time>2026-07-05T08:26:51.000Z</time>
      </trkpt>
      <trkpt lat="44.95045" lon="5.74176">
        <ele>986.40002441406</ele>
        <time>2026-07-05T08:26:52.000Z</time>
      </trkpt>
      <trkpt lat="44.95046" lon="5.74173">
        <ele>986.79998779297</ele>
        <time>2026-07-05T08:26:53.000Z</time>
      </trkpt>
      <trkpt lat="44.95046" lon="5.74171">
        <ele>987</ele>
        <time>2026-07-05T08:26:54.000Z</time>
      </trkpt>
      <trkpt lat="44.95046" lon="5.74168">
        <ele>987.40002441406</ele>
        <time>2026-07-05T08:26:55.000Z</time>
      </trkpt>
      <trkpt lat="44.95047" lon="5.74165">
        <ele>987.79998779297</ele>
        <time>2026-07-05T08:26:56.000Z</time>
      </trkpt>
      <trkpt lat="44.95047" lon="5.74162">
        <ele>988</ele>
        <time>2026-07-05T08:26:57.000Z</time>
      </trkpt>
      <trkpt lat="44.95047" lon="5.7416">
        <ele>988</ele>
        <time>2026-07-05T08:26:58.000Z</time>
      </trkpt>
      <trkpt lat="44.95047" lon="5.74159">
        <ele>988.20001220703</ele>
        <time>2026-07-05T08:26:59.000Z</time>
      </trkpt>
      <trkpt lat="44.95048" lon="5.74157">
        <ele>988.20001220703</ele>
        <time>2026-07-05T08:27:00.000Z</time>
      </trkpt>
      <trkpt lat="44.95048" lon="5.74156">
        <ele>988</ele>
        <time>2026-07-05T08:27:01.000Z</time>
      </trkpt>
      <trkpt lat="44.95048" lon="5.74154">
        <ele>987.79998779297</ele>
        <time>2026-07-05T08:27:02.000Z</time>
      </trkpt>
      <trkpt lat="44.95048" lon="5.74152">
        <ele>987.79998779297</ele>
        <time>2026-07-05T08:27:03.000Z</time>
      </trkpt>
      <trkpt lat="44.95049" lon="5.7415">
        <ele>987.79998779297</ele>
        <time>2026-07-05T08:27:04.000Z</time>
      </trkpt>
      <trkpt lat="44.9505" lon="5.74148">
        <ele>988</ele>
        <time>2026-07-05T08:27:05.000Z</time>
      </trkpt>
      <trkpt lat="44.9505" lon="5.74146">
        <ele>988</ele>
        <time>2026-07-05T08:27:06.000Z</time>
      </trkpt>
      <trkpt lat="44.95051" lon="5.74143">
        <ele>988</ele>
        <time>2026-07-05T08:27:07.000Z</time>
      </trkpt>
      <trkpt lat="44.95051" lon="5.74141">
        <ele>988</ele>
        <time>2026-07-05T08:27:08.000Z</time>
      </trkpt>
      <trkpt lat="44.95052" lon="5.74138">
        <ele>988</ele>
        <time>2026-07-05T08:27:09.000Z</time>
      </trkpt>
      <trkpt lat="44.95053" lon="5.74135">
        <ele>987.79998779297</ele>
        <time>2026-07-05T08:27:10.000Z</time>
      </trkpt>
      <trkpt lat="44.95054" lon="5.74132">
        <ele>987.79998779297</ele>
        <time>2026-07-05T08:27:11.000Z</time>
      </trkpt>
      <trkpt lat="44.95054" lon="5.7413">
        <ele>987.59997558594</ele>
        <time>2026-07-05T08:27:12.000Z</time>
      </trkpt>
      <trkpt lat="44.95054" lon="5.74128">
        <ele>987.59997558594</ele>
        <time>2026-07-05T08:27:13.000Z</time>
      </trkpt>
      <trkpt lat="44.95054" lon="5.74125">
        <ele>987.59997558594</ele>
        <time>2026-07-05T08:27:14.000Z</time>
      </trkpt>
      <trkpt lat="44.95055" lon="5.74123">
        <ele>987.79998779297</ele>
        <time>2026-07-05T08:27:15.000Z</time>
      </trkpt>
      <trkpt lat="44.95055" lon="5.74121">
        <ele>987.79998779297</ele>
        <time>2026-07-05T08:27:16.000Z</time>
      </trkpt>
      <trkpt lat="44.95055" lon="5.74118">
        <ele>987.79998779297</ele>
        <time>2026-07-05T08:27:17.000Z</time>
      </trkpt>
      <trkpt lat="44.95055" lon="5.74115">
        <ele>987.79998779297</ele>
        <time>2026-07-05T08:27:18.000Z</time>
      </trkpt>
      <trkpt lat="44.95055" lon="5.74113">
        <ele>988</ele>
        <time>2026-07-05T08:27:19.000Z</time>
      </trkpt>
      <trkpt lat="44.95055" lon="5.74111">
        <ele>988.20001220703</ele>
        <time>2026-07-05T08:27:20.000Z</time>
      </trkpt>
      <trkpt lat="44.95056" lon="5.74109">
        <ele>988.79998779297</ele>
        <time>2026-07-05T08:27:21.000Z</time>
      </trkpt>
      <trkpt lat="44.95056" lon="5.74106">
        <ele>989</ele>
        <time>2026-07-05T08:27:22.000Z</time>
      </trkpt>
      <trkpt lat="44.95056" lon="5.74104">
        <ele>990</ele>
        <time>2026-07-05T08:27:23.000Z</time>
      </trkpt>
      <trkpt lat="44.95056" lon="5.74102">
        <ele>990</ele>
        <time>2026-07-05T08:27:24.000Z</time>
      </trkpt>
      <trkpt lat="44.95056" lon="5.741">
        <ele>990.40002441406</ele>
        <time>2026-07-05T08:27:25.000Z</time>
      </trkpt>
      <trkpt lat="44.95057" lon="5.74098">
        <ele>990.59997558594</ele>
        <time>2026-07-05T08:27:26.000Z</time>
      </trkpt>
      <trkpt lat="44.95057" lon="5.74096">
        <ele>990.79998779297</ele>
        <time>2026-07-05T08:27:27.000Z</time>
      </trkpt>
      <trkpt lat="44.95057" lon="5.74094">
        <ele>991</ele>
        <time>2026-07-05T08:27:28.000Z</time>
      </trkpt>
      <trkpt lat="44.95057" lon="5.74091">
        <ele>991.20001220703</ele>
        <time>2026-07-05T08:27:29.000Z</time>
      </trkpt>
      <trkpt lat="44.95057" lon="5.74089">
        <ele>992.40002441406</ele>
        <time>2026-07-05T08:27:30.000Z</time>
      </trkpt>
      <trkpt lat="44.95057" lon="5.74087">
        <ele>992.79998779297</ele>
        <time>2026-07-05T08:27:31.000Z</time>
      </trkpt>
      <trkpt lat="44.95057" lon="5.74085">
        <ele>993.20001220703</ele>
        <time>2026-07-05T08:27:32.000Z</time>
      </trkpt>
      <trkpt lat="44.95057" lon="5.74083">
        <ele>993.20001220703</ele>
        <time>2026-07-05T08:27:33.000Z</time>
      </trkpt>
      <trkpt lat="44.95057" lon="5.74081">
        <ele>993.20001220703</ele>
        <time>2026-07-05T08:27:34.000Z</time>
      </trkpt>
      <trkpt lat="44.95057" lon="5.74079">
        <ele>993.20001220703</ele>
        <time>2026-07-05T08:27:35.000Z</time>
      </trkpt>
      <trkpt lat="44.95057" lon="5.74077">
        <ele>993.20001220703</ele>
        <time>2026-07-05T08:27:36.000Z</time>
      </trkpt>
      <trkpt lat="44.95057" lon="5.74074">
        <ele>993.40002441406</ele>
        <time>2026-07-05T08:27:37.000Z</time>
      </trkpt>
      <trkpt lat="44.95058" lon="5.74072">
        <ele>993.59997558594</ele>
        <time>2026-07-05T08:27:38.000Z</time>
      </trkpt>
      <trkpt lat="44.95058" lon="5.74071">
        <ele>994</ele>
        <time>2026-07-05T08:27:39.000Z</time>
      </trkpt>
      <trkpt lat="44.95058" lon="5.74069">
        <ele>994.40002441406</ele>
        <time>2026-07-05T08:27:40.000Z</time>
      </trkpt>
      <trkpt lat="44.95058" lon="5.74066">
        <ele>994.59997558594</ele>
        <time>2026-07-05T08:27:41.000Z</time>
      </trkpt>
      <trkpt lat="44.95058" lon="5.74064">
        <ele>994.79998779297</ele>
        <time>2026-07-05T08:27:42.000Z</time>
      </trkpt>
      <trkpt lat="44.95058" lon="5.74062">
        <ele>995</ele>
        <time>2026-07-05T08:27:43.000Z</time>
      </trkpt>
      <trkpt lat="44.95058" lon="5.7406">
        <ele>995.59997558594</ele>
        <time>2026-07-05T08:27:44.000Z</time>
      </trkpt>
      <trkpt lat="44.95058" lon="5.74057">
        <ele>995.79998779297</ele>
        <time>2026-07-05T08:27:45.000Z</time>
      </trkpt>
      <trkpt lat="44.95058" lon="5.74055">
        <ele>996.20001220703</ele>
        <time>2026-07-05T08:27:46.000Z</time>
      </trkpt>
      <trkpt lat="44.95058" lon="5.74052">
        <ele>996.40002441406</ele>
        <time>2026-07-05T08:27:47.000Z</time>
      </trkpt>
      <trkpt lat="44.95058" lon="5.7405">
        <ele>996.59997558594</ele>
        <time>2026-07-05T08:27:48.000Z</time>
      </trkpt>
      <trkpt lat="44.95059" lon="5.74048">
        <ele>996.79998779297</ele>
        <time>2026-07-05T08:27:49.000Z</time>
      </trkpt>
      <trkpt lat="44.95058" lon="5.74047">
        <ele>997.20001220703</ele>
        <time>2026-07-05T08:27:50.000Z</time>
      </trkpt>
      <trkpt lat="44.95058" lon="5.74045">
        <ele>997.40002441406</ele>
        <time>2026-07-05T08:27:51.000Z</time>
      </trkpt>
      <trkpt lat="44.95058" lon="5.74043">
        <ele>997.20001220703</ele>
        <time>2026-07-05T08:27:52.000Z</time>
      </trkpt>
      <trkpt lat="44.95059" lon="5.7404">
        <ele>997.20001220703</ele>
        <time>2026-07-05T08:27:53.000Z</time>
      </trkpt>
      <trkpt lat="44.95059" lon="5.74038">
        <ele>997.40002441406</ele>
        <time>2026-07-05T08:27:54.000Z</time>
      </trkpt>
      <trkpt lat="44.95059" lon="5.74037">
        <ele>997.59997558594</ele>
        <time>2026-07-05T08:27:55.000Z</time>
      </trkpt>
      <trkpt lat="44.9506" lon="5.74035">
        <ele>997.79998779297</ele>
        <time>2026-07-05T08:27:56.000Z</time>
      </trkpt>
      <trkpt lat="44.9506" lon="5.74034">
        <ele>998</ele>
        <time>2026-07-05T08:27:57.000Z</time>
      </trkpt>
      <trkpt lat="44.9506" lon="5.74032">
        <ele>998.20001220703</ele>
        <time>2026-07-05T08:27:58.000Z</time>
      </trkpt>
      <trkpt lat="44.9506" lon="5.7403">
        <ele>998.40002441406</ele>
        <time>2026-07-05T08:27:59.000Z</time>
      </trkpt>
      <trkpt lat="44.95061" lon="5.74029">
        <ele>998.59997558594</ele>
        <time>2026-07-05T08:28:00.000Z</time>
      </trkpt>
      <trkpt lat="44.95061" lon="5.74027">
        <ele>998.79998779297</ele>
        <time>2026-07-05T08:28:01.000Z</time>
      </trkpt>
      <trkpt lat="44.95061" lon="5.74025">
        <ele>999</ele>
        <time>2026-07-05T08:28:02.000Z</time>
      </trkpt>
      <trkpt lat="44.95062" lon="5.74022">
        <ele>999.20001220703</ele>
        <time>2026-07-05T08:28:03.000Z</time>
      </trkpt>
      <trkpt lat="44.95062" lon="5.7402">
        <ele>999.40002441406</ele>
        <time>2026-07-05T08:28:04.000Z</time>
      </trkpt>
      <trkpt lat="44.95062" lon="5.74019">
        <ele>999.59997558594</ele>
        <time>2026-07-05T08:28:05.000Z</time>
      </trkpt>
      <trkpt lat="44.95062" lon="5.74017">
        <ele>999.59997558594</ele>
        <time>2026-07-05T08:28:06.000Z</time>
      </trkpt>
      <trkpt lat="44.95062" lon="5.74016">
        <ele>999.59997558594</ele>
        <time>2026-07-05T08:28:07.000Z</time>
      </trkpt>
      <trkpt lat="44.95061" lon="5.74014">
        <ele>1000</ele>
        <time>2026-07-05T08:28:08.000Z</time>
      </trkpt>
      <trkpt lat="44.95061" lon="5.74012">
        <ele>1000.4000244141</ele>
        <time>2026-07-05T08:28:09.000Z</time>
      </trkpt>
      <trkpt lat="44.95061" lon="5.74011">
        <ele>1000.5999755859</ele>
        <time>2026-07-05T08:28:10.000Z</time>
      </trkpt>
      <trkpt lat="44.95061" lon="5.74009">
        <ele>1000.799987793</ele>
        <time>2026-07-05T08:28:11.000Z</time>
      </trkpt>
      <trkpt lat="44.95061" lon="5.74008">
        <ele>1001.4000244141</ele>
        <time>2026-07-05T08:28:12.000Z</time>
      </trkpt>
      <trkpt lat="44.95061" lon="5.74007">
        <ele>1001.5999755859</ele>
        <time>2026-07-05T08:28:13.000Z</time>
      </trkpt>
      <trkpt lat="44.95061" lon="5.74005">
        <ele>1001.5999755859</ele>
        <time>2026-07-05T08:28:14.000Z</time>
      </trkpt>
      <trkpt lat="44.95061" lon="5.74003">
        <ele>1002</ele>
        <time>2026-07-05T08:28:15.000Z</time>
      </trkpt>
      <trkpt lat="44.9506" lon="5.74001">
        <ele>1002</ele>
        <time>2026-07-05T08:28:16.000Z</time>
      </trkpt>
      <trkpt lat="44.9506" lon="5.74">
        <ele>1002.200012207</ele>
        <time>2026-07-05T08:28:17.000Z</time>
      </trkpt>
      <trkpt lat="44.95059" lon="5.73998">
        <ele>1002.200012207</ele>
        <time>2026-07-05T08:28:18.000Z</time>
      </trkpt>
      <trkpt lat="44.95059" lon="5.73997">
        <ele>1002.200012207</ele>
        <time>2026-07-05T08:28:19.000Z</time>
      </trkpt>
      <trkpt lat="44.95059" lon="5.73995">
        <ele>1002.200012207</ele>
        <time>2026-07-05T08:28:20.000Z</time>
      </trkpt>
      <trkpt lat="44.95058" lon="5.73994">
        <ele>1002.200012207</ele>
        <time>2026-07-05T08:28:21.000Z</time>
      </trkpt>
      <trkpt lat="44.95058" lon="5.73992">
        <ele>1002.200012207</ele>
        <time>2026-07-05T08:28:22.000Z</time>
      </trkpt>
      <trkpt lat="44.95057" lon="5.7399">
        <ele>1002.200012207</ele>
        <time>2026-07-05T08:28:23.000Z</time>
      </trkpt>
      <trkpt lat="44.95057" lon="5.73989">
        <ele>1002.4000244141</ele>
        <time>2026-07-05T08:28:24.000Z</time>
      </trkpt>
      <trkpt lat="44.95057" lon="5.73987">
        <ele>1002.4000244141</ele>
        <time>2026-07-05T08:28:25.000Z</time>
      </trkpt>
      <trkpt lat="44.95056" lon="5.73986">
        <ele>1002.5999755859</ele>
        <time>2026-07-05T08:28:26.000Z</time>
      </trkpt>
      <trkpt lat="44.95056" lon="5.73984">
        <ele>1002.5999755859</ele>
        <time>2026-07-05T08:28:27.000Z</time>
      </trkpt>
      <trkpt lat="44.95055" lon="5.73982">
        <ele>1002.4000244141</ele>
        <time>2026-07-05T08:28:28.000Z</time>
      </trkpt>
      <trkpt lat="44.95055" lon="5.7398">
        <ele>1002.4000244141</ele>
        <time>2026-07-05T08:28:29.000Z</time>
      </trkpt>
      <trkpt lat="44.95055" lon="5.73978">
        <ele>1002.4000244141</ele>
        <time>2026-07-05T08:28:30.000Z</time>
      </trkpt>
      <trkpt lat="44.95054" lon="5.73977">
        <ele>1002.200012207</ele>
        <time>2026-07-05T08:28:31.000Z</time>
      </trkpt>
      <trkpt lat="44.95054" lon="5.73976">
        <ele>1002</ele>
        <time>2026-07-05T08:28:32.000Z</time>
      </trkpt>
      <trkpt lat="44.95054" lon="5.73974">
        <ele>1002</ele>
        <time>2026-07-05T08:28:33.000Z</time>
      </trkpt>
      <trkpt lat="44.95053" lon="5.73972">
        <ele>1001.799987793</ele>
        <time>2026-07-05T08:28:34.000Z</time>
      </trkpt>
      <trkpt lat="44.95052" lon="5.7397">
        <ele>1001.799987793</ele>
        <time>2026-07-05T08:28:35.000Z</time>
      </trkpt>
      <trkpt lat="44.95052" lon="5.73968">
        <ele>1001.799987793</ele>
        <time>2026-07-05T08:28:36.000Z</time>
      </trkpt>
      <trkpt lat="44.95051" lon="5.73966">
        <ele>1002</ele>
        <time>2026-07-05T08:28:37.000Z</time>
      </trkpt>
      <trkpt lat="44.95051" lon="5.73965">
        <ele>1002</ele>
        <time>2026-07-05T08:28:38.000Z</time>
      </trkpt>
      <trkpt lat="44.95051" lon="5.73963">
        <ele>1002.4000244141</ele>
        <time>2026-07-05T08:28:39.000Z</time>
      </trkpt>
      <trkpt lat="44.95051" lon="5.73962">
        <ele>1002.799987793</ele>
        <time>2026-07-05T08:28:40.000Z</time>
      </trkpt>
      <trkpt lat="44.95051" lon="5.7396">
        <ele>1003</ele>
        <time>2026-07-05T08:28:41.000Z</time>
      </trkpt>
      <trkpt lat="44.95052" lon="5.73958">
        <ele>1003.4000244141</ele>
        <time>2026-07-05T08:28:42.000Z</time>
      </trkpt>
      <trkpt lat="44.95051" lon="5.73957">
        <ele>1004</ele>
        <time>2026-07-05T08:28:43.000Z</time>
      </trkpt>
      <trkpt lat="44.95051" lon="5.73956">
        <ele>1004.200012207</ele>
        <time>2026-07-05T08:28:44.000Z</time>
      </trkpt>
      <trkpt lat="44.95051" lon="5.73954">
        <ele>1004.799987793</ele>
        <time>2026-07-05T08:28:45.000Z</time>
      </trkpt>
      <trkpt lat="44.9505" lon="5.73952">
        <ele>1005.200012207</ele>
        <time>2026-07-05T08:28:46.000Z</time>
      </trkpt>
      <trkpt lat="44.9505" lon="5.7395">
        <ele>1005.4000244141</ele>
        <time>2026-07-05T08:28:47.000Z</time>
      </trkpt>
      <trkpt lat="44.95049" lon="5.73948">
        <ele>1005.5999755859</ele>
        <time>2026-07-05T08:28:48.000Z</time>
      </trkpt>
      <trkpt lat="44.95049" lon="5.73946">
        <ele>1006.200012207</ele>
        <time>2026-07-05T08:28:49.000Z</time>
      </trkpt>
      <trkpt lat="44.95049" lon="5.73944">
        <ele>1006.4000244141</ele>
        <time>2026-07-05T08:28:50.000Z</time>
      </trkpt>
      <trkpt lat="44.95049" lon="5.73942">
        <ele>1006.799987793</ele>
        <time>2026-07-05T08:28:51.000Z</time>
      </trkpt>
      <trkpt lat="44.95049" lon="5.7394">
        <ele>1007.200012207</ele>
        <time>2026-07-05T08:28:52.000Z</time>
      </trkpt>
      <trkpt lat="44.95049" lon="5.73938">
        <ele>1007.5999755859</ele>
        <time>2026-07-05T08:28:53.000Z</time>
      </trkpt>
      <trkpt lat="44.95048" lon="5.73936">
        <ele>1007.799987793</ele>
        <time>2026-07-05T08:28:54.000Z</time>
      </trkpt>
      <trkpt lat="44.95048" lon="5.73934">
        <ele>1008.200012207</ele>
        <time>2026-07-05T08:28:55.000Z</time>
      </trkpt>
      <trkpt lat="44.95048" lon="5.73932">
        <ele>1008.4000244141</ele>
        <time>2026-07-05T08:28:56.000Z</time>
      </trkpt>
      <trkpt lat="44.95048" lon="5.7393">
        <ele>1008.5999755859</ele>
        <time>2026-07-05T08:28:57.000Z</time>
      </trkpt>
      <trkpt lat="44.95048" lon="5.73929">
        <ele>1008.5999755859</ele>
        <time>2026-07-05T08:28:58.000Z</time>
      </trkpt>
      <trkpt lat="44.95048" lon="5.73927">
        <ele>1008.799987793</ele>
        <time>2026-07-05T08:28:59.000Z</time>
      </trkpt>
      <trkpt lat="44.95048" lon="5.73926">
        <ele>1009</ele>
        <time>2026-07-05T08:29:00.000Z</time>
      </trkpt>
      <trkpt lat="44.95048" lon="5.73924">
        <ele>1009.200012207</ele>
        <time>2026-07-05T08:29:01.000Z</time>
      </trkpt>
      <trkpt lat="44.95048" lon="5.73923">
        <ele>1009.5999755859</ele>
        <time>2026-07-05T08:29:02.000Z</time>
      </trkpt>
      <trkpt lat="44.95049" lon="5.73922">
        <ele>1010</ele>
        <time>2026-07-05T08:29:03.000Z</time>
      </trkpt>
      <trkpt lat="44.95049" lon="5.7392">
        <ele>1010</ele>
        <time>2026-07-05T08:29:04.000Z</time>
      </trkpt>
      <trkpt lat="44.95049" lon="5.73918">
        <ele>1010.200012207</ele>
        <time>2026-07-05T08:29:05.000Z</time>
      </trkpt>
      <trkpt lat="44.9505" lon="5.73917">
        <ele>1010.4000244141</ele>
        <time>2026-07-05T08:29:06.000Z</time>
      </trkpt>
      <trkpt lat="44.9505" lon="5.73915">
        <ele>1010.4000244141</ele>
        <time>2026-07-05T08:29:07.000Z</time>
      </trkpt>
      <trkpt lat="44.95051" lon="5.73914">
        <ele>1010.4000244141</ele>
        <time>2026-07-05T08:29:08.000Z</time>
      </trkpt>
      <trkpt lat="44.95051" lon="5.73912">
        <ele>1010.4000244141</ele>
        <time>2026-07-05T08:29:09.000Z</time>
      </trkpt>
      <trkpt lat="44.95051" lon="5.7391">
        <ele>1010.4000244141</ele>
        <time>2026-07-05T08:29:10.000Z</time>
      </trkpt>
      <trkpt lat="44.95052" lon="5.73908">
        <ele>1010.4000244141</ele>
        <time>2026-07-05T08:29:11.000Z</time>
      </trkpt>
      <trkpt lat="44.95052" lon="5.73906">
        <ele>1010.4000244141</ele>
        <time>2026-07-05T08:29:12.000Z</time>
      </trkpt>
      <trkpt lat="44.95052" lon="5.73905">
        <ele>1010.5999755859</ele>
        <time>2026-07-05T08:29:13.000Z</time>
      </trkpt>
      <trkpt lat="44.95052" lon="5.73903">
        <ele>1011</ele>
        <time>2026-07-05T08:29:14.000Z</time>
      </trkpt>
      <trkpt lat="44.95052" lon="5.73902">
        <ele>1011.200012207</ele>
        <time>2026-07-05T08:29:15.000Z</time>
      </trkpt>
      <trkpt lat="44.95052" lon="5.73901">
        <ele>1012</ele>
        <time>2026-07-05T08:29:16.000Z</time>
      </trkpt>
      <trkpt lat="44.95052" lon="5.73899">
        <ele>1012.4000244141</ele>
        <time>2026-07-05T08:29:17.000Z</time>
      </trkpt>
      <trkpt lat="44.95051" lon="5.73898">
        <ele>1012.5999755859</ele>
        <time>2026-07-05T08:29:18.000Z</time>
      </trkpt>
      <trkpt lat="44.95051" lon="5.73897">
        <ele>1012.5999755859</ele>
        <time>2026-07-05T08:29:19.000Z</time>
      </trkpt>
      <trkpt lat="44.95051" lon="5.73896">
        <ele>1012.799987793</ele>
        <time>2026-07-05T08:29:20.000Z</time>
      </trkpt>
      <trkpt lat="44.9505" lon="5.73895">
        <ele>1013.200012207</ele>
        <time>2026-07-05T08:29:21.000Z</time>
      </trkpt>
      <trkpt lat="44.9505" lon="5.73893">
        <ele>1013.200012207</ele>
        <time>2026-07-05T08:29:22.000Z</time>
      </trkpt>
      <trkpt lat="44.9505" lon="5.73892">
        <ele>1013.4000244141</ele>
        <time>2026-07-05T08:29:23.000Z</time>
      </trkpt>
      <trkpt lat="44.95049" lon="5.73891">
        <ele>1013.5999755859</ele>
        <time>2026-07-05T08:29:24.000Z</time>
      </trkpt>
      <trkpt lat="44.95049" lon="5.73889">
        <ele>1013.799987793</ele>
        <time>2026-07-05T08:29:25.000Z</time>
      </trkpt>
      <trkpt lat="44.95049" lon="5.73888">
        <ele>1013.799987793</ele>
        <time>2026-07-05T08:29:26.000Z</time>
      </trkpt>
      <trkpt lat="44.95048" lon="5.73887">
        <ele>1014</ele>
        <time>2026-07-05T08:29:27.000Z</time>
      </trkpt>
      <trkpt lat="44.95048" lon="5.73885">
        <ele>1014.200012207</ele>
        <time>2026-07-05T08:29:28.000Z</time>
      </trkpt>
      <trkpt lat="44.95048" lon="5.73883">
        <ele>1014.200012207</ele>
        <time>2026-07-05T08:29:29.000Z</time>
      </trkpt>
      <trkpt lat="44.95048" lon="5.73882">
        <ele>1014.200012207</ele>
        <time>2026-07-05T08:29:30.000Z</time>
      </trkpt>
      <trkpt lat="44.95047" lon="5.73881">
        <ele>1014.200012207</ele>
        <time>2026-07-05T08:29:31.000Z</time>
      </trkpt>
      <trkpt lat="44.95047" lon="5.73879">
        <ele>1014.4000244141</ele>
        <time>2026-07-05T08:29:32.000Z</time>
      </trkpt>
      <trkpt lat="44.95046" lon="5.73877">
        <ele>1014.4000244141</ele>
        <time>2026-07-05T08:29:33.000Z</time>
      </trkpt>
      <trkpt lat="44.95046" lon="5.73876">
        <ele>1014.5999755859</ele>
        <time>2026-07-05T08:29:34.000Z</time>
      </trkpt>
      <trkpt lat="44.95045" lon="5.73874">
        <ele>1015</ele>
        <time>2026-07-05T08:29:35.000Z</time>
      </trkpt>
      <trkpt lat="44.95044" lon="5.73873">
        <ele>1015.200012207</ele>
        <time>2026-07-05T08:29:36.000Z</time>
      </trkpt>
      <trkpt lat="44.95044" lon="5.73872">
        <ele>1015.4000244141</ele>
        <time>2026-07-05T08:29:37.000Z</time>
      </trkpt>
      <trkpt lat="44.95043" lon="5.73871">
        <ele>1015.5999755859</ele>
        <time>2026-07-05T08:29:38.000Z</time>
      </trkpt>
      <trkpt lat="44.95042" lon="5.73869">
        <ele>1016</ele>
        <time>2026-07-05T08:29:39.000Z</time>
      </trkpt>
      <trkpt lat="44.95042" lon="5.73869">
        <ele>1016.200012207</ele>
        <time>2026-07-05T08:29:40.000Z</time>
      </trkpt>
      <trkpt lat="44.9504" lon="5.73868">
        <ele>1016.4000244141</ele>
        <time>2026-07-05T08:29:41.000Z</time>
      </trkpt>
      <trkpt lat="44.9504" lon="5.73867">
        <ele>1016.799987793</ele>
        <time>2026-07-05T08:29:42.000Z</time>
      </trkpt>
      <trkpt lat="44.95039" lon="5.73866">
        <ele>1017.4000244141</ele>
        <time>2026-07-05T08:29:43.000Z</time>
      </trkpt>
      <trkpt lat="44.95039" lon="5.73865">
        <ele>1017.4000244141</ele>
        <time>2026-07-05T08:29:44.000Z</time>
      </trkpt>
      <trkpt lat="44.95038" lon="5.73864">
        <ele>1017.799987793</ele>
        <time>2026-07-05T08:29:45.000Z</time>
      </trkpt>
      <trkpt lat="44.95037" lon="5.73863">
        <ele>1018.200012207</ele>
        <time>2026-07-05T08:29:46.000Z</time>
      </trkpt>
      <trkpt lat="44.95036" lon="5.73862">
        <ele>1018.200012207</ele>
        <time>2026-07-05T08:29:47.000Z</time>
      </trkpt>
      <trkpt lat="44.95036" lon="5.73861">
        <ele>1018.5999755859</ele>
        <time>2026-07-05T08:29:48.000Z</time>
      </trkpt>
      <trkpt lat="44.95036" lon="5.73859">
        <ele>1019</ele>
        <time>2026-07-05T08:29:49.000Z</time>
      </trkpt>
      <trkpt lat="44.95036" lon="5.73858">
        <ele>1019.4000244141</ele>
        <time>2026-07-05T08:29:50.000Z</time>
      </trkpt>
      <trkpt lat="44.95036" lon="5.73856">
        <ele>1019.4000244141</ele>
        <time>2026-07-05T08:29:51.000Z</time>
      </trkpt>
      <trkpt lat="44.95035" lon="5.73855">
        <ele>1019.4000244141</ele>
        <time>2026-07-05T08:29:52.000Z</time>
      </trkpt>
      <trkpt lat="44.95034" lon="5.73853">
        <ele>1019.4000244141</ele>
        <time>2026-07-05T08:29:53.000Z</time>
      </trkpt>
      <trkpt lat="44.95033" lon="5.73852">
        <ele>1019.4000244141</ele>
        <time>2026-07-05T08:29:54.000Z</time>
      </trkpt>
      <trkpt lat="44.95033" lon="5.7385">
        <ele>1019.4000244141</ele>
        <time>2026-07-05T08:29:55.000Z</time>
      </trkpt>
      <trkpt lat="44.95032" lon="5.73849">
        <ele>1019.5999755859</ele>
        <time>2026-07-05T08:29:56.000Z</time>
      </trkpt>
      <trkpt lat="44.9503" lon="5.73848">
        <ele>1019.799987793</ele>
        <time>2026-07-05T08:29:57.000Z</time>
      </trkpt>
      <trkpt lat="44.95029" lon="5.73848">
        <ele>1020</ele>
        <time>2026-07-05T08:29:58.000Z</time>
      </trkpt>
      <trkpt lat="44.95028" lon="5.73848">
        <ele>1020.4000244141</ele>
        <time>2026-07-05T08:29:59.000Z</time>
      </trkpt>
      <trkpt lat="44.95028" lon="5.73848">
        <ele>1020.4000244141</ele>
        <time>2026-07-05T08:30:00.000Z</time>
      </trkpt>
      <trkpt lat="44.95027" lon="5.73848">
        <ele>1020.5999755859</ele>
        <time>2026-07-05T08:30:01.000Z</time>
      </trkpt>
      <trkpt lat="44.95026" lon="5.73848">
        <ele>1020.5999755859</ele>
        <time>2026-07-05T08:30:02.000Z</time>
      </trkpt>
      <trkpt lat="44.95025" lon="5.73849">
        <ele>1020.4000244141</ele>
        <time>2026-07-05T08:30:03.000Z</time>
      </trkpt>
      <trkpt lat="44.95025" lon="5.73849">
        <ele>1020.4000244141</ele>
        <time>2026-07-05T08:30:04.000Z</time>
      </trkpt>
      <trkpt lat="44.95024" lon="5.7385">
        <ele>1020.4000244141</ele>
        <time>2026-07-05T08:30:05.000Z</time>
      </trkpt>
      <trkpt lat="44.95023" lon="5.73851">
        <ele>1020.5999755859</ele>
        <time>2026-07-05T08:30:06.000Z</time>
      </trkpt>
      <trkpt lat="44.95022" lon="5.73852">
        <ele>1020.5999755859</ele>
        <time>2026-07-05T08:30:07.000Z</time>
      </trkpt>
      <trkpt lat="44.95021" lon="5.73853">
        <ele>1020.799987793</ele>
        <time>2026-07-05T08:30:08.000Z</time>
      </trkpt>
      <trkpt lat="44.9502" lon="5.73855">
        <ele>1021.200012207</ele>
        <time>2026-07-05T08:30:09.000Z</time>
      </trkpt>
      <trkpt lat="44.95019" lon="5.73855">
        <ele>1021.4000244141</ele>
        <time>2026-07-05T08:30:10.000Z</time>
      </trkpt>
      <trkpt lat="44.95018" lon="5.73856">
        <ele>1021.5999755859</ele>
        <time>2026-07-05T08:30:11.000Z</time>
      </trkpt>
      <trkpt lat="44.95018" lon="5.73857">
        <ele>1022</ele>
        <time>2026-07-05T08:30:12.000Z</time>
      </trkpt>
      <trkpt lat="44.95017" lon="5.73858">
        <ele>1022.200012207</ele>
        <time>2026-07-05T08:30:13.000Z</time>
      </trkpt>
      <trkpt lat="44.95016" lon="5.73858">
        <ele>1022.4000244141</ele>
        <time>2026-07-05T08:30:14.000Z</time>
      </trkpt>
      <trkpt lat="44.95015" lon="5.73859">
        <ele>1022.4000244141</ele>
        <time>2026-07-05T08:30:15.000Z</time>
      </trkpt>
      <trkpt lat="44.95014" lon="5.7386">
        <ele>1022.5999755859</ele>
        <time>2026-07-05T08:30:16.000Z</time>
      </trkpt>
      <trkpt lat="44.95014" lon="5.7386">
        <ele>1023.200012207</ele>
        <time>2026-07-05T08:30:17.000Z</time>
      </trkpt>
      <trkpt lat="44.95013" lon="5.7386">
        <ele>1023.4000244141</ele>
        <time>2026-07-05T08:30:18.000Z</time>
      </trkpt>
      <trkpt lat="44.95012" lon="5.73861">
        <ele>1023.5999755859</ele>
        <time>2026-07-05T08:30:19.000Z</time>
      </trkpt>
      <trkpt lat="44.95011" lon="5.73862">
        <ele>1024</ele>
        <time>2026-07-05T08:30:20.000Z</time>
      </trkpt>
      <trkpt lat="44.9501" lon="5.73863">
        <ele>1024.4000244141</ele>
        <time>2026-07-05T08:30:21.000Z</time>
      </trkpt>
      <trkpt lat="44.95009" lon="5.73864">
        <ele>1024.5999755859</ele>
        <time>2026-07-05T08:30:22.000Z</time>
      </trkpt>
      <trkpt lat="44.95008" lon="5.73864">
        <ele>1024.8000488281</ele>
        <time>2026-07-05T08:30:23.000Z</time>
      </trkpt>
      <trkpt lat="44.95007" lon="5.73865">
        <ele>1025.1999511719</ele>
        <time>2026-07-05T08:30:24.000Z</time>
      </trkpt>
      <trkpt lat="44.95006" lon="5.73865">
        <ele>1025.4000244141</ele>
        <time>2026-07-05T08:30:25.000Z</time>
      </trkpt>
      <trkpt lat="44.95005" lon="5.73865">
        <ele>1025.5999755859</ele>
        <time>2026-07-05T08:30:26.000Z</time>
      </trkpt>
      <trkpt lat="44.95004" lon="5.73866">
        <ele>1025.5999755859</ele>
        <time>2026-07-05T08:30:27.000Z</time>
      </trkpt>
      <trkpt lat="44.95003" lon="5.73867">
        <ele>1025.8000488281</ele>
        <time>2026-07-05T08:30:28.000Z</time>
      </trkpt>
      <trkpt lat="44.95003" lon="5.73867">
        <ele>1025.8000488281</ele>
        <time>2026-07-05T08:30:29.000Z</time>
      </trkpt>
      <trkpt lat="44.95002" lon="5.73868">
        <ele>1026</ele>
        <time>2026-07-05T08:30:30.000Z</time>
      </trkpt>
      <trkpt lat="44.95001" lon="5.73868">
        <ele>1026.1999511719</ele>
        <time>2026-07-05T08:30:31.000Z</time>
      </trkpt>
      <trkpt lat="44.95001" lon="5.73869">
        <ele>1026.1999511719</ele>
        <time>2026-07-05T08:30:32.000Z</time>
      </trkpt>
      <trkpt lat="44.95" lon="5.73869">
        <ele>1026.4000244141</ele>
        <time>2026-07-05T08:30:33.000Z</time>
      </trkpt>
      <trkpt lat="44.95" lon="5.7387">
        <ele>1026.5999755859</ele>
        <time>2026-07-05T08:30:34.000Z</time>
      </trkpt>
      <trkpt lat="44.94999" lon="5.73871">
        <ele>1026.8000488281</ele>
        <time>2026-07-05T08:30:35.000Z</time>
      </trkpt>
      <trkpt lat="44.94998" lon="5.73871">
        <ele>1027</ele>
        <time>2026-07-05T08:30:36.000Z</time>
      </trkpt>
      <trkpt lat="44.94997" lon="5.73872">
        <ele>1027.4000244141</ele>
        <time>2026-07-05T08:30:37.000Z</time>
      </trkpt>
      <trkpt lat="44.94996" lon="5.73872">
        <ele>1027.8000488281</ele>
        <time>2026-07-05T08:30:38.000Z</time>
      </trkpt>
      <trkpt lat="44.94995" lon="5.73873">
        <ele>1028.1999511719</ele>
        <time>2026-07-05T08:30:39.000Z</time>
      </trkpt>
      <trkpt lat="44.94994" lon="5.73874">
        <ele>1028.4000244141</ele>
        <time>2026-07-05T08:30:40.000Z</time>
      </trkpt>
      <trkpt lat="44.94993" lon="5.73874">
        <ele>1028.8000488281</ele>
        <time>2026-07-05T08:30:41.000Z</time>
      </trkpt>
      <trkpt lat="44.94992" lon="5.73875">
        <ele>1029</ele>
        <time>2026-07-05T08:30:42.000Z</time>
      </trkpt>
      <trkpt lat="44.94992" lon="5.73875">
        <ele>1029.1999511719</ele>
        <time>2026-07-05T08:30:43.000Z</time>
      </trkpt>
      <trkpt lat="44.94991" lon="5.73875">
        <ele>1029.4000244141</ele>
        <time>2026-07-05T08:30:44.000Z</time>
      </trkpt>
      <trkpt lat="44.94991" lon="5.73875">
        <ele>1029.4000244141</ele>
        <time>2026-07-05T08:30:45.000Z</time>
      </trkpt>
      <trkpt lat="44.94989" lon="5.73875">
        <ele>1029.8000488281</ele>
        <time>2026-07-05T08:30:46.000Z</time>
      </trkpt>
      <trkpt lat="44.94988" lon="5.73875">
        <ele>1030.1999511719</ele>
        <time>2026-07-05T08:30:47.000Z</time>
      </trkpt>
      <trkpt lat="44.94987" lon="5.73876">
        <ele>1030.4000244141</ele>
        <time>2026-07-05T08:30:48.000Z</time>
      </trkpt>
      <trkpt lat="44.94986" lon="5.73876">
        <ele>1030.5999755859</ele>
        <time>2026-07-05T08:30:49.000Z</time>
      </trkpt>
      <trkpt lat="44.94985" lon="5.73876">
        <ele>1030.8000488281</ele>
        <time>2026-07-05T08:30:50.000Z</time>
      </trkpt>
      <trkpt lat="44.94984" lon="5.73877">
        <ele>1031</ele>
        <time>2026-07-05T08:30:51.000Z</time>
      </trkpt>
      <trkpt lat="44.94983" lon="5.73878">
        <ele>1031</ele>
        <time>2026-07-05T08:30:52.000Z</time>
      </trkpt>
      <trkpt lat="44.94982" lon="5.73878">
        <ele>1031</ele>
        <time>2026-07-05T08:30:53.000Z</time>
      </trkpt>
      <trkpt lat="44.94981" lon="5.73879">
        <ele>1031</ele>
        <time>2026-07-05T08:30:54.000Z</time>
      </trkpt>
      <trkpt lat="44.9498" lon="5.73879">
        <ele>1030.8000488281</ele>
        <time>2026-07-05T08:30:55.000Z</time>
      </trkpt>
      <trkpt lat="44.94979" lon="5.73879">
        <ele>1030.8000488281</ele>
        <time>2026-07-05T08:30:56.000Z</time>
      </trkpt>
      <trkpt lat="44.94979" lon="5.73879">
        <ele>1031</ele>
        <time>2026-07-05T08:30:57.000Z</time>
      </trkpt>
      <trkpt lat="44.94978" lon="5.7388">
        <ele>1031.1999511719</ele>
        <time>2026-07-05T08:30:58.000Z</time>
      </trkpt>
      <trkpt lat="44.94977" lon="5.7388">
        <ele>1031.4000244141</ele>
        <time>2026-07-05T08:30:59.000Z</time>
      </trkpt>
      <trkpt lat="44.94976" lon="5.7388">
        <ele>1032</ele>
        <time>2026-07-05T08:31:00.000Z</time>
      </trkpt>
      <trkpt lat="44.94976" lon="5.73881">
        <ele>1032.1999511719</ele>
        <time>2026-07-05T08:31:01.000Z</time>
      </trkpt>
      <trkpt lat="44.94975" lon="5.73881">
        <ele>1032.4000244141</ele>
        <time>2026-07-05T08:31:02.000Z</time>
      </trkpt>
      <trkpt lat="44.94974" lon="5.73881">
        <ele>1032.5999755859</ele>
        <time>2026-07-05T08:31:03.000Z</time>
      </trkpt>
      <trkpt lat="44.94973" lon="5.73881">
        <ele>1032.5999755859</ele>
        <time>2026-07-05T08:31:04.000Z</time>
      </trkpt>
      <trkpt lat="44.94972" lon="5.73881">
        <ele>1032.5999755859</ele>
        <time>2026-07-05T08:31:05.000Z</time>
      </trkpt>
      <trkpt lat="44.94971" lon="5.73881">
        <ele>1032.5999755859</ele>
        <time>2026-07-05T08:31:06.000Z</time>
      </trkpt>
      <trkpt lat="44.94971" lon="5.73882">
        <ele>1032.8000488281</ele>
        <time>2026-07-05T08:31:07.000Z</time>
      </trkpt>
      <trkpt lat="44.9497" lon="5.73882">
        <ele>1033</ele>
        <time>2026-07-05T08:31:08.000Z</time>
      </trkpt>
      <trkpt lat="44.94969" lon="5.73882">
        <ele>1033.1999511719</ele>
        <time>2026-07-05T08:31:09.000Z</time>
      </trkpt>
      <trkpt lat="44.94968" lon="5.73883">
        <ele>1033.8000488281</ele>
        <time>2026-07-05T08:31:10.000Z</time>
      </trkpt>
      <trkpt lat="44.94967" lon="5.73883">
        <ele>1034</ele>
        <time>2026-07-05T08:31:11.000Z</time>
      </trkpt>
      <trkpt lat="44.94966" lon="5.73884">
        <ele>1034.1999511719</ele>
        <time>2026-07-05T08:31:12.000Z</time>
      </trkpt>
      <trkpt lat="44.94965" lon="5.73884">
        <ele>1034.5999755859</ele>
        <time>2026-07-05T08:31:13.000Z</time>
      </trkpt>
      <trkpt lat="44.94964" lon="5.73885">
        <ele>1034.8000488281</ele>
        <time>2026-07-05T08:31:14.000Z</time>
      </trkpt>
      <trkpt lat="44.94963" lon="5.73886">
        <ele>1035.1999511719</ele>
        <time>2026-07-05T08:31:15.000Z</time>
      </trkpt>
      <trkpt lat="44.94962" lon="5.73887">
        <ele>1035.5999755859</ele>
        <time>2026-07-05T08:31:16.000Z</time>
      </trkpt>
      <trkpt lat="44.94961" lon="5.73888">
        <ele>1035.5999755859</ele>
        <time>2026-07-05T08:31:17.000Z</time>
      </trkpt>
      <trkpt lat="44.94961" lon="5.73889">
        <ele>1035.8000488281</ele>
        <time>2026-07-05T08:31:18.000Z</time>
      </trkpt>
      <trkpt lat="44.9496" lon="5.73889">
        <ele>1035.8000488281</ele>
        <time>2026-07-05T08:31:19.000Z</time>
      </trkpt>
      <trkpt lat="44.9496" lon="5.7389">
        <ele>1036</ele>
        <time>2026-07-05T08:31:20.000Z</time>
      </trkpt>
      <trkpt lat="44.94959" lon="5.73891">
        <ele>1036</ele>
        <time>2026-07-05T08:31:21.000Z</time>
      </trkpt>
      <trkpt lat="44.94959" lon="5.73891">
        <ele>1036</ele>
        <time>2026-07-05T08:31:22.000Z</time>
      </trkpt>
      <trkpt lat="44.94958" lon="5.73892">
        <ele>1036.1999511719</ele>
        <time>2026-07-05T08:31:23.000Z</time>
      </trkpt>
      <trkpt lat="44.94957" lon="5.73892">
        <ele>1036.1999511719</ele>
        <time>2026-07-05T08:31:24.000Z</time>
      </trkpt>
      <trkpt lat="44.94956" lon="5.73892">
        <ele>1036.4000244141</ele>
        <time>2026-07-05T08:31:25.000Z</time>
      </trkpt>
      <trkpt lat="44.94956" lon="5.73893">
        <ele>1036.5999755859</ele>
        <time>2026-07-05T08:31:26.000Z</time>
      </trkpt>
      <trkpt lat="44.94955" lon="5.73893">
        <ele>1036.8000488281</ele>
        <time>2026-07-05T08:31:27.000Z</time>
      </trkpt>
      <trkpt lat="44.94955" lon="5.73894">
        <ele>1037</ele>
        <time>2026-07-05T08:31:28.000Z</time>
      </trkpt>
      <trkpt lat="44.94953" lon="5.73894">
        <ele>1037.1999511719</ele>
        <time>2026-07-05T08:31:29.000Z</time>
      </trkpt>
      <trkpt lat="44.94953" lon="5.73895">
        <ele>1037.1999511719</ele>
        <time>2026-07-05T08:31:30.000Z</time>
      </trkpt>
      <trkpt lat="44.94952" lon="5.73895">
        <ele>1037.5999755859</ele>
        <time>2026-07-05T08:31:31.000Z</time>
      </trkpt>
      <trkpt lat="44.94951" lon="5.73896">
        <ele>1038</ele>
        <time>2026-07-05T08:31:32.000Z</time>
      </trkpt>
      <trkpt lat="44.9495" lon="5.73896">
        <ele>1038.1999511719</ele>
        <time>2026-07-05T08:31:33.000Z</time>
      </trkpt>
      <trkpt lat="44.94949" lon="5.73897">
        <ele>1038.4000244141</ele>
        <time>2026-07-05T08:31:34.000Z</time>
      </trkpt>
      <trkpt lat="44.94949" lon="5.73897">
        <ele>1038.4000244141</ele>
        <time>2026-07-05T08:31:35.000Z</time>
      </trkpt>
      <trkpt lat="44.94948" lon="5.73897">
        <ele>1038.5999755859</ele>
        <time>2026-07-05T08:31:36.000Z</time>
      </trkpt>
      <trkpt lat="44.94948" lon="5.73897">
        <ele>1038.8000488281</ele>
        <time>2026-07-05T08:31:37.000Z</time>
      </trkpt>
      <trkpt lat="44.94947" lon="5.73898">
        <ele>1038.5999755859</ele>
        <time>2026-07-05T08:31:38.000Z</time>
      </trkpt>
      <trkpt lat="44.94946" lon="5.73898">
        <ele>1038.5999755859</ele>
        <time>2026-07-05T08:31:39.000Z</time>
      </trkpt>
      <trkpt lat="44.94945" lon="5.73899">
        <ele>1038.4000244141</ele>
        <time>2026-07-05T08:31:40.000Z</time>
      </trkpt>
      <trkpt lat="44.94944" lon="5.73899">
        <ele>1038.4000244141</ele>
        <time>2026-07-05T08:31:41.000Z</time>
      </trkpt>
      <trkpt lat="44.94943" lon="5.739">
        <ele>1038.1999511719</ele>
        <time>2026-07-05T08:31:42.000Z</time>
      </trkpt>
      <trkpt lat="44.94942" lon="5.73901">
        <ele>1038.1999511719</ele>
        <time>2026-07-05T08:31:43.000Z</time>
      </trkpt>
      <trkpt lat="44.94941" lon="5.73902">
        <ele>1038.4000244141</ele>
        <time>2026-07-05T08:31:44.000Z</time>
      </trkpt>
      <trkpt lat="44.94941" lon="5.73902">
        <ele>1038.8000488281</ele>
        <time>2026-07-05T08:31:45.000Z</time>
      </trkpt>
      <trkpt lat="44.94939" lon="5.73903">
        <ele>1039.1999511719</ele>
        <time>2026-07-05T08:31:46.000Z</time>
      </trkpt>
      <trkpt lat="44.94939" lon="5.73903">
        <ele>1039.5999755859</ele>
        <time>2026-07-05T08:31:47.000Z</time>
      </trkpt>
      <trkpt lat="44.94938" lon="5.73904">
        <ele>1040</ele>
        <time>2026-07-05T08:31:48.000Z</time>
      </trkpt>
      <trkpt lat="44.94937" lon="5.73905">
        <ele>1040.1999511719</ele>
        <time>2026-07-05T08:31:49.000Z</time>
      </trkpt>
      <trkpt lat="44.94937" lon="5.73905">
        <ele>1040.4000244141</ele>
        <time>2026-07-05T08:31:50.000Z</time>
      </trkpt>
      <trkpt lat="44.94936" lon="5.73906">
        <ele>1040.5999755859</ele>
        <time>2026-07-05T08:31:51.000Z</time>
      </trkpt>
      <trkpt lat="44.94935" lon="5.73907">
        <ele>1040.8000488281</ele>
        <time>2026-07-05T08:31:52.000Z</time>
      </trkpt>
      <trkpt lat="44.94935" lon="5.73908">
        <ele>1041</ele>
        <time>2026-07-05T08:31:53.000Z</time>
      </trkpt>
      <trkpt lat="44.94934" lon="5.73908">
        <ele>1041.1999511719</ele>
        <time>2026-07-05T08:31:54.000Z</time>
      </trkpt>
      <trkpt lat="44.94934" lon="5.73908">
        <ele>1041.4000244141</ele>
        <time>2026-07-05T08:31:55.000Z</time>
      </trkpt>
      <trkpt lat="44.94933" lon="5.73909">
        <ele>1041.5999755859</ele>
        <time>2026-07-05T08:31:56.000Z</time>
      </trkpt>
      <trkpt lat="44.94932" lon="5.7391">
        <ele>1041.8000488281</ele>
        <time>2026-07-05T08:31:57.000Z</time>
      </trkpt>
      <trkpt lat="44.94931" lon="5.7391">
        <ele>1043</ele>
        <time>2026-07-05T08:31:58.000Z</time>
      </trkpt>
      <trkpt lat="44.94931" lon="5.73911">
        <ele>1043.1999511719</ele>
        <time>2026-07-05T08:31:59.000Z</time>
      </trkpt>
      <trkpt lat="44.9493" lon="5.73911">
        <ele>1043.8000488281</ele>
        <time>2026-07-05T08:32:00.000Z</time>
      </trkpt>
      <trkpt lat="44.9493" lon="5.73912">
        <ele>1044.1999511719</ele>
        <time>2026-07-05T08:32:01.000Z</time>
      </trkpt>
      <trkpt lat="44.94929" lon="5.73912">
        <ele>1044.4000244141</ele>
        <time>2026-07-05T08:32:02.000Z</time>
      </trkpt>
      <trkpt lat="44.94928" lon="5.73913">
        <ele>1044.8000488281</ele>
        <time>2026-07-05T08:32:03.000Z</time>
      </trkpt>
      <trkpt lat="44.94927" lon="5.73913">
        <ele>1045</ele>
        <time>2026-07-05T08:32:04.000Z</time>
      </trkpt>
      <trkpt lat="44.94926" lon="5.73914">
        <ele>1046.8000488281</ele>
        <time>2026-07-05T08:32:05.000Z</time>
      </trkpt>
      <trkpt lat="44.94925" lon="5.73914">
        <ele>1047.1999511719</ele>
        <time>2026-07-05T08:32:06.000Z</time>
      </trkpt>
      <trkpt lat="44.94924" lon="5.73915">
        <ele>1047.4000244141</ele>
        <time>2026-07-05T08:32:07.000Z</time>
      </trkpt>
      <trkpt lat="44.94924" lon="5.73915">
        <ele>1047.5999755859</ele>
        <time>2026-07-05T08:32:08.000Z</time>
      </trkpt>
      <trkpt lat="44.94923" lon="5.73915">
        <ele>1047.8000488281</ele>
        <time>2026-07-05T08:32:09.000Z</time>
      </trkpt>
      <trkpt lat="44.94922" lon="5.73916">
        <ele>1048</ele>
        <time>2026-07-05T08:32:10.000Z</time>
      </trkpt>
      <trkpt lat="44.94921" lon="5.73917">
        <ele>1048</ele>
        <time>2026-07-05T08:32:11.000Z</time>
      </trkpt>
      <trkpt lat="44.9492" lon="5.73917">
        <ele>1048.1999511719</ele>
        <time>2026-07-05T08:32:12.000Z</time>
      </trkpt>
      <trkpt lat="44.9492" lon="5.73918">
        <ele>1048.1999511719</ele>
        <time>2026-07-05T08:32:13.000Z</time>
      </trkpt>
      <trkpt lat="44.94919" lon="5.73919">
        <ele>1048.4000244141</ele>
        <time>2026-07-05T08:32:14.000Z</time>
      </trkpt>
      <trkpt lat="44.94918" lon="5.7392">
        <ele>1048.5999755859</ele>
        <time>2026-07-05T08:32:15.000Z</time>
      </trkpt>
      <trkpt lat="44.94917" lon="5.7392">
        <ele>1048.5999755859</ele>
        <time>2026-07-05T08:32:16.000Z</time>
      </trkpt>
      <trkpt lat="44.94917" lon="5.7392">
        <ele>1048.5999755859</ele>
        <time>2026-07-05T08:32:17.000Z</time>
      </trkpt>
      <trkpt lat="44.94916" lon="5.7392">
        <ele>1048.5999755859</ele>
        <time>2026-07-05T08:32:18.000Z</time>
      </trkpt>
      <trkpt lat="44.94915" lon="5.7392">
        <ele>1048.4000244141</ele>
        <time>2026-07-05T08:32:19.000Z</time>
      </trkpt>
      <trkpt lat="44.94914" lon="5.73921">
        <ele>1048</ele>
        <time>2026-07-05T08:32:20.000Z</time>
      </trkpt>
      <trkpt lat="44.94913" lon="5.73921">
        <ele>1048</ele>
        <time>2026-07-05T08:32:21.000Z</time>
      </trkpt>
      <trkpt lat="44.94912" lon="5.73922">
        <ele>1047.8000488281</ele>
        <time>2026-07-05T08:32:22.000Z</time>
      </trkpt>
      <trkpt lat="44.94912" lon="5.73923">
        <ele>1047.8000488281</ele>
        <time>2026-07-05T08:32:23.000Z</time>
      </trkpt>
      <trkpt lat="44.94911" lon="5.73924">
        <ele>1047.8000488281</ele>
        <time>2026-07-05T08:32:24.000Z</time>
      </trkpt>
      <trkpt lat="44.9491" lon="5.73924">
        <ele>1049</ele>
        <time>2026-07-05T08:32:25.000Z</time>
      </trkpt>
      <trkpt lat="44.94909" lon="5.73925">
        <ele>1050</ele>
        <time>2026-07-05T08:32:26.000Z</time>
      </trkpt>
      <trkpt lat="44.94908" lon="5.73925">
        <ele>1050.8000488281</ele>
        <time>2026-07-05T08:32:27.000Z</time>
      </trkpt>
      <trkpt lat="44.94908" lon="5.73926">
        <ele>1051.1999511719</ele>
        <time>2026-07-05T08:32:28.000Z</time>
      </trkpt>
      <trkpt lat="44.94907" lon="5.73926">
        <ele>1052</ele>
        <time>2026-07-05T08:32:29.000Z</time>
      </trkpt>
      <trkpt lat="44.94906" lon="5.73927">
        <ele>1052.8000488281</ele>
        <time>2026-07-05T08:32:30.000Z</time>
      </trkpt>
      <trkpt lat="44.94905" lon="5.73928">
        <ele>1053.5999755859</ele>
        <time>2026-07-05T08:32:31.000Z</time>
      </trkpt>
      <trkpt lat="44.94904" lon="5.73928">
        <ele>1053.8000488281</ele>
        <time>2026-07-05T08:32:32.000Z</time>
      </trkpt>
      <trkpt lat="44.94904" lon="5.73929">
        <ele>1054.1999511719</ele>
        <time>2026-07-05T08:32:33.000Z</time>
      </trkpt>
      <trkpt lat="44.94903" lon="5.7393">
        <ele>1054.5999755859</ele>
        <time>2026-07-05T08:32:34.000Z</time>
      </trkpt>
      <trkpt lat="44.94902" lon="5.7393">
        <ele>1054.8000488281</ele>
        <time>2026-07-05T08:32:35.000Z</time>
      </trkpt>
      <trkpt lat="44.94901" lon="5.73931">
        <ele>1055</ele>
        <time>2026-07-05T08:32:36.000Z</time>
      </trkpt>
      <trkpt lat="44.949" lon="5.73932">
        <ele>1055.1999511719</ele>
        <time>2026-07-05T08:32:37.000Z</time>
      </trkpt>
      <trkpt lat="44.94899" lon="5.73932">
        <ele>1055.5999755859</ele>
        <time>2026-07-05T08:32:38.000Z</time>
      </trkpt>
      <trkpt lat="44.94898" lon="5.73933">
        <ele>1055.5999755859</ele>
        <time>2026-07-05T08:32:39.000Z</time>
      </trkpt>
      <trkpt lat="44.94897" lon="5.73934">
        <ele>1056</ele>
        <time>2026-07-05T08:32:40.000Z</time>
      </trkpt>
      <trkpt lat="44.94896" lon="5.73933">
        <ele>1056.5999755859</ele>
        <time>2026-07-05T08:32:41.000Z</time>
      </trkpt>
      <trkpt lat="44.94895" lon="5.73933">
        <ele>1057</ele>
        <time>2026-07-05T08:32:42.000Z</time>
      </trkpt>
      <trkpt lat="44.94895" lon="5.73934">
        <ele>1057.8000488281</ele>
        <time>2026-07-05T08:32:43.000Z</time>
      </trkpt>
      <trkpt lat="44.94894" lon="5.73934">
        <ele>1058.1999511719</ele>
        <time>2026-07-05T08:32:44.000Z</time>
      </trkpt>
      <trkpt lat="44.94893" lon="5.73934">
        <ele>1058.4000244141</ele>
        <time>2026-07-05T08:32:45.000Z</time>
      </trkpt>
      <trkpt lat="44.94893" lon="5.73934">
        <ele>1058.5999755859</ele>
        <time>2026-07-05T08:32:46.000Z</time>
      </trkpt>
      <trkpt lat="44.94892" lon="5.73935">
        <ele>1059</ele>
        <time>2026-07-05T08:32:47.000Z</time>
      </trkpt>
      <trkpt lat="44.94891" lon="5.73935">
        <ele>1059.1999511719</ele>
        <time>2026-07-05T08:32:48.000Z</time>
      </trkpt>
      <trkpt lat="44.94891" lon="5.73936">
        <ele>1059.5999755859</ele>
        <time>2026-07-05T08:32:49.000Z</time>
      </trkpt>
      <trkpt lat="44.9489" lon="5.73936">
        <ele>1060</ele>
        <time>2026-07-05T08:32:50.000Z</time>
      </trkpt>
      <trkpt lat="44.94889" lon="5.73937">
        <ele>1060.5999755859</ele>
        <time>2026-07-05T08:32:51.000Z</time>
      </trkpt>
      <trkpt lat="44.94889" lon="5.73938">
        <ele>1060.8000488281</ele>
        <time>2026-07-05T08:32:52.000Z</time>
      </trkpt>
      <trkpt lat="44.94888" lon="5.73939">
        <ele>1061.1999511719</ele>
        <time>2026-07-05T08:32:53.000Z</time>
      </trkpt>
      <trkpt lat="44.94887" lon="5.7394">
        <ele>1061.4000244141</ele>
        <time>2026-07-05T08:32:54.000Z</time>
      </trkpt>
      <trkpt lat="44.94887" lon="5.7394">
        <ele>1061.4000244141</ele>
        <time>2026-07-05T08:32:55.000Z</time>
      </trkpt>
      <trkpt lat="44.94886" lon="5.73941">
        <ele>1061.4000244141</ele>
        <time>2026-07-05T08:32:56.000Z</time>
      </trkpt>
      <trkpt lat="44.94886" lon="5.73942">
        <ele>1061.4000244141</ele>
        <time>2026-07-05T08:32:57.000Z</time>
      </trkpt>
      <trkpt lat="44.94885" lon="5.73942">
        <ele>1061.4000244141</ele>
        <time>2026-07-05T08:32:58.000Z</time>
      </trkpt>
      <trkpt lat="44.94884" lon="5.73943">
        <ele>1061.5999755859</ele>
        <time>2026-07-05T08:32:59.000Z</time>
      </trkpt>
      <trkpt lat="44.94883" lon="5.73943">
        <ele>1061.8000488281</ele>
        <time>2026-07-05T08:33:00.000Z</time>
      </trkpt>
      <trkpt lat="44.94883" lon="5.73944">
        <ele>1062</ele>
        <time>2026-07-05T08:33:01.000Z</time>
      </trkpt>
      <trkpt lat="44.94883" lon="5.73945">
        <ele>1062.1999511719</ele>
        <time>2026-07-05T08:33:02.000Z</time>
      </trkpt>
      <trkpt lat="44.94882" lon="5.73946">
        <ele>1062.4000244141</ele>
        <time>2026-07-05T08:33:03.000Z</time>
      </trkpt>
      <trkpt lat="44.94882" lon="5.73946">
        <ele>1062.8000488281</ele>
        <time>2026-07-05T08:33:04.000Z</time>
      </trkpt>
      <trkpt lat="44.94881" lon="5.73947">
        <ele>1063</ele>
        <time>2026-07-05T08:33:05.000Z</time>
      </trkpt>
      <trkpt lat="44.9488" lon="5.73947">
        <ele>1063.4000244141</ele>
        <time>2026-07-05T08:33:06.000Z</time>
      </trkpt>
      <trkpt lat="44.9488" lon="5.73948">
        <ele>1063.5999755859</ele>
        <time>2026-07-05T08:33:07.000Z</time>
      </trkpt>
      <trkpt lat="44.94879" lon="5.73948">
        <ele>1063.8000488281</ele>
        <time>2026-07-05T08:33:08.000Z</time>
      </trkpt>
      <trkpt lat="44.94878" lon="5.73949">
        <ele>1064</ele>
        <time>2026-07-05T08:33:09.000Z</time>
      </trkpt>
      <trkpt lat="44.94877" lon="5.7395">
        <ele>1064</ele>
        <time>2026-07-05T08:33:10.000Z</time>
      </trkpt>
      <trkpt lat="44.94876" lon="5.7395">
        <ele>1064.1999511719</ele>
        <time>2026-07-05T08:33:11.000Z</time>
      </trkpt>
      <trkpt lat="44.94875" lon="5.73951">
        <ele>1064.5999755859</ele>
        <time>2026-07-05T08:33:12.000Z</time>
      </trkpt>
      <trkpt lat="44.94874" lon="5.73951">
        <ele>1065</ele>
        <time>2026-07-05T08:33:13.000Z</time>
      </trkpt>
      <trkpt lat="44.94873" lon="5.73952">
        <ele>1065.4000244141</ele>
        <time>2026-07-05T08:33:14.000Z</time>
      </trkpt>
      <trkpt lat="44.94872" lon="5.73952">
        <ele>1065.8000488281</ele>
        <time>2026-07-05T08:33:15.000Z</time>
      </trkpt>
      <trkpt lat="44.94871" lon="5.73952">
        <ele>1066.1999511719</ele>
        <time>2026-07-05T08:33:16.000Z</time>
      </trkpt>
      <trkpt lat="44.9487" lon="5.73953">
        <ele>1066.5999755859</ele>
        <time>2026-07-05T08:33:17.000Z</time>
      </trkpt>
      <trkpt lat="44.94869" lon="5.73954">
        <ele>1067</ele>
        <time>2026-07-05T08:33:18.000Z</time>
      </trkpt>
      <trkpt lat="44.94868" lon="5.73954">
        <ele>1067.4000244141</ele>
        <time>2026-07-05T08:33:19.000Z</time>
      </trkpt>
      <trkpt lat="44.94867" lon="5.73955">
        <ele>1067.5999755859</ele>
        <time>2026-07-05T08:33:20.000Z</time>
      </trkpt>
      <trkpt lat="44.94867" lon="5.73955">
        <ele>1067.8000488281</ele>
        <time>2026-07-05T08:33:21.000Z</time>
      </trkpt>
      <trkpt lat="44.94865" lon="5.73955">
        <ele>1068</ele>
        <time>2026-07-05T08:33:22.000Z</time>
      </trkpt>
      <trkpt lat="44.94865" lon="5.73955">
        <ele>1068.1999511719</ele>
        <time>2026-07-05T08:33:23.000Z</time>
      </trkpt>
      <trkpt lat="44.94864" lon="5.73955">
        <ele>1068.4000244141</ele>
        <time>2026-07-05T08:33:24.000Z</time>
      </trkpt>
      <trkpt lat="44.94863" lon="5.73955">
        <ele>1068.4000244141</ele>
        <time>2026-07-05T08:33:25.000Z</time>
      </trkpt>
      <trkpt lat="44.94863" lon="5.73956">
        <ele>1068.5999755859</ele>
        <time>2026-07-05T08:33:26.000Z</time>
      </trkpt>
      <trkpt lat="44.94862" lon="5.73957">
        <ele>1069</ele>
        <time>2026-07-05T08:33:27.000Z</time>
      </trkpt>
      <trkpt lat="44.94862" lon="5.73957">
        <ele>1069.1999511719</ele>
        <time>2026-07-05T08:33:28.000Z</time>
      </trkpt>
      <trkpt lat="44.94861" lon="5.73957">
        <ele>1069.4000244141</ele>
        <time>2026-07-05T08:33:29.000Z</time>
      </trkpt>
      <trkpt lat="44.94861" lon="5.73958">
        <ele>1069.4000244141</ele>
        <time>2026-07-05T08:33:30.000Z</time>
      </trkpt>
      <trkpt lat="44.9486" lon="5.73959">
        <ele>1069.5999755859</ele>
        <time>2026-07-05T08:33:31.000Z</time>
      </trkpt>
      <trkpt lat="44.94859" lon="5.7396">
        <ele>1070</ele>
        <time>2026-07-05T08:33:32.000Z</time>
      </trkpt>
      <trkpt lat="44.94858" lon="5.73961">
        <ele>1070.4000244141</ele>
        <time>2026-07-05T08:33:33.000Z</time>
      </trkpt>
      <trkpt lat="44.94857" lon="5.73962">
        <ele>1070.8000488281</ele>
        <time>2026-07-05T08:33:34.000Z</time>
      </trkpt>
      <trkpt lat="44.94856" lon="5.73963">
        <ele>1071.1999511719</ele>
        <time>2026-07-05T08:33:35.000Z</time>
      </trkpt>
      <trkpt lat="44.94855" lon="5.73964">
        <ele>1071.8000488281</ele>
        <time>2026-07-05T08:33:36.000Z</time>
      </trkpt>
      <trkpt lat="44.94855" lon="5.73965">
        <ele>1072.1999511719</ele>
        <time>2026-07-05T08:33:37.000Z</time>
      </trkpt>
      <trkpt lat="44.94854" lon="5.73966">
        <ele>1072.8000488281</ele>
        <time>2026-07-05T08:33:38.000Z</time>
      </trkpt>
      <trkpt lat="44.94853" lon="5.73967">
        <ele>1073.1999511719</ele>
        <time>2026-07-05T08:33:39.000Z</time>
      </trkpt>
      <trkpt lat="44.94851" lon="5.73967">
        <ele>1073.1999511719</ele>
        <time>2026-07-05T08:33:40.000Z</time>
      </trkpt>
      <trkpt lat="44.94849" lon="5.73967">
        <ele>1073.4000244141</ele>
        <time>2026-07-05T08:33:41.000Z</time>
      </trkpt>
      <trkpt lat="44.94848" lon="5.73967">
        <ele>1073.4000244141</ele>
        <time>2026-07-05T08:33:42.000Z</time>
      </trkpt>
      <trkpt lat="44.94847" lon="5.73968">
        <ele>1073.4000244141</ele>
        <time>2026-07-05T08:33:43.000Z</time>
      </trkpt>
      <trkpt lat="44.94846" lon="5.73968">
        <ele>1073.4000244141</ele>
        <time>2026-07-05T08:33:44.000Z</time>
      </trkpt>
      <trkpt lat="44.94845" lon="5.73968">
        <ele>1073.4000244141</ele>
        <time>2026-07-05T08:33:45.000Z</time>
      </trkpt>
      <trkpt lat="44.94844" lon="5.73967">
        <ele>1073.4000244141</ele>
        <time>2026-07-05T08:33:46.000Z</time>
      </trkpt>
      <trkpt lat="44.94843" lon="5.73967">
        <ele>1073.4000244141</ele>
        <time>2026-07-05T08:33:47.000Z</time>
      </trkpt>
      <trkpt lat="44.94842" lon="5.73967">
        <ele>1073.5999755859</ele>
        <time>2026-07-05T08:33:48.000Z</time>
      </trkpt>
      <trkpt lat="44.94841" lon="5.73967">
        <ele>1073.5999755859</ele>
        <time>2026-07-05T08:33:49.000Z</time>
      </trkpt>
      <trkpt lat="44.94841" lon="5.73967">
        <ele>1073.8000488281</ele>
        <time>2026-07-05T08:33:50.000Z</time>
      </trkpt>
      <trkpt lat="44.9484" lon="5.73967">
        <ele>1074</ele>
        <time>2026-07-05T08:33:51.000Z</time>
      </trkpt>
      <trkpt lat="44.94838" lon="5.73966">
        <ele>1074.1999511719</ele>
        <time>2026-07-05T08:33:52.000Z</time>
      </trkpt>
      <trkpt lat="44.94837" lon="5.73966">
        <ele>1074.1999511719</ele>
        <time>2026-07-05T08:33:53.000Z</time>
      </trkpt>
      <trkpt lat="44.94836" lon="5.73965">
        <ele>1074.5999755859</ele>
        <time>2026-07-05T08:33:54.000Z</time>
      </trkpt>
      <trkpt lat="44.94835" lon="5.73964">
        <ele>1075</ele>
        <time>2026-07-05T08:33:55.000Z</time>
      </trkpt>
      <trkpt lat="44.94834" lon="5.73963">
        <ele>1075.1999511719</ele>
        <time>2026-07-05T08:33:56.000Z</time>
      </trkpt>
      <trkpt lat="44.94834" lon="5.73962">
        <ele>1075.5999755859</ele>
        <time>2026-07-05T08:33:57.000Z</time>
      </trkpt>
      <trkpt lat="44.94833" lon="5.7396">
        <ele>1075.5999755859</ele>
        <time>2026-07-05T08:33:58.000Z</time>
      </trkpt>
      <trkpt lat="44.94832" lon="5.73959">
        <ele>1075.8000488281</ele>
        <time>2026-07-05T08:33:59.000Z</time>
      </trkpt>
      <trkpt lat="44.94832" lon="5.73958">
        <ele>1075.8000488281</ele>
        <time>2026-07-05T08:34:00.000Z</time>
      </trkpt>
      <trkpt lat="44.94832" lon="5.73958">
        <ele>1075.8000488281</ele>
        <time>2026-07-05T08:34:01.000Z</time>
      </trkpt>
      <trkpt lat="44.94831" lon="5.73957">
        <ele>1076</ele>
        <time>2026-07-05T08:34:02.000Z</time>
      </trkpt>
      <trkpt lat="44.9483" lon="5.73955">
        <ele>1076</ele>
        <time>2026-07-05T08:34:03.000Z</time>
      </trkpt>
      <trkpt lat="44.94829" lon="5.73954">
        <ele>1076.4000244141</ele>
        <time>2026-07-05T08:34:04.000Z</time>
      </trkpt>
      <trkpt lat="44.94828" lon="5.73952">
        <ele>1076.8000488281</ele>
        <time>2026-07-05T08:34:05.000Z</time>
      </trkpt>
      <trkpt lat="44.94828" lon="5.73951">
        <ele>1077.1999511719</ele>
        <time>2026-07-05T08:34:06.000Z</time>
      </trkpt>
      <trkpt lat="44.94827" lon="5.7395">
        <ele>1077.5999755859</ele>
        <time>2026-07-05T08:34:07.000Z</time>
      </trkpt>
      <trkpt lat="44.94827" lon="5.73949">
        <ele>1078</ele>
        <time>2026-07-05T08:34:08.000Z</time>
      </trkpt>
      <trkpt lat="44.94827" lon="5.73947">
        <ele>1078.4000244141</ele>
        <time>2026-07-05T08:34:09.000Z</time>
      </trkpt>
      <trkpt lat="44.94826" lon="5.73946">
        <ele>1079</ele>
        <time>2026-07-05T08:34:10.000Z</time>
      </trkpt>
      <trkpt lat="44.94826" lon="5.73945">
        <ele>1079.4000244141</ele>
        <time>2026-07-05T08:34:11.000Z</time>
      </trkpt>
      <trkpt lat="44.94826" lon="5.73944">
        <ele>1079.8000488281</ele>
        <time>2026-07-05T08:34:12.000Z</time>
      </trkpt>
      <trkpt lat="44.94826" lon="5.73943">
        <ele>1080.1999511719</ele>
        <time>2026-07-05T08:34:13.000Z</time>
      </trkpt>
      <trkpt lat="44.94825" lon="5.73941">
        <ele>1080.5999755859</ele>
        <time>2026-07-05T08:34:14.000Z</time>
      </trkpt>
      <trkpt lat="44.94825" lon="5.7394">
        <ele>1081</ele>
        <time>2026-07-05T08:34:15.000Z</time>
      </trkpt>
      <trkpt lat="44.94825" lon="5.73939">
        <ele>1081.4000244141</ele>
        <time>2026-07-05T08:34:16.000Z</time>
      </trkpt>
      <trkpt lat="44.94824" lon="5.73938">
        <ele>1081.8000488281</ele>
        <time>2026-07-05T08:34:17.000Z</time>
      </trkpt>
      <trkpt lat="44.94824" lon="5.73936">
        <ele>1082</ele>
        <time>2026-07-05T08:34:18.000Z</time>
      </trkpt>
      <trkpt lat="44.94824" lon="5.73935">
        <ele>1082.1999511719</ele>
        <time>2026-07-05T08:34:19.000Z</time>
      </trkpt>
      <trkpt lat="44.94823" lon="5.73933">
        <ele>1082.8000488281</ele>
        <time>2026-07-05T08:34:20.000Z</time>
      </trkpt>
      <trkpt lat="44.94823" lon="5.73931">
        <ele>1083</ele>
        <time>2026-07-05T08:34:21.000Z</time>
      </trkpt>
      <trkpt lat="44.94823" lon="5.7393">
        <ele>1083.1999511719</ele>
        <time>2026-07-05T08:34:22.000Z</time>
      </trkpt>
      <trkpt lat="44.94823" lon="5.73928">
        <ele>1083.1999511719</ele>
        <time>2026-07-05T08:34:23.000Z</time>
      </trkpt>
      <trkpt lat="44.94824" lon="5.73925">
        <ele>1083.4000244141</ele>
        <time>2026-07-05T08:34:24.000Z</time>
      </trkpt>
      <trkpt lat="44.94824" lon="5.73924">
        <ele>1083.4000244141</ele>
        <time>2026-07-05T08:34:25.000Z</time>
      </trkpt>
      <trkpt lat="44.94824" lon="5.73923">
        <ele>1083.4000244141</ele>
        <time>2026-07-05T08:34:26.000Z</time>
      </trkpt>
      <trkpt lat="44.94824" lon="5.73921">
        <ele>1083.5999755859</ele>
        <time>2026-07-05T08:34:27.000Z</time>
      </trkpt>
      <trkpt lat="44.94824" lon="5.73919">
        <ele>1083.5999755859</ele>
        <time>2026-07-05T08:34:28.000Z</time>
      </trkpt>
      <trkpt lat="44.94824" lon="5.73918">
        <ele>1083.5999755859</ele>
        <time>2026-07-05T08:34:29.000Z</time>
      </trkpt>
      <trkpt lat="44.94825" lon="5.73916">
        <ele>1083.4000244141</ele>
        <time>2026-07-05T08:34:30.000Z</time>
      </trkpt>
      <trkpt lat="44.94824" lon="5.73914">
        <ele>1083.5999755859</ele>
        <time>2026-07-05T08:34:31.000Z</time>
      </trkpt>
      <trkpt lat="44.94824" lon="5.73912">
        <ele>1083.5999755859</ele>
        <time>2026-07-05T08:34:32.000Z</time>
      </trkpt>
      <trkpt lat="44.94824" lon="5.7391">
        <ele>1083.5999755859</ele>
        <time>2026-07-05T08:34:33.000Z</time>
      </trkpt>
      <trkpt lat="44.94824" lon="5.73909">
        <ele>1083.8000488281</ele>
        <time>2026-07-05T08:34:34.000Z</time>
      </trkpt>
      <trkpt lat="44.94824" lon="5.73907">
        <ele>1084</ele>
        <time>2026-07-05T08:34:35.000Z</time>
      </trkpt>
      <trkpt lat="44.94824" lon="5.73905">
        <ele>1084.1999511719</ele>
        <time>2026-07-05T08:34:36.000Z</time>
      </trkpt>
      <trkpt lat="44.94824" lon="5.73903">
        <ele>1084.4000244141</ele>
        <time>2026-07-05T08:34:37.000Z</time>
      </trkpt>
      <trkpt lat="44.94825" lon="5.73902">
        <ele>1084.4000244141</ele>
        <time>2026-07-05T08:34:38.000Z</time>
      </trkpt>
      <trkpt lat="44.94824" lon="5.73901">
        <ele>1084.5999755859</ele>
        <time>2026-07-05T08:34:39.000Z</time>
      </trkpt>
      <trkpt lat="44.94825" lon="5.739">
        <ele>1085</ele>
        <time>2026-07-05T08:34:40.000Z</time>
      </trkpt>
      <trkpt lat="44.94825" lon="5.73899">
        <ele>1085.4000244141</ele>
        <time>2026-07-05T08:34:41.000Z</time>
      </trkpt>
      <trkpt lat="44.94825" lon="5.73897">
        <ele>1085.5999755859</ele>
        <time>2026-07-05T08:34:42.000Z</time>
      </trkpt>
      <trkpt lat="44.94825" lon="5.73895">
        <ele>1086</ele>
        <time>2026-07-05T08:34:43.000Z</time>
      </trkpt>
      <trkpt lat="44.94825" lon="5.73894">
        <ele>1086.4000244141</ele>
        <time>2026-07-05T08:34:44.000Z</time>
      </trkpt>
      <trkpt lat="44.94825" lon="5.73892">
        <ele>1086.8000488281</ele>
        <time>2026-07-05T08:34:45.000Z</time>
      </trkpt>
      <trkpt lat="44.94825" lon="5.7389">
        <ele>1087.1999511719</ele>
        <time>2026-07-05T08:34:46.000Z</time>
      </trkpt>
      <trkpt lat="44.94825" lon="5.73888">
        <ele>1087.4000244141</ele>
        <time>2026-07-05T08:34:47.000Z</time>
      </trkpt>
      <trkpt lat="44.94825" lon="5.73887">
        <ele>1087.8000488281</ele>
        <time>2026-07-05T08:34:48.000Z</time>
      </trkpt>
      <trkpt lat="44.94825" lon="5.73884">
        <ele>1088</ele>
        <time>2026-07-05T08:34:49.000Z</time>
      </trkpt>
      <trkpt lat="44.94825" lon="5.73882">
        <ele>1088.5999755859</ele>
        <time>2026-07-05T08:34:50.000Z</time>
      </trkpt>
      <trkpt lat="44.94825" lon="5.73881">
        <ele>1089</ele>
        <time>2026-07-05T08:34:51.000Z</time>
      </trkpt>
      <trkpt lat="44.94825" lon="5.73879">
        <ele>1089.4000244141</ele>
        <time>2026-07-05T08:34:52.000Z</time>
      </trkpt>
      <trkpt lat="44.94826" lon="5.73878">
        <ele>1089.5999755859</ele>
        <time>2026-07-05T08:34:53.000Z</time>
      </trkpt>
      <trkpt lat="44.94826" lon="5.73877">
        <ele>1090</ele>
        <time>2026-07-05T08:34:54.000Z</time>
      </trkpt>
      <trkpt lat="44.94826" lon="5.73876">
        <ele>1090.4000244141</ele>
        <time>2026-07-05T08:34:55.000Z</time>
      </trkpt>
      <trkpt lat="44.94825" lon="5.73874">
        <ele>1090.5999755859</ele>
        <time>2026-07-05T08:34:56.000Z</time>
      </trkpt>
      <trkpt lat="44.94825" lon="5.73872">
        <ele>1091</ele>
        <time>2026-07-05T08:34:57.000Z</time>
      </trkpt>
      <trkpt lat="44.94825" lon="5.7387">
        <ele>1091.1999511719</ele>
        <time>2026-07-05T08:34:58.000Z</time>
      </trkpt>
      <trkpt lat="44.94824" lon="5.73868">
        <ele>1091.4000244141</ele>
        <time>2026-07-05T08:34:59.000Z</time>
      </trkpt>
      <trkpt lat="44.94824" lon="5.73867">
        <ele>1091.8000488281</ele>
        <time>2026-07-05T08:35:00.000Z</time>
      </trkpt>
      <trkpt lat="44.94824" lon="5.73865">
        <ele>1092</ele>
        <time>2026-07-05T08:35:01.000Z</time>
      </trkpt>
      <trkpt lat="44.94824" lon="5.73863">
        <ele>1092.4000244141</ele>
        <time>2026-07-05T08:35:02.000Z</time>
      </trkpt>
      <trkpt lat="44.94823" lon="5.73862">
        <ele>1092.8000488281</ele>
        <time>2026-07-05T08:35:03.000Z</time>
      </trkpt>
      <trkpt lat="44.94823" lon="5.7386">
        <ele>1093.4000244141</ele>
        <time>2026-07-05T08:35:04.000Z</time>
      </trkpt>
      <trkpt lat="44.94823" lon="5.73858">
        <ele>1093.8000488281</ele>
        <time>2026-07-05T08:35:05.000Z</time>
      </trkpt>
      <trkpt lat="44.94823" lon="5.73857">
        <ele>1094.4000244141</ele>
        <time>2026-07-05T08:35:06.000Z</time>
      </trkpt>
      <trkpt lat="44.94823" lon="5.73855">
        <ele>1094.4000244141</ele>
        <time>2026-07-05T08:35:07.000Z</time>
      </trkpt>
      <trkpt lat="44.94823" lon="5.73854">
        <ele>1094.5999755859</ele>
        <time>2026-07-05T08:35:08.000Z</time>
      </trkpt>
      <trkpt lat="44.94823" lon="5.73853">
        <ele>1095.1999511719</ele>
        <time>2026-07-05T08:35:09.000Z</time>
      </trkpt>
      <trkpt lat="44.94823" lon="5.73851">
        <ele>1095.5999755859</ele>
        <time>2026-07-05T08:35:10.000Z</time>
      </trkpt>
      <trkpt lat="44.94824" lon="5.73849">
        <ele>1096</ele>
        <time>2026-07-05T08:35:11.000Z</time>
      </trkpt>
      <trkpt lat="44.94824" lon="5.73847">
        <ele>1096.4000244141</ele>
        <time>2026-07-05T08:35:12.000Z</time>
      </trkpt>
      <trkpt lat="44.94824" lon="5.73845">
        <ele>1096.5999755859</ele>
        <time>2026-07-05T08:35:13.000Z</time>
      </trkpt>
      <trkpt lat="44.94824" lon="5.73843">
        <ele>1096.8000488281</ele>
        <time>2026-07-05T08:35:14.000Z</time>
      </trkpt>
      <trkpt lat="44.94825" lon="5.73842">
        <ele>1097</ele>
        <time>2026-07-05T08:35:15.000Z</time>
      </trkpt>
      <trkpt lat="44.94825" lon="5.7384">
        <ele>1097.1999511719</ele>
        <time>2026-07-05T08:35:16.000Z</time>
      </trkpt>
      <trkpt lat="44.94824" lon="5.73839">
        <ele>1097.1999511719</ele>
        <time>2026-07-05T08:35:17.000Z</time>
      </trkpt>
      <trkpt lat="44.94824" lon="5.73837">
        <ele>1097.4000244141</ele>
        <time>2026-07-05T08:35:18.000Z</time>
      </trkpt>
      <trkpt lat="44.94824" lon="5.73835">
        <ele>1097.4000244141</ele>
        <time>2026-07-05T08:35:19.000Z</time>
      </trkpt>
      <trkpt lat="44.94824" lon="5.73834">
        <ele>1097.5999755859</ele>
        <time>2026-07-05T08:35:20.000Z</time>
      </trkpt>
      <trkpt lat="44.94824" lon="5.73832">
        <ele>1097.8000488281</ele>
        <time>2026-07-05T08:35:21.000Z</time>
      </trkpt>
      <trkpt lat="44.94824" lon="5.73831">
        <ele>1097.8000488281</ele>
        <time>2026-07-05T08:35:22.000Z</time>
      </trkpt>
      <trkpt lat="44.94824" lon="5.73829">
        <ele>1097.8000488281</ele>
        <time>2026-07-05T08:35:23.000Z</time>
      </trkpt>
      <trkpt lat="44.94824" lon="5.73827">
        <ele>1097.8000488281</ele>
        <time>2026-07-05T08:35:24.000Z</time>
      </trkpt>
      <trkpt lat="44.94824" lon="5.73825">
        <ele>1097.8000488281</ele>
        <time>2026-07-05T08:35:25.000Z</time>
      </trkpt>
      <trkpt lat="44.94824" lon="5.73823">
        <ele>1097.5999755859</ele>
        <time>2026-07-05T08:35:26.000Z</time>
      </trkpt>
      <trkpt lat="44.94824" lon="5.73821">
        <ele>1097.5999755859</ele>
        <time>2026-07-05T08:35:27.000Z</time>
      </trkpt>
      <trkpt lat="44.94824" lon="5.73819">
        <ele>1097.5999755859</ele>
        <time>2026-07-05T08:35:28.000Z</time>
      </trkpt>
      <trkpt lat="44.94823" lon="5.73818">
        <ele>1097.5999755859</ele>
        <time>2026-07-05T08:35:29.000Z</time>
      </trkpt>
      <trkpt lat="44.94823" lon="5.73816">
        <ele>1097.8000488281</ele>
        <time>2026-07-05T08:35:30.000Z</time>
      </trkpt>
      <trkpt lat="44.94823" lon="5.73815">
        <ele>1098</ele>
        <time>2026-07-05T08:35:31.000Z</time>
      </trkpt>
      <trkpt lat="44.94823" lon="5.73813">
        <ele>1098.1999511719</ele>
        <time>2026-07-05T08:35:32.000Z</time>
      </trkpt>
      <trkpt lat="44.94823" lon="5.73812">
        <ele>1098.5999755859</ele>
        <time>2026-07-05T08:35:33.000Z</time>
      </trkpt>
      <trkpt lat="44.94823" lon="5.7381">
        <ele>1098.5999755859</ele>
        <time>2026-07-05T08:35:34.000Z</time>
      </trkpt>
      <trkpt lat="44.94824" lon="5.73809">
        <ele>1099</ele>
        <time>2026-07-05T08:35:35.000Z</time>
      </trkpt>
      <trkpt lat="44.94824" lon="5.73807">
        <ele>1099.5999755859</ele>
        <time>2026-07-05T08:35:36.000Z</time>
      </trkpt>
      <trkpt lat="44.94824" lon="5.73805">
        <ele>1100</ele>
        <time>2026-07-05T08:35:37.000Z</time>
      </trkpt>
      <trkpt lat="44.94824" lon="5.73804">
        <ele>1100.5999755859</ele>
        <time>2026-07-05T08:35:38.000Z</time>
      </trkpt>
      <trkpt lat="44.94824" lon="5.73802">
        <ele>1101</ele>
        <time>2026-07-05T08:35:39.000Z</time>
      </trkpt>
      <trkpt lat="44.94824" lon="5.738">
        <ele>1101.1999511719</ele>
        <time>2026-07-05T08:35:40.000Z</time>
      </trkpt>
      <trkpt lat="44.94824" lon="5.73798">
        <ele>1101.5999755859</ele>
        <time>2026-07-05T08:35:41.000Z</time>
      </trkpt>
      <trkpt lat="44.94825" lon="5.73797">
        <ele>1101.8000488281</ele>
        <time>2026-07-05T08:35:42.000Z</time>
      </trkpt>
      <trkpt lat="44.94825" lon="5.73795">
        <ele>1102</ele>
        <time>2026-07-05T08:35:43.000Z</time>
      </trkpt>
      <trkpt lat="44.94825" lon="5.73794">
        <ele>1102.1999511719</ele>
        <time>2026-07-05T08:35:44.000Z</time>
      </trkpt>
      <trkpt lat="44.94825" lon="5.73792">
        <ele>1102.4000244141</ele>
        <time>2026-07-05T08:35:45.000Z</time>
      </trkpt>
      <trkpt lat="44.94825" lon="5.73791">
        <ele>1102.5999755859</ele>
        <time>2026-07-05T08:35:46.000Z</time>
      </trkpt>
      <trkpt lat="44.94825" lon="5.73789">
        <ele>1102.8000488281</ele>
        <time>2026-07-05T08:35:47.000Z</time>
      </trkpt>
      <trkpt lat="44.94825" lon="5.73788">
        <ele>1102.8000488281</ele>
        <time>2026-07-05T08:35:48.000Z</time>
      </trkpt>
      <trkpt lat="44.94825" lon="5.73787">
        <ele>1103.1999511719</ele>
        <time>2026-07-05T08:35:49.000Z</time>
      </trkpt>
      <trkpt lat="44.94825" lon="5.73785">
        <ele>1103.4000244141</ele>
        <time>2026-07-05T08:35:50.000Z</time>
      </trkpt>
      <trkpt lat="44.94825" lon="5.73784">
        <ele>1103.8000488281</ele>
        <time>2026-07-05T08:35:51.000Z</time>
      </trkpt>
      <trkpt lat="44.94825" lon="5.73783">
        <ele>1104.1999511719</ele>
        <time>2026-07-05T08:35:52.000Z</time>
      </trkpt>
      <trkpt lat="44.94825" lon="5.73781">
        <ele>1104.4000244141</ele>
        <time>2026-07-05T08:35:53.000Z</time>
      </trkpt>
      <trkpt lat="44.94825" lon="5.7378">
        <ele>1104.8000488281</ele>
        <time>2026-07-05T08:35:54.000Z</time>
      </trkpt>
      <trkpt lat="44.94826" lon="5.73778">
        <ele>1105</ele>
        <time>2026-07-05T08:35:55.000Z</time>
      </trkpt>
      <trkpt lat="44.94826" lon="5.73777">
        <ele>1105.1999511719</ele>
        <time>2026-07-05T08:35:56.000Z</time>
      </trkpt>
      <trkpt lat="44.94826" lon="5.73775">
        <ele>1105.4000244141</ele>
        <time>2026-07-05T08:35:57.000Z</time>
      </trkpt>
      <trkpt lat="44.94826" lon="5.73774">
        <ele>1105.4000244141</ele>
        <time>2026-07-05T08:35:58.000Z</time>
      </trkpt>
      <trkpt lat="44.94826" lon="5.73773">
        <ele>1105.8000488281</ele>
        <time>2026-07-05T08:35:59.000Z</time>
      </trkpt>
      <trkpt lat="44.94826" lon="5.73771">
        <ele>1106.1999511719</ele>
        <time>2026-07-05T08:36:00.000Z</time>
      </trkpt>
      <trkpt lat="44.94826" lon="5.7377">
        <ele>1106.8000488281</ele>
        <time>2026-07-05T08:36:01.000Z</time>
      </trkpt>
      <trkpt lat="44.94826" lon="5.73769">
        <ele>1107.1999511719</ele>
        <time>2026-07-05T08:36:02.000Z</time>
      </trkpt>
      <trkpt lat="44.94826" lon="5.73768">
        <ele>1107.4000244141</ele>
        <time>2026-07-05T08:36:03.000Z</time>
      </trkpt>
      <trkpt lat="44.94826" lon="5.73767">
        <ele>1108</ele>
        <time>2026-07-05T08:36:04.000Z</time>
      </trkpt>
      <trkpt lat="44.94826" lon="5.73766">
        <ele>1108.4000244141</ele>
        <time>2026-07-05T08:36:05.000Z</time>
      </trkpt>
      <trkpt lat="44.94826" lon="5.73765">
        <ele>1108.4000244141</ele>
        <time>2026-07-05T08:36:06.000Z</time>
      </trkpt>
      <trkpt lat="44.94826" lon="5.73764">
        <ele>1108.5999755859</ele>
        <time>2026-07-05T08:36:07.000Z</time>
      </trkpt>
      <trkpt lat="44.94826" lon="5.73762">
        <ele>1109</ele>
        <time>2026-07-05T08:36:08.000Z</time>
      </trkpt>
      <trkpt lat="44.94825" lon="5.73761">
        <ele>1109.1999511719</ele>
        <time>2026-07-05T08:36:09.000Z</time>
      </trkpt>
      <trkpt lat="44.94825" lon="5.73759">
        <ele>1109.5999755859</ele>
        <time>2026-07-05T08:36:10.000Z</time>
      </trkpt>
      <trkpt lat="44.94825" lon="5.73757">
        <ele>1109.8000488281</ele>
        <time>2026-07-05T08:36:11.000Z</time>
      </trkpt>
      <trkpt lat="44.94826" lon="5.73753">
        <ele>1109.8000488281</ele>
        <time>2026-07-05T08:36:12.000Z</time>
      </trkpt>
      <trkpt lat="44.94826" lon="5.73751">
        <ele>1109.8000488281</ele>
        <time>2026-07-05T08:36:13.000Z</time>
      </trkpt>
      <trkpt lat="44.94827" lon="5.73749">
        <ele>1109.5999755859</ele>
        <time>2026-07-05T08:36:14.000Z</time>
      </trkpt>
      <trkpt lat="44.94827" lon="5.73747">
        <ele>1109.5999755859</ele>
        <time>2026-07-05T08:36:15.000Z</time>
      </trkpt>
      <trkpt lat="44.94828" lon="5.73745">
        <ele>1109</ele>
        <time>2026-07-05T08:36:16.000Z</time>
      </trkpt>
      <trkpt lat="44.94828" lon="5.73743">
        <ele>1108.8000488281</ele>
        <time>2026-07-05T08:36:17.000Z</time>
      </trkpt>
      <trkpt lat="44.94828" lon="5.73741">
        <ele>1108.5999755859</ele>
        <time>2026-07-05T08:36:18.000Z</time>
      </trkpt>
      <trkpt lat="44.94828" lon="5.7374">
        <ele>1108.5999755859</ele>
        <time>2026-07-05T08:36:19.000Z</time>
      </trkpt>
      <trkpt lat="44.94828" lon="5.73739">
        <ele>1108.5999755859</ele>
        <time>2026-07-05T08:36:20.000Z</time>
      </trkpt>
      <trkpt lat="44.94829" lon="5.73738">
        <ele>1108.4000244141</ele>
        <time>2026-07-05T08:36:21.000Z</time>
      </trkpt>
      <trkpt lat="44.94829" lon="5.73737">
        <ele>1108.4000244141</ele>
        <time>2026-07-05T08:36:22.000Z</time>
      </trkpt>
      <trkpt lat="44.9483" lon="5.73736">
        <ele>1108.4000244141</ele>
        <time>2026-07-05T08:36:23.000Z</time>
      </trkpt>
      <trkpt lat="44.9483" lon="5.73735">
        <ele>1108.5999755859</ele>
        <time>2026-07-05T08:36:24.000Z</time>
      </trkpt>
      <trkpt lat="44.94829" lon="5.73733">
        <ele>1108.5999755859</ele>
        <time>2026-07-05T08:36:25.000Z</time>
      </trkpt>
      <trkpt lat="44.9483" lon="5.73732">
        <ele>1109</ele>
        <time>2026-07-05T08:36:26.000Z</time>
      </trkpt>
      <trkpt lat="44.9483" lon="5.73731">
        <ele>1109.1999511719</ele>
        <time>2026-07-05T08:36:27.000Z</time>
      </trkpt>
      <trkpt lat="44.9483" lon="5.73729">
        <ele>1109.4000244141</ele>
        <time>2026-07-05T08:36:28.000Z</time>
      </trkpt>
      <trkpt lat="44.9483" lon="5.73726">
        <ele>1109.5999755859</ele>
        <time>2026-07-05T08:36:29.000Z</time>
      </trkpt>
      <trkpt lat="44.9483" lon="5.73724">
        <ele>1109.8000488281</ele>
        <time>2026-07-05T08:36:30.000Z</time>
      </trkpt>
      <trkpt lat="44.9483" lon="5.73722">
        <ele>1110.1999511719</ele>
        <time>2026-07-05T08:36:31.000Z</time>
      </trkpt>
      <trkpt lat="44.9483" lon="5.7372">
        <ele>1110.4000244141</ele>
        <time>2026-07-05T08:36:32.000Z</time>
      </trkpt>
      <trkpt lat="44.9483" lon="5.73718">
        <ele>1110.8000488281</ele>
        <time>2026-07-05T08:36:33.000Z</time>
      </trkpt>
      <trkpt lat="44.9483" lon="5.73716">
        <ele>1111.4000244141</ele>
        <time>2026-07-05T08:36:34.000Z</time>
      </trkpt>
      <trkpt lat="44.9483" lon="5.73714">
        <ele>1112</ele>
        <time>2026-07-05T08:36:35.000Z</time>
      </trkpt>
      <trkpt lat="44.94829" lon="5.73712">
        <ele>1112.4000244141</ele>
        <time>2026-07-05T08:36:36.000Z</time>
      </trkpt>
      <trkpt lat="44.94829" lon="5.73711">
        <ele>1113</ele>
        <time>2026-07-05T08:36:37.000Z</time>
      </trkpt>
      <trkpt lat="44.94829" lon="5.73709">
        <ele>1113.4000244141</ele>
        <time>2026-07-05T08:36:38.000Z</time>
      </trkpt>
      <trkpt lat="44.94828" lon="5.73708">
        <ele>1113.5999755859</ele>
        <time>2026-07-05T08:36:39.000Z</time>
      </trkpt>
      <trkpt lat="44.94828" lon="5.73707">
        <ele>1114</ele>
        <time>2026-07-05T08:36:40.000Z</time>
      </trkpt>
      <trkpt lat="44.94828" lon="5.73705">
        <ele>1114.1999511719</ele>
        <time>2026-07-05T08:36:41.000Z</time>
      </trkpt>
      <trkpt lat="44.94828" lon="5.73704">
        <ele>1114.4000244141</ele>
        <time>2026-07-05T08:36:42.000Z</time>
      </trkpt>
      <trkpt lat="44.94828" lon="5.73702">
        <ele>1114.5999755859</ele>
        <time>2026-07-05T08:36:43.000Z</time>
      </trkpt>
      <trkpt lat="44.94827" lon="5.737">
        <ele>1114.8000488281</ele>
        <time>2026-07-05T08:36:44.000Z</time>
      </trkpt>
      <trkpt lat="44.94827" lon="5.73699">
        <ele>1115</ele>
        <time>2026-07-05T08:36:45.000Z</time>
      </trkpt>
      <trkpt lat="44.94827" lon="5.73697">
        <ele>1115.1999511719</ele>
        <time>2026-07-05T08:36:46.000Z</time>
      </trkpt>
      <trkpt lat="44.94826" lon="5.73696">
        <ele>1115.4000244141</ele>
        <time>2026-07-05T08:36:47.000Z</time>
      </trkpt>
      <trkpt lat="44.94826" lon="5.73694">
        <ele>1115.5999755859</ele>
        <time>2026-07-05T08:36:48.000Z</time>
      </trkpt>
      <trkpt lat="44.94825" lon="5.73693">
        <ele>1115.8000488281</ele>
        <time>2026-07-05T08:36:49.000Z</time>
      </trkpt>
      <trkpt lat="44.94825" lon="5.73692">
        <ele>1116</ele>
        <time>2026-07-05T08:36:50.000Z</time>
      </trkpt>
      <trkpt lat="44.94825" lon="5.7369">
        <ele>1116.1999511719</ele>
        <time>2026-07-05T08:36:51.000Z</time>
      </trkpt>
      <trkpt lat="44.94824" lon="5.73689">
        <ele>1116.5999755859</ele>
        <time>2026-07-05T08:36:52.000Z</time>
      </trkpt>
      <trkpt lat="44.94824" lon="5.73688">
        <ele>1117.1999511719</ele>
        <time>2026-07-05T08:36:53.000Z</time>
      </trkpt>
      <trkpt lat="44.94823" lon="5.73687">
        <ele>1117.4000244141</ele>
        <time>2026-07-05T08:36:54.000Z</time>
      </trkpt>
      <trkpt lat="44.94822" lon="5.73687">
        <ele>1117.5999755859</ele>
        <time>2026-07-05T08:36:55.000Z</time>
      </trkpt>
      <trkpt lat="44.94822" lon="5.73686">
        <ele>1118</ele>
        <time>2026-07-05T08:36:56.000Z</time>
      </trkpt>
      <trkpt lat="44.94821" lon="5.73685">
        <ele>1118.1999511719</ele>
        <time>2026-07-05T08:36:57.000Z</time>
      </trkpt>
      <trkpt lat="44.9482" lon="5.73685">
        <ele>1118.4000244141</ele>
        <time>2026-07-05T08:36:58.000Z</time>
      </trkpt>
      <trkpt lat="44.9482" lon="5.73684">
        <ele>1118.5999755859</ele>
        <time>2026-07-05T08:36:59.000Z</time>
      </trkpt>
      <trkpt lat="44.94819" lon="5.73683">
        <ele>1118.8000488281</ele>
        <time>2026-07-05T08:37:00.000Z</time>
      </trkpt>
      <trkpt lat="44.94818" lon="5.73682">
        <ele>1119</ele>
        <time>2026-07-05T08:37:01.000Z</time>
      </trkpt>
      <trkpt lat="44.94817" lon="5.73681">
        <ele>1119.4000244141</ele>
        <time>2026-07-05T08:37:02.000Z</time>
      </trkpt>
      <trkpt lat="44.94816" lon="5.7368">
        <ele>1119.8000488281</ele>
        <time>2026-07-05T08:37:03.000Z</time>
      </trkpt>
      <trkpt lat="44.94815" lon="5.73679">
        <ele>1120</ele>
        <time>2026-07-05T08:37:04.000Z</time>
      </trkpt>
      <trkpt lat="44.94814" lon="5.73679">
        <ele>1120.4000244141</ele>
        <time>2026-07-05T08:37:05.000Z</time>
      </trkpt>
      <trkpt lat="44.94813" lon="5.73678">
        <ele>1120.5999755859</ele>
        <time>2026-07-05T08:37:06.000Z</time>
      </trkpt>
      <trkpt lat="44.94812" lon="5.73678">
        <ele>1120.4000244141</ele>
        <time>2026-07-05T08:37:07.000Z</time>
      </trkpt>
      <trkpt lat="44.94811" lon="5.73678">
        <ele>1120.1999511719</ele>
        <time>2026-07-05T08:37:08.000Z</time>
      </trkpt>
      <trkpt lat="44.9481" lon="5.73677">
        <ele>1120</ele>
        <time>2026-07-05T08:37:09.000Z</time>
      </trkpt>
      <trkpt lat="44.9481" lon="5.73677">
        <ele>1120</ele>
        <time>2026-07-05T08:37:10.000Z</time>
      </trkpt>
      <trkpt lat="44.94809" lon="5.73676">
        <ele>1120</ele>
        <time>2026-07-05T08:37:11.000Z</time>
      </trkpt>
      <trkpt lat="44.94808" lon="5.73675">
        <ele>1120</ele>
        <time>2026-07-05T08:37:12.000Z</time>
      </trkpt>
      <trkpt lat="44.94807" lon="5.73675">
        <ele>1120.1999511719</ele>
        <time>2026-07-05T08:37:13.000Z</time>
      </trkpt>
      <trkpt lat="44.94806" lon="5.73674">
        <ele>1120.5999755859</ele>
        <time>2026-07-05T08:37:14.000Z</time>
      </trkpt>
      <trkpt lat="44.94804" lon="5.73673">
        <ele>1120.5999755859</ele>
        <time>2026-07-05T08:37:15.000Z</time>
      </trkpt>
      <trkpt lat="44.94803" lon="5.73672">
        <ele>1121.1999511719</ele>
        <time>2026-07-05T08:37:16.000Z</time>
      </trkpt>
      <trkpt lat="44.94802" lon="5.73671">
        <ele>1121.4000244141</ele>
        <time>2026-07-05T08:37:17.000Z</time>
      </trkpt>
      <trkpt lat="44.94802" lon="5.7367">
        <ele>1121.8000488281</ele>
        <time>2026-07-05T08:37:18.000Z</time>
      </trkpt>
      <trkpt lat="44.94801" lon="5.7367">
        <ele>1122.1999511719</ele>
        <time>2026-07-05T08:37:19.000Z</time>
      </trkpt>
      <trkpt lat="44.948" lon="5.73669">
        <ele>1122.4000244141</ele>
        <time>2026-07-05T08:37:20.000Z</time>
      </trkpt>
      <trkpt lat="44.94799" lon="5.73668">
        <ele>1122.4000244141</ele>
        <time>2026-07-05T08:37:21.000Z</time>
      </trkpt>
      <trkpt lat="44.94798" lon="5.73668">
        <ele>1122.8000488281</ele>
        <time>2026-07-05T08:37:22.000Z</time>
      </trkpt>
      <trkpt lat="44.94797" lon="5.73668">
        <ele>1123</ele>
        <time>2026-07-05T08:37:23.000Z</time>
      </trkpt>
      <trkpt lat="44.94796" lon="5.73667">
        <ele>1123</ele>
        <time>2026-07-05T08:37:24.000Z</time>
      </trkpt>
      <trkpt lat="44.94795" lon="5.73667">
        <ele>1123.4000244141</ele>
        <time>2026-07-05T08:37:25.000Z</time>
      </trkpt>
      <trkpt lat="44.94794" lon="5.73666">
        <ele>1123.4000244141</ele>
        <time>2026-07-05T08:37:26.000Z</time>
      </trkpt>
      <trkpt lat="44.94793" lon="5.73665">
        <ele>1124</ele>
        <time>2026-07-05T08:37:27.000Z</time>
      </trkpt>
      <trkpt lat="44.94792" lon="5.73665">
        <ele>1124</ele>
        <time>2026-07-05T08:37:28.000Z</time>
      </trkpt>
      <trkpt lat="44.94791" lon="5.73665">
        <ele>1124.4000244141</ele>
        <time>2026-07-05T08:37:29.000Z</time>
      </trkpt>
      <trkpt lat="44.9479" lon="5.73664">
        <ele>1124.5999755859</ele>
        <time>2026-07-05T08:37:30.000Z</time>
      </trkpt>
      <trkpt lat="44.94789" lon="5.73664">
        <ele>1125</ele>
        <time>2026-07-05T08:37:31.000Z</time>
      </trkpt>
      <trkpt lat="44.94788" lon="5.73664">
        <ele>1125.1999511719</ele>
        <time>2026-07-05T08:37:32.000Z</time>
      </trkpt>
      <trkpt lat="44.94787" lon="5.73663">
        <ele>1125.4000244141</ele>
        <time>2026-07-05T08:37:33.000Z</time>
      </trkpt>
      <trkpt lat="44.94786" lon="5.73663">
        <ele>1126</ele>
        <time>2026-07-05T08:37:34.000Z</time>
      </trkpt>
      <trkpt lat="44.94784" lon="5.73662">
        <ele>1126</ele>
        <time>2026-07-05T08:37:35.000Z</time>
      </trkpt>
      <trkpt lat="44.94783" lon="5.73662">
        <ele>1126.1999511719</ele>
        <time>2026-07-05T08:37:36.000Z</time>
      </trkpt>
      <trkpt lat="44.94782" lon="5.73662">
        <ele>1126.1999511719</ele>
        <time>2026-07-05T08:37:37.000Z</time>
      </trkpt>
      <trkpt lat="44.94781" lon="5.73662">
        <ele>1126.4000244141</ele>
        <time>2026-07-05T08:37:38.000Z</time>
      </trkpt>
      <trkpt lat="44.9478" lon="5.73662">
        <ele>1126.5999755859</ele>
        <time>2026-07-05T08:37:39.000Z</time>
      </trkpt>
      <trkpt lat="44.94779" lon="5.73662">
        <ele>1126.8000488281</ele>
        <time>2026-07-05T08:37:40.000Z</time>
      </trkpt>
      <trkpt lat="44.94778" lon="5.73661">
        <ele>1127</ele>
        <time>2026-07-05T08:37:41.000Z</time>
      </trkpt>
      <trkpt lat="44.94777" lon="5.73661">
        <ele>1127.1999511719</ele>
        <time>2026-07-05T08:37:42.000Z</time>
      </trkpt>
      <trkpt lat="44.94776" lon="5.7366">
        <ele>1127.5999755859</ele>
        <time>2026-07-05T08:37:43.000Z</time>
      </trkpt>
      <trkpt lat="44.94776" lon="5.73659">
        <ele>1128</ele>
        <time>2026-07-05T08:37:44.000Z</time>
      </trkpt>
      <trkpt lat="44.94775" lon="5.73659">
        <ele>1128.5999755859</ele>
        <time>2026-07-05T08:37:45.000Z</time>
      </trkpt>
      <trkpt lat="44.94774" lon="5.73659">
        <ele>1129</ele>
        <time>2026-07-05T08:37:46.000Z</time>
      </trkpt>
      <trkpt lat="44.94772" lon="5.73659">
        <ele>1129.1999511719</ele>
        <time>2026-07-05T08:37:47.000Z</time>
      </trkpt>
      <trkpt lat="44.94771" lon="5.73659">
        <ele>1129.4000244141</ele>
        <time>2026-07-05T08:37:48.000Z</time>
      </trkpt>
      <trkpt lat="44.9477" lon="5.73659">
        <ele>1129.8000488281</ele>
        <time>2026-07-05T08:37:49.000Z</time>
      </trkpt>
      <trkpt lat="44.94769" lon="5.7366">
        <ele>1130</ele>
        <time>2026-07-05T08:37:50.000Z</time>
      </trkpt>
      <trkpt lat="44.94768" lon="5.7366">
        <ele>1130.4000244141</ele>
        <time>2026-07-05T08:37:51.000Z</time>
      </trkpt>
      <trkpt lat="44.94767" lon="5.7366">
        <ele>1130.8000488281</ele>
        <time>2026-07-05T08:37:52.000Z</time>
      </trkpt>
      <trkpt lat="44.94766" lon="5.7366">
        <ele>1131.1999511719</ele>
        <time>2026-07-05T08:37:53.000Z</time>
      </trkpt>
      <trkpt lat="44.94765" lon="5.7366">
        <ele>1131.4000244141</ele>
        <time>2026-07-05T08:37:54.000Z</time>
      </trkpt>
      <trkpt lat="44.94764" lon="5.73661">
        <ele>1131.5999755859</ele>
        <time>2026-07-05T08:37:55.000Z</time>
      </trkpt>
      <trkpt lat="44.94763" lon="5.73661">
        <ele>1131.8000488281</ele>
        <time>2026-07-05T08:37:56.000Z</time>
      </trkpt>
      <trkpt lat="44.94762" lon="5.73661">
        <ele>1132</ele>
        <time>2026-07-05T08:37:57.000Z</time>
      </trkpt>
      <trkpt lat="44.94761" lon="5.73661">
        <ele>1132.4000244141</ele>
        <time>2026-07-05T08:37:58.000Z</time>
      </trkpt>
      <trkpt lat="44.94759" lon="5.7366">
        <ele>1132.5999755859</ele>
        <time>2026-07-05T08:37:59.000Z</time>
      </trkpt>
      <trkpt lat="44.94758" lon="5.7366">
        <ele>1132.8000488281</ele>
        <time>2026-07-05T08:38:00.000Z</time>
      </trkpt>
      <trkpt lat="44.94757" lon="5.73659">
        <ele>1133</ele>
        <time>2026-07-05T08:38:01.000Z</time>
      </trkpt>
      <trkpt lat="44.94756" lon="5.73659">
        <ele>1133</ele>
        <time>2026-07-05T08:38:02.000Z</time>
      </trkpt>
      <trkpt lat="44.94754" lon="5.73658">
        <ele>1133.1999511719</ele>
        <time>2026-07-05T08:38:03.000Z</time>
      </trkpt>
      <trkpt lat="44.94752" lon="5.73657">
        <ele>1133.1999511719</ele>
        <time>2026-07-05T08:38:04.000Z</time>
      </trkpt>
      <trkpt lat="44.94751" lon="5.73656">
        <ele>1133.4000244141</ele>
        <time>2026-07-05T08:38:05.000Z</time>
      </trkpt>
      <trkpt lat="44.94749" lon="5.73654">
        <ele>1133.5999755859</ele>
        <time>2026-07-05T08:38:06.000Z</time>
      </trkpt>
      <trkpt lat="44.94747" lon="5.73654">
        <ele>1133.5999755859</ele>
        <time>2026-07-05T08:38:07.000Z</time>
      </trkpt>
      <trkpt lat="44.94746" lon="5.73653">
        <ele>1133.5999755859</ele>
        <time>2026-07-05T08:38:08.000Z</time>
      </trkpt>
      <trkpt lat="44.94745" lon="5.73652">
        <ele>1133.8000488281</ele>
        <time>2026-07-05T08:38:09.000Z</time>
      </trkpt>
      <trkpt lat="44.94743" lon="5.73651">
        <ele>1133.8000488281</ele>
        <time>2026-07-05T08:38:10.000Z</time>
      </trkpt>
      <trkpt lat="44.94742" lon="5.73651">
        <ele>1134</ele>
        <time>2026-07-05T08:38:11.000Z</time>
      </trkpt>
      <trkpt lat="44.9474" lon="5.7365">
        <ele>1134.1999511719</ele>
        <time>2026-07-05T08:38:12.000Z</time>
      </trkpt>
      <trkpt lat="44.94739" lon="5.7365">
        <ele>1134.4000244141</ele>
        <time>2026-07-05T08:38:13.000Z</time>
      </trkpt>
      <trkpt lat="44.94738" lon="5.7365">
        <ele>1134.4000244141</ele>
        <time>2026-07-05T08:38:14.000Z</time>
      </trkpt>
      <trkpt lat="44.94736" lon="5.73649">
        <ele>1134.4000244141</ele>
        <time>2026-07-05T08:38:15.000Z</time>
      </trkpt>
      <trkpt lat="44.94735" lon="5.73649">
        <ele>1134.4000244141</ele>
        <time>2026-07-05T08:38:16.000Z</time>
      </trkpt>
      <trkpt lat="44.94734" lon="5.73648">
        <ele>1134.4000244141</ele>
        <time>2026-07-05T08:38:17.000Z</time>
      </trkpt>
      <trkpt lat="44.94732" lon="5.73648">
        <ele>1134.5999755859</ele>
        <time>2026-07-05T08:38:18.000Z</time>
      </trkpt>
      <trkpt lat="44.9473" lon="5.73647">
        <ele>1134.8000488281</ele>
        <time>2026-07-05T08:38:19.000Z</time>
      </trkpt>
      <trkpt lat="44.94728" lon="5.73647">
        <ele>1135.4000244141</ele>
        <time>2026-07-05T08:38:20.000Z</time>
      </trkpt>
      <trkpt lat="44.94727" lon="5.73646">
        <ele>1135.5999755859</ele>
        <time>2026-07-05T08:38:21.000Z</time>
      </trkpt>
      <trkpt lat="44.94725" lon="5.73646">
        <ele>1135.8000488281</ele>
        <time>2026-07-05T08:38:22.000Z</time>
      </trkpt>
      <trkpt lat="44.94723" lon="5.73646">
        <ele>1136</ele>
        <time>2026-07-05T08:38:23.000Z</time>
      </trkpt>
      <trkpt lat="44.94722" lon="5.73645">
        <ele>1135.8000488281</ele>
        <time>2026-07-05T08:38:24.000Z</time>
      </trkpt>
      <trkpt lat="44.9472" lon="5.73644">
        <ele>1135.5999755859</ele>
        <time>2026-07-05T08:38:25.000Z</time>
      </trkpt>
      <trkpt lat="44.94719" lon="5.73643">
        <ele>1135.5999755859</ele>
        <time>2026-07-05T08:38:26.000Z</time>
      </trkpt>
      <trkpt lat="44.94717" lon="5.73642">
        <ele>1135.4000244141</ele>
        <time>2026-07-05T08:38:27.000Z</time>
      </trkpt>
      <trkpt lat="44.94716" lon="5.73641">
        <ele>1135.1999511719</ele>
        <time>2026-07-05T08:38:28.000Z</time>
      </trkpt>
      <trkpt lat="44.94714" lon="5.7364">
        <ele>1134.4000244141</ele>
        <time>2026-07-05T08:38:29.000Z</time>
      </trkpt>
      <trkpt lat="44.94713" lon="5.73639">
        <ele>1134.1999511719</ele>
        <time>2026-07-05T08:38:30.000Z</time>
      </trkpt>
      <trkpt lat="44.94712" lon="5.73638">
        <ele>1134</ele>
        <time>2026-07-05T08:38:31.000Z</time>
      </trkpt>
      <trkpt lat="44.9471" lon="5.73637">
        <ele>1133.8000488281</ele>
        <time>2026-07-05T08:38:32.000Z</time>
      </trkpt>
      <trkpt lat="44.94709" lon="5.73636">
        <ele>1133.4000244141</ele>
        <time>2026-07-05T08:38:33.000Z</time>
      </trkpt>
      <trkpt lat="44.94708" lon="5.73634">
        <ele>1133.4000244141</ele>
        <time>2026-07-05T08:38:34.000Z</time>
      </trkpt>
      <trkpt lat="44.94706" lon="5.73633">
        <ele>1133.4000244141</ele>
        <time>2026-07-05T08:38:35.000Z</time>
      </trkpt>
      <trkpt lat="44.94705" lon="5.73632">
        <ele>1133.5999755859</ele>
        <time>2026-07-05T08:38:36.000Z</time>
      </trkpt>
      <trkpt lat="44.94704" lon="5.7363">
        <ele>1133.8000488281</ele>
        <time>2026-07-05T08:38:37.000Z</time>
      </trkpt>
      <trkpt lat="44.94702" lon="5.73628">
        <ele>1134</ele>
        <time>2026-07-05T08:38:38.000Z</time>
      </trkpt>
      <trkpt lat="44.94701" lon="5.73627">
        <ele>1134.4000244141</ele>
        <time>2026-07-05T08:38:39.000Z</time>
      </trkpt>
      <trkpt lat="44.947" lon="5.73626">
        <ele>1134.8000488281</ele>
        <time>2026-07-05T08:38:40.000Z</time>
      </trkpt>
      <trkpt lat="44.94699" lon="5.73625">
        <ele>1135.1999511719</ele>
        <time>2026-07-05T08:38:41.000Z</time>
      </trkpt>
      <trkpt lat="44.94697" lon="5.73623">
        <ele>1135.4000244141</ele>
        <time>2026-07-05T08:38:42.000Z</time>
      </trkpt>
      <trkpt lat="44.94696" lon="5.73622">
        <ele>1135.5999755859</ele>
        <time>2026-07-05T08:38:43.000Z</time>
      </trkpt>
      <trkpt lat="44.94695" lon="5.7362">
        <ele>1135.8000488281</ele>
        <time>2026-07-05T08:38:44.000Z</time>
      </trkpt>
      <trkpt lat="44.94694" lon="5.73619">
        <ele>1136</ele>
        <time>2026-07-05T08:38:45.000Z</time>
      </trkpt>
      <trkpt lat="44.94693" lon="5.73617">
        <ele>1136.1999511719</ele>
        <time>2026-07-05T08:38:46.000Z</time>
      </trkpt>
      <trkpt lat="44.94692" lon="5.73616">
        <ele>1136.4000244141</ele>
        <time>2026-07-05T08:38:47.000Z</time>
      </trkpt>
      <trkpt lat="44.9469" lon="5.73615">
        <ele>1136.8000488281</ele>
        <time>2026-07-05T08:38:48.000Z</time>
      </trkpt>
      <trkpt lat="44.94689" lon="5.73614">
        <ele>1137</ele>
        <time>2026-07-05T08:38:49.000Z</time>
      </trkpt>
      <trkpt lat="44.94688" lon="5.73613">
        <ele>1137.1999511719</ele>
        <time>2026-07-05T08:38:50.000Z</time>
      </trkpt>
      <trkpt lat="44.94687" lon="5.73612">
        <ele>1137.4000244141</ele>
        <time>2026-07-05T08:38:51.000Z</time>
      </trkpt>
      <trkpt lat="44.94686" lon="5.73611">
        <ele>1137.4000244141</ele>
        <time>2026-07-05T08:38:52.000Z</time>
      </trkpt>
      <trkpt lat="44.94685" lon="5.7361">
        <ele>1137.8000488281</ele>
        <time>2026-07-05T08:38:53.000Z</time>
      </trkpt>
      <trkpt lat="44.94684" lon="5.7361">
        <ele>1137.8000488281</ele>
        <time>2026-07-05T08:38:54.000Z</time>
      </trkpt>
      <trkpt lat="44.94682" lon="5.73609">
        <ele>1138</ele>
        <time>2026-07-05T08:38:55.000Z</time>
      </trkpt>
      <trkpt lat="44.94681" lon="5.73609">
        <ele>1138.1999511719</ele>
        <time>2026-07-05T08:38:56.000Z</time>
      </trkpt>
      <trkpt lat="44.9468" lon="5.73608">
        <ele>1138.4000244141</ele>
        <time>2026-07-05T08:38:57.000Z</time>
      </trkpt>
      <trkpt lat="44.94679" lon="5.73608">
        <ele>1138.5999755859</ele>
        <time>2026-07-05T08:38:58.000Z</time>
      </trkpt>
      <trkpt lat="44.94677" lon="5.73607">
        <ele>1138.8000488281</ele>
        <time>2026-07-05T08:38:59.000Z</time>
      </trkpt>
      <trkpt lat="44.94675" lon="5.73607">
        <ele>1138.8000488281</ele>
        <time>2026-07-05T08:39:00.000Z</time>
      </trkpt>
      <trkpt lat="44.94673" lon="5.73606">
        <ele>1139</ele>
        <time>2026-07-05T08:39:01.000Z</time>
      </trkpt>
      <trkpt lat="44.94671" lon="5.73605">
        <ele>1139.1999511719</ele>
        <time>2026-07-05T08:39:02.000Z</time>
      </trkpt>
      <trkpt lat="44.94669" lon="5.73604">
        <ele>1139.1999511719</ele>
        <time>2026-07-05T08:39:03.000Z</time>
      </trkpt>
      <trkpt lat="44.94668" lon="5.73603">
        <ele>1139.4000244141</ele>
        <time>2026-07-05T08:39:04.000Z</time>
      </trkpt>
      <trkpt lat="44.94666" lon="5.73602">
        <ele>1139.5999755859</ele>
        <time>2026-07-05T08:39:05.000Z</time>
      </trkpt>
      <trkpt lat="44.94664" lon="5.73601">
        <ele>1139.5999755859</ele>
        <time>2026-07-05T08:39:06.000Z</time>
      </trkpt>
      <trkpt lat="44.94663" lon="5.73601">
        <ele>1139.8000488281</ele>
        <time>2026-07-05T08:39:07.000Z</time>
      </trkpt>
      <trkpt lat="44.94661" lon="5.736">
        <ele>1140</ele>
        <time>2026-07-05T08:39:08.000Z</time>
      </trkpt>
      <trkpt lat="44.9466" lon="5.736">
        <ele>1140.1999511719</ele>
        <time>2026-07-05T08:39:09.000Z</time>
      </trkpt>
      <trkpt lat="44.94659" lon="5.736">
        <ele>1140.4000244141</ele>
        <time>2026-07-05T08:39:10.000Z</time>
      </trkpt>
      <trkpt lat="44.94658" lon="5.73599">
        <ele>1140.5999755859</ele>
        <time>2026-07-05T08:39:11.000Z</time>
      </trkpt>
      <trkpt lat="44.94657" lon="5.73599">
        <ele>1141</ele>
        <time>2026-07-05T08:39:12.000Z</time>
      </trkpt>
      <trkpt lat="44.94656" lon="5.73599">
        <ele>1141.1999511719</ele>
        <time>2026-07-05T08:39:13.000Z</time>
      </trkpt>
      <trkpt lat="44.94655" lon="5.73598">
        <ele>1141.5999755859</ele>
        <time>2026-07-05T08:39:14.000Z</time>
      </trkpt>
      <trkpt lat="44.94653" lon="5.73598">
        <ele>1141.8000488281</ele>
        <time>2026-07-05T08:39:15.000Z</time>
      </trkpt>
      <trkpt lat="44.94652" lon="5.73597">
        <ele>1142.1999511719</ele>
        <time>2026-07-05T08:39:16.000Z</time>
      </trkpt>
      <trkpt lat="44.94651" lon="5.73596">
        <ele>1142.4000244141</ele>
        <time>2026-07-05T08:39:17.000Z</time>
      </trkpt>
      <trkpt lat="44.94649" lon="5.73596">
        <ele>1142.8000488281</ele>
        <time>2026-07-05T08:39:18.000Z</time>
      </trkpt>
      <trkpt lat="44.94648" lon="5.73596">
        <ele>1143</ele>
        <time>2026-07-05T08:39:19.000Z</time>
      </trkpt>
      <trkpt lat="44.94647" lon="5.73595">
        <ele>1143</ele>
        <time>2026-07-05T08:39:20.000Z</time>
      </trkpt>
      <trkpt lat="44.94645" lon="5.73595">
        <ele>1143.1999511719</ele>
        <time>2026-07-05T08:39:21.000Z</time>
      </trkpt>
      <trkpt lat="44.94644" lon="5.73595">
        <ele>1143.4000244141</ele>
        <time>2026-07-05T08:39:22.000Z</time>
      </trkpt>
      <trkpt lat="44.94642" lon="5.73595">
        <ele>1143.8000488281</ele>
        <time>2026-07-05T08:39:23.000Z</time>
      </trkpt>
      <trkpt lat="44.94641" lon="5.73595">
        <ele>1144</ele>
        <time>2026-07-05T08:39:24.000Z</time>
      </trkpt>
      <trkpt lat="44.94639" lon="5.73595">
        <ele>1144.1999511719</ele>
        <time>2026-07-05T08:39:25.000Z</time>
      </trkpt>
      <trkpt lat="44.94638" lon="5.73594">
        <ele>1144.4000244141</ele>
        <time>2026-07-05T08:39:26.000Z</time>
      </trkpt>
      <trkpt lat="44.94637" lon="5.73594">
        <ele>1144.5999755859</ele>
        <time>2026-07-05T08:39:27.000Z</time>
      </trkpt>
      <trkpt lat="44.94636" lon="5.73594">
        <ele>1144.8000488281</ele>
        <time>2026-07-05T08:39:28.000Z</time>
      </trkpt>
      <trkpt lat="44.94635" lon="5.73594">
        <ele>1145</ele>
        <time>2026-07-05T08:39:29.000Z</time>
      </trkpt>
      <trkpt lat="44.94634" lon="5.73594">
        <ele>1145.4000244141</ele>
        <time>2026-07-05T08:39:30.000Z</time>
      </trkpt>
      <trkpt lat="44.94633" lon="5.73594">
        <ele>1145.8000488281</ele>
        <time>2026-07-05T08:39:31.000Z</time>
      </trkpt>
      <trkpt lat="44.94632" lon="5.73594">
        <ele>1146</ele>
        <time>2026-07-05T08:39:32.000Z</time>
      </trkpt>
      <trkpt lat="44.94631" lon="5.73594">
        <ele>1146.4000244141</ele>
        <time>2026-07-05T08:39:33.000Z</time>
      </trkpt>
      <trkpt lat="44.94629" lon="5.73595">
        <ele>1146.5999755859</ele>
        <time>2026-07-05T08:39:34.000Z</time>
      </trkpt>
      <trkpt lat="44.94628" lon="5.73594">
        <ele>1147</ele>
        <time>2026-07-05T08:39:35.000Z</time>
      </trkpt>
      <trkpt lat="44.94626" lon="5.73594">
        <ele>1147.1999511719</ele>
        <time>2026-07-05T08:39:36.000Z</time>
      </trkpt>
      <trkpt lat="44.94625" lon="5.73593">
        <ele>1147.4000244141</ele>
        <time>2026-07-05T08:39:37.000Z</time>
      </trkpt>
      <trkpt lat="44.94623" lon="5.73593">
        <ele>1147.4000244141</ele>
        <time>2026-07-05T08:39:38.000Z</time>
      </trkpt>
      <trkpt lat="44.94621" lon="5.73591">
        <ele>1147.5999755859</ele>
        <time>2026-07-05T08:39:39.000Z</time>
      </trkpt>
      <trkpt lat="44.9462" lon="5.73591">
        <ele>1147.5999755859</ele>
        <time>2026-07-05T08:39:40.000Z</time>
      </trkpt>
      <trkpt lat="44.94617" lon="5.7359">
        <ele>1147.4000244141</ele>
        <time>2026-07-05T08:39:41.000Z</time>
      </trkpt>
      <trkpt lat="44.94616" lon="5.7359">
        <ele>1147.1999511719</ele>
        <time>2026-07-05T08:39:42.000Z</time>
      </trkpt>
      <trkpt lat="44.94614" lon="5.73589">
        <ele>1146.4000244141</ele>
        <time>2026-07-05T08:39:43.000Z</time>
      </trkpt>
      <trkpt lat="44.94612" lon="5.73589">
        <ele>1146</ele>
        <time>2026-07-05T08:39:44.000Z</time>
      </trkpt>
      <trkpt lat="44.94611" lon="5.73588">
        <ele>1145.5999755859</ele>
        <time>2026-07-05T08:39:45.000Z</time>
      </trkpt>
      <trkpt lat="44.94609" lon="5.73588">
        <ele>1145.5999755859</ele>
        <time>2026-07-05T08:39:46.000Z</time>
      </trkpt>
      <trkpt lat="44.94606" lon="5.73587">
        <ele>1145.8000488281</ele>
        <time>2026-07-05T08:39:47.000Z</time>
      </trkpt>
      <trkpt lat="44.94605" lon="5.73586">
        <ele>1145.8000488281</ele>
        <time>2026-07-05T08:39:48.000Z</time>
      </trkpt>
      <trkpt lat="44.94603" lon="5.73585">
        <ele>1146</ele>
        <time>2026-07-05T08:39:49.000Z</time>
      </trkpt>
      <trkpt lat="44.94601" lon="5.73584">
        <ele>1146.1999511719</ele>
        <time>2026-07-05T08:39:50.000Z</time>
      </trkpt>
      <trkpt lat="44.94599" lon="5.73583">
        <ele>1146.4000244141</ele>
        <time>2026-07-05T08:39:51.000Z</time>
      </trkpt>
      <trkpt lat="44.94597" lon="5.73582">
        <ele>1146.5999755859</ele>
        <time>2026-07-05T08:39:52.000Z</time>
      </trkpt>
      <trkpt lat="44.94596" lon="5.73582">
        <ele>1147</ele>
        <time>2026-07-05T08:39:53.000Z</time>
      </trkpt>
      <trkpt lat="44.94594" lon="5.73581">
        <ele>1147</ele>
        <time>2026-07-05T08:39:54.000Z</time>
      </trkpt>
      <trkpt lat="44.94592" lon="5.7358">
        <ele>1147</ele>
        <time>2026-07-05T08:39:55.000Z</time>
      </trkpt>
      <trkpt lat="44.9459" lon="5.73579">
        <ele>1147</ele>
        <time>2026-07-05T08:39:56.000Z</time>
      </trkpt>
      <trkpt lat="44.94589" lon="5.73578">
        <ele>1147</ele>
        <time>2026-07-05T08:39:57.000Z</time>
      </trkpt>
      <trkpt lat="44.94587" lon="5.73577">
        <ele>1147.1999511719</ele>
        <time>2026-07-05T08:39:58.000Z</time>
      </trkpt>
      <trkpt lat="44.94586" lon="5.73576">
        <ele>1147.1999511719</ele>
        <time>2026-07-05T08:39:59.000Z</time>
      </trkpt>
      <trkpt lat="44.94585" lon="5.73575">
        <ele>1147.5999755859</ele>
        <time>2026-07-05T08:40:00.000Z</time>
      </trkpt>
      <trkpt lat="44.94584" lon="5.73574">
        <ele>1148.4000244141</ele>
        <time>2026-07-05T08:40:01.000Z</time>
      </trkpt>
      <trkpt lat="44.94582" lon="5.73572">
        <ele>1148.8000488281</ele>
        <time>2026-07-05T08:40:02.000Z</time>
      </trkpt>
      <trkpt lat="44.9458" lon="5.7357">
        <ele>1149.5999755859</ele>
        <time>2026-07-05T08:40:03.000Z</time>
      </trkpt>
      <trkpt lat="44.94579" lon="5.73569">
        <ele>1150.4000244141</ele>
        <time>2026-07-05T08:40:04.000Z</time>
      </trkpt>
      <trkpt lat="44.94578" lon="5.73567">
        <ele>1150.8000488281</ele>
        <time>2026-07-05T08:40:05.000Z</time>
      </trkpt>
      <trkpt lat="44.94576" lon="5.73565">
        <ele>1150.8000488281</ele>
        <time>2026-07-05T08:40:06.000Z</time>
      </trkpt>
      <trkpt lat="44.94575" lon="5.73564">
        <ele>1150.5999755859</ele>
        <time>2026-07-05T08:40:07.000Z</time>
      </trkpt>
      <trkpt lat="44.94573" lon="5.73562">
        <ele>1150.4000244141</ele>
        <time>2026-07-05T08:40:08.000Z</time>
      </trkpt>
      <trkpt lat="44.94572" lon="5.73561">
        <ele>1150.1999511719</ele>
        <time>2026-07-05T08:40:09.000Z</time>
      </trkpt>
      <trkpt lat="44.9457" lon="5.73559">
        <ele>1149.8000488281</ele>
        <time>2026-07-05T08:40:10.000Z</time>
      </trkpt>
      <trkpt lat="44.94569" lon="5.73558">
        <ele>1149.8000488281</ele>
        <time>2026-07-05T08:40:11.000Z</time>
      </trkpt>
      <trkpt lat="44.94567" lon="5.73557">
        <ele>1149.8000488281</ele>
        <time>2026-07-05T08:40:12.000Z</time>
      </trkpt>
      <trkpt lat="44.94565" lon="5.73555">
        <ele>1149.8000488281</ele>
        <time>2026-07-05T08:40:13.000Z</time>
      </trkpt>
      <trkpt lat="44.94564" lon="5.73555">
        <ele>1150</ele>
        <time>2026-07-05T08:40:14.000Z</time>
      </trkpt>
      <trkpt lat="44.94563" lon="5.73554">
        <ele>1150.1999511719</ele>
        <time>2026-07-05T08:40:15.000Z</time>
      </trkpt>
      <trkpt lat="44.94561" lon="5.73553">
        <ele>1150.4000244141</ele>
        <time>2026-07-05T08:40:16.000Z</time>
      </trkpt>
      <trkpt lat="44.94561" lon="5.73552">
        <ele>1150.5999755859</ele>
        <time>2026-07-05T08:40:17.000Z</time>
      </trkpt>
      <trkpt lat="44.94559" lon="5.73552">
        <ele>1150.8000488281</ele>
        <time>2026-07-05T08:40:18.000Z</time>
      </trkpt>
      <trkpt lat="44.94558" lon="5.73551">
        <ele>1151.1999511719</ele>
        <time>2026-07-05T08:40:19.000Z</time>
      </trkpt>
      <trkpt lat="44.94556" lon="5.7355">
        <ele>1151.4000244141</ele>
        <time>2026-07-05T08:40:20.000Z</time>
      </trkpt>
      <trkpt lat="44.94555" lon="5.7355">
        <ele>1151.5999755859</ele>
        <time>2026-07-05T08:40:21.000Z</time>
      </trkpt>
      <trkpt lat="44.94553" lon="5.7355">
        <ele>1151.8000488281</ele>
        <time>2026-07-05T08:40:22.000Z</time>
      </trkpt>
      <trkpt lat="44.94551" lon="5.73549">
        <ele>1152</ele>
        <time>2026-07-05T08:40:23.000Z</time>
      </trkpt>
      <trkpt lat="44.94549" lon="5.73549">
        <ele>1152.1999511719</ele>
        <time>2026-07-05T08:40:24.000Z</time>
      </trkpt>
      <trkpt lat="44.94547" lon="5.73548">
        <ele>1152.4000244141</ele>
        <time>2026-07-05T08:40:25.000Z</time>
      </trkpt>
      <trkpt lat="44.94545" lon="5.73547">
        <ele>1152.5999755859</ele>
        <time>2026-07-05T08:40:26.000Z</time>
      </trkpt>
      <trkpt lat="44.94543" lon="5.73547">
        <ele>1152.8000488281</ele>
        <time>2026-07-05T08:40:27.000Z</time>
      </trkpt>
      <trkpt lat="44.94541" lon="5.73546">
        <ele>1153</ele>
        <time>2026-07-05T08:40:28.000Z</time>
      </trkpt>
      <trkpt lat="44.94539" lon="5.73545">
        <ele>1153.1999511719</ele>
        <time>2026-07-05T08:40:29.000Z</time>
      </trkpt>
      <trkpt lat="44.94537" lon="5.73544">
        <ele>1153.1999511719</ele>
        <time>2026-07-05T08:40:30.000Z</time>
      </trkpt>
      <trkpt lat="44.94536" lon="5.73543">
        <ele>1153.4000244141</ele>
        <time>2026-07-05T08:40:31.000Z</time>
      </trkpt>
      <trkpt lat="44.94534" lon="5.73542">
        <ele>1153.5999755859</ele>
        <time>2026-07-05T08:40:32.000Z</time>
      </trkpt>
      <trkpt lat="44.94533" lon="5.73542">
        <ele>1153.5999755859</ele>
        <time>2026-07-05T08:40:33.000Z</time>
      </trkpt>
      <trkpt lat="44.94532" lon="5.73542">
        <ele>1153.8000488281</ele>
        <time>2026-07-05T08:40:34.000Z</time>
      </trkpt>
      <trkpt lat="44.9453" lon="5.73541">
        <ele>1154.1999511719</ele>
        <time>2026-07-05T08:40:35.000Z</time>
      </trkpt>
      <trkpt lat="44.94529" lon="5.73541">
        <ele>1154.4000244141</ele>
        <time>2026-07-05T08:40:36.000Z</time>
      </trkpt>
      <trkpt lat="44.94528" lon="5.73541">
        <ele>1154.5999755859</ele>
        <time>2026-07-05T08:40:37.000Z</time>
      </trkpt>
      <trkpt lat="44.94527" lon="5.73542">
        <ele>1154.5999755859</ele>
        <time>2026-07-05T08:40:38.000Z</time>
      </trkpt>
      <trkpt lat="44.94525" lon="5.73542">
        <ele>1154.8000488281</ele>
        <time>2026-07-05T08:40:39.000Z</time>
      </trkpt>
      <trkpt lat="44.94524" lon="5.73543">
        <ele>1155</ele>
        <time>2026-07-05T08:40:40.000Z</time>
      </trkpt>
      <trkpt lat="44.94522" lon="5.73544">
        <ele>1155</ele>
        <time>2026-07-05T08:40:41.000Z</time>
      </trkpt>
      <trkpt lat="44.9452" lon="5.73544">
        <ele>1155.1999511719</ele>
        <time>2026-07-05T08:40:42.000Z</time>
      </trkpt>
      <trkpt lat="44.94518" lon="5.73544">
        <ele>1155.1999511719</ele>
        <time>2026-07-05T08:40:43.000Z</time>
      </trkpt>
      <trkpt lat="44.94515" lon="5.73544">
        <ele>1155</ele>
        <time>2026-07-05T08:40:44.000Z</time>
      </trkpt>
      <trkpt lat="44.94513" lon="5.73545">
        <ele>1155</ele>
        <time>2026-07-05T08:40:45.000Z</time>
      </trkpt>
      <trkpt lat="44.94512" lon="5.73545">
        <ele>1155</ele>
        <time>2026-07-05T08:40:46.000Z</time>
      </trkpt>
      <trkpt lat="44.9451" lon="5.73545">
        <ele>1155</ele>
        <time>2026-07-05T08:40:47.000Z</time>
      </trkpt>
      <trkpt lat="44.94508" lon="5.73545">
        <ele>1155</ele>
        <time>2026-07-05T08:40:48.000Z</time>
      </trkpt>
      <trkpt lat="44.94506" lon="5.73546">
        <ele>1155</ele>
        <time>2026-07-05T08:40:49.000Z</time>
      </trkpt>
      <trkpt lat="44.94504" lon="5.73545">
        <ele>1155.1999511719</ele>
        <time>2026-07-05T08:40:50.000Z</time>
      </trkpt>
      <trkpt lat="44.94502" lon="5.73545">
        <ele>1155.1999511719</ele>
        <time>2026-07-05T08:40:51.000Z</time>
      </trkpt>
      <trkpt lat="44.94501" lon="5.73545">
        <ele>1155.4000244141</ele>
        <time>2026-07-05T08:40:52.000Z</time>
      </trkpt>
      <trkpt lat="44.94499" lon="5.73545">
        <ele>1155.4000244141</ele>
        <time>2026-07-05T08:40:53.000Z</time>
      </trkpt>
      <trkpt lat="44.94498" lon="5.73545">
        <ele>1155.5999755859</ele>
        <time>2026-07-05T08:40:54.000Z</time>
      </trkpt>
      <trkpt lat="44.94496" lon="5.73545">
        <ele>1155.8000488281</ele>
        <time>2026-07-05T08:40:55.000Z</time>
      </trkpt>
      <trkpt lat="44.94494" lon="5.73545">
        <ele>1155.8000488281</ele>
        <time>2026-07-05T08:40:56.000Z</time>
      </trkpt>
      <trkpt lat="44.94492" lon="5.73545">
        <ele>1156</ele>
        <time>2026-07-05T08:40:57.000Z</time>
      </trkpt>
      <trkpt lat="44.9449" lon="5.73545">
        <ele>1156</ele>
        <time>2026-07-05T08:40:58.000Z</time>
      </trkpt>
      <trkpt lat="44.94488" lon="5.73545">
        <ele>1156.1999511719</ele>
        <time>2026-07-05T08:40:59.000Z</time>
      </trkpt>
      <trkpt lat="44.94487" lon="5.73545">
        <ele>1156.1999511719</ele>
        <time>2026-07-05T08:41:00.000Z</time>
      </trkpt>
      <trkpt lat="44.94485" lon="5.73544">
        <ele>1156.4000244141</ele>
        <time>2026-07-05T08:41:01.000Z</time>
      </trkpt>
      <trkpt lat="44.94483" lon="5.73544">
        <ele>1156.4000244141</ele>
        <time>2026-07-05T08:41:02.000Z</time>
      </trkpt>
      <trkpt lat="44.94482" lon="5.73544">
        <ele>1156.8000488281</ele>
        <time>2026-07-05T08:41:03.000Z</time>
      </trkpt>
      <trkpt lat="44.9448" lon="5.73545">
        <ele>1157</ele>
        <time>2026-07-05T08:41:04.000Z</time>
      </trkpt>
      <trkpt lat="44.94478" lon="5.73545">
        <ele>1157</ele>
        <time>2026-07-05T08:41:05.000Z</time>
      </trkpt>
      <trkpt lat="44.94476" lon="5.73545">
        <ele>1157</ele>
        <time>2026-07-05T08:41:06.000Z</time>
      </trkpt>
      <trkpt lat="44.94473" lon="5.73545">
        <ele>1157.1999511719</ele>
        <time>2026-07-05T08:41:07.000Z</time>
      </trkpt>
      <trkpt lat="44.94471" lon="5.73545">
        <ele>1157.1999511719</ele>
        <time>2026-07-05T08:41:08.000Z</time>
      </trkpt>
      <trkpt lat="44.94469" lon="5.73545">
        <ele>1157.1999511719</ele>
        <time>2026-07-05T08:41:09.000Z</time>
      </trkpt>
      <trkpt lat="44.94467" lon="5.73545">
        <ele>1157.4000244141</ele>
        <time>2026-07-05T08:41:10.000Z</time>
      </trkpt>
      <trkpt lat="44.94465" lon="5.73544">
        <ele>1157.4000244141</ele>
        <time>2026-07-05T08:41:11.000Z</time>
      </trkpt>
      <trkpt lat="44.94463" lon="5.73544">
        <ele>1157.5999755859</ele>
        <time>2026-07-05T08:41:12.000Z</time>
      </trkpt>
      <trkpt lat="44.94462" lon="5.73544">
        <ele>1157.8000488281</ele>
        <time>2026-07-05T08:41:13.000Z</time>
      </trkpt>
      <trkpt lat="44.9446" lon="5.73544">
        <ele>1157.8000488281</ele>
        <time>2026-07-05T08:41:14.000Z</time>
      </trkpt>
      <trkpt lat="44.94459" lon="5.73544">
        <ele>1158.1999511719</ele>
        <time>2026-07-05T08:41:15.000Z</time>
      </trkpt>
      <trkpt lat="44.94457" lon="5.73544">
        <ele>1158.4000244141</ele>
        <time>2026-07-05T08:41:16.000Z</time>
      </trkpt>
      <trkpt lat="44.94455" lon="5.73544">
        <ele>1158.8000488281</ele>
        <time>2026-07-05T08:41:17.000Z</time>
      </trkpt>
      <trkpt lat="44.94454" lon="5.73544">
        <ele>1159</ele>
        <time>2026-07-05T08:41:18.000Z</time>
      </trkpt>
      <trkpt lat="44.94452" lon="5.73545">
        <ele>1159.1999511719</ele>
        <time>2026-07-05T08:41:19.000Z</time>
      </trkpt>
      <trkpt lat="44.9445" lon="5.73546">
        <ele>1159.1999511719</ele>
        <time>2026-07-05T08:41:20.000Z</time>
      </trkpt>
      <trkpt lat="44.94449" lon="5.73546">
        <ele>1159.1999511719</ele>
        <time>2026-07-05T08:41:21.000Z</time>
      </trkpt>
      <trkpt lat="44.94448" lon="5.73547">
        <ele>1159.1999511719</ele>
        <time>2026-07-05T08:41:22.000Z</time>
      </trkpt>
      <trkpt lat="44.94446" lon="5.73548">
        <ele>1159.4000244141</ele>
        <time>2026-07-05T08:41:23.000Z</time>
      </trkpt>
      <trkpt lat="44.94445" lon="5.73548">
        <ele>1159.4000244141</ele>
        <time>2026-07-05T08:41:24.000Z</time>
      </trkpt>
      <trkpt lat="44.94443" lon="5.73548">
        <ele>1159.5999755859</ele>
        <time>2026-07-05T08:41:25.000Z</time>
      </trkpt>
      <trkpt lat="44.94441" lon="5.73548">
        <ele>1159.8000488281</ele>
        <time>2026-07-05T08:41:26.000Z</time>
      </trkpt>
      <trkpt lat="44.9444" lon="5.73548">
        <ele>1160</ele>
        <time>2026-07-05T08:41:27.000Z</time>
      </trkpt>
      <trkpt lat="44.94438" lon="5.73548">
        <ele>1160.1999511719</ele>
        <time>2026-07-05T08:41:28.000Z</time>
      </trkpt>
      <trkpt lat="44.94436" lon="5.73548">
        <ele>1160.4000244141</ele>
        <time>2026-07-05T08:41:29.000Z</time>
      </trkpt>
      <trkpt lat="44.94434" lon="5.73549">
        <ele>1160.5999755859</ele>
        <time>2026-07-05T08:41:30.000Z</time>
      </trkpt>
      <trkpt lat="44.94433" lon="5.73549">
        <ele>1160.8000488281</ele>
        <time>2026-07-05T08:41:31.000Z</time>
      </trkpt>
      <trkpt lat="44.94431" lon="5.73549">
        <ele>1161</ele>
        <time>2026-07-05T08:41:32.000Z</time>
      </trkpt>
      <trkpt lat="44.9443" lon="5.73549">
        <ele>1161</ele>
        <time>2026-07-05T08:41:33.000Z</time>
      </trkpt>
      <trkpt lat="44.94428" lon="5.73549">
        <ele>1161.1999511719</ele>
        <time>2026-07-05T08:41:34.000Z</time>
      </trkpt>
      <trkpt lat="44.94426" lon="5.73549">
        <ele>1161.4000244141</ele>
        <time>2026-07-05T08:41:35.000Z</time>
      </trkpt>
      <trkpt lat="44.94424" lon="5.73549">
        <ele>1161.5999755859</ele>
        <time>2026-07-05T08:41:36.000Z</time>
      </trkpt>
      <trkpt lat="44.94422" lon="5.73549">
        <ele>1161.8000488281</ele>
        <time>2026-07-05T08:41:37.000Z</time>
      </trkpt>
      <trkpt lat="44.94421" lon="5.73549">
        <ele>1162</ele>
        <time>2026-07-05T08:41:38.000Z</time>
      </trkpt>
      <trkpt lat="44.94419" lon="5.7355">
        <ele>1162.1999511719</ele>
        <time>2026-07-05T08:41:39.000Z</time>
      </trkpt>
      <trkpt lat="44.94417" lon="5.7355">
        <ele>1162.1999511719</ele>
        <time>2026-07-05T08:41:40.000Z</time>
      </trkpt>
      <trkpt lat="44.94415" lon="5.7355">
        <ele>1162.4000244141</ele>
        <time>2026-07-05T08:41:41.000Z</time>
      </trkpt>
      <trkpt lat="44.94413" lon="5.73551">
        <ele>1162.4000244141</ele>
        <time>2026-07-05T08:41:42.000Z</time>
      </trkpt>
      <trkpt lat="44.94411" lon="5.73551">
        <ele>1162.5999755859</ele>
        <time>2026-07-05T08:41:43.000Z</time>
      </trkpt>
      <trkpt lat="44.94409" lon="5.73551">
        <ele>1162.8000488281</ele>
        <time>2026-07-05T08:41:44.000Z</time>
      </trkpt>
      <trkpt lat="44.94407" lon="5.73552">
        <ele>1163</ele>
        <time>2026-07-05T08:41:45.000Z</time>
      </trkpt>
      <trkpt lat="44.94405" lon="5.73553">
        <ele>1163.1999511719</ele>
        <time>2026-07-05T08:41:46.000Z</time>
      </trkpt>
      <trkpt lat="44.94403" lon="5.73553">
        <ele>1163.1999511719</ele>
        <time>2026-07-05T08:41:47.000Z</time>
      </trkpt>
      <trkpt lat="44.94402" lon="5.73553">
        <ele>1163.4000244141</ele>
        <time>2026-07-05T08:41:48.000Z</time>
      </trkpt>
      <trkpt lat="44.944" lon="5.73553">
        <ele>1163.5999755859</ele>
        <time>2026-07-05T08:41:49.000Z</time>
      </trkpt>
      <trkpt lat="44.94398" lon="5.73554">
        <ele>1163.5999755859</ele>
        <time>2026-07-05T08:41:50.000Z</time>
      </trkpt>
      <trkpt lat="44.94397" lon="5.73554">
        <ele>1163.8000488281</ele>
        <time>2026-07-05T08:41:51.000Z</time>
      </trkpt>
      <trkpt lat="44.94395" lon="5.73554">
        <ele>1163.8000488281</ele>
        <time>2026-07-05T08:41:52.000Z</time>
      </trkpt>
      <trkpt lat="44.94393" lon="5.73555">
        <ele>1164</ele>
        <time>2026-07-05T08:41:53.000Z</time>
      </trkpt>
      <trkpt lat="44.94391" lon="5.73555">
        <ele>1164.1999511719</ele>
        <time>2026-07-05T08:41:54.000Z</time>
      </trkpt>
      <trkpt lat="44.9439" lon="5.73556">
        <ele>1164.4000244141</ele>
        <time>2026-07-05T08:41:55.000Z</time>
      </trkpt>
      <trkpt lat="44.94388" lon="5.73557">
        <ele>1164.8000488281</ele>
        <time>2026-07-05T08:41:56.000Z</time>
      </trkpt>
      <trkpt lat="44.94386" lon="5.73558">
        <ele>1165</ele>
        <time>2026-07-05T08:41:57.000Z</time>
      </trkpt>
      <trkpt lat="44.94384" lon="5.73559">
        <ele>1165.1999511719</ele>
        <time>2026-07-05T08:41:58.000Z</time>
      </trkpt>
      <trkpt lat="44.94383" lon="5.73559">
        <ele>1165.1999511719</ele>
        <time>2026-07-05T08:41:59.000Z</time>
      </trkpt>
      <trkpt lat="44.94381" lon="5.7356">
        <ele>1165.4000244141</ele>
        <time>2026-07-05T08:42:00.000Z</time>
      </trkpt>
      <trkpt lat="44.9438" lon="5.7356">
        <ele>1165.4000244141</ele>
        <time>2026-07-05T08:42:01.000Z</time>
      </trkpt>
      <trkpt lat="44.94378" lon="5.7356">
        <ele>1165.4000244141</ele>
        <time>2026-07-05T08:42:02.000Z</time>
      </trkpt>
      <trkpt lat="44.94376" lon="5.73561">
        <ele>1165.5999755859</ele>
        <time>2026-07-05T08:42:03.000Z</time>
      </trkpt>
      <trkpt lat="44.94375" lon="5.73562">
        <ele>1165.8000488281</ele>
        <time>2026-07-05T08:42:04.000Z</time>
      </trkpt>
      <trkpt lat="44.94373" lon="5.73563">
        <ele>1165.8000488281</ele>
        <time>2026-07-05T08:42:05.000Z</time>
      </trkpt>
      <trkpt lat="44.94372" lon="5.73564">
        <ele>1166</ele>
        <time>2026-07-05T08:42:06.000Z</time>
      </trkpt>
      <trkpt lat="44.94371" lon="5.73565">
        <ele>1166.1999511719</ele>
        <time>2026-07-05T08:42:07.000Z</time>
      </trkpt>
      <trkpt lat="44.9437" lon="5.73566">
        <ele>1166.4000244141</ele>
        <time>2026-07-05T08:42:08.000Z</time>
      </trkpt>
      <trkpt lat="44.94368" lon="5.73568">
        <ele>1166.4000244141</ele>
        <time>2026-07-05T08:42:09.000Z</time>
      </trkpt>
      <trkpt lat="44.94367" lon="5.73569">
        <ele>1166.5999755859</ele>
        <time>2026-07-05T08:42:10.000Z</time>
      </trkpt>
      <trkpt lat="44.94366" lon="5.73571">
        <ele>1166.8000488281</ele>
        <time>2026-07-05T08:42:11.000Z</time>
      </trkpt>
      <trkpt lat="44.94364" lon="5.73573">
        <ele>1167</ele>
        <time>2026-07-05T08:42:12.000Z</time>
      </trkpt>
      <trkpt lat="44.94363" lon="5.73574">
        <ele>1167.1999511719</ele>
        <time>2026-07-05T08:42:13.000Z</time>
      </trkpt>
      <trkpt lat="44.94361" lon="5.73575">
        <ele>1167.4000244141</ele>
        <time>2026-07-05T08:42:14.000Z</time>
      </trkpt>
      <trkpt lat="44.9436" lon="5.73577">
        <ele>1167.4000244141</ele>
        <time>2026-07-05T08:42:15.000Z</time>
      </trkpt>
      <trkpt lat="44.94359" lon="5.73578">
        <ele>1167.5999755859</ele>
        <time>2026-07-05T08:42:16.000Z</time>
      </trkpt>
      <trkpt lat="44.94358" lon="5.73579">
        <ele>1167.8000488281</ele>
        <time>2026-07-05T08:42:17.000Z</time>
      </trkpt>
      <trkpt lat="44.94356" lon="5.7358">
        <ele>1167.8000488281</ele>
        <time>2026-07-05T08:42:18.000Z</time>
      </trkpt>
      <trkpt lat="44.94355" lon="5.73582">
        <ele>1168</ele>
        <time>2026-07-05T08:42:19.000Z</time>
      </trkpt>
      <trkpt lat="44.94354" lon="5.73583">
        <ele>1168.1999511719</ele>
        <time>2026-07-05T08:42:20.000Z</time>
      </trkpt>
      <trkpt lat="44.94352" lon="5.73584">
        <ele>1168.4000244141</ele>
        <time>2026-07-05T08:42:21.000Z</time>
      </trkpt>
      <trkpt lat="44.94351" lon="5.73586">
        <ele>1168.5999755859</ele>
        <time>2026-07-05T08:42:22.000Z</time>
      </trkpt>
      <trkpt lat="44.9435" lon="5.73587">
        <ele>1168.5999755859</ele>
        <time>2026-07-05T08:42:23.000Z</time>
      </trkpt>
      <trkpt lat="44.94348" lon="5.73588">
        <ele>1168.8000488281</ele>
        <time>2026-07-05T08:42:24.000Z</time>
      </trkpt>
      <trkpt lat="44.94347" lon="5.7359">
        <ele>1168.8000488281</ele>
        <time>2026-07-05T08:42:25.000Z</time>
      </trkpt>
      <trkpt lat="44.94346" lon="5.73591">
        <ele>1169</ele>
        <time>2026-07-05T08:42:26.000Z</time>
      </trkpt>
      <trkpt lat="44.94344" lon="5.73592">
        <ele>1169</ele>
        <time>2026-07-05T08:42:27.000Z</time>
      </trkpt>
      <trkpt lat="44.94343" lon="5.73593">
        <ele>1169.1999511719</ele>
        <time>2026-07-05T08:42:28.000Z</time>
      </trkpt>
      <trkpt lat="44.94341" lon="5.73595">
        <ele>1169.1999511719</ele>
        <time>2026-07-05T08:42:29.000Z</time>
      </trkpt>
      <trkpt lat="44.9434" lon="5.73595">
        <ele>1169.4000244141</ele>
        <time>2026-07-05T08:42:30.000Z</time>
      </trkpt>
      <trkpt lat="44.94339" lon="5.73596">
        <ele>1169.5999755859</ele>
        <time>2026-07-05T08:42:31.000Z</time>
      </trkpt>
      <trkpt lat="44.94338" lon="5.73597">
        <ele>1169.8000488281</ele>
        <time>2026-07-05T08:42:32.000Z</time>
      </trkpt>
      <trkpt lat="44.94336" lon="5.73598">
        <ele>1169.8000488281</ele>
        <time>2026-07-05T08:42:33.000Z</time>
      </trkpt>
      <trkpt lat="44.94334" lon="5.73599">
        <ele>1170</ele>
        <time>2026-07-05T08:42:34.000Z</time>
      </trkpt>
      <trkpt lat="44.94333" lon="5.736">
        <ele>1170</ele>
        <time>2026-07-05T08:42:35.000Z</time>
      </trkpt>
      <trkpt lat="44.94331" lon="5.73601">
        <ele>1170.1999511719</ele>
        <time>2026-07-05T08:42:36.000Z</time>
      </trkpt>
      <trkpt lat="44.9433" lon="5.73603">
        <ele>1170.1999511719</ele>
        <time>2026-07-05T08:42:37.000Z</time>
      </trkpt>
      <trkpt lat="44.94328" lon="5.73604">
        <ele>1170.4000244141</ele>
        <time>2026-07-05T08:42:38.000Z</time>
      </trkpt>
      <trkpt lat="44.94327" lon="5.73605">
        <ele>1170.4000244141</ele>
        <time>2026-07-05T08:42:39.000Z</time>
      </trkpt>
      <trkpt lat="44.94325" lon="5.73606">
        <ele>1170.5999755859</ele>
        <time>2026-07-05T08:42:40.000Z</time>
      </trkpt>
      <trkpt lat="44.94324" lon="5.73607">
        <ele>1171</ele>
        <time>2026-07-05T08:42:41.000Z</time>
      </trkpt>
      <trkpt lat="44.94322" lon="5.73608">
        <ele>1171</ele>
        <time>2026-07-05T08:42:42.000Z</time>
      </trkpt>
      <trkpt lat="44.94321" lon="5.73609">
        <ele>1171.4000244141</ele>
        <time>2026-07-05T08:42:43.000Z</time>
      </trkpt>
      <trkpt lat="44.94319" lon="5.7361">
        <ele>1171.5999755859</ele>
        <time>2026-07-05T08:42:44.000Z</time>
      </trkpt>
      <trkpt lat="44.94318" lon="5.73612">
        <ele>1171.8000488281</ele>
        <time>2026-07-05T08:42:45.000Z</time>
      </trkpt>
      <trkpt lat="44.94316" lon="5.73613">
        <ele>1172</ele>
        <time>2026-07-05T08:42:46.000Z</time>
      </trkpt>
      <trkpt lat="44.94315" lon="5.73615">
        <ele>1172</ele>
        <time>2026-07-05T08:42:47.000Z</time>
      </trkpt>
      <trkpt lat="44.94314" lon="5.73617">
        <ele>1172.1999511719</ele>
        <time>2026-07-05T08:42:48.000Z</time>
      </trkpt>
      <trkpt lat="44.94313" lon="5.73618">
        <ele>1172.4000244141</ele>
        <time>2026-07-05T08:42:49.000Z</time>
      </trkpt>
      <trkpt lat="44.94312" lon="5.7362">
        <ele>1172.5999755859</ele>
        <time>2026-07-05T08:42:50.000Z</time>
      </trkpt>
      <trkpt lat="44.9431" lon="5.73621">
        <ele>1172.8000488281</ele>
        <time>2026-07-05T08:42:51.000Z</time>
      </trkpt>
      <trkpt lat="44.94309" lon="5.73622">
        <ele>1173.1999511719</ele>
        <time>2026-07-05T08:42:52.000Z</time>
      </trkpt>
      <trkpt lat="44.94308" lon="5.73623">
        <ele>1173.1999511719</ele>
        <time>2026-07-05T08:42:53.000Z</time>
      </trkpt>
      <trkpt lat="44.94306" lon="5.73625">
        <ele>1173.4000244141</ele>
        <time>2026-07-05T08:42:54.000Z</time>
      </trkpt>
      <trkpt lat="44.94305" lon="5.73626">
        <ele>1173.5999755859</ele>
        <time>2026-07-05T08:42:55.000Z</time>
      </trkpt>
      <trkpt lat="44.94303" lon="5.73626">
        <ele>1173.5999755859</ele>
        <time>2026-07-05T08:42:56.000Z</time>
      </trkpt>
      <trkpt lat="44.94302" lon="5.73627">
        <ele>1173.8000488281</ele>
        <time>2026-07-05T08:42:57.000Z</time>
      </trkpt>
      <trkpt lat="44.94301" lon="5.73629">
        <ele>1174</ele>
        <time>2026-07-05T08:42:58.000Z</time>
      </trkpt>
      <trkpt lat="44.94299" lon="5.73629">
        <ele>1174</ele>
        <time>2026-07-05T08:42:59.000Z</time>
      </trkpt>
      <trkpt lat="44.94297" lon="5.7363">
        <ele>1174</ele>
        <time>2026-07-05T08:43:00.000Z</time>
      </trkpt>
      <trkpt lat="44.94296" lon="5.73631">
        <ele>1174.1999511719</ele>
        <time>2026-07-05T08:43:01.000Z</time>
      </trkpt>
      <trkpt lat="44.94294" lon="5.73633">
        <ele>1174.1999511719</ele>
        <time>2026-07-05T08:43:02.000Z</time>
      </trkpt>
      <trkpt lat="44.94292" lon="5.73634">
        <ele>1174.1999511719</ele>
        <time>2026-07-05T08:43:03.000Z</time>
      </trkpt>
      <trkpt lat="44.9429" lon="5.73635">
        <ele>1174.4000244141</ele>
        <time>2026-07-05T08:43:04.000Z</time>
      </trkpt>
      <trkpt lat="44.94289" lon="5.73636">
        <ele>1174.5999755859</ele>
        <time>2026-07-05T08:43:05.000Z</time>
      </trkpt>
      <trkpt lat="44.94287" lon="5.73637">
        <ele>1174.5999755859</ele>
        <time>2026-07-05T08:43:06.000Z</time>
      </trkpt>
      <trkpt lat="44.94285" lon="5.73638">
        <ele>1174.8000488281</ele>
        <time>2026-07-05T08:43:07.000Z</time>
      </trkpt>
      <trkpt lat="44.94284" lon="5.73639">
        <ele>1175</ele>
        <time>2026-07-05T08:43:08.000Z</time>
      </trkpt>
      <trkpt lat="44.94282" lon="5.7364">
        <ele>1175</ele>
        <time>2026-07-05T08:43:09.000Z</time>
      </trkpt>
      <trkpt lat="44.94281" lon="5.73641">
        <ele>1175</ele>
        <time>2026-07-05T08:43:10.000Z</time>
      </trkpt>
      <trkpt lat="44.94279" lon="5.73642">
        <ele>1175.1999511719</ele>
        <time>2026-07-05T08:43:11.000Z</time>
      </trkpt>
      <trkpt lat="44.94277" lon="5.73643">
        <ele>1175.1999511719</ele>
        <time>2026-07-05T08:43:12.000Z</time>
      </trkpt>
      <trkpt lat="44.94276" lon="5.73645">
        <ele>1175.5999755859</ele>
        <time>2026-07-05T08:43:13.000Z</time>
      </trkpt>
      <trkpt lat="44.94274" lon="5.73646">
        <ele>1175.8000488281</ele>
        <time>2026-07-05T08:43:14.000Z</time>
      </trkpt>
      <trkpt lat="44.94273" lon="5.73647">
        <ele>1176</ele>
        <time>2026-07-05T08:43:15.000Z</time>
      </trkpt>
      <trkpt lat="44.94271" lon="5.73648">
        <ele>1176.4000244141</ele>
        <time>2026-07-05T08:43:16.000Z</time>
      </trkpt>
      <trkpt lat="44.94269" lon="5.73649">
        <ele>1176.5999755859</ele>
        <time>2026-07-05T08:43:17.000Z</time>
      </trkpt>
      <trkpt lat="44.94267" lon="5.7365">
        <ele>1176.8000488281</ele>
        <time>2026-07-05T08:43:18.000Z</time>
      </trkpt>
      <trkpt lat="44.94265" lon="5.73651">
        <ele>1176.8000488281</ele>
        <time>2026-07-05T08:43:19.000Z</time>
      </trkpt>
      <trkpt lat="44.94264" lon="5.73651">
        <ele>1177</ele>
        <time>2026-07-05T08:43:20.000Z</time>
      </trkpt>
      <trkpt lat="44.94262" lon="5.73652">
        <ele>1177</ele>
        <time>2026-07-05T08:43:21.000Z</time>
      </trkpt>
      <trkpt lat="44.94261" lon="5.73653">
        <ele>1177.1999511719</ele>
        <time>2026-07-05T08:43:22.000Z</time>
      </trkpt>
      <trkpt lat="44.94259" lon="5.73654">
        <ele>1177.4000244141</ele>
        <time>2026-07-05T08:43:23.000Z</time>
      </trkpt>
      <trkpt lat="44.94258" lon="5.73654">
        <ele>1177.5999755859</ele>
        <time>2026-07-05T08:43:24.000Z</time>
      </trkpt>
      <trkpt lat="44.94256" lon="5.73655">
        <ele>1177.8000488281</ele>
        <time>2026-07-05T08:43:25.000Z</time>
      </trkpt>
      <trkpt lat="44.94255" lon="5.73656">
        <ele>1177.8000488281</ele>
        <time>2026-07-05T08:43:26.000Z</time>
      </trkpt>
      <trkpt lat="44.94254" lon="5.73658">
        <ele>1178</ele>
        <time>2026-07-05T08:43:27.000Z</time>
      </trkpt>
      <trkpt lat="44.94252" lon="5.73659">
        <ele>1178.1999511719</ele>
        <time>2026-07-05T08:43:28.000Z</time>
      </trkpt>
      <trkpt lat="44.94251" lon="5.7366">
        <ele>1178.4000244141</ele>
        <time>2026-07-05T08:43:29.000Z</time>
      </trkpt>
      <trkpt lat="44.9425" lon="5.73661">
        <ele>1178.5999755859</ele>
        <time>2026-07-05T08:43:30.000Z</time>
      </trkpt>
      <trkpt lat="44.94248" lon="5.73662">
        <ele>1178.5999755859</ele>
        <time>2026-07-05T08:43:31.000Z</time>
      </trkpt>
      <trkpt lat="44.94247" lon="5.73663">
        <ele>1178.8000488281</ele>
        <time>2026-07-05T08:43:32.000Z</time>
      </trkpt>
      <trkpt lat="44.94245" lon="5.73664">
        <ele>1179</ele>
        <time>2026-07-05T08:43:33.000Z</time>
      </trkpt>
      <trkpt lat="44.94244" lon="5.73666">
        <ele>1179.1999511719</ele>
        <time>2026-07-05T08:43:34.000Z</time>
      </trkpt>
      <trkpt lat="44.94242" lon="5.73667">
        <ele>1179.4000244141</ele>
        <time>2026-07-05T08:43:35.000Z</time>
      </trkpt>
      <trkpt lat="44.9424" lon="5.73667">
        <ele>1179.5999755859</ele>
        <time>2026-07-05T08:43:36.000Z</time>
      </trkpt>
      <trkpt lat="44.94239" lon="5.73668">
        <ele>1179.5999755859</ele>
        <time>2026-07-05T08:43:37.000Z</time>
      </trkpt>
      <trkpt lat="44.94237" lon="5.73669">
        <ele>1179.8000488281</ele>
        <time>2026-07-05T08:43:38.000Z</time>
      </trkpt>
      <trkpt lat="44.94235" lon="5.73669">
        <ele>1179.8000488281</ele>
        <time>2026-07-05T08:43:39.000Z</time>
      </trkpt>
      <trkpt lat="44.94234" lon="5.7367">
        <ele>1180.1999511719</ele>
        <time>2026-07-05T08:43:40.000Z</time>
      </trkpt>
      <trkpt lat="44.94232" lon="5.7367">
        <ele>1180.4000244141</ele>
        <time>2026-07-05T08:43:41.000Z</time>
      </trkpt>
      <trkpt lat="44.94231" lon="5.73671">
        <ele>1180.5999755859</ele>
        <time>2026-07-05T08:43:42.000Z</time>
      </trkpt>
      <trkpt lat="44.94229" lon="5.73671">
        <ele>1180.8000488281</ele>
        <time>2026-07-05T08:43:43.000Z</time>
      </trkpt>
      <trkpt lat="44.94227" lon="5.73672">
        <ele>1181</ele>
        <time>2026-07-05T08:43:44.000Z</time>
      </trkpt>
      <trkpt lat="44.94226" lon="5.73673">
        <ele>1181.1999511719</ele>
        <time>2026-07-05T08:43:45.000Z</time>
      </trkpt>
      <trkpt lat="44.94224" lon="5.73674">
        <ele>1181.4000244141</ele>
        <time>2026-07-05T08:43:46.000Z</time>
      </trkpt>
      <trkpt lat="44.94223" lon="5.73674">
        <ele>1181.5999755859</ele>
        <time>2026-07-05T08:43:47.000Z</time>
      </trkpt>
      <trkpt lat="44.94222" lon="5.73676">
        <ele>1181.8000488281</ele>
        <time>2026-07-05T08:43:48.000Z</time>
      </trkpt>
      <trkpt lat="44.9422" lon="5.73677">
        <ele>1182.1999511719</ele>
        <time>2026-07-05T08:43:49.000Z</time>
      </trkpt>
      <trkpt lat="44.94219" lon="5.73678">
        <ele>1182.4000244141</ele>
        <time>2026-07-05T08:43:50.000Z</time>
      </trkpt>
      <trkpt lat="44.94217" lon="5.73678">
        <ele>1182.4000244141</ele>
        <time>2026-07-05T08:43:51.000Z</time>
      </trkpt>
      <trkpt lat="44.94215" lon="5.73679">
        <ele>1182.5999755859</ele>
        <time>2026-07-05T08:43:52.000Z</time>
      </trkpt>
      <trkpt lat="44.94214" lon="5.7368">
        <ele>1182.5999755859</ele>
        <time>2026-07-05T08:43:53.000Z</time>
      </trkpt>
      <trkpt lat="44.94212" lon="5.73681">
        <ele>1182.8000488281</ele>
        <time>2026-07-05T08:43:54.000Z</time>
      </trkpt>
      <trkpt lat="44.94211" lon="5.73682">
        <ele>1182.8000488281</ele>
        <time>2026-07-05T08:43:55.000Z</time>
      </trkpt>
      <trkpt lat="44.94209" lon="5.73683">
        <ele>1183</ele>
        <time>2026-07-05T08:43:56.000Z</time>
      </trkpt>
      <trkpt lat="44.94207" lon="5.73684">
        <ele>1183.1999511719</ele>
        <time>2026-07-05T08:43:57.000Z</time>
      </trkpt>
      <trkpt lat="44.94205" lon="5.73686">
        <ele>1183.1999511719</ele>
        <time>2026-07-05T08:43:58.000Z</time>
      </trkpt>
      <trkpt lat="44.94203" lon="5.73686">
        <ele>1183.5999755859</ele>
        <time>2026-07-05T08:43:59.000Z</time>
      </trkpt>
      <trkpt lat="44.94201" lon="5.73687">
        <ele>1183.8000488281</ele>
        <time>2026-07-05T08:44:00.000Z</time>
      </trkpt>
      <trkpt lat="44.942" lon="5.73688">
        <ele>1184</ele>
        <time>2026-07-05T08:44:01.000Z</time>
      </trkpt>
      <trkpt lat="44.94198" lon="5.73688">
        <ele>1184.1999511719</ele>
        <time>2026-07-05T08:44:02.000Z</time>
      </trkpt>
      <trkpt lat="44.94196" lon="5.73689">
        <ele>1184.1999511719</ele>
        <time>2026-07-05T08:44:03.000Z</time>
      </trkpt>
      <trkpt lat="44.94195" lon="5.73689">
        <ele>1184.4000244141</ele>
        <time>2026-07-05T08:44:04.000Z</time>
      </trkpt>
      <trkpt lat="44.94194" lon="5.7369">
        <ele>1184.8000488281</ele>
        <time>2026-07-05T08:44:05.000Z</time>
      </trkpt>
      <trkpt lat="44.94193" lon="5.7369">
        <ele>1185</ele>
        <time>2026-07-05T08:44:06.000Z</time>
      </trkpt>
      <trkpt lat="44.94191" lon="5.73691">
        <ele>1185.1999511719</ele>
        <time>2026-07-05T08:44:07.000Z</time>
      </trkpt>
      <trkpt lat="44.94189" lon="5.73691">
        <ele>1185.4000244141</ele>
        <time>2026-07-05T08:44:08.000Z</time>
      </trkpt>
      <trkpt lat="44.94187" lon="5.73691">
        <ele>1185.4000244141</ele>
        <time>2026-07-05T08:44:09.000Z</time>
      </trkpt>
      <trkpt lat="44.94185" lon="5.73692">
        <ele>1185.4000244141</ele>
        <time>2026-07-05T08:44:10.000Z</time>
      </trkpt>
      <trkpt lat="44.94183" lon="5.73692">
        <ele>1185.4000244141</ele>
        <time>2026-07-05T08:44:11.000Z</time>
      </trkpt>
      <trkpt lat="44.94181" lon="5.73693">
        <ele>1185.4000244141</ele>
        <time>2026-07-05T08:44:12.000Z</time>
      </trkpt>
      <trkpt lat="44.94179" lon="5.73693">
        <ele>1185.4000244141</ele>
        <time>2026-07-05T08:44:13.000Z</time>
      </trkpt>
      <trkpt lat="44.94178" lon="5.73693">
        <ele>1185.5999755859</ele>
        <time>2026-07-05T08:44:14.000Z</time>
      </trkpt>
      <trkpt lat="44.94176" lon="5.73694">
        <ele>1185.5999755859</ele>
        <time>2026-07-05T08:44:15.000Z</time>
      </trkpt>
      <trkpt lat="44.94174" lon="5.73694">
        <ele>1185.8000488281</ele>
        <time>2026-07-05T08:44:16.000Z</time>
      </trkpt>
      <trkpt lat="44.94173" lon="5.73695">
        <ele>1186</ele>
        <time>2026-07-05T08:44:17.000Z</time>
      </trkpt>
      <trkpt lat="44.94171" lon="5.73695">
        <ele>1186.1999511719</ele>
        <time>2026-07-05T08:44:18.000Z</time>
      </trkpt>
      <trkpt lat="44.94169" lon="5.73696">
        <ele>1186.5999755859</ele>
        <time>2026-07-05T08:44:19.000Z</time>
      </trkpt>
      <trkpt lat="44.94168" lon="5.73697">
        <ele>1186.8000488281</ele>
        <time>2026-07-05T08:44:20.000Z</time>
      </trkpt>
      <trkpt lat="44.94167" lon="5.73697">
        <ele>1187</ele>
        <time>2026-07-05T08:44:21.000Z</time>
      </trkpt>
      <trkpt lat="44.94165" lon="5.73698">
        <ele>1187.1999511719</ele>
        <time>2026-07-05T08:44:22.000Z</time>
      </trkpt>
      <trkpt lat="44.94163" lon="5.73698">
        <ele>1187.4000244141</ele>
        <time>2026-07-05T08:44:23.000Z</time>
      </trkpt>
      <trkpt lat="44.94161" lon="5.73699">
        <ele>1187.4000244141</ele>
        <time>2026-07-05T08:44:24.000Z</time>
      </trkpt>
      <trkpt lat="44.94159" lon="5.737">
        <ele>1187.5999755859</ele>
        <time>2026-07-05T08:44:25.000Z</time>
      </trkpt>
      <trkpt lat="44.94157" lon="5.737">
        <ele>1187.5999755859</ele>
        <time>2026-07-05T08:44:26.000Z</time>
      </trkpt>
      <trkpt lat="44.94155" lon="5.73701">
        <ele>1187.8000488281</ele>
        <time>2026-07-05T08:44:27.000Z</time>
      </trkpt>
      <trkpt lat="44.94153" lon="5.73702">
        <ele>1187.8000488281</ele>
        <time>2026-07-05T08:44:28.000Z</time>
      </trkpt>
      <trkpt lat="44.94152" lon="5.73702">
        <ele>1188</ele>
        <time>2026-07-05T08:44:29.000Z</time>
      </trkpt>
      <trkpt lat="44.9415" lon="5.73703">
        <ele>1188.1999511719</ele>
        <time>2026-07-05T08:44:30.000Z</time>
      </trkpt>
      <trkpt lat="44.94148" lon="5.73703">
        <ele>1188.4000244141</ele>
        <time>2026-07-05T08:44:31.000Z</time>
      </trkpt>
      <trkpt lat="44.94145" lon="5.73704">
        <ele>1188.5999755859</ele>
        <time>2026-07-05T08:44:32.000Z</time>
      </trkpt>
      <trkpt lat="44.94143" lon="5.73704">
        <ele>1188.5999755859</ele>
        <time>2026-07-05T08:44:33.000Z</time>
      </trkpt>
      <trkpt lat="44.94142" lon="5.73704">
        <ele>1188.8000488281</ele>
        <time>2026-07-05T08:44:34.000Z</time>
      </trkpt>
      <trkpt lat="44.9414" lon="5.73704">
        <ele>1188.8000488281</ele>
        <time>2026-07-05T08:44:35.000Z</time>
      </trkpt>
      <trkpt lat="44.94138" lon="5.73704">
        <ele>1189</ele>
        <time>2026-07-05T08:44:36.000Z</time>
      </trkpt>
      <trkpt lat="44.94136" lon="5.73705">
        <ele>1189</ele>
        <time>2026-07-05T08:44:37.000Z</time>
      </trkpt>
      <trkpt lat="44.94134" lon="5.73705">
        <ele>1189.1999511719</ele>
        <time>2026-07-05T08:44:38.000Z</time>
      </trkpt>
      <trkpt lat="44.94132" lon="5.73705">
        <ele>1189.4000244141</ele>
        <time>2026-07-05T08:44:39.000Z</time>
      </trkpt>
      <trkpt lat="44.9413" lon="5.73705">
        <ele>1189.8000488281</ele>
        <time>2026-07-05T08:44:40.000Z</time>
      </trkpt>
      <trkpt lat="44.94129" lon="5.73705">
        <ele>1189.8000488281</ele>
        <time>2026-07-05T08:44:41.000Z</time>
      </trkpt>
      <trkpt lat="44.94127" lon="5.73706">
        <ele>1190</ele>
        <time>2026-07-05T08:44:42.000Z</time>
      </trkpt>
      <trkpt lat="44.94125" lon="5.73706">
        <ele>1190.1999511719</ele>
        <time>2026-07-05T08:44:43.000Z</time>
      </trkpt>
      <trkpt lat="44.94123" lon="5.73706">
        <ele>1190.4000244141</ele>
        <time>2026-07-05T08:44:44.000Z</time>
      </trkpt>
      <trkpt lat="44.94121" lon="5.73706">
        <ele>1190.5999755859</ele>
        <time>2026-07-05T08:44:45.000Z</time>
      </trkpt>
      <trkpt lat="44.9412" lon="5.73707">
        <ele>1190.5999755859</ele>
        <time>2026-07-05T08:44:46.000Z</time>
      </trkpt>
      <trkpt lat="44.94119" lon="5.73707">
        <ele>1190.5999755859</ele>
        <time>2026-07-05T08:44:47.000Z</time>
      </trkpt>
      <trkpt lat="44.94117" lon="5.73708">
        <ele>1190.8000488281</ele>
        <time>2026-07-05T08:44:48.000Z</time>
      </trkpt>
      <trkpt lat="44.94116" lon="5.73708">
        <ele>1190.8000488281</ele>
        <time>2026-07-05T08:44:49.000Z</time>
      </trkpt>
      <trkpt lat="44.94115" lon="5.73708">
        <ele>1191</ele>
        <time>2026-07-05T08:44:50.000Z</time>
      </trkpt>
      <trkpt lat="44.94113" lon="5.73708">
        <ele>1191.1999511719</ele>
        <time>2026-07-05T08:44:51.000Z</time>
      </trkpt>
      <trkpt lat="44.94112" lon="5.73709">
        <ele>1191.4000244141</ele>
        <time>2026-07-05T08:44:52.000Z</time>
      </trkpt>
      <trkpt lat="44.94111" lon="5.73709">
        <ele>1191.5999755859</ele>
        <time>2026-07-05T08:44:53.000Z</time>
      </trkpt>
      <trkpt lat="44.94109" lon="5.73709">
        <ele>1191.8000488281</ele>
        <time>2026-07-05T08:44:54.000Z</time>
      </trkpt>
      <trkpt lat="44.94108" lon="5.7371">
        <ele>1192.1999511719</ele>
        <time>2026-07-05T08:44:55.000Z</time>
      </trkpt>
      <trkpt lat="44.94107" lon="5.7371">
        <ele>1192.4000244141</ele>
        <time>2026-07-05T08:44:56.000Z</time>
      </trkpt>
      <trkpt lat="44.94106" lon="5.7371">
        <ele>1192.5999755859</ele>
        <time>2026-07-05T08:44:57.000Z</time>
      </trkpt>
      <trkpt lat="44.94104" lon="5.73711">
        <ele>1192.8000488281</ele>
        <time>2026-07-05T08:44:58.000Z</time>
      </trkpt>
      <trkpt lat="44.94102" lon="5.73712">
        <ele>1193</ele>
        <time>2026-07-05T08:44:59.000Z</time>
      </trkpt>
      <trkpt lat="44.941" lon="5.73712">
        <ele>1193.1999511719</ele>
        <time>2026-07-05T08:45:00.000Z</time>
      </trkpt>
      <trkpt lat="44.94099" lon="5.73713">
        <ele>1193.4000244141</ele>
        <time>2026-07-05T08:45:01.000Z</time>
      </trkpt>
      <trkpt lat="44.94097" lon="5.73713">
        <ele>1193.4000244141</ele>
        <time>2026-07-05T08:45:02.000Z</time>
      </trkpt>
      <trkpt lat="44.94095" lon="5.73713">
        <ele>1193.5999755859</ele>
        <time>2026-07-05T08:45:03.000Z</time>
      </trkpt>
      <trkpt lat="44.94093" lon="5.73714">
        <ele>1193.8000488281</ele>
        <time>2026-07-05T08:45:04.000Z</time>
      </trkpt>
      <trkpt lat="44.94091" lon="5.73714">
        <ele>1193.8000488281</ele>
        <time>2026-07-05T08:45:05.000Z</time>
      </trkpt>
      <trkpt lat="44.94089" lon="5.73715">
        <ele>1194</ele>
        <time>2026-07-05T08:45:06.000Z</time>
      </trkpt>
      <trkpt lat="44.94087" lon="5.73715">
        <ele>1194</ele>
        <time>2026-07-05T08:45:07.000Z</time>
      </trkpt>
      <trkpt lat="44.94085" lon="5.73715">
        <ele>1194.1999511719</ele>
        <time>2026-07-05T08:45:08.000Z</time>
      </trkpt>
      <trkpt lat="44.94084" lon="5.73715">
        <ele>1194.1999511719</ele>
        <time>2026-07-05T08:45:09.000Z</time>
      </trkpt>
      <trkpt lat="44.94082" lon="5.73715">
        <ele>1194.4000244141</ele>
        <time>2026-07-05T08:45:10.000Z</time>
      </trkpt>
      <trkpt lat="44.9408" lon="5.73715">
        <ele>1194.4000244141</ele>
        <time>2026-07-05T08:45:11.000Z</time>
      </trkpt>
      <trkpt lat="44.94078" lon="5.73715">
        <ele>1194.5999755859</ele>
        <time>2026-07-05T08:45:12.000Z</time>
      </trkpt>
      <trkpt lat="44.94077" lon="5.73716">
        <ele>1194.8000488281</ele>
        <time>2026-07-05T08:45:13.000Z</time>
      </trkpt>
      <trkpt lat="44.94075" lon="5.73716">
        <ele>1194.8000488281</ele>
        <time>2026-07-05T08:45:14.000Z</time>
      </trkpt>
      <trkpt lat="44.94073" lon="5.73717">
        <ele>1195</ele>
        <time>2026-07-05T08:45:15.000Z</time>
      </trkpt>
      <trkpt lat="44.94071" lon="5.73717">
        <ele>1195.1999511719</ele>
        <time>2026-07-05T08:45:16.000Z</time>
      </trkpt>
      <trkpt lat="44.9407" lon="5.73717">
        <ele>1195.4000244141</ele>
        <time>2026-07-05T08:45:17.000Z</time>
      </trkpt>
      <trkpt lat="44.94069" lon="5.73717">
        <ele>1195.5999755859</ele>
        <time>2026-07-05T08:45:18.000Z</time>
      </trkpt>
      <trkpt lat="44.94067" lon="5.73718">
        <ele>1195.8000488281</ele>
        <time>2026-07-05T08:45:19.000Z</time>
      </trkpt>
      <trkpt lat="44.94065" lon="5.73718">
        <ele>1195.8000488281</ele>
        <time>2026-07-05T08:45:20.000Z</time>
      </trkpt>
      <trkpt lat="44.94063" lon="5.73719">
        <ele>1196</ele>
        <time>2026-07-05T08:45:21.000Z</time>
      </trkpt>
      <trkpt lat="44.94061" lon="5.7372">
        <ele>1196.1999511719</ele>
        <time>2026-07-05T08:45:22.000Z</time>
      </trkpt>
      <trkpt lat="44.94059" lon="5.73721">
        <ele>1196.4000244141</ele>
        <time>2026-07-05T08:45:23.000Z</time>
      </trkpt>
      <trkpt lat="44.94058" lon="5.73722">
        <ele>1196.4000244141</ele>
        <time>2026-07-05T08:45:24.000Z</time>
      </trkpt>
      <trkpt lat="44.94056" lon="5.73723">
        <ele>1196.5999755859</ele>
        <time>2026-07-05T08:45:25.000Z</time>
      </trkpt>
      <trkpt lat="44.94054" lon="5.73724">
        <ele>1197</ele>
        <time>2026-07-05T08:45:26.000Z</time>
      </trkpt>
      <trkpt lat="44.94052" lon="5.73724">
        <ele>1197.4000244141</ele>
        <time>2026-07-05T08:45:27.000Z</time>
      </trkpt>
      <trkpt lat="44.94051" lon="5.73725">
        <ele>1197.5999755859</ele>
        <time>2026-07-05T08:45:28.000Z</time>
      </trkpt>
      <trkpt lat="44.94049" lon="5.73726">
        <ele>1197.8000488281</ele>
        <time>2026-07-05T08:45:29.000Z</time>
      </trkpt>
      <trkpt lat="44.94048" lon="5.73727">
        <ele>1198</ele>
        <time>2026-07-05T08:45:30.000Z</time>
      </trkpt>
      <trkpt lat="44.94047" lon="5.73728">
        <ele>1198.1999511719</ele>
        <time>2026-07-05T08:45:31.000Z</time>
      </trkpt>
      <trkpt lat="44.94045" lon="5.73729">
        <ele>1198.1999511719</ele>
        <time>2026-07-05T08:45:32.000Z</time>
      </trkpt>
      <trkpt lat="44.94044" lon="5.73729">
        <ele>1198.4000244141</ele>
        <time>2026-07-05T08:45:33.000Z</time>
      </trkpt>
      <trkpt lat="44.94042" lon="5.7373">
        <ele>1198.5999755859</ele>
        <time>2026-07-05T08:45:34.000Z</time>
      </trkpt>
      <trkpt lat="44.94041" lon="5.73731">
        <ele>1198.8000488281</ele>
        <time>2026-07-05T08:45:35.000Z</time>
      </trkpt>
      <trkpt lat="44.94039" lon="5.73732">
        <ele>1199</ele>
        <time>2026-07-05T08:45:36.000Z</time>
      </trkpt>
      <trkpt lat="44.94037" lon="5.73732">
        <ele>1199</ele>
        <time>2026-07-05T08:45:37.000Z</time>
      </trkpt>
      <trkpt lat="44.94036" lon="5.73733">
        <ele>1199.1999511719</ele>
        <time>2026-07-05T08:45:38.000Z</time>
      </trkpt>
      <trkpt lat="44.94034" lon="5.73734">
        <ele>1199.4000244141</ele>
        <time>2026-07-05T08:45:39.000Z</time>
      </trkpt>
      <trkpt lat="44.94032" lon="5.73734">
        <ele>1199.4000244141</ele>
        <time>2026-07-05T08:45:40.000Z</time>
      </trkpt>
      <trkpt lat="44.9403" lon="5.73735">
        <ele>1199.5999755859</ele>
        <time>2026-07-05T08:45:41.000Z</time>
      </trkpt>
      <trkpt lat="44.94029" lon="5.73736">
        <ele>1199.8000488281</ele>
        <time>2026-07-05T08:45:42.000Z</time>
      </trkpt>
      <trkpt lat="44.94027" lon="5.73737">
        <ele>1200.1999511719</ele>
        <time>2026-07-05T08:45:43.000Z</time>
      </trkpt>
      <trkpt lat="44.94026" lon="5.73738">
        <ele>1200.4000244141</ele>
        <time>2026-07-05T08:45:44.000Z</time>
      </trkpt>
      <trkpt lat="44.94025" lon="5.73739">
        <ele>1200.5999755859</ele>
        <time>2026-07-05T08:45:45.000Z</time>
      </trkpt>
      <trkpt lat="44.94024" lon="5.7374">
        <ele>1201</ele>
        <time>2026-07-05T08:45:46.000Z</time>
      </trkpt>
      <trkpt lat="44.94023" lon="5.73741">
        <ele>1201.4000244141</ele>
        <time>2026-07-05T08:45:47.000Z</time>
      </trkpt>
      <trkpt lat="44.94023" lon="5.73742">
        <ele>1201.5999755859</ele>
        <time>2026-07-05T08:45:48.000Z</time>
      </trkpt>
      <trkpt lat="44.94022" lon="5.73742">
        <ele>1202</ele>
        <time>2026-07-05T08:45:49.000Z</time>
      </trkpt>
      <trkpt lat="44.94021" lon="5.73743">
        <ele>1202.1999511719</ele>
        <time>2026-07-05T08:45:50.000Z</time>
      </trkpt>
      <trkpt lat="44.9402" lon="5.73745">
        <ele>1202.4000244141</ele>
        <time>2026-07-05T08:45:51.000Z</time>
      </trkpt>
      <trkpt lat="44.94019" lon="5.73746">
        <ele>1202.5999755859</ele>
        <time>2026-07-05T08:45:52.000Z</time>
      </trkpt>
      <trkpt lat="44.94017" lon="5.73747">
        <ele>1202.8000488281</ele>
        <time>2026-07-05T08:45:53.000Z</time>
      </trkpt>
      <trkpt lat="44.94016" lon="5.73749">
        <ele>1203</ele>
        <time>2026-07-05T08:45:54.000Z</time>
      </trkpt>
      <trkpt lat="44.94015" lon="5.7375">
        <ele>1203.1999511719</ele>
        <time>2026-07-05T08:45:55.000Z</time>
      </trkpt>
      <trkpt lat="44.94014" lon="5.73752">
        <ele>1203.4000244141</ele>
        <time>2026-07-05T08:45:56.000Z</time>
      </trkpt>
      <trkpt lat="44.94012" lon="5.73753">
        <ele>1203.4000244141</ele>
        <time>2026-07-05T08:45:57.000Z</time>
      </trkpt>
      <trkpt lat="44.9401" lon="5.73753">
        <ele>1203.5999755859</ele>
        <time>2026-07-05T08:45:58.000Z</time>
      </trkpt>
      <trkpt lat="44.94008" lon="5.73754">
        <ele>1203.5999755859</ele>
        <time>2026-07-05T08:45:59.000Z</time>
      </trkpt>
      <trkpt lat="44.94006" lon="5.73754">
        <ele>1203.5999755859</ele>
        <time>2026-07-05T08:46:00.000Z</time>
      </trkpt>
      <trkpt lat="44.94004" lon="5.73754">
        <ele>1203.4000244141</ele>
        <time>2026-07-05T08:46:01.000Z</time>
      </trkpt>
      <trkpt lat="44.94002" lon="5.73754">
        <ele>1203.4000244141</ele>
        <time>2026-07-05T08:46:02.000Z</time>
      </trkpt>
      <trkpt lat="44.94001" lon="5.73754">
        <ele>1203.4000244141</ele>
        <time>2026-07-05T08:46:03.000Z</time>
      </trkpt>
      <trkpt lat="44.93999" lon="5.73755">
        <ele>1203.5999755859</ele>
        <time>2026-07-05T08:46:04.000Z</time>
      </trkpt>
      <trkpt lat="44.93998" lon="5.73755">
        <ele>1203.5999755859</ele>
        <time>2026-07-05T08:46:05.000Z</time>
      </trkpt>
      <trkpt lat="44.93996" lon="5.73756">
        <ele>1204</ele>
        <time>2026-07-05T08:46:06.000Z</time>
      </trkpt>
      <trkpt lat="44.93995" lon="5.73756">
        <ele>1204.1999511719</ele>
        <time>2026-07-05T08:46:07.000Z</time>
      </trkpt>
      <trkpt lat="44.93993" lon="5.73756">
        <ele>1204.5999755859</ele>
        <time>2026-07-05T08:46:08.000Z</time>
      </trkpt>
      <trkpt lat="44.93992" lon="5.73757">
        <ele>1205</ele>
        <time>2026-07-05T08:46:09.000Z</time>
      </trkpt>
      <trkpt lat="44.9399" lon="5.73758">
        <ele>1205.1999511719</ele>
        <time>2026-07-05T08:46:10.000Z</time>
      </trkpt>
      <trkpt lat="44.93989" lon="5.73759">
        <ele>1205.5999755859</ele>
        <time>2026-07-05T08:46:11.000Z</time>
      </trkpt>
      <trkpt lat="44.93988" lon="5.73759">
        <ele>1205.8000488281</ele>
        <time>2026-07-05T08:46:12.000Z</time>
      </trkpt>
      <trkpt lat="44.93986" lon="5.7376">
        <ele>1206.1999511719</ele>
        <time>2026-07-05T08:46:13.000Z</time>
      </trkpt>
      <trkpt lat="44.93985" lon="5.7376">
        <ele>1206.1999511719</ele>
        <time>2026-07-05T08:46:14.000Z</time>
      </trkpt>
      <trkpt lat="44.93984" lon="5.73761">
        <ele>1206.5999755859</ele>
        <time>2026-07-05T08:46:15.000Z</time>
      </trkpt>
      <trkpt lat="44.93983" lon="5.73761">
        <ele>1206.8000488281</ele>
        <time>2026-07-05T08:46:16.000Z</time>
      </trkpt>
      <trkpt lat="44.93981" lon="5.73762">
        <ele>1207</ele>
        <time>2026-07-05T08:46:17.000Z</time>
      </trkpt>
      <trkpt lat="44.9398" lon="5.73762">
        <ele>1207.1999511719</ele>
        <time>2026-07-05T08:46:18.000Z</time>
      </trkpt>
      <trkpt lat="44.93978" lon="5.73762">
        <ele>1207.1999511719</ele>
        <time>2026-07-05T08:46:19.000Z</time>
      </trkpt>
      <trkpt lat="44.93977" lon="5.73763">
        <ele>1207.4000244141</ele>
        <time>2026-07-05T08:46:20.000Z</time>
      </trkpt>
      <trkpt lat="44.93976" lon="5.73764">
        <ele>1207.5999755859</ele>
        <time>2026-07-05T08:46:21.000Z</time>
      </trkpt>
      <trkpt lat="44.93975" lon="5.73764">
        <ele>1207.8000488281</ele>
        <time>2026-07-05T08:46:22.000Z</time>
      </trkpt>
      <trkpt lat="44.93973" lon="5.73765">
        <ele>1208</ele>
        <time>2026-07-05T08:46:23.000Z</time>
      </trkpt>
      <trkpt lat="44.93972" lon="5.73766">
        <ele>1208.1999511719</ele>
        <time>2026-07-05T08:46:24.000Z</time>
      </trkpt>
      <trkpt lat="44.9397" lon="5.73767">
        <ele>1208.5999755859</ele>
        <time>2026-07-05T08:46:25.000Z</time>
      </trkpt>
      <trkpt lat="44.93969" lon="5.73768">
        <ele>1208.8000488281</ele>
        <time>2026-07-05T08:46:26.000Z</time>
      </trkpt>
      <trkpt lat="44.93968" lon="5.73769">
        <ele>1209</ele>
        <time>2026-07-05T08:46:27.000Z</time>
      </trkpt>
      <trkpt lat="44.93966" lon="5.7377">
        <ele>1209.1999511719</ele>
        <time>2026-07-05T08:46:28.000Z</time>
      </trkpt>
      <trkpt lat="44.93965" lon="5.73771">
        <ele>1209.1999511719</ele>
        <time>2026-07-05T08:46:29.000Z</time>
      </trkpt>
      <trkpt lat="44.93963" lon="5.73771">
        <ele>1209.4000244141</ele>
        <time>2026-07-05T08:46:30.000Z</time>
      </trkpt>
      <trkpt lat="44.93961" lon="5.73772">
        <ele>1209.4000244141</ele>
        <time>2026-07-05T08:46:31.000Z</time>
      </trkpt>
      <trkpt lat="44.93959" lon="5.73772">
        <ele>1209.4000244141</ele>
        <time>2026-07-05T08:46:32.000Z</time>
      </trkpt>
      <trkpt lat="44.93957" lon="5.73773">
        <ele>1209.1999511719</ele>
        <time>2026-07-05T08:46:33.000Z</time>
      </trkpt>
      <trkpt lat="44.93955" lon="5.73773">
        <ele>1209.1999511719</ele>
        <time>2026-07-05T08:46:34.000Z</time>
      </trkpt>
      <trkpt lat="44.93953" lon="5.73773">
        <ele>1209</ele>
        <time>2026-07-05T08:46:35.000Z</time>
      </trkpt>
      <trkpt lat="44.93951" lon="5.73773">
        <ele>1208.8000488281</ele>
        <time>2026-07-05T08:46:36.000Z</time>
      </trkpt>
      <trkpt lat="44.93949" lon="5.73773">
        <ele>1208.5999755859</ele>
        <time>2026-07-05T08:46:37.000Z</time>
      </trkpt>
      <trkpt lat="44.93946" lon="5.73773">
        <ele>1208.4000244141</ele>
        <time>2026-07-05T08:46:38.000Z</time>
      </trkpt>
      <trkpt lat="44.93944" lon="5.73772">
        <ele>1208.4000244141</ele>
        <time>2026-07-05T08:46:39.000Z</time>
      </trkpt>
      <trkpt lat="44.93942" lon="5.73771">
        <ele>1208.4000244141</ele>
        <time>2026-07-05T08:46:40.000Z</time>
      </trkpt>
      <trkpt lat="44.93941" lon="5.7377">
        <ele>1208.8000488281</ele>
        <time>2026-07-05T08:46:41.000Z</time>
      </trkpt>
      <trkpt lat="44.93939" lon="5.73769">
        <ele>1209</ele>
        <time>2026-07-05T08:46:42.000Z</time>
      </trkpt>
      <trkpt lat="44.93938" lon="5.73768">
        <ele>1209.4000244141</ele>
        <time>2026-07-05T08:46:43.000Z</time>
      </trkpt>
      <trkpt lat="44.93936" lon="5.73767">
        <ele>1209.8000488281</ele>
        <time>2026-07-05T08:46:44.000Z</time>
      </trkpt>
      <trkpt lat="44.93934" lon="5.73766">
        <ele>1210</ele>
        <time>2026-07-05T08:46:45.000Z</time>
      </trkpt>
      <trkpt lat="44.93933" lon="5.73765">
        <ele>1210.1999511719</ele>
        <time>2026-07-05T08:46:46.000Z</time>
      </trkpt>
      <trkpt lat="44.93932" lon="5.73763">
        <ele>1210.4000244141</ele>
        <time>2026-07-05T08:46:47.000Z</time>
      </trkpt>
      <trkpt lat="44.93931" lon="5.73761">
        <ele>1210.8000488281</ele>
        <time>2026-07-05T08:46:48.000Z</time>
      </trkpt>
      <trkpt lat="44.9393" lon="5.73759">
        <ele>1211</ele>
        <time>2026-07-05T08:46:49.000Z</time>
      </trkpt>
      <trkpt lat="44.93929" lon="5.73758">
        <ele>1211.4000244141</ele>
        <time>2026-07-05T08:46:50.000Z</time>
      </trkpt>
      <trkpt lat="44.93928" lon="5.73756">
        <ele>1211.5999755859</ele>
        <time>2026-07-05T08:46:51.000Z</time>
      </trkpt>
      <trkpt lat="44.93928" lon="5.73754">
        <ele>1211.8000488281</ele>
        <time>2026-07-05T08:46:52.000Z</time>
      </trkpt>
      <trkpt lat="44.93927" lon="5.73751">
        <ele>1212</ele>
        <time>2026-07-05T08:46:53.000Z</time>
      </trkpt>
      <trkpt lat="44.93927" lon="5.73749">
        <ele>1212.1999511719</ele>
        <time>2026-07-05T08:46:54.000Z</time>
      </trkpt>
      <trkpt lat="44.93926" lon="5.73747">
        <ele>1212.4000244141</ele>
        <time>2026-07-05T08:46:55.000Z</time>
      </trkpt>
      <trkpt lat="44.93926" lon="5.73744">
        <ele>1212.5999755859</ele>
        <time>2026-07-05T08:46:56.000Z</time>
      </trkpt>
      <trkpt lat="44.93925" lon="5.73743">
        <ele>1213</ele>
        <time>2026-07-05T08:46:57.000Z</time>
      </trkpt>
      <trkpt lat="44.93924" lon="5.73741">
        <ele>1213.1999511719</ele>
        <time>2026-07-05T08:46:58.000Z</time>
      </trkpt>
      <trkpt lat="44.93924" lon="5.7374">
        <ele>1213.1999511719</ele>
        <time>2026-07-05T08:46:59.000Z</time>
      </trkpt>
      <trkpt lat="44.93923" lon="5.73738">
        <ele>1213.4000244141</ele>
        <time>2026-07-05T08:47:00.000Z</time>
      </trkpt>
      <trkpt lat="44.93922" lon="5.73736">
        <ele>1213.5999755859</ele>
        <time>2026-07-05T08:47:01.000Z</time>
      </trkpt>
      <trkpt lat="44.93921" lon="5.73735">
        <ele>1213.5999755859</ele>
        <time>2026-07-05T08:47:02.000Z</time>
      </trkpt>
      <trkpt lat="44.9392" lon="5.73733">
        <ele>1213.8000488281</ele>
        <time>2026-07-05T08:47:03.000Z</time>
      </trkpt>
      <trkpt lat="44.93919" lon="5.73731">
        <ele>1214</ele>
        <time>2026-07-05T08:47:04.000Z</time>
      </trkpt>
      <trkpt lat="44.93918" lon="5.73729">
        <ele>1214.1999511719</ele>
        <time>2026-07-05T08:47:05.000Z</time>
      </trkpt>
      <trkpt lat="44.93917" lon="5.73728">
        <ele>1214.1999511719</ele>
        <time>2026-07-05T08:47:06.000Z</time>
      </trkpt>
      <trkpt lat="44.93915" lon="5.73726">
        <ele>1214.4000244141</ele>
        <time>2026-07-05T08:47:07.000Z</time>
      </trkpt>
      <trkpt lat="44.93914" lon="5.73725">
        <ele>1214.5999755859</ele>
        <time>2026-07-05T08:47:08.000Z</time>
      </trkpt>
      <trkpt lat="44.93913" lon="5.73724">
        <ele>1214.5999755859</ele>
        <time>2026-07-05T08:47:09.000Z</time>
      </trkpt>
      <trkpt lat="44.93912" lon="5.73723">
        <ele>1214.5999755859</ele>
        <time>2026-07-05T08:47:10.000Z</time>
      </trkpt>
      <trkpt lat="44.9391" lon="5.73721">
        <ele>1214.8000488281</ele>
        <time>2026-07-05T08:47:11.000Z</time>
      </trkpt>
      <trkpt lat="44.93909" lon="5.7372">
        <ele>1214.8000488281</ele>
        <time>2026-07-05T08:47:12.000Z</time>
      </trkpt>
      <trkpt lat="44.93908" lon="5.73719">
        <ele>1215</ele>
        <time>2026-07-05T08:47:13.000Z</time>
      </trkpt>
      <trkpt lat="44.93906" lon="5.73717">
        <ele>1215.1999511719</ele>
        <time>2026-07-05T08:47:14.000Z</time>
      </trkpt>
      <trkpt lat="44.93905" lon="5.73716">
        <ele>1215.1999511719</ele>
        <time>2026-07-05T08:47:15.000Z</time>
      </trkpt>
      <trkpt lat="44.93904" lon="5.73716">
        <ele>1215.4000244141</ele>
        <time>2026-07-05T08:47:16.000Z</time>
      </trkpt>
      <trkpt lat="44.93902" lon="5.73715">
        <ele>1215.4000244141</ele>
        <time>2026-07-05T08:47:17.000Z</time>
      </trkpt>
      <trkpt lat="44.93901" lon="5.73713">
        <ele>1215.5999755859</ele>
        <time>2026-07-05T08:47:18.000Z</time>
      </trkpt>
      <trkpt lat="44.93899" lon="5.73712">
        <ele>1215.5999755859</ele>
        <time>2026-07-05T08:47:19.000Z</time>
      </trkpt>
      <trkpt lat="44.93898" lon="5.73711">
        <ele>1215.8000488281</ele>
        <time>2026-07-05T08:47:20.000Z</time>
      </trkpt>
      <trkpt lat="44.93897" lon="5.7371">
        <ele>1216</ele>
        <time>2026-07-05T08:47:21.000Z</time>
      </trkpt>
      <trkpt lat="44.93896" lon="5.73708">
        <ele>1216.1999511719</ele>
        <time>2026-07-05T08:47:22.000Z</time>
      </trkpt>
      <trkpt lat="44.93895" lon="5.73707">
        <ele>1216.4000244141</ele>
        <time>2026-07-05T08:47:23.000Z</time>
      </trkpt>
      <trkpt lat="44.93894" lon="5.73705">
        <ele>1216.4000244141</ele>
        <time>2026-07-05T08:47:24.000Z</time>
      </trkpt>
      <trkpt lat="44.93893" lon="5.73703">
        <ele>1216.8000488281</ele>
        <time>2026-07-05T08:47:25.000Z</time>
      </trkpt>
      <trkpt lat="44.93892" lon="5.73702">
        <ele>1217</ele>
        <time>2026-07-05T08:47:26.000Z</time>
      </trkpt>
      <trkpt lat="44.93891" lon="5.737">
        <ele>1217.1999511719</ele>
        <time>2026-07-05T08:47:27.000Z</time>
      </trkpt>
      <trkpt lat="44.9389" lon="5.73699">
        <ele>1217.4000244141</ele>
        <time>2026-07-05T08:47:28.000Z</time>
      </trkpt>
      <trkpt lat="44.93889" lon="5.73697">
        <ele>1217.5999755859</ele>
        <time>2026-07-05T08:47:29.000Z</time>
      </trkpt>
      <trkpt lat="44.93888" lon="5.73696">
        <ele>1217.8000488281</ele>
        <time>2026-07-05T08:47:30.000Z</time>
      </trkpt>
      <trkpt lat="44.93887" lon="5.73695">
        <ele>1218.1999511719</ele>
        <time>2026-07-05T08:47:31.000Z</time>
      </trkpt>
      <trkpt lat="44.93886" lon="5.73693">
        <ele>1218.4000244141</ele>
        <time>2026-07-05T08:47:32.000Z</time>
      </trkpt>
      <trkpt lat="44.93885" lon="5.73692">
        <ele>1218.5999755859</ele>
        <time>2026-07-05T08:47:33.000Z</time>
      </trkpt>
      <trkpt lat="44.93885" lon="5.73691">
        <ele>1218.5999755859</ele>
        <time>2026-07-05T08:47:34.000Z</time>
      </trkpt>
      <trkpt lat="44.93884" lon="5.73689">
        <ele>1218.8000488281</ele>
        <time>2026-07-05T08:47:35.000Z</time>
      </trkpt>
      <trkpt lat="44.93883" lon="5.73687">
        <ele>1219.1999511719</ele>
        <time>2026-07-05T08:47:36.000Z</time>
      </trkpt>
      <trkpt lat="44.93883" lon="5.73686">
        <ele>1219.1999511719</ele>
        <time>2026-07-05T08:47:37.000Z</time>
      </trkpt>
      <trkpt lat="44.93882" lon="5.73685">
        <ele>1219.5999755859</ele>
        <time>2026-07-05T08:47:38.000Z</time>
      </trkpt>
      <trkpt lat="44.93881" lon="5.73683">
        <ele>1219.8000488281</ele>
        <time>2026-07-05T08:47:39.000Z</time>
      </trkpt>
      <trkpt lat="44.9388" lon="5.73681">
        <ele>1220</ele>
        <time>2026-07-05T08:47:40.000Z</time>
      </trkpt>
      <trkpt lat="44.93879" lon="5.73679">
        <ele>1220.1999511719</ele>
        <time>2026-07-05T08:47:41.000Z</time>
      </trkpt>
      <trkpt lat="44.93878" lon="5.73678">
        <ele>1220.4000244141</ele>
        <time>2026-07-05T08:47:42.000Z</time>
      </trkpt>
      <trkpt lat="44.93877" lon="5.73675">
        <ele>1220.5999755859</ele>
        <time>2026-07-05T08:47:43.000Z</time>
      </trkpt>
      <trkpt lat="44.93877" lon="5.73673">
        <ele>1220.8000488281</ele>
        <time>2026-07-05T08:47:44.000Z</time>
      </trkpt>
      <trkpt lat="44.93876" lon="5.73671">
        <ele>1221</ele>
        <time>2026-07-05T08:47:45.000Z</time>
      </trkpt>
      <trkpt lat="44.93875" lon="5.73669">
        <ele>1221.4000244141</ele>
        <time>2026-07-05T08:47:46.000Z</time>
      </trkpt>
      <trkpt lat="44.93874" lon="5.73667">
        <ele>1221.5999755859</ele>
        <time>2026-07-05T08:47:47.000Z</time>
      </trkpt>
      <trkpt lat="44.93873" lon="5.73665">
        <ele>1221.8000488281</ele>
        <time>2026-07-05T08:47:48.000Z</time>
      </trkpt>
      <trkpt lat="44.93872" lon="5.73663">
        <ele>1222</ele>
        <time>2026-07-05T08:47:49.000Z</time>
      </trkpt>
      <trkpt lat="44.93871" lon="5.73662">
        <ele>1222.1999511719</ele>
        <time>2026-07-05T08:47:50.000Z</time>
      </trkpt>
      <trkpt lat="44.93871" lon="5.73661">
        <ele>1222.4000244141</ele>
        <time>2026-07-05T08:47:51.000Z</time>
      </trkpt>
      <trkpt lat="44.9387" lon="5.73659">
        <ele>1222.5999755859</ele>
        <time>2026-07-05T08:47:52.000Z</time>
      </trkpt>
      <trkpt lat="44.93869" lon="5.73657">
        <ele>1222.5999755859</ele>
        <time>2026-07-05T08:47:53.000Z</time>
      </trkpt>
      <trkpt lat="44.93868" lon="5.73655">
        <ele>1222.8000488281</ele>
        <time>2026-07-05T08:47:54.000Z</time>
      </trkpt>
      <trkpt lat="44.93867" lon="5.73653">
        <ele>1223</ele>
        <time>2026-07-05T08:47:55.000Z</time>
      </trkpt>
      <trkpt lat="44.93866" lon="5.73651">
        <ele>1223.1999511719</ele>
        <time>2026-07-05T08:47:56.000Z</time>
      </trkpt>
      <trkpt lat="44.93865" lon="5.73649">
        <ele>1223.4000244141</ele>
        <time>2026-07-05T08:47:57.000Z</time>
      </trkpt>
      <trkpt lat="44.93864" lon="5.73648">
        <ele>1223.4000244141</ele>
        <time>2026-07-05T08:47:58.000Z</time>
      </trkpt>
      <trkpt lat="44.93863" lon="5.73646">
        <ele>1223.4000244141</ele>
        <time>2026-07-05T08:47:59.000Z</time>
      </trkpt>
      <trkpt lat="44.93863" lon="5.73644">
        <ele>1223.5999755859</ele>
        <time>2026-07-05T08:48:00.000Z</time>
      </trkpt>
      <trkpt lat="44.93861" lon="5.73642">
        <ele>1223.8000488281</ele>
        <time>2026-07-05T08:48:01.000Z</time>
      </trkpt>
      <trkpt lat="44.9386" lon="5.7364">
        <ele>1224.1999511719</ele>
        <time>2026-07-05T08:48:02.000Z</time>
      </trkpt>
      <trkpt lat="44.93859" lon="5.73638">
        <ele>1224.4000244141</ele>
        <time>2026-07-05T08:48:03.000Z</time>
      </trkpt>
      <trkpt lat="44.93858" lon="5.73636">
        <ele>1224.4000244141</ele>
        <time>2026-07-05T08:48:04.000Z</time>
      </trkpt>
      <trkpt lat="44.93857" lon="5.73635">
        <ele>1224.5999755859</ele>
        <time>2026-07-05T08:48:05.000Z</time>
      </trkpt>
      <trkpt lat="44.93856" lon="5.73634">
        <ele>1224.5999755859</ele>
        <time>2026-07-05T08:48:06.000Z</time>
      </trkpt>
      <trkpt lat="44.93855" lon="5.73633">
        <ele>1224.8000488281</ele>
        <time>2026-07-05T08:48:07.000Z</time>
      </trkpt>
      <trkpt lat="44.93854" lon="5.73632">
        <ele>1224.8000488281</ele>
        <time>2026-07-05T08:48:08.000Z</time>
      </trkpt>
      <trkpt lat="44.93852" lon="5.73631">
        <ele>1224.8000488281</ele>
        <time>2026-07-05T08:48:09.000Z</time>
      </trkpt>
      <trkpt lat="44.93851" lon="5.73629">
        <ele>1225</ele>
        <time>2026-07-05T08:48:10.000Z</time>
      </trkpt>
      <trkpt lat="44.9385" lon="5.73628">
        <ele>1225.1999511719</ele>
        <time>2026-07-05T08:48:11.000Z</time>
      </trkpt>
      <trkpt lat="44.93849" lon="5.73626">
        <ele>1225.4000244141</ele>
        <time>2026-07-05T08:48:12.000Z</time>
      </trkpt>
      <trkpt lat="44.93848" lon="5.73625">
        <ele>1225.5999755859</ele>
        <time>2026-07-05T08:48:13.000Z</time>
      </trkpt>
      <trkpt lat="44.93847" lon="5.73624">
        <ele>1225.5999755859</ele>
        <time>2026-07-05T08:48:14.000Z</time>
      </trkpt>
      <trkpt lat="44.93846" lon="5.73623">
        <ele>1225.8000488281</ele>
        <time>2026-07-05T08:48:15.000Z</time>
      </trkpt>
      <trkpt lat="44.93845" lon="5.73622">
        <ele>1225.8000488281</ele>
        <time>2026-07-05T08:48:16.000Z</time>
      </trkpt>
      <trkpt lat="44.93844" lon="5.73621">
        <ele>1226</ele>
        <time>2026-07-05T08:48:17.000Z</time>
      </trkpt>
      <trkpt lat="44.93842" lon="5.7362">
        <ele>1226.1999511719</ele>
        <time>2026-07-05T08:48:18.000Z</time>
      </trkpt>
      <trkpt lat="44.93841" lon="5.73619">
        <ele>1226.1999511719</ele>
        <time>2026-07-05T08:48:19.000Z</time>
      </trkpt>
      <trkpt lat="44.9384" lon="5.73618">
        <ele>1226.4000244141</ele>
        <time>2026-07-05T08:48:20.000Z</time>
      </trkpt>
      <trkpt lat="44.93839" lon="5.73617">
        <ele>1226.5999755859</ele>
        <time>2026-07-05T08:48:21.000Z</time>
      </trkpt>
      <trkpt lat="44.93838" lon="5.73616">
        <ele>1226.8000488281</ele>
        <time>2026-07-05T08:48:22.000Z</time>
      </trkpt>
      <trkpt lat="44.93837" lon="5.73614">
        <ele>1227</ele>
        <time>2026-07-05T08:48:23.000Z</time>
      </trkpt>
      <trkpt lat="44.93836" lon="5.73613">
        <ele>1227.1999511719</ele>
        <time>2026-07-05T08:48:24.000Z</time>
      </trkpt>
      <trkpt lat="44.93835" lon="5.73612">
        <ele>1227.4000244141</ele>
        <time>2026-07-05T08:48:25.000Z</time>
      </trkpt>
      <trkpt lat="44.93834" lon="5.73611">
        <ele>1227.5999755859</ele>
        <time>2026-07-05T08:48:26.000Z</time>
      </trkpt>
      <trkpt lat="44.93833" lon="5.73609">
        <ele>1227.5999755859</ele>
        <time>2026-07-05T08:48:27.000Z</time>
      </trkpt>
      <trkpt lat="44.93832" lon="5.73608">
        <ele>1227.8000488281</ele>
        <time>2026-07-05T08:48:28.000Z</time>
      </trkpt>
      <trkpt lat="44.93831" lon="5.73607">
        <ele>1228</ele>
        <time>2026-07-05T08:48:29.000Z</time>
      </trkpt>
      <trkpt lat="44.9383" lon="5.73605">
        <ele>1228.1999511719</ele>
        <time>2026-07-05T08:48:30.000Z</time>
      </trkpt>
      <trkpt lat="44.93829" lon="5.73604">
        <ele>1228.4000244141</ele>
        <time>2026-07-05T08:48:31.000Z</time>
      </trkpt>
      <trkpt lat="44.93828" lon="5.73603">
        <ele>1228.5999755859</ele>
        <time>2026-07-05T08:48:32.000Z</time>
      </trkpt>
      <trkpt lat="44.93827" lon="5.73601">
        <ele>1229</ele>
        <time>2026-07-05T08:48:33.000Z</time>
      </trkpt>
      <trkpt lat="44.93826" lon="5.736">
        <ele>1229</ele>
        <time>2026-07-05T08:48:34.000Z</time>
      </trkpt>
      <trkpt lat="44.93825" lon="5.73599">
        <ele>1229.1999511719</ele>
        <time>2026-07-05T08:48:35.000Z</time>
      </trkpt>
      <trkpt lat="44.93823" lon="5.73598">
        <ele>1229.4000244141</ele>
        <time>2026-07-05T08:48:36.000Z</time>
      </trkpt>
      <trkpt lat="44.93822" lon="5.73597">
        <ele>1229.5999755859</ele>
        <time>2026-07-05T08:48:37.000Z</time>
      </trkpt>
      <trkpt lat="44.93821" lon="5.73597">
        <ele>1229.8000488281</ele>
        <time>2026-07-05T08:48:38.000Z</time>
      </trkpt>
      <trkpt lat="44.9382" lon="5.73595">
        <ele>1230</ele>
        <time>2026-07-05T08:48:39.000Z</time>
      </trkpt>
      <trkpt lat="44.93819" lon="5.73594">
        <ele>1230.1999511719</ele>
        <time>2026-07-05T08:48:40.000Z</time>
      </trkpt>
      <trkpt lat="44.93818" lon="5.73593">
        <ele>1230.4000244141</ele>
        <time>2026-07-05T08:48:41.000Z</time>
      </trkpt>
      <trkpt lat="44.93817" lon="5.73592">
        <ele>1230.5999755859</ele>
        <time>2026-07-05T08:48:42.000Z</time>
      </trkpt>
      <trkpt lat="44.93816" lon="5.73592">
        <ele>1230.8000488281</ele>
        <time>2026-07-05T08:48:43.000Z</time>
      </trkpt>
      <trkpt lat="44.93815" lon="5.7359">
        <ele>1230.8000488281</ele>
        <time>2026-07-05T08:48:44.000Z</time>
      </trkpt>
      <trkpt lat="44.93813" lon="5.73589">
        <ele>1231</ele>
        <time>2026-07-05T08:48:45.000Z</time>
      </trkpt>
      <trkpt lat="44.93812" lon="5.73589">
        <ele>1231.1999511719</ele>
        <time>2026-07-05T08:48:46.000Z</time>
      </trkpt>
      <trkpt lat="44.93811" lon="5.73587">
        <ele>1231.1999511719</ele>
        <time>2026-07-05T08:48:47.000Z</time>
      </trkpt>
      <trkpt lat="44.93811" lon="5.73586">
        <ele>1231.4000244141</ele>
        <time>2026-07-05T08:48:48.000Z</time>
      </trkpt>
      <trkpt lat="44.9381" lon="5.73584">
        <ele>1231.5999755859</ele>
        <time>2026-07-05T08:48:49.000Z</time>
      </trkpt>
      <trkpt lat="44.93809" lon="5.73583">
        <ele>1231.8000488281</ele>
        <time>2026-07-05T08:48:50.000Z</time>
      </trkpt>
      <trkpt lat="44.93808" lon="5.73582">
        <ele>1232</ele>
        <time>2026-07-05T08:48:51.000Z</time>
      </trkpt>
      <trkpt lat="44.93807" lon="5.7358">
        <ele>1232.1999511719</ele>
        <time>2026-07-05T08:48:52.000Z</time>
      </trkpt>
      <trkpt lat="44.93807" lon="5.73578">
        <ele>1232.5999755859</ele>
        <time>2026-07-05T08:48:53.000Z</time>
      </trkpt>
      <trkpt lat="44.93806" lon="5.73576">
        <ele>1232.8000488281</ele>
        <time>2026-07-05T08:48:54.000Z</time>
      </trkpt>
      <trkpt lat="44.93805" lon="5.73574">
        <ele>1232.8000488281</ele>
        <time>2026-07-05T08:48:55.000Z</time>
      </trkpt>
      <trkpt lat="44.93805" lon="5.73572">
        <ele>1233</ele>
        <time>2026-07-05T08:48:56.000Z</time>
      </trkpt>
      <trkpt lat="44.93805" lon="5.73571">
        <ele>1233.1999511719</ele>
        <time>2026-07-05T08:48:57.000Z</time>
      </trkpt>
      <trkpt lat="44.93805" lon="5.73569">
        <ele>1233.4000244141</ele>
        <time>2026-07-05T08:48:58.000Z</time>
      </trkpt>
      <trkpt lat="44.93804" lon="5.73567">
        <ele>1233.5999755859</ele>
        <time>2026-07-05T08:48:59.000Z</time>
      </trkpt>
      <trkpt lat="44.93805" lon="5.73566">
        <ele>1233.5999755859</ele>
        <time>2026-07-05T08:49:00.000Z</time>
      </trkpt>
      <trkpt lat="44.93805" lon="5.73565">
        <ele>1233.8000488281</ele>
        <time>2026-07-05T08:49:01.000Z</time>
      </trkpt>
      <trkpt lat="44.93805" lon="5.73562">
        <ele>1234</ele>
        <time>2026-07-05T08:49:02.000Z</time>
      </trkpt>
      <trkpt lat="44.93804" lon="5.7356">
        <ele>1234.1999511719</ele>
        <time>2026-07-05T08:49:03.000Z</time>
      </trkpt>
      <trkpt lat="44.93804" lon="5.73558">
        <ele>1234.4000244141</ele>
        <time>2026-07-05T08:49:04.000Z</time>
      </trkpt>
      <trkpt lat="44.93804" lon="5.73556">
        <ele>1234.5999755859</ele>
        <time>2026-07-05T08:49:05.000Z</time>
      </trkpt>
      <trkpt lat="44.93805" lon="5.73554">
        <ele>1234.5999755859</ele>
        <time>2026-07-05T08:49:06.000Z</time>
      </trkpt>
      <trkpt lat="44.93805" lon="5.73551">
        <ele>1234.8000488281</ele>
        <time>2026-07-05T08:49:07.000Z</time>
      </trkpt>
      <trkpt lat="44.93806" lon="5.7355">
        <ele>1235</ele>
        <time>2026-07-05T08:49:08.000Z</time>
      </trkpt>
      <trkpt lat="44.93806" lon="5.73548">
        <ele>1235.1999511719</ele>
        <time>2026-07-05T08:49:09.000Z</time>
      </trkpt>
      <trkpt lat="44.93807" lon="5.73546">
        <ele>1235.4000244141</ele>
        <time>2026-07-05T08:49:10.000Z</time>
      </trkpt>
      <trkpt lat="44.93808" lon="5.73544">
        <ele>1235.5999755859</ele>
        <time>2026-07-05T08:49:11.000Z</time>
      </trkpt>
      <trkpt lat="44.93808" lon="5.73542">
        <ele>1235.5999755859</ele>
        <time>2026-07-05T08:49:12.000Z</time>
      </trkpt>
      <trkpt lat="44.93809" lon="5.7354">
        <ele>1235.8000488281</ele>
        <time>2026-07-05T08:49:13.000Z</time>
      </trkpt>
      <trkpt lat="44.9381" lon="5.73539">
        <ele>1236</ele>
        <time>2026-07-05T08:49:14.000Z</time>
      </trkpt>
      <trkpt lat="44.93811" lon="5.73537">
        <ele>1236.1999511719</ele>
        <time>2026-07-05T08:49:15.000Z</time>
      </trkpt>
      <trkpt lat="44.93811" lon="5.73535">
        <ele>1236.4000244141</ele>
        <time>2026-07-05T08:49:16.000Z</time>
      </trkpt>
      <trkpt lat="44.93812" lon="5.73533">
        <ele>1236.4000244141</ele>
        <time>2026-07-05T08:49:17.000Z</time>
      </trkpt>
      <trkpt lat="44.93813" lon="5.73532">
        <ele>1236.5999755859</ele>
        <time>2026-07-05T08:49:18.000Z</time>
      </trkpt>
      <trkpt lat="44.93814" lon="5.7353">
        <ele>1236.8000488281</ele>
        <time>2026-07-05T08:49:19.000Z</time>
      </trkpt>
      <trkpt lat="44.93814" lon="5.73528">
        <ele>1237</ele>
        <time>2026-07-05T08:49:20.000Z</time>
      </trkpt>
      <trkpt lat="44.93815" lon="5.73526">
        <ele>1237.1999511719</ele>
        <time>2026-07-05T08:49:21.000Z</time>
      </trkpt>
      <trkpt lat="44.93816" lon="5.73524">
        <ele>1237.4000244141</ele>
        <time>2026-07-05T08:49:22.000Z</time>
      </trkpt>
      <trkpt lat="44.93817" lon="5.73522">
        <ele>1237.5999755859</ele>
        <time>2026-07-05T08:49:23.000Z</time>
      </trkpt>
      <trkpt lat="44.93818" lon="5.7352">
        <ele>1237.8000488281</ele>
        <time>2026-07-05T08:49:24.000Z</time>
      </trkpt>
      <trkpt lat="44.93819" lon="5.73518">
        <ele>1237.8000488281</ele>
        <time>2026-07-05T08:49:25.000Z</time>
      </trkpt>
      <trkpt lat="44.93819" lon="5.73517">
        <ele>1238</ele>
        <time>2026-07-05T08:49:26.000Z</time>
      </trkpt>
      <trkpt lat="44.93821" lon="5.73515">
        <ele>1238.1999511719</ele>
        <time>2026-07-05T08:49:27.000Z</time>
      </trkpt>
      <trkpt lat="44.93822" lon="5.73513">
        <ele>1238.4000244141</ele>
        <time>2026-07-05T08:49:28.000Z</time>
      </trkpt>
      <trkpt lat="44.93823" lon="5.73511">
        <ele>1238.4000244141</ele>
        <time>2026-07-05T08:49:29.000Z</time>
      </trkpt>
      <trkpt lat="44.93824" lon="5.7351">
        <ele>1238.5999755859</ele>
        <time>2026-07-05T08:49:30.000Z</time>
      </trkpt>
      <trkpt lat="44.93825" lon="5.73508">
        <ele>1238.8000488281</ele>
        <time>2026-07-05T08:49:31.000Z</time>
      </trkpt>
      <trkpt lat="44.93826" lon="5.73506">
        <ele>1239</ele>
        <time>2026-07-05T08:49:32.000Z</time>
      </trkpt>
      <trkpt lat="44.93827" lon="5.73504">
        <ele>1239.1999511719</ele>
        <time>2026-07-05T08:49:33.000Z</time>
      </trkpt>
      <trkpt lat="44.93828" lon="5.73502">
        <ele>1239.4000244141</ele>
        <time>2026-07-05T08:49:34.000Z</time>
      </trkpt>
      <trkpt lat="44.93828" lon="5.73501">
        <ele>1239.5999755859</ele>
        <time>2026-07-05T08:49:35.000Z</time>
      </trkpt>
      <trkpt lat="44.93829" lon="5.73499">
        <ele>1239.5999755859</ele>
        <time>2026-07-05T08:49:36.000Z</time>
      </trkpt>
      <trkpt lat="44.9383" lon="5.73497">
        <ele>1239.8000488281</ele>
        <time>2026-07-05T08:49:37.000Z</time>
      </trkpt>
      <trkpt lat="44.93831" lon="5.73495">
        <ele>1240</ele>
        <time>2026-07-05T08:49:38.000Z</time>
      </trkpt>
      <trkpt lat="44.93832" lon="5.73493">
        <ele>1240.1999511719</ele>
        <time>2026-07-05T08:49:39.000Z</time>
      </trkpt>
      <trkpt lat="44.93833" lon="5.7349">
        <ele>1240.4000244141</ele>
        <time>2026-07-05T08:49:40.000Z</time>
      </trkpt>
      <trkpt lat="44.93833" lon="5.73488">
        <ele>1240.5999755859</ele>
        <time>2026-07-05T08:49:41.000Z</time>
      </trkpt>
      <trkpt lat="44.93834" lon="5.73487">
        <ele>1240.8000488281</ele>
        <time>2026-07-05T08:49:42.000Z</time>
      </trkpt>
      <trkpt lat="44.93835" lon="5.73484">
        <ele>1241</ele>
        <time>2026-07-05T08:49:43.000Z</time>
      </trkpt>
      <trkpt lat="44.93836" lon="5.73483">
        <ele>1241.1999511719</ele>
        <time>2026-07-05T08:49:44.000Z</time>
      </trkpt>
      <trkpt lat="44.93837" lon="5.73481">
        <ele>1241.1999511719</ele>
        <time>2026-07-05T08:49:45.000Z</time>
      </trkpt>
      <trkpt lat="44.93837" lon="5.73478">
        <ele>1241.4000244141</ele>
        <time>2026-07-05T08:49:46.000Z</time>
      </trkpt>
      <trkpt lat="44.93838" lon="5.73476">
        <ele>1241.5999755859</ele>
        <time>2026-07-05T08:49:47.000Z</time>
      </trkpt>
      <trkpt lat="44.93839" lon="5.73474">
        <ele>1241.8000488281</ele>
        <time>2026-07-05T08:49:48.000Z</time>
      </trkpt>
      <trkpt lat="44.9384" lon="5.73471">
        <ele>1241.8000488281</ele>
        <time>2026-07-05T08:49:49.000Z</time>
      </trkpt>
      <trkpt lat="44.93841" lon="5.73468">
        <ele>1241.8000488281</ele>
        <time>2026-07-05T08:49:50.000Z</time>
      </trkpt>
      <trkpt lat="44.93842" lon="5.73466">
        <ele>1242</ele>
        <time>2026-07-05T08:49:51.000Z</time>
      </trkpt>
      <trkpt lat="44.93843" lon="5.73463">
        <ele>1242</ele>
        <time>2026-07-05T08:49:52.000Z</time>
      </trkpt>
      <trkpt lat="44.93844" lon="5.7346">
        <ele>1242</ele>
        <time>2026-07-05T08:49:53.000Z</time>
      </trkpt>
      <trkpt lat="44.93845" lon="5.73457">
        <ele>1242</ele>
        <time>2026-07-05T08:49:54.000Z</time>
      </trkpt>
      <trkpt lat="44.93846" lon="5.73454">
        <ele>1242</ele>
        <time>2026-07-05T08:49:55.000Z</time>
      </trkpt>
      <trkpt lat="44.93847" lon="5.73451">
        <ele>1242</ele>
        <time>2026-07-05T08:49:56.000Z</time>
      </trkpt>
      <trkpt lat="44.93848" lon="5.73449">
        <ele>1242</ele>
        <time>2026-07-05T08:49:57.000Z</time>
      </trkpt>
      <trkpt lat="44.93849" lon="5.73446">
        <ele>1242</ele>
        <time>2026-07-05T08:49:58.000Z</time>
      </trkpt>
      <trkpt lat="44.93848" lon="5.73443">
        <ele>1242.1999511719</ele>
        <time>2026-07-05T08:49:59.000Z</time>
      </trkpt>
      <trkpt lat="44.93847" lon="5.73442">
        <ele>1242.1999511719</ele>
        <time>2026-07-05T08:50:00.000Z</time>
      </trkpt>
      <trkpt lat="44.93846" lon="5.73442">
        <ele>1242.4000244141</ele>
        <time>2026-07-05T08:50:01.000Z</time>
      </trkpt>
      <trkpt lat="44.93844" lon="5.73443">
        <ele>1242.4000244141</ele>
        <time>2026-07-05T08:50:02.000Z</time>
      </trkpt>
      <trkpt lat="44.93843" lon="5.73443">
        <ele>1242.8000488281</ele>
        <time>2026-07-05T08:50:03.000Z</time>
      </trkpt>
      <trkpt lat="44.93842" lon="5.73444">
        <ele>1243.1999511719</ele>
        <time>2026-07-05T08:50:04.000Z</time>
      </trkpt>
      <trkpt lat="44.93841" lon="5.73445">
        <ele>1243.4000244141</ele>
        <time>2026-07-05T08:50:05.000Z</time>
      </trkpt>
      <trkpt lat="44.93839" lon="5.73446">
        <ele>1243.5999755859</ele>
        <time>2026-07-05T08:50:06.000Z</time>
      </trkpt>
      <trkpt lat="44.93837" lon="5.73447">
        <ele>1243.8000488281</ele>
        <time>2026-07-05T08:50:07.000Z</time>
      </trkpt>
      <trkpt lat="44.93836" lon="5.73448">
        <ele>1243.8000488281</ele>
        <time>2026-07-05T08:50:08.000Z</time>
      </trkpt>
      <trkpt lat="44.93835" lon="5.73448">
        <ele>1244</ele>
        <time>2026-07-05T08:50:09.000Z</time>
      </trkpt>
      <trkpt lat="44.93833" lon="5.73449">
        <ele>1244.1999511719</ele>
        <time>2026-07-05T08:50:10.000Z</time>
      </trkpt>
      <trkpt lat="44.93831" lon="5.7345">
        <ele>1244.1999511719</ele>
        <time>2026-07-05T08:50:11.000Z</time>
      </trkpt>
      <trkpt lat="44.9383" lon="5.73451">
        <ele>1244.4000244141</ele>
        <time>2026-07-05T08:50:12.000Z</time>
      </trkpt>
      <trkpt lat="44.93828" lon="5.73452">
        <ele>1244.4000244141</ele>
        <time>2026-07-05T08:50:13.000Z</time>
      </trkpt>
      <trkpt lat="44.93827" lon="5.73453">
        <ele>1244.5999755859</ele>
        <time>2026-07-05T08:50:14.000Z</time>
      </trkpt>
      <trkpt lat="44.93826" lon="5.73455">
        <ele>1244.5999755859</ele>
        <time>2026-07-05T08:50:15.000Z</time>
      </trkpt>
      <trkpt lat="44.93825" lon="5.73456">
        <ele>1244.8000488281</ele>
        <time>2026-07-05T08:50:16.000Z</time>
      </trkpt>
      <trkpt lat="44.93823" lon="5.73457">
        <ele>1245</ele>
        <time>2026-07-05T08:50:17.000Z</time>
      </trkpt>
      <trkpt lat="44.93822" lon="5.73459">
        <ele>1245.1999511719</ele>
        <time>2026-07-05T08:50:18.000Z</time>
      </trkpt>
      <trkpt lat="44.9382" lon="5.7346">
        <ele>1245.4000244141</ele>
        <time>2026-07-05T08:50:19.000Z</time>
      </trkpt>
      <trkpt lat="44.93819" lon="5.73461">
        <ele>1245.4000244141</ele>
        <time>2026-07-05T08:50:20.000Z</time>
      </trkpt>
      <trkpt lat="44.93818" lon="5.73463">
        <ele>1245.8000488281</ele>
        <time>2026-07-05T08:50:21.000Z</time>
      </trkpt>
      <trkpt lat="44.93817" lon="5.73465">
        <ele>1246</ele>
        <time>2026-07-05T08:50:22.000Z</time>
      </trkpt>
      <trkpt lat="44.93816" lon="5.73466">
        <ele>1246</ele>
        <time>2026-07-05T08:50:23.000Z</time>
      </trkpt>
      <trkpt lat="44.93814" lon="5.73468">
        <ele>1246.1999511719</ele>
        <time>2026-07-05T08:50:24.000Z</time>
      </trkpt>
      <trkpt lat="44.93812" lon="5.73469">
        <ele>1246.1999511719</ele>
        <time>2026-07-05T08:50:25.000Z</time>
      </trkpt>
      <trkpt lat="44.93811" lon="5.7347">
        <ele>1246.4000244141</ele>
        <time>2026-07-05T08:50:26.000Z</time>
      </trkpt>
      <trkpt lat="44.9381" lon="5.73471">
        <ele>1246.4000244141</ele>
        <time>2026-07-05T08:50:27.000Z</time>
      </trkpt>
      <trkpt lat="44.93808" lon="5.73473">
        <ele>1246.5999755859</ele>
        <time>2026-07-05T08:50:28.000Z</time>
      </trkpt>
      <trkpt lat="44.93807" lon="5.73474">
        <ele>1246.5999755859</ele>
        <time>2026-07-05T08:50:29.000Z</time>
      </trkpt>
      <trkpt lat="44.93806" lon="5.73475">
        <ele>1246.8000488281</ele>
        <time>2026-07-05T08:50:30.000Z</time>
      </trkpt>
      <trkpt lat="44.93804" lon="5.73476">
        <ele>1246.8000488281</ele>
        <time>2026-07-05T08:50:31.000Z</time>
      </trkpt>
      <trkpt lat="44.93803" lon="5.73478">
        <ele>1247</ele>
        <time>2026-07-05T08:50:32.000Z</time>
      </trkpt>
      <trkpt lat="44.93801" lon="5.73479">
        <ele>1247</ele>
        <time>2026-07-05T08:50:33.000Z</time>
      </trkpt>
      <trkpt lat="44.938" lon="5.7348">
        <ele>1247.1999511719</ele>
        <time>2026-07-05T08:50:34.000Z</time>
      </trkpt>
      <trkpt lat="44.93798" lon="5.73481">
        <ele>1247.4000244141</ele>
        <time>2026-07-05T08:50:35.000Z</time>
      </trkpt>
      <trkpt lat="44.93796" lon="5.73482">
        <ele>1247.5999755859</ele>
        <time>2026-07-05T08:50:36.000Z</time>
      </trkpt>
      <trkpt lat="44.93795" lon="5.73484">
        <ele>1247.5999755859</ele>
        <time>2026-07-05T08:50:37.000Z</time>
      </trkpt>
      <trkpt lat="44.93793" lon="5.73485">
        <ele>1247.8000488281</ele>
        <time>2026-07-05T08:50:38.000Z</time>
      </trkpt>
      <trkpt lat="44.93791" lon="5.73485">
        <ele>1247.8000488281</ele>
        <time>2026-07-05T08:50:39.000Z</time>
      </trkpt>
      <trkpt lat="44.93789" lon="5.73486">
        <ele>1248</ele>
        <time>2026-07-05T08:50:40.000Z</time>
      </trkpt>
      <trkpt lat="44.93787" lon="5.73487">
        <ele>1248.1999511719</ele>
        <time>2026-07-05T08:50:41.000Z</time>
      </trkpt>
      <trkpt lat="44.93786" lon="5.73488">
        <ele>1248.1999511719</ele>
        <time>2026-07-05T08:50:42.000Z</time>
      </trkpt>
      <trkpt lat="44.93784" lon="5.7349">
        <ele>1248.4000244141</ele>
        <time>2026-07-05T08:50:43.000Z</time>
      </trkpt>
      <trkpt lat="44.93782" lon="5.73491">
        <ele>1248.4000244141</ele>
        <time>2026-07-05T08:50:44.000Z</time>
      </trkpt>
      <trkpt lat="44.9378" lon="5.73492">
        <ele>1248.5999755859</ele>
        <time>2026-07-05T08:50:45.000Z</time>
      </trkpt>
      <trkpt lat="44.93779" lon="5.73493">
        <ele>1248.5999755859</ele>
        <time>2026-07-05T08:50:46.000Z</time>
      </trkpt>
      <trkpt lat="44.93776" lon="5.73494">
        <ele>1248.8000488281</ele>
        <time>2026-07-05T08:50:47.000Z</time>
      </trkpt>
      <trkpt lat="44.93775" lon="5.73494">
        <ele>1248.8000488281</ele>
        <time>2026-07-05T08:50:48.000Z</time>
      </trkpt>
      <trkpt lat="44.93773" lon="5.73496">
        <ele>1248.8000488281</ele>
        <time>2026-07-05T08:50:49.000Z</time>
      </trkpt>
      <trkpt lat="44.93771" lon="5.73498">
        <ele>1248.5999755859</ele>
        <time>2026-07-05T08:50:50.000Z</time>
      </trkpt>
      <trkpt lat="44.9377" lon="5.73501">
        <ele>1248.5999755859</ele>
        <time>2026-07-05T08:50:51.000Z</time>
      </trkpt>
      <trkpt lat="44.93769" lon="5.73502">
        <ele>1248.5999755859</ele>
        <time>2026-07-05T08:50:52.000Z</time>
      </trkpt>
      <trkpt lat="44.93768" lon="5.73504">
        <ele>1248.4000244141</ele>
        <time>2026-07-05T08:50:53.000Z</time>
      </trkpt>
      <trkpt lat="44.93767" lon="5.73506">
        <ele>1248.4000244141</ele>
        <time>2026-07-05T08:50:54.000Z</time>
      </trkpt>
      <trkpt lat="44.93766" lon="5.73508">
        <ele>1248.4000244141</ele>
        <time>2026-07-05T08:50:55.000Z</time>
      </trkpt>
      <trkpt lat="44.93764" lon="5.7351">
        <ele>1248.4000244141</ele>
        <time>2026-07-05T08:50:56.000Z</time>
      </trkpt>
      <trkpt lat="44.93763" lon="5.73512">
        <ele>1248.4000244141</ele>
        <time>2026-07-05T08:50:57.000Z</time>
      </trkpt>
      <trkpt lat="44.93762" lon="5.73514">
        <ele>1248.4000244141</ele>
        <time>2026-07-05T08:50:58.000Z</time>
      </trkpt>
      <trkpt lat="44.93761" lon="5.73516">
        <ele>1248.4000244141</ele>
        <time>2026-07-05T08:50:59.000Z</time>
      </trkpt>
      <trkpt lat="44.9376" lon="5.73518">
        <ele>1248.5999755859</ele>
        <time>2026-07-05T08:51:00.000Z</time>
      </trkpt>
      <trkpt lat="44.93759" lon="5.73519">
        <ele>1248.8000488281</ele>
        <time>2026-07-05T08:51:01.000Z</time>
      </trkpt>
      <trkpt lat="44.93758" lon="5.73521">
        <ele>1249</ele>
        <time>2026-07-05T08:51:02.000Z</time>
      </trkpt>
      <trkpt lat="44.93756" lon="5.73523">
        <ele>1249.1999511719</ele>
        <time>2026-07-05T08:51:03.000Z</time>
      </trkpt>
      <trkpt lat="44.93754" lon="5.73524">
        <ele>1249.1999511719</ele>
        <time>2026-07-05T08:51:04.000Z</time>
      </trkpt>
      <trkpt lat="44.93752" lon="5.73525">
        <ele>1249.4000244141</ele>
        <time>2026-07-05T08:51:05.000Z</time>
      </trkpt>
      <trkpt lat="44.93751" lon="5.73526">
        <ele>1249.5999755859</ele>
        <time>2026-07-05T08:51:06.000Z</time>
      </trkpt>
      <trkpt lat="44.93749" lon="5.73528">
        <ele>1249.8000488281</ele>
        <time>2026-07-05T08:51:07.000Z</time>
      </trkpt>
      <trkpt lat="44.93748" lon="5.7353">
        <ele>1250</ele>
        <time>2026-07-05T08:51:08.000Z</time>
      </trkpt>
      <trkpt lat="44.93745" lon="5.73531">
        <ele>1250</ele>
        <time>2026-07-05T08:51:09.000Z</time>
      </trkpt>
      <trkpt lat="44.93743" lon="5.73532">
        <ele>1249.8000488281</ele>
        <time>2026-07-05T08:51:10.000Z</time>
      </trkpt>
      <trkpt lat="44.93742" lon="5.73533">
        <ele>1249.8000488281</ele>
        <time>2026-07-05T08:51:11.000Z</time>
      </trkpt>
      <trkpt lat="44.9374" lon="5.73535">
        <ele>1249.8000488281</ele>
        <time>2026-07-05T08:51:12.000Z</time>
      </trkpt>
      <trkpt lat="44.93739" lon="5.73536">
        <ele>1249.8000488281</ele>
        <time>2026-07-05T08:51:13.000Z</time>
      </trkpt>
      <trkpt lat="44.93737" lon="5.73538">
        <ele>1250</ele>
        <time>2026-07-05T08:51:14.000Z</time>
      </trkpt>
      <trkpt lat="44.93736" lon="5.73539">
        <ele>1250.1999511719</ele>
        <time>2026-07-05T08:51:15.000Z</time>
      </trkpt>
      <trkpt lat="44.93735" lon="5.73541">
        <ele>1250.5999755859</ele>
        <time>2026-07-05T08:51:16.000Z</time>
      </trkpt>
      <trkpt lat="44.93734" lon="5.73542">
        <ele>1250.8000488281</ele>
        <time>2026-07-05T08:51:17.000Z</time>
      </trkpt>
      <trkpt lat="44.93733" lon="5.73544">
        <ele>1251</ele>
        <time>2026-07-05T08:51:18.000Z</time>
      </trkpt>
      <trkpt lat="44.93732" lon="5.73545">
        <ele>1251.1999511719</ele>
        <time>2026-07-05T08:51:19.000Z</time>
      </trkpt>
      <trkpt lat="44.9373" lon="5.73547">
        <ele>1251.4000244141</ele>
        <time>2026-07-05T08:51:20.000Z</time>
      </trkpt>
      <trkpt lat="44.93729" lon="5.73548">
        <ele>1251.4000244141</ele>
        <time>2026-07-05T08:51:21.000Z</time>
      </trkpt>
      <trkpt lat="44.93728" lon="5.7355">
        <ele>1251.5999755859</ele>
        <time>2026-07-05T08:51:22.000Z</time>
      </trkpt>
      <trkpt lat="44.93727" lon="5.73552">
        <ele>1251.8000488281</ele>
        <time>2026-07-05T08:51:23.000Z</time>
      </trkpt>
      <trkpt lat="44.93725" lon="5.73553">
        <ele>1252</ele>
        <time>2026-07-05T08:51:24.000Z</time>
      </trkpt>
      <trkpt lat="44.93724" lon="5.73555">
        <ele>1252.1999511719</ele>
        <time>2026-07-05T08:51:25.000Z</time>
      </trkpt>
      <trkpt lat="44.93723" lon="5.73556">
        <ele>1252.1999511719</ele>
        <time>2026-07-05T08:51:26.000Z</time>
      </trkpt>
      <trkpt lat="44.93721" lon="5.73558">
        <ele>1252.4000244141</ele>
        <time>2026-07-05T08:51:27.000Z</time>
      </trkpt>
      <trkpt lat="44.9372" lon="5.7356">
        <ele>1252.5999755859</ele>
        <time>2026-07-05T08:51:28.000Z</time>
      </trkpt>
      <trkpt lat="44.93719" lon="5.73562">
        <ele>1252.5999755859</ele>
        <time>2026-07-05T08:51:29.000Z</time>
      </trkpt>
      <trkpt lat="44.93718" lon="5.73564">
        <ele>1252.8000488281</ele>
        <time>2026-07-05T08:51:30.000Z</time>
      </trkpt>
      <trkpt lat="44.93717" lon="5.73565">
        <ele>1253</ele>
        <time>2026-07-05T08:51:31.000Z</time>
      </trkpt>
      <trkpt lat="44.93716" lon="5.73567">
        <ele>1253.1999511719</ele>
        <time>2026-07-05T08:51:32.000Z</time>
      </trkpt>
      <trkpt lat="44.93715" lon="5.73569">
        <ele>1253.4000244141</ele>
        <time>2026-07-05T08:51:33.000Z</time>
      </trkpt>
      <trkpt lat="44.93715" lon="5.73572">
        <ele>1253.8000488281</ele>
        <time>2026-07-05T08:51:34.000Z</time>
      </trkpt>
      <trkpt lat="44.93714" lon="5.73574">
        <ele>1254</ele>
        <time>2026-07-05T08:51:35.000Z</time>
      </trkpt>
      <trkpt lat="44.93713" lon="5.73576">
        <ele>1254</ele>
        <time>2026-07-05T08:51:36.000Z</time>
      </trkpt>
      <trkpt lat="44.93713" lon="5.73577">
        <ele>1254</ele>
        <time>2026-07-05T08:51:37.000Z</time>
      </trkpt>
      <trkpt lat="44.93712" lon="5.73578">
        <ele>1254.1999511719</ele>
        <time>2026-07-05T08:51:38.000Z</time>
      </trkpt>
      <trkpt lat="44.93711" lon="5.7358">
        <ele>1254.1999511719</ele>
        <time>2026-07-05T08:51:39.000Z</time>
      </trkpt>
      <trkpt lat="44.9371" lon="5.73581">
        <ele>1254.4000244141</ele>
        <time>2026-07-05T08:51:40.000Z</time>
      </trkpt>
      <trkpt lat="44.9371" lon="5.73583">
        <ele>1254.5999755859</ele>
        <time>2026-07-05T08:51:41.000Z</time>
      </trkpt>
      <trkpt lat="44.9371" lon="5.73585">
        <ele>1255</ele>
        <time>2026-07-05T08:51:42.000Z</time>
      </trkpt>
      <trkpt lat="44.93709" lon="5.73586">
        <ele>1255.4000244141</ele>
        <time>2026-07-05T08:51:43.000Z</time>
      </trkpt>
      <trkpt lat="44.93708" lon="5.73587">
        <ele>1255.5999755859</ele>
        <time>2026-07-05T08:51:44.000Z</time>
      </trkpt>
      <trkpt lat="44.93708" lon="5.73589">
        <ele>1255.8000488281</ele>
        <time>2026-07-05T08:51:45.000Z</time>
      </trkpt>
      <trkpt lat="44.93708" lon="5.7359">
        <ele>1256</ele>
        <time>2026-07-05T08:51:46.000Z</time>
      </trkpt>
      <trkpt lat="44.93707" lon="5.73592">
        <ele>1256</ele>
        <time>2026-07-05T08:51:47.000Z</time>
      </trkpt>
      <trkpt lat="44.93707" lon="5.73594">
        <ele>1256.1999511719</ele>
        <time>2026-07-05T08:51:48.000Z</time>
      </trkpt>
      <trkpt lat="44.93707" lon="5.73596">
        <ele>1256.1999511719</ele>
        <time>2026-07-05T08:51:49.000Z</time>
      </trkpt>
      <trkpt lat="44.93707" lon="5.73598">
        <ele>1256.4000244141</ele>
        <time>2026-07-05T08:51:50.000Z</time>
      </trkpt>
      <trkpt lat="44.93706" lon="5.73599">
        <ele>1256.4000244141</ele>
        <time>2026-07-05T08:51:51.000Z</time>
      </trkpt>
      <trkpt lat="44.93706" lon="5.73601">
        <ele>1256.4000244141</ele>
        <time>2026-07-05T08:51:52.000Z</time>
      </trkpt>
      <trkpt lat="44.93706" lon="5.73603">
        <ele>1256.5999755859</ele>
        <time>2026-07-05T08:51:53.000Z</time>
      </trkpt>
      <trkpt lat="44.93706" lon="5.73604">
        <ele>1256.5999755859</ele>
        <time>2026-07-05T08:51:54.000Z</time>
      </trkpt>
      <trkpt lat="44.93705" lon="5.73606">
        <ele>1256.8000488281</ele>
        <time>2026-07-05T08:51:55.000Z</time>
      </trkpt>
      <trkpt lat="44.93705" lon="5.73608">
        <ele>1257</ele>
        <time>2026-07-05T08:51:56.000Z</time>
      </trkpt>
      <trkpt lat="44.93705" lon="5.7361">
        <ele>1257.4000244141</ele>
        <time>2026-07-05T08:51:57.000Z</time>
      </trkpt>
      <trkpt lat="44.93705" lon="5.73612">
        <ele>1257.5999755859</ele>
        <time>2026-07-05T08:51:58.000Z</time>
      </trkpt>
      <trkpt lat="44.93705" lon="5.73614">
        <ele>1257.8000488281</ele>
        <time>2026-07-05T08:51:59.000Z</time>
      </trkpt>
      <trkpt lat="44.93705" lon="5.73616">
        <ele>1257.8000488281</ele>
        <time>2026-07-05T08:52:00.000Z</time>
      </trkpt>
      <trkpt lat="44.93704" lon="5.73618">
        <ele>1257.8000488281</ele>
        <time>2026-07-05T08:52:01.000Z</time>
      </trkpt>
      <trkpt lat="44.93704" lon="5.73619">
        <ele>1257.8000488281</ele>
        <time>2026-07-05T08:52:02.000Z</time>
      </trkpt>
      <trkpt lat="44.93704" lon="5.73621">
        <ele>1257.8000488281</ele>
        <time>2026-07-05T08:52:03.000Z</time>
      </trkpt>
      <trkpt lat="44.93704" lon="5.73623">
        <ele>1258</ele>
        <time>2026-07-05T08:52:04.000Z</time>
      </trkpt>
      <trkpt lat="44.93704" lon="5.73624">
        <ele>1258.1999511719</ele>
        <time>2026-07-05T08:52:05.000Z</time>
      </trkpt>
      <trkpt lat="44.93703" lon="5.73626">
        <ele>1258.4000244141</ele>
        <time>2026-07-05T08:52:06.000Z</time>
      </trkpt>
      <trkpt lat="44.93703" lon="5.73627">
        <ele>1258.8000488281</ele>
        <time>2026-07-05T08:52:07.000Z</time>
      </trkpt>
      <trkpt lat="44.93703" lon="5.73629">
        <ele>1258.8000488281</ele>
        <time>2026-07-05T08:52:08.000Z</time>
      </trkpt>
      <trkpt lat="44.93703" lon="5.7363">
        <ele>1259</ele>
        <time>2026-07-05T08:52:09.000Z</time>
      </trkpt>
      <trkpt lat="44.93703" lon="5.73632">
        <ele>1259</ele>
        <time>2026-07-05T08:52:10.000Z</time>
      </trkpt>
      <trkpt lat="44.93703" lon="5.73633">
        <ele>1259.1999511719</ele>
        <time>2026-07-05T08:52:11.000Z</time>
      </trkpt>
      <trkpt lat="44.93703" lon="5.73635">
        <ele>1259.1999511719</ele>
        <time>2026-07-05T08:52:12.000Z</time>
      </trkpt>
      <trkpt lat="44.93703" lon="5.73636">
        <ele>1259.4000244141</ele>
        <time>2026-07-05T08:52:13.000Z</time>
      </trkpt>
      <trkpt lat="44.93702" lon="5.73637">
        <ele>1259.5999755859</ele>
        <time>2026-07-05T08:52:14.000Z</time>
      </trkpt>
      <trkpt lat="44.93703" lon="5.73639">
        <ele>1259.8000488281</ele>
        <time>2026-07-05T08:52:15.000Z</time>
      </trkpt>
      <trkpt lat="44.93703" lon="5.7364">
        <ele>1260.1999511719</ele>
        <time>2026-07-05T08:52:16.000Z</time>
      </trkpt>
      <trkpt lat="44.93702" lon="5.73642">
        <ele>1260.4000244141</ele>
        <time>2026-07-05T08:52:17.000Z</time>
      </trkpt>
      <trkpt lat="44.93703" lon="5.73644">
        <ele>1260.5999755859</ele>
        <time>2026-07-05T08:52:18.000Z</time>
      </trkpt>
      <trkpt lat="44.93702" lon="5.73646">
        <ele>1260.8000488281</ele>
        <time>2026-07-05T08:52:19.000Z</time>
      </trkpt>
      <trkpt lat="44.93702" lon="5.73647">
        <ele>1261.1999511719</ele>
        <time>2026-07-05T08:52:20.000Z</time>
      </trkpt>
      <trkpt lat="44.93702" lon="5.73649">
        <ele>1261.4000244141</ele>
        <time>2026-07-05T08:52:21.000Z</time>
      </trkpt>
      <trkpt lat="44.93702" lon="5.7365">
        <ele>1261.5999755859</ele>
        <time>2026-07-05T08:52:22.000Z</time>
      </trkpt>
      <trkpt lat="44.93702" lon="5.73652">
        <ele>1261.8000488281</ele>
        <time>2026-07-05T08:52:23.000Z</time>
      </trkpt>
      <trkpt lat="44.93703" lon="5.73653">
        <ele>1262</ele>
        <time>2026-07-05T08:52:24.000Z</time>
      </trkpt>
      <trkpt lat="44.93703" lon="5.73655">
        <ele>1262.1999511719</ele>
        <time>2026-07-05T08:52:25.000Z</time>
      </trkpt>
      <trkpt lat="44.93703" lon="5.73656">
        <ele>1262.4000244141</ele>
        <time>2026-07-05T08:52:26.000Z</time>
      </trkpt>
      <trkpt lat="44.93703" lon="5.73658">
        <ele>1262.5999755859</ele>
        <time>2026-07-05T08:52:27.000Z</time>
      </trkpt>
      <trkpt lat="44.93703" lon="5.73659">
        <ele>1262.8000488281</ele>
        <time>2026-07-05T08:52:28.000Z</time>
      </trkpt>
      <trkpt lat="44.93703" lon="5.7366">
        <ele>1263.1999511719</ele>
        <time>2026-07-05T08:52:29.000Z</time>
      </trkpt>
      <trkpt lat="44.93703" lon="5.73662">
        <ele>1263.4000244141</ele>
        <time>2026-07-05T08:52:30.000Z</time>
      </trkpt>
      <trkpt lat="44.93703" lon="5.73663">
        <ele>1263.5999755859</ele>
        <time>2026-07-05T08:52:31.000Z</time>
      </trkpt>
      <trkpt lat="44.93704" lon="5.73664">
        <ele>1263.8000488281</ele>
        <time>2026-07-05T08:52:32.000Z</time>
      </trkpt>
      <trkpt lat="44.93703" lon="5.73665">
        <ele>1264</ele>
        <time>2026-07-05T08:52:33.000Z</time>
      </trkpt>
      <trkpt lat="44.93703" lon="5.73667">
        <ele>1264.1999511719</ele>
        <time>2026-07-05T08:52:34.000Z</time>
      </trkpt>
      <trkpt lat="44.93703" lon="5.73668">
        <ele>1264.4000244141</ele>
        <time>2026-07-05T08:52:35.000Z</time>
      </trkpt>
      <trkpt lat="44.93702" lon="5.73669">
        <ele>1264.8000488281</ele>
        <time>2026-07-05T08:52:36.000Z</time>
      </trkpt>
      <trkpt lat="44.93701" lon="5.73671">
        <ele>1265</ele>
        <time>2026-07-05T08:52:37.000Z</time>
      </trkpt>
      <trkpt lat="44.93701" lon="5.73672">
        <ele>1265.4000244141</ele>
        <time>2026-07-05T08:52:38.000Z</time>
      </trkpt>
      <trkpt lat="44.937" lon="5.73674">
        <ele>1265.5999755859</ele>
        <time>2026-07-05T08:52:39.000Z</time>
      </trkpt>
      <trkpt lat="44.93699" lon="5.73675">
        <ele>1265.8000488281</ele>
        <time>2026-07-05T08:52:40.000Z</time>
      </trkpt>
      <trkpt lat="44.93698" lon="5.73676">
        <ele>1266.1999511719</ele>
        <time>2026-07-05T08:52:41.000Z</time>
      </trkpt>
      <trkpt lat="44.93697" lon="5.73676">
        <ele>1266.4000244141</ele>
        <time>2026-07-05T08:52:42.000Z</time>
      </trkpt>
      <trkpt lat="44.93696" lon="5.73677">
        <ele>1266.5999755859</ele>
        <time>2026-07-05T08:52:43.000Z</time>
      </trkpt>
      <trkpt lat="44.93695" lon="5.73677">
        <ele>1266.8000488281</ele>
        <time>2026-07-05T08:52:44.000Z</time>
      </trkpt>
      <trkpt lat="44.93694" lon="5.73678">
        <ele>1266.8000488281</ele>
        <time>2026-07-05T08:52:45.000Z</time>
      </trkpt>
      <trkpt lat="44.93694" lon="5.73678">
        <ele>1267</ele>
        <time>2026-07-05T08:52:46.000Z</time>
      </trkpt>
      <trkpt lat="44.93694" lon="5.73678">
        <ele>1267</ele>
        <time>2026-07-05T08:52:47.000Z</time>
      </trkpt>
      <trkpt lat="44.93693" lon="5.73679">
        <ele>1267.4000244141</ele>
        <time>2026-07-05T08:52:48.000Z</time>
      </trkpt>
      <trkpt lat="44.93692" lon="5.73679">
        <ele>1267.5999755859</ele>
        <time>2026-07-05T08:52:49.000Z</time>
      </trkpt>
      <trkpt lat="44.93691" lon="5.7368">
        <ele>1268</ele>
        <time>2026-07-05T08:52:50.000Z</time>
      </trkpt>
      <trkpt lat="44.93691" lon="5.73681">
        <ele>1268.4000244141</ele>
        <time>2026-07-05T08:52:51.000Z</time>
      </trkpt>
      <trkpt lat="44.9369" lon="5.73681">
        <ele>1268.8000488281</ele>
        <time>2026-07-05T08:52:52.000Z</time>
      </trkpt>
      <trkpt lat="44.93689" lon="5.73681">
        <ele>1269</ele>
        <time>2026-07-05T08:52:53.000Z</time>
      </trkpt>
      <trkpt lat="44.93688" lon="5.73682">
        <ele>1269.4000244141</ele>
        <time>2026-07-05T08:52:54.000Z</time>
      </trkpt>
      <trkpt lat="44.93687" lon="5.73682">
        <ele>1269.5999755859</ele>
        <time>2026-07-05T08:52:55.000Z</time>
      </trkpt>
      <trkpt lat="44.93687" lon="5.73682">
        <ele>1269.8000488281</ele>
        <time>2026-07-05T08:52:56.000Z</time>
      </trkpt>
      <trkpt lat="44.93686" lon="5.73682">
        <ele>1270</ele>
        <time>2026-07-05T08:52:57.000Z</time>
      </trkpt>
      <trkpt lat="44.93685" lon="5.73682">
        <ele>1270.1999511719</ele>
        <time>2026-07-05T08:52:58.000Z</time>
      </trkpt>
      <trkpt lat="44.93685" lon="5.73682">
        <ele>1270.5999755859</ele>
        <time>2026-07-05T08:52:59.000Z</time>
      </trkpt>
      <trkpt lat="44.93684" lon="5.73683">
        <ele>1270.8000488281</ele>
        <time>2026-07-05T08:53:00.000Z</time>
      </trkpt>
      <trkpt lat="44.93683" lon="5.73683">
        <ele>1271</ele>
        <time>2026-07-05T08:53:01.000Z</time>
      </trkpt>
      <trkpt lat="44.93681" lon="5.73684">
        <ele>1271.1999511719</ele>
        <time>2026-07-05T08:53:02.000Z</time>
      </trkpt>
      <trkpt lat="44.9368" lon="5.73685">
        <ele>1271.4000244141</ele>
        <time>2026-07-05T08:53:03.000Z</time>
      </trkpt>
      <trkpt lat="44.93679" lon="5.73685">
        <ele>1271.5999755859</ele>
        <time>2026-07-05T08:53:04.000Z</time>
      </trkpt>
      <trkpt lat="44.93678" lon="5.73685">
        <ele>1271.5999755859</ele>
        <time>2026-07-05T08:53:05.000Z</time>
      </trkpt>
      <trkpt lat="44.93677" lon="5.73685">
        <ele>1271.8000488281</ele>
        <time>2026-07-05T08:53:06.000Z</time>
      </trkpt>
      <trkpt lat="44.93676" lon="5.73685">
        <ele>1272</ele>
        <time>2026-07-05T08:53:07.000Z</time>
      </trkpt>
      <trkpt lat="44.93675" lon="5.73685">
        <ele>1272.1999511719</ele>
        <time>2026-07-05T08:53:08.000Z</time>
      </trkpt>
      <trkpt lat="44.93674" lon="5.73685">
        <ele>1272.4000244141</ele>
        <time>2026-07-05T08:53:09.000Z</time>
      </trkpt>
      <trkpt lat="44.93673" lon="5.73686">
        <ele>1272.5999755859</ele>
        <time>2026-07-05T08:53:10.000Z</time>
      </trkpt>
      <trkpt lat="44.93672" lon="5.73686">
        <ele>1272.5999755859</ele>
        <time>2026-07-05T08:53:11.000Z</time>
      </trkpt>
      <trkpt lat="44.93671" lon="5.73687">
        <ele>1272.8000488281</ele>
        <time>2026-07-05T08:53:12.000Z</time>
      </trkpt>
      <trkpt lat="44.9367" lon="5.73687">
        <ele>1273</ele>
        <time>2026-07-05T08:53:13.000Z</time>
      </trkpt>
      <trkpt lat="44.93669" lon="5.73687">
        <ele>1273.1999511719</ele>
        <time>2026-07-05T08:53:14.000Z</time>
      </trkpt>
      <trkpt lat="44.93668" lon="5.73687">
        <ele>1273.4000244141</ele>
        <time>2026-07-05T08:53:15.000Z</time>
      </trkpt>
      <trkpt lat="44.93666" lon="5.73687">
        <ele>1273.5999755859</ele>
        <time>2026-07-05T08:53:16.000Z</time>
      </trkpt>
      <trkpt lat="44.93665" lon="5.73687">
        <ele>1274</ele>
        <time>2026-07-05T08:53:17.000Z</time>
      </trkpt>
      <trkpt lat="44.93664" lon="5.73688">
        <ele>1274.1999511719</ele>
        <time>2026-07-05T08:53:18.000Z</time>
      </trkpt>
      <trkpt lat="44.93663" lon="5.73687">
        <ele>1274.1999511719</ele>
        <time>2026-07-05T08:53:19.000Z</time>
      </trkpt>
      <trkpt lat="44.93661" lon="5.73688">
        <ele>1274.4000244141</ele>
        <time>2026-07-05T08:53:20.000Z</time>
      </trkpt>
      <trkpt lat="44.9366" lon="5.73688">
        <ele>1274.5999755859</ele>
        <time>2026-07-05T08:53:21.000Z</time>
      </trkpt>
      <trkpt lat="44.93659" lon="5.73688">
        <ele>1274.8000488281</ele>
        <time>2026-07-05T08:53:22.000Z</time>
      </trkpt>
      <trkpt lat="44.93658" lon="5.73688">
        <ele>1275</ele>
        <time>2026-07-05T08:53:23.000Z</time>
      </trkpt>
      <trkpt lat="44.93656" lon="5.73687">
        <ele>1275</ele>
        <time>2026-07-05T08:53:24.000Z</time>
      </trkpt>
      <trkpt lat="44.93655" lon="5.73687">
        <ele>1275</ele>
        <time>2026-07-05T08:53:25.000Z</time>
      </trkpt>
      <trkpt lat="44.93654" lon="5.73687">
        <ele>1275</ele>
        <time>2026-07-05T08:53:26.000Z</time>
      </trkpt>
      <trkpt lat="44.93652" lon="5.73686">
        <ele>1275.1999511719</ele>
        <time>2026-07-05T08:53:27.000Z</time>
      </trkpt>
      <trkpt lat="44.93651" lon="5.73686">
        <ele>1275</ele>
        <time>2026-07-05T08:53:28.000Z</time>
      </trkpt>
      <trkpt lat="44.93649" lon="5.73685">
        <ele>1275.1999511719</ele>
        <time>2026-07-05T08:53:29.000Z</time>
      </trkpt>
      <trkpt lat="44.93648" lon="5.73684">
        <ele>1275.4000244141</ele>
        <time>2026-07-05T08:53:30.000Z</time>
      </trkpt>
      <trkpt lat="44.93646" lon="5.73684">
        <ele>1275.4000244141</ele>
        <time>2026-07-05T08:53:31.000Z</time>
      </trkpt>
      <trkpt lat="44.93645" lon="5.73684">
        <ele>1275.5999755859</ele>
        <time>2026-07-05T08:53:32.000Z</time>
      </trkpt>
      <trkpt lat="44.93643" lon="5.73683">
        <ele>1275.8000488281</ele>
        <time>2026-07-05T08:53:33.000Z</time>
      </trkpt>
      <trkpt lat="44.93642" lon="5.73683">
        <ele>1276</ele>
        <time>2026-07-05T08:53:34.000Z</time>
      </trkpt>
      <trkpt lat="44.9364" lon="5.73683">
        <ele>1276.1999511719</ele>
        <time>2026-07-05T08:53:35.000Z</time>
      </trkpt>
      <trkpt lat="44.93639" lon="5.73683">
        <ele>1276.4000244141</ele>
        <time>2026-07-05T08:53:36.000Z</time>
      </trkpt>
      <trkpt lat="44.93638" lon="5.73684">
        <ele>1276.5999755859</ele>
        <time>2026-07-05T08:53:37.000Z</time>
      </trkpt>
      <trkpt lat="44.93636" lon="5.73684">
        <ele>1276.5999755859</ele>
        <time>2026-07-05T08:53:38.000Z</time>
      </trkpt>
      <trkpt lat="44.93635" lon="5.73685">
        <ele>1277</ele>
        <time>2026-07-05T08:53:39.000Z</time>
      </trkpt>
      <trkpt lat="44.93634" lon="5.73685">
        <ele>1277.1999511719</ele>
        <time>2026-07-05T08:53:40.000Z</time>
      </trkpt>
      <trkpt lat="44.93632" lon="5.73685">
        <ele>1277.5999755859</ele>
        <time>2026-07-05T08:53:41.000Z</time>
      </trkpt>
      <trkpt lat="44.93631" lon="5.73685">
        <ele>1278.1999511719</ele>
        <time>2026-07-05T08:53:42.000Z</time>
      </trkpt>
      <trkpt lat="44.9363" lon="5.73685">
        <ele>1278.5999755859</ele>
        <time>2026-07-05T08:53:43.000Z</time>
      </trkpt>
      <trkpt lat="44.93629" lon="5.73686">
        <ele>1278.8000488281</ele>
        <time>2026-07-05T08:53:44.000Z</time>
      </trkpt>
      <trkpt lat="44.93628" lon="5.73686">
        <ele>1279</ele>
        <time>2026-07-05T08:53:45.000Z</time>
      </trkpt>
      <trkpt lat="44.93627" lon="5.73686">
        <ele>1279</ele>
        <time>2026-07-05T08:53:46.000Z</time>
      </trkpt>
      <trkpt lat="44.93625" lon="5.73686">
        <ele>1279.1999511719</ele>
        <time>2026-07-05T08:53:47.000Z</time>
      </trkpt>
      <trkpt lat="44.93624" lon="5.73686">
        <ele>1279.1999511719</ele>
        <time>2026-07-05T08:53:48.000Z</time>
      </trkpt>
      <trkpt lat="44.93623" lon="5.73686">
        <ele>1279.4000244141</ele>
        <time>2026-07-05T08:53:49.000Z</time>
      </trkpt>
      <trkpt lat="44.93622" lon="5.73687">
        <ele>1279.4000244141</ele>
        <time>2026-07-05T08:53:50.000Z</time>
      </trkpt>
      <trkpt lat="44.93621" lon="5.73687">
        <ele>1279.5999755859</ele>
        <time>2026-07-05T08:53:51.000Z</time>
      </trkpt>
      <trkpt lat="44.9362" lon="5.73688">
        <ele>1279.8000488281</ele>
        <time>2026-07-05T08:53:52.000Z</time>
      </trkpt>
      <trkpt lat="44.93619" lon="5.73688">
        <ele>1280</ele>
        <time>2026-07-05T08:53:53.000Z</time>
      </trkpt>
      <trkpt lat="44.93618" lon="5.73688">
        <ele>1280.1999511719</ele>
        <time>2026-07-05T08:53:54.000Z</time>
      </trkpt>
      <trkpt lat="44.93617" lon="5.73688">
        <ele>1280.4000244141</ele>
        <time>2026-07-05T08:53:55.000Z</time>
      </trkpt>
      <trkpt lat="44.93615" lon="5.73689">
        <ele>1280.5999755859</ele>
        <time>2026-07-05T08:53:56.000Z</time>
      </trkpt>
      <trkpt lat="44.93614" lon="5.73689">
        <ele>1280.8000488281</ele>
        <time>2026-07-05T08:53:57.000Z</time>
      </trkpt>
      <trkpt lat="44.93612" lon="5.7369">
        <ele>1280.8000488281</ele>
        <time>2026-07-05T08:53:58.000Z</time>
      </trkpt>
      <trkpt lat="44.93611" lon="5.73691">
        <ele>1281</ele>
        <time>2026-07-05T08:53:59.000Z</time>
      </trkpt>
      <trkpt lat="44.9361" lon="5.73692">
        <ele>1281</ele>
        <time>2026-07-05T08:54:00.000Z</time>
      </trkpt>
      <trkpt lat="44.93608" lon="5.73693">
        <ele>1281</ele>
        <time>2026-07-05T08:54:01.000Z</time>
      </trkpt>
      <trkpt lat="44.93607" lon="5.73694">
        <ele>1281</ele>
        <time>2026-07-05T08:54:02.000Z</time>
      </trkpt>
      <trkpt lat="44.93605" lon="5.73695">
        <ele>1281</ele>
        <time>2026-07-05T08:54:03.000Z</time>
      </trkpt>
      <trkpt lat="44.93603" lon="5.73696">
        <ele>1281</ele>
        <time>2026-07-05T08:54:04.000Z</time>
      </trkpt>
      <trkpt lat="44.93601" lon="5.73696">
        <ele>1281.1999511719</ele>
        <time>2026-07-05T08:54:05.000Z</time>
      </trkpt>
      <trkpt lat="44.936" lon="5.73697">
        <ele>1281.4000244141</ele>
        <time>2026-07-05T08:54:06.000Z</time>
      </trkpt>
      <trkpt lat="44.93598" lon="5.73697">
        <ele>1281.5999755859</ele>
        <time>2026-07-05T08:54:07.000Z</time>
      </trkpt>
      <trkpt lat="44.93597" lon="5.73698">
        <ele>1281.8000488281</ele>
        <time>2026-07-05T08:54:08.000Z</time>
      </trkpt>
      <trkpt lat="44.93596" lon="5.73698">
        <ele>1282.1999511719</ele>
        <time>2026-07-05T08:54:09.000Z</time>
      </trkpt>
      <trkpt lat="44.93595" lon="5.73699">
        <ele>1282.4000244141</ele>
        <time>2026-07-05T08:54:10.000Z</time>
      </trkpt>
      <trkpt lat="44.93593" lon="5.737">
        <ele>1282.8000488281</ele>
        <time>2026-07-05T08:54:11.000Z</time>
      </trkpt>
      <trkpt lat="44.93592" lon="5.737">
        <ele>1283</ele>
        <time>2026-07-05T08:54:12.000Z</time>
      </trkpt>
      <trkpt lat="44.93591" lon="5.73701">
        <ele>1283.1999511719</ele>
        <time>2026-07-05T08:54:13.000Z</time>
      </trkpt>
      <trkpt lat="44.9359" lon="5.73702">
        <ele>1283.4000244141</ele>
        <time>2026-07-05T08:54:14.000Z</time>
      </trkpt>
      <trkpt lat="44.93589" lon="5.73703">
        <ele>1283.4000244141</ele>
        <time>2026-07-05T08:54:15.000Z</time>
      </trkpt>
      <trkpt lat="44.93589" lon="5.73704">
        <ele>1283.5999755859</ele>
        <time>2026-07-05T08:54:16.000Z</time>
      </trkpt>
      <trkpt lat="44.93587" lon="5.73705">
        <ele>1283.5999755859</ele>
        <time>2026-07-05T08:54:17.000Z</time>
      </trkpt>
      <trkpt lat="44.93586" lon="5.73707">
        <ele>1283.5999755859</ele>
        <time>2026-07-05T08:54:18.000Z</time>
      </trkpt>
      <trkpt lat="44.93585" lon="5.73708">
        <ele>1283.5999755859</ele>
        <time>2026-07-05T08:54:19.000Z</time>
      </trkpt>
      <trkpt lat="44.93584" lon="5.73709">
        <ele>1283.5999755859</ele>
        <time>2026-07-05T08:54:20.000Z</time>
      </trkpt>
      <trkpt lat="44.93583" lon="5.7371">
        <ele>1283.4000244141</ele>
        <time>2026-07-05T08:54:21.000Z</time>
      </trkpt>
      <trkpt lat="44.93581" lon="5.73712">
        <ele>1283.1999511719</ele>
        <time>2026-07-05T08:54:22.000Z</time>
      </trkpt>
      <trkpt lat="44.93579" lon="5.73714">
        <ele>1282.8000488281</ele>
        <time>2026-07-05T08:54:23.000Z</time>
      </trkpt>
      <trkpt lat="44.93578" lon="5.73716">
        <ele>1282.5999755859</ele>
        <time>2026-07-05T08:54:24.000Z</time>
      </trkpt>
      <trkpt lat="44.93576" lon="5.73718">
        <ele>1282.4000244141</ele>
        <time>2026-07-05T08:54:25.000Z</time>
      </trkpt>
      <trkpt lat="44.93574" lon="5.7372">
        <ele>1282.5999755859</ele>
        <time>2026-07-05T08:54:26.000Z</time>
      </trkpt>
      <trkpt lat="44.93571" lon="5.73722">
        <ele>1282.5999755859</ele>
        <time>2026-07-05T08:54:27.000Z</time>
      </trkpt>
      <trkpt lat="44.93569" lon="5.73723">
        <ele>1283</ele>
        <time>2026-07-05T08:54:28.000Z</time>
      </trkpt>
      <trkpt lat="44.93567" lon="5.73725">
        <ele>1283.4000244141</ele>
        <time>2026-07-05T08:54:29.000Z</time>
      </trkpt>
      <trkpt lat="44.93566" lon="5.73727">
        <ele>1283.5999755859</ele>
        <time>2026-07-05T08:54:30.000Z</time>
      </trkpt>
      <trkpt lat="44.93564" lon="5.73728">
        <ele>1283.5999755859</ele>
        <time>2026-07-05T08:54:31.000Z</time>
      </trkpt>
      <trkpt lat="44.93563" lon="5.7373">
        <ele>1283.8000488281</ele>
        <time>2026-07-05T08:54:32.000Z</time>
      </trkpt>
      <trkpt lat="44.93562" lon="5.73732">
        <ele>1284</ele>
        <time>2026-07-05T08:54:33.000Z</time>
      </trkpt>
      <trkpt lat="44.93561" lon="5.73734">
        <ele>1284</ele>
        <time>2026-07-05T08:54:34.000Z</time>
      </trkpt>
      <trkpt lat="44.93559" lon="5.73736">
        <ele>1284.1999511719</ele>
        <time>2026-07-05T08:54:35.000Z</time>
      </trkpt>
      <trkpt lat="44.93557" lon="5.73738">
        <ele>1284.1999511719</ele>
        <time>2026-07-05T08:54:36.000Z</time>
      </trkpt>
      <trkpt lat="44.93555" lon="5.73741">
        <ele>1284.4000244141</ele>
        <time>2026-07-05T08:54:37.000Z</time>
      </trkpt>
      <trkpt lat="44.93554" lon="5.73743">
        <ele>1284.4000244141</ele>
        <time>2026-07-05T08:54:38.000Z</time>
      </trkpt>
      <trkpt lat="44.93552" lon="5.73745">
        <ele>1284.5999755859</ele>
        <time>2026-07-05T08:54:39.000Z</time>
      </trkpt>
      <trkpt lat="44.93551" lon="5.73748">
        <ele>1284.4000244141</ele>
        <time>2026-07-05T08:54:40.000Z</time>
      </trkpt>
      <trkpt lat="44.9355" lon="5.73752">
        <ele>1284.4000244141</ele>
        <time>2026-07-05T08:54:41.000Z</time>
      </trkpt>
      <trkpt lat="44.93549" lon="5.73755">
        <ele>1284.1999511719</ele>
        <time>2026-07-05T08:54:42.000Z</time>
      </trkpt>
      <trkpt lat="44.93547" lon="5.73758">
        <ele>1284</ele>
        <time>2026-07-05T08:54:43.000Z</time>
      </trkpt>
      <trkpt lat="44.93546" lon="5.73761">
        <ele>1284</ele>
        <time>2026-07-05T08:54:44.000Z</time>
      </trkpt>
      <trkpt lat="44.93545" lon="5.73763">
        <ele>1284</ele>
        <time>2026-07-05T08:54:45.000Z</time>
      </trkpt>
      <trkpt lat="44.93544" lon="5.73766">
        <ele>1284</ele>
        <time>2026-07-05T08:54:46.000Z</time>
      </trkpt>
      <trkpt lat="44.93543" lon="5.73769">
        <ele>1284.1999511719</ele>
        <time>2026-07-05T08:54:47.000Z</time>
      </trkpt>
      <trkpt lat="44.93542" lon="5.73771">
        <ele>1284.4000244141</ele>
        <time>2026-07-05T08:54:48.000Z</time>
      </trkpt>
      <trkpt lat="44.9354" lon="5.73773">
        <ele>1284.5999755859</ele>
        <time>2026-07-05T08:54:49.000Z</time>
      </trkpt>
      <trkpt lat="44.93539" lon="5.73775">
        <ele>1284.8000488281</ele>
        <time>2026-07-05T08:54:50.000Z</time>
      </trkpt>
      <trkpt lat="44.93537" lon="5.73777">
        <ele>1285</ele>
        <time>2026-07-05T08:54:51.000Z</time>
      </trkpt>
      <trkpt lat="44.93535" lon="5.7378">
        <ele>1285</ele>
        <time>2026-07-05T08:54:52.000Z</time>
      </trkpt>
      <trkpt lat="44.93534" lon="5.73782">
        <ele>1285</ele>
        <time>2026-07-05T08:54:53.000Z</time>
      </trkpt>
      <trkpt lat="44.93532" lon="5.73783">
        <ele>1284.8000488281</ele>
        <time>2026-07-05T08:54:54.000Z</time>
      </trkpt>
      <trkpt lat="44.93529" lon="5.73785">
        <ele>1284.8000488281</ele>
        <time>2026-07-05T08:54:55.000Z</time>
      </trkpt>
      <trkpt lat="44.93527" lon="5.73787">
        <ele>1284.4000244141</ele>
        <time>2026-07-05T08:54:56.000Z</time>
      </trkpt>
      <trkpt lat="44.93525" lon="5.73788">
        <ele>1284.1999511719</ele>
        <time>2026-07-05T08:54:57.000Z</time>
      </trkpt>
      <trkpt lat="44.93522" lon="5.7379">
        <ele>1284</ele>
        <time>2026-07-05T08:54:58.000Z</time>
      </trkpt>
      <trkpt lat="44.9352" lon="5.73791">
        <ele>1284</ele>
        <time>2026-07-05T08:54:59.000Z</time>
      </trkpt>
      <trkpt lat="44.93518" lon="5.73792">
        <ele>1283.8000488281</ele>
        <time>2026-07-05T08:55:00.000Z</time>
      </trkpt>
      <trkpt lat="44.93516" lon="5.73793">
        <ele>1283.5999755859</ele>
        <time>2026-07-05T08:55:01.000Z</time>
      </trkpt>
      <trkpt lat="44.93514" lon="5.73794">
        <ele>1283.5999755859</ele>
        <time>2026-07-05T08:55:02.000Z</time>
      </trkpt>
      <trkpt lat="44.93512" lon="5.73795">
        <ele>1283.5999755859</ele>
        <time>2026-07-05T08:55:03.000Z</time>
      </trkpt>
      <trkpt lat="44.9351" lon="5.73795">
        <ele>1283.4000244141</ele>
        <time>2026-07-05T08:55:04.000Z</time>
      </trkpt>
      <trkpt lat="44.93508" lon="5.73796">
        <ele>1283.5999755859</ele>
        <time>2026-07-05T08:55:05.000Z</time>
      </trkpt>
      <trkpt lat="44.93506" lon="5.73797">
        <ele>1283.8000488281</ele>
        <time>2026-07-05T08:55:06.000Z</time>
      </trkpt>
      <trkpt lat="44.93505" lon="5.73798">
        <ele>1284</ele>
        <time>2026-07-05T08:55:07.000Z</time>
      </trkpt>
      <trkpt lat="44.93503" lon="5.738">
        <ele>1284.1999511719</ele>
        <time>2026-07-05T08:55:08.000Z</time>
      </trkpt>
      <trkpt lat="44.93502" lon="5.73802">
        <ele>1284.4000244141</ele>
        <time>2026-07-05T08:55:09.000Z</time>
      </trkpt>
      <trkpt lat="44.93501" lon="5.73803">
        <ele>1284.5999755859</ele>
        <time>2026-07-05T08:55:10.000Z</time>
      </trkpt>
      <trkpt lat="44.935" lon="5.73804">
        <ele>1284.8000488281</ele>
        <time>2026-07-05T08:55:11.000Z</time>
      </trkpt>
      <trkpt lat="44.93499" lon="5.73806">
        <ele>1285</ele>
        <time>2026-07-05T08:55:12.000Z</time>
      </trkpt>
      <trkpt lat="44.93498" lon="5.73808">
        <ele>1285.1999511719</ele>
        <time>2026-07-05T08:55:13.000Z</time>
      </trkpt>
      <trkpt lat="44.93496" lon="5.7381">
        <ele>1285.4000244141</ele>
        <time>2026-07-05T08:55:14.000Z</time>
      </trkpt>
      <trkpt lat="44.93495" lon="5.73812">
        <ele>1285.5999755859</ele>
        <time>2026-07-05T08:55:15.000Z</time>
      </trkpt>
      <trkpt lat="44.93495" lon="5.73813">
        <ele>1285.8000488281</ele>
        <time>2026-07-05T08:55:16.000Z</time>
      </trkpt>
      <trkpt lat="44.93493" lon="5.73813">
        <ele>1286.1999511719</ele>
        <time>2026-07-05T08:55:17.000Z</time>
      </trkpt>
      <trkpt lat="44.93492" lon="5.73815">
        <ele>1286.4000244141</ele>
        <time>2026-07-05T08:55:18.000Z</time>
      </trkpt>
      <trkpt lat="44.93491" lon="5.73816">
        <ele>1286.5999755859</ele>
        <time>2026-07-05T08:55:19.000Z</time>
      </trkpt>
      <trkpt lat="44.9349" lon="5.73817">
        <ele>1286.8000488281</ele>
        <time>2026-07-05T08:55:20.000Z</time>
      </trkpt>
      <trkpt lat="44.93489" lon="5.73819">
        <ele>1287</ele>
        <time>2026-07-05T08:55:21.000Z</time>
      </trkpt>
      <trkpt lat="44.93487" lon="5.73821">
        <ele>1287.4000244141</ele>
        <time>2026-07-05T08:55:22.000Z</time>
      </trkpt>
      <trkpt lat="44.93486" lon="5.73823">
        <ele>1287.8000488281</ele>
        <time>2026-07-05T08:55:23.000Z</time>
      </trkpt>
      <trkpt lat="44.93485" lon="5.73825">
        <ele>1288</ele>
        <time>2026-07-05T08:55:24.000Z</time>
      </trkpt>
      <trkpt lat="44.93484" lon="5.73827">
        <ele>1288.4000244141</ele>
        <time>2026-07-05T08:55:25.000Z</time>
      </trkpt>
      <trkpt lat="44.93483" lon="5.73829">
        <ele>1288.5999755859</ele>
        <time>2026-07-05T08:55:26.000Z</time>
      </trkpt>
      <trkpt lat="44.93481" lon="5.7383">
        <ele>1288.5999755859</ele>
        <time>2026-07-05T08:55:27.000Z</time>
      </trkpt>
      <trkpt lat="44.9348" lon="5.73832">
        <ele>1288.5999755859</ele>
        <time>2026-07-05T08:55:28.000Z</time>
      </trkpt>
      <trkpt lat="44.93478" lon="5.73834">
        <ele>1288.8000488281</ele>
        <time>2026-07-05T08:55:29.000Z</time>
      </trkpt>
      <trkpt lat="44.93477" lon="5.73836">
        <ele>1289</ele>
        <time>2026-07-05T08:55:30.000Z</time>
      </trkpt>
      <trkpt lat="44.93475" lon="5.73837">
        <ele>1289</ele>
        <time>2026-07-05T08:55:31.000Z</time>
      </trkpt>
      <trkpt lat="44.93473" lon="5.73839">
        <ele>1289.1999511719</ele>
        <time>2026-07-05T08:55:32.000Z</time>
      </trkpt>
      <trkpt lat="44.93471" lon="5.73841">
        <ele>1289.1999511719</ele>
        <time>2026-07-05T08:55:33.000Z</time>
      </trkpt>
      <trkpt lat="44.9347" lon="5.73843">
        <ele>1289.1999511719</ele>
        <time>2026-07-05T08:55:34.000Z</time>
      </trkpt>
      <trkpt lat="44.93468" lon="5.73845">
        <ele>1289.1999511719</ele>
        <time>2026-07-05T08:55:35.000Z</time>
      </trkpt>
      <trkpt lat="44.93465" lon="5.73847">
        <ele>1289.1999511719</ele>
        <time>2026-07-05T08:55:36.000Z</time>
      </trkpt>
      <trkpt lat="44.93464" lon="5.73849">
        <ele>1289.1999511719</ele>
        <time>2026-07-05T08:55:37.000Z</time>
      </trkpt>
      <trkpt lat="44.93461" lon="5.73851">
        <ele>1289.1999511719</ele>
        <time>2026-07-05T08:55:38.000Z</time>
      </trkpt>
      <trkpt lat="44.9346" lon="5.73853">
        <ele>1289.1999511719</ele>
        <time>2026-07-05T08:55:39.000Z</time>
      </trkpt>
      <trkpt lat="44.93459" lon="5.73854">
        <ele>1289.1999511719</ele>
        <time>2026-07-05T08:55:40.000Z</time>
      </trkpt>
      <trkpt lat="44.93457" lon="5.73856">
        <ele>1289.1999511719</ele>
        <time>2026-07-05T08:55:41.000Z</time>
      </trkpt>
      <trkpt lat="44.93456" lon="5.73857">
        <ele>1289.1999511719</ele>
        <time>2026-07-05T08:55:42.000Z</time>
      </trkpt>
      <trkpt lat="44.93455" lon="5.73858">
        <ele>1289.1999511719</ele>
        <time>2026-07-05T08:55:43.000Z</time>
      </trkpt>
      <trkpt lat="44.93453" lon="5.7386">
        <ele>1289</ele>
        <time>2026-07-05T08:55:44.000Z</time>
      </trkpt>
      <trkpt lat="44.93452" lon="5.73863">
        <ele>1289</ele>
        <time>2026-07-05T08:55:45.000Z</time>
      </trkpt>
      <trkpt lat="44.93451" lon="5.73864">
        <ele>1289</ele>
        <time>2026-07-05T08:55:46.000Z</time>
      </trkpt>
      <trkpt lat="44.9345" lon="5.73867">
        <ele>1289</ele>
        <time>2026-07-05T08:55:47.000Z</time>
      </trkpt>
      <trkpt lat="44.93449" lon="5.73869">
        <ele>1289</ele>
        <time>2026-07-05T08:55:48.000Z</time>
      </trkpt>
      <trkpt lat="44.93448" lon="5.73871">
        <ele>1289</ele>
        <time>2026-07-05T08:55:49.000Z</time>
      </trkpt>
      <trkpt lat="44.93446" lon="5.73872">
        <ele>1289</ele>
        <time>2026-07-05T08:55:50.000Z</time>
      </trkpt>
      <trkpt lat="44.93445" lon="5.73874">
        <ele>1289</ele>
        <time>2026-07-05T08:55:51.000Z</time>
      </trkpt>
      <trkpt lat="44.93443" lon="5.73875">
        <ele>1289.1999511719</ele>
        <time>2026-07-05T08:55:52.000Z</time>
      </trkpt>
      <trkpt lat="44.93442" lon="5.73876">
        <ele>1289.1999511719</ele>
        <time>2026-07-05T08:55:53.000Z</time>
      </trkpt>
      <trkpt lat="44.9344" lon="5.73878">
        <ele>1289.1999511719</ele>
        <time>2026-07-05T08:55:54.000Z</time>
      </trkpt>
      <trkpt lat="44.93438" lon="5.73879">
        <ele>1289.1999511719</ele>
        <time>2026-07-05T08:55:55.000Z</time>
      </trkpt>
      <trkpt lat="44.93435" lon="5.7388">
        <ele>1289</ele>
        <time>2026-07-05T08:55:56.000Z</time>
      </trkpt>
      <trkpt lat="44.93433" lon="5.73881">
        <ele>1288.8000488281</ele>
        <time>2026-07-05T08:55:57.000Z</time>
      </trkpt>
      <trkpt lat="44.9343" lon="5.73882">
        <ele>1288.5999755859</ele>
        <time>2026-07-05T08:55:58.000Z</time>
      </trkpt>
      <trkpt lat="44.93427" lon="5.73882">
        <ele>1288.1999511719</ele>
        <time>2026-07-05T08:55:59.000Z</time>
      </trkpt>
      <trkpt lat="44.93425" lon="5.73882">
        <ele>1288</ele>
        <time>2026-07-05T08:56:00.000Z</time>
      </trkpt>
      <trkpt lat="44.93422" lon="5.73882">
        <ele>1287.8000488281</ele>
        <time>2026-07-05T08:56:01.000Z</time>
      </trkpt>
      <trkpt lat="44.9342" lon="5.73881">
        <ele>1287.8000488281</ele>
        <time>2026-07-05T08:56:02.000Z</time>
      </trkpt>
      <trkpt lat="44.93418" lon="5.73879">
        <ele>1287.8000488281</ele>
        <time>2026-07-05T08:56:03.000Z</time>
      </trkpt>
      <trkpt lat="44.93416" lon="5.73876">
        <ele>1287.8000488281</ele>
        <time>2026-07-05T08:56:04.000Z</time>
      </trkpt>
      <trkpt lat="44.93415" lon="5.73872">
        <ele>1287.8000488281</ele>
        <time>2026-07-05T08:56:05.000Z</time>
      </trkpt>
      <trkpt lat="44.93414" lon="5.73868">
        <ele>1287.8000488281</ele>
        <time>2026-07-05T08:56:06.000Z</time>
      </trkpt>
      <trkpt lat="44.93414" lon="5.73865">
        <ele>1287.5999755859</ele>
        <time>2026-07-05T08:56:07.000Z</time>
      </trkpt>
      <trkpt lat="44.93414" lon="5.73861">
        <ele>1287.5999755859</ele>
        <time>2026-07-05T08:56:08.000Z</time>
      </trkpt>
      <trkpt lat="44.93415" lon="5.73858">
        <ele>1287.4000244141</ele>
        <time>2026-07-05T08:56:09.000Z</time>
      </trkpt>
      <trkpt lat="44.93416" lon="5.73854">
        <ele>1287.4000244141</ele>
        <time>2026-07-05T08:56:10.000Z</time>
      </trkpt>
      <trkpt lat="44.93417" lon="5.7385">
        <ele>1287.4000244141</ele>
        <time>2026-07-05T08:56:11.000Z</time>
      </trkpt>
      <trkpt lat="44.93417" lon="5.73847">
        <ele>1287.1999511719</ele>
        <time>2026-07-05T08:56:12.000Z</time>
      </trkpt>
      <trkpt lat="44.93417" lon="5.73843">
        <ele>1287.1999511719</ele>
        <time>2026-07-05T08:56:13.000Z</time>
      </trkpt>
      <trkpt lat="44.93417" lon="5.7384">
        <ele>1287.4000244141</ele>
        <time>2026-07-05T08:56:14.000Z</time>
      </trkpt>
      <trkpt lat="44.93417" lon="5.73837">
        <ele>1287.4000244141</ele>
        <time>2026-07-05T08:56:15.000Z</time>
      </trkpt>
      <trkpt lat="44.93417" lon="5.73833">
        <ele>1287.4000244141</ele>
        <time>2026-07-05T08:56:16.000Z</time>
      </trkpt>
      <trkpt lat="44.93417" lon="5.7383">
        <ele>1287.1999511719</ele>
        <time>2026-07-05T08:56:17.000Z</time>
      </trkpt>
      <trkpt lat="44.93417" lon="5.73827">
        <ele>1287.1999511719</ele>
        <time>2026-07-05T08:56:18.000Z</time>
      </trkpt>
      <trkpt lat="44.93416" lon="5.73823">
        <ele>1287</ele>
        <time>2026-07-05T08:56:19.000Z</time>
      </trkpt>
      <trkpt lat="44.93416" lon="5.7382">
        <ele>1287.1999511719</ele>
        <time>2026-07-05T08:56:20.000Z</time>
      </trkpt>
      <trkpt lat="44.93415" lon="5.73817">
        <ele>1287.1999511719</ele>
        <time>2026-07-05T08:56:21.000Z</time>
      </trkpt>
      <trkpt lat="44.93414" lon="5.73814">
        <ele>1287.1999511719</ele>
        <time>2026-07-05T08:56:22.000Z</time>
      </trkpt>
      <trkpt lat="44.93414" lon="5.73812">
        <ele>1287</ele>
        <time>2026-07-05T08:56:23.000Z</time>
      </trkpt>
      <trkpt lat="44.93413" lon="5.73809">
        <ele>1287</ele>
        <time>2026-07-05T08:56:24.000Z</time>
      </trkpt>
      <trkpt lat="44.93412" lon="5.73806">
        <ele>1286.8000488281</ele>
        <time>2026-07-05T08:56:25.000Z</time>
      </trkpt>
      <trkpt lat="44.93411" lon="5.73803">
        <ele>1286.8000488281</ele>
        <time>2026-07-05T08:56:26.000Z</time>
      </trkpt>
      <trkpt lat="44.93409" lon="5.738">
        <ele>1286.8000488281</ele>
        <time>2026-07-05T08:56:27.000Z</time>
      </trkpt>
      <trkpt lat="44.93408" lon="5.73798">
        <ele>1287</ele>
        <time>2026-07-05T08:56:28.000Z</time>
      </trkpt>
      <trkpt lat="44.93407" lon="5.73795">
        <ele>1287</ele>
        <time>2026-07-05T08:56:29.000Z</time>
      </trkpt>
      <trkpt lat="44.93405" lon="5.73794">
        <ele>1287</ele>
        <time>2026-07-05T08:56:30.000Z</time>
      </trkpt>
      <trkpt lat="44.93403" lon="5.73792">
        <ele>1287</ele>
        <time>2026-07-05T08:56:31.000Z</time>
      </trkpt>
      <trkpt lat="44.93402" lon="5.7379">
        <ele>1287</ele>
        <time>2026-07-05T08:56:32.000Z</time>
      </trkpt>
      <trkpt lat="44.93401" lon="5.73788">
        <ele>1287</ele>
        <time>2026-07-05T08:56:33.000Z</time>
      </trkpt>
      <trkpt lat="44.934" lon="5.73787">
        <ele>1287.1999511719</ele>
        <time>2026-07-05T08:56:34.000Z</time>
      </trkpt>
      <trkpt lat="44.934" lon="5.73786">
        <ele>1287.1999511719</ele>
        <time>2026-07-05T08:56:35.000Z</time>
      </trkpt>
      <trkpt lat="44.93399" lon="5.73786">
        <ele>1287.1999511719</ele>
        <time>2026-07-05T08:56:36.000Z</time>
      </trkpt>
      <trkpt lat="44.93398" lon="5.73786">
        <ele>1287.4000244141</ele>
        <time>2026-07-05T08:56:37.000Z</time>
      </trkpt>
      <trkpt lat="44.93397" lon="5.73786">
        <ele>1287.4000244141</ele>
        <time>2026-07-05T08:56:38.000Z</time>
      </trkpt>
      <trkpt lat="44.93396" lon="5.73787">
        <ele>1287.5999755859</ele>
        <time>2026-07-05T08:56:39.000Z</time>
      </trkpt>
      <trkpt lat="44.93395" lon="5.73788">
        <ele>1288</ele>
        <time>2026-07-05T08:56:40.000Z</time>
      </trkpt>
      <trkpt lat="44.93394" lon="5.73788">
        <ele>1288.1999511719</ele>
        <time>2026-07-05T08:56:41.000Z</time>
      </trkpt>
      <trkpt lat="44.93393" lon="5.73789">
        <ele>1288.4000244141</ele>
        <time>2026-07-05T08:56:42.000Z</time>
      </trkpt>
      <trkpt lat="44.93392" lon="5.73789">
        <ele>1288.8000488281</ele>
        <time>2026-07-05T08:56:43.000Z</time>
      </trkpt>
      <trkpt lat="44.93391" lon="5.7379">
        <ele>1289</ele>
        <time>2026-07-05T08:56:44.000Z</time>
      </trkpt>
      <trkpt lat="44.9339" lon="5.7379">
        <ele>1289.1999511719</ele>
        <time>2026-07-05T08:56:45.000Z</time>
      </trkpt>
      <trkpt lat="44.93389" lon="5.7379">
        <ele>1289.4000244141</ele>
        <time>2026-07-05T08:56:46.000Z</time>
      </trkpt>
      <trkpt lat="44.93389" lon="5.73791">
        <ele>1289.5999755859</ele>
        <time>2026-07-05T08:56:47.000Z</time>
      </trkpt>
      <trkpt lat="44.93388" lon="5.73792">
        <ele>1289.8000488281</ele>
        <time>2026-07-05T08:56:48.000Z</time>
      </trkpt>
      <trkpt lat="44.93387" lon="5.73792">
        <ele>1290</ele>
        <time>2026-07-05T08:56:49.000Z</time>
      </trkpt>
      <trkpt lat="44.93386" lon="5.73793">
        <ele>1290.1999511719</ele>
        <time>2026-07-05T08:56:50.000Z</time>
      </trkpt>
      <trkpt lat="44.93385" lon="5.73793">
        <ele>1290.5999755859</ele>
        <time>2026-07-05T08:56:51.000Z</time>
      </trkpt>
      <trkpt lat="44.93385" lon="5.73793">
        <ele>1290.8000488281</ele>
        <time>2026-07-05T08:56:52.000Z</time>
      </trkpt>
      <trkpt lat="44.93384" lon="5.73794">
        <ele>1291</ele>
        <time>2026-07-05T08:56:53.000Z</time>
      </trkpt>
      <trkpt lat="44.93383" lon="5.73795">
        <ele>1291.4000244141</ele>
        <time>2026-07-05T08:56:54.000Z</time>
      </trkpt>
      <trkpt lat="44.93382" lon="5.73796">
        <ele>1291.5999755859</ele>
        <time>2026-07-05T08:56:55.000Z</time>
      </trkpt>
      <trkpt lat="44.93381" lon="5.73796">
        <ele>1291.8000488281</ele>
        <time>2026-07-05T08:56:56.000Z</time>
      </trkpt>
      <trkpt lat="44.93381" lon="5.73797">
        <ele>1292.1999511719</ele>
        <time>2026-07-05T08:56:57.000Z</time>
      </trkpt>
      <trkpt lat="44.9338" lon="5.73797">
        <ele>1292.4000244141</ele>
        <time>2026-07-05T08:56:58.000Z</time>
      </trkpt>
      <trkpt lat="44.9338" lon="5.73798">
        <ele>1292.5999755859</ele>
        <time>2026-07-05T08:56:59.000Z</time>
      </trkpt>
      <trkpt lat="44.93379" lon="5.73798">
        <ele>1292.8000488281</ele>
        <time>2026-07-05T08:57:00.000Z</time>
      </trkpt>
      <trkpt lat="44.93378" lon="5.73799">
        <ele>1293</ele>
        <time>2026-07-05T08:57:01.000Z</time>
      </trkpt>
      <trkpt lat="44.93377" lon="5.73799">
        <ele>1293.1999511719</ele>
        <time>2026-07-05T08:57:02.000Z</time>
      </trkpt>
      <trkpt lat="44.93377" lon="5.738">
        <ele>1293.4000244141</ele>
        <time>2026-07-05T08:57:03.000Z</time>
      </trkpt>
      <trkpt lat="44.93376" lon="5.73801">
        <ele>1293.8000488281</ele>
        <time>2026-07-05T08:57:04.000Z</time>
      </trkpt>
      <trkpt lat="44.93376" lon="5.73801">
        <ele>1294</ele>
        <time>2026-07-05T08:57:05.000Z</time>
      </trkpt>
      <trkpt lat="44.93375" lon="5.73801">
        <ele>1294.1999511719</ele>
        <time>2026-07-05T08:57:06.000Z</time>
      </trkpt>
      <trkpt lat="44.93375" lon="5.73801">
        <ele>1294.4000244141</ele>
        <time>2026-07-05T08:57:07.000Z</time>
      </trkpt>
      <trkpt lat="44.93374" lon="5.73801">
        <ele>1294.8000488281</ele>
        <time>2026-07-05T08:57:08.000Z</time>
      </trkpt>
      <trkpt lat="44.93373" lon="5.73802">
        <ele>1295</ele>
        <time>2026-07-05T08:57:09.000Z</time>
      </trkpt>
      <trkpt lat="44.93373" lon="5.73803">
        <ele>1295.1999511719</ele>
        <time>2026-07-05T08:57:10.000Z</time>
      </trkpt>
      <trkpt lat="44.93372" lon="5.73803">
        <ele>1295.4000244141</ele>
        <time>2026-07-05T08:57:11.000Z</time>
      </trkpt>
      <trkpt lat="44.93371" lon="5.73804">
        <ele>1295.8000488281</ele>
        <time>2026-07-05T08:57:12.000Z</time>
      </trkpt>
      <trkpt lat="44.93371" lon="5.73804">
        <ele>1296</ele>
        <time>2026-07-05T08:57:13.000Z</time>
      </trkpt>
      <trkpt lat="44.9337" lon="5.73805">
        <ele>1296.1999511719</ele>
        <time>2026-07-05T08:57:14.000Z</time>
      </trkpt>
      <trkpt lat="44.93369" lon="5.73806">
        <ele>1296.5999755859</ele>
        <time>2026-07-05T08:57:15.000Z</time>
      </trkpt>
      <trkpt lat="44.93369" lon="5.73807">
        <ele>1296.8000488281</ele>
        <time>2026-07-05T08:57:16.000Z</time>
      </trkpt>
      <trkpt lat="44.93368" lon="5.73808">
        <ele>1297</ele>
        <time>2026-07-05T08:57:17.000Z</time>
      </trkpt>
      <trkpt lat="44.93368" lon="5.73808">
        <ele>1297.1999511719</ele>
        <time>2026-07-05T08:57:18.000Z</time>
      </trkpt>
      <trkpt lat="44.93367" lon="5.73809">
        <ele>1297.4000244141</ele>
        <time>2026-07-05T08:57:19.000Z</time>
      </trkpt>
      <trkpt lat="44.93366" lon="5.7381">
        <ele>1297.5999755859</ele>
        <time>2026-07-05T08:57:20.000Z</time>
      </trkpt>
      <trkpt lat="44.93366" lon="5.7381">
        <ele>1297.8000488281</ele>
        <time>2026-07-05T08:57:21.000Z</time>
      </trkpt>
      <trkpt lat="44.93366" lon="5.73811">
        <ele>1298</ele>
        <time>2026-07-05T08:57:22.000Z</time>
      </trkpt>
      <trkpt lat="44.93365" lon="5.73812">
        <ele>1298.4000244141</ele>
        <time>2026-07-05T08:57:23.000Z</time>
      </trkpt>
      <trkpt lat="44.93364" lon="5.73813">
        <ele>1298.5999755859</ele>
        <time>2026-07-05T08:57:24.000Z</time>
      </trkpt>
      <trkpt lat="44.93364" lon="5.73814">
        <ele>1299</ele>
        <time>2026-07-05T08:57:25.000Z</time>
      </trkpt>
      <trkpt lat="44.93364" lon="5.73814">
        <ele>1299.1999511719</ele>
        <time>2026-07-05T08:57:26.000Z</time>
      </trkpt>
      <trkpt lat="44.93363" lon="5.73815">
        <ele>1299.4000244141</ele>
        <time>2026-07-05T08:57:27.000Z</time>
      </trkpt>
      <trkpt lat="44.93362" lon="5.73816">
        <ele>1299.4000244141</ele>
        <time>2026-07-05T08:57:28.000Z</time>
      </trkpt>
      <trkpt lat="44.93362" lon="5.73817">
        <ele>1299.5999755859</ele>
        <time>2026-07-05T08:57:29.000Z</time>
      </trkpt>
      <trkpt lat="44.93361" lon="5.73817">
        <ele>1299.8000488281</ele>
        <time>2026-07-05T08:57:30.000Z</time>
      </trkpt>
      <trkpt lat="44.9336" lon="5.73818">
        <ele>1300</ele>
        <time>2026-07-05T08:57:31.000Z</time>
      </trkpt>
      <trkpt lat="44.93359" lon="5.73819">
        <ele>1300.1999511719</ele>
        <time>2026-07-05T08:57:32.000Z</time>
      </trkpt>
      <trkpt lat="44.93359" lon="5.7382">
        <ele>1300.4000244141</ele>
        <time>2026-07-05T08:57:33.000Z</time>
      </trkpt>
      <trkpt lat="44.93358" lon="5.73821">
        <ele>1300.5999755859</ele>
        <time>2026-07-05T08:57:34.000Z</time>
      </trkpt>
      <trkpt lat="44.93358" lon="5.73822">
        <ele>1300.8000488281</ele>
        <time>2026-07-05T08:57:35.000Z</time>
      </trkpt>
      <trkpt lat="44.93357" lon="5.73823">
        <ele>1301</ele>
        <time>2026-07-05T08:57:36.000Z</time>
      </trkpt>
      <trkpt lat="44.93356" lon="5.73824">
        <ele>1301.1999511719</ele>
        <time>2026-07-05T08:57:37.000Z</time>
      </trkpt>
      <trkpt lat="44.93356" lon="5.73824">
        <ele>1301.4000244141</ele>
        <time>2026-07-05T08:57:38.000Z</time>
      </trkpt>
      <trkpt lat="44.93355" lon="5.73825">
        <ele>1301.8000488281</ele>
        <time>2026-07-05T08:57:39.000Z</time>
      </trkpt>
      <trkpt lat="44.93354" lon="5.73826">
        <ele>1302</ele>
        <time>2026-07-05T08:57:40.000Z</time>
      </trkpt>
      <trkpt lat="44.93353" lon="5.73827">
        <ele>1302.1999511719</ele>
        <time>2026-07-05T08:57:41.000Z</time>
      </trkpt>
      <trkpt lat="44.93353" lon="5.73828">
        <ele>1302.4000244141</ele>
        <time>2026-07-05T08:57:42.000Z</time>
      </trkpt>
      <trkpt lat="44.93352" lon="5.73829">
        <ele>1302.8000488281</ele>
        <time>2026-07-05T08:57:43.000Z</time>
      </trkpt>
      <trkpt lat="44.93351" lon="5.7383">
        <ele>1303</ele>
        <time>2026-07-05T08:57:44.000Z</time>
      </trkpt>
      <trkpt lat="44.9335" lon="5.73831">
        <ele>1303.1999511719</ele>
        <time>2026-07-05T08:57:45.000Z</time>
      </trkpt>
      <trkpt lat="44.93349" lon="5.73832">
        <ele>1303.5999755859</ele>
        <time>2026-07-05T08:57:46.000Z</time>
      </trkpt>
      <trkpt lat="44.93349" lon="5.73833">
        <ele>1303.8000488281</ele>
        <time>2026-07-05T08:57:47.000Z</time>
      </trkpt>
      <trkpt lat="44.93348" lon="5.73834">
        <ele>1304</ele>
        <time>2026-07-05T08:57:48.000Z</time>
      </trkpt>
      <trkpt lat="44.93347" lon="5.73834">
        <ele>1304.4000244141</ele>
        <time>2026-07-05T08:57:49.000Z</time>
      </trkpt>
      <trkpt lat="44.93346" lon="5.73835">
        <ele>1304.5999755859</ele>
        <time>2026-07-05T08:57:50.000Z</time>
      </trkpt>
      <trkpt lat="44.93345" lon="5.73835">
        <ele>1304.8000488281</ele>
        <time>2026-07-05T08:57:51.000Z</time>
      </trkpt>
      <trkpt lat="44.93345" lon="5.73836">
        <ele>1305.1999511719</ele>
        <time>2026-07-05T08:57:52.000Z</time>
      </trkpt>
      <trkpt lat="44.93344" lon="5.73838">
        <ele>1305.4000244141</ele>
        <time>2026-07-05T08:57:53.000Z</time>
      </trkpt>
      <trkpt lat="44.93344" lon="5.73839">
        <ele>1305.5999755859</ele>
        <time>2026-07-05T08:57:54.000Z</time>
      </trkpt>
      <trkpt lat="44.93343" lon="5.73839">
        <ele>1305.8000488281</ele>
        <time>2026-07-05T08:57:55.000Z</time>
      </trkpt>
      <trkpt lat="44.93343" lon="5.7384">
        <ele>1306.1999511719</ele>
        <time>2026-07-05T08:57:56.000Z</time>
      </trkpt>
      <trkpt lat="44.93342" lon="5.73841">
        <ele>1306.4000244141</ele>
        <time>2026-07-05T08:57:57.000Z</time>
      </trkpt>
      <trkpt lat="44.93341" lon="5.73842">
        <ele>1306.8000488281</ele>
        <time>2026-07-05T08:57:58.000Z</time>
      </trkpt>
      <trkpt lat="44.93341" lon="5.73843">
        <ele>1307</ele>
        <time>2026-07-05T08:57:59.000Z</time>
      </trkpt>
      <trkpt lat="44.9334" lon="5.73843">
        <ele>1307.1999511719</ele>
        <time>2026-07-05T08:58:00.000Z</time>
      </trkpt>
      <trkpt lat="44.93339" lon="5.73844">
        <ele>1307.5999755859</ele>
        <time>2026-07-05T08:58:01.000Z</time>
      </trkpt>
      <trkpt lat="44.93338" lon="5.73844">
        <ele>1307.8000488281</ele>
        <time>2026-07-05T08:58:02.000Z</time>
      </trkpt>
      <trkpt lat="44.93337" lon="5.73845">
        <ele>1308</ele>
        <time>2026-07-05T08:58:03.000Z</time>
      </trkpt>
      <trkpt lat="44.93337" lon="5.73846">
        <ele>1308.4000244141</ele>
        <time>2026-07-05T08:58:04.000Z</time>
      </trkpt>
      <trkpt lat="44.93336" lon="5.73847">
        <ele>1308.5999755859</ele>
        <time>2026-07-05T08:58:05.000Z</time>
      </trkpt>
      <trkpt lat="44.93336" lon="5.73847">
        <ele>1308.8000488281</ele>
        <time>2026-07-05T08:58:06.000Z</time>
      </trkpt>
      <trkpt lat="44.93335" lon="5.73848">
        <ele>1309.1999511719</ele>
        <time>2026-07-05T08:58:07.000Z</time>
      </trkpt>
      <trkpt lat="44.93334" lon="5.73849">
        <ele>1309.4000244141</ele>
        <time>2026-07-05T08:58:08.000Z</time>
      </trkpt>
      <trkpt lat="44.93334" lon="5.7385">
        <ele>1309.5999755859</ele>
        <time>2026-07-05T08:58:09.000Z</time>
      </trkpt>
      <trkpt lat="44.93333" lon="5.7385">
        <ele>1310</ele>
        <time>2026-07-05T08:58:10.000Z</time>
      </trkpt>
      <trkpt lat="44.93333" lon="5.73851">
        <ele>1310.1999511719</ele>
        <time>2026-07-05T08:58:11.000Z</time>
      </trkpt>
      <trkpt lat="44.93332" lon="5.73852">
        <ele>1310.4000244141</ele>
        <time>2026-07-05T08:58:12.000Z</time>
      </trkpt>
      <trkpt lat="44.93331" lon="5.73853">
        <ele>1310.8000488281</ele>
        <time>2026-07-05T08:58:13.000Z</time>
      </trkpt>
      <trkpt lat="44.93331" lon="5.73854">
        <ele>1311</ele>
        <time>2026-07-05T08:58:14.000Z</time>
      </trkpt>
      <trkpt lat="44.9333" lon="5.73855">
        <ele>1311.1999511719</ele>
        <time>2026-07-05T08:58:15.000Z</time>
      </trkpt>
      <trkpt lat="44.93329" lon="5.73856">
        <ele>1311.5999755859</ele>
        <time>2026-07-05T08:58:16.000Z</time>
      </trkpt>
      <trkpt lat="44.93329" lon="5.73857">
        <ele>1312</ele>
        <time>2026-07-05T08:58:17.000Z</time>
      </trkpt>
      <trkpt lat="44.93328" lon="5.73858">
        <ele>1312.1999511719</ele>
        <time>2026-07-05T08:58:18.000Z</time>
      </trkpt>
      <trkpt lat="44.93328" lon="5.73859">
        <ele>1312.5999755859</ele>
        <time>2026-07-05T08:58:19.000Z</time>
      </trkpt>
      <trkpt lat="44.93328" lon="5.7386">
        <ele>1312.8000488281</ele>
        <time>2026-07-05T08:58:20.000Z</time>
      </trkpt>
      <trkpt lat="44.93327" lon="5.73861">
        <ele>1313</ele>
        <time>2026-07-05T08:58:21.000Z</time>
      </trkpt>
      <trkpt lat="44.93327" lon="5.73862">
        <ele>1313.1999511719</ele>
        <time>2026-07-05T08:58:22.000Z</time>
      </trkpt>
      <trkpt lat="44.93325" lon="5.73863">
        <ele>1313.4000244141</ele>
        <time>2026-07-05T08:58:23.000Z</time>
      </trkpt>
      <trkpt lat="44.93324" lon="5.73864">
        <ele>1313.8000488281</ele>
        <time>2026-07-05T08:58:24.000Z</time>
      </trkpt>
      <trkpt lat="44.93324" lon="5.73865">
        <ele>1314</ele>
        <time>2026-07-05T08:58:25.000Z</time>
      </trkpt>
      <trkpt lat="44.93323" lon="5.73866">
        <ele>1314.1999511719</ele>
        <time>2026-07-05T08:58:26.000Z</time>
      </trkpt>
      <trkpt lat="44.93323" lon="5.73867">
        <ele>1314.4000244141</ele>
        <time>2026-07-05T08:58:27.000Z</time>
      </trkpt>
      <trkpt lat="44.93322" lon="5.73869">
        <ele>1314.5999755859</ele>
        <time>2026-07-05T08:58:28.000Z</time>
      </trkpt>
      <trkpt lat="44.93322" lon="5.7387">
        <ele>1314.8000488281</ele>
        <time>2026-07-05T08:58:29.000Z</time>
      </trkpt>
      <trkpt lat="44.93321" lon="5.73871">
        <ele>1315</ele>
        <time>2026-07-05T08:58:30.000Z</time>
      </trkpt>
      <trkpt lat="44.9332" lon="5.73872">
        <ele>1315.1999511719</ele>
        <time>2026-07-05T08:58:31.000Z</time>
      </trkpt>
      <trkpt lat="44.93319" lon="5.73873">
        <ele>1315.4000244141</ele>
        <time>2026-07-05T08:58:32.000Z</time>
      </trkpt>
      <trkpt lat="44.93318" lon="5.73875">
        <ele>1315.5999755859</ele>
        <time>2026-07-05T08:58:33.000Z</time>
      </trkpt>
      <trkpt lat="44.93318" lon="5.73876">
        <ele>1315.8000488281</ele>
        <time>2026-07-05T08:58:34.000Z</time>
      </trkpt>
      <trkpt lat="44.93317" lon="5.73877">
        <ele>1316</ele>
        <time>2026-07-05T08:58:35.000Z</time>
      </trkpt>
      <trkpt lat="44.93317" lon="5.73878">
        <ele>1316.1999511719</ele>
        <time>2026-07-05T08:58:36.000Z</time>
      </trkpt>
      <trkpt lat="44.93316" lon="5.73879">
        <ele>1316.4000244141</ele>
        <time>2026-07-05T08:58:37.000Z</time>
      </trkpt>
      <trkpt lat="44.93316" lon="5.73881">
        <ele>1316.5999755859</ele>
        <time>2026-07-05T08:58:38.000Z</time>
      </trkpt>
      <trkpt lat="44.93315" lon="5.73882">
        <ele>1316.5999755859</ele>
        <time>2026-07-05T08:58:39.000Z</time>
      </trkpt>
      <trkpt lat="44.93314" lon="5.73884">
        <ele>1316.8000488281</ele>
        <time>2026-07-05T08:58:40.000Z</time>
      </trkpt>
      <trkpt lat="44.93313" lon="5.73886">
        <ele>1317</ele>
        <time>2026-07-05T08:58:41.000Z</time>
      </trkpt>
      <trkpt lat="44.93312" lon="5.73887">
        <ele>1317</ele>
        <time>2026-07-05T08:58:42.000Z</time>
      </trkpt>
      <trkpt lat="44.93312" lon="5.73889">
        <ele>1317.1999511719</ele>
        <time>2026-07-05T08:58:43.000Z</time>
      </trkpt>
      <trkpt lat="44.93311" lon="5.73891">
        <ele>1317.4000244141</ele>
        <time>2026-07-05T08:58:44.000Z</time>
      </trkpt>
      <trkpt lat="44.9331" lon="5.73893">
        <ele>1317.4000244141</ele>
        <time>2026-07-05T08:58:45.000Z</time>
      </trkpt>
      <trkpt lat="44.9331" lon="5.73894">
        <ele>1317.4000244141</ele>
        <time>2026-07-05T08:58:46.000Z</time>
      </trkpt>
      <trkpt lat="44.93309" lon="5.73895">
        <ele>1317.5999755859</ele>
        <time>2026-07-05T08:58:47.000Z</time>
      </trkpt>
      <trkpt lat="44.93309" lon="5.73896">
        <ele>1317.5999755859</ele>
        <time>2026-07-05T08:58:48.000Z</time>
      </trkpt>
      <trkpt lat="44.93309" lon="5.73897">
        <ele>1317.8000488281</ele>
        <time>2026-07-05T08:58:49.000Z</time>
      </trkpt>
      <trkpt lat="44.93309" lon="5.73899">
        <ele>1318</ele>
        <time>2026-07-05T08:58:50.000Z</time>
      </trkpt>
      <trkpt lat="44.93309" lon="5.73901">
        <ele>1318.1999511719</ele>
        <time>2026-07-05T08:58:51.000Z</time>
      </trkpt>
      <trkpt lat="44.93308" lon="5.73902">
        <ele>1318.4000244141</ele>
        <time>2026-07-05T08:58:52.000Z</time>
      </trkpt>
      <trkpt lat="44.93308" lon="5.73903">
        <ele>1318.5999755859</ele>
        <time>2026-07-05T08:58:53.000Z</time>
      </trkpt>
      <trkpt lat="44.93307" lon="5.73905">
        <ele>1318.5999755859</ele>
        <time>2026-07-05T08:58:54.000Z</time>
      </trkpt>
      <trkpt lat="44.93307" lon="5.73907">
        <ele>1318.8000488281</ele>
        <time>2026-07-05T08:58:55.000Z</time>
      </trkpt>
      <trkpt lat="44.93307" lon="5.73908">
        <ele>1319</ele>
        <time>2026-07-05T08:58:56.000Z</time>
      </trkpt>
      <trkpt lat="44.93307" lon="5.7391">
        <ele>1319.1999511719</ele>
        <time>2026-07-05T08:58:57.000Z</time>
      </trkpt>
      <trkpt lat="44.93306" lon="5.73911">
        <ele>1319.4000244141</ele>
        <time>2026-07-05T08:58:58.000Z</time>
      </trkpt>
      <trkpt lat="44.93306" lon="5.73912">
        <ele>1319.4000244141</ele>
        <time>2026-07-05T08:58:59.000Z</time>
      </trkpt>
      <trkpt lat="44.93306" lon="5.73914">
        <ele>1319.5999755859</ele>
        <time>2026-07-05T08:59:00.000Z</time>
      </trkpt>
      <trkpt lat="44.93305" lon="5.73915">
        <ele>1319.8000488281</ele>
        <time>2026-07-05T08:59:01.000Z</time>
      </trkpt>
      <trkpt lat="44.93305" lon="5.73916">
        <ele>1320</ele>
        <time>2026-07-05T08:59:02.000Z</time>
      </trkpt>
      <trkpt lat="44.93305" lon="5.73917">
        <ele>1320.4000244141</ele>
        <time>2026-07-05T08:59:03.000Z</time>
      </trkpt>
      <trkpt lat="44.93305" lon="5.73918">
        <ele>1320.5999755859</ele>
        <time>2026-07-05T08:59:04.000Z</time>
      </trkpt>
      <trkpt lat="44.93305" lon="5.73919">
        <ele>1321</ele>
        <time>2026-07-05T08:59:05.000Z</time>
      </trkpt>
      <trkpt lat="44.93304" lon="5.7392">
        <ele>1321.1999511719</ele>
        <time>2026-07-05T08:59:06.000Z</time>
      </trkpt>
      <trkpt lat="44.93304" lon="5.73922">
        <ele>1321.4000244141</ele>
        <time>2026-07-05T08:59:07.000Z</time>
      </trkpt>
      <trkpt lat="44.93304" lon="5.73923">
        <ele>1321.5999755859</ele>
        <time>2026-07-05T08:59:08.000Z</time>
      </trkpt>
      <trkpt lat="44.93304" lon="5.73924">
        <ele>1321.8000488281</ele>
        <time>2026-07-05T08:59:09.000Z</time>
      </trkpt>
      <trkpt lat="44.93303" lon="5.73925">
        <ele>1322</ele>
        <time>2026-07-05T08:59:10.000Z</time>
      </trkpt>
      <trkpt lat="44.93302" lon="5.73926">
        <ele>1322.1999511719</ele>
        <time>2026-07-05T08:59:11.000Z</time>
      </trkpt>
      <trkpt lat="44.93302" lon="5.73927">
        <ele>1322.4000244141</ele>
        <time>2026-07-05T08:59:12.000Z</time>
      </trkpt>
      <trkpt lat="44.93301" lon="5.73929">
        <ele>1322.5999755859</ele>
        <time>2026-07-05T08:59:13.000Z</time>
      </trkpt>
      <trkpt lat="44.93301" lon="5.7393">
        <ele>1322.8000488281</ele>
        <time>2026-07-05T08:59:14.000Z</time>
      </trkpt>
      <trkpt lat="44.933" lon="5.73931">
        <ele>1323</ele>
        <time>2026-07-05T08:59:15.000Z</time>
      </trkpt>
      <trkpt lat="44.933" lon="5.73933">
        <ele>1323.1999511719</ele>
        <time>2026-07-05T08:59:16.000Z</time>
      </trkpt>
      <trkpt lat="44.933" lon="5.73934">
        <ele>1323.5999755859</ele>
        <time>2026-07-05T08:59:17.000Z</time>
      </trkpt>
      <trkpt lat="44.93299" lon="5.73935">
        <ele>1323.8000488281</ele>
        <time>2026-07-05T08:59:18.000Z</time>
      </trkpt>
      <trkpt lat="44.93299" lon="5.73936">
        <ele>1324</ele>
        <time>2026-07-05T08:59:19.000Z</time>
      </trkpt>
      <trkpt lat="44.93298" lon="5.73937">
        <ele>1324.1999511719</ele>
        <time>2026-07-05T08:59:20.000Z</time>
      </trkpt>
      <trkpt lat="44.93298" lon="5.73938">
        <ele>1324.5999755859</ele>
        <time>2026-07-05T08:59:21.000Z</time>
      </trkpt>
      <trkpt lat="44.93298" lon="5.7394">
        <ele>1324.8000488281</ele>
        <time>2026-07-05T08:59:22.000Z</time>
      </trkpt>
      <trkpt lat="44.93298" lon="5.73941">
        <ele>1325</ele>
        <time>2026-07-05T08:59:23.000Z</time>
      </trkpt>
      <trkpt lat="44.93298" lon="5.73942">
        <ele>1325.1999511719</ele>
        <time>2026-07-05T08:59:24.000Z</time>
      </trkpt>
      <trkpt lat="44.93297" lon="5.73943">
        <ele>1325.5999755859</ele>
        <time>2026-07-05T08:59:25.000Z</time>
      </trkpt>
      <trkpt lat="44.93297" lon="5.73944">
        <ele>1325.8000488281</ele>
        <time>2026-07-05T08:59:26.000Z</time>
      </trkpt>
      <trkpt lat="44.93297" lon="5.73945">
        <ele>1326.1999511719</ele>
        <time>2026-07-05T08:59:27.000Z</time>
      </trkpt>
      <trkpt lat="44.93297" lon="5.73947">
        <ele>1326.4000244141</ele>
        <time>2026-07-05T08:59:28.000Z</time>
      </trkpt>
      <trkpt lat="44.93297" lon="5.73948">
        <ele>1326.8000488281</ele>
        <time>2026-07-05T08:59:29.000Z</time>
      </trkpt>
      <trkpt lat="44.93298" lon="5.73949">
        <ele>1327.1999511719</ele>
        <time>2026-07-05T08:59:30.000Z</time>
      </trkpt>
      <trkpt lat="44.93298" lon="5.7395">
        <ele>1327.4000244141</ele>
        <time>2026-07-05T08:59:31.000Z</time>
      </trkpt>
      <trkpt lat="44.93299" lon="5.73952">
        <ele>1327.5999755859</ele>
        <time>2026-07-05T08:59:32.000Z</time>
      </trkpt>
      <trkpt lat="44.93299" lon="5.73954">
        <ele>1327.8000488281</ele>
        <time>2026-07-05T08:59:33.000Z</time>
      </trkpt>
      <trkpt lat="44.933" lon="5.73956">
        <ele>1328</ele>
        <time>2026-07-05T08:59:34.000Z</time>
      </trkpt>
      <trkpt lat="44.93301" lon="5.73958">
        <ele>1328</ele>
        <time>2026-07-05T08:59:35.000Z</time>
      </trkpt>
      <trkpt lat="44.93301" lon="5.73959">
        <ele>1328.1999511719</ele>
        <time>2026-07-05T08:59:36.000Z</time>
      </trkpt>
      <trkpt lat="44.93302" lon="5.73961">
        <ele>1328.1999511719</ele>
        <time>2026-07-05T08:59:37.000Z</time>
      </trkpt>
      <trkpt lat="44.93302" lon="5.73963">
        <ele>1328.1999511719</ele>
        <time>2026-07-05T08:59:38.000Z</time>
      </trkpt>
      <trkpt lat="44.93302" lon="5.73964">
        <ele>1328.1999511719</ele>
        <time>2026-07-05T08:59:39.000Z</time>
      </trkpt>
      <trkpt lat="44.93303" lon="5.73966">
        <ele>1328.4000244141</ele>
        <time>2026-07-05T08:59:40.000Z</time>
      </trkpt>
      <trkpt lat="44.93303" lon="5.73968">
        <ele>1328.8000488281</ele>
        <time>2026-07-05T08:59:41.000Z</time>
      </trkpt>
      <trkpt lat="44.93303" lon="5.7397">
        <ele>1329</ele>
        <time>2026-07-05T08:59:42.000Z</time>
      </trkpt>
      <trkpt lat="44.93303" lon="5.73971">
        <ele>1329.1999511719</ele>
        <time>2026-07-05T08:59:43.000Z</time>
      </trkpt>
      <trkpt lat="44.93303" lon="5.73972">
        <ele>1329.4000244141</ele>
        <time>2026-07-05T08:59:44.000Z</time>
      </trkpt>
      <trkpt lat="44.93304" lon="5.73974">
        <ele>1329.4000244141</ele>
        <time>2026-07-05T08:59:45.000Z</time>
      </trkpt>
      <trkpt lat="44.93304" lon="5.73976">
        <ele>1329.4000244141</ele>
        <time>2026-07-05T08:59:46.000Z</time>
      </trkpt>
      <trkpt lat="44.93305" lon="5.73978">
        <ele>1329.5999755859</ele>
        <time>2026-07-05T08:59:47.000Z</time>
      </trkpt>
      <trkpt lat="44.93305" lon="5.73979">
        <ele>1329.5999755859</ele>
        <time>2026-07-05T08:59:48.000Z</time>
      </trkpt>
      <trkpt lat="44.93306" lon="5.7398">
        <ele>1329.5999755859</ele>
        <time>2026-07-05T08:59:49.000Z</time>
      </trkpt>
      <trkpt lat="44.93307" lon="5.73982">
        <ele>1329.5999755859</ele>
        <time>2026-07-05T08:59:50.000Z</time>
      </trkpt>
      <trkpt lat="44.93307" lon="5.73984">
        <ele>1329.5999755859</ele>
        <time>2026-07-05T08:59:51.000Z</time>
      </trkpt>
      <trkpt lat="44.93307" lon="5.73986">
        <ele>1329.5999755859</ele>
        <time>2026-07-05T08:59:52.000Z</time>
      </trkpt>
      <trkpt lat="44.93308" lon="5.73988">
        <ele>1329.8000488281</ele>
        <time>2026-07-05T08:59:53.000Z</time>
      </trkpt>
      <trkpt lat="44.93309" lon="5.7399">
        <ele>1330</ele>
        <time>2026-07-05T08:59:54.000Z</time>
      </trkpt>
      <trkpt lat="44.93309" lon="5.73992">
        <ele>1330.1999511719</ele>
        <time>2026-07-05T08:59:55.000Z</time>
      </trkpt>
      <trkpt lat="44.9331" lon="5.73993">
        <ele>1330.1999511719</ele>
        <time>2026-07-05T08:59:56.000Z</time>
      </trkpt>
      <trkpt lat="44.93311" lon="5.73995">
        <ele>1330.4000244141</ele>
        <time>2026-07-05T08:59:57.000Z</time>
      </trkpt>
      <trkpt lat="44.93312" lon="5.73997">
        <ele>1330.4000244141</ele>
        <time>2026-07-05T08:59:58.000Z</time>
      </trkpt>
      <trkpt lat="44.93313" lon="5.73998">
        <ele>1330.4000244141</ele>
        <time>2026-07-05T08:59:59.000Z</time>
      </trkpt>
      <trkpt lat="44.93314" lon="5.74">
        <ele>1330.4000244141</ele>
        <time>2026-07-05T09:00:00.000Z</time>
      </trkpt>
      <trkpt lat="44.93315" lon="5.74001">
        <ele>1330.4000244141</ele>
        <time>2026-07-05T09:00:01.000Z</time>
      </trkpt>
      <trkpt lat="44.93315" lon="5.74003">
        <ele>1330.4000244141</ele>
        <time>2026-07-05T09:00:02.000Z</time>
      </trkpt>
      <trkpt lat="44.93316" lon="5.74005">
        <ele>1330.5999755859</ele>
        <time>2026-07-05T09:00:03.000Z</time>
      </trkpt>
      <trkpt lat="44.93316" lon="5.74007">
        <ele>1330.8000488281</ele>
        <time>2026-07-05T09:00:04.000Z</time>
      </trkpt>
      <trkpt lat="44.93316" lon="5.74008">
        <ele>1331</ele>
        <time>2026-07-05T09:00:05.000Z</time>
      </trkpt>
      <trkpt lat="44.93317" lon="5.74009">
        <ele>1331</ele>
        <time>2026-07-05T09:00:06.000Z</time>
      </trkpt>
      <trkpt lat="44.93317" lon="5.74011">
        <ele>1331.1999511719</ele>
        <time>2026-07-05T09:00:07.000Z</time>
      </trkpt>
      <trkpt lat="44.93318" lon="5.74012">
        <ele>1331.4000244141</ele>
        <time>2026-07-05T09:00:08.000Z</time>
      </trkpt>
      <trkpt lat="44.93318" lon="5.74014">
        <ele>1331.5999755859</ele>
        <time>2026-07-05T09:00:09.000Z</time>
      </trkpt>
      <trkpt lat="44.93318" lon="5.74016">
        <ele>1331.8000488281</ele>
        <time>2026-07-05T09:00:10.000Z</time>
      </trkpt>
      <trkpt lat="44.93318" lon="5.74018">
        <ele>1332</ele>
        <time>2026-07-05T09:00:11.000Z</time>
      </trkpt>
      <trkpt lat="44.93318" lon="5.7402">
        <ele>1332.4000244141</ele>
        <time>2026-07-05T09:00:12.000Z</time>
      </trkpt>
      <trkpt lat="44.93318" lon="5.74022">
        <ele>1332.5999755859</ele>
        <time>2026-07-05T09:00:13.000Z</time>
      </trkpt>
      <trkpt lat="44.93318" lon="5.74023">
        <ele>1332.8000488281</ele>
        <time>2026-07-05T09:00:14.000Z</time>
      </trkpt>
      <trkpt lat="44.93319" lon="5.74024">
        <ele>1332.8000488281</ele>
        <time>2026-07-05T09:00:15.000Z</time>
      </trkpt>
      <trkpt lat="44.93319" lon="5.74026">
        <ele>1333</ele>
        <time>2026-07-05T09:00:16.000Z</time>
      </trkpt>
      <trkpt lat="44.9332" lon="5.74027">
        <ele>1333</ele>
        <time>2026-07-05T09:00:17.000Z</time>
      </trkpt>
      <trkpt lat="44.9332" lon="5.74029">
        <ele>1333</ele>
        <time>2026-07-05T09:00:18.000Z</time>
      </trkpt>
      <trkpt lat="44.9332" lon="5.74031">
        <ele>1332.5999755859</ele>
        <time>2026-07-05T09:00:19.000Z</time>
      </trkpt>
      <trkpt lat="44.93321" lon="5.74032">
        <ele>1332.1999511719</ele>
        <time>2026-07-05T09:00:20.000Z</time>
      </trkpt>
      <trkpt lat="44.93321" lon="5.74034">
        <ele>1331.8000488281</ele>
        <time>2026-07-05T09:00:21.000Z</time>
      </trkpt>
      <trkpt lat="44.93322" lon="5.74035">
        <ele>1331.1999511719</ele>
        <time>2026-07-05T09:00:22.000Z</time>
      </trkpt>
      <trkpt lat="44.93323" lon="5.74035">
        <ele>1331.1999511719</ele>
        <time>2026-07-05T09:00:23.000Z</time>
      </trkpt>
      <trkpt lat="44.93324" lon="5.74036">
        <ele>1330.8000488281</ele>
        <time>2026-07-05T09:00:24.000Z</time>
      </trkpt>
      <trkpt lat="44.93325" lon="5.74037">
        <ele>1331</ele>
        <time>2026-07-05T09:00:25.000Z</time>
      </trkpt>
      <trkpt lat="44.93326" lon="5.74038">
        <ele>1331</ele>
        <time>2026-07-05T09:00:26.000Z</time>
      </trkpt>
      <trkpt lat="44.93327" lon="5.74039">
        <ele>1331.4000244141</ele>
        <time>2026-07-05T09:00:27.000Z</time>
      </trkpt>
      <trkpt lat="44.93328" lon="5.7404">
        <ele>1331.8000488281</ele>
        <time>2026-07-05T09:00:28.000Z</time>
      </trkpt>
      <trkpt lat="44.93328" lon="5.74041">
        <ele>1331.8000488281</ele>
        <time>2026-07-05T09:00:29.000Z</time>
      </trkpt>
      <trkpt lat="44.93329" lon="5.74042">
        <ele>1331.8000488281</ele>
        <time>2026-07-05T09:00:30.000Z</time>
      </trkpt>
      <trkpt lat="44.9333" lon="5.74043">
        <ele>1331.8000488281</ele>
        <time>2026-07-05T09:00:31.000Z</time>
      </trkpt>
      <trkpt lat="44.93331" lon="5.74044">
        <ele>1331.5999755859</ele>
        <time>2026-07-05T09:00:32.000Z</time>
      </trkpt>
      <trkpt lat="44.93332" lon="5.74045">
        <ele>1331.4000244141</ele>
        <time>2026-07-05T09:00:33.000Z</time>
      </trkpt>
      <trkpt lat="44.93333" lon="5.74046">
        <ele>1331.8000488281</ele>
        <time>2026-07-05T09:00:34.000Z</time>
      </trkpt>
      <trkpt lat="44.93334" lon="5.74047">
        <ele>1332.1999511719</ele>
        <time>2026-07-05T09:00:35.000Z</time>
      </trkpt>
      <trkpt lat="44.93334" lon="5.74047">
        <ele>1332.4000244141</ele>
        <time>2026-07-05T09:00:36.000Z</time>
      </trkpt>
      <trkpt lat="44.93335" lon="5.74048">
        <ele>1332.8000488281</ele>
        <time>2026-07-05T09:00:37.000Z</time>
      </trkpt>
      <trkpt lat="44.93336" lon="5.74048">
        <ele>1333.5999755859</ele>
        <time>2026-07-05T09:00:38.000Z</time>
      </trkpt>
      <trkpt lat="44.93337" lon="5.74049">
        <ele>1334.1999511719</ele>
        <time>2026-07-05T09:00:39.000Z</time>
      </trkpt>
      <trkpt lat="44.93337" lon="5.7405">
        <ele>1334.4000244141</ele>
        <time>2026-07-05T09:00:40.000Z</time>
      </trkpt>
      <trkpt lat="44.93338" lon="5.74051">
        <ele>1334.8000488281</ele>
        <time>2026-07-05T09:00:41.000Z</time>
      </trkpt>
      <trkpt lat="44.93338" lon="5.74052">
        <ele>1335</ele>
        <time>2026-07-05T09:00:42.000Z</time>
      </trkpt>
      <trkpt lat="44.93339" lon="5.74052">
        <ele>1335.1999511719</ele>
        <time>2026-07-05T09:00:43.000Z</time>
      </trkpt>
      <trkpt lat="44.9334" lon="5.74052">
        <ele>1335.4000244141</ele>
        <time>2026-07-05T09:00:44.000Z</time>
      </trkpt>
      <trkpt lat="44.9334" lon="5.74053">
        <ele>1335.4000244141</ele>
        <time>2026-07-05T09:00:45.000Z</time>
      </trkpt>
      <trkpt lat="44.93341" lon="5.74054">
        <ele>1335.4000244141</ele>
        <time>2026-07-05T09:00:46.000Z</time>
      </trkpt>
      <trkpt lat="44.93341" lon="5.74054">
        <ele>1335.5999755859</ele>
        <time>2026-07-05T09:00:47.000Z</time>
      </trkpt>
      <trkpt lat="44.93342" lon="5.74055">
        <ele>1335.5999755859</ele>
        <time>2026-07-05T09:00:48.000Z</time>
      </trkpt>
      <trkpt lat="44.93343" lon="5.74056">
        <ele>1335.8000488281</ele>
        <time>2026-07-05T09:00:49.000Z</time>
      </trkpt>
      <trkpt lat="44.93344" lon="5.74057">
        <ele>1335.8000488281</ele>
        <time>2026-07-05T09:00:50.000Z</time>
      </trkpt>
      <trkpt lat="44.93344" lon="5.74057">
        <ele>1336</ele>
        <time>2026-07-05T09:00:51.000Z</time>
      </trkpt>
      <trkpt lat="44.93345" lon="5.74058">
        <ele>1336</ele>
        <time>2026-07-05T09:00:52.000Z</time>
      </trkpt>
      <trkpt lat="44.93346" lon="5.74059">
        <ele>1336.1999511719</ele>
        <time>2026-07-05T09:00:53.000Z</time>
      </trkpt>
      <trkpt lat="44.93347" lon="5.7406">
        <ele>1336.4000244141</ele>
        <time>2026-07-05T09:00:54.000Z</time>
      </trkpt>
      <trkpt lat="44.93347" lon="5.7406">
        <ele>1336.5999755859</ele>
        <time>2026-07-05T09:00:55.000Z</time>
      </trkpt>
      <trkpt lat="44.93348" lon="5.74061">
        <ele>1336.8000488281</ele>
        <time>2026-07-05T09:00:56.000Z</time>
      </trkpt>
      <trkpt lat="44.93348" lon="5.74062">
        <ele>1337.8000488281</ele>
        <time>2026-07-05T09:00:57.000Z</time>
      </trkpt>
      <trkpt lat="44.93349" lon="5.74063">
        <ele>1338</ele>
        <time>2026-07-05T09:00:58.000Z</time>
      </trkpt>
      <trkpt lat="44.9335" lon="5.74063">
        <ele>1338.1999511719</ele>
        <time>2026-07-05T09:00:59.000Z</time>
      </trkpt>
      <trkpt lat="44.9335" lon="5.74064">
        <ele>1338.1999511719</ele>
        <time>2026-07-05T09:01:00.000Z</time>
      </trkpt>
      <trkpt lat="44.93351" lon="5.74064">
        <ele>1338.5999755859</ele>
        <time>2026-07-05T09:01:01.000Z</time>
      </trkpt>
      <trkpt lat="44.93351" lon="5.74065">
        <ele>1339.1999511719</ele>
        <time>2026-07-05T09:01:02.000Z</time>
      </trkpt>
      <trkpt lat="44.93352" lon="5.74066">
        <ele>1339.5999755859</ele>
        <time>2026-07-05T09:01:03.000Z</time>
      </trkpt>
      <trkpt lat="44.93352" lon="5.74067">
        <ele>1340.1999511719</ele>
        <time>2026-07-05T09:01:04.000Z</time>
      </trkpt>
      <trkpt lat="44.93353" lon="5.74068">
        <ele>1340.4000244141</ele>
        <time>2026-07-05T09:01:05.000Z</time>
      </trkpt>
      <trkpt lat="44.93354" lon="5.74068">
        <ele>1341.8000488281</ele>
        <time>2026-07-05T09:01:06.000Z</time>
      </trkpt>
      <trkpt lat="44.93355" lon="5.74069">
        <ele>1343.1999511719</ele>
        <time>2026-07-05T09:01:07.000Z</time>
      </trkpt>
      <trkpt lat="44.93355" lon="5.7407">
        <ele>1344.1999511719</ele>
        <time>2026-07-05T09:01:08.000Z</time>
      </trkpt>
      <trkpt lat="44.93355" lon="5.74071">
        <ele>1344.4000244141</ele>
        <time>2026-07-05T09:01:09.000Z</time>
      </trkpt>
      <trkpt lat="44.93356" lon="5.74072">
        <ele>1345</ele>
        <time>2026-07-05T09:01:10.000Z</time>
      </trkpt>
      <trkpt lat="44.93356" lon="5.74073">
        <ele>1345.1999511719</ele>
        <time>2026-07-05T09:01:11.000Z</time>
      </trkpt>
      <trkpt lat="44.93357" lon="5.74074">
        <ele>1346</ele>
        <time>2026-07-05T09:01:12.000Z</time>
      </trkpt>
      <trkpt lat="44.93357" lon="5.74075">
        <ele>1346.5999755859</ele>
        <time>2026-07-05T09:01:13.000Z</time>
      </trkpt>
      <trkpt lat="44.93357" lon="5.74077">
        <ele>1346.8000488281</ele>
        <time>2026-07-05T09:01:14.000Z</time>
      </trkpt>
      <trkpt lat="44.93358" lon="5.74077">
        <ele>1347.1999511719</ele>
        <time>2026-07-05T09:01:15.000Z</time>
      </trkpt>
      <trkpt lat="44.93358" lon="5.74078">
        <ele>1347.8000488281</ele>
        <time>2026-07-05T09:01:16.000Z</time>
      </trkpt>
      <trkpt lat="44.93359" lon="5.7408">
        <ele>1348</ele>
        <time>2026-07-05T09:01:17.000Z</time>
      </trkpt>
      <trkpt lat="44.93359" lon="5.7408">
        <ele>1348</ele>
        <time>2026-07-05T09:01:18.000Z</time>
      </trkpt>
      <trkpt lat="44.9336" lon="5.74081">
        <ele>1348.1999511719</ele>
        <time>2026-07-05T09:01:19.000Z</time>
      </trkpt>
      <trkpt lat="44.9336" lon="5.74081">
        <ele>1348.4000244141</ele>
        <time>2026-07-05T09:01:20.000Z</time>
      </trkpt>
      <trkpt lat="44.9336" lon="5.74082">
        <ele>1348.5999755859</ele>
        <time>2026-07-05T09:01:21.000Z</time>
      </trkpt>
      <trkpt lat="44.9336" lon="5.74084">
        <ele>1348.8000488281</ele>
        <time>2026-07-05T09:01:22.000Z</time>
      </trkpt>
      <trkpt lat="44.9336" lon="5.74085">
        <ele>1349.1999511719</ele>
        <time>2026-07-05T09:01:23.000Z</time>
      </trkpt>
      <trkpt lat="44.9336" lon="5.74086">
        <ele>1349.4000244141</ele>
        <time>2026-07-05T09:01:24.000Z</time>
      </trkpt>
      <trkpt lat="44.9336" lon="5.74088">
        <ele>1349.8000488281</ele>
        <time>2026-07-05T09:01:25.000Z</time>
      </trkpt>
      <trkpt lat="44.9336" lon="5.74088">
        <ele>1351</ele>
        <time>2026-07-05T09:01:26.000Z</time>
      </trkpt>
      <trkpt lat="44.93361" lon="5.74088">
        <ele>1351.4000244141</ele>
        <time>2026-07-05T09:01:27.000Z</time>
      </trkpt>
      <trkpt lat="44.9336" lon="5.7409">
        <ele>1351.5999755859</ele>
        <time>2026-07-05T09:01:28.000Z</time>
      </trkpt>
      <trkpt lat="44.9336" lon="5.74091">
        <ele>1351.8000488281</ele>
        <time>2026-07-05T09:01:29.000Z</time>
      </trkpt>
      <trkpt lat="44.93359" lon="5.74092">
        <ele>1352.1999511719</ele>
        <time>2026-07-05T09:01:30.000Z</time>
      </trkpt>
      <trkpt lat="44.93359" lon="5.74093">
        <ele>1352.4000244141</ele>
        <time>2026-07-05T09:01:31.000Z</time>
      </trkpt>
      <trkpt lat="44.93359" lon="5.74094">
        <ele>1352.8000488281</ele>
        <time>2026-07-05T09:01:32.000Z</time>
      </trkpt>
      <trkpt lat="44.93358" lon="5.74096">
        <ele>1352.8000488281</ele>
        <time>2026-07-05T09:01:33.000Z</time>
      </trkpt>
      <trkpt lat="44.93358" lon="5.74097">
        <ele>1352.4000244141</ele>
        <time>2026-07-05T09:01:34.000Z</time>
      </trkpt>
      <trkpt lat="44.93357" lon="5.74098">
        <ele>1352.4000244141</ele>
        <time>2026-07-05T09:01:35.000Z</time>
      </trkpt>
      <trkpt lat="44.93356" lon="5.74099">
        <ele>1352.5999755859</ele>
        <time>2026-07-05T09:01:36.000Z</time>
      </trkpt>
      <trkpt lat="44.93355" lon="5.741">
        <ele>1352.5999755859</ele>
        <time>2026-07-05T09:01:37.000Z</time>
      </trkpt>
      <trkpt lat="44.93354" lon="5.74102">
        <ele>1352.8000488281</ele>
        <time>2026-07-05T09:01:38.000Z</time>
      </trkpt>
      <trkpt lat="44.93353" lon="5.74102">
        <ele>1352.8000488281</ele>
        <time>2026-07-05T09:01:39.000Z</time>
      </trkpt>
      <trkpt lat="44.93353" lon="5.74103">
        <ele>1353.4000244141</ele>
        <time>2026-07-05T09:01:40.000Z</time>
      </trkpt>
      <trkpt lat="44.93351" lon="5.74103">
        <ele>1353.8000488281</ele>
        <time>2026-07-05T09:01:41.000Z</time>
      </trkpt>
      <trkpt lat="44.93351" lon="5.74103">
        <ele>1353.8000488281</ele>
        <time>2026-07-05T09:01:42.000Z</time>
      </trkpt>
      <trkpt lat="44.9335" lon="5.74103">
        <ele>1354</ele>
        <time>2026-07-05T09:01:43.000Z</time>
      </trkpt>
      <trkpt lat="44.93349" lon="5.74103">
        <ele>1354</ele>
        <time>2026-07-05T09:01:44.000Z</time>
      </trkpt>
      <trkpt lat="44.93347" lon="5.74103">
        <ele>1353.5999755859</ele>
        <time>2026-07-05T09:01:45.000Z</time>
      </trkpt>
      <trkpt lat="44.93346" lon="5.74104">
        <ele>1353.4000244141</ele>
        <time>2026-07-05T09:01:46.000Z</time>
      </trkpt>
      <trkpt lat="44.93345" lon="5.74105">
        <ele>1353.1999511719</ele>
        <time>2026-07-05T09:01:47.000Z</time>
      </trkpt>
      <trkpt lat="44.93344" lon="5.74106">
        <ele>1353.1999511719</ele>
        <time>2026-07-05T09:01:48.000Z</time>
      </trkpt>
      <trkpt lat="44.93344" lon="5.74107">
        <ele>1353.1999511719</ele>
        <time>2026-07-05T09:01:49.000Z</time>
      </trkpt>
      <trkpt lat="44.93343" lon="5.74107">
        <ele>1353</ele>
        <time>2026-07-05T09:01:50.000Z</time>
      </trkpt>
      <trkpt lat="44.93342" lon="5.74107">
        <ele>1353</ele>
        <time>2026-07-05T09:01:51.000Z</time>
      </trkpt>
      <trkpt lat="44.93341" lon="5.74108">
        <ele>1353.1999511719</ele>
        <time>2026-07-05T09:01:52.000Z</time>
      </trkpt>
      <trkpt lat="44.9334" lon="5.74108">
        <ele>1353.1999511719</ele>
        <time>2026-07-05T09:01:53.000Z</time>
      </trkpt>
      <trkpt lat="44.93338" lon="5.74108">
        <ele>1353.4000244141</ele>
        <time>2026-07-05T09:01:54.000Z</time>
      </trkpt>
      <trkpt lat="44.93337" lon="5.74108">
        <ele>1353.4000244141</ele>
        <time>2026-07-05T09:01:55.000Z</time>
      </trkpt>
      <trkpt lat="44.93336" lon="5.74108">
        <ele>1353.5999755859</ele>
        <time>2026-07-05T09:01:56.000Z</time>
      </trkpt>
      <trkpt lat="44.93335" lon="5.74109">
        <ele>1353.5999755859</ele>
        <time>2026-07-05T09:01:57.000Z</time>
      </trkpt>
      <trkpt lat="44.93334" lon="5.74109">
        <ele>1353.4000244141</ele>
        <time>2026-07-05T09:01:58.000Z</time>
      </trkpt>
      <trkpt lat="44.93332" lon="5.7411">
        <ele>1353</ele>
        <time>2026-07-05T09:01:59.000Z</time>
      </trkpt>
      <trkpt lat="44.93331" lon="5.7411">
        <ele>1352.8000488281</ele>
        <time>2026-07-05T09:02:00.000Z</time>
      </trkpt>
      <trkpt lat="44.9333" lon="5.7411">
        <ele>1352.8000488281</ele>
        <time>2026-07-05T09:02:01.000Z</time>
      </trkpt>
      <trkpt lat="44.93329" lon="5.74111">
        <ele>1353</ele>
        <time>2026-07-05T09:02:02.000Z</time>
      </trkpt>
      <trkpt lat="44.93328" lon="5.74112">
        <ele>1353</ele>
        <time>2026-07-05T09:02:03.000Z</time>
      </trkpt>
      <trkpt lat="44.93327" lon="5.74112">
        <ele>1353.1999511719</ele>
        <time>2026-07-05T09:02:04.000Z</time>
      </trkpt>
      <trkpt lat="44.93326" lon="5.74113">
        <ele>1353.1999511719</ele>
        <time>2026-07-05T09:02:05.000Z</time>
      </trkpt>
      <trkpt lat="44.93325" lon="5.74113">
        <ele>1353.4000244141</ele>
        <time>2026-07-05T09:02:06.000Z</time>
      </trkpt>
      <trkpt lat="44.93324" lon="5.74113">
        <ele>1353.8000488281</ele>
        <time>2026-07-05T09:02:07.000Z</time>
      </trkpt>
      <trkpt lat="44.93322" lon="5.74113">
        <ele>1353.8000488281</ele>
        <time>2026-07-05T09:02:08.000Z</time>
      </trkpt>
      <trkpt lat="44.93321" lon="5.74114">
        <ele>1354</ele>
        <time>2026-07-05T09:02:09.000Z</time>
      </trkpt>
      <trkpt lat="44.9332" lon="5.74114">
        <ele>1354</ele>
        <time>2026-07-05T09:02:10.000Z</time>
      </trkpt>
      <trkpt lat="44.93319" lon="5.74115">
        <ele>1354.1999511719</ele>
        <time>2026-07-05T09:02:11.000Z</time>
      </trkpt>
      <trkpt lat="44.93318" lon="5.74115">
        <ele>1354.4000244141</ele>
        <time>2026-07-05T09:02:12.000Z</time>
      </trkpt>
      <trkpt lat="44.93317" lon="5.74116">
        <ele>1354.5999755859</ele>
        <time>2026-07-05T09:02:13.000Z</time>
      </trkpt>
      <trkpt lat="44.93315" lon="5.74117">
        <ele>1354.8000488281</ele>
        <time>2026-07-05T09:02:14.000Z</time>
      </trkpt>
      <trkpt lat="44.93314" lon="5.74117">
        <ele>1355</ele>
        <time>2026-07-05T09:02:15.000Z</time>
      </trkpt>
      <trkpt lat="44.93313" lon="5.74118">
        <ele>1355.1999511719</ele>
        <time>2026-07-05T09:02:16.000Z</time>
      </trkpt>
      <trkpt lat="44.93312" lon="5.74119">
        <ele>1355.4000244141</ele>
        <time>2026-07-05T09:02:17.000Z</time>
      </trkpt>
      <trkpt lat="44.93311" lon="5.74119">
        <ele>1356</ele>
        <time>2026-07-05T09:02:18.000Z</time>
      </trkpt>
      <trkpt lat="44.9331" lon="5.7412">
        <ele>1356.5999755859</ele>
        <time>2026-07-05T09:02:19.000Z</time>
      </trkpt>
      <trkpt lat="44.9331" lon="5.7412">
        <ele>1356.5999755859</ele>
        <time>2026-07-05T09:02:20.000Z</time>
      </trkpt>
      <trkpt lat="44.93309" lon="5.7412">
        <ele>1356.5999755859</ele>
        <time>2026-07-05T09:02:21.000Z</time>
      </trkpt>
      <trkpt lat="44.93307" lon="5.7412">
        <ele>1356.5999755859</ele>
        <time>2026-07-05T09:02:22.000Z</time>
      </trkpt>
      <trkpt lat="44.93306" lon="5.74121">
        <ele>1356.5999755859</ele>
        <time>2026-07-05T09:02:23.000Z</time>
      </trkpt>
      <trkpt lat="44.93305" lon="5.74121">
        <ele>1356.8000488281</ele>
        <time>2026-07-05T09:02:24.000Z</time>
      </trkpt>
      <trkpt lat="44.93304" lon="5.74121">
        <ele>1356.5999755859</ele>
        <time>2026-07-05T09:02:25.000Z</time>
      </trkpt>
      <trkpt lat="44.93302" lon="5.74122">
        <ele>1356.5999755859</ele>
        <time>2026-07-05T09:02:26.000Z</time>
      </trkpt>
      <trkpt lat="44.93301" lon="5.74122">
        <ele>1356.8000488281</ele>
        <time>2026-07-05T09:02:27.000Z</time>
      </trkpt>
      <trkpt lat="44.933" lon="5.74122">
        <ele>1356.8000488281</ele>
        <time>2026-07-05T09:02:28.000Z</time>
      </trkpt>
      <trkpt lat="44.93299" lon="5.74122">
        <ele>1356.8000488281</ele>
        <time>2026-07-05T09:02:29.000Z</time>
      </trkpt>
      <trkpt lat="44.93298" lon="5.74123">
        <ele>1356.8000488281</ele>
        <time>2026-07-05T09:02:30.000Z</time>
      </trkpt>
      <trkpt lat="44.93296" lon="5.74123">
        <ele>1356.8000488281</ele>
        <time>2026-07-05T09:02:31.000Z</time>
      </trkpt>
      <trkpt lat="44.93295" lon="5.74123">
        <ele>1356.5999755859</ele>
        <time>2026-07-05T09:02:32.000Z</time>
      </trkpt>
      <trkpt lat="44.93293" lon="5.74124">
        <ele>1356.8000488281</ele>
        <time>2026-07-05T09:02:33.000Z</time>
      </trkpt>
      <trkpt lat="44.93292" lon="5.74124">
        <ele>1356.8000488281</ele>
        <time>2026-07-05T09:02:34.000Z</time>
      </trkpt>
      <trkpt lat="44.9329" lon="5.74124">
        <ele>1357</ele>
        <time>2026-07-05T09:02:35.000Z</time>
      </trkpt>
      <trkpt lat="44.93289" lon="5.74124">
        <ele>1357.4000244141</ele>
        <time>2026-07-05T09:02:36.000Z</time>
      </trkpt>
      <trkpt lat="44.93288" lon="5.74123">
        <ele>1357.5999755859</ele>
        <time>2026-07-05T09:02:37.000Z</time>
      </trkpt>
      <trkpt lat="44.93287" lon="5.74123">
        <ele>1358</ele>
        <time>2026-07-05T09:02:38.000Z</time>
      </trkpt>
      <trkpt lat="44.93285" lon="5.74123">
        <ele>1358.4000244141</ele>
        <time>2026-07-05T09:02:39.000Z</time>
      </trkpt>
      <trkpt lat="44.93284" lon="5.74123">
        <ele>1359</ele>
        <time>2026-07-05T09:02:40.000Z</time>
      </trkpt>
      <trkpt lat="44.93283" lon="5.74122">
        <ele>1359.4000244141</ele>
        <time>2026-07-05T09:02:41.000Z</time>
      </trkpt>
      <trkpt lat="44.93281" lon="5.74122">
        <ele>1359.8000488281</ele>
        <time>2026-07-05T09:02:42.000Z</time>
      </trkpt>
      <trkpt lat="44.9328" lon="5.74122">
        <ele>1360.5999755859</ele>
        <time>2026-07-05T09:02:43.000Z</time>
      </trkpt>
      <trkpt lat="44.93279" lon="5.74122">
        <ele>1361.1999511719</ele>
        <time>2026-07-05T09:02:44.000Z</time>
      </trkpt>
      <trkpt lat="44.93278" lon="5.74121">
        <ele>1361.8000488281</ele>
        <time>2026-07-05T09:02:45.000Z</time>
      </trkpt>
      <trkpt lat="44.93277" lon="5.74121">
        <ele>1362.4000244141</ele>
        <time>2026-07-05T09:02:46.000Z</time>
      </trkpt>
      <trkpt lat="44.93276" lon="5.74121">
        <ele>1363.1999511719</ele>
        <time>2026-07-05T09:02:47.000Z</time>
      </trkpt>
      <trkpt lat="44.93274" lon="5.7412">
        <ele>1364</ele>
        <time>2026-07-05T09:02:48.000Z</time>
      </trkpt>
      <trkpt lat="44.93273" lon="5.7412">
        <ele>1365</ele>
        <time>2026-07-05T09:02:49.000Z</time>
      </trkpt>
      <trkpt lat="44.93272" lon="5.74119">
        <ele>1365.1999511719</ele>
        <time>2026-07-05T09:02:50.000Z</time>
      </trkpt>
      <trkpt lat="44.9327" lon="5.74119">
        <ele>1365.1999511719</ele>
        <time>2026-07-05T09:02:51.000Z</time>
      </trkpt>
      <trkpt lat="44.93269" lon="5.74119">
        <ele>1365.4000244141</ele>
        <time>2026-07-05T09:02:52.000Z</time>
      </trkpt>
      <trkpt lat="44.93268" lon="5.74119">
        <ele>1365.4000244141</ele>
        <time>2026-07-05T09:02:53.000Z</time>
      </trkpt>
      <trkpt lat="44.93267" lon="5.74119">
        <ele>1365.5999755859</ele>
        <time>2026-07-05T09:02:54.000Z</time>
      </trkpt>
      <trkpt lat="44.93265" lon="5.74118">
        <ele>1366.5999755859</ele>
        <time>2026-07-05T09:02:55.000Z</time>
      </trkpt>
      <trkpt lat="44.93265" lon="5.74118">
        <ele>1366.8000488281</ele>
        <time>2026-07-05T09:02:56.000Z</time>
      </trkpt>
      <trkpt lat="44.93264" lon="5.74117">
        <ele>1366.8000488281</ele>
        <time>2026-07-05T09:02:57.000Z</time>
      </trkpt>
      <trkpt lat="44.93263" lon="5.74116">
        <ele>1367</ele>
        <time>2026-07-05T09:02:58.000Z</time>
      </trkpt>
      <trkpt lat="44.93262" lon="5.74116">
        <ele>1367.1999511719</ele>
        <time>2026-07-05T09:02:59.000Z</time>
      </trkpt>
      <trkpt lat="44.9326" lon="5.74115">
        <ele>1367.1999511719</ele>
        <time>2026-07-05T09:03:00.000Z</time>
      </trkpt>
      <trkpt lat="44.93259" lon="5.74115">
        <ele>1367.4000244141</ele>
        <time>2026-07-05T09:03:01.000Z</time>
      </trkpt>
      <trkpt lat="44.93258" lon="5.74115">
        <ele>1367.4000244141</ele>
        <time>2026-07-05T09:03:02.000Z</time>
      </trkpt>
      <trkpt lat="44.93257" lon="5.74115">
        <ele>1367.1999511719</ele>
        <time>2026-07-05T09:03:03.000Z</time>
      </trkpt>
      <trkpt lat="44.93256" lon="5.74115">
        <ele>1367.4000244141</ele>
        <time>2026-07-05T09:03:04.000Z</time>
      </trkpt>
      <trkpt lat="44.93255" lon="5.74115">
        <ele>1367.5999755859</ele>
        <time>2026-07-05T09:03:05.000Z</time>
      </trkpt>
      <trkpt lat="44.93254" lon="5.74116">
        <ele>1367.5999755859</ele>
        <time>2026-07-05T09:03:06.000Z</time>
      </trkpt>
      <trkpt lat="44.93253" lon="5.74116">
        <ele>1367.8000488281</ele>
        <time>2026-07-05T09:03:07.000Z</time>
      </trkpt>
      <trkpt lat="44.93252" lon="5.74117">
        <ele>1367.8000488281</ele>
        <time>2026-07-05T09:03:08.000Z</time>
      </trkpt>
      <trkpt lat="44.93251" lon="5.74117">
        <ele>1368</ele>
        <time>2026-07-05T09:03:09.000Z</time>
      </trkpt>
      <trkpt lat="44.9325" lon="5.74117">
        <ele>1368</ele>
        <time>2026-07-05T09:03:10.000Z</time>
      </trkpt>
      <trkpt lat="44.93249" lon="5.74118">
        <ele>1368.1999511719</ele>
        <time>2026-07-05T09:03:11.000Z</time>
      </trkpt>
      <trkpt lat="44.93248" lon="5.74118">
        <ele>1368.1999511719</ele>
        <time>2026-07-05T09:03:12.000Z</time>
      </trkpt>
      <trkpt lat="44.93248" lon="5.74119">
        <ele>1368.4000244141</ele>
        <time>2026-07-05T09:03:13.000Z</time>
      </trkpt>
      <trkpt lat="44.93247" lon="5.7412">
        <ele>1368.4000244141</ele>
        <time>2026-07-05T09:03:14.000Z</time>
      </trkpt>
      <trkpt lat="44.93247" lon="5.7412">
        <ele>1368.5999755859</ele>
        <time>2026-07-05T09:03:15.000Z</time>
      </trkpt>
      <trkpt lat="44.93247" lon="5.74121">
        <ele>1369.1999511719</ele>
        <time>2026-07-05T09:03:16.000Z</time>
      </trkpt>
      <trkpt lat="44.93246" lon="5.74122">
        <ele>1369.5999755859</ele>
        <time>2026-07-05T09:03:17.000Z</time>
      </trkpt>
      <trkpt lat="44.93246" lon="5.74123">
        <ele>1370</ele>
        <time>2026-07-05T09:03:18.000Z</time>
      </trkpt>
      <trkpt lat="44.93246" lon="5.74123">
        <ele>1370.5999755859</ele>
        <time>2026-07-05T09:03:19.000Z</time>
      </trkpt>
      <trkpt lat="44.93246" lon="5.74124">
        <ele>1371</ele>
        <time>2026-07-05T09:03:20.000Z</time>
      </trkpt>
      <trkpt lat="44.93246" lon="5.74125">
        <ele>1371.1999511719</ele>
        <time>2026-07-05T09:03:21.000Z</time>
      </trkpt>
      <trkpt lat="44.93246" lon="5.74126">
        <ele>1371.5999755859</ele>
        <time>2026-07-05T09:03:22.000Z</time>
      </trkpt>
      <trkpt lat="44.93246" lon="5.74127">
        <ele>1371.8000488281</ele>
        <time>2026-07-05T09:03:23.000Z</time>
      </trkpt>
      <trkpt lat="44.93246" lon="5.74129">
        <ele>1372.1999511719</ele>
        <time>2026-07-05T09:03:24.000Z</time>
      </trkpt>
      <trkpt lat="44.93246" lon="5.7413">
        <ele>1372.4000244141</ele>
        <time>2026-07-05T09:03:25.000Z</time>
      </trkpt>
      <trkpt lat="44.93247" lon="5.74131">
        <ele>1372.8000488281</ele>
        <time>2026-07-05T09:03:26.000Z</time>
      </trkpt>
      <trkpt lat="44.93247" lon="5.74132">
        <ele>1373</ele>
        <time>2026-07-05T09:03:27.000Z</time>
      </trkpt>
      <trkpt lat="44.93247" lon="5.74133">
        <ele>1373</ele>
        <time>2026-07-05T09:03:28.000Z</time>
      </trkpt>
      <trkpt lat="44.93246" lon="5.74135">
        <ele>1373.8000488281</ele>
        <time>2026-07-05T09:03:29.000Z</time>
      </trkpt>
      <trkpt lat="44.93247" lon="5.74136">
        <ele>1375.1999511719</ele>
        <time>2026-07-05T09:03:30.000Z</time>
      </trkpt>
      <trkpt lat="44.93247" lon="5.74136">
        <ele>1376</ele>
        <time>2026-07-05T09:03:31.000Z</time>
      </trkpt>
      <trkpt lat="44.93247" lon="5.74136">
        <ele>1376.8000488281</ele>
        <time>2026-07-05T09:03:32.000Z</time>
      </trkpt>
      <trkpt lat="44.93248" lon="5.74137">
        <ele>1377.4000244141</ele>
        <time>2026-07-05T09:03:33.000Z</time>
      </trkpt>
      <trkpt lat="44.93248" lon="5.74139">
        <ele>1377.5999755859</ele>
        <time>2026-07-05T09:03:34.000Z</time>
      </trkpt>
      <trkpt lat="44.93248" lon="5.7414">
        <ele>1378.4000244141</ele>
        <time>2026-07-05T09:03:35.000Z</time>
      </trkpt>
      <trkpt lat="44.93248" lon="5.74141">
        <ele>1378.8000488281</ele>
        <time>2026-07-05T09:03:36.000Z</time>
      </trkpt>
      <trkpt lat="44.93248" lon="5.74142">
        <ele>1379</ele>
        <time>2026-07-05T09:03:37.000Z</time>
      </trkpt>
      <trkpt lat="44.93248" lon="5.74143">
        <ele>1379.1999511719</ele>
        <time>2026-07-05T09:03:38.000Z</time>
      </trkpt>
      <trkpt lat="44.93248" lon="5.74144">
        <ele>1379.1999511719</ele>
        <time>2026-07-05T09:03:39.000Z</time>
      </trkpt>
      <trkpt lat="44.93248" lon="5.74145">
        <ele>1379.4000244141</ele>
        <time>2026-07-05T09:03:40.000Z</time>
      </trkpt>
      <trkpt lat="44.93248" lon="5.74147">
        <ele>1379.4000244141</ele>
        <time>2026-07-05T09:03:41.000Z</time>
      </trkpt>
      <trkpt lat="44.93248" lon="5.74148">
        <ele>1379.4000244141</ele>
        <time>2026-07-05T09:03:42.000Z</time>
      </trkpt>
      <trkpt lat="44.93247" lon="5.74149">
        <ele>1379.4000244141</ele>
        <time>2026-07-05T09:03:43.000Z</time>
      </trkpt>
      <trkpt lat="44.93248" lon="5.7415">
        <ele>1379.4000244141</ele>
        <time>2026-07-05T09:03:44.000Z</time>
      </trkpt>
      <trkpt lat="44.93248" lon="5.74151">
        <ele>1379.4000244141</ele>
        <time>2026-07-05T09:03:45.000Z</time>
      </trkpt>
      <trkpt lat="44.93248" lon="5.74152">
        <ele>1379.4000244141</ele>
        <time>2026-07-05T09:03:46.000Z</time>
      </trkpt>
      <trkpt lat="44.93248" lon="5.74153">
        <ele>1379.8000488281</ele>
        <time>2026-07-05T09:03:47.000Z</time>
      </trkpt>
      <trkpt lat="44.93248" lon="5.74154">
        <ele>1380</ele>
        <time>2026-07-05T09:03:48.000Z</time>
      </trkpt>
      <trkpt lat="44.93248" lon="5.74155">
        <ele>1380.1999511719</ele>
        <time>2026-07-05T09:03:49.000Z</time>
      </trkpt>
      <trkpt lat="44.93248" lon="5.74156">
        <ele>1380.4000244141</ele>
        <time>2026-07-05T09:03:50.000Z</time>
      </trkpt>
      <trkpt lat="44.93248" lon="5.74158">
        <ele>1380.5999755859</ele>
        <time>2026-07-05T09:03:51.000Z</time>
      </trkpt>
      <trkpt lat="44.93248" lon="5.74159">
        <ele>1381</ele>
        <time>2026-07-05T09:03:52.000Z</time>
      </trkpt>
      <trkpt lat="44.93249" lon="5.7416">
        <ele>1380.8000488281</ele>
        <time>2026-07-05T09:03:53.000Z</time>
      </trkpt>
      <trkpt lat="44.93249" lon="5.74161">
        <ele>1380.8000488281</ele>
        <time>2026-07-05T09:03:54.000Z</time>
      </trkpt>
      <trkpt lat="44.93249" lon="5.74162">
        <ele>1380.8000488281</ele>
        <time>2026-07-05T09:03:55.000Z</time>
      </trkpt>
      <trkpt lat="44.93249" lon="5.74163">
        <ele>1380.5999755859</ele>
        <time>2026-07-05T09:03:56.000Z</time>
      </trkpt>
      <trkpt lat="44.93249" lon="5.74164">
        <ele>1380.5999755859</ele>
        <time>2026-07-05T09:03:57.000Z</time>
      </trkpt>
      <trkpt lat="44.9325" lon="5.74166">
        <ele>1380.5999755859</ele>
        <time>2026-07-05T09:03:58.000Z</time>
      </trkpt>
      <trkpt lat="44.9325" lon="5.74167">
        <ele>1380.5999755859</ele>
        <time>2026-07-05T09:03:59.000Z</time>
      </trkpt>
      <trkpt lat="44.9325" lon="5.74169">
        <ele>1380.8000488281</ele>
        <time>2026-07-05T09:04:00.000Z</time>
      </trkpt>
      <trkpt lat="44.9325" lon="5.7417">
        <ele>1381.1999511719</ele>
        <time>2026-07-05T09:04:01.000Z</time>
      </trkpt>
      <trkpt lat="44.9325" lon="5.74172">
        <ele>1381.4000244141</ele>
        <time>2026-07-05T09:04:02.000Z</time>
      </trkpt>
      <trkpt lat="44.9325" lon="5.74174">
        <ele>1382</ele>
        <time>2026-07-05T09:04:03.000Z</time>
      </trkpt>
      <trkpt lat="44.93251" lon="5.74176">
        <ele>1383.1999511719</ele>
        <time>2026-07-05T09:04:04.000Z</time>
      </trkpt>
      <trkpt lat="44.93251" lon="5.74178">
        <ele>1384.5999755859</ele>
        <time>2026-07-05T09:04:05.000Z</time>
      </trkpt>
      <trkpt lat="44.93251" lon="5.74179">
        <ele>1385</ele>
        <time>2026-07-05T09:04:06.000Z</time>
      </trkpt>
      <trkpt lat="44.93252" lon="5.74181">
        <ele>1385.5999755859</ele>
        <time>2026-07-05T09:04:07.000Z</time>
      </trkpt>
      <trkpt lat="44.93252" lon="5.74183">
        <ele>1386</ele>
        <time>2026-07-05T09:04:08.000Z</time>
      </trkpt>
      <trkpt lat="44.93252" lon="5.74184">
        <ele>1386.1999511719</ele>
        <time>2026-07-05T09:04:09.000Z</time>
      </trkpt>
      <trkpt lat="44.93253" lon="5.74186">
        <ele>1386.5999755859</ele>
        <time>2026-07-05T09:04:10.000Z</time>
      </trkpt>
      <trkpt lat="44.93254" lon="5.74187">
        <ele>1387</ele>
        <time>2026-07-05T09:04:11.000Z</time>
      </trkpt>
      <trkpt lat="44.93254" lon="5.74189">
        <ele>1387.4000244141</ele>
        <time>2026-07-05T09:04:12.000Z</time>
      </trkpt>
      <trkpt lat="44.93254" lon="5.7419">
        <ele>1387.8000488281</ele>
        <time>2026-07-05T09:04:13.000Z</time>
      </trkpt>
      <trkpt lat="44.93256" lon="5.74191">
        <ele>1388</ele>
        <time>2026-07-05T09:04:14.000Z</time>
      </trkpt>
      <trkpt lat="44.93256" lon="5.74192">
        <ele>1388</ele>
        <time>2026-07-05T09:04:15.000Z</time>
      </trkpt>
      <trkpt lat="44.93257" lon="5.74194">
        <ele>1388.4000244141</ele>
        <time>2026-07-05T09:04:16.000Z</time>
      </trkpt>
      <trkpt lat="44.93258" lon="5.74195">
        <ele>1388.5999755859</ele>
        <time>2026-07-05T09:04:17.000Z</time>
      </trkpt>
      <trkpt lat="44.93258" lon="5.74196">
        <ele>1388.8000488281</ele>
        <time>2026-07-05T09:04:18.000Z</time>
      </trkpt>
      <trkpt lat="44.93259" lon="5.74197">
        <ele>1389</ele>
        <time>2026-07-05T09:04:19.000Z</time>
      </trkpt>
      <trkpt lat="44.93259" lon="5.74198">
        <ele>1389</ele>
        <time>2026-07-05T09:04:20.000Z</time>
      </trkpt>
      <trkpt lat="44.93258" lon="5.74199">
        <ele>1389</ele>
        <time>2026-07-05T09:04:21.000Z</time>
      </trkpt>
      <trkpt lat="44.93258" lon="5.74201">
        <ele>1389</ele>
        <time>2026-07-05T09:04:22.000Z</time>
      </trkpt>
      <trkpt lat="44.93258" lon="5.74202">
        <ele>1389</ele>
        <time>2026-07-05T09:04:23.000Z</time>
      </trkpt>
      <trkpt lat="44.93258" lon="5.74203">
        <ele>1389</ele>
        <time>2026-07-05T09:04:24.000Z</time>
      </trkpt>
      <trkpt lat="44.93258" lon="5.74204">
        <ele>1389.1999511719</ele>
        <time>2026-07-05T09:04:25.000Z</time>
      </trkpt>
      <trkpt lat="44.93258" lon="5.74205">
        <ele>1389.4000244141</ele>
        <time>2026-07-05T09:04:26.000Z</time>
      </trkpt>
      <trkpt lat="44.93259" lon="5.74206">
        <ele>1389.5999755859</ele>
        <time>2026-07-05T09:04:27.000Z</time>
      </trkpt>
      <trkpt lat="44.93259" lon="5.74206">
        <ele>1389.5999755859</ele>
        <time>2026-07-05T09:04:28.000Z</time>
      </trkpt>
      <trkpt lat="44.9326" lon="5.74208">
        <ele>1389.8000488281</ele>
        <time>2026-07-05T09:04:29.000Z</time>
      </trkpt>
      <trkpt lat="44.9326" lon="5.7421">
        <ele>1390</ele>
        <time>2026-07-05T09:04:30.000Z</time>
      </trkpt>
      <trkpt lat="44.93262" lon="5.74211">
        <ele>1390</ele>
        <time>2026-07-05T09:04:31.000Z</time>
      </trkpt>
      <trkpt lat="44.93263" lon="5.74212">
        <ele>1390</ele>
        <time>2026-07-05T09:04:32.000Z</time>
      </trkpt>
      <trkpt lat="44.93263" lon="5.74213">
        <ele>1390</ele>
        <time>2026-07-05T09:04:33.000Z</time>
      </trkpt>
      <trkpt lat="44.93264" lon="5.74214">
        <ele>1390.1999511719</ele>
        <time>2026-07-05T09:04:34.000Z</time>
      </trkpt>
      <trkpt lat="44.93265" lon="5.74215">
        <ele>1390.5999755859</ele>
        <time>2026-07-05T09:04:35.000Z</time>
      </trkpt>
      <trkpt lat="44.93266" lon="5.74215">
        <ele>1390.8000488281</ele>
        <time>2026-07-05T09:04:36.000Z</time>
      </trkpt>
      <trkpt lat="44.93267" lon="5.74217">
        <ele>1391.1999511719</ele>
        <time>2026-07-05T09:04:37.000Z</time>
      </trkpt>
      <trkpt lat="44.93267" lon="5.74218">
        <ele>1391.4000244141</ele>
        <time>2026-07-05T09:04:38.000Z</time>
      </trkpt>
      <trkpt lat="44.93268" lon="5.74219">
        <ele>1392</ele>
        <time>2026-07-05T09:04:39.000Z</time>
      </trkpt>
      <trkpt lat="44.93268" lon="5.74221">
        <ele>1392.4000244141</ele>
        <time>2026-07-05T09:04:40.000Z</time>
      </trkpt>
      <trkpt lat="44.93267" lon="5.74222">
        <ele>1392.5999755859</ele>
        <time>2026-07-05T09:04:41.000Z</time>
      </trkpt>
      <trkpt lat="44.93267" lon="5.74223">
        <ele>1393</ele>
        <time>2026-07-05T09:04:42.000Z</time>
      </trkpt>
      <trkpt lat="44.93267" lon="5.74224">
        <ele>1393.4000244141</ele>
        <time>2026-07-05T09:04:43.000Z</time>
      </trkpt>
      <trkpt lat="44.93267" lon="5.74226">
        <ele>1393.8000488281</ele>
        <time>2026-07-05T09:04:44.000Z</time>
      </trkpt>
      <trkpt lat="44.93267" lon="5.74227">
        <ele>1394.1999511719</ele>
        <time>2026-07-05T09:04:45.000Z</time>
      </trkpt>
      <trkpt lat="44.93267" lon="5.74227">
        <ele>1394.4000244141</ele>
        <time>2026-07-05T09:04:46.000Z</time>
      </trkpt>
      <trkpt lat="44.93267" lon="5.74229">
        <ele>1394.8000488281</ele>
        <time>2026-07-05T09:04:47.000Z</time>
      </trkpt>
      <trkpt lat="44.93267" lon="5.7423">
        <ele>1395</ele>
        <time>2026-07-05T09:04:48.000Z</time>
      </trkpt>
      <trkpt lat="44.93267" lon="5.74232">
        <ele>1395.1999511719</ele>
        <time>2026-07-05T09:04:49.000Z</time>
      </trkpt>
      <trkpt lat="44.93267" lon="5.74233">
        <ele>1395.4000244141</ele>
        <time>2026-07-05T09:04:50.000Z</time>
      </trkpt>
      <trkpt lat="44.93267" lon="5.74233">
        <ele>1395.5999755859</ele>
        <time>2026-07-05T09:04:51.000Z</time>
      </trkpt>
      <trkpt lat="44.93267" lon="5.74235">
        <ele>1395.5999755859</ele>
        <time>2026-07-05T09:04:52.000Z</time>
      </trkpt>
      <trkpt lat="44.93267" lon="5.74236">
        <ele>1395.4000244141</ele>
        <time>2026-07-05T09:04:53.000Z</time>
      </trkpt>
      <trkpt lat="44.93266" lon="5.74237">
        <ele>1395.4000244141</ele>
        <time>2026-07-05T09:04:54.000Z</time>
      </trkpt>
      <trkpt lat="44.93266" lon="5.74239">
        <ele>1395.4000244141</ele>
        <time>2026-07-05T09:04:55.000Z</time>
      </trkpt>
      <trkpt lat="44.93266" lon="5.7424">
        <ele>1395.4000244141</ele>
        <time>2026-07-05T09:04:56.000Z</time>
      </trkpt>
      <trkpt lat="44.93266" lon="5.74242">
        <ele>1395.5999755859</ele>
        <time>2026-07-05T09:04:57.000Z</time>
      </trkpt>
      <trkpt lat="44.93266" lon="5.74243">
        <ele>1395.8000488281</ele>
        <time>2026-07-05T09:04:58.000Z</time>
      </trkpt>
      <trkpt lat="44.93266" lon="5.74244">
        <ele>1396</ele>
        <time>2026-07-05T09:04:59.000Z</time>
      </trkpt>
      <trkpt lat="44.93266" lon="5.74246">
        <ele>1396.4000244141</ele>
        <time>2026-07-05T09:05:00.000Z</time>
      </trkpt>
      <trkpt lat="44.93266" lon="5.74247">
        <ele>1396.4000244141</ele>
        <time>2026-07-05T09:05:01.000Z</time>
      </trkpt>
      <trkpt lat="44.93265" lon="5.74249">
        <ele>1396.5999755859</ele>
        <time>2026-07-05T09:05:02.000Z</time>
      </trkpt>
      <trkpt lat="44.93265" lon="5.7425">
        <ele>1396.8000488281</ele>
        <time>2026-07-05T09:05:03.000Z</time>
      </trkpt>
      <trkpt lat="44.93264" lon="5.74251">
        <ele>1397</ele>
        <time>2026-07-05T09:05:04.000Z</time>
      </trkpt>
      <trkpt lat="44.93264" lon="5.74252">
        <ele>1397.1999511719</ele>
        <time>2026-07-05T09:05:05.000Z</time>
      </trkpt>
      <trkpt lat="44.93264" lon="5.74253">
        <ele>1397.8000488281</ele>
        <time>2026-07-05T09:05:06.000Z</time>
      </trkpt>
      <trkpt lat="44.93263" lon="5.74254">
        <ele>1398</ele>
        <time>2026-07-05T09:05:07.000Z</time>
      </trkpt>
      <trkpt lat="44.93264" lon="5.74255">
        <ele>1398.4000244141</ele>
        <time>2026-07-05T09:05:08.000Z</time>
      </trkpt>
      <trkpt lat="44.93263" lon="5.74256">
        <ele>1398.5999755859</ele>
        <time>2026-07-05T09:05:09.000Z</time>
      </trkpt>
      <trkpt lat="44.93263" lon="5.74257">
        <ele>1399</ele>
        <time>2026-07-05T09:05:10.000Z</time>
      </trkpt>
      <trkpt lat="44.93263" lon="5.74258">
        <ele>1399.4000244141</ele>
        <time>2026-07-05T09:05:11.000Z</time>
      </trkpt>
      <trkpt lat="44.93263" lon="5.74259">
        <ele>1399.8000488281</ele>
        <time>2026-07-05T09:05:12.000Z</time>
      </trkpt>
      <trkpt lat="44.93262" lon="5.74261">
        <ele>1400</ele>
        <time>2026-07-05T09:05:13.000Z</time>
      </trkpt>
      <trkpt lat="44.93262" lon="5.74262">
        <ele>1400.4000244141</ele>
        <time>2026-07-05T09:05:14.000Z</time>
      </trkpt>
      <trkpt lat="44.93262" lon="5.74263">
        <ele>1400.8000488281</ele>
        <time>2026-07-05T09:05:15.000Z</time>
      </trkpt>
      <trkpt lat="44.93262" lon="5.74264">
        <ele>1401.1999511719</ele>
        <time>2026-07-05T09:05:16.000Z</time>
      </trkpt>
      <trkpt lat="44.93261" lon="5.74265">
        <ele>1401.4000244141</ele>
        <time>2026-07-05T09:05:17.000Z</time>
      </trkpt>
      <trkpt lat="44.93261" lon="5.74267">
        <ele>1401.4000244141</ele>
        <time>2026-07-05T09:05:18.000Z</time>
      </trkpt>
      <trkpt lat="44.9326" lon="5.74268">
        <ele>1401.8000488281</ele>
        <time>2026-07-05T09:05:19.000Z</time>
      </trkpt>
      <trkpt lat="44.9326" lon="5.74268">
        <ele>1402</ele>
        <time>2026-07-05T09:05:20.000Z</time>
      </trkpt>
      <trkpt lat="44.93259" lon="5.74269">
        <ele>1402.8000488281</ele>
        <time>2026-07-05T09:05:21.000Z</time>
      </trkpt>
      <trkpt lat="44.93259" lon="5.7427">
        <ele>1402.8000488281</ele>
        <time>2026-07-05T09:05:22.000Z</time>
      </trkpt>
      <trkpt lat="44.93258" lon="5.74271">
        <ele>1403.5999755859</ele>
        <time>2026-07-05T09:05:23.000Z</time>
      </trkpt>
      <trkpt lat="44.93258" lon="5.74273">
        <ele>1404</ele>
        <time>2026-07-05T09:05:24.000Z</time>
      </trkpt>
      <trkpt lat="44.93257" lon="5.74274">
        <ele>1404.4000244141</ele>
        <time>2026-07-05T09:05:25.000Z</time>
      </trkpt>
      <trkpt lat="44.93257" lon="5.74276">
        <ele>1404.5999755859</ele>
        <time>2026-07-05T09:05:26.000Z</time>
      </trkpt>
      <trkpt lat="44.93256" lon="5.74277">
        <ele>1405.1999511719</ele>
        <time>2026-07-05T09:05:27.000Z</time>
      </trkpt>
      <trkpt lat="44.93256" lon="5.74278">
        <ele>1405.5999755859</ele>
        <time>2026-07-05T09:05:28.000Z</time>
      </trkpt>
      <trkpt lat="44.93255" lon="5.74279">
        <ele>1406.5999755859</ele>
        <time>2026-07-05T09:05:29.000Z</time>
      </trkpt>
      <trkpt lat="44.93255" lon="5.7428">
        <ele>1406.8000488281</ele>
        <time>2026-07-05T09:05:30.000Z</time>
      </trkpt>
      <trkpt lat="44.93255" lon="5.74281">
        <ele>1407</ele>
        <time>2026-07-05T09:05:31.000Z</time>
      </trkpt>
      <trkpt lat="44.93254" lon="5.74282">
        <ele>1407.1999511719</ele>
        <time>2026-07-05T09:05:32.000Z</time>
      </trkpt>
      <trkpt lat="44.93254" lon="5.74284">
        <ele>1407.1999511719</ele>
        <time>2026-07-05T09:05:33.000Z</time>
      </trkpt>
      <trkpt lat="44.93254" lon="5.74285">
        <ele>1407.1999511719</ele>
        <time>2026-07-05T09:05:34.000Z</time>
      </trkpt>
      <trkpt lat="44.93254" lon="5.74286">
        <ele>1407.4000244141</ele>
        <time>2026-07-05T09:05:35.000Z</time>
      </trkpt>
      <trkpt lat="44.93254" lon="5.74286">
        <ele>1407.4000244141</ele>
        <time>2026-07-05T09:05:36.000Z</time>
      </trkpt>
      <trkpt lat="44.93253" lon="5.74287">
        <ele>1407.5999755859</ele>
        <time>2026-07-05T09:05:37.000Z</time>
      </trkpt>
      <trkpt lat="44.93253" lon="5.74289">
        <ele>1408</ele>
        <time>2026-07-05T09:05:38.000Z</time>
      </trkpt>
      <trkpt lat="44.93253" lon="5.7429">
        <ele>1408</ele>
        <time>2026-07-05T09:05:39.000Z</time>
      </trkpt>
      <trkpt lat="44.93253" lon="5.74291">
        <ele>1408</ele>
        <time>2026-07-05T09:05:40.000Z</time>
      </trkpt>
      <trkpt lat="44.93253" lon="5.74292">
        <ele>1408</ele>
        <time>2026-07-05T09:05:41.000Z</time>
      </trkpt>
      <trkpt lat="44.93253" lon="5.74293">
        <ele>1408.1999511719</ele>
        <time>2026-07-05T09:05:42.000Z</time>
      </trkpt>
      <trkpt lat="44.93253" lon="5.74294">
        <ele>1408.4000244141</ele>
        <time>2026-07-05T09:05:43.000Z</time>
      </trkpt>
      <trkpt lat="44.93252" lon="5.74295">
        <ele>1408.5999755859</ele>
        <time>2026-07-05T09:05:44.000Z</time>
      </trkpt>
      <trkpt lat="44.93253" lon="5.74296">
        <ele>1408.5999755859</ele>
        <time>2026-07-05T09:05:45.000Z</time>
      </trkpt>
      <trkpt lat="44.93253" lon="5.74297">
        <ele>1409</ele>
        <time>2026-07-05T09:05:46.000Z</time>
      </trkpt>
      <trkpt lat="44.93252" lon="5.74298">
        <ele>1409.4000244141</ele>
        <time>2026-07-05T09:05:47.000Z</time>
      </trkpt>
      <trkpt lat="44.93252" lon="5.74299">
        <ele>1409.5999755859</ele>
        <time>2026-07-05T09:05:48.000Z</time>
      </trkpt>
      <trkpt lat="44.93253" lon="5.743">
        <ele>1410</ele>
        <time>2026-07-05T09:05:49.000Z</time>
      </trkpt>
      <trkpt lat="44.93252" lon="5.74301">
        <ele>1410.1999511719</ele>
        <time>2026-07-05T09:05:50.000Z</time>
      </trkpt>
      <trkpt lat="44.93252" lon="5.74302">
        <ele>1410.4000244141</ele>
        <time>2026-07-05T09:05:51.000Z</time>
      </trkpt>
      <trkpt lat="44.93253" lon="5.74303">
        <ele>1410.5999755859</ele>
        <time>2026-07-05T09:05:52.000Z</time>
      </trkpt>
      <trkpt lat="44.93253" lon="5.74304">
        <ele>1410.5999755859</ele>
        <time>2026-07-05T09:05:53.000Z</time>
      </trkpt>
      <trkpt lat="44.93252" lon="5.74305">
        <ele>1410.5999755859</ele>
        <time>2026-07-05T09:05:54.000Z</time>
      </trkpt>
      <trkpt lat="44.9325" lon="5.74306">
        <ele>1410.5999755859</ele>
        <time>2026-07-05T09:05:55.000Z</time>
      </trkpt>
      <trkpt lat="44.9325" lon="5.74307">
        <ele>1410.1999511719</ele>
        <time>2026-07-05T09:05:56.000Z</time>
      </trkpt>
      <trkpt lat="44.93249" lon="5.74308">
        <ele>1410.1999511719</ele>
        <time>2026-07-05T09:05:57.000Z</time>
      </trkpt>
      <trkpt lat="44.93248" lon="5.74309">
        <ele>1410.1999511719</ele>
        <time>2026-07-05T09:05:58.000Z</time>
      </trkpt>
      <trkpt lat="44.93247" lon="5.7431">
        <ele>1410.1999511719</ele>
        <time>2026-07-05T09:05:59.000Z</time>
      </trkpt>
      <trkpt lat="44.93247" lon="5.74311">
        <ele>1410.4000244141</ele>
        <time>2026-07-05T09:06:00.000Z</time>
      </trkpt>
      <trkpt lat="44.93246" lon="5.74312">
        <ele>1410.5999755859</ele>
        <time>2026-07-05T09:06:01.000Z</time>
      </trkpt>
      <trkpt lat="44.93246" lon="5.74312">
        <ele>1411</ele>
        <time>2026-07-05T09:06:02.000Z</time>
      </trkpt>
      <trkpt lat="44.93246" lon="5.74313">
        <ele>1411.1999511719</ele>
        <time>2026-07-05T09:06:03.000Z</time>
      </trkpt>
      <trkpt lat="44.93245" lon="5.74314">
        <ele>1411.1999511719</ele>
        <time>2026-07-05T09:06:04.000Z</time>
      </trkpt>
      <trkpt lat="44.93244" lon="5.74315">
        <ele>1411.4000244141</ele>
        <time>2026-07-05T09:06:05.000Z</time>
      </trkpt>
      <trkpt lat="44.93243" lon="5.74316">
        <ele>1411.4000244141</ele>
        <time>2026-07-05T09:06:06.000Z</time>
      </trkpt>
      <trkpt lat="44.93243" lon="5.74317">
        <ele>1411.5999755859</ele>
        <time>2026-07-05T09:06:07.000Z</time>
      </trkpt>
      <trkpt lat="44.93242" lon="5.74318">
        <ele>1411.8000488281</ele>
        <time>2026-07-05T09:06:08.000Z</time>
      </trkpt>
      <trkpt lat="44.93242" lon="5.74319">
        <ele>1412</ele>
        <time>2026-07-05T09:06:09.000Z</time>
      </trkpt>
      <trkpt lat="44.93241" lon="5.7432">
        <ele>1412.5999755859</ele>
        <time>2026-07-05T09:06:10.000Z</time>
      </trkpt>
      <trkpt lat="44.93241" lon="5.74321">
        <ele>1412.8000488281</ele>
        <time>2026-07-05T09:06:11.000Z</time>
      </trkpt>
      <trkpt lat="44.9324" lon="5.74321">
        <ele>1412.8000488281</ele>
        <time>2026-07-05T09:06:12.000Z</time>
      </trkpt>
      <trkpt lat="44.93239" lon="5.74322">
        <ele>1413.8000488281</ele>
        <time>2026-07-05T09:06:13.000Z</time>
      </trkpt>
      <trkpt lat="44.93238" lon="5.74323">
        <ele>1414</ele>
        <time>2026-07-05T09:06:14.000Z</time>
      </trkpt>
      <trkpt lat="44.93238" lon="5.74324">
        <ele>1414.5999755859</ele>
        <time>2026-07-05T09:06:15.000Z</time>
      </trkpt>
      <trkpt lat="44.93237" lon="5.74324">
        <ele>1414.8000488281</ele>
        <time>2026-07-05T09:06:16.000Z</time>
      </trkpt>
      <trkpt lat="44.93237" lon="5.74325">
        <ele>1414.8000488281</ele>
        <time>2026-07-05T09:06:17.000Z</time>
      </trkpt>
      <trkpt lat="44.93236" lon="5.74326">
        <ele>1415</ele>
        <time>2026-07-05T09:06:18.000Z</time>
      </trkpt>
      <trkpt lat="44.93236" lon="5.74326">
        <ele>1415.1999511719</ele>
        <time>2026-07-05T09:06:19.000Z</time>
      </trkpt>
      <trkpt lat="44.93235" lon="5.74326">
        <ele>1415.4000244141</ele>
        <time>2026-07-05T09:06:20.000Z</time>
      </trkpt>
      <trkpt lat="44.93234" lon="5.74326">
        <ele>1415.4000244141</ele>
        <time>2026-07-05T09:06:21.000Z</time>
      </trkpt>
      <trkpt lat="44.93233" lon="5.74327">
        <ele>1415.5999755859</ele>
        <time>2026-07-05T09:06:22.000Z</time>
      </trkpt>
      <trkpt lat="44.93232" lon="5.74328">
        <ele>1415.5999755859</ele>
        <time>2026-07-05T09:06:23.000Z</time>
      </trkpt>
      <trkpt lat="44.93231" lon="5.74329">
        <ele>1415.5999755859</ele>
        <time>2026-07-05T09:06:24.000Z</time>
      </trkpt>
      <trkpt lat="44.93231" lon="5.74329">
        <ele>1415.5999755859</ele>
        <time>2026-07-05T09:06:25.000Z</time>
      </trkpt>
      <trkpt lat="44.9323" lon="5.7433">
        <ele>1415.8000488281</ele>
        <time>2026-07-05T09:06:26.000Z</time>
      </trkpt>
      <trkpt lat="44.93229" lon="5.7433">
        <ele>1415.8000488281</ele>
        <time>2026-07-05T09:06:27.000Z</time>
      </trkpt>
      <trkpt lat="44.93229" lon="5.74331">
        <ele>1416</ele>
        <time>2026-07-05T09:06:28.000Z</time>
      </trkpt>
      <trkpt lat="44.93229" lon="5.74332">
        <ele>1416</ele>
        <time>2026-07-05T09:06:29.000Z</time>
      </trkpt>
      <trkpt lat="44.93228" lon="5.74333">
        <ele>1416</ele>
        <time>2026-07-05T09:06:30.000Z</time>
      </trkpt>
      <trkpt lat="44.93227" lon="5.74334">
        <ele>1416.1999511719</ele>
        <time>2026-07-05T09:06:31.000Z</time>
      </trkpt>
      <trkpt lat="44.93227" lon="5.74335">
        <ele>1416.1999511719</ele>
        <time>2026-07-05T09:06:32.000Z</time>
      </trkpt>
      <trkpt lat="44.93225" lon="5.74335">
        <ele>1416.5999755859</ele>
        <time>2026-07-05T09:06:33.000Z</time>
      </trkpt>
      <trkpt lat="44.93224" lon="5.74335">
        <ele>1416.8000488281</ele>
        <time>2026-07-05T09:06:34.000Z</time>
      </trkpt>
      <trkpt lat="44.93223" lon="5.74336">
        <ele>1417.8000488281</ele>
        <time>2026-07-05T09:06:35.000Z</time>
      </trkpt>
      <trkpt lat="44.93222" lon="5.74337">
        <ele>1418</ele>
        <time>2026-07-05T09:06:36.000Z</time>
      </trkpt>
      <trkpt lat="44.93222" lon="5.74336">
        <ele>1418.1999511719</ele>
        <time>2026-07-05T09:06:37.000Z</time>
      </trkpt>
      <trkpt lat="44.93222" lon="5.74336">
        <ele>1418.4000244141</ele>
        <time>2026-07-05T09:06:38.000Z</time>
      </trkpt>
      <trkpt lat="44.93221" lon="5.74336">
        <ele>1418.5999755859</ele>
        <time>2026-07-05T09:06:39.000Z</time>
      </trkpt>
      <trkpt lat="44.9322" lon="5.74336">
        <ele>1420.1999511719</ele>
        <time>2026-07-05T09:06:40.000Z</time>
      </trkpt>
      <trkpt lat="44.93218" lon="5.74335">
        <ele>1420</ele>
        <time>2026-07-05T09:06:41.000Z</time>
      </trkpt>
      <trkpt lat="44.93217" lon="5.74335">
        <ele>1419.8000488281</ele>
        <time>2026-07-05T09:06:42.000Z</time>
      </trkpt>
      <trkpt lat="44.93216" lon="5.74333">
        <ele>1419.5999755859</ele>
        <time>2026-07-05T09:06:43.000Z</time>
      </trkpt>
      <trkpt lat="44.93216" lon="5.74331">
        <ele>1419.1999511719</ele>
        <time>2026-07-05T09:06:44.000Z</time>
      </trkpt>
      <trkpt lat="44.93215" lon="5.7433">
        <ele>1419.1999511719</ele>
        <time>2026-07-05T09:06:45.000Z</time>
      </trkpt>
      <trkpt lat="44.93214" lon="5.74329">
        <ele>1419</ele>
        <time>2026-07-05T09:06:46.000Z</time>
      </trkpt>
      <trkpt lat="44.93213" lon="5.74327">
        <ele>1419</ele>
        <time>2026-07-05T09:06:47.000Z</time>
      </trkpt>
      <trkpt lat="44.93212" lon="5.74326">
        <ele>1419.1999511719</ele>
        <time>2026-07-05T09:06:48.000Z</time>
      </trkpt>
      <trkpt lat="44.9321" lon="5.74324">
        <ele>1419.5999755859</ele>
        <time>2026-07-05T09:06:49.000Z</time>
      </trkpt>
      <trkpt lat="44.93209" lon="5.74323">
        <ele>1419.5999755859</ele>
        <time>2026-07-05T09:06:50.000Z</time>
      </trkpt>
      <trkpt lat="44.93208" lon="5.74322">
        <ele>1420</ele>
        <time>2026-07-05T09:06:51.000Z</time>
      </trkpt>
      <trkpt lat="44.93207" lon="5.74321">
        <ele>1420.4000244141</ele>
        <time>2026-07-05T09:06:52.000Z</time>
      </trkpt>
      <trkpt lat="44.93206" lon="5.7432">
        <ele>1420.8000488281</ele>
        <time>2026-07-05T09:06:53.000Z</time>
      </trkpt>
      <trkpt lat="44.93206" lon="5.74319">
        <ele>1421.1999511719</ele>
        <time>2026-07-05T09:06:54.000Z</time>
      </trkpt>
      <trkpt lat="44.93205" lon="5.74317">
        <ele>1421.5999755859</ele>
        <time>2026-07-05T09:06:55.000Z</time>
      </trkpt>
      <trkpt lat="44.93204" lon="5.74316">
        <ele>1422</ele>
        <time>2026-07-05T09:06:56.000Z</time>
      </trkpt>
      <trkpt lat="44.93203" lon="5.74315">
        <ele>1422.5999755859</ele>
        <time>2026-07-05T09:06:57.000Z</time>
      </trkpt>
      <trkpt lat="44.93202" lon="5.74314">
        <ele>1422.8000488281</ele>
        <time>2026-07-05T09:06:58.000Z</time>
      </trkpt>
      <trkpt lat="44.93202" lon="5.74313">
        <ele>1423.4000244141</ele>
        <time>2026-07-05T09:06:59.000Z</time>
      </trkpt>
      <trkpt lat="44.93201" lon="5.74312">
        <ele>1423.8000488281</ele>
        <time>2026-07-05T09:07:00.000Z</time>
      </trkpt>
      <trkpt lat="44.932" lon="5.74311">
        <ele>1424</ele>
        <time>2026-07-05T09:07:01.000Z</time>
      </trkpt>
      <trkpt lat="44.93199" lon="5.7431">
        <ele>1424.4000244141</ele>
        <time>2026-07-05T09:07:02.000Z</time>
      </trkpt>
      <trkpt lat="44.93198" lon="5.74308">
        <ele>1424.5999755859</ele>
        <time>2026-07-05T09:07:03.000Z</time>
      </trkpt>
      <trkpt lat="44.93197" lon="5.74307">
        <ele>1424.8000488281</ele>
        <time>2026-07-05T09:07:04.000Z</time>
      </trkpt>
      <trkpt lat="44.93196" lon="5.74306">
        <ele>1425</ele>
        <time>2026-07-05T09:07:05.000Z</time>
      </trkpt>
      <trkpt lat="44.93194" lon="5.74305">
        <ele>1425</ele>
        <time>2026-07-05T09:07:06.000Z</time>
      </trkpt>
      <trkpt lat="44.93193" lon="5.74305">
        <ele>1425</ele>
        <time>2026-07-05T09:07:07.000Z</time>
      </trkpt>
      <trkpt lat="44.93192" lon="5.74306">
        <ele>1425.1999511719</ele>
        <time>2026-07-05T09:07:08.000Z</time>
      </trkpt>
      <trkpt lat="44.93193" lon="5.74308">
        <ele>1425.1999511719</ele>
        <time>2026-07-05T09:07:09.000Z</time>
      </trkpt>
      <trkpt lat="44.93193" lon="5.7431">
        <ele>1425.4000244141</ele>
        <time>2026-07-05T09:07:10.000Z</time>
      </trkpt>
      <trkpt lat="44.93194" lon="5.74312">
        <ele>1425.4000244141</ele>
        <time>2026-07-05T09:07:11.000Z</time>
      </trkpt>
      <trkpt lat="44.93195" lon="5.74315">
        <ele>1425.5999755859</ele>
        <time>2026-07-05T09:07:12.000Z</time>
      </trkpt>
      <trkpt lat="44.93195" lon="5.74317">
        <ele>1425.5999755859</ele>
        <time>2026-07-05T09:07:13.000Z</time>
      </trkpt>
      <trkpt lat="44.93196" lon="5.74319">
        <ele>1425.8000488281</ele>
        <time>2026-07-05T09:07:14.000Z</time>
      </trkpt>
      <trkpt lat="44.93197" lon="5.7432">
        <ele>1426</ele>
        <time>2026-07-05T09:07:15.000Z</time>
      </trkpt>
      <trkpt lat="44.93197" lon="5.74323">
        <ele>1426.4000244141</ele>
        <time>2026-07-05T09:07:16.000Z</time>
      </trkpt>
      <trkpt lat="44.93198" lon="5.74325">
        <ele>1427</ele>
        <time>2026-07-05T09:07:17.000Z</time>
      </trkpt>
      <trkpt lat="44.93199" lon="5.74327">
        <ele>1427.8000488281</ele>
        <time>2026-07-05T09:07:18.000Z</time>
      </trkpt>
      <trkpt lat="44.93199" lon="5.74329">
        <ele>1428.4000244141</ele>
        <time>2026-07-05T09:07:19.000Z</time>
      </trkpt>
      <trkpt lat="44.932" lon="5.74332">
        <ele>1428.8000488281</ele>
        <time>2026-07-05T09:07:20.000Z</time>
      </trkpt>
      <trkpt lat="44.93201" lon="5.74334">
        <ele>1429.1999511719</ele>
        <time>2026-07-05T09:07:21.000Z</time>
      </trkpt>
      <trkpt lat="44.93202" lon="5.74336">
        <ele>1429.5999755859</ele>
        <time>2026-07-05T09:07:22.000Z</time>
      </trkpt>
      <trkpt lat="44.93202" lon="5.74339">
        <ele>1429.8000488281</ele>
        <time>2026-07-05T09:07:23.000Z</time>
      </trkpt>
      <trkpt lat="44.93203" lon="5.74341">
        <ele>1430</ele>
        <time>2026-07-05T09:07:24.000Z</time>
      </trkpt>
      <trkpt lat="44.93204" lon="5.74344">
        <ele>1430</ele>
        <time>2026-07-05T09:07:25.000Z</time>
      </trkpt>
      <trkpt lat="44.93205" lon="5.74346">
        <ele>1430</ele>
        <time>2026-07-05T09:07:26.000Z</time>
      </trkpt>
      <trkpt lat="44.93205" lon="5.74348">
        <ele>1430</ele>
        <time>2026-07-05T09:07:27.000Z</time>
      </trkpt>
      <trkpt lat="44.93206" lon="5.7435">
        <ele>1430</ele>
        <time>2026-07-05T09:07:28.000Z</time>
      </trkpt>
      <trkpt lat="44.93207" lon="5.74353">
        <ele>1429.5999755859</ele>
        <time>2026-07-05T09:07:29.000Z</time>
      </trkpt>
      <trkpt lat="44.93207" lon="5.74355">
        <ele>1429.5999755859</ele>
        <time>2026-07-05T09:07:30.000Z</time>
      </trkpt>
      <trkpt lat="44.93208" lon="5.74357">
        <ele>1429.5999755859</ele>
        <time>2026-07-05T09:07:31.000Z</time>
      </trkpt>
      <trkpt lat="44.93209" lon="5.74359">
        <ele>1429.5999755859</ele>
        <time>2026-07-05T09:07:32.000Z</time>
      </trkpt>
      <trkpt lat="44.93209" lon="5.74362">
        <ele>1429.8000488281</ele>
        <time>2026-07-05T09:07:33.000Z</time>
      </trkpt>
      <trkpt lat="44.9321" lon="5.74365">
        <ele>1430</ele>
        <time>2026-07-05T09:07:34.000Z</time>
      </trkpt>
      <trkpt lat="44.93211" lon="5.74368">
        <ele>1430.1999511719</ele>
        <time>2026-07-05T09:07:35.000Z</time>
      </trkpt>
      <trkpt lat="44.93212" lon="5.74371">
        <ele>1430.1999511719</ele>
        <time>2026-07-05T09:07:36.000Z</time>
      </trkpt>
      <trkpt lat="44.93213" lon="5.74373">
        <ele>1430.1999511719</ele>
        <time>2026-07-05T09:07:37.000Z</time>
      </trkpt>
      <trkpt lat="44.93214" lon="5.74376">
        <ele>1430.1999511719</ele>
        <time>2026-07-05T09:07:38.000Z</time>
      </trkpt>
      <trkpt lat="44.93215" lon="5.74379">
        <ele>1430.5999755859</ele>
        <time>2026-07-05T09:07:39.000Z</time>
      </trkpt>
      <trkpt lat="44.93215" lon="5.74381">
        <ele>1430.8000488281</ele>
        <time>2026-07-05T09:07:40.000Z</time>
      </trkpt>
      <trkpt lat="44.93217" lon="5.74384">
        <ele>1431.1999511719</ele>
        <time>2026-07-05T09:07:41.000Z</time>
      </trkpt>
      <trkpt lat="44.93218" lon="5.74386">
        <ele>1431.4000244141</ele>
        <time>2026-07-05T09:07:42.000Z</time>
      </trkpt>
      <trkpt lat="44.93218" lon="5.74389">
        <ele>1431.8000488281</ele>
        <time>2026-07-05T09:07:43.000Z</time>
      </trkpt>
      <trkpt lat="44.93219" lon="5.74391">
        <ele>1432.1999511719</ele>
        <time>2026-07-05T09:07:44.000Z</time>
      </trkpt>
      <trkpt lat="44.9322" lon="5.74393">
        <ele>1432.5999755859</ele>
        <time>2026-07-05T09:07:45.000Z</time>
      </trkpt>
      <trkpt lat="44.93221" lon="5.74396">
        <ele>1432.5999755859</ele>
        <time>2026-07-05T09:07:46.000Z</time>
      </trkpt>
      <trkpt lat="44.93223" lon="5.74399">
        <ele>1432.5999755859</ele>
        <time>2026-07-05T09:07:47.000Z</time>
      </trkpt>
      <trkpt lat="44.93224" lon="5.74401">
        <ele>1432.4000244141</ele>
        <time>2026-07-05T09:07:48.000Z</time>
      </trkpt>
      <trkpt lat="44.93225" lon="5.74403">
        <ele>1432.4000244141</ele>
        <time>2026-07-05T09:07:49.000Z</time>
      </trkpt>
      <trkpt lat="44.93226" lon="5.74406">
        <ele>1432.4000244141</ele>
        <time>2026-07-05T09:07:50.000Z</time>
      </trkpt>
      <trkpt lat="44.93227" lon="5.74408">
        <ele>1432.5999755859</ele>
        <time>2026-07-05T09:07:51.000Z</time>
      </trkpt>
      <trkpt lat="44.93228" lon="5.7441">
        <ele>1432.5999755859</ele>
        <time>2026-07-05T09:07:52.000Z</time>
      </trkpt>
      <trkpt lat="44.93229" lon="5.74413">
        <ele>1432.5999755859</ele>
        <time>2026-07-05T09:07:53.000Z</time>
      </trkpt>
      <trkpt lat="44.9323" lon="5.74415">
        <ele>1432.5999755859</ele>
        <time>2026-07-05T09:07:54.000Z</time>
      </trkpt>
      <trkpt lat="44.93231" lon="5.74417">
        <ele>1432.5999755859</ele>
        <time>2026-07-05T09:07:55.000Z</time>
      </trkpt>
      <trkpt lat="44.93232" lon="5.74419">
        <ele>1432.5999755859</ele>
        <time>2026-07-05T09:07:56.000Z</time>
      </trkpt>
      <trkpt lat="44.93233" lon="5.74421">
        <ele>1432.8000488281</ele>
        <time>2026-07-05T09:07:57.000Z</time>
      </trkpt>
      <trkpt lat="44.93234" lon="5.74423">
        <ele>1433</ele>
        <time>2026-07-05T09:07:58.000Z</time>
      </trkpt>
      <trkpt lat="44.93235" lon="5.74425">
        <ele>1433.1999511719</ele>
        <time>2026-07-05T09:07:59.000Z</time>
      </trkpt>
      <trkpt lat="44.93236" lon="5.74428">
        <ele>1433.1999511719</ele>
        <time>2026-07-05T09:08:00.000Z</time>
      </trkpt>
      <trkpt lat="44.93237" lon="5.7443">
        <ele>1433.1999511719</ele>
        <time>2026-07-05T09:08:01.000Z</time>
      </trkpt>
      <trkpt lat="44.93238" lon="5.74432">
        <ele>1433</ele>
        <time>2026-07-05T09:08:02.000Z</time>
      </trkpt>
      <trkpt lat="44.9324" lon="5.74435">
        <ele>1433</ele>
        <time>2026-07-05T09:08:03.000Z</time>
      </trkpt>
      <trkpt lat="44.93241" lon="5.74437">
        <ele>1432.5999755859</ele>
        <time>2026-07-05T09:08:04.000Z</time>
      </trkpt>
      <trkpt lat="44.93242" lon="5.74439">
        <ele>1432.5999755859</ele>
        <time>2026-07-05T09:08:05.000Z</time>
      </trkpt>
      <trkpt lat="44.93243" lon="5.74441">
        <ele>1433</ele>
        <time>2026-07-05T09:08:06.000Z</time>
      </trkpt>
      <trkpt lat="44.93245" lon="5.74443">
        <ele>1433.4000244141</ele>
        <time>2026-07-05T09:08:07.000Z</time>
      </trkpt>
      <trkpt lat="44.93246" lon="5.74446">
        <ele>1433.8000488281</ele>
        <time>2026-07-05T09:08:08.000Z</time>
      </trkpt>
      <trkpt lat="44.93247" lon="5.74449">
        <ele>1434.4000244141</ele>
        <time>2026-07-05T09:08:09.000Z</time>
      </trkpt>
      <trkpt lat="44.93248" lon="5.7445">
        <ele>1434.8000488281</ele>
        <time>2026-07-05T09:08:10.000Z</time>
      </trkpt>
      <trkpt lat="44.93249" lon="5.74453">
        <ele>1435.5999755859</ele>
        <time>2026-07-05T09:08:11.000Z</time>
      </trkpt>
      <trkpt lat="44.9325" lon="5.74455">
        <ele>1436.5999755859</ele>
        <time>2026-07-05T09:08:12.000Z</time>
      </trkpt>
      <trkpt lat="44.93251" lon="5.74457">
        <ele>1436.8000488281</ele>
        <time>2026-07-05T09:08:13.000Z</time>
      </trkpt>
      <trkpt lat="44.93252" lon="5.7446">
        <ele>1436.8000488281</ele>
        <time>2026-07-05T09:08:14.000Z</time>
      </trkpt>
      <trkpt lat="44.93253" lon="5.74463">
        <ele>1436.8000488281</ele>
        <time>2026-07-05T09:08:15.000Z</time>
      </trkpt>
      <trkpt lat="44.93255" lon="5.74465">
        <ele>1436.5999755859</ele>
        <time>2026-07-05T09:08:16.000Z</time>
      </trkpt>
      <trkpt lat="44.93256" lon="5.74468">
        <ele>1436.5999755859</ele>
        <time>2026-07-05T09:08:17.000Z</time>
      </trkpt>
      <trkpt lat="44.93257" lon="5.74471">
        <ele>1436</ele>
        <time>2026-07-05T09:08:18.000Z</time>
      </trkpt>
      <trkpt lat="44.93258" lon="5.74474">
        <ele>1435.4000244141</ele>
        <time>2026-07-05T09:08:19.000Z</time>
      </trkpt>
      <trkpt lat="44.93259" lon="5.74477">
        <ele>1434.8000488281</ele>
        <time>2026-07-05T09:08:20.000Z</time>
      </trkpt>
      <trkpt lat="44.93259" lon="5.7448">
        <ele>1434.4000244141</ele>
        <time>2026-07-05T09:08:21.000Z</time>
      </trkpt>
      <trkpt lat="44.9326" lon="5.74483">
        <ele>1433.4000244141</ele>
        <time>2026-07-05T09:08:22.000Z</time>
      </trkpt>
      <trkpt lat="44.93261" lon="5.74486">
        <ele>1433</ele>
        <time>2026-07-05T09:08:23.000Z</time>
      </trkpt>
      <trkpt lat="44.93261" lon="5.74489">
        <ele>1433</ele>
        <time>2026-07-05T09:08:24.000Z</time>
      </trkpt>
      <trkpt lat="44.93261" lon="5.74492">
        <ele>1432.8000488281</ele>
        <time>2026-07-05T09:08:25.000Z</time>
      </trkpt>
      <trkpt lat="44.93262" lon="5.74495">
        <ele>1432.8000488281</ele>
        <time>2026-07-05T09:08:26.000Z</time>
      </trkpt>
      <trkpt lat="44.93262" lon="5.74497">
        <ele>1433.5999755859</ele>
        <time>2026-07-05T09:08:27.000Z</time>
      </trkpt>
      <trkpt lat="44.93261" lon="5.745">
        <ele>1434.1999511719</ele>
        <time>2026-07-05T09:08:28.000Z</time>
      </trkpt>
      <trkpt lat="44.93261" lon="5.74503">
        <ele>1435</ele>
        <time>2026-07-05T09:08:29.000Z</time>
      </trkpt>
      <trkpt lat="44.93261" lon="5.74506">
        <ele>1435.5999755859</ele>
        <time>2026-07-05T09:08:30.000Z</time>
      </trkpt>
      <trkpt lat="44.93261" lon="5.74509">
        <ele>1436.4000244141</ele>
        <time>2026-07-05T09:08:31.000Z</time>
      </trkpt>
      <trkpt lat="44.93261" lon="5.74512">
        <ele>1437.1999511719</ele>
        <time>2026-07-05T09:08:32.000Z</time>
      </trkpt>
      <trkpt lat="44.9326" lon="5.74514">
        <ele>1438</ele>
        <time>2026-07-05T09:08:33.000Z</time>
      </trkpt>
      <trkpt lat="44.9326" lon="5.74517">
        <ele>1438.8000488281</ele>
        <time>2026-07-05T09:08:34.000Z</time>
      </trkpt>
      <trkpt lat="44.93259" lon="5.7452">
        <ele>1439.5999755859</ele>
        <time>2026-07-05T09:08:35.000Z</time>
      </trkpt>
      <trkpt lat="44.93258" lon="5.74522">
        <ele>1439.4000244141</ele>
        <time>2026-07-05T09:08:36.000Z</time>
      </trkpt>
      <trkpt lat="44.93258" lon="5.74525">
        <ele>1439</ele>
        <time>2026-07-05T09:08:37.000Z</time>
      </trkpt>
      <trkpt lat="44.93257" lon="5.74528">
        <ele>1439.1999511719</ele>
        <time>2026-07-05T09:08:38.000Z</time>
      </trkpt>
      <trkpt lat="44.93256" lon="5.7453">
        <ele>1439.4000244141</ele>
        <time>2026-07-05T09:08:39.000Z</time>
      </trkpt>
      <trkpt lat="44.93255" lon="5.74534">
        <ele>1440</ele>
        <time>2026-07-05T09:08:40.000Z</time>
      </trkpt>
      <trkpt lat="44.93255" lon="5.74536">
        <ele>1440.5999755859</ele>
        <time>2026-07-05T09:08:41.000Z</time>
      </trkpt>
      <trkpt lat="44.93254" lon="5.74539">
        <ele>1441.1999511719</ele>
        <time>2026-07-05T09:08:42.000Z</time>
      </trkpt>
      <trkpt lat="44.93252" lon="5.74541">
        <ele>1441.4000244141</ele>
        <time>2026-07-05T09:08:43.000Z</time>
      </trkpt>
      <trkpt lat="44.93251" lon="5.74543">
        <ele>1441.8000488281</ele>
        <time>2026-07-05T09:08:44.000Z</time>
      </trkpt>
      <trkpt lat="44.9325" lon="5.74545">
        <ele>1442</ele>
        <time>2026-07-05T09:08:45.000Z</time>
      </trkpt>
      <trkpt lat="44.9325" lon="5.74546">
        <ele>1441.5999755859</ele>
        <time>2026-07-05T09:08:46.000Z</time>
      </trkpt>
      <trkpt lat="44.9325" lon="5.74547">
        <ele>1440.4000244141</ele>
        <time>2026-07-05T09:08:47.000Z</time>
      </trkpt>
      <trkpt lat="44.9325" lon="5.74549">
        <ele>1440.1999511719</ele>
        <time>2026-07-05T09:08:48.000Z</time>
      </trkpt>
      <trkpt lat="44.93249" lon="5.74551">
        <ele>1440</ele>
        <time>2026-07-05T09:08:49.000Z</time>
      </trkpt>
      <trkpt lat="44.93249" lon="5.74554">
        <ele>1440</ele>
        <time>2026-07-05T09:08:50.000Z</time>
      </trkpt>
      <trkpt lat="44.93249" lon="5.74556">
        <ele>1439.8000488281</ele>
        <time>2026-07-05T09:08:51.000Z</time>
      </trkpt>
      <trkpt lat="44.93249" lon="5.7456">
        <ele>1439.5999755859</ele>
        <time>2026-07-05T09:08:52.000Z</time>
      </trkpt>
      <trkpt lat="44.93249" lon="5.74563">
        <ele>1440.5999755859</ele>
        <time>2026-07-05T09:08:53.000Z</time>
      </trkpt>
      <trkpt lat="44.93249" lon="5.74566">
        <ele>1440.5999755859</ele>
        <time>2026-07-05T09:08:54.000Z</time>
      </trkpt>
      <trkpt lat="44.93248" lon="5.7457">
        <ele>1440.5999755859</ele>
        <time>2026-07-05T09:08:55.000Z</time>
      </trkpt>
      <trkpt lat="44.93248" lon="5.74573">
        <ele>1440.5999755859</ele>
        <time>2026-07-05T09:08:56.000Z</time>
      </trkpt>
      <trkpt lat="44.93247" lon="5.74575">
        <ele>1440.5999755859</ele>
        <time>2026-07-05T09:08:57.000Z</time>
      </trkpt>
      <trkpt lat="44.93247" lon="5.74579">
        <ele>1440.4000244141</ele>
        <time>2026-07-05T09:08:58.000Z</time>
      </trkpt>
      <trkpt lat="44.93246" lon="5.74582">
        <ele>1440.4000244141</ele>
        <time>2026-07-05T09:08:59.000Z</time>
      </trkpt>
      <trkpt lat="44.93245" lon="5.74585">
        <ele>1440.4000244141</ele>
        <time>2026-07-05T09:09:00.000Z</time>
      </trkpt>
      <trkpt lat="44.93245" lon="5.74588">
        <ele>1440.5999755859</ele>
        <time>2026-07-05T09:09:01.000Z</time>
      </trkpt>
      <trkpt lat="44.93243" lon="5.74591">
        <ele>1440.8000488281</ele>
        <time>2026-07-05T09:09:02.000Z</time>
      </trkpt>
      <trkpt lat="44.93242" lon="5.74593">
        <ele>1440.8000488281</ele>
        <time>2026-07-05T09:09:03.000Z</time>
      </trkpt>
      <trkpt lat="44.9324" lon="5.74596">
        <ele>1440.1999511719</ele>
        <time>2026-07-05T09:09:04.000Z</time>
      </trkpt>
      <trkpt lat="44.93239" lon="5.74598">
        <ele>1440.1999511719</ele>
        <time>2026-07-05T09:09:05.000Z</time>
      </trkpt>
      <trkpt lat="44.93237" lon="5.746">
        <ele>1440</ele>
        <time>2026-07-05T09:09:06.000Z</time>
      </trkpt>
      <trkpt lat="44.93235" lon="5.74602">
        <ele>1439.8000488281</ele>
        <time>2026-07-05T09:09:07.000Z</time>
      </trkpt>
      <trkpt lat="44.93233" lon="5.74604">
        <ele>1439.1999511719</ele>
        <time>2026-07-05T09:09:08.000Z</time>
      </trkpt>
      <trkpt lat="44.9323" lon="5.74606">
        <ele>1438.5999755859</ele>
        <time>2026-07-05T09:09:09.000Z</time>
      </trkpt>
      <trkpt lat="44.93227" lon="5.74607">
        <ele>1438</ele>
        <time>2026-07-05T09:09:10.000Z</time>
      </trkpt>
      <trkpt lat="44.93224" lon="5.74608">
        <ele>1437</ele>
        <time>2026-07-05T09:09:11.000Z</time>
      </trkpt>
      <trkpt lat="44.93222" lon="5.74609">
        <ele>1436</ele>
        <time>2026-07-05T09:09:12.000Z</time>
      </trkpt>
      <trkpt lat="44.93218" lon="5.74609">
        <ele>1434.4000244141</ele>
        <time>2026-07-05T09:09:13.000Z</time>
      </trkpt>
      <trkpt lat="44.93215" lon="5.7461">
        <ele>1432.4000244141</ele>
        <time>2026-07-05T09:09:14.000Z</time>
      </trkpt>
      <trkpt lat="44.93212" lon="5.74611">
        <ele>1431.4000244141</ele>
        <time>2026-07-05T09:09:15.000Z</time>
      </trkpt>
      <trkpt lat="44.93209" lon="5.74612">
        <ele>1431.4000244141</ele>
        <time>2026-07-05T09:09:16.000Z</time>
      </trkpt>
      <trkpt lat="44.93206" lon="5.74612">
        <ele>1431</ele>
        <time>2026-07-05T09:09:17.000Z</time>
      </trkpt>
      <trkpt lat="44.93203" lon="5.74612">
        <ele>1430.5999755859</ele>
        <time>2026-07-05T09:09:18.000Z</time>
      </trkpt>
      <trkpt lat="44.93201" lon="5.74612">
        <ele>1429.8000488281</ele>
        <time>2026-07-05T09:09:19.000Z</time>
      </trkpt>
      <trkpt lat="44.93198" lon="5.74613">
        <ele>1428.5999755859</ele>
        <time>2026-07-05T09:09:20.000Z</time>
      </trkpt>
      <trkpt lat="44.93195" lon="5.74613">
        <ele>1427.4000244141</ele>
        <time>2026-07-05T09:09:21.000Z</time>
      </trkpt>
      <trkpt lat="44.93192" lon="5.74613">
        <ele>1426.8000488281</ele>
        <time>2026-07-05T09:09:22.000Z</time>
      </trkpt>
      <trkpt lat="44.9319" lon="5.74613">
        <ele>1425.8000488281</ele>
        <time>2026-07-05T09:09:23.000Z</time>
      </trkpt>
      <trkpt lat="44.93187" lon="5.74614">
        <ele>1425</ele>
        <time>2026-07-05T09:09:24.000Z</time>
      </trkpt>
      <trkpt lat="44.93185" lon="5.74614">
        <ele>1424.5999755859</ele>
        <time>2026-07-05T09:09:25.000Z</time>
      </trkpt>
      <trkpt lat="44.93183" lon="5.74615">
        <ele>1424.1999511719</ele>
        <time>2026-07-05T09:09:26.000Z</time>
      </trkpt>
      <trkpt lat="44.9318" lon="5.74616">
        <ele>1424.1999511719</ele>
        <time>2026-07-05T09:09:27.000Z</time>
      </trkpt>
      <trkpt lat="44.93177" lon="5.74617">
        <ele>1424.1999511719</ele>
        <time>2026-07-05T09:09:28.000Z</time>
      </trkpt>
      <trkpt lat="44.93175" lon="5.74617">
        <ele>1424.1999511719</ele>
        <time>2026-07-05T09:09:29.000Z</time>
      </trkpt>
      <trkpt lat="44.93172" lon="5.74619">
        <ele>1424.1999511719</ele>
        <time>2026-07-05T09:09:30.000Z</time>
      </trkpt>
      <trkpt lat="44.9317" lon="5.74619">
        <ele>1424.1999511719</ele>
        <time>2026-07-05T09:09:31.000Z</time>
      </trkpt>
      <trkpt lat="44.93168" lon="5.7462">
        <ele>1424.1999511719</ele>
        <time>2026-07-05T09:09:32.000Z</time>
      </trkpt>
      <trkpt lat="44.93166" lon="5.74621">
        <ele>1424.1999511719</ele>
        <time>2026-07-05T09:09:33.000Z</time>
      </trkpt>
      <trkpt lat="44.93165" lon="5.74623">
        <ele>1424.1999511719</ele>
        <time>2026-07-05T09:09:34.000Z</time>
      </trkpt>
      <trkpt lat="44.93163" lon="5.74626">
        <ele>1424.1999511719</ele>
        <time>2026-07-05T09:09:35.000Z</time>
      </trkpt>
      <trkpt lat="44.93162" lon="5.74629">
        <ele>1424</ele>
        <time>2026-07-05T09:09:36.000Z</time>
      </trkpt>
      <trkpt lat="44.93161" lon="5.74633">
        <ele>1424</ele>
        <time>2026-07-05T09:09:37.000Z</time>
      </trkpt>
      <trkpt lat="44.9316" lon="5.74636">
        <ele>1423.8000488281</ele>
        <time>2026-07-05T09:09:38.000Z</time>
      </trkpt>
      <trkpt lat="44.93159" lon="5.74639">
        <ele>1423.5999755859</ele>
        <time>2026-07-05T09:09:39.000Z</time>
      </trkpt>
      <trkpt lat="44.93158" lon="5.74642">
        <ele>1423.5999755859</ele>
        <time>2026-07-05T09:09:40.000Z</time>
      </trkpt>
      <trkpt lat="44.93157" lon="5.74645">
        <ele>1423.5999755859</ele>
        <time>2026-07-05T09:09:41.000Z</time>
      </trkpt>
      <trkpt lat="44.93157" lon="5.74648">
        <ele>1423.5999755859</ele>
        <time>2026-07-05T09:09:42.000Z</time>
      </trkpt>
      <trkpt lat="44.93156" lon="5.74651">
        <ele>1423.8000488281</ele>
        <time>2026-07-05T09:09:43.000Z</time>
      </trkpt>
      <trkpt lat="44.93155" lon="5.74654">
        <ele>1423.8000488281</ele>
        <time>2026-07-05T09:09:44.000Z</time>
      </trkpt>
      <trkpt lat="44.93154" lon="5.74657">
        <ele>1423.8000488281</ele>
        <time>2026-07-05T09:09:45.000Z</time>
      </trkpt>
      <trkpt lat="44.93154" lon="5.7466">
        <ele>1423.8000488281</ele>
        <time>2026-07-05T09:09:46.000Z</time>
      </trkpt>
      <trkpt lat="44.93153" lon="5.74664">
        <ele>1424</ele>
        <time>2026-07-05T09:09:47.000Z</time>
      </trkpt>
      <trkpt lat="44.93152" lon="5.74667">
        <ele>1424</ele>
        <time>2026-07-05T09:09:48.000Z</time>
      </trkpt>
      <trkpt lat="44.93152" lon="5.7467">
        <ele>1423.8000488281</ele>
        <time>2026-07-05T09:09:49.000Z</time>
      </trkpt>
      <trkpt lat="44.93151" lon="5.74674">
        <ele>1423.8000488281</ele>
        <time>2026-07-05T09:09:50.000Z</time>
      </trkpt>
      <trkpt lat="44.93151" lon="5.74677">
        <ele>1423.5999755859</ele>
        <time>2026-07-05T09:09:51.000Z</time>
      </trkpt>
      <trkpt lat="44.9315" lon="5.74681">
        <ele>1423.5999755859</ele>
        <time>2026-07-05T09:09:52.000Z</time>
      </trkpt>
      <trkpt lat="44.93149" lon="5.74685">
        <ele>1423.5999755859</ele>
        <time>2026-07-05T09:09:53.000Z</time>
      </trkpt>
      <trkpt lat="44.93149" lon="5.74688">
        <ele>1423.5999755859</ele>
        <time>2026-07-05T09:09:54.000Z</time>
      </trkpt>
      <trkpt lat="44.93148" lon="5.74691">
        <ele>1423.5999755859</ele>
        <time>2026-07-05T09:09:55.000Z</time>
      </trkpt>
      <trkpt lat="44.93148" lon="5.74694">
        <ele>1423.8000488281</ele>
        <time>2026-07-05T09:09:56.000Z</time>
      </trkpt>
      <trkpt lat="44.93148" lon="5.74698">
        <ele>1423.8000488281</ele>
        <time>2026-07-05T09:09:57.000Z</time>
      </trkpt>
      <trkpt lat="44.93147" lon="5.74702">
        <ele>1423.5999755859</ele>
        <time>2026-07-05T09:09:58.000Z</time>
      </trkpt>
      <trkpt lat="44.93147" lon="5.74706">
        <ele>1423.5999755859</ele>
        <time>2026-07-05T09:09:59.000Z</time>
      </trkpt>
      <trkpt lat="44.93146" lon="5.7471">
        <ele>1423.4000244141</ele>
        <time>2026-07-05T09:10:00.000Z</time>
      </trkpt>
      <trkpt lat="44.93146" lon="5.74713">
        <ele>1423.4000244141</ele>
        <time>2026-07-05T09:10:01.000Z</time>
      </trkpt>
      <trkpt lat="44.93145" lon="5.74717">
        <ele>1423.4000244141</ele>
        <time>2026-07-05T09:10:02.000Z</time>
      </trkpt>
      <trkpt lat="44.93145" lon="5.7472">
        <ele>1423.4000244141</ele>
        <time>2026-07-05T09:10:03.000Z</time>
      </trkpt>
      <trkpt lat="44.93145" lon="5.74724">
        <ele>1423.4000244141</ele>
        <time>2026-07-05T09:10:04.000Z</time>
      </trkpt>
      <trkpt lat="44.93144" lon="5.74728">
        <ele>1423.4000244141</ele>
        <time>2026-07-05T09:10:05.000Z</time>
      </trkpt>
      <trkpt lat="44.93144" lon="5.74732">
        <ele>1423.4000244141</ele>
        <time>2026-07-05T09:10:06.000Z</time>
      </trkpt>
      <trkpt lat="44.93143" lon="5.74736">
        <ele>1423.4000244141</ele>
        <time>2026-07-05T09:10:07.000Z</time>
      </trkpt>
      <trkpt lat="44.93143" lon="5.74739">
        <ele>1423.4000244141</ele>
        <time>2026-07-05T09:10:08.000Z</time>
      </trkpt>
      <trkpt lat="44.93142" lon="5.74743">
        <ele>1423.1999511719</ele>
        <time>2026-07-05T09:10:09.000Z</time>
      </trkpt>
      <trkpt lat="44.93142" lon="5.74747">
        <ele>1423</ele>
        <time>2026-07-05T09:10:10.000Z</time>
      </trkpt>
      <trkpt lat="44.93141" lon="5.7475">
        <ele>1422.5999755859</ele>
        <time>2026-07-05T09:10:11.000Z</time>
      </trkpt>
      <trkpt lat="44.93141" lon="5.74754">
        <ele>1422.5999755859</ele>
        <time>2026-07-05T09:10:12.000Z</time>
      </trkpt>
      <trkpt lat="44.93141" lon="5.74758">
        <ele>1422</ele>
        <time>2026-07-05T09:10:13.000Z</time>
      </trkpt>
      <trkpt lat="44.9314" lon="5.74762">
        <ele>1421.8000488281</ele>
        <time>2026-07-05T09:10:14.000Z</time>
      </trkpt>
      <trkpt lat="44.93139" lon="5.74765">
        <ele>1421.4000244141</ele>
        <time>2026-07-05T09:10:15.000Z</time>
      </trkpt>
      <trkpt lat="44.93138" lon="5.7477">
        <ele>1420.8000488281</ele>
        <time>2026-07-05T09:10:16.000Z</time>
      </trkpt>
      <trkpt lat="44.93138" lon="5.74774">
        <ele>1420.1999511719</ele>
        <time>2026-07-05T09:10:17.000Z</time>
      </trkpt>
      <trkpt lat="44.93137" lon="5.74778">
        <ele>1419.5999755859</ele>
        <time>2026-07-05T09:10:18.000Z</time>
      </trkpt>
      <trkpt lat="44.93136" lon="5.74782">
        <ele>1419.4000244141</ele>
        <time>2026-07-05T09:10:19.000Z</time>
      </trkpt>
      <trkpt lat="44.93135" lon="5.74785">
        <ele>1419.1999511719</ele>
        <time>2026-07-05T09:10:20.000Z</time>
      </trkpt>
      <trkpt lat="44.93134" lon="5.74789">
        <ele>1418.8000488281</ele>
        <time>2026-07-05T09:10:21.000Z</time>
      </trkpt>
      <trkpt lat="44.93133" lon="5.74793">
        <ele>1418.4000244141</ele>
        <time>2026-07-05T09:10:22.000Z</time>
      </trkpt>
      <trkpt lat="44.93132" lon="5.74796">
        <ele>1418.1999511719</ele>
        <time>2026-07-05T09:10:23.000Z</time>
      </trkpt>
      <trkpt lat="44.93132" lon="5.74799">
        <ele>1418</ele>
        <time>2026-07-05T09:10:24.000Z</time>
      </trkpt>
      <trkpt lat="44.93131" lon="5.74803">
        <ele>1417.8000488281</ele>
        <time>2026-07-05T09:10:25.000Z</time>
      </trkpt>
      <trkpt lat="44.9313" lon="5.74806">
        <ele>1417.4000244141</ele>
        <time>2026-07-05T09:10:26.000Z</time>
      </trkpt>
      <trkpt lat="44.93129" lon="5.74809">
        <ele>1417.1999511719</ele>
        <time>2026-07-05T09:10:27.000Z</time>
      </trkpt>
      <trkpt lat="44.93127" lon="5.74813">
        <ele>1417</ele>
        <time>2026-07-05T09:10:28.000Z</time>
      </trkpt>
      <trkpt lat="44.93125" lon="5.74817">
        <ele>1417</ele>
        <time>2026-07-05T09:10:29.000Z</time>
      </trkpt>
      <trkpt lat="44.93123" lon="5.74822">
        <ele>1416.8000488281</ele>
        <time>2026-07-05T09:10:30.000Z</time>
      </trkpt>
      <trkpt lat="44.93121" lon="5.74826">
        <ele>1416.8000488281</ele>
        <time>2026-07-05T09:10:31.000Z</time>
      </trkpt>
      <trkpt lat="44.9312" lon="5.74829">
        <ele>1416.8000488281</ele>
        <time>2026-07-05T09:10:32.000Z</time>
      </trkpt>
      <trkpt lat="44.93118" lon="5.74833">
        <ele>1417</ele>
        <time>2026-07-05T09:10:33.000Z</time>
      </trkpt>
      <trkpt lat="44.93116" lon="5.74836">
        <ele>1417.1999511719</ele>
        <time>2026-07-05T09:10:34.000Z</time>
      </trkpt>
      <trkpt lat="44.93115" lon="5.7484">
        <ele>1417.1999511719</ele>
        <time>2026-07-05T09:10:35.000Z</time>
      </trkpt>
      <trkpt lat="44.93114" lon="5.74843">
        <ele>1417.1999511719</ele>
        <time>2026-07-05T09:10:36.000Z</time>
      </trkpt>
      <trkpt lat="44.93114" lon="5.74846">
        <ele>1417.1999511719</ele>
        <time>2026-07-05T09:10:37.000Z</time>
      </trkpt>
      <trkpt lat="44.93112" lon="5.74848">
        <ele>1417</ele>
        <time>2026-07-05T09:10:38.000Z</time>
      </trkpt>
      <trkpt lat="44.93111" lon="5.74849">
        <ele>1417</ele>
        <time>2026-07-05T09:10:39.000Z</time>
      </trkpt>
      <trkpt lat="44.93111" lon="5.74852">
        <ele>1417</ele>
        <time>2026-07-05T09:10:40.000Z</time>
      </trkpt>
      <trkpt lat="44.9311" lon="5.74855">
        <ele>1417</ele>
        <time>2026-07-05T09:10:41.000Z</time>
      </trkpt>
      <trkpt lat="44.9311" lon="5.74858">
        <ele>1416.8000488281</ele>
        <time>2026-07-05T09:10:42.000Z</time>
      </trkpt>
      <trkpt lat="44.9311" lon="5.74861">
        <ele>1416.5999755859</ele>
        <time>2026-07-05T09:10:43.000Z</time>
      </trkpt>
      <trkpt lat="44.9311" lon="5.74865">
        <ele>1416.5999755859</ele>
        <time>2026-07-05T09:10:44.000Z</time>
      </trkpt>
      <trkpt lat="44.9311" lon="5.74869">
        <ele>1416.5999755859</ele>
        <time>2026-07-05T09:10:45.000Z</time>
      </trkpt>
      <trkpt lat="44.93109" lon="5.74873">
        <ele>1416.4000244141</ele>
        <time>2026-07-05T09:10:46.000Z</time>
      </trkpt>
      <trkpt lat="44.93109" lon="5.74876">
        <ele>1416.1999511719</ele>
        <time>2026-07-05T09:10:47.000Z</time>
      </trkpt>
      <trkpt lat="44.93109" lon="5.7488">
        <ele>1416.1999511719</ele>
        <time>2026-07-05T09:10:48.000Z</time>
      </trkpt>
      <trkpt lat="44.93108" lon="5.74883">
        <ele>1416.1999511719</ele>
        <time>2026-07-05T09:10:49.000Z</time>
      </trkpt>
      <trkpt lat="44.93106" lon="5.74885">
        <ele>1416.1999511719</ele>
        <time>2026-07-05T09:10:50.000Z</time>
      </trkpt>
      <trkpt lat="44.93104" lon="5.74887">
        <ele>1416.1999511719</ele>
        <time>2026-07-05T09:10:51.000Z</time>
      </trkpt>
      <trkpt lat="44.93101" lon="5.74889">
        <ele>1416.1999511719</ele>
        <time>2026-07-05T09:10:52.000Z</time>
      </trkpt>
      <trkpt lat="44.93098" lon="5.74892">
        <ele>1416.1999511719</ele>
        <time>2026-07-05T09:10:53.000Z</time>
      </trkpt>
      <trkpt lat="44.93095" lon="5.74895">
        <ele>1415.8000488281</ele>
        <time>2026-07-05T09:10:54.000Z</time>
      </trkpt>
      <trkpt lat="44.93093" lon="5.74898">
        <ele>1415.4000244141</ele>
        <time>2026-07-05T09:10:55.000Z</time>
      </trkpt>
      <trkpt lat="44.9309" lon="5.74901">
        <ele>1414.5999755859</ele>
        <time>2026-07-05T09:10:56.000Z</time>
      </trkpt>
      <trkpt lat="44.93089" lon="5.74903">
        <ele>1414.1999511719</ele>
        <time>2026-07-05T09:10:57.000Z</time>
      </trkpt>
      <trkpt lat="44.93087" lon="5.74906">
        <ele>1413.1999511719</ele>
        <time>2026-07-05T09:10:58.000Z</time>
      </trkpt>
      <trkpt lat="44.93085" lon="5.74909">
        <ele>1412.8000488281</ele>
        <time>2026-07-05T09:10:59.000Z</time>
      </trkpt>
      <trkpt lat="44.93083" lon="5.74911">
        <ele>1412</ele>
        <time>2026-07-05T09:11:00.000Z</time>
      </trkpt>
      <trkpt lat="44.93082" lon="5.74914">
        <ele>1411.8000488281</ele>
        <time>2026-07-05T09:11:01.000Z</time>
      </trkpt>
      <trkpt lat="44.93081" lon="5.74917">
        <ele>1411.5999755859</ele>
        <time>2026-07-05T09:11:02.000Z</time>
      </trkpt>
      <trkpt lat="44.93079" lon="5.7492">
        <ele>1411.4000244141</ele>
        <time>2026-07-05T09:11:03.000Z</time>
      </trkpt>
      <trkpt lat="44.93078" lon="5.74924">
        <ele>1411</ele>
        <time>2026-07-05T09:11:04.000Z</time>
      </trkpt>
      <trkpt lat="44.93076" lon="5.74927">
        <ele>1410.4000244141</ele>
        <time>2026-07-05T09:11:05.000Z</time>
      </trkpt>
      <trkpt lat="44.93075" lon="5.7493">
        <ele>1410</ele>
        <time>2026-07-05T09:11:06.000Z</time>
      </trkpt>
      <trkpt lat="44.93075" lon="5.74933">
        <ele>1409</ele>
        <time>2026-07-05T09:11:07.000Z</time>
      </trkpt>
      <trkpt lat="44.93075" lon="5.74936">
        <ele>1408.8000488281</ele>
        <time>2026-07-05T09:11:08.000Z</time>
      </trkpt>
      <trkpt lat="44.93074" lon="5.7494">
        <ele>1407.8000488281</ele>
        <time>2026-07-05T09:11:09.000Z</time>
      </trkpt>
      <trkpt lat="44.93074" lon="5.74943">
        <ele>1407.4000244141</ele>
        <time>2026-07-05T09:11:10.000Z</time>
      </trkpt>
      <trkpt lat="44.93074" lon="5.74947">
        <ele>1407</ele>
        <time>2026-07-05T09:11:11.000Z</time>
      </trkpt>
      <trkpt lat="44.93073" lon="5.74951">
        <ele>1406.8000488281</ele>
        <time>2026-07-05T09:11:12.000Z</time>
      </trkpt>
      <trkpt lat="44.93073" lon="5.74955">
        <ele>1406.4000244141</ele>
        <time>2026-07-05T09:11:13.000Z</time>
      </trkpt>
      <trkpt lat="44.93074" lon="5.74959">
        <ele>1406</ele>
        <time>2026-07-05T09:11:14.000Z</time>
      </trkpt>
      <trkpt lat="44.93075" lon="5.74962">
        <ele>1405.4000244141</ele>
        <time>2026-07-05T09:11:15.000Z</time>
      </trkpt>
      <trkpt lat="44.93077" lon="5.74965">
        <ele>1405</ele>
        <time>2026-07-05T09:11:16.000Z</time>
      </trkpt>
      <trkpt lat="44.93078" lon="5.74969">
        <ele>1404.8000488281</ele>
        <time>2026-07-05T09:11:17.000Z</time>
      </trkpt>
      <trkpt lat="44.93079" lon="5.74972">
        <ele>1404.4000244141</ele>
        <time>2026-07-05T09:11:18.000Z</time>
      </trkpt>
      <trkpt lat="44.93081" lon="5.74975">
        <ele>1404.8000488281</ele>
        <time>2026-07-05T09:11:19.000Z</time>
      </trkpt>
      <trkpt lat="44.93082" lon="5.74977">
        <ele>1405.1999511719</ele>
        <time>2026-07-05T09:11:20.000Z</time>
      </trkpt>
      <trkpt lat="44.93083" lon="5.7498">
        <ele>1405.4000244141</ele>
        <time>2026-07-05T09:11:21.000Z</time>
      </trkpt>
      <trkpt lat="44.93085" lon="5.74982">
        <ele>1405.5999755859</ele>
        <time>2026-07-05T09:11:22.000Z</time>
      </trkpt>
      <trkpt lat="44.93086" lon="5.74984">
        <ele>1406</ele>
        <time>2026-07-05T09:11:23.000Z</time>
      </trkpt>
      <trkpt lat="44.93087" lon="5.74986">
        <ele>1406.1999511719</ele>
        <time>2026-07-05T09:11:24.000Z</time>
      </trkpt>
      <trkpt lat="44.93088" lon="5.74989">
        <ele>1406.8000488281</ele>
        <time>2026-07-05T09:11:25.000Z</time>
      </trkpt>
      <trkpt lat="44.9309" lon="5.74991">
        <ele>1407</ele>
        <time>2026-07-05T09:11:26.000Z</time>
      </trkpt>
      <trkpt lat="44.93091" lon="5.74994">
        <ele>1407.1999511719</ele>
        <time>2026-07-05T09:11:27.000Z</time>
      </trkpt>
      <trkpt lat="44.93092" lon="5.74996">
        <ele>1407.4000244141</ele>
        <time>2026-07-05T09:11:28.000Z</time>
      </trkpt>
      <trkpt lat="44.93094" lon="5.74998">
        <ele>1407.4000244141</ele>
        <time>2026-07-05T09:11:29.000Z</time>
      </trkpt>
      <trkpt lat="44.93095" lon="5.75001">
        <ele>1407.8000488281</ele>
        <time>2026-07-05T09:11:30.000Z</time>
      </trkpt>
      <trkpt lat="44.93097" lon="5.75004">
        <ele>1408</ele>
        <time>2026-07-05T09:11:31.000Z</time>
      </trkpt>
      <trkpt lat="44.93099" lon="5.75006">
        <ele>1408</ele>
        <time>2026-07-05T09:11:32.000Z</time>
      </trkpt>
      <trkpt lat="44.93101" lon="5.75007">
        <ele>1408</ele>
        <time>2026-07-05T09:11:33.000Z</time>
      </trkpt>
      <trkpt lat="44.93103" lon="5.7501">
        <ele>1408</ele>
        <time>2026-07-05T09:11:34.000Z</time>
      </trkpt>
      <trkpt lat="44.93105" lon="5.75012">
        <ele>1408.1999511719</ele>
        <time>2026-07-05T09:11:35.000Z</time>
      </trkpt>
      <trkpt lat="44.93107" lon="5.75013">
        <ele>1408.1999511719</ele>
        <time>2026-07-05T09:11:36.000Z</time>
      </trkpt>
      <trkpt lat="44.9311" lon="5.75015">
        <ele>1408.1999511719</ele>
        <time>2026-07-05T09:11:37.000Z</time>
      </trkpt>
      <trkpt lat="44.93111" lon="5.75016">
        <ele>1408.1999511719</ele>
        <time>2026-07-05T09:11:38.000Z</time>
      </trkpt>
      <trkpt lat="44.93114" lon="5.75018">
        <ele>1408.1999511719</ele>
        <time>2026-07-05T09:11:39.000Z</time>
      </trkpt>
      <trkpt lat="44.93116" lon="5.75019">
        <ele>1408</ele>
        <time>2026-07-05T09:11:40.000Z</time>
      </trkpt>
      <trkpt lat="44.93118" lon="5.75021">
        <ele>1407.5999755859</ele>
        <time>2026-07-05T09:11:41.000Z</time>
      </trkpt>
      <trkpt lat="44.93119" lon="5.75024">
        <ele>1407.1999511719</ele>
        <time>2026-07-05T09:11:42.000Z</time>
      </trkpt>
      <trkpt lat="44.93121" lon="5.75026">
        <ele>1406.8000488281</ele>
        <time>2026-07-05T09:11:43.000Z</time>
      </trkpt>
      <trkpt lat="44.93123" lon="5.75028">
        <ele>1406.8000488281</ele>
        <time>2026-07-05T09:11:44.000Z</time>
      </trkpt>
      <trkpt lat="44.93125" lon="5.7503">
        <ele>1406.8000488281</ele>
        <time>2026-07-05T09:11:45.000Z</time>
      </trkpt>
      <trkpt lat="44.93126" lon="5.75031">
        <ele>1407</ele>
        <time>2026-07-05T09:11:46.000Z</time>
      </trkpt>
      <trkpt lat="44.93128" lon="5.75033">
        <ele>1407.4000244141</ele>
        <time>2026-07-05T09:11:47.000Z</time>
      </trkpt>
      <trkpt lat="44.9313" lon="5.75036">
        <ele>1407.5999755859</ele>
        <time>2026-07-05T09:11:48.000Z</time>
      </trkpt>
      <trkpt lat="44.93131" lon="5.75038">
        <ele>1407.8000488281</ele>
        <time>2026-07-05T09:11:49.000Z</time>
      </trkpt>
      <trkpt lat="44.93133" lon="5.75041">
        <ele>1407.8000488281</ele>
        <time>2026-07-05T09:11:50.000Z</time>
      </trkpt>
      <trkpt lat="44.93134" lon="5.75044">
        <ele>1407.5999755859</ele>
        <time>2026-07-05T09:11:51.000Z</time>
      </trkpt>
      <trkpt lat="44.93136" lon="5.75046">
        <ele>1407.5999755859</ele>
        <time>2026-07-05T09:11:52.000Z</time>
      </trkpt>
      <trkpt lat="44.93137" lon="5.75048">
        <ele>1407.4000244141</ele>
        <time>2026-07-05T09:11:53.000Z</time>
      </trkpt>
      <trkpt lat="44.93139" lon="5.75051">
        <ele>1407.1999511719</ele>
        <time>2026-07-05T09:11:54.000Z</time>
      </trkpt>
      <trkpt lat="44.9314" lon="5.75053">
        <ele>1407</ele>
        <time>2026-07-05T09:11:55.000Z</time>
      </trkpt>
      <trkpt lat="44.93141" lon="5.75056">
        <ele>1406.8000488281</ele>
        <time>2026-07-05T09:11:56.000Z</time>
      </trkpt>
      <trkpt lat="44.93142" lon="5.75059">
        <ele>1406.4000244141</ele>
        <time>2026-07-05T09:11:57.000Z</time>
      </trkpt>
      <trkpt lat="44.93143" lon="5.75062">
        <ele>1406</ele>
        <time>2026-07-05T09:11:58.000Z</time>
      </trkpt>
      <trkpt lat="44.93144" lon="5.75065">
        <ele>1405.5999755859</ele>
        <time>2026-07-05T09:11:59.000Z</time>
      </trkpt>
      <trkpt lat="44.93145" lon="5.75068">
        <ele>1405.1999511719</ele>
        <time>2026-07-05T09:12:00.000Z</time>
      </trkpt>
      <trkpt lat="44.93146" lon="5.75072">
        <ele>1404.5999755859</ele>
        <time>2026-07-05T09:12:01.000Z</time>
      </trkpt>
      <trkpt lat="44.93147" lon="5.75076">
        <ele>1403.8000488281</ele>
        <time>2026-07-05T09:12:02.000Z</time>
      </trkpt>
      <trkpt lat="44.93147" lon="5.75079">
        <ele>1403.1999511719</ele>
        <time>2026-07-05T09:12:03.000Z</time>
      </trkpt>
      <trkpt lat="44.93148" lon="5.75083">
        <ele>1402.5999755859</ele>
        <time>2026-07-05T09:12:04.000Z</time>
      </trkpt>
      <trkpt lat="44.93148" lon="5.75086">
        <ele>1402.1999511719</ele>
        <time>2026-07-05T09:12:05.000Z</time>
      </trkpt>
      <trkpt lat="44.93148" lon="5.7509">
        <ele>1401.8000488281</ele>
        <time>2026-07-05T09:12:06.000Z</time>
      </trkpt>
      <trkpt lat="44.93147" lon="5.75093">
        <ele>1400.8000488281</ele>
        <time>2026-07-05T09:12:07.000Z</time>
      </trkpt>
      <trkpt lat="44.93147" lon="5.75096">
        <ele>1400.5999755859</ele>
        <time>2026-07-05T09:12:08.000Z</time>
      </trkpt>
      <trkpt lat="44.93146" lon="5.751">
        <ele>1400.1999511719</ele>
        <time>2026-07-05T09:12:09.000Z</time>
      </trkpt>
      <trkpt lat="44.93146" lon="5.75104">
        <ele>1400</ele>
        <time>2026-07-05T09:12:10.000Z</time>
      </trkpt>
      <trkpt lat="44.93146" lon="5.75108">
        <ele>1399.5999755859</ele>
        <time>2026-07-05T09:12:11.000Z</time>
      </trkpt>
      <trkpt lat="44.93145" lon="5.75112">
        <ele>1399.4000244141</ele>
        <time>2026-07-05T09:12:12.000Z</time>
      </trkpt>
      <trkpt lat="44.93145" lon="5.75115">
        <ele>1399</ele>
        <time>2026-07-05T09:12:13.000Z</time>
      </trkpt>
      <trkpt lat="44.93144" lon="5.75119">
        <ele>1398.8000488281</ele>
        <time>2026-07-05T09:12:14.000Z</time>
      </trkpt>
      <trkpt lat="44.93144" lon="5.75122">
        <ele>1398.5999755859</ele>
        <time>2026-07-05T09:12:15.000Z</time>
      </trkpt>
      <trkpt lat="44.93143" lon="5.75126">
        <ele>1398.5999755859</ele>
        <time>2026-07-05T09:12:16.000Z</time>
      </trkpt>
      <trkpt lat="44.93143" lon="5.75129">
        <ele>1398.4000244141</ele>
        <time>2026-07-05T09:12:17.000Z</time>
      </trkpt>
      <trkpt lat="44.93142" lon="5.75133">
        <ele>1398.4000244141</ele>
        <time>2026-07-05T09:12:18.000Z</time>
      </trkpt>
      <trkpt lat="44.93142" lon="5.75136">
        <ele>1398.4000244141</ele>
        <time>2026-07-05T09:12:19.000Z</time>
      </trkpt>
      <trkpt lat="44.93141" lon="5.75139">
        <ele>1398.1999511719</ele>
        <time>2026-07-05T09:12:20.000Z</time>
      </trkpt>
      <trkpt lat="44.93142" lon="5.75142">
        <ele>1398.1999511719</ele>
        <time>2026-07-05T09:12:21.000Z</time>
      </trkpt>
      <trkpt lat="44.93142" lon="5.75145">
        <ele>1398</ele>
        <time>2026-07-05T09:12:22.000Z</time>
      </trkpt>
      <trkpt lat="44.93142" lon="5.75149">
        <ele>1398</ele>
        <time>2026-07-05T09:12:23.000Z</time>
      </trkpt>
      <trkpt lat="44.93142" lon="5.75152">
        <ele>1397.8000488281</ele>
        <time>2026-07-05T09:12:24.000Z</time>
      </trkpt>
      <trkpt lat="44.93142" lon="5.75156">
        <ele>1397.5999755859</ele>
        <time>2026-07-05T09:12:25.000Z</time>
      </trkpt>
      <trkpt lat="44.93143" lon="5.75159">
        <ele>1397.5999755859</ele>
        <time>2026-07-05T09:12:26.000Z</time>
      </trkpt>
      <trkpt lat="44.93143" lon="5.75161">
        <ele>1397.8000488281</ele>
        <time>2026-07-05T09:12:27.000Z</time>
      </trkpt>
      <trkpt lat="44.93144" lon="5.75164">
        <ele>1397.8000488281</ele>
        <time>2026-07-05T09:12:28.000Z</time>
      </trkpt>
      <trkpt lat="44.93144" lon="5.75166">
        <ele>1398.4000244141</ele>
        <time>2026-07-05T09:12:29.000Z</time>
      </trkpt>
      <trkpt lat="44.93144" lon="5.75169">
        <ele>1398.8000488281</ele>
        <time>2026-07-05T09:12:30.000Z</time>
      </trkpt>
      <trkpt lat="44.93145" lon="5.75171">
        <ele>1399.1999511719</ele>
        <time>2026-07-05T09:12:31.000Z</time>
      </trkpt>
      <trkpt lat="44.93145" lon="5.75173">
        <ele>1399.5999755859</ele>
        <time>2026-07-05T09:12:32.000Z</time>
      </trkpt>
      <trkpt lat="44.93145" lon="5.75175">
        <ele>1400</ele>
        <time>2026-07-05T09:12:33.000Z</time>
      </trkpt>
      <trkpt lat="44.93145" lon="5.75178">
        <ele>1400.1999511719</ele>
        <time>2026-07-05T09:12:34.000Z</time>
      </trkpt>
      <trkpt lat="44.93145" lon="5.7518">
        <ele>1400.5999755859</ele>
        <time>2026-07-05T09:12:35.000Z</time>
      </trkpt>
      <trkpt lat="44.93146" lon="5.75181">
        <ele>1401</ele>
        <time>2026-07-05T09:12:36.000Z</time>
      </trkpt>
      <trkpt lat="44.93147" lon="5.75183">
        <ele>1401.4000244141</ele>
        <time>2026-07-05T09:12:37.000Z</time>
      </trkpt>
      <trkpt lat="44.93147" lon="5.75186">
        <ele>1401.5999755859</ele>
        <time>2026-07-05T09:12:38.000Z</time>
      </trkpt>
      <trkpt lat="44.93147" lon="5.75188">
        <ele>1402</ele>
        <time>2026-07-05T09:12:39.000Z</time>
      </trkpt>
      <trkpt lat="44.93147" lon="5.7519">
        <ele>1402.1999511719</ele>
        <time>2026-07-05T09:12:40.000Z</time>
      </trkpt>
      <trkpt lat="44.93147" lon="5.75191">
        <ele>1402.5999755859</ele>
        <time>2026-07-05T09:12:41.000Z</time>
      </trkpt>
      <trkpt lat="44.93147" lon="5.75193">
        <ele>1402.5999755859</ele>
        <time>2026-07-05T09:12:42.000Z</time>
      </trkpt>
      <trkpt lat="44.93147" lon="5.75194">
        <ele>1402.5999755859</ele>
        <time>2026-07-05T09:12:43.000Z</time>
      </trkpt>
      <trkpt lat="44.93147" lon="5.75194">
        <ele>1402.5999755859</ele>
        <time>2026-07-05T09:12:44.000Z</time>
      </trkpt>
      <trkpt lat="44.93148" lon="5.75196">
        <ele>1402.4000244141</ele>
        <time>2026-07-05T09:12:45.000Z</time>
      </trkpt>
      <trkpt lat="44.93148" lon="5.75199">
        <ele>1402.1999511719</ele>
        <time>2026-07-05T09:12:46.000Z</time>
      </trkpt>
      <trkpt lat="44.93148" lon="5.75201">
        <ele>1402.1999511719</ele>
        <time>2026-07-05T09:12:47.000Z</time>
      </trkpt>
      <trkpt lat="44.93147" lon="5.75203">
        <ele>1402</ele>
        <time>2026-07-05T09:12:48.000Z</time>
      </trkpt>
      <trkpt lat="44.93147" lon="5.75206">
        <ele>1401.8000488281</ele>
        <time>2026-07-05T09:12:49.000Z</time>
      </trkpt>
      <trkpt lat="44.93148" lon="5.75208">
        <ele>1401.4000244141</ele>
        <time>2026-07-05T09:12:50.000Z</time>
      </trkpt>
      <trkpt lat="44.93148" lon="5.75211">
        <ele>1401.1999511719</ele>
        <time>2026-07-05T09:12:51.000Z</time>
      </trkpt>
      <trkpt lat="44.93148" lon="5.75213">
        <ele>1401.1999511719</ele>
        <time>2026-07-05T09:12:52.000Z</time>
      </trkpt>
      <trkpt lat="44.93149" lon="5.75215">
        <ele>1401.1999511719</ele>
        <time>2026-07-05T09:12:53.000Z</time>
      </trkpt>
      <trkpt lat="44.93149" lon="5.75217">
        <ele>1400.8000488281</ele>
        <time>2026-07-05T09:12:54.000Z</time>
      </trkpt>
      <trkpt lat="44.9315" lon="5.75221">
        <ele>1400</ele>
        <time>2026-07-05T09:12:55.000Z</time>
      </trkpt>
      <trkpt lat="44.93151" lon="5.75224">
        <ele>1399.1999511719</ele>
        <time>2026-07-05T09:12:56.000Z</time>
      </trkpt>
      <trkpt lat="44.93151" lon="5.75227">
        <ele>1399</ele>
        <time>2026-07-05T09:12:57.000Z</time>
      </trkpt>
      <trkpt lat="44.93152" lon="5.75229">
        <ele>1398.5999755859</ele>
        <time>2026-07-05T09:12:58.000Z</time>
      </trkpt>
      <trkpt lat="44.93153" lon="5.75232">
        <ele>1397.8000488281</ele>
        <time>2026-07-05T09:12:59.000Z</time>
      </trkpt>
      <trkpt lat="44.93154" lon="5.75234">
        <ele>1397.5999755859</ele>
        <time>2026-07-05T09:13:00.000Z</time>
      </trkpt>
      <trkpt lat="44.93154" lon="5.75236">
        <ele>1397.1999511719</ele>
        <time>2026-07-05T09:13:01.000Z</time>
      </trkpt>
      <trkpt lat="44.93154" lon="5.75238">
        <ele>1397.1999511719</ele>
        <time>2026-07-05T09:13:02.000Z</time>
      </trkpt>
      <trkpt lat="44.93154" lon="5.7524">
        <ele>1397.1999511719</ele>
        <time>2026-07-05T09:13:03.000Z</time>
      </trkpt>
      <trkpt lat="44.93154" lon="5.75242">
        <ele>1397.4000244141</ele>
        <time>2026-07-05T09:13:04.000Z</time>
      </trkpt>
      <trkpt lat="44.93154" lon="5.75245">
        <ele>1397.5999755859</ele>
        <time>2026-07-05T09:13:05.000Z</time>
      </trkpt>
      <trkpt lat="44.93153" lon="5.75247">
        <ele>1397.8000488281</ele>
        <time>2026-07-05T09:13:06.000Z</time>
      </trkpt>
      <trkpt lat="44.93153" lon="5.7525">
        <ele>1397.8000488281</ele>
        <time>2026-07-05T09:13:07.000Z</time>
      </trkpt>
      <trkpt lat="44.93152" lon="5.75252">
        <ele>1397.8000488281</ele>
        <time>2026-07-05T09:13:08.000Z</time>
      </trkpt>
      <trkpt lat="44.93152" lon="5.75254">
        <ele>1398</ele>
        <time>2026-07-05T09:13:09.000Z</time>
      </trkpt>
      <trkpt lat="44.93151" lon="5.75256">
        <ele>1398.1999511719</ele>
        <time>2026-07-05T09:13:10.000Z</time>
      </trkpt>
      <trkpt lat="44.93151" lon="5.75258">
        <ele>1398.4000244141</ele>
        <time>2026-07-05T09:13:11.000Z</time>
      </trkpt>
      <trkpt lat="44.93151" lon="5.75259">
        <ele>1398.5999755859</ele>
        <time>2026-07-05T09:13:12.000Z</time>
      </trkpt>
      <trkpt lat="44.93151" lon="5.75262">
        <ele>1398.5999755859</ele>
        <time>2026-07-05T09:13:13.000Z</time>
      </trkpt>
      <trkpt lat="44.9315" lon="5.75265">
        <ele>1398.8000488281</ele>
        <time>2026-07-05T09:13:14.000Z</time>
      </trkpt>
      <trkpt lat="44.93149" lon="5.75267">
        <ele>1399</ele>
        <time>2026-07-05T09:13:15.000Z</time>
      </trkpt>
      <trkpt lat="44.93147" lon="5.75269">
        <ele>1399.5999755859</ele>
        <time>2026-07-05T09:13:16.000Z</time>
      </trkpt>
      <trkpt lat="44.93146" lon="5.75271">
        <ele>1400</ele>
        <time>2026-07-05T09:13:17.000Z</time>
      </trkpt>
      <trkpt lat="44.93146" lon="5.75273">
        <ele>1400.5999755859</ele>
        <time>2026-07-05T09:13:18.000Z</time>
      </trkpt>
      <trkpt lat="44.93145" lon="5.75276">
        <ele>1401</ele>
        <time>2026-07-05T09:13:19.000Z</time>
      </trkpt>
      <trkpt lat="44.93144" lon="5.75278">
        <ele>1401.1999511719</ele>
        <time>2026-07-05T09:13:20.000Z</time>
      </trkpt>
      <trkpt lat="44.93144" lon="5.75281">
        <ele>1401.4000244141</ele>
        <time>2026-07-05T09:13:21.000Z</time>
      </trkpt>
      <trkpt lat="44.93144" lon="5.75284">
        <ele>1401.4000244141</ele>
        <time>2026-07-05T09:13:22.000Z</time>
      </trkpt>
      <trkpt lat="44.93144" lon="5.75286">
        <ele>1401.1999511719</ele>
        <time>2026-07-05T09:13:23.000Z</time>
      </trkpt>
      <trkpt lat="44.93144" lon="5.75289">
        <ele>1401</ele>
        <time>2026-07-05T09:13:24.000Z</time>
      </trkpt>
      <trkpt lat="44.93144" lon="5.75292">
        <ele>1400.8000488281</ele>
        <time>2026-07-05T09:13:25.000Z</time>
      </trkpt>
      <trkpt lat="44.93144" lon="5.75295">
        <ele>1400.4000244141</ele>
        <time>2026-07-05T09:13:26.000Z</time>
      </trkpt>
      <trkpt lat="44.93144" lon="5.75298">
        <ele>1400.4000244141</ele>
        <time>2026-07-05T09:13:27.000Z</time>
      </trkpt>
      <trkpt lat="44.93144" lon="5.75301">
        <ele>1399.5999755859</ele>
        <time>2026-07-05T09:13:28.000Z</time>
      </trkpt>
      <trkpt lat="44.93145" lon="5.75304">
        <ele>1399</ele>
        <time>2026-07-05T09:13:29.000Z</time>
      </trkpt>
      <trkpt lat="44.93146" lon="5.75306">
        <ele>1398.5999755859</ele>
        <time>2026-07-05T09:13:30.000Z</time>
      </trkpt>
      <trkpt lat="44.93146" lon="5.75309">
        <ele>1397.5999755859</ele>
        <time>2026-07-05T09:13:31.000Z</time>
      </trkpt>
      <trkpt lat="44.93147" lon="5.75311">
        <ele>1397.1999511719</ele>
        <time>2026-07-05T09:13:32.000Z</time>
      </trkpt>
      <trkpt lat="44.93148" lon="5.75313">
        <ele>1396.4000244141</ele>
        <time>2026-07-05T09:13:33.000Z</time>
      </trkpt>
      <trkpt lat="44.93148" lon="5.75316">
        <ele>1395.8000488281</ele>
        <time>2026-07-05T09:13:34.000Z</time>
      </trkpt>
      <trkpt lat="44.93148" lon="5.75319">
        <ele>1395.4000244141</ele>
        <time>2026-07-05T09:13:35.000Z</time>
      </trkpt>
      <trkpt lat="44.93148" lon="5.75322">
        <ele>1395</ele>
        <time>2026-07-05T09:13:36.000Z</time>
      </trkpt>
      <trkpt lat="44.93147" lon="5.75325">
        <ele>1394.4000244141</ele>
        <time>2026-07-05T09:13:37.000Z</time>
      </trkpt>
      <trkpt lat="44.93146" lon="5.75327">
        <ele>1394</ele>
        <time>2026-07-05T09:13:38.000Z</time>
      </trkpt>
      <trkpt lat="44.93145" lon="5.75327">
        <ele>1393.8000488281</ele>
        <time>2026-07-05T09:13:39.000Z</time>
      </trkpt>
      <trkpt lat="44.93143" lon="5.75329">
        <ele>1393.8000488281</ele>
        <time>2026-07-05T09:13:40.000Z</time>
      </trkpt>
      <trkpt lat="44.9314" lon="5.75332">
        <ele>1393.8000488281</ele>
        <time>2026-07-05T09:13:41.000Z</time>
      </trkpt>
      <trkpt lat="44.93138" lon="5.75334">
        <ele>1393.8000488281</ele>
        <time>2026-07-05T09:13:42.000Z</time>
      </trkpt>
      <trkpt lat="44.93136" lon="5.75336">
        <ele>1394</ele>
        <time>2026-07-05T09:13:43.000Z</time>
      </trkpt>
      <trkpt lat="44.93134" lon="5.75337">
        <ele>1394.4000244141</ele>
        <time>2026-07-05T09:13:44.000Z</time>
      </trkpt>
      <trkpt lat="44.93132" lon="5.75339">
        <ele>1394.8000488281</ele>
        <time>2026-07-05T09:13:45.000Z</time>
      </trkpt>
      <trkpt lat="44.93131" lon="5.75341">
        <ele>1395</ele>
        <time>2026-07-05T09:13:46.000Z</time>
      </trkpt>
      <trkpt lat="44.93129" lon="5.75342">
        <ele>1395.1999511719</ele>
        <time>2026-07-05T09:13:47.000Z</time>
      </trkpt>
      <trkpt lat="44.93128" lon="5.75344">
        <ele>1395.1999511719</ele>
        <time>2026-07-05T09:13:48.000Z</time>
      </trkpt>
      <trkpt lat="44.93127" lon="5.75346">
        <ele>1395.1999511719</ele>
        <time>2026-07-05T09:13:49.000Z</time>
      </trkpt>
      <trkpt lat="44.93126" lon="5.75348">
        <ele>1395</ele>
        <time>2026-07-05T09:13:50.000Z</time>
      </trkpt>
      <trkpt lat="44.93126" lon="5.75351">
        <ele>1394.8000488281</ele>
        <time>2026-07-05T09:13:51.000Z</time>
      </trkpt>
      <trkpt lat="44.93125" lon="5.75353">
        <ele>1394.4000244141</ele>
        <time>2026-07-05T09:13:52.000Z</time>
      </trkpt>
      <trkpt lat="44.93125" lon="5.75356">
        <ele>1393</ele>
        <time>2026-07-05T09:13:53.000Z</time>
      </trkpt>
      <trkpt lat="44.93124" lon="5.75358">
        <ele>1392.8000488281</ele>
        <time>2026-07-05T09:13:54.000Z</time>
      </trkpt>
      <trkpt lat="44.93124" lon="5.75361">
        <ele>1392</ele>
        <time>2026-07-05T09:13:55.000Z</time>
      </trkpt>
      <trkpt lat="44.93123" lon="5.75364">
        <ele>1391.1999511719</ele>
        <time>2026-07-05T09:13:56.000Z</time>
      </trkpt>
      <trkpt lat="44.93121" lon="5.75366">
        <ele>1390.8000488281</ele>
        <time>2026-07-05T09:13:57.000Z</time>
      </trkpt>
      <trkpt lat="44.93119" lon="5.75368">
        <ele>1390.4000244141</ele>
        <time>2026-07-05T09:13:58.000Z</time>
      </trkpt>
      <trkpt lat="44.93117" lon="5.7537">
        <ele>1390.1999511719</ele>
        <time>2026-07-05T09:13:59.000Z</time>
      </trkpt>
      <trkpt lat="44.93114" lon="5.75371">
        <ele>1390</ele>
        <time>2026-07-05T09:14:00.000Z</time>
      </trkpt>
      <trkpt lat="44.93112" lon="5.75373">
        <ele>1389.8000488281</ele>
        <time>2026-07-05T09:14:01.000Z</time>
      </trkpt>
      <trkpt lat="44.9311" lon="5.75375">
        <ele>1389.8000488281</ele>
        <time>2026-07-05T09:14:02.000Z</time>
      </trkpt>
      <trkpt lat="44.93109" lon="5.75377">
        <ele>1389.8000488281</ele>
        <time>2026-07-05T09:14:03.000Z</time>
      </trkpt>
      <trkpt lat="44.93107" lon="5.75379">
        <ele>1389.8000488281</ele>
        <time>2026-07-05T09:14:04.000Z</time>
      </trkpt>
      <trkpt lat="44.93106" lon="5.75381">
        <ele>1389.8000488281</ele>
        <time>2026-07-05T09:14:05.000Z</time>
      </trkpt>
      <trkpt lat="44.93105" lon="5.75383">
        <ele>1389.8000488281</ele>
        <time>2026-07-05T09:14:06.000Z</time>
      </trkpt>
      <trkpt lat="44.93104" lon="5.75385">
        <ele>1389.5999755859</ele>
        <time>2026-07-05T09:14:07.000Z</time>
      </trkpt>
      <trkpt lat="44.93103" lon="5.75387">
        <ele>1389</ele>
        <time>2026-07-05T09:14:08.000Z</time>
      </trkpt>
      <trkpt lat="44.93103" lon="5.75389">
        <ele>1388.4000244141</ele>
        <time>2026-07-05T09:14:09.000Z</time>
      </trkpt>
      <trkpt lat="44.93103" lon="5.75392">
        <ele>1387.4000244141</ele>
        <time>2026-07-05T09:14:10.000Z</time>
      </trkpt>
      <trkpt lat="44.93103" lon="5.75394">
        <ele>1386.4000244141</ele>
        <time>2026-07-05T09:14:11.000Z</time>
      </trkpt>
      <trkpt lat="44.93102" lon="5.75397">
        <ele>1385.1999511719</ele>
        <time>2026-07-05T09:14:12.000Z</time>
      </trkpt>
      <trkpt lat="44.93102" lon="5.754">
        <ele>1384.5999755859</ele>
        <time>2026-07-05T09:14:13.000Z</time>
      </trkpt>
      <trkpt lat="44.93101" lon="5.75402">
        <ele>1383.8000488281</ele>
        <time>2026-07-05T09:14:14.000Z</time>
      </trkpt>
      <trkpt lat="44.93099" lon="5.75404">
        <ele>1383.4000244141</ele>
        <time>2026-07-05T09:14:15.000Z</time>
      </trkpt>
      <trkpt lat="44.93098" lon="5.75406">
        <ele>1383.1999511719</ele>
        <time>2026-07-05T09:14:16.000Z</time>
      </trkpt>
      <trkpt lat="44.93096" lon="5.75407">
        <ele>1383</ele>
        <time>2026-07-05T09:14:17.000Z</time>
      </trkpt>
      <trkpt lat="44.93095" lon="5.75409">
        <ele>1383</ele>
        <time>2026-07-05T09:14:18.000Z</time>
      </trkpt>
      <trkpt lat="44.93095" lon="5.75411">
        <ele>1383</ele>
        <time>2026-07-05T09:14:19.000Z</time>
      </trkpt>
      <trkpt lat="44.93095" lon="5.75414">
        <ele>1382.8000488281</ele>
        <time>2026-07-05T09:14:20.000Z</time>
      </trkpt>
      <trkpt lat="44.93094" lon="5.75416">
        <ele>1382.4000244141</ele>
        <time>2026-07-05T09:14:21.000Z</time>
      </trkpt>
      <trkpt lat="44.93093" lon="5.75418">
        <ele>1382</ele>
        <time>2026-07-05T09:14:22.000Z</time>
      </trkpt>
      <trkpt lat="44.93092" lon="5.7542">
        <ele>1381.4000244141</ele>
        <time>2026-07-05T09:14:23.000Z</time>
      </trkpt>
      <trkpt lat="44.93091" lon="5.75422">
        <ele>1381</ele>
        <time>2026-07-05T09:14:24.000Z</time>
      </trkpt>
      <trkpt lat="44.9309" lon="5.75423">
        <ele>1380.4000244141</ele>
        <time>2026-07-05T09:14:25.000Z</time>
      </trkpt>
      <trkpt lat="44.93087" lon="5.75425">
        <ele>1380</ele>
        <time>2026-07-05T09:14:26.000Z</time>
      </trkpt>
      <trkpt lat="44.93085" lon="5.75427">
        <ele>1379.4000244141</ele>
        <time>2026-07-05T09:14:27.000Z</time>
      </trkpt>
      <trkpt lat="44.93083" lon="5.75428">
        <ele>1379</ele>
        <time>2026-07-05T09:14:28.000Z</time>
      </trkpt>
      <trkpt lat="44.93081" lon="5.7543">
        <ele>1378.8000488281</ele>
        <time>2026-07-05T09:14:29.000Z</time>
      </trkpt>
      <trkpt lat="44.93079" lon="5.75431">
        <ele>1379</ele>
        <time>2026-07-05T09:14:30.000Z</time>
      </trkpt>
      <trkpt lat="44.93077" lon="5.75433">
        <ele>1379</ele>
        <time>2026-07-05T09:14:31.000Z</time>
      </trkpt>
      <trkpt lat="44.93075" lon="5.75434">
        <ele>1379.1999511719</ele>
        <time>2026-07-05T09:14:32.000Z</time>
      </trkpt>
      <trkpt lat="44.93074" lon="5.75436">
        <ele>1379.1999511719</ele>
        <time>2026-07-05T09:14:33.000Z</time>
      </trkpt>
      <trkpt lat="44.93072" lon="5.75437">
        <ele>1379.1999511719</ele>
        <time>2026-07-05T09:14:34.000Z</time>
      </trkpt>
      <trkpt lat="44.93071" lon="5.75439">
        <ele>1379</ele>
        <time>2026-07-05T09:14:35.000Z</time>
      </trkpt>
      <trkpt lat="44.93071" lon="5.7544">
        <ele>1378.8000488281</ele>
        <time>2026-07-05T09:14:36.000Z</time>
      </trkpt>
      <trkpt lat="44.9307" lon="5.75441">
        <ele>1378.5999755859</ele>
        <time>2026-07-05T09:14:37.000Z</time>
      </trkpt>
      <trkpt lat="44.9307" lon="5.75443">
        <ele>1378</ele>
        <time>2026-07-05T09:14:38.000Z</time>
      </trkpt>
      <trkpt lat="44.93071" lon="5.75444">
        <ele>1377.8000488281</ele>
        <time>2026-07-05T09:14:39.000Z</time>
      </trkpt>
      <trkpt lat="44.93072" lon="5.75446">
        <ele>1376.8000488281</ele>
        <time>2026-07-05T09:14:40.000Z</time>
      </trkpt>
      <trkpt lat="44.93072" lon="5.75448">
        <ele>1376.4000244141</ele>
        <time>2026-07-05T09:14:41.000Z</time>
      </trkpt>
      <trkpt lat="44.93072" lon="5.7545">
        <ele>1375.4000244141</ele>
        <time>2026-07-05T09:14:42.000Z</time>
      </trkpt>
      <trkpt lat="44.93072" lon="5.75453">
        <ele>1375</ele>
        <time>2026-07-05T09:14:43.000Z</time>
      </trkpt>
      <trkpt lat="44.93071" lon="5.75456">
        <ele>1374.4000244141</ele>
        <time>2026-07-05T09:14:44.000Z</time>
      </trkpt>
      <trkpt lat="44.93071" lon="5.75459">
        <ele>1373.8000488281</ele>
        <time>2026-07-05T09:14:45.000Z</time>
      </trkpt>
      <trkpt lat="44.93071" lon="5.75461">
        <ele>1373.1999511719</ele>
        <time>2026-07-05T09:14:46.000Z</time>
      </trkpt>
      <trkpt lat="44.9307" lon="5.75464">
        <ele>1372.4000244141</ele>
        <time>2026-07-05T09:14:47.000Z</time>
      </trkpt>
      <trkpt lat="44.93069" lon="5.75466">
        <ele>1372</ele>
        <time>2026-07-05T09:14:48.000Z</time>
      </trkpt>
      <trkpt lat="44.93069" lon="5.75469">
        <ele>1371</ele>
        <time>2026-07-05T09:14:49.000Z</time>
      </trkpt>
      <trkpt lat="44.93068" lon="5.75472">
        <ele>1370.1999511719</ele>
        <time>2026-07-05T09:14:50.000Z</time>
      </trkpt>
      <trkpt lat="44.93067" lon="5.75475">
        <ele>1369.5999755859</ele>
        <time>2026-07-05T09:14:51.000Z</time>
      </trkpt>
      <trkpt lat="44.93066" lon="5.75477">
        <ele>1368.8000488281</ele>
        <time>2026-07-05T09:14:52.000Z</time>
      </trkpt>
      <trkpt lat="44.93065" lon="5.7548">
        <ele>1368.5999755859</ele>
        <time>2026-07-05T09:14:53.000Z</time>
      </trkpt>
      <trkpt lat="44.93064" lon="5.75483">
        <ele>1367.8000488281</ele>
        <time>2026-07-05T09:14:54.000Z</time>
      </trkpt>
      <trkpt lat="44.93063" lon="5.75486">
        <ele>1367.4000244141</ele>
        <time>2026-07-05T09:14:55.000Z</time>
      </trkpt>
      <trkpt lat="44.93061" lon="5.75488">
        <ele>1366.4000244141</ele>
        <time>2026-07-05T09:14:56.000Z</time>
      </trkpt>
      <trkpt lat="44.9306" lon="5.75491">
        <ele>1365.8000488281</ele>
        <time>2026-07-05T09:14:57.000Z</time>
      </trkpt>
      <trkpt lat="44.93059" lon="5.75494">
        <ele>1365.4000244141</ele>
        <time>2026-07-05T09:14:58.000Z</time>
      </trkpt>
      <trkpt lat="44.93057" lon="5.75497">
        <ele>1364.8000488281</ele>
        <time>2026-07-05T09:14:59.000Z</time>
      </trkpt>
      <trkpt lat="44.93055" lon="5.75499">
        <ele>1364.5999755859</ele>
        <time>2026-07-05T09:15:00.000Z</time>
      </trkpt>
      <trkpt lat="44.93055" lon="5.755">
        <ele>1364.4000244141</ele>
        <time>2026-07-05T09:15:01.000Z</time>
      </trkpt>
      <trkpt lat="44.93055" lon="5.75501">
        <ele>1364.1999511719</ele>
        <time>2026-07-05T09:15:02.000Z</time>
      </trkpt>
      <trkpt lat="44.93055" lon="5.75501">
        <ele>1364</ele>
        <time>2026-07-05T09:15:03.000Z</time>
      </trkpt>
      <trkpt lat="44.93056" lon="5.75501">
        <ele>1363.5999755859</ele>
        <time>2026-07-05T09:15:04.000Z</time>
      </trkpt>
      <trkpt lat="44.93057" lon="5.755">
        <ele>1363.4000244141</ele>
        <time>2026-07-05T09:15:05.000Z</time>
      </trkpt>
      <trkpt lat="44.93058" lon="5.75499">
        <ele>1363</ele>
        <time>2026-07-05T09:15:06.000Z</time>
      </trkpt>
      <trkpt lat="44.93059" lon="5.75499">
        <ele>1362.8000488281</ele>
        <time>2026-07-05T09:15:07.000Z</time>
      </trkpt>
      <trkpt lat="44.9306" lon="5.75499">
        <ele>1362.5999755859</ele>
        <time>2026-07-05T09:15:08.000Z</time>
      </trkpt>
      <trkpt lat="44.93061" lon="5.75501">
        <ele>1362.1999511719</ele>
        <time>2026-07-05T09:15:09.000Z</time>
      </trkpt>
      <trkpt lat="44.93061" lon="5.75503">
        <ele>1361.5999755859</ele>
        <time>2026-07-05T09:15:10.000Z</time>
      </trkpt>
      <trkpt lat="44.9306" lon="5.75504">
        <ele>1361.4000244141</ele>
        <time>2026-07-05T09:15:11.000Z</time>
      </trkpt>
      <trkpt lat="44.93059" lon="5.75507">
        <ele>1360.8000488281</ele>
        <time>2026-07-05T09:15:12.000Z</time>
      </trkpt>
      <trkpt lat="44.93059" lon="5.75509">
        <ele>1360.1999511719</ele>
        <time>2026-07-05T09:15:13.000Z</time>
      </trkpt>
      <trkpt lat="44.93059" lon="5.75511">
        <ele>1359.4000244141</ele>
        <time>2026-07-05T09:15:14.000Z</time>
      </trkpt>
      <trkpt lat="44.93059" lon="5.75514">
        <ele>1358.8000488281</ele>
        <time>2026-07-05T09:15:15.000Z</time>
      </trkpt>
      <trkpt lat="44.93059" lon="5.75516">
        <ele>1358.4000244141</ele>
        <time>2026-07-05T09:15:16.000Z</time>
      </trkpt>
      <trkpt lat="44.93058" lon="5.75519">
        <ele>1358</ele>
        <time>2026-07-05T09:15:17.000Z</time>
      </trkpt>
      <trkpt lat="44.93058" lon="5.75522">
        <ele>1357.4000244141</ele>
        <time>2026-07-05T09:15:18.000Z</time>
      </trkpt>
      <trkpt lat="44.93057" lon="5.75524">
        <ele>1356.8000488281</ele>
        <time>2026-07-05T09:15:19.000Z</time>
      </trkpt>
      <trkpt lat="44.93057" lon="5.75526">
        <ele>1356.1999511719</ele>
        <time>2026-07-05T09:15:20.000Z</time>
      </trkpt>
      <trkpt lat="44.93056" lon="5.75528">
        <ele>1355.8000488281</ele>
        <time>2026-07-05T09:15:21.000Z</time>
      </trkpt>
      <trkpt lat="44.93056" lon="5.75531">
        <ele>1355.1999511719</ele>
        <time>2026-07-05T09:15:22.000Z</time>
      </trkpt>
      <trkpt lat="44.93056" lon="5.75533">
        <ele>1354.8000488281</ele>
        <time>2026-07-05T09:15:23.000Z</time>
      </trkpt>
      <trkpt lat="44.93055" lon="5.75535">
        <ele>1354.1999511719</ele>
        <time>2026-07-05T09:15:24.000Z</time>
      </trkpt>
      <trkpt lat="44.93054" lon="5.75537">
        <ele>1354</ele>
        <time>2026-07-05T09:15:25.000Z</time>
      </trkpt>
      <trkpt lat="44.93053" lon="5.75538">
        <ele>1353.4000244141</ele>
        <time>2026-07-05T09:15:26.000Z</time>
      </trkpt>
      <trkpt lat="44.93052" lon="5.7554">
        <ele>1352.8000488281</ele>
        <time>2026-07-05T09:15:27.000Z</time>
      </trkpt>
      <trkpt lat="44.93052" lon="5.75541">
        <ele>1352.4000244141</ele>
        <time>2026-07-05T09:15:28.000Z</time>
      </trkpt>
      <trkpt lat="44.93052" lon="5.75541">
        <ele>1352</ele>
        <time>2026-07-05T09:15:29.000Z</time>
      </trkpt>
      <trkpt lat="44.93052" lon="5.75543">
        <ele>1351.5999755859</ele>
        <time>2026-07-05T09:15:30.000Z</time>
      </trkpt>
      <trkpt lat="44.93052" lon="5.75545">
        <ele>1351.1999511719</ele>
        <time>2026-07-05T09:15:31.000Z</time>
      </trkpt>
      <trkpt lat="44.93051" lon="5.75547">
        <ele>1350.8000488281</ele>
        <time>2026-07-05T09:15:32.000Z</time>
      </trkpt>
      <trkpt lat="44.9305" lon="5.75548">
        <ele>1350</ele>
        <time>2026-07-05T09:15:33.000Z</time>
      </trkpt>
      <trkpt lat="44.93049" lon="5.75549">
        <ele>1349.5999755859</ele>
        <time>2026-07-05T09:15:34.000Z</time>
      </trkpt>
      <trkpt lat="44.93049" lon="5.75551">
        <ele>1349.1999511719</ele>
        <time>2026-07-05T09:15:35.000Z</time>
      </trkpt>
      <trkpt lat="44.93049" lon="5.75553">
        <ele>1348.4000244141</ele>
        <time>2026-07-05T09:15:36.000Z</time>
      </trkpt>
      <trkpt lat="44.93049" lon="5.75555">
        <ele>1348.1999511719</ele>
        <time>2026-07-05T09:15:37.000Z</time>
      </trkpt>
      <trkpt lat="44.93048" lon="5.75556">
        <ele>1347.4000244141</ele>
        <time>2026-07-05T09:15:38.000Z</time>
      </trkpt>
      <trkpt lat="44.93048" lon="5.75557">
        <ele>1347.1999511719</ele>
        <time>2026-07-05T09:15:39.000Z</time>
      </trkpt>
      <trkpt lat="44.93048" lon="5.75558">
        <ele>1346.8000488281</ele>
        <time>2026-07-05T09:15:40.000Z</time>
      </trkpt>
      <trkpt lat="44.93049" lon="5.75559">
        <ele>1346.4000244141</ele>
        <time>2026-07-05T09:15:41.000Z</time>
      </trkpt>
      <trkpt lat="44.9305" lon="5.75559">
        <ele>1345.8000488281</ele>
        <time>2026-07-05T09:15:42.000Z</time>
      </trkpt>
      <trkpt lat="44.93051" lon="5.75559">
        <ele>1345.1999511719</ele>
        <time>2026-07-05T09:15:43.000Z</time>
      </trkpt>
      <trkpt lat="44.93053" lon="5.75558">
        <ele>1345</ele>
        <time>2026-07-05T09:15:44.000Z</time>
      </trkpt>
      <trkpt lat="44.93054" lon="5.75557">
        <ele>1344.8000488281</ele>
        <time>2026-07-05T09:15:45.000Z</time>
      </trkpt>
      <trkpt lat="44.93056" lon="5.75557">
        <ele>1344.5999755859</ele>
        <time>2026-07-05T09:15:46.000Z</time>
      </trkpt>
      <trkpt lat="44.93057" lon="5.75557">
        <ele>1344.4000244141</ele>
        <time>2026-07-05T09:15:47.000Z</time>
      </trkpt>
      <trkpt lat="44.93058" lon="5.75558">
        <ele>1344.4000244141</ele>
        <time>2026-07-05T09:15:48.000Z</time>
      </trkpt>
      <trkpt lat="44.9306" lon="5.75561">
        <ele>1344.1999511719</ele>
        <time>2026-07-05T09:15:49.000Z</time>
      </trkpt>
      <trkpt lat="44.93061" lon="5.75564">
        <ele>1344</ele>
        <time>2026-07-05T09:15:50.000Z</time>
      </trkpt>
      <trkpt lat="44.93061" lon="5.75567">
        <ele>1344</ele>
        <time>2026-07-05T09:15:51.000Z</time>
      </trkpt>
      <trkpt lat="44.93061" lon="5.7557">
        <ele>1343.8000488281</ele>
        <time>2026-07-05T09:15:52.000Z</time>
      </trkpt>
      <trkpt lat="44.93059" lon="5.75572">
        <ele>1343.4000244141</ele>
        <time>2026-07-05T09:15:53.000Z</time>
      </trkpt>
      <trkpt lat="44.93057" lon="5.75574">
        <ele>1343</ele>
        <time>2026-07-05T09:15:54.000Z</time>
      </trkpt>
      <trkpt lat="44.93055" lon="5.75576">
        <ele>1342.5999755859</ele>
        <time>2026-07-05T09:15:55.000Z</time>
      </trkpt>
      <trkpt lat="44.93054" lon="5.75578">
        <ele>1342.1999511719</ele>
        <time>2026-07-05T09:15:56.000Z</time>
      </trkpt>
      <trkpt lat="44.93052" lon="5.75579">
        <ele>1342</ele>
        <time>2026-07-05T09:15:57.000Z</time>
      </trkpt>
      <trkpt lat="44.93052" lon="5.7558">
        <ele>1341.8000488281</ele>
        <time>2026-07-05T09:15:58.000Z</time>
      </trkpt>
      <trkpt lat="44.93052" lon="5.75581">
        <ele>1341.1999511719</ele>
        <time>2026-07-05T09:15:59.000Z</time>
      </trkpt>
      <trkpt lat="44.93052" lon="5.75583">
        <ele>1340.8000488281</ele>
        <time>2026-07-05T09:16:00.000Z</time>
      </trkpt>
      <trkpt lat="44.93053" lon="5.75583">
        <ele>1340.5999755859</ele>
        <time>2026-07-05T09:16:01.000Z</time>
      </trkpt>
      <trkpt lat="44.93054" lon="5.75582">
        <ele>1340.1999511719</ele>
        <time>2026-07-05T09:16:02.000Z</time>
      </trkpt>
      <trkpt lat="44.93055" lon="5.75582">
        <ele>1339.8000488281</ele>
        <time>2026-07-05T09:16:03.000Z</time>
      </trkpt>
      <trkpt lat="44.93055" lon="5.75582">
        <ele>1339</ele>
        <time>2026-07-05T09:16:04.000Z</time>
      </trkpt>
      <trkpt lat="44.93057" lon="5.75582">
        <ele>1338.4000244141</ele>
        <time>2026-07-05T09:16:05.000Z</time>
      </trkpt>
      <trkpt lat="44.93058" lon="5.75582">
        <ele>1338.1999511719</ele>
        <time>2026-07-05T09:16:06.000Z</time>
      </trkpt>
      <trkpt lat="44.93059" lon="5.75582">
        <ele>1337.8000488281</ele>
        <time>2026-07-05T09:16:07.000Z</time>
      </trkpt>
      <trkpt lat="44.93061" lon="5.75583">
        <ele>1337.1999511719</ele>
        <time>2026-07-05T09:16:08.000Z</time>
      </trkpt>
      <trkpt lat="44.93063" lon="5.75583">
        <ele>1336.5999755859</ele>
        <time>2026-07-05T09:16:09.000Z</time>
      </trkpt>
      <trkpt lat="44.93065" lon="5.75583">
        <ele>1336.4000244141</ele>
        <time>2026-07-05T09:16:10.000Z</time>
      </trkpt>
      <trkpt lat="44.93067" lon="5.75582">
        <ele>1336.1999511719</ele>
        <time>2026-07-05T09:16:11.000Z</time>
      </trkpt>
      <trkpt lat="44.93068" lon="5.75582">
        <ele>1335.8000488281</ele>
        <time>2026-07-05T09:16:12.000Z</time>
      </trkpt>
      <trkpt lat="44.9307" lon="5.75583">
        <ele>1335.4000244141</ele>
        <time>2026-07-05T09:16:13.000Z</time>
      </trkpt>
      <trkpt lat="44.93071" lon="5.75584">
        <ele>1335</ele>
        <time>2026-07-05T09:16:14.000Z</time>
      </trkpt>
      <trkpt lat="44.93073" lon="5.75587">
        <ele>1334.5999755859</ele>
        <time>2026-07-05T09:16:15.000Z</time>
      </trkpt>
      <trkpt lat="44.93074" lon="5.7559">
        <ele>1334.1999511719</ele>
        <time>2026-07-05T09:16:16.000Z</time>
      </trkpt>
      <trkpt lat="44.93075" lon="5.75592">
        <ele>1333.5999755859</ele>
        <time>2026-07-05T09:16:17.000Z</time>
      </trkpt>
      <trkpt lat="44.93075" lon="5.75594">
        <ele>1333.4000244141</ele>
        <time>2026-07-05T09:16:18.000Z</time>
      </trkpt>
      <trkpt lat="44.93075" lon="5.75597">
        <ele>1332.5999755859</ele>
        <time>2026-07-05T09:16:19.000Z</time>
      </trkpt>
      <trkpt lat="44.93075" lon="5.75599">
        <ele>1331.8000488281</ele>
        <time>2026-07-05T09:16:20.000Z</time>
      </trkpt>
      <trkpt lat="44.93074" lon="5.75601">
        <ele>1331.5999755859</ele>
        <time>2026-07-05T09:16:21.000Z</time>
      </trkpt>
      <trkpt lat="44.93074" lon="5.75602">
        <ele>1330.8000488281</ele>
        <time>2026-07-05T09:16:22.000Z</time>
      </trkpt>
      <trkpt lat="44.93073" lon="5.75604">
        <ele>1330.5999755859</ele>
        <time>2026-07-05T09:16:23.000Z</time>
      </trkpt>
      <trkpt lat="44.93073" lon="5.75606">
        <ele>1330.1999511719</ele>
        <time>2026-07-05T09:16:24.000Z</time>
      </trkpt>
      <trkpt lat="44.93072" lon="5.75608">
        <ele>1329.8000488281</ele>
        <time>2026-07-05T09:16:25.000Z</time>
      </trkpt>
      <trkpt lat="44.93072" lon="5.75609">
        <ele>1329.4000244141</ele>
        <time>2026-07-05T09:16:26.000Z</time>
      </trkpt>
      <trkpt lat="44.93071" lon="5.75611">
        <ele>1328.8000488281</ele>
        <time>2026-07-05T09:16:27.000Z</time>
      </trkpt>
      <trkpt lat="44.93071" lon="5.75612">
        <ele>1328.4000244141</ele>
        <time>2026-07-05T09:16:28.000Z</time>
      </trkpt>
      <trkpt lat="44.93071" lon="5.75612">
        <ele>1328</ele>
        <time>2026-07-05T09:16:29.000Z</time>
      </trkpt>
      <trkpt lat="44.93072" lon="5.75614">
        <ele>1327.4000244141</ele>
        <time>2026-07-05T09:16:30.000Z</time>
      </trkpt>
      <trkpt lat="44.93071" lon="5.75616">
        <ele>1327</ele>
        <time>2026-07-05T09:16:31.000Z</time>
      </trkpt>
      <trkpt lat="44.9307" lon="5.75618">
        <ele>1326.5999755859</ele>
        <time>2026-07-05T09:16:32.000Z</time>
      </trkpt>
      <trkpt lat="44.93069" lon="5.7562">
        <ele>1326</ele>
        <time>2026-07-05T09:16:33.000Z</time>
      </trkpt>
      <trkpt lat="44.93069" lon="5.75621">
        <ele>1325.4000244141</ele>
        <time>2026-07-05T09:16:34.000Z</time>
      </trkpt>
      <trkpt lat="44.93068" lon="5.75624">
        <ele>1324.8000488281</ele>
        <time>2026-07-05T09:16:35.000Z</time>
      </trkpt>
      <trkpt lat="44.93067" lon="5.75626">
        <ele>1324.4000244141</ele>
        <time>2026-07-05T09:16:36.000Z</time>
      </trkpt>
      <trkpt lat="44.93066" lon="5.75628">
        <ele>1324</ele>
        <time>2026-07-05T09:16:37.000Z</time>
      </trkpt>
      <trkpt lat="44.93066" lon="5.75629">
        <ele>1323.5999755859</ele>
        <time>2026-07-05T09:16:38.000Z</time>
      </trkpt>
      <trkpt lat="44.93065" lon="5.7563">
        <ele>1323.1999511719</ele>
        <time>2026-07-05T09:16:39.000Z</time>
      </trkpt>
      <trkpt lat="44.93065" lon="5.75632">
        <ele>1322.8000488281</ele>
        <time>2026-07-05T09:16:40.000Z</time>
      </trkpt>
      <trkpt lat="44.93064" lon="5.75634">
        <ele>1322.4000244141</ele>
        <time>2026-07-05T09:16:41.000Z</time>
      </trkpt>
      <trkpt lat="44.93064" lon="5.75636">
        <ele>1321.8000488281</ele>
        <time>2026-07-05T09:16:42.000Z</time>
      </trkpt>
      <trkpt lat="44.93063" lon="5.75639">
        <ele>1321.5999755859</ele>
        <time>2026-07-05T09:16:43.000Z</time>
      </trkpt>
      <trkpt lat="44.93062" lon="5.75642">
        <ele>1320.5999755859</ele>
        <time>2026-07-05T09:16:44.000Z</time>
      </trkpt>
      <trkpt lat="44.9306" lon="5.75644">
        <ele>1320.1999511719</ele>
        <time>2026-07-05T09:16:45.000Z</time>
      </trkpt>
      <trkpt lat="44.93059" lon="5.75646">
        <ele>1319.5999755859</ele>
        <time>2026-07-05T09:16:46.000Z</time>
      </trkpt>
      <trkpt lat="44.93058" lon="5.75648">
        <ele>1319</ele>
        <time>2026-07-05T09:16:47.000Z</time>
      </trkpt>
      <trkpt lat="44.93057" lon="5.75649">
        <ele>1318.5999755859</ele>
        <time>2026-07-05T09:16:48.000Z</time>
      </trkpt>
      <trkpt lat="44.93057" lon="5.75651">
        <ele>1318.1999511719</ele>
        <time>2026-07-05T09:16:49.000Z</time>
      </trkpt>
      <trkpt lat="44.93057" lon="5.75653">
        <ele>1317.8000488281</ele>
        <time>2026-07-05T09:16:50.000Z</time>
      </trkpt>
      <trkpt lat="44.93057" lon="5.75654">
        <ele>1317.1999511719</ele>
        <time>2026-07-05T09:16:51.000Z</time>
      </trkpt>
      <trkpt lat="44.93057" lon="5.75656">
        <ele>1316.5999755859</ele>
        <time>2026-07-05T09:16:52.000Z</time>
      </trkpt>
      <trkpt lat="44.93057" lon="5.75657">
        <ele>1316</ele>
        <time>2026-07-05T09:16:53.000Z</time>
      </trkpt>
      <trkpt lat="44.93057" lon="5.75658">
        <ele>1315.4000244141</ele>
        <time>2026-07-05T09:16:54.000Z</time>
      </trkpt>
      <trkpt lat="44.93057" lon="5.75659">
        <ele>1315</ele>
        <time>2026-07-05T09:16:55.000Z</time>
      </trkpt>
      <trkpt lat="44.93058" lon="5.7566">
        <ele>1314.5999755859</ele>
        <time>2026-07-05T09:16:56.000Z</time>
      </trkpt>
      <trkpt lat="44.93059" lon="5.75661">
        <ele>1314</ele>
        <time>2026-07-05T09:16:57.000Z</time>
      </trkpt>
      <trkpt lat="44.93059" lon="5.75663">
        <ele>1313.8000488281</ele>
        <time>2026-07-05T09:16:58.000Z</time>
      </trkpt>
      <trkpt lat="44.9306" lon="5.75665">
        <ele>1312.8000488281</ele>
        <time>2026-07-05T09:16:59.000Z</time>
      </trkpt>
      <trkpt lat="44.9306" lon="5.75667">
        <ele>1312.4000244141</ele>
        <time>2026-07-05T09:17:00.000Z</time>
      </trkpt>
      <trkpt lat="44.93059" lon="5.7567">
        <ele>1312</ele>
        <time>2026-07-05T09:17:01.000Z</time>
      </trkpt>
      <trkpt lat="44.93059" lon="5.75672">
        <ele>1311.5999755859</ele>
        <time>2026-07-05T09:17:02.000Z</time>
      </trkpt>
      <trkpt lat="44.93059" lon="5.75674">
        <ele>1311.1999511719</ele>
        <time>2026-07-05T09:17:03.000Z</time>
      </trkpt>
      <trkpt lat="44.93059" lon="5.75675">
        <ele>1311</ele>
        <time>2026-07-05T09:17:04.000Z</time>
      </trkpt>
      <trkpt lat="44.93059" lon="5.75676">
        <ele>1310.8000488281</ele>
        <time>2026-07-05T09:17:05.000Z</time>
      </trkpt>
      <trkpt lat="44.9306" lon="5.75678">
        <ele>1310.5999755859</ele>
        <time>2026-07-05T09:17:06.000Z</time>
      </trkpt>
      <trkpt lat="44.93061" lon="5.7568">
        <ele>1310</ele>
        <time>2026-07-05T09:17:07.000Z</time>
      </trkpt>
      <trkpt lat="44.93061" lon="5.75683">
        <ele>1309.8000488281</ele>
        <time>2026-07-05T09:17:08.000Z</time>
      </trkpt>
      <trkpt lat="44.9306" lon="5.75686">
        <ele>1309.5999755859</ele>
        <time>2026-07-05T09:17:09.000Z</time>
      </trkpt>
      <trkpt lat="44.9306" lon="5.7569">
        <ele>1309.4000244141</ele>
        <time>2026-07-05T09:17:10.000Z</time>
      </trkpt>
      <trkpt lat="44.9306" lon="5.75694">
        <ele>1309.4000244141</ele>
        <time>2026-07-05T09:17:11.000Z</time>
      </trkpt>
      <trkpt lat="44.9306" lon="5.75698">
        <ele>1309.1999511719</ele>
        <time>2026-07-05T09:17:12.000Z</time>
      </trkpt>
      <trkpt lat="44.9306" lon="5.75701">
        <ele>1309.1999511719</ele>
        <time>2026-07-05T09:17:13.000Z</time>
      </trkpt>
      <trkpt lat="44.9306" lon="5.75704">
        <ele>1309.1999511719</ele>
        <time>2026-07-05T09:17:14.000Z</time>
      </trkpt>
      <trkpt lat="44.93061" lon="5.75707">
        <ele>1309.4000244141</ele>
        <time>2026-07-05T09:17:15.000Z</time>
      </trkpt>
      <trkpt lat="44.93061" lon="5.75711">
        <ele>1309.4000244141</ele>
        <time>2026-07-05T09:17:16.000Z</time>
      </trkpt>
      <trkpt lat="44.93061" lon="5.75714">
        <ele>1309.5999755859</ele>
        <time>2026-07-05T09:17:17.000Z</time>
      </trkpt>
      <trkpt lat="44.9306" lon="5.75717">
        <ele>1309.5999755859</ele>
        <time>2026-07-05T09:17:18.000Z</time>
      </trkpt>
      <trkpt lat="44.9306" lon="5.75721">
        <ele>1309.4000244141</ele>
        <time>2026-07-05T09:17:19.000Z</time>
      </trkpt>
      <trkpt lat="44.93059" lon="5.75724">
        <ele>1309.4000244141</ele>
        <time>2026-07-05T09:17:20.000Z</time>
      </trkpt>
      <trkpt lat="44.93057" lon="5.75727">
        <ele>1309.1999511719</ele>
        <time>2026-07-05T09:17:21.000Z</time>
      </trkpt>
      <trkpt lat="44.93055" lon="5.75731">
        <ele>1309</ele>
        <time>2026-07-05T09:17:22.000Z</time>
      </trkpt>
      <trkpt lat="44.93054" lon="5.75734">
        <ele>1309</ele>
        <time>2026-07-05T09:17:23.000Z</time>
      </trkpt>
      <trkpt lat="44.93052" lon="5.75737">
        <ele>1308.8000488281</ele>
        <time>2026-07-05T09:17:24.000Z</time>
      </trkpt>
      <trkpt lat="44.93049" lon="5.7574">
        <ele>1308.8000488281</ele>
        <time>2026-07-05T09:17:25.000Z</time>
      </trkpt>
      <trkpt lat="44.93047" lon="5.75742">
        <ele>1308.8000488281</ele>
        <time>2026-07-05T09:17:26.000Z</time>
      </trkpt>
      <trkpt lat="44.93044" lon="5.75744">
        <ele>1308.5999755859</ele>
        <time>2026-07-05T09:17:27.000Z</time>
      </trkpt>
      <trkpt lat="44.93041" lon="5.75745">
        <ele>1308.5999755859</ele>
        <time>2026-07-05T09:17:28.000Z</time>
      </trkpt>
      <trkpt lat="44.93038" lon="5.75746">
        <ele>1308.4000244141</ele>
        <time>2026-07-05T09:17:29.000Z</time>
      </trkpt>
      <trkpt lat="44.93036" lon="5.75747">
        <ele>1308.4000244141</ele>
        <time>2026-07-05T09:17:30.000Z</time>
      </trkpt>
      <trkpt lat="44.93033" lon="5.75748">
        <ele>1308</ele>
        <time>2026-07-05T09:17:31.000Z</time>
      </trkpt>
      <trkpt lat="44.9303" lon="5.75748">
        <ele>1307.8000488281</ele>
        <time>2026-07-05T09:17:32.000Z</time>
      </trkpt>
      <trkpt lat="44.93026" lon="5.75747">
        <ele>1307.5999755859</ele>
        <time>2026-07-05T09:17:33.000Z</time>
      </trkpt>
      <trkpt lat="44.93024" lon="5.75746">
        <ele>1307.4000244141</ele>
        <time>2026-07-05T09:17:34.000Z</time>
      </trkpt>
      <trkpt lat="44.93022" lon="5.75745">
        <ele>1307.1999511719</ele>
        <time>2026-07-05T09:17:35.000Z</time>
      </trkpt>
      <trkpt lat="44.9302" lon="5.75743">
        <ele>1307.1999511719</ele>
        <time>2026-07-05T09:17:36.000Z</time>
      </trkpt>
      <trkpt lat="44.93018" lon="5.75742">
        <ele>1307</ele>
        <time>2026-07-05T09:17:37.000Z</time>
      </trkpt>
      <trkpt lat="44.93015" lon="5.7574">
        <ele>1307</ele>
        <time>2026-07-05T09:17:38.000Z</time>
      </trkpt>
      <trkpt lat="44.93013" lon="5.75739">
        <ele>1307.1999511719</ele>
        <time>2026-07-05T09:17:39.000Z</time>
      </trkpt>
      <trkpt lat="44.9301" lon="5.75738">
        <ele>1307.1999511719</ele>
        <time>2026-07-05T09:17:40.000Z</time>
      </trkpt>
      <trkpt lat="44.93009" lon="5.75738">
        <ele>1307.4000244141</ele>
        <time>2026-07-05T09:17:41.000Z</time>
      </trkpt>
      <trkpt lat="44.93007" lon="5.75739">
        <ele>1307.5999755859</ele>
        <time>2026-07-05T09:17:42.000Z</time>
      </trkpt>
      <trkpt lat="44.93005" lon="5.75741">
        <ele>1307.5999755859</ele>
        <time>2026-07-05T09:17:43.000Z</time>
      </trkpt>
      <trkpt lat="44.93003" lon="5.75742">
        <ele>1307.8000488281</ele>
        <time>2026-07-05T09:17:44.000Z</time>
      </trkpt>
      <trkpt lat="44.93001" lon="5.75743">
        <ele>1307.8000488281</ele>
        <time>2026-07-05T09:17:45.000Z</time>
      </trkpt>
      <trkpt lat="44.92999" lon="5.75745">
        <ele>1307.8000488281</ele>
        <time>2026-07-05T09:17:46.000Z</time>
      </trkpt>
      <trkpt lat="44.92997" lon="5.75745">
        <ele>1308</ele>
        <time>2026-07-05T09:17:47.000Z</time>
      </trkpt>
      <trkpt lat="44.92995" lon="5.75746">
        <ele>1307.8000488281</ele>
        <time>2026-07-05T09:17:48.000Z</time>
      </trkpt>
      <trkpt lat="44.92991" lon="5.75746">
        <ele>1307.8000488281</ele>
        <time>2026-07-05T09:17:49.000Z</time>
      </trkpt>
      <trkpt lat="44.92989" lon="5.75746">
        <ele>1307.5999755859</ele>
        <time>2026-07-05T09:17:50.000Z</time>
      </trkpt>
      <trkpt lat="44.92986" lon="5.75745">
        <ele>1307.4000244141</ele>
        <time>2026-07-05T09:17:51.000Z</time>
      </trkpt>
      <trkpt lat="44.92984" lon="5.75745">
        <ele>1307</ele>
        <time>2026-07-05T09:17:52.000Z</time>
      </trkpt>
      <trkpt lat="44.92982" lon="5.75745">
        <ele>1306.4000244141</ele>
        <time>2026-07-05T09:17:53.000Z</time>
      </trkpt>
      <trkpt lat="44.92979" lon="5.75746">
        <ele>1305.5999755859</ele>
        <time>2026-07-05T09:17:54.000Z</time>
      </trkpt>
      <trkpt lat="44.92976" lon="5.75746">
        <ele>1305.1999511719</ele>
        <time>2026-07-05T09:17:55.000Z</time>
      </trkpt>
      <trkpt lat="44.92974" lon="5.75745">
        <ele>1304.8000488281</ele>
        <time>2026-07-05T09:17:56.000Z</time>
      </trkpt>
      <trkpt lat="44.92971" lon="5.75746">
        <ele>1304.5999755859</ele>
        <time>2026-07-05T09:17:57.000Z</time>
      </trkpt>
      <trkpt lat="44.92969" lon="5.75746">
        <ele>1304.1999511719</ele>
        <time>2026-07-05T09:17:58.000Z</time>
      </trkpt>
      <trkpt lat="44.92966" lon="5.75747">
        <ele>1304.1999511719</ele>
        <time>2026-07-05T09:17:59.000Z</time>
      </trkpt>
      <trkpt lat="44.92964" lon="5.75747">
        <ele>1303.8000488281</ele>
        <time>2026-07-05T09:18:00.000Z</time>
      </trkpt>
      <trkpt lat="44.92962" lon="5.75747">
        <ele>1303.8000488281</ele>
        <time>2026-07-05T09:18:01.000Z</time>
      </trkpt>
      <trkpt lat="44.9296" lon="5.75747">
        <ele>1303.5999755859</ele>
        <time>2026-07-05T09:18:02.000Z</time>
      </trkpt>
      <trkpt lat="44.92958" lon="5.75747">
        <ele>1303.4000244141</ele>
        <time>2026-07-05T09:18:03.000Z</time>
      </trkpt>
      <trkpt lat="44.92956" lon="5.75747">
        <ele>1303.1999511719</ele>
        <time>2026-07-05T09:18:04.000Z</time>
      </trkpt>
      <trkpt lat="44.92953" lon="5.75747">
        <ele>1302.8000488281</ele>
        <time>2026-07-05T09:18:05.000Z</time>
      </trkpt>
      <trkpt lat="44.92951" lon="5.75748">
        <ele>1302.4000244141</ele>
        <time>2026-07-05T09:18:06.000Z</time>
      </trkpt>
      <trkpt lat="44.92948" lon="5.75747">
        <ele>1302.4000244141</ele>
        <time>2026-07-05T09:18:07.000Z</time>
      </trkpt>
      <trkpt lat="44.92946" lon="5.75746">
        <ele>1302.1999511719</ele>
        <time>2026-07-05T09:18:08.000Z</time>
      </trkpt>
      <trkpt lat="44.92943" lon="5.75745">
        <ele>1301.8000488281</ele>
        <time>2026-07-05T09:18:09.000Z</time>
      </trkpt>
      <trkpt lat="44.9294" lon="5.75744">
        <ele>1301.5999755859</ele>
        <time>2026-07-05T09:18:10.000Z</time>
      </trkpt>
      <trkpt lat="44.92938" lon="5.75744">
        <ele>1301.4000244141</ele>
        <time>2026-07-05T09:18:11.000Z</time>
      </trkpt>
      <trkpt lat="44.92935" lon="5.75745">
        <ele>1301.1999511719</ele>
        <time>2026-07-05T09:18:12.000Z</time>
      </trkpt>
      <trkpt lat="44.92933" lon="5.75745">
        <ele>1301</ele>
        <time>2026-07-05T09:18:13.000Z</time>
      </trkpt>
      <trkpt lat="44.92931" lon="5.75746">
        <ele>1301</ele>
        <time>2026-07-05T09:18:14.000Z</time>
      </trkpt>
      <trkpt lat="44.9293" lon="5.75747">
        <ele>1300.8000488281</ele>
        <time>2026-07-05T09:18:15.000Z</time>
      </trkpt>
      <trkpt lat="44.92929" lon="5.75748">
        <ele>1300.5999755859</ele>
        <time>2026-07-05T09:18:16.000Z</time>
      </trkpt>
      <trkpt lat="44.9293" lon="5.75748">
        <ele>1300.4000244141</ele>
        <time>2026-07-05T09:18:17.000Z</time>
      </trkpt>
      <trkpt lat="44.92932" lon="5.75748">
        <ele>1300</ele>
        <time>2026-07-05T09:18:18.000Z</time>
      </trkpt>
      <trkpt lat="44.92933" lon="5.75748">
        <ele>1299.5999755859</ele>
        <time>2026-07-05T09:18:19.000Z</time>
      </trkpt>
      <trkpt lat="44.92934" lon="5.75749">
        <ele>1299.4000244141</ele>
        <time>2026-07-05T09:18:20.000Z</time>
      </trkpt>
      <trkpt lat="44.92935" lon="5.75749">
        <ele>1298.8000488281</ele>
        <time>2026-07-05T09:18:21.000Z</time>
      </trkpt>
      <trkpt lat="44.92936" lon="5.7575">
        <ele>1298.4000244141</ele>
        <time>2026-07-05T09:18:22.000Z</time>
      </trkpt>
      <trkpt lat="44.92937" lon="5.7575">
        <ele>1297.8000488281</ele>
        <time>2026-07-05T09:18:23.000Z</time>
      </trkpt>
      <trkpt lat="44.92938" lon="5.75751">
        <ele>1297</ele>
        <time>2026-07-05T09:18:24.000Z</time>
      </trkpt>
      <trkpt lat="44.9294" lon="5.75752">
        <ele>1296.1999511719</ele>
        <time>2026-07-05T09:18:25.000Z</time>
      </trkpt>
      <trkpt lat="44.9294" lon="5.75752">
        <ele>1295.4000244141</ele>
        <time>2026-07-05T09:18:26.000Z</time>
      </trkpt>
      <trkpt lat="44.92941" lon="5.75753">
        <ele>1295.1999511719</ele>
        <time>2026-07-05T09:18:27.000Z</time>
      </trkpt>
      <trkpt lat="44.92941" lon="5.75753">
        <ele>1294.5999755859</ele>
        <time>2026-07-05T09:18:28.000Z</time>
      </trkpt>
      <trkpt lat="44.92942" lon="5.75754">
        <ele>1294</ele>
        <time>2026-07-05T09:18:29.000Z</time>
      </trkpt>
      <trkpt lat="44.92944" lon="5.75755">
        <ele>1293.5999755859</ele>
        <time>2026-07-05T09:18:30.000Z</time>
      </trkpt>
      <trkpt lat="44.92945" lon="5.75755">
        <ele>1292.8000488281</ele>
        <time>2026-07-05T09:18:31.000Z</time>
      </trkpt>
      <trkpt lat="44.92947" lon="5.75756">
        <ele>1292.1999511719</ele>
        <time>2026-07-05T09:18:32.000Z</time>
      </trkpt>
      <trkpt lat="44.92948" lon="5.75757">
        <ele>1291.4000244141</ele>
        <time>2026-07-05T09:18:33.000Z</time>
      </trkpt>
      <trkpt lat="44.92949" lon="5.7576">
        <ele>1290.8000488281</ele>
        <time>2026-07-05T09:18:34.000Z</time>
      </trkpt>
      <trkpt lat="44.92948" lon="5.75761">
        <ele>1290.4000244141</ele>
        <time>2026-07-05T09:18:35.000Z</time>
      </trkpt>
      <trkpt lat="44.92949" lon="5.75763">
        <ele>1290.1999511719</ele>
        <time>2026-07-05T09:18:36.000Z</time>
      </trkpt>
      <trkpt lat="44.92949" lon="5.75764">
        <ele>1289.4000244141</ele>
        <time>2026-07-05T09:18:37.000Z</time>
      </trkpt>
      <trkpt lat="44.9295" lon="5.75766">
        <ele>1288.8000488281</ele>
        <time>2026-07-05T09:18:38.000Z</time>
      </trkpt>
      <trkpt lat="44.92952" lon="5.75767">
        <ele>1288</ele>
        <time>2026-07-05T09:18:39.000Z</time>
      </trkpt>
      <trkpt lat="44.92953" lon="5.75767">
        <ele>1287.5999755859</ele>
        <time>2026-07-05T09:18:40.000Z</time>
      </trkpt>
      <trkpt lat="44.92955" lon="5.75768">
        <ele>1287.1999511719</ele>
        <time>2026-07-05T09:18:41.000Z</time>
      </trkpt>
      <trkpt lat="44.92956" lon="5.7577">
        <ele>1287</ele>
        <time>2026-07-05T09:18:42.000Z</time>
      </trkpt>
      <trkpt lat="44.92957" lon="5.75771">
        <ele>1286.8000488281</ele>
        <time>2026-07-05T09:18:43.000Z</time>
      </trkpt>
      <trkpt lat="44.92957" lon="5.75773">
        <ele>1286.5999755859</ele>
        <time>2026-07-05T09:18:44.000Z</time>
      </trkpt>
      <trkpt lat="44.92959" lon="5.75774">
        <ele>1285.8000488281</ele>
        <time>2026-07-05T09:18:45.000Z</time>
      </trkpt>
      <trkpt lat="44.9296" lon="5.75776">
        <ele>1285.4000244141</ele>
        <time>2026-07-05T09:18:46.000Z</time>
      </trkpt>
      <trkpt lat="44.92961" lon="5.75778">
        <ele>1284.4000244141</ele>
        <time>2026-07-05T09:18:47.000Z</time>
      </trkpt>
      <trkpt lat="44.92963" lon="5.75779">
        <ele>1283.8000488281</ele>
        <time>2026-07-05T09:18:48.000Z</time>
      </trkpt>
      <trkpt lat="44.92965" lon="5.75779">
        <ele>1283.5999755859</ele>
        <time>2026-07-05T09:18:49.000Z</time>
      </trkpt>
      <trkpt lat="44.92967" lon="5.75779">
        <ele>1283.4000244141</ele>
        <time>2026-07-05T09:18:50.000Z</time>
      </trkpt>
      <trkpt lat="44.92969" lon="5.7578">
        <ele>1283.1999511719</ele>
        <time>2026-07-05T09:18:51.000Z</time>
      </trkpt>
      <trkpt lat="44.9297" lon="5.75782">
        <ele>1283.1999511719</ele>
        <time>2026-07-05T09:18:52.000Z</time>
      </trkpt>
      <trkpt lat="44.92972" lon="5.75783">
        <ele>1283.1999511719</ele>
        <time>2026-07-05T09:18:53.000Z</time>
      </trkpt>
      <trkpt lat="44.92973" lon="5.75786">
        <ele>1283.1999511719</ele>
        <time>2026-07-05T09:18:54.000Z</time>
      </trkpt>
      <trkpt lat="44.92973" lon="5.75789">
        <ele>1283.1999511719</ele>
        <time>2026-07-05T09:18:55.000Z</time>
      </trkpt>
      <trkpt lat="44.92971" lon="5.75791">
        <ele>1282.8000488281</ele>
        <time>2026-07-05T09:18:56.000Z</time>
      </trkpt>
      <trkpt lat="44.9297" lon="5.75791">
        <ele>1282.4000244141</ele>
        <time>2026-07-05T09:18:57.000Z</time>
      </trkpt>
      <trkpt lat="44.92969" lon="5.75791">
        <ele>1282.1999511719</ele>
        <time>2026-07-05T09:18:58.000Z</time>
      </trkpt>
      <trkpt lat="44.92968" lon="5.75793">
        <ele>1281.1999511719</ele>
        <time>2026-07-05T09:18:59.000Z</time>
      </trkpt>
      <trkpt lat="44.92967" lon="5.75795">
        <ele>1281</ele>
        <time>2026-07-05T09:19:00.000Z</time>
      </trkpt>
      <trkpt lat="44.92966" lon="5.75796">
        <ele>1280.5999755859</ele>
        <time>2026-07-05T09:19:01.000Z</time>
      </trkpt>
      <trkpt lat="44.92965" lon="5.75798">
        <ele>1280.4000244141</ele>
        <time>2026-07-05T09:19:02.000Z</time>
      </trkpt>
      <trkpt lat="44.92965" lon="5.75801">
        <ele>1279.5999755859</ele>
        <time>2026-07-05T09:19:03.000Z</time>
      </trkpt>
      <trkpt lat="44.92966" lon="5.75804">
        <ele>1279</ele>
        <time>2026-07-05T09:19:04.000Z</time>
      </trkpt>
      <trkpt lat="44.92967" lon="5.75806">
        <ele>1278.5999755859</ele>
        <time>2026-07-05T09:19:05.000Z</time>
      </trkpt>
      <trkpt lat="44.92968" lon="5.75808">
        <ele>1278</ele>
        <time>2026-07-05T09:19:06.000Z</time>
      </trkpt>
      <trkpt lat="44.92969" lon="5.75809">
        <ele>1277.5999755859</ele>
        <time>2026-07-05T09:19:07.000Z</time>
      </trkpt>
      <trkpt lat="44.9297" lon="5.75812">
        <ele>1277.1999511719</ele>
        <time>2026-07-05T09:19:08.000Z</time>
      </trkpt>
      <trkpt lat="44.92969" lon="5.75814">
        <ele>1277</ele>
        <time>2026-07-05T09:19:09.000Z</time>
      </trkpt>
      <trkpt lat="44.92968" lon="5.75816">
        <ele>1276.4000244141</ele>
        <time>2026-07-05T09:19:10.000Z</time>
      </trkpt>
      <trkpt lat="44.92967" lon="5.75817">
        <ele>1276.1999511719</ele>
        <time>2026-07-05T09:19:11.000Z</time>
      </trkpt>
      <trkpt lat="44.92967" lon="5.75819">
        <ele>1275.8000488281</ele>
        <time>2026-07-05T09:19:12.000Z</time>
      </trkpt>
      <trkpt lat="44.92966" lon="5.75821">
        <ele>1275.4000244141</ele>
        <time>2026-07-05T09:19:13.000Z</time>
      </trkpt>
      <trkpt lat="44.92964" lon="5.75823">
        <ele>1275</ele>
        <time>2026-07-05T09:19:14.000Z</time>
      </trkpt>
      <trkpt lat="44.92964" lon="5.75825">
        <ele>1274.5999755859</ele>
        <time>2026-07-05T09:19:15.000Z</time>
      </trkpt>
      <trkpt lat="44.92963" lon="5.75826">
        <ele>1274.1999511719</ele>
        <time>2026-07-05T09:19:16.000Z</time>
      </trkpt>
      <trkpt lat="44.92963" lon="5.75826">
        <ele>1273.8000488281</ele>
        <time>2026-07-05T09:19:17.000Z</time>
      </trkpt>
      <trkpt lat="44.92964" lon="5.75828">
        <ele>1273.4000244141</ele>
        <time>2026-07-05T09:19:18.000Z</time>
      </trkpt>
      <trkpt lat="44.92964" lon="5.75828">
        <ele>1273.1999511719</ele>
        <time>2026-07-05T09:19:19.000Z</time>
      </trkpt>
      <trkpt lat="44.92965" lon="5.75829">
        <ele>1272.5999755859</ele>
        <time>2026-07-05T09:19:20.000Z</time>
      </trkpt>
      <trkpt lat="44.92966" lon="5.75829">
        <ele>1272.4000244141</ele>
        <time>2026-07-05T09:19:21.000Z</time>
      </trkpt>
      <trkpt lat="44.92967" lon="5.7583">
        <ele>1271.5999755859</ele>
        <time>2026-07-05T09:19:22.000Z</time>
      </trkpt>
      <trkpt lat="44.92968" lon="5.75832">
        <ele>1271.1999511719</ele>
        <time>2026-07-05T09:19:23.000Z</time>
      </trkpt>
      <trkpt lat="44.92969" lon="5.75835">
        <ele>1270.8000488281</ele>
        <time>2026-07-05T09:19:24.000Z</time>
      </trkpt>
      <trkpt lat="44.92971" lon="5.75836">
        <ele>1270.1999511719</ele>
        <time>2026-07-05T09:19:25.000Z</time>
      </trkpt>
      <trkpt lat="44.92973" lon="5.75836">
        <ele>1270</ele>
        <time>2026-07-05T09:19:26.000Z</time>
      </trkpt>
      <trkpt lat="44.92974" lon="5.75837">
        <ele>1269.5999755859</ele>
        <time>2026-07-05T09:19:27.000Z</time>
      </trkpt>
      <trkpt lat="44.92976" lon="5.75839">
        <ele>1269.4000244141</ele>
        <time>2026-07-05T09:19:28.000Z</time>
      </trkpt>
      <trkpt lat="44.92977" lon="5.7584">
        <ele>1269.1999511719</ele>
        <time>2026-07-05T09:19:29.000Z</time>
      </trkpt>
      <trkpt lat="44.92978" lon="5.75842">
        <ele>1269</ele>
        <time>2026-07-05T09:19:30.000Z</time>
      </trkpt>
      <trkpt lat="44.92979" lon="5.75843">
        <ele>1268.8000488281</ele>
        <time>2026-07-05T09:19:31.000Z</time>
      </trkpt>
      <trkpt lat="44.92981" lon="5.75846">
        <ele>1268.4000244141</ele>
        <time>2026-07-05T09:19:32.000Z</time>
      </trkpt>
      <trkpt lat="44.92982" lon="5.75847">
        <ele>1268</ele>
        <time>2026-07-05T09:19:33.000Z</time>
      </trkpt>
      <trkpt lat="44.92983" lon="5.7585">
        <ele>1267.8000488281</ele>
        <time>2026-07-05T09:19:34.000Z</time>
      </trkpt>
      <trkpt lat="44.92984" lon="5.75852">
        <ele>1267</ele>
        <time>2026-07-05T09:19:35.000Z</time>
      </trkpt>
      <trkpt lat="44.92985" lon="5.75854">
        <ele>1266.5999755859</ele>
        <time>2026-07-05T09:19:36.000Z</time>
      </trkpt>
      <trkpt lat="44.92985" lon="5.75856">
        <ele>1266</ele>
        <time>2026-07-05T09:19:37.000Z</time>
      </trkpt>
      <trkpt lat="44.92986" lon="5.75858">
        <ele>1265.4000244141</ele>
        <time>2026-07-05T09:19:38.000Z</time>
      </trkpt>
      <trkpt lat="44.92987" lon="5.75861">
        <ele>1264.8000488281</ele>
        <time>2026-07-05T09:19:39.000Z</time>
      </trkpt>
      <trkpt lat="44.92988" lon="5.75863">
        <ele>1264.1999511719</ele>
        <time>2026-07-05T09:19:40.000Z</time>
      </trkpt>
      <trkpt lat="44.92988" lon="5.75865">
        <ele>1264</ele>
        <time>2026-07-05T09:19:41.000Z</time>
      </trkpt>
      <trkpt lat="44.92989" lon="5.75867">
        <ele>1263.5999755859</ele>
        <time>2026-07-05T09:19:42.000Z</time>
      </trkpt>
      <trkpt lat="44.9299" lon="5.75868">
        <ele>1263</ele>
        <time>2026-07-05T09:19:43.000Z</time>
      </trkpt>
      <trkpt lat="44.92991" lon="5.7587">
        <ele>1262.5999755859</ele>
        <time>2026-07-05T09:19:44.000Z</time>
      </trkpt>
      <trkpt lat="44.92992" lon="5.75873">
        <ele>1262.4000244141</ele>
        <time>2026-07-05T09:19:45.000Z</time>
      </trkpt>
      <trkpt lat="44.92993" lon="5.75875">
        <ele>1261.8000488281</ele>
        <time>2026-07-05T09:19:46.000Z</time>
      </trkpt>
      <trkpt lat="44.92994" lon="5.75877">
        <ele>1261.8000488281</ele>
        <time>2026-07-05T09:19:47.000Z</time>
      </trkpt>
      <trkpt lat="44.92995" lon="5.75878">
        <ele>1261.5999755859</ele>
        <time>2026-07-05T09:19:48.000Z</time>
      </trkpt>
      <trkpt lat="44.92996" lon="5.75879">
        <ele>1261</ele>
        <time>2026-07-05T09:19:49.000Z</time>
      </trkpt>
      <trkpt lat="44.92997" lon="5.75881">
        <ele>1260.5999755859</ele>
        <time>2026-07-05T09:19:50.000Z</time>
      </trkpt>
      <trkpt lat="44.92998" lon="5.75882">
        <ele>1260.4000244141</ele>
        <time>2026-07-05T09:19:51.000Z</time>
      </trkpt>
      <trkpt lat="44.92998" lon="5.75884">
        <ele>1260</ele>
        <time>2026-07-05T09:19:52.000Z</time>
      </trkpt>
      <trkpt lat="44.92999" lon="5.75885">
        <ele>1260</ele>
        <time>2026-07-05T09:19:53.000Z</time>
      </trkpt>
      <trkpt lat="44.93" lon="5.75887">
        <ele>1259.8000488281</ele>
        <time>2026-07-05T09:19:54.000Z</time>
      </trkpt>
      <trkpt lat="44.93001" lon="5.75887">
        <ele>1259.5999755859</ele>
        <time>2026-07-05T09:19:55.000Z</time>
      </trkpt>
      <trkpt lat="44.93002" lon="5.75889">
        <ele>1258.8000488281</ele>
        <time>2026-07-05T09:19:56.000Z</time>
      </trkpt>
      <trkpt lat="44.93003" lon="5.7589">
        <ele>1258.4000244141</ele>
        <time>2026-07-05T09:19:57.000Z</time>
      </trkpt>
      <trkpt lat="44.93005" lon="5.75891">
        <ele>1258</ele>
        <time>2026-07-05T09:19:58.000Z</time>
      </trkpt>
      <trkpt lat="44.93007" lon="5.75892">
        <ele>1257.5999755859</ele>
        <time>2026-07-05T09:19:59.000Z</time>
      </trkpt>
      <trkpt lat="44.93009" lon="5.75893">
        <ele>1257.1999511719</ele>
        <time>2026-07-05T09:20:00.000Z</time>
      </trkpt>
      <trkpt lat="44.93011" lon="5.75894">
        <ele>1256.8000488281</ele>
        <time>2026-07-05T09:20:01.000Z</time>
      </trkpt>
      <trkpt lat="44.93012" lon="5.75894">
        <ele>1256</ele>
        <time>2026-07-05T09:20:02.000Z</time>
      </trkpt>
      <trkpt lat="44.93013" lon="5.75895">
        <ele>1255.1999511719</ele>
        <time>2026-07-05T09:20:03.000Z</time>
      </trkpt>
      <trkpt lat="44.93013" lon="5.75895">
        <ele>1255</ele>
        <time>2026-07-05T09:20:04.000Z</time>
      </trkpt>
      <trkpt lat="44.93015" lon="5.75897">
        <ele>1254.4000244141</ele>
        <time>2026-07-05T09:20:05.000Z</time>
      </trkpt>
      <trkpt lat="44.93017" lon="5.75898">
        <ele>1254.1999511719</ele>
        <time>2026-07-05T09:20:06.000Z</time>
      </trkpt>
      <trkpt lat="44.93019" lon="5.759">
        <ele>1253.8000488281</ele>
        <time>2026-07-05T09:20:07.000Z</time>
      </trkpt>
      <trkpt lat="44.93021" lon="5.75901">
        <ele>1253.4000244141</ele>
        <time>2026-07-05T09:20:08.000Z</time>
      </trkpt>
      <trkpt lat="44.93022" lon="5.75903">
        <ele>1253.1999511719</ele>
        <time>2026-07-05T09:20:09.000Z</time>
      </trkpt>
      <trkpt lat="44.93023" lon="5.75905">
        <ele>1252.8000488281</ele>
        <time>2026-07-05T09:20:10.000Z</time>
      </trkpt>
      <trkpt lat="44.93025" lon="5.75908">
        <ele>1252.5999755859</ele>
        <time>2026-07-05T09:20:11.000Z</time>
      </trkpt>
      <trkpt lat="44.93026" lon="5.75912">
        <ele>1252</ele>
        <time>2026-07-05T09:20:12.000Z</time>
      </trkpt>
      <trkpt lat="44.93026" lon="5.75914">
        <ele>1251.4000244141</ele>
        <time>2026-07-05T09:20:13.000Z</time>
      </trkpt>
      <trkpt lat="44.93026" lon="5.75916">
        <ele>1251</ele>
        <time>2026-07-05T09:20:14.000Z</time>
      </trkpt>
      <trkpt lat="44.93027" lon="5.75918">
        <ele>1250.5999755859</ele>
        <time>2026-07-05T09:20:15.000Z</time>
      </trkpt>
      <trkpt lat="44.93028" lon="5.75919">
        <ele>1250.4000244141</ele>
        <time>2026-07-05T09:20:16.000Z</time>
      </trkpt>
      <trkpt lat="44.93028" lon="5.75919">
        <ele>1250</ele>
        <time>2026-07-05T09:20:17.000Z</time>
      </trkpt>
      <trkpt lat="44.93029" lon="5.75919">
        <ele>1249.5999755859</ele>
        <time>2026-07-05T09:20:18.000Z</time>
      </trkpt>
      <trkpt lat="44.9303" lon="5.75919">
        <ele>1249.1999511719</ele>
        <time>2026-07-05T09:20:19.000Z</time>
      </trkpt>
      <trkpt lat="44.93031" lon="5.75921">
        <ele>1248.8000488281</ele>
        <time>2026-07-05T09:20:20.000Z</time>
      </trkpt>
      <trkpt lat="44.93032" lon="5.75922">
        <ele>1248.4000244141</ele>
        <time>2026-07-05T09:20:21.000Z</time>
      </trkpt>
      <trkpt lat="44.93033" lon="5.75925">
        <ele>1247.8000488281</ele>
        <time>2026-07-05T09:20:22.000Z</time>
      </trkpt>
      <trkpt lat="44.93034" lon="5.75928">
        <ele>1247.4000244141</ele>
        <time>2026-07-05T09:20:23.000Z</time>
      </trkpt>
      <trkpt lat="44.93034" lon="5.7593">
        <ele>1247</ele>
        <time>2026-07-05T09:20:24.000Z</time>
      </trkpt>
      <trkpt lat="44.93034" lon="5.75932">
        <ele>1246.4000244141</ele>
        <time>2026-07-05T09:20:25.000Z</time>
      </trkpt>
      <trkpt lat="44.93034" lon="5.75933">
        <ele>1245.8000488281</ele>
        <time>2026-07-05T09:20:26.000Z</time>
      </trkpt>
      <trkpt lat="44.93034" lon="5.75935">
        <ele>1245.5999755859</ele>
        <time>2026-07-05T09:20:27.000Z</time>
      </trkpt>
      <trkpt lat="44.93034" lon="5.75936">
        <ele>1245.1999511719</ele>
        <time>2026-07-05T09:20:28.000Z</time>
      </trkpt>
      <trkpt lat="44.93034" lon="5.75937">
        <ele>1244.8000488281</ele>
        <time>2026-07-05T09:20:29.000Z</time>
      </trkpt>
      <trkpt lat="44.93035" lon="5.75938">
        <ele>1244.4000244141</ele>
        <time>2026-07-05T09:20:30.000Z</time>
      </trkpt>
      <trkpt lat="44.93036" lon="5.75939">
        <ele>1243.8000488281</ele>
        <time>2026-07-05T09:20:31.000Z</time>
      </trkpt>
      <trkpt lat="44.93037" lon="5.7594">
        <ele>1243.4000244141</ele>
        <time>2026-07-05T09:20:32.000Z</time>
      </trkpt>
      <trkpt lat="44.93037" lon="5.75943">
        <ele>1243.1999511719</ele>
        <time>2026-07-05T09:20:33.000Z</time>
      </trkpt>
      <trkpt lat="44.93037" lon="5.75944">
        <ele>1242.8000488281</ele>
        <time>2026-07-05T09:20:34.000Z</time>
      </trkpt>
      <trkpt lat="44.93037" lon="5.75946">
        <ele>1242.5999755859</ele>
        <time>2026-07-05T09:20:35.000Z</time>
      </trkpt>
      <trkpt lat="44.93037" lon="5.75948">
        <ele>1242.4000244141</ele>
        <time>2026-07-05T09:20:36.000Z</time>
      </trkpt>
      <trkpt lat="44.93036" lon="5.7595">
        <ele>1242.1999511719</ele>
        <time>2026-07-05T09:20:37.000Z</time>
      </trkpt>
      <trkpt lat="44.93036" lon="5.75951">
        <ele>1241.8000488281</ele>
        <time>2026-07-05T09:20:38.000Z</time>
      </trkpt>
      <trkpt lat="44.93035" lon="5.75953">
        <ele>1241.4000244141</ele>
        <time>2026-07-05T09:20:39.000Z</time>
      </trkpt>
      <trkpt lat="44.93035" lon="5.75954">
        <ele>1241</ele>
        <time>2026-07-05T09:20:40.000Z</time>
      </trkpt>
      <trkpt lat="44.93035" lon="5.75956">
        <ele>1240.8000488281</ele>
        <time>2026-07-05T09:20:41.000Z</time>
      </trkpt>
      <trkpt lat="44.93034" lon="5.75958">
        <ele>1240</ele>
        <time>2026-07-05T09:20:42.000Z</time>
      </trkpt>
      <trkpt lat="44.93034" lon="5.75959">
        <ele>1239.4000244141</ele>
        <time>2026-07-05T09:20:43.000Z</time>
      </trkpt>
      <trkpt lat="44.93034" lon="5.7596">
        <ele>1239.1999511719</ele>
        <time>2026-07-05T09:20:44.000Z</time>
      </trkpt>
      <trkpt lat="44.93033" lon="5.75963">
        <ele>1238.5999755859</ele>
        <time>2026-07-05T09:20:45.000Z</time>
      </trkpt>
      <trkpt lat="44.93033" lon="5.75966">
        <ele>1238</ele>
        <time>2026-07-05T09:20:46.000Z</time>
      </trkpt>
      <trkpt lat="44.93032" lon="5.75967">
        <ele>1237.4000244141</ele>
        <time>2026-07-05T09:20:47.000Z</time>
      </trkpt>
      <trkpt lat="44.93032" lon="5.75968">
        <ele>1236.8000488281</ele>
        <time>2026-07-05T09:20:48.000Z</time>
      </trkpt>
      <trkpt lat="44.93031" lon="5.75969">
        <ele>1236.4000244141</ele>
        <time>2026-07-05T09:20:49.000Z</time>
      </trkpt>
      <trkpt lat="44.93032" lon="5.75971">
        <ele>1235.8000488281</ele>
        <time>2026-07-05T09:20:50.000Z</time>
      </trkpt>
      <trkpt lat="44.93032" lon="5.75972">
        <ele>1235.4000244141</ele>
        <time>2026-07-05T09:20:51.000Z</time>
      </trkpt>
      <trkpt lat="44.93032" lon="5.75973">
        <ele>1235</ele>
        <time>2026-07-05T09:20:52.000Z</time>
      </trkpt>
      <trkpt lat="44.93032" lon="5.75973">
        <ele>1234.4000244141</ele>
        <time>2026-07-05T09:20:53.000Z</time>
      </trkpt>
      <trkpt lat="44.93033" lon="5.75976">
        <ele>1234</ele>
        <time>2026-07-05T09:20:54.000Z</time>
      </trkpt>
      <trkpt lat="44.93033" lon="5.75978">
        <ele>1233.5999755859</ele>
        <time>2026-07-05T09:20:55.000Z</time>
      </trkpt>
      <trkpt lat="44.93034" lon="5.75978">
        <ele>1233.1999511719</ele>
        <time>2026-07-05T09:20:56.000Z</time>
      </trkpt>
      <trkpt lat="44.93035" lon="5.75979">
        <ele>1233</ele>
        <time>2026-07-05T09:20:57.000Z</time>
      </trkpt>
      <trkpt lat="44.93036" lon="5.75979">
        <ele>1232.1999511719</ele>
        <time>2026-07-05T09:20:58.000Z</time>
      </trkpt>
      <trkpt lat="44.93037" lon="5.7598">
        <ele>1232</ele>
        <time>2026-07-05T09:20:59.000Z</time>
      </trkpt>
      <trkpt lat="44.93038" lon="5.75981">
        <ele>1231.5999755859</ele>
        <time>2026-07-05T09:21:00.000Z</time>
      </trkpt>
      <trkpt lat="44.9304" lon="5.75982">
        <ele>1231.5999755859</ele>
        <time>2026-07-05T09:21:01.000Z</time>
      </trkpt>
      <trkpt lat="44.93041" lon="5.75984">
        <ele>1231.4000244141</ele>
        <time>2026-07-05T09:21:02.000Z</time>
      </trkpt>
      <trkpt lat="44.93042" lon="5.75985">
        <ele>1231.1999511719</ele>
        <time>2026-07-05T09:21:03.000Z</time>
      </trkpt>
      <trkpt lat="44.93042" lon="5.75987">
        <ele>1231.1999511719</ele>
        <time>2026-07-05T09:21:04.000Z</time>
      </trkpt>
      <trkpt lat="44.93043" lon="5.75989">
        <ele>1230.8000488281</ele>
        <time>2026-07-05T09:21:05.000Z</time>
      </trkpt>
      <trkpt lat="44.93043" lon="5.7599">
        <ele>1230.5999755859</ele>
        <time>2026-07-05T09:21:06.000Z</time>
      </trkpt>
      <trkpt lat="44.93044" lon="5.75992">
        <ele>1230.4000244141</ele>
        <time>2026-07-05T09:21:07.000Z</time>
      </trkpt>
      <trkpt lat="44.93046" lon="5.75993">
        <ele>1229.8000488281</ele>
        <time>2026-07-05T09:21:08.000Z</time>
      </trkpt>
      <trkpt lat="44.93046" lon="5.75995">
        <ele>1229.5999755859</ele>
        <time>2026-07-05T09:21:09.000Z</time>
      </trkpt>
      <trkpt lat="44.93047" lon="5.75997">
        <ele>1229</ele>
        <time>2026-07-05T09:21:10.000Z</time>
      </trkpt>
      <trkpt lat="44.93049" lon="5.76">
        <ele>1228.5999755859</ele>
        <time>2026-07-05T09:21:11.000Z</time>
      </trkpt>
      <trkpt lat="44.9305" lon="5.76003">
        <ele>1228</ele>
        <time>2026-07-05T09:21:12.000Z</time>
      </trkpt>
      <trkpt lat="44.93051" lon="5.76007">
        <ele>1227.5999755859</ele>
        <time>2026-07-05T09:21:13.000Z</time>
      </trkpt>
      <trkpt lat="44.93051" lon="5.76009">
        <ele>1227.1999511719</ele>
        <time>2026-07-05T09:21:14.000Z</time>
      </trkpt>
      <trkpt lat="44.93051" lon="5.76012">
        <ele>1226</ele>
        <time>2026-07-05T09:21:15.000Z</time>
      </trkpt>
      <trkpt lat="44.93052" lon="5.76014">
        <ele>1225.8000488281</ele>
        <time>2026-07-05T09:21:16.000Z</time>
      </trkpt>
      <trkpt lat="44.93052" lon="5.76015">
        <ele>1224.8000488281</ele>
        <time>2026-07-05T09:21:17.000Z</time>
      </trkpt>
      <trkpt lat="44.93053" lon="5.76015">
        <ele>1224.8000488281</ele>
        <time>2026-07-05T09:21:18.000Z</time>
      </trkpt>
      <trkpt lat="44.93054" lon="5.76016">
        <ele>1224.5999755859</ele>
        <time>2026-07-05T09:21:19.000Z</time>
      </trkpt>
      <trkpt lat="44.93056" lon="5.76015">
        <ele>1224.1999511719</ele>
        <time>2026-07-05T09:21:20.000Z</time>
      </trkpt>
      <trkpt lat="44.93058" lon="5.76016">
        <ele>1224</ele>
        <time>2026-07-05T09:21:21.000Z</time>
      </trkpt>
      <trkpt lat="44.9306" lon="5.76018">
        <ele>1223.8000488281</ele>
        <time>2026-07-05T09:21:22.000Z</time>
      </trkpt>
      <trkpt lat="44.93061" lon="5.7602">
        <ele>1223.8000488281</ele>
        <time>2026-07-05T09:21:23.000Z</time>
      </trkpt>
      <trkpt lat="44.93063" lon="5.76024">
        <ele>1223.5999755859</ele>
        <time>2026-07-05T09:21:24.000Z</time>
      </trkpt>
      <trkpt lat="44.93064" lon="5.76027">
        <ele>1223.4000244141</ele>
        <time>2026-07-05T09:21:25.000Z</time>
      </trkpt>
      <trkpt lat="44.93066" lon="5.76031">
        <ele>1223.1999511719</ele>
        <time>2026-07-05T09:21:26.000Z</time>
      </trkpt>
      <trkpt lat="44.93067" lon="5.76034">
        <ele>1222.8000488281</ele>
        <time>2026-07-05T09:21:27.000Z</time>
      </trkpt>
      <trkpt lat="44.93067" lon="5.76039">
        <ele>1222.4000244141</ele>
        <time>2026-07-05T09:21:28.000Z</time>
      </trkpt>
      <trkpt lat="44.93068" lon="5.76042">
        <ele>1221.8000488281</ele>
        <time>2026-07-05T09:21:29.000Z</time>
      </trkpt>
      <trkpt lat="44.93069" lon="5.76045">
        <ele>1221.5999755859</ele>
        <time>2026-07-05T09:21:30.000Z</time>
      </trkpt>
      <trkpt lat="44.9307" lon="5.76048">
        <ele>1221</ele>
        <time>2026-07-05T09:21:31.000Z</time>
      </trkpt>
      <trkpt lat="44.9307" lon="5.76051">
        <ele>1220.8000488281</ele>
        <time>2026-07-05T09:21:32.000Z</time>
      </trkpt>
      <trkpt lat="44.93071" lon="5.76054">
        <ele>1220.4000244141</ele>
        <time>2026-07-05T09:21:33.000Z</time>
      </trkpt>
      <trkpt lat="44.93071" lon="5.76057">
        <ele>1220</ele>
        <time>2026-07-05T09:21:34.000Z</time>
      </trkpt>
      <trkpt lat="44.93071" lon="5.7606">
        <ele>1219.8000488281</ele>
        <time>2026-07-05T09:21:35.000Z</time>
      </trkpt>
      <trkpt lat="44.9307" lon="5.76063">
        <ele>1219.4000244141</ele>
        <time>2026-07-05T09:21:36.000Z</time>
      </trkpt>
      <trkpt lat="44.9307" lon="5.76066">
        <ele>1219.1999511719</ele>
        <time>2026-07-05T09:21:37.000Z</time>
      </trkpt>
      <trkpt lat="44.9307" lon="5.76069">
        <ele>1219</ele>
        <time>2026-07-05T09:21:38.000Z</time>
      </trkpt>
      <trkpt lat="44.9307" lon="5.76072">
        <ele>1219</ele>
        <time>2026-07-05T09:21:39.000Z</time>
      </trkpt>
      <trkpt lat="44.9307" lon="5.76075">
        <ele>1219</ele>
        <time>2026-07-05T09:21:40.000Z</time>
      </trkpt>
      <trkpt lat="44.93071" lon="5.76077">
        <ele>1218.8000488281</ele>
        <time>2026-07-05T09:21:41.000Z</time>
      </trkpt>
      <trkpt lat="44.93072" lon="5.7608">
        <ele>1218.8000488281</ele>
        <time>2026-07-05T09:21:42.000Z</time>
      </trkpt>
      <trkpt lat="44.93072" lon="5.76082">
        <ele>1218.5999755859</ele>
        <time>2026-07-05T09:21:43.000Z</time>
      </trkpt>
      <trkpt lat="44.93073" lon="5.76085">
        <ele>1218.5999755859</ele>
        <time>2026-07-05T09:21:44.000Z</time>
      </trkpt>
      <trkpt lat="44.93073" lon="5.76087">
        <ele>1218.4000244141</ele>
        <time>2026-07-05T09:21:45.000Z</time>
      </trkpt>
      <trkpt lat="44.93073" lon="5.76091">
        <ele>1218.1999511719</ele>
        <time>2026-07-05T09:21:46.000Z</time>
      </trkpt>
      <trkpt lat="44.93074" lon="5.76096">
        <ele>1218</ele>
        <time>2026-07-05T09:21:47.000Z</time>
      </trkpt>
      <trkpt lat="44.93074" lon="5.76101">
        <ele>1217.8000488281</ele>
        <time>2026-07-05T09:21:48.000Z</time>
      </trkpt>
      <trkpt lat="44.93074" lon="5.76105">
        <ele>1217.4000244141</ele>
        <time>2026-07-05T09:21:49.000Z</time>
      </trkpt>
      <trkpt lat="44.93074" lon="5.7611">
        <ele>1217</ele>
        <time>2026-07-05T09:21:50.000Z</time>
      </trkpt>
      <trkpt lat="44.93074" lon="5.76114">
        <ele>1216.8000488281</ele>
        <time>2026-07-05T09:21:51.000Z</time>
      </trkpt>
      <trkpt lat="44.93073" lon="5.76119">
        <ele>1216.5999755859</ele>
        <time>2026-07-05T09:21:52.000Z</time>
      </trkpt>
      <trkpt lat="44.93073" lon="5.76122">
        <ele>1216.5999755859</ele>
        <time>2026-07-05T09:21:53.000Z</time>
      </trkpt>
      <trkpt lat="44.93072" lon="5.76126">
        <ele>1216.5999755859</ele>
        <time>2026-07-05T09:21:54.000Z</time>
      </trkpt>
      <trkpt lat="44.93071" lon="5.76129">
        <ele>1216.5999755859</ele>
        <time>2026-07-05T09:21:55.000Z</time>
      </trkpt>
      <trkpt lat="44.93071" lon="5.76132">
        <ele>1216.8000488281</ele>
        <time>2026-07-05T09:21:56.000Z</time>
      </trkpt>
      <trkpt lat="44.93071" lon="5.76135">
        <ele>1217</ele>
        <time>2026-07-05T09:21:57.000Z</time>
      </trkpt>
      <trkpt lat="44.93071" lon="5.76137">
        <ele>1217</ele>
        <time>2026-07-05T09:21:58.000Z</time>
      </trkpt>
      <trkpt lat="44.93072" lon="5.76139">
        <ele>1217.1999511719</ele>
        <time>2026-07-05T09:21:59.000Z</time>
      </trkpt>
      <trkpt lat="44.93073" lon="5.7614">
        <ele>1217.4000244141</ele>
        <time>2026-07-05T09:22:00.000Z</time>
      </trkpt>
      <trkpt lat="44.93074" lon="5.7614">
        <ele>1217.5999755859</ele>
        <time>2026-07-05T09:22:01.000Z</time>
      </trkpt>
      <trkpt lat="44.93076" lon="5.76141">
        <ele>1217.5999755859</ele>
        <time>2026-07-05T09:22:02.000Z</time>
      </trkpt>
      <trkpt lat="44.93077" lon="5.76142">
        <ele>1217.4000244141</ele>
        <time>2026-07-05T09:22:03.000Z</time>
      </trkpt>
      <trkpt lat="44.93079" lon="5.76143">
        <ele>1217.1999511719</ele>
        <time>2026-07-05T09:22:04.000Z</time>
      </trkpt>
      <trkpt lat="44.9308" lon="5.76145">
        <ele>1217.1999511719</ele>
        <time>2026-07-05T09:22:05.000Z</time>
      </trkpt>
      <trkpt lat="44.9308" lon="5.76148">
        <ele>1217</ele>
        <time>2026-07-05T09:22:06.000Z</time>
      </trkpt>
      <trkpt lat="44.9308" lon="5.76151">
        <ele>1217.1999511719</ele>
        <time>2026-07-05T09:22:07.000Z</time>
      </trkpt>
      <trkpt lat="44.93079" lon="5.76154">
        <ele>1217.4000244141</ele>
        <time>2026-07-05T09:22:08.000Z</time>
      </trkpt>
      <trkpt lat="44.93079" lon="5.76157">
        <ele>1217.5999755859</ele>
        <time>2026-07-05T09:22:09.000Z</time>
      </trkpt>
      <trkpt lat="44.93079" lon="5.76159">
        <ele>1217.8000488281</ele>
        <time>2026-07-05T09:22:10.000Z</time>
      </trkpt>
      <trkpt lat="44.9308" lon="5.76161">
        <ele>1217.8000488281</ele>
        <time>2026-07-05T09:22:11.000Z</time>
      </trkpt>
      <trkpt lat="44.9308" lon="5.76163">
        <ele>1217.5999755859</ele>
        <time>2026-07-05T09:22:12.000Z</time>
      </trkpt>
      <trkpt lat="44.93081" lon="5.76165">
        <ele>1217.4000244141</ele>
        <time>2026-07-05T09:22:13.000Z</time>
      </trkpt>
      <trkpt lat="44.93082" lon="5.76168">
        <ele>1217.4000244141</ele>
        <time>2026-07-05T09:22:14.000Z</time>
      </trkpt>
      <trkpt lat="44.93083" lon="5.76171">
        <ele>1217.4000244141</ele>
        <time>2026-07-05T09:22:15.000Z</time>
      </trkpt>
      <trkpt lat="44.93083" lon="5.76173">
        <ele>1217.5999755859</ele>
        <time>2026-07-05T09:22:16.000Z</time>
      </trkpt>
      <trkpt lat="44.93084" lon="5.76177">
        <ele>1218</ele>
        <time>2026-07-05T09:22:17.000Z</time>
      </trkpt>
      <trkpt lat="44.93084" lon="5.7618">
        <ele>1218.4000244141</ele>
        <time>2026-07-05T09:22:18.000Z</time>
      </trkpt>
      <trkpt lat="44.93085" lon="5.76183">
        <ele>1218.5999755859</ele>
        <time>2026-07-05T09:22:19.000Z</time>
      </trkpt>
      <trkpt lat="44.93086" lon="5.76186">
        <ele>1218.5999755859</ele>
        <time>2026-07-05T09:22:20.000Z</time>
      </trkpt>
      <trkpt lat="44.93086" lon="5.76189">
        <ele>1218.8000488281</ele>
        <time>2026-07-05T09:22:21.000Z</time>
      </trkpt>
      <trkpt lat="44.93086" lon="5.76192">
        <ele>1218.8000488281</ele>
        <time>2026-07-05T09:22:22.000Z</time>
      </trkpt>
      <trkpt lat="44.93085" lon="5.76195">
        <ele>1218.5999755859</ele>
        <time>2026-07-05T09:22:23.000Z</time>
      </trkpt>
      <trkpt lat="44.93085" lon="5.76198">
        <ele>1218.8000488281</ele>
        <time>2026-07-05T09:22:24.000Z</time>
      </trkpt>
      <trkpt lat="44.93084" lon="5.76201">
        <ele>1218.5999755859</ele>
        <time>2026-07-05T09:22:25.000Z</time>
      </trkpt>
      <trkpt lat="44.93084" lon="5.76205">
        <ele>1218.5999755859</ele>
        <time>2026-07-05T09:22:26.000Z</time>
      </trkpt>
      <trkpt lat="44.93084" lon="5.76208">
        <ele>1218.4000244141</ele>
        <time>2026-07-05T09:22:27.000Z</time>
      </trkpt>
      <trkpt lat="44.93084" lon="5.7621">
        <ele>1218.4000244141</ele>
        <time>2026-07-05T09:22:28.000Z</time>
      </trkpt>
      <trkpt lat="44.93084" lon="5.76214">
        <ele>1218.4000244141</ele>
        <time>2026-07-05T09:22:29.000Z</time>
      </trkpt>
      <trkpt lat="44.93084" lon="5.76217">
        <ele>1218.4000244141</ele>
        <time>2026-07-05T09:22:30.000Z</time>
      </trkpt>
      <trkpt lat="44.93083" lon="5.7622">
        <ele>1218.5999755859</ele>
        <time>2026-07-05T09:22:31.000Z</time>
      </trkpt>
      <trkpt lat="44.93083" lon="5.76223">
        <ele>1218.8000488281</ele>
        <time>2026-07-05T09:22:32.000Z</time>
      </trkpt>
      <trkpt lat="44.93082" lon="5.76226">
        <ele>1219</ele>
        <time>2026-07-05T09:22:33.000Z</time>
      </trkpt>
      <trkpt lat="44.93081" lon="5.76229">
        <ele>1219</ele>
        <time>2026-07-05T09:22:34.000Z</time>
      </trkpt>
      <trkpt lat="44.93081" lon="5.76232">
        <ele>1219.1999511719</ele>
        <time>2026-07-05T09:22:35.000Z</time>
      </trkpt>
      <trkpt lat="44.9308" lon="5.76235">
        <ele>1219.1999511719</ele>
        <time>2026-07-05T09:22:36.000Z</time>
      </trkpt>
      <trkpt lat="44.93079" lon="5.76239">
        <ele>1219</ele>
        <time>2026-07-05T09:22:37.000Z</time>
      </trkpt>
      <trkpt lat="44.93078" lon="5.76242">
        <ele>1218.5999755859</ele>
        <time>2026-07-05T09:22:38.000Z</time>
      </trkpt>
      <trkpt lat="44.93077" lon="5.76245">
        <ele>1218.1999511719</ele>
        <time>2026-07-05T09:22:39.000Z</time>
      </trkpt>
      <trkpt lat="44.93076" lon="5.76248">
        <ele>1217.8000488281</ele>
        <time>2026-07-05T09:22:40.000Z</time>
      </trkpt>
      <trkpt lat="44.93075" lon="5.76251">
        <ele>1217.4000244141</ele>
        <time>2026-07-05T09:22:41.000Z</time>
      </trkpt>
      <trkpt lat="44.93074" lon="5.76254">
        <ele>1217.1999511719</ele>
        <time>2026-07-05T09:22:42.000Z</time>
      </trkpt>
      <trkpt lat="44.93073" lon="5.76258">
        <ele>1216.8000488281</ele>
        <time>2026-07-05T09:22:43.000Z</time>
      </trkpt>
      <trkpt lat="44.93072" lon="5.76261">
        <ele>1216.5999755859</ele>
        <time>2026-07-05T09:22:44.000Z</time>
      </trkpt>
      <trkpt lat="44.93071" lon="5.76264">
        <ele>1216.5999755859</ele>
        <time>2026-07-05T09:22:45.000Z</time>
      </trkpt>
      <trkpt lat="44.93071" lon="5.76267">
        <ele>1216.5999755859</ele>
        <time>2026-07-05T09:22:46.000Z</time>
      </trkpt>
      <trkpt lat="44.9307" lon="5.7627">
        <ele>1216.5999755859</ele>
        <time>2026-07-05T09:22:47.000Z</time>
      </trkpt>
      <trkpt lat="44.9307" lon="5.76273">
        <ele>1216.5999755859</ele>
        <time>2026-07-05T09:22:48.000Z</time>
      </trkpt>
      <trkpt lat="44.93071" lon="5.76276">
        <ele>1216.4000244141</ele>
        <time>2026-07-05T09:22:49.000Z</time>
      </trkpt>
      <trkpt lat="44.93072" lon="5.76278">
        <ele>1215.8000488281</ele>
        <time>2026-07-05T09:22:50.000Z</time>
      </trkpt>
      <trkpt lat="44.93071" lon="5.76277">
        <ele>1215.1999511719</ele>
        <time>2026-07-05T09:22:51.000Z</time>
      </trkpt>
      <trkpt lat="44.93071" lon="5.76278">
        <ele>1214.5999755859</ele>
        <time>2026-07-05T09:22:52.000Z</time>
      </trkpt>
      <trkpt lat="44.93071" lon="5.76279">
        <ele>1214.1999511719</ele>
        <time>2026-07-05T09:22:53.000Z</time>
      </trkpt>
      <trkpt lat="44.9307" lon="5.76279">
        <ele>1214.1999511719</ele>
        <time>2026-07-05T09:22:54.000Z</time>
      </trkpt>
      <trkpt lat="44.93069" lon="5.76281">
        <ele>1214.1999511719</ele>
        <time>2026-07-05T09:22:55.000Z</time>
      </trkpt>
      <trkpt lat="44.93068" lon="5.76284">
        <ele>1214.4000244141</ele>
        <time>2026-07-05T09:22:56.000Z</time>
      </trkpt>
      <trkpt lat="44.93067" lon="5.76286">
        <ele>1214.4000244141</ele>
        <time>2026-07-05T09:22:57.000Z</time>
      </trkpt>
      <trkpt lat="44.93065" lon="5.76288">
        <ele>1214.4000244141</ele>
        <time>2026-07-05T09:22:58.000Z</time>
      </trkpt>
      <trkpt lat="44.93065" lon="5.76291">
        <ele>1214.1999511719</ele>
        <time>2026-07-05T09:22:59.000Z</time>
      </trkpt>
      <trkpt lat="44.93063" lon="5.76293">
        <ele>1214.1999511719</ele>
        <time>2026-07-05T09:23:00.000Z</time>
      </trkpt>
      <trkpt lat="44.93063" lon="5.76294">
        <ele>1214.1999511719</ele>
        <time>2026-07-05T09:23:01.000Z</time>
      </trkpt>
      <trkpt lat="44.93062" lon="5.76296">
        <ele>1214</ele>
        <time>2026-07-05T09:23:02.000Z</time>
      </trkpt>
      <trkpt lat="44.93061" lon="5.76297">
        <ele>1213.8000488281</ele>
        <time>2026-07-05T09:23:03.000Z</time>
      </trkpt>
      <trkpt lat="44.9306" lon="5.76299">
        <ele>1213.5999755859</ele>
        <time>2026-07-05T09:23:04.000Z</time>
      </trkpt>
      <trkpt lat="44.93059" lon="5.763">
        <ele>1213.4000244141</ele>
        <time>2026-07-05T09:23:05.000Z</time>
      </trkpt>
      <trkpt lat="44.93059" lon="5.76301">
        <ele>1213</ele>
        <time>2026-07-05T09:23:06.000Z</time>
      </trkpt>
      <trkpt lat="44.93059" lon="5.76301">
        <ele>1212.8000488281</ele>
        <time>2026-07-05T09:23:07.000Z</time>
      </trkpt>
      <trkpt lat="44.93059" lon="5.76301">
        <ele>1212.5999755859</ele>
        <time>2026-07-05T09:23:08.000Z</time>
      </trkpt>
      <trkpt lat="44.93059" lon="5.76302">
        <ele>1212.4000244141</ele>
        <time>2026-07-05T09:23:09.000Z</time>
      </trkpt>
      <trkpt lat="44.93059" lon="5.76302">
        <ele>1212.1999511719</ele>
        <time>2026-07-05T09:23:10.000Z</time>
      </trkpt>
      <trkpt lat="44.93059" lon="5.76302">
        <ele>1212.1999511719</ele>
        <time>2026-07-05T09:23:11.000Z</time>
      </trkpt>
      <trkpt lat="44.93059" lon="5.76302">
        <ele>1212.1999511719</ele>
        <time>2026-07-05T09:23:12.000Z</time>
      </trkpt>
      <trkpt lat="44.93059" lon="5.76302">
        <ele>1212.1999511719</ele>
        <time>2026-07-05T09:23:13.000Z</time>
      </trkpt>
      <trkpt lat="44.93059" lon="5.76302">
        <ele>1212.1999511719</ele>
        <time>2026-07-05T09:23:14.000Z</time>
      </trkpt>
      <trkpt lat="44.93059" lon="5.76302">
        <ele>1212</ele>
        <time>2026-07-05T09:23:15.000Z</time>
      </trkpt>
      <trkpt lat="44.93059" lon="5.76303">
        <ele>1212</ele>
        <time>2026-07-05T09:23:16.000Z</time>
      </trkpt>
      <trkpt lat="44.93059" lon="5.76302">
        <ele>1212</ele>
        <time>2026-07-05T09:23:17.000Z</time>
      </trkpt>
      <trkpt lat="44.93059" lon="5.76302">
        <ele>1212</ele>
        <time>2026-07-05T09:23:18.000Z</time>
      </trkpt>
      <trkpt lat="44.93059" lon="5.76302">
        <ele>1211.8000488281</ele>
        <time>2026-07-05T09:23:19.000Z</time>
      </trkpt>
      <trkpt lat="44.93059" lon="5.76302">
        <ele>1211.5999755859</ele>
        <time>2026-07-05T09:23:20.000Z</time>
      </trkpt>
      <trkpt lat="44.93059" lon="5.76302">
        <ele>1211.4000244141</ele>
        <time>2026-07-05T09:23:21.000Z</time>
      </trkpt>
      <trkpt lat="44.93059" lon="5.76302">
        <ele>1211</ele>
        <time>2026-07-05T09:23:22.000Z</time>
      </trkpt>
      <trkpt lat="44.93059" lon="5.76302">
        <ele>1210.8000488281</ele>
        <time>2026-07-05T09:23:23.000Z</time>
      </trkpt>
      <trkpt lat="44.93059" lon="5.76302">
        <ele>1210.4000244141</ele>
        <time>2026-07-05T09:23:24.000Z</time>
      </trkpt>
      <trkpt lat="44.93059" lon="5.76302">
        <ele>1210.1999511719</ele>
        <time>2026-07-05T09:23:25.000Z</time>
      </trkpt>
      <trkpt lat="44.93059" lon="5.76303">
        <ele>1209.8000488281</ele>
        <time>2026-07-05T09:23:26.000Z</time>
      </trkpt>
      <trkpt lat="44.93059" lon="5.76303">
        <ele>1209.5999755859</ele>
        <time>2026-07-05T09:23:27.000Z</time>
      </trkpt>
      <trkpt lat="44.93058" lon="5.76303">
        <ele>1208.8000488281</ele>
        <time>2026-07-05T09:23:28.000Z</time>
      </trkpt>
      <trkpt lat="44.93057" lon="5.76304">
        <ele>1208.5999755859</ele>
        <time>2026-07-05T09:23:29.000Z</time>
      </trkpt>
      <trkpt lat="44.93057" lon="5.76304">
        <ele>1208.4000244141</ele>
        <time>2026-07-05T09:23:30.000Z</time>
      </trkpt>
      <trkpt lat="44.93057" lon="5.76304">
        <ele>1208</ele>
        <time>2026-07-05T09:23:31.000Z</time>
      </trkpt>
      <trkpt lat="44.93057" lon="5.76304">
        <ele>1207.5999755859</ele>
        <time>2026-07-05T09:23:32.000Z</time>
      </trkpt>
      <trkpt lat="44.93057" lon="5.76304">
        <ele>1207.4000244141</ele>
        <time>2026-07-05T09:23:33.000Z</time>
      </trkpt>
      <trkpt lat="44.93056" lon="5.76305">
        <ele>1207.1999511719</ele>
        <time>2026-07-05T09:23:34.000Z</time>
      </trkpt>
      <trkpt lat="44.93056" lon="5.76305">
        <ele>1206.8000488281</ele>
        <time>2026-07-05T09:23:35.000Z</time>
      </trkpt>
      <trkpt lat="44.93057" lon="5.76307">
        <ele>1206.5999755859</ele>
        <time>2026-07-05T09:23:36.000Z</time>
      </trkpt>
      <trkpt lat="44.93056" lon="5.76308">
        <ele>1206.1999511719</ele>
        <time>2026-07-05T09:23:37.000Z</time>
      </trkpt>
      <trkpt lat="44.93056" lon="5.76308">
        <ele>1206</ele>
        <time>2026-07-05T09:23:38.000Z</time>
      </trkpt>
      <trkpt lat="44.93056" lon="5.76309">
        <ele>1205.8000488281</ele>
        <time>2026-07-05T09:23:39.000Z</time>
      </trkpt>
      <trkpt lat="44.93055" lon="5.76308">
        <ele>1205.4000244141</ele>
        <time>2026-07-05T09:23:40.000Z</time>
      </trkpt>
      <trkpt lat="44.93055" lon="5.76308">
        <ele>1205.4000244141</ele>
        <time>2026-07-05T09:23:41.000Z</time>
      </trkpt>
      <trkpt lat="44.93055" lon="5.76308">
        <ele>1205</ele>
        <time>2026-07-05T09:23:42.000Z</time>
      </trkpt>
      <trkpt lat="44.93054" lon="5.76308">
        <ele>1204.8000488281</ele>
        <time>2026-07-05T09:23:43.000Z</time>
      </trkpt>
      <trkpt lat="44.93054" lon="5.76308">
        <ele>1204.5999755859</ele>
        <time>2026-07-05T09:23:44.000Z</time>
      </trkpt>
      <trkpt lat="44.93054" lon="5.76308">
        <ele>1204.4000244141</ele>
        <time>2026-07-05T09:23:45.000Z</time>
      </trkpt>
      <trkpt lat="44.93054" lon="5.76308">
        <ele>1204</ele>
        <time>2026-07-05T09:23:46.000Z</time>
      </trkpt>
      <trkpt lat="44.93054" lon="5.76309">
        <ele>1203.4000244141</ele>
        <time>2026-07-05T09:23:47.000Z</time>
      </trkpt>
      <trkpt lat="44.93054" lon="5.76309">
        <ele>1203.1999511719</ele>
        <time>2026-07-05T09:23:48.000Z</time>
      </trkpt>
      <trkpt lat="44.93054" lon="5.76308">
        <ele>1203.1999511719</ele>
        <time>2026-07-05T09:23:49.000Z</time>
      </trkpt>
      <trkpt lat="44.93054" lon="5.76308">
        <ele>1203.1999511719</ele>
        <time>2026-07-05T09:23:50.000Z</time>
      </trkpt>
      <trkpt lat="44.93054" lon="5.76309">
        <ele>1202.8000488281</ele>
        <time>2026-07-05T09:23:51.000Z</time>
      </trkpt>
      <trkpt lat="44.93054" lon="5.76309">
        <ele>1202.4000244141</ele>
        <time>2026-07-05T09:23:52.000Z</time>
      </trkpt>
      <trkpt lat="44.93054" lon="5.7631">
        <ele>1202.1999511719</ele>
        <time>2026-07-05T09:23:53.000Z</time>
      </trkpt>
      <trkpt lat="44.93054" lon="5.7631">
        <ele>1202</ele>
        <time>2026-07-05T09:23:54.000Z</time>
      </trkpt>
      <trkpt lat="44.93054" lon="5.7631">
        <ele>1202</ele>
        <time>2026-07-05T09:23:55.000Z</time>
      </trkpt>
      <trkpt lat="44.93054" lon="5.76311">
        <ele>1201.8000488281</ele>
        <time>2026-07-05T09:23:56.000Z</time>
      </trkpt>
      <trkpt lat="44.93055" lon="5.76311">
        <ele>1201.5999755859</ele>
        <time>2026-07-05T09:23:57.000Z</time>
      </trkpt>
      <trkpt lat="44.93055" lon="5.76312">
        <ele>1201.4000244141</ele>
        <time>2026-07-05T09:23:58.000Z</time>
      </trkpt>
      <trkpt lat="44.93055" lon="5.76313">
        <ele>1201.1999511719</ele>
        <time>2026-07-05T09:23:59.000Z</time>
      </trkpt>
      <trkpt lat="44.93055" lon="5.76314">
        <ele>1201.1999511719</ele>
        <time>2026-07-05T09:24:00.000Z</time>
      </trkpt>
      <trkpt lat="44.93056" lon="5.76315">
        <ele>1201</ele>
        <time>2026-07-05T09:24:01.000Z</time>
      </trkpt>
      <trkpt lat="44.93056" lon="5.76317">
        <ele>1200.8000488281</ele>
        <time>2026-07-05T09:24:02.000Z</time>
      </trkpt>
      <trkpt lat="44.93056" lon="5.76319">
        <ele>1200.4000244141</ele>
        <time>2026-07-05T09:24:03.000Z</time>
      </trkpt>
      <trkpt lat="44.93055" lon="5.76321">
        <ele>1200.1999511719</ele>
        <time>2026-07-05T09:24:04.000Z</time>
      </trkpt>
      <trkpt lat="44.93054" lon="5.76323">
        <ele>1199.8000488281</ele>
        <time>2026-07-05T09:24:05.000Z</time>
      </trkpt>
      <trkpt lat="44.93053" lon="5.76325">
        <ele>1199.5999755859</ele>
        <time>2026-07-05T09:24:06.000Z</time>
      </trkpt>
      <trkpt lat="44.93052" lon="5.76325">
        <ele>1199.4000244141</ele>
        <time>2026-07-05T09:24:07.000Z</time>
      </trkpt>
      <trkpt lat="44.93051" lon="5.76326">
        <ele>1199.4000244141</ele>
        <time>2026-07-05T09:24:08.000Z</time>
      </trkpt>
      <trkpt lat="44.9305" lon="5.76327">
        <ele>1199.1999511719</ele>
        <time>2026-07-05T09:24:09.000Z</time>
      </trkpt>
      <trkpt lat="44.93049" lon="5.76328">
        <ele>1199.1999511719</ele>
        <time>2026-07-05T09:24:10.000Z</time>
      </trkpt>
      <trkpt lat="44.93048" lon="5.76329">
        <ele>1199.1999511719</ele>
        <time>2026-07-05T09:24:11.000Z</time>
      </trkpt>
      <trkpt lat="44.93047" lon="5.7633">
        <ele>1199</ele>
        <time>2026-07-05T09:24:12.000Z</time>
      </trkpt>
      <trkpt lat="44.93045" lon="5.76331">
        <ele>1199</ele>
        <time>2026-07-05T09:24:13.000Z</time>
      </trkpt>
      <trkpt lat="44.93044" lon="5.76331">
        <ele>1199</ele>
        <time>2026-07-05T09:24:14.000Z</time>
      </trkpt>
      <trkpt lat="44.93043" lon="5.76331">
        <ele>1199</ele>
        <time>2026-07-05T09:24:15.000Z</time>
      </trkpt>
      <trkpt lat="44.93042" lon="5.76332">
        <ele>1199</ele>
        <time>2026-07-05T09:24:16.000Z</time>
      </trkpt>
      <trkpt lat="44.93041" lon="5.76333">
        <ele>1199.1999511719</ele>
        <time>2026-07-05T09:24:17.000Z</time>
      </trkpt>
      <trkpt lat="44.93039" lon="5.76333">
        <ele>1199.4000244141</ele>
        <time>2026-07-05T09:24:18.000Z</time>
      </trkpt>
      <trkpt lat="44.93038" lon="5.76334">
        <ele>1199.5999755859</ele>
        <time>2026-07-05T09:24:19.000Z</time>
      </trkpt>
      <trkpt lat="44.93037" lon="5.76333">
        <ele>1199.8000488281</ele>
        <time>2026-07-05T09:24:20.000Z</time>
      </trkpt>
      <trkpt lat="44.93036" lon="5.76334">
        <ele>1200</ele>
        <time>2026-07-05T09:24:21.000Z</time>
      </trkpt>
      <trkpt lat="44.93036" lon="5.76334">
        <ele>1200.1999511719</ele>
        <time>2026-07-05T09:24:22.000Z</time>
      </trkpt>
      <trkpt lat="44.93035" lon="5.76334">
        <ele>1200.1999511719</ele>
        <time>2026-07-05T09:24:23.000Z</time>
      </trkpt>
      <trkpt lat="44.93034" lon="5.76334">
        <ele>1200.4000244141</ele>
        <time>2026-07-05T09:24:24.000Z</time>
      </trkpt>
      <trkpt lat="44.93033" lon="5.76335">
        <ele>1200.4000244141</ele>
        <time>2026-07-05T09:24:25.000Z</time>
      </trkpt>
      <trkpt lat="44.93032" lon="5.76336">
        <ele>1200.1999511719</ele>
        <time>2026-07-05T09:24:26.000Z</time>
      </trkpt>
      <trkpt lat="44.9303" lon="5.76336">
        <ele>1200.1999511719</ele>
        <time>2026-07-05T09:24:27.000Z</time>
      </trkpt>
      <trkpt lat="44.93029" lon="5.76337">
        <ele>1200</ele>
        <time>2026-07-05T09:24:28.000Z</time>
      </trkpt>
      <trkpt lat="44.93028" lon="5.76338">
        <ele>1199.8000488281</ele>
        <time>2026-07-05T09:24:29.000Z</time>
      </trkpt>
      <trkpt lat="44.93028" lon="5.76338">
        <ele>1199.8000488281</ele>
        <time>2026-07-05T09:24:30.000Z</time>
      </trkpt>
      <trkpt lat="44.93029" lon="5.76339">
        <ele>1199.5999755859</ele>
        <time>2026-07-05T09:24:31.000Z</time>
      </trkpt>
      <trkpt lat="44.93029" lon="5.76339">
        <ele>1199.4000244141</ele>
        <time>2026-07-05T09:24:32.000Z</time>
      </trkpt>
      <trkpt lat="44.9303" lon="5.76339">
        <ele>1199.1999511719</ele>
        <time>2026-07-05T09:24:33.000Z</time>
      </trkpt>
      <trkpt lat="44.93031" lon="5.76339">
        <ele>1199</ele>
        <time>2026-07-05T09:24:34.000Z</time>
      </trkpt>
      <trkpt lat="44.93032" lon="5.7634">
        <ele>1198.5999755859</ele>
        <time>2026-07-05T09:24:35.000Z</time>
      </trkpt>
      <trkpt lat="44.93033" lon="5.76341">
        <ele>1198.1999511719</ele>
        <time>2026-07-05T09:24:36.000Z</time>
      </trkpt>
      <trkpt lat="44.93033" lon="5.76342">
        <ele>1198</ele>
        <time>2026-07-05T09:24:37.000Z</time>
      </trkpt>
      <trkpt lat="44.93034" lon="5.76343">
        <ele>1197.5999755859</ele>
        <time>2026-07-05T09:24:38.000Z</time>
      </trkpt>
      <trkpt lat="44.93035" lon="5.76343">
        <ele>1197.1999511719</ele>
        <time>2026-07-05T09:24:39.000Z</time>
      </trkpt>
      <trkpt lat="44.93036" lon="5.76344">
        <ele>1196.8000488281</ele>
        <time>2026-07-05T09:24:40.000Z</time>
      </trkpt>
      <trkpt lat="44.93036" lon="5.76345">
        <ele>1196.1999511719</ele>
        <time>2026-07-05T09:24:41.000Z</time>
      </trkpt>
      <trkpt lat="44.93038" lon="5.76346">
        <ele>1195.8000488281</ele>
        <time>2026-07-05T09:24:42.000Z</time>
      </trkpt>
      <trkpt lat="44.93039" lon="5.76346">
        <ele>1195.1999511719</ele>
        <time>2026-07-05T09:24:43.000Z</time>
      </trkpt>
      <trkpt lat="44.93041" lon="5.76346">
        <ele>1194.5999755859</ele>
        <time>2026-07-05T09:24:44.000Z</time>
      </trkpt>
      <trkpt lat="44.93043" lon="5.76347">
        <ele>1193.8000488281</ele>
        <time>2026-07-05T09:24:45.000Z</time>
      </trkpt>
      <trkpt lat="44.93045" lon="5.76348">
        <ele>1193</ele>
        <time>2026-07-05T09:24:46.000Z</time>
      </trkpt>
      <trkpt lat="44.93046" lon="5.76351">
        <ele>1192.1999511719</ele>
        <time>2026-07-05T09:24:47.000Z</time>
      </trkpt>
      <trkpt lat="44.93046" lon="5.76354">
        <ele>1191.5999755859</ele>
        <time>2026-07-05T09:24:48.000Z</time>
      </trkpt>
      <trkpt lat="44.93046" lon="5.76357">
        <ele>1191</ele>
        <time>2026-07-05T09:24:49.000Z</time>
      </trkpt>
      <trkpt lat="44.93045" lon="5.7636">
        <ele>1190.4000244141</ele>
        <time>2026-07-05T09:24:50.000Z</time>
      </trkpt>
      <trkpt lat="44.93044" lon="5.76362">
        <ele>1190</ele>
        <time>2026-07-05T09:24:51.000Z</time>
      </trkpt>
      <trkpt lat="44.93043" lon="5.76364">
        <ele>1189.5999755859</ele>
        <time>2026-07-05T09:24:52.000Z</time>
      </trkpt>
      <trkpt lat="44.93042" lon="5.76366">
        <ele>1189.1999511719</ele>
        <time>2026-07-05T09:24:53.000Z</time>
      </trkpt>
      <trkpt lat="44.93041" lon="5.76368">
        <ele>1189</ele>
        <time>2026-07-05T09:24:54.000Z</time>
      </trkpt>
      <trkpt lat="44.9304" lon="5.76369">
        <ele>1188.8000488281</ele>
        <time>2026-07-05T09:24:55.000Z</time>
      </trkpt>
      <trkpt lat="44.93039" lon="5.76371">
        <ele>1188.4000244141</ele>
        <time>2026-07-05T09:24:56.000Z</time>
      </trkpt>
      <trkpt lat="44.93038" lon="5.76373">
        <ele>1188</ele>
        <time>2026-07-05T09:24:57.000Z</time>
      </trkpt>
      <trkpt lat="44.93037" lon="5.76375">
        <ele>1187.5999755859</ele>
        <time>2026-07-05T09:24:58.000Z</time>
      </trkpt>
      <trkpt lat="44.93036" lon="5.76377">
        <ele>1187.1999511719</ele>
        <time>2026-07-05T09:24:59.000Z</time>
      </trkpt>
      <trkpt lat="44.93034" lon="5.76379">
        <ele>1186.5999755859</ele>
        <time>2026-07-05T09:25:00.000Z</time>
      </trkpt>
      <trkpt lat="44.93032" lon="5.76381">
        <ele>1186</ele>
        <time>2026-07-05T09:25:01.000Z</time>
      </trkpt>
      <trkpt lat="44.93031" lon="5.76382">
        <ele>1185.5999755859</ele>
        <time>2026-07-05T09:25:02.000Z</time>
      </trkpt>
      <trkpt lat="44.93029" lon="5.76385">
        <ele>1185</ele>
        <time>2026-07-05T09:25:03.000Z</time>
      </trkpt>
      <trkpt lat="44.93029" lon="5.76386">
        <ele>1184.5999755859</ele>
        <time>2026-07-05T09:25:04.000Z</time>
      </trkpt>
      <trkpt lat="44.93028" lon="5.76389">
        <ele>1184.1999511719</ele>
        <time>2026-07-05T09:25:05.000Z</time>
      </trkpt>
      <trkpt lat="44.93027" lon="5.76391">
        <ele>1184</ele>
        <time>2026-07-05T09:25:06.000Z</time>
      </trkpt>
      <trkpt lat="44.93027" lon="5.76393">
        <ele>1183.5999755859</ele>
        <time>2026-07-05T09:25:07.000Z</time>
      </trkpt>
      <trkpt lat="44.93026" lon="5.76394">
        <ele>1183.1999511719</ele>
        <time>2026-07-05T09:25:08.000Z</time>
      </trkpt>
      <trkpt lat="44.93026" lon="5.76396">
        <ele>1183</ele>
        <time>2026-07-05T09:25:09.000Z</time>
      </trkpt>
      <trkpt lat="44.93026" lon="5.76397">
        <ele>1182.5999755859</ele>
        <time>2026-07-05T09:25:10.000Z</time>
      </trkpt>
      <trkpt lat="44.93026" lon="5.76398">
        <ele>1182.4000244141</ele>
        <time>2026-07-05T09:25:11.000Z</time>
      </trkpt>
      <trkpt lat="44.93026" lon="5.76399">
        <ele>1182.1999511719</ele>
        <time>2026-07-05T09:25:12.000Z</time>
      </trkpt>
      <trkpt lat="44.93026" lon="5.76401">
        <ele>1182</ele>
        <time>2026-07-05T09:25:13.000Z</time>
      </trkpt>
      <trkpt lat="44.93026" lon="5.76403">
        <ele>1181.5999755859</ele>
        <time>2026-07-05T09:25:14.000Z</time>
      </trkpt>
      <trkpt lat="44.93026" lon="5.76404">
        <ele>1181</ele>
        <time>2026-07-05T09:25:15.000Z</time>
      </trkpt>
      <trkpt lat="44.93025" lon="5.76405">
        <ele>1180.4000244141</ele>
        <time>2026-07-05T09:25:16.000Z</time>
      </trkpt>
      <trkpt lat="44.93025" lon="5.76407">
        <ele>1179.4000244141</ele>
        <time>2026-07-05T09:25:17.000Z</time>
      </trkpt>
      <trkpt lat="44.93024" lon="5.76408">
        <ele>1179</ele>
        <time>2026-07-05T09:25:18.000Z</time>
      </trkpt>
      <trkpt lat="44.93024" lon="5.76409">
        <ele>1178.4000244141</ele>
        <time>2026-07-05T09:25:19.000Z</time>
      </trkpt>
      <trkpt lat="44.93023" lon="5.76411">
        <ele>1177.4000244141</ele>
        <time>2026-07-05T09:25:20.000Z</time>
      </trkpt>
      <trkpt lat="44.93023" lon="5.76413">
        <ele>1176.8000488281</ele>
        <time>2026-07-05T09:25:21.000Z</time>
      </trkpt>
      <trkpt lat="44.93022" lon="5.76415">
        <ele>1176.1999511719</ele>
        <time>2026-07-05T09:25:22.000Z</time>
      </trkpt>
      <trkpt lat="44.93021" lon="5.76418">
        <ele>1175.5999755859</ele>
        <time>2026-07-05T09:25:23.000Z</time>
      </trkpt>
      <trkpt lat="44.9302" lon="5.76419">
        <ele>1175</ele>
        <time>2026-07-05T09:25:24.000Z</time>
      </trkpt>
      <trkpt lat="44.93019" lon="5.76422">
        <ele>1174.1999511719</ele>
        <time>2026-07-05T09:25:25.000Z</time>
      </trkpt>
      <trkpt lat="44.93017" lon="5.76424">
        <ele>1174</ele>
        <time>2026-07-05T09:25:26.000Z</time>
      </trkpt>
      <trkpt lat="44.93017" lon="5.76426">
        <ele>1173.5999755859</ele>
        <time>2026-07-05T09:25:27.000Z</time>
      </trkpt>
      <trkpt lat="44.93016" lon="5.76428">
        <ele>1172.5999755859</ele>
        <time>2026-07-05T09:25:28.000Z</time>
      </trkpt>
      <trkpt lat="44.93017" lon="5.7643">
        <ele>1172</ele>
        <time>2026-07-05T09:25:29.000Z</time>
      </trkpt>
      <trkpt lat="44.93017" lon="5.76432">
        <ele>1171.1999511719</ele>
        <time>2026-07-05T09:25:30.000Z</time>
      </trkpt>
      <trkpt lat="44.93018" lon="5.76434">
        <ele>1171</ele>
        <time>2026-07-05T09:25:31.000Z</time>
      </trkpt>
      <trkpt lat="44.93018" lon="5.76436">
        <ele>1170.4000244141</ele>
        <time>2026-07-05T09:25:32.000Z</time>
      </trkpt>
      <trkpt lat="44.93018" lon="5.76438">
        <ele>1169.8000488281</ele>
        <time>2026-07-05T09:25:33.000Z</time>
      </trkpt>
      <trkpt lat="44.93017" lon="5.7644">
        <ele>1169.1999511719</ele>
        <time>2026-07-05T09:25:34.000Z</time>
      </trkpt>
      <trkpt lat="44.93017" lon="5.76442">
        <ele>1169.1999511719</ele>
        <time>2026-07-05T09:25:35.000Z</time>
      </trkpt>
      <trkpt lat="44.93017" lon="5.76445">
        <ele>1168.5999755859</ele>
        <time>2026-07-05T09:25:36.000Z</time>
      </trkpt>
      <trkpt lat="44.93018" lon="5.76447">
        <ele>1168.5999755859</ele>
        <time>2026-07-05T09:25:37.000Z</time>
      </trkpt>
      <trkpt lat="44.93018" lon="5.76449">
        <ele>1167.5999755859</ele>
        <time>2026-07-05T09:25:38.000Z</time>
      </trkpt>
      <trkpt lat="44.93019" lon="5.76451">
        <ele>1167</ele>
        <time>2026-07-05T09:25:39.000Z</time>
      </trkpt>
      <trkpt lat="44.93019" lon="5.76452">
        <ele>1166.1999511719</ele>
        <time>2026-07-05T09:25:40.000Z</time>
      </trkpt>
      <trkpt lat="44.9302" lon="5.76454">
        <ele>1165.5999755859</ele>
        <time>2026-07-05T09:25:41.000Z</time>
      </trkpt>
      <trkpt lat="44.93021" lon="5.76456">
        <ele>1165.5999755859</ele>
        <time>2026-07-05T09:25:42.000Z</time>
      </trkpt>
      <trkpt lat="44.93022" lon="5.76458">
        <ele>1165.1999511719</ele>
        <time>2026-07-05T09:25:43.000Z</time>
      </trkpt>
      <trkpt lat="44.93023" lon="5.76459">
        <ele>1165</ele>
        <time>2026-07-05T09:25:44.000Z</time>
      </trkpt>
      <trkpt lat="44.93024" lon="5.76459">
        <ele>1164.5999755859</ele>
        <time>2026-07-05T09:25:45.000Z</time>
      </trkpt>
      <trkpt lat="44.93026" lon="5.76459">
        <ele>1163.8000488281</ele>
        <time>2026-07-05T09:25:46.000Z</time>
      </trkpt>
      <trkpt lat="44.93027" lon="5.76459">
        <ele>1163.4000244141</ele>
        <time>2026-07-05T09:25:47.000Z</time>
      </trkpt>
      <trkpt lat="44.93028" lon="5.76459">
        <ele>1162.5999755859</ele>
        <time>2026-07-05T09:25:48.000Z</time>
      </trkpt>
      <trkpt lat="44.9303" lon="5.7646">
        <ele>1162</ele>
        <time>2026-07-05T09:25:49.000Z</time>
      </trkpt>
      <trkpt lat="44.93032" lon="5.76462">
        <ele>1161.8000488281</ele>
        <time>2026-07-05T09:25:50.000Z</time>
      </trkpt>
      <trkpt lat="44.93032" lon="5.76464">
        <ele>1161</ele>
        <time>2026-07-05T09:25:51.000Z</time>
      </trkpt>
      <trkpt lat="44.93032" lon="5.76467">
        <ele>1160.8000488281</ele>
        <time>2026-07-05T09:25:52.000Z</time>
      </trkpt>
      <trkpt lat="44.93032" lon="5.7647">
        <ele>1160.4000244141</ele>
        <time>2026-07-05T09:25:53.000Z</time>
      </trkpt>
      <trkpt lat="44.93031" lon="5.76472">
        <ele>1159.5999755859</ele>
        <time>2026-07-05T09:25:54.000Z</time>
      </trkpt>
      <trkpt lat="44.93031" lon="5.76474">
        <ele>1159.1999511719</ele>
        <time>2026-07-05T09:25:55.000Z</time>
      </trkpt>
      <trkpt lat="44.9303" lon="5.76477">
        <ele>1158.8000488281</ele>
        <time>2026-07-05T09:25:56.000Z</time>
      </trkpt>
      <trkpt lat="44.93029" lon="5.76479">
        <ele>1158.5999755859</ele>
        <time>2026-07-05T09:25:57.000Z</time>
      </trkpt>
      <trkpt lat="44.93028" lon="5.76481">
        <ele>1158.1999511719</ele>
        <time>2026-07-05T09:25:58.000Z</time>
      </trkpt>
      <trkpt lat="44.93027" lon="5.76482">
        <ele>1158</ele>
        <time>2026-07-05T09:25:59.000Z</time>
      </trkpt>
      <trkpt lat="44.93027" lon="5.76484">
        <ele>1157.8000488281</ele>
        <time>2026-07-05T09:26:00.000Z</time>
      </trkpt>
      <trkpt lat="44.93026" lon="5.76487">
        <ele>1157.4000244141</ele>
        <time>2026-07-05T09:26:01.000Z</time>
      </trkpt>
      <trkpt lat="44.93025" lon="5.76489">
        <ele>1157.1999511719</ele>
        <time>2026-07-05T09:26:02.000Z</time>
      </trkpt>
      <trkpt lat="44.93025" lon="5.7649">
        <ele>1157</ele>
        <time>2026-07-05T09:26:03.000Z</time>
      </trkpt>
      <trkpt lat="44.93025" lon="5.76492">
        <ele>1156.8000488281</ele>
        <time>2026-07-05T09:26:04.000Z</time>
      </trkpt>
      <trkpt lat="44.93025" lon="5.76493">
        <ele>1156.4000244141</ele>
        <time>2026-07-05T09:26:05.000Z</time>
      </trkpt>
      <trkpt lat="44.93026" lon="5.76493">
        <ele>1156</ele>
        <time>2026-07-05T09:26:06.000Z</time>
      </trkpt>
      <trkpt lat="44.93027" lon="5.76495">
        <ele>1155.5999755859</ele>
        <time>2026-07-05T09:26:07.000Z</time>
      </trkpt>
      <trkpt lat="44.93028" lon="5.76497">
        <ele>1155.1999511719</ele>
        <time>2026-07-05T09:26:08.000Z</time>
      </trkpt>
      <trkpt lat="44.93028" lon="5.76499">
        <ele>1154.5999755859</ele>
        <time>2026-07-05T09:26:09.000Z</time>
      </trkpt>
      <trkpt lat="44.93029" lon="5.76501">
        <ele>1154.1999511719</ele>
        <time>2026-07-05T09:26:10.000Z</time>
      </trkpt>
      <trkpt lat="44.9303" lon="5.76503">
        <ele>1153.8000488281</ele>
        <time>2026-07-05T09:26:11.000Z</time>
      </trkpt>
      <trkpt lat="44.9303" lon="5.76505">
        <ele>1152.5999755859</ele>
        <time>2026-07-05T09:26:12.000Z</time>
      </trkpt>
      <trkpt lat="44.9303" lon="5.76507">
        <ele>1152</ele>
        <time>2026-07-05T09:26:13.000Z</time>
      </trkpt>
      <trkpt lat="44.9303" lon="5.76509">
        <ele>1151.5999755859</ele>
        <time>2026-07-05T09:26:14.000Z</time>
      </trkpt>
      <trkpt lat="44.9303" lon="5.76511">
        <ele>1150.5999755859</ele>
        <time>2026-07-05T09:26:15.000Z</time>
      </trkpt>
      <trkpt lat="44.9303" lon="5.76513">
        <ele>1149.8000488281</ele>
        <time>2026-07-05T09:26:16.000Z</time>
      </trkpt>
      <trkpt lat="44.93029" lon="5.76516">
        <ele>1149.1999511719</ele>
        <time>2026-07-05T09:26:17.000Z</time>
      </trkpt>
      <trkpt lat="44.93027" lon="5.76518">
        <ele>1149</ele>
        <time>2026-07-05T09:26:18.000Z</time>
      </trkpt>
      <trkpt lat="44.93026" lon="5.76519">
        <ele>1148.5999755859</ele>
        <time>2026-07-05T09:26:19.000Z</time>
      </trkpt>
      <trkpt lat="44.93025" lon="5.76521">
        <ele>1148.5999755859</ele>
        <time>2026-07-05T09:26:20.000Z</time>
      </trkpt>
      <trkpt lat="44.93025" lon="5.76523">
        <ele>1148.4000244141</ele>
        <time>2026-07-05T09:26:21.000Z</time>
      </trkpt>
      <trkpt lat="44.93025" lon="5.76524">
        <ele>1148.1999511719</ele>
        <time>2026-07-05T09:26:22.000Z</time>
      </trkpt>
      <trkpt lat="44.93026" lon="5.76525">
        <ele>1147.5999755859</ele>
        <time>2026-07-05T09:26:23.000Z</time>
      </trkpt>
      <trkpt lat="44.93027" lon="5.76525">
        <ele>1147.4000244141</ele>
        <time>2026-07-05T09:26:24.000Z</time>
      </trkpt>
      <trkpt lat="44.93028" lon="5.76526">
        <ele>1146.8000488281</ele>
        <time>2026-07-05T09:26:25.000Z</time>
      </trkpt>
      <trkpt lat="44.93029" lon="5.76528">
        <ele>1146.1999511719</ele>
        <time>2026-07-05T09:26:26.000Z</time>
      </trkpt>
      <trkpt lat="44.93029" lon="5.76531">
        <ele>1145.8000488281</ele>
        <time>2026-07-05T09:26:27.000Z</time>
      </trkpt>
      <trkpt lat="44.93027" lon="5.76532">
        <ele>1145.1999511719</ele>
        <time>2026-07-05T09:26:28.000Z</time>
      </trkpt>
      <trkpt lat="44.93026" lon="5.76533">
        <ele>1144.8000488281</ele>
        <time>2026-07-05T09:26:29.000Z</time>
      </trkpt>
      <trkpt lat="44.93025" lon="5.76534">
        <ele>1144.4000244141</ele>
        <time>2026-07-05T09:26:30.000Z</time>
      </trkpt>
      <trkpt lat="44.93025" lon="5.76537">
        <ele>1143.8000488281</ele>
        <time>2026-07-05T09:26:31.000Z</time>
      </trkpt>
      <trkpt lat="44.93024" lon="5.76539">
        <ele>1143.4000244141</ele>
        <time>2026-07-05T09:26:32.000Z</time>
      </trkpt>
      <trkpt lat="44.93023" lon="5.76542">
        <ele>1143.1999511719</ele>
        <time>2026-07-05T09:26:33.000Z</time>
      </trkpt>
      <trkpt lat="44.93022" lon="5.76544">
        <ele>1142.4000244141</ele>
        <time>2026-07-05T09:26:34.000Z</time>
      </trkpt>
      <trkpt lat="44.93019" lon="5.76545">
        <ele>1141.8000488281</ele>
        <time>2026-07-05T09:26:35.000Z</time>
      </trkpt>
      <trkpt lat="44.93017" lon="5.76546">
        <ele>1141.4000244141</ele>
        <time>2026-07-05T09:26:36.000Z</time>
      </trkpt>
      <trkpt lat="44.93014" lon="5.76547">
        <ele>1140.5999755859</ele>
        <time>2026-07-05T09:26:37.000Z</time>
      </trkpt>
      <trkpt lat="44.93012" lon="5.76548">
        <ele>1140.4000244141</ele>
        <time>2026-07-05T09:26:38.000Z</time>
      </trkpt>
      <trkpt lat="44.93009" lon="5.76549">
        <ele>1140.4000244141</ele>
        <time>2026-07-05T09:26:39.000Z</time>
      </trkpt>
      <trkpt lat="44.93007" lon="5.76549">
        <ele>1140</ele>
        <time>2026-07-05T09:26:40.000Z</time>
      </trkpt>
      <trkpt lat="44.93005" lon="5.7655">
        <ele>1139.5999755859</ele>
        <time>2026-07-05T09:26:41.000Z</time>
      </trkpt>
      <trkpt lat="44.93002" lon="5.76549">
        <ele>1139.1999511719</ele>
        <time>2026-07-05T09:26:42.000Z</time>
      </trkpt>
      <trkpt lat="44.92999" lon="5.7655">
        <ele>1138.5999755859</ele>
        <time>2026-07-05T09:26:43.000Z</time>
      </trkpt>
      <trkpt lat="44.92997" lon="5.7655">
        <ele>1138.1999511719</ele>
        <time>2026-07-05T09:26:44.000Z</time>
      </trkpt>
      <trkpt lat="44.92995" lon="5.7655">
        <ele>1137.5999755859</ele>
        <time>2026-07-05T09:26:45.000Z</time>
      </trkpt>
      <trkpt lat="44.92994" lon="5.76551">
        <ele>1137.1999511719</ele>
        <time>2026-07-05T09:26:46.000Z</time>
      </trkpt>
      <trkpt lat="44.92992" lon="5.76551">
        <ele>1137</ele>
        <time>2026-07-05T09:26:47.000Z</time>
      </trkpt>
      <trkpt lat="44.9299" lon="5.76552">
        <ele>1136.1999511719</ele>
        <time>2026-07-05T09:26:48.000Z</time>
      </trkpt>
      <trkpt lat="44.92988" lon="5.76552">
        <ele>1135.8000488281</ele>
        <time>2026-07-05T09:26:49.000Z</time>
      </trkpt>
      <trkpt lat="44.92986" lon="5.76553">
        <ele>1135.5999755859</ele>
        <time>2026-07-05T09:26:50.000Z</time>
      </trkpt>
      <trkpt lat="44.92984" lon="5.76554">
        <ele>1135</ele>
        <time>2026-07-05T09:26:51.000Z</time>
      </trkpt>
      <trkpt lat="44.92982" lon="5.76555">
        <ele>1134.5999755859</ele>
        <time>2026-07-05T09:26:52.000Z</time>
      </trkpt>
      <trkpt lat="44.9298" lon="5.76555">
        <ele>1133.8000488281</ele>
        <time>2026-07-05T09:26:53.000Z</time>
      </trkpt>
      <trkpt lat="44.92978" lon="5.76556">
        <ele>1133.4000244141</ele>
        <time>2026-07-05T09:26:54.000Z</time>
      </trkpt>
      <trkpt lat="44.92976" lon="5.76556">
        <ele>1133</ele>
        <time>2026-07-05T09:26:55.000Z</time>
      </trkpt>
      <trkpt lat="44.92974" lon="5.76556">
        <ele>1132.4000244141</ele>
        <time>2026-07-05T09:26:56.000Z</time>
      </trkpt>
      <trkpt lat="44.92971" lon="5.76556">
        <ele>1131.5999755859</ele>
        <time>2026-07-05T09:26:57.000Z</time>
      </trkpt>
      <trkpt lat="44.92969" lon="5.76556">
        <ele>1131.4000244141</ele>
        <time>2026-07-05T09:26:58.000Z</time>
      </trkpt>
      <trkpt lat="44.92967" lon="5.76557">
        <ele>1130.8000488281</ele>
        <time>2026-07-05T09:26:59.000Z</time>
      </trkpt>
      <trkpt lat="44.92965" lon="5.76557">
        <ele>1130.4000244141</ele>
        <time>2026-07-05T09:27:00.000Z</time>
      </trkpt>
      <trkpt lat="44.92963" lon="5.76558">
        <ele>1130</ele>
        <time>2026-07-05T09:27:01.000Z</time>
      </trkpt>
      <trkpt lat="44.92961" lon="5.76559">
        <ele>1129.8000488281</ele>
        <time>2026-07-05T09:27:02.000Z</time>
      </trkpt>
      <trkpt lat="44.92958" lon="5.76558">
        <ele>1129.4000244141</ele>
        <time>2026-07-05T09:27:03.000Z</time>
      </trkpt>
      <trkpt lat="44.92956" lon="5.76558">
        <ele>1129.1999511719</ele>
        <time>2026-07-05T09:27:04.000Z</time>
      </trkpt>
      <trkpt lat="44.92953" lon="5.76558">
        <ele>1128.8000488281</ele>
        <time>2026-07-05T09:27:05.000Z</time>
      </trkpt>
      <trkpt lat="44.92952" lon="5.76559">
        <ele>1128.5999755859</ele>
        <time>2026-07-05T09:27:06.000Z</time>
      </trkpt>
      <trkpt lat="44.92949" lon="5.76559">
        <ele>1128.1999511719</ele>
        <time>2026-07-05T09:27:07.000Z</time>
      </trkpt>
      <trkpt lat="44.92947" lon="5.76559">
        <ele>1128</ele>
        <time>2026-07-05T09:27:08.000Z</time>
      </trkpt>
      <trkpt lat="44.92944" lon="5.7656">
        <ele>1127.8000488281</ele>
        <time>2026-07-05T09:27:09.000Z</time>
      </trkpt>
      <trkpt lat="44.92942" lon="5.7656">
        <ele>1127.5999755859</ele>
        <time>2026-07-05T09:27:10.000Z</time>
      </trkpt>
      <trkpt lat="44.9294" lon="5.76559">
        <ele>1127.4000244141</ele>
        <time>2026-07-05T09:27:11.000Z</time>
      </trkpt>
      <trkpt lat="44.92938" lon="5.76559">
        <ele>1127.1999511719</ele>
        <time>2026-07-05T09:27:12.000Z</time>
      </trkpt>
      <trkpt lat="44.92936" lon="5.76558">
        <ele>1126.8000488281</ele>
        <time>2026-07-05T09:27:13.000Z</time>
      </trkpt>
      <trkpt lat="44.92934" lon="5.76558">
        <ele>1126.4000244141</ele>
        <time>2026-07-05T09:27:14.000Z</time>
      </trkpt>
      <trkpt lat="44.92932" lon="5.76557">
        <ele>1126.1999511719</ele>
        <time>2026-07-05T09:27:15.000Z</time>
      </trkpt>
      <trkpt lat="44.9293" lon="5.76557">
        <ele>1125.8000488281</ele>
        <time>2026-07-05T09:27:16.000Z</time>
      </trkpt>
      <trkpt lat="44.92928" lon="5.76555">
        <ele>1125.5999755859</ele>
        <time>2026-07-05T09:27:17.000Z</time>
      </trkpt>
      <trkpt lat="44.92926" lon="5.76554">
        <ele>1125.1999511719</ele>
        <time>2026-07-05T09:27:18.000Z</time>
      </trkpt>
      <trkpt lat="44.92925" lon="5.76552">
        <ele>1124.5999755859</ele>
        <time>2026-07-05T09:27:19.000Z</time>
      </trkpt>
      <trkpt lat="44.92924" lon="5.76551">
        <ele>1124</ele>
        <time>2026-07-05T09:27:20.000Z</time>
      </trkpt>
      <trkpt lat="44.92924" lon="5.76551">
        <ele>1123.5999755859</ele>
        <time>2026-07-05T09:27:21.000Z</time>
      </trkpt>
      <trkpt lat="44.92924" lon="5.76551">
        <ele>1123</ele>
        <time>2026-07-05T09:27:22.000Z</time>
      </trkpt>
      <trkpt lat="44.92924" lon="5.7655">
        <ele>1122.8000488281</ele>
        <time>2026-07-05T09:27:23.000Z</time>
      </trkpt>
      <trkpt lat="44.92923" lon="5.7655">
        <ele>1122.4000244141</ele>
        <time>2026-07-05T09:27:24.000Z</time>
      </trkpt>
      <trkpt lat="44.92922" lon="5.76549">
        <ele>1122.1999511719</ele>
        <time>2026-07-05T09:27:25.000Z</time>
      </trkpt>
      <trkpt lat="44.92922" lon="5.76549">
        <ele>1121.8000488281</ele>
        <time>2026-07-05T09:27:26.000Z</time>
      </trkpt>
      <trkpt lat="44.92922" lon="5.76549">
        <ele>1121.5999755859</ele>
        <time>2026-07-05T09:27:27.000Z</time>
      </trkpt>
      <trkpt lat="44.92921" lon="5.7655">
        <ele>1121.1999511719</ele>
        <time>2026-07-05T09:27:28.000Z</time>
      </trkpt>
      <trkpt lat="44.9292" lon="5.76549">
        <ele>1121</ele>
        <time>2026-07-05T09:27:29.000Z</time>
      </trkpt>
      <trkpt lat="44.9292" lon="5.76548">
        <ele>1120.4000244141</ele>
        <time>2026-07-05T09:27:30.000Z</time>
      </trkpt>
      <trkpt lat="44.9292" lon="5.76547">
        <ele>1120</ele>
        <time>2026-07-05T09:27:31.000Z</time>
      </trkpt>
      <trkpt lat="44.92919" lon="5.76548">
        <ele>1119.5999755859</ele>
        <time>2026-07-05T09:27:32.000Z</time>
      </trkpt>
      <trkpt lat="44.92919" lon="5.76548">
        <ele>1119</ele>
        <time>2026-07-05T09:27:33.000Z</time>
      </trkpt>
      <trkpt lat="44.92919" lon="5.76548">
        <ele>1118.5999755859</ele>
        <time>2026-07-05T09:27:34.000Z</time>
      </trkpt>
      <trkpt lat="44.92918" lon="5.76549">
        <ele>1118</ele>
        <time>2026-07-05T09:27:35.000Z</time>
      </trkpt>
      <trkpt lat="44.92917" lon="5.7655">
        <ele>1117.5999755859</ele>
        <time>2026-07-05T09:27:36.000Z</time>
      </trkpt>
      <trkpt lat="44.92916" lon="5.7655">
        <ele>1117.1999511719</ele>
        <time>2026-07-05T09:27:37.000Z</time>
      </trkpt>
      <trkpt lat="44.92915" lon="5.76551">
        <ele>1116.8000488281</ele>
        <time>2026-07-05T09:27:38.000Z</time>
      </trkpt>
      <trkpt lat="44.92915" lon="5.76552">
        <ele>1116.4000244141</ele>
        <time>2026-07-05T09:27:39.000Z</time>
      </trkpt>
      <trkpt lat="44.92914" lon="5.76553">
        <ele>1116</ele>
        <time>2026-07-05T09:27:40.000Z</time>
      </trkpt>
      <trkpt lat="44.92914" lon="5.76554">
        <ele>1115.5999755859</ele>
        <time>2026-07-05T09:27:41.000Z</time>
      </trkpt>
      <trkpt lat="44.92913" lon="5.76555">
        <ele>1115.1999511719</ele>
        <time>2026-07-05T09:27:42.000Z</time>
      </trkpt>
      <trkpt lat="44.92913" lon="5.76556">
        <ele>1114.8000488281</ele>
        <time>2026-07-05T09:27:43.000Z</time>
      </trkpt>
      <trkpt lat="44.92912" lon="5.76556">
        <ele>1114.5999755859</ele>
        <time>2026-07-05T09:27:44.000Z</time>
      </trkpt>
      <trkpt lat="44.92912" lon="5.76557">
        <ele>1114.1999511719</ele>
        <time>2026-07-05T09:27:45.000Z</time>
      </trkpt>
      <trkpt lat="44.92911" lon="5.76557">
        <ele>1113.8000488281</ele>
        <time>2026-07-05T09:27:46.000Z</time>
      </trkpt>
      <trkpt lat="44.9291" lon="5.76557">
        <ele>1113.4000244141</ele>
        <time>2026-07-05T09:27:47.000Z</time>
      </trkpt>
      <trkpt lat="44.9291" lon="5.76557">
        <ele>1113</ele>
        <time>2026-07-05T09:27:48.000Z</time>
      </trkpt>
      <trkpt lat="44.92909" lon="5.76557">
        <ele>1112.5999755859</ele>
        <time>2026-07-05T09:27:49.000Z</time>
      </trkpt>
      <trkpt lat="44.92909" lon="5.76557">
        <ele>1112.4000244141</ele>
        <time>2026-07-05T09:27:50.000Z</time>
      </trkpt>
      <trkpt lat="44.92908" lon="5.76558">
        <ele>1112</ele>
        <time>2026-07-05T09:27:51.000Z</time>
      </trkpt>
      <trkpt lat="44.92907" lon="5.76558">
        <ele>1111.5999755859</ele>
        <time>2026-07-05T09:27:52.000Z</time>
      </trkpt>
      <trkpt lat="44.92907" lon="5.76558">
        <ele>1111.4000244141</ele>
        <time>2026-07-05T09:27:53.000Z</time>
      </trkpt>
      <trkpt lat="44.92906" lon="5.76558">
        <ele>1111</ele>
        <time>2026-07-05T09:27:54.000Z</time>
      </trkpt>
      <trkpt lat="44.92906" lon="5.76557">
        <ele>1110.8000488281</ele>
        <time>2026-07-05T09:27:55.000Z</time>
      </trkpt>
      <trkpt lat="44.92906" lon="5.76556">
        <ele>1110.5999755859</ele>
        <time>2026-07-05T09:27:56.000Z</time>
      </trkpt>
      <trkpt lat="44.92905" lon="5.76556">
        <ele>1110.1999511719</ele>
        <time>2026-07-05T09:27:57.000Z</time>
      </trkpt>
      <trkpt lat="44.92905" lon="5.76557">
        <ele>1109.8000488281</ele>
        <time>2026-07-05T09:27:58.000Z</time>
      </trkpt>
      <trkpt lat="44.92904" lon="5.76557">
        <ele>1109.4000244141</ele>
        <time>2026-07-05T09:27:59.000Z</time>
      </trkpt>
      <trkpt lat="44.92904" lon="5.76558">
        <ele>1109.1999511719</ele>
        <time>2026-07-05T09:28:00.000Z</time>
      </trkpt>
      <trkpt lat="44.92903" lon="5.76558">
        <ele>1108.8000488281</ele>
        <time>2026-07-05T09:28:01.000Z</time>
      </trkpt>
      <trkpt lat="44.92902" lon="5.76558">
        <ele>1108.4000244141</ele>
        <time>2026-07-05T09:28:02.000Z</time>
      </trkpt>
      <trkpt lat="44.92902" lon="5.76557">
        <ele>1107.8000488281</ele>
        <time>2026-07-05T09:28:03.000Z</time>
      </trkpt>
      <trkpt lat="44.92901" lon="5.76556">
        <ele>1107.4000244141</ele>
        <time>2026-07-05T09:28:04.000Z</time>
      </trkpt>
      <trkpt lat="44.92901" lon="5.76556">
        <ele>1107</ele>
        <time>2026-07-05T09:28:05.000Z</time>
      </trkpt>
      <trkpt lat="44.929" lon="5.76555">
        <ele>1106.5999755859</ele>
        <time>2026-07-05T09:28:06.000Z</time>
      </trkpt>
      <trkpt lat="44.92899" lon="5.76554">
        <ele>1106.1999511719</ele>
        <time>2026-07-05T09:28:07.000Z</time>
      </trkpt>
      <trkpt lat="44.92898" lon="5.76553">
        <ele>1105.8000488281</ele>
        <time>2026-07-05T09:28:08.000Z</time>
      </trkpt>
      <trkpt lat="44.92897" lon="5.76552">
        <ele>1105.1999511719</ele>
        <time>2026-07-05T09:28:09.000Z</time>
      </trkpt>
      <trkpt lat="44.92896" lon="5.76552">
        <ele>1105</ele>
        <time>2026-07-05T09:28:10.000Z</time>
      </trkpt>
      <trkpt lat="44.92896" lon="5.76553">
        <ele>1104.5999755859</ele>
        <time>2026-07-05T09:28:11.000Z</time>
      </trkpt>
      <trkpt lat="44.92895" lon="5.76554">
        <ele>1104.5999755859</ele>
        <time>2026-07-05T09:28:12.000Z</time>
      </trkpt>
      <trkpt lat="44.92895" lon="5.76554">
        <ele>1104.1999511719</ele>
        <time>2026-07-05T09:28:13.000Z</time>
      </trkpt>
      <trkpt lat="44.92895" lon="5.76555">
        <ele>1104</ele>
        <time>2026-07-05T09:28:14.000Z</time>
      </trkpt>
      <trkpt lat="44.92894" lon="5.76555">
        <ele>1103.5999755859</ele>
        <time>2026-07-05T09:28:15.000Z</time>
      </trkpt>
      <trkpt lat="44.92894" lon="5.76556">
        <ele>1103.1999511719</ele>
        <time>2026-07-05T09:28:16.000Z</time>
      </trkpt>
      <trkpt lat="44.92894" lon="5.76557">
        <ele>1102.5999755859</ele>
        <time>2026-07-05T09:28:17.000Z</time>
      </trkpt>
      <trkpt lat="44.92893" lon="5.76558">
        <ele>1102.1999511719</ele>
        <time>2026-07-05T09:28:18.000Z</time>
      </trkpt>
      <trkpt lat="44.92893" lon="5.76559">
        <ele>1101.8000488281</ele>
        <time>2026-07-05T09:28:19.000Z</time>
      </trkpt>
      <trkpt lat="44.92892" lon="5.7656">
        <ele>1101.4000244141</ele>
        <time>2026-07-05T09:28:20.000Z</time>
      </trkpt>
      <trkpt lat="44.9289" lon="5.7656">
        <ele>1100.8000488281</ele>
        <time>2026-07-05T09:28:21.000Z</time>
      </trkpt>
      <trkpt lat="44.92889" lon="5.7656">
        <ele>1100.1999511719</ele>
        <time>2026-07-05T09:28:22.000Z</time>
      </trkpt>
      <trkpt lat="44.92888" lon="5.7656">
        <ele>1099.8000488281</ele>
        <time>2026-07-05T09:28:23.000Z</time>
      </trkpt>
      <trkpt lat="44.92887" lon="5.76561">
        <ele>1099.1999511719</ele>
        <time>2026-07-05T09:28:24.000Z</time>
      </trkpt>
      <trkpt lat="44.92885" lon="5.76561">
        <ele>1098.8000488281</ele>
        <time>2026-07-05T09:28:25.000Z</time>
      </trkpt>
      <trkpt lat="44.92884" lon="5.76561">
        <ele>1098.4000244141</ele>
        <time>2026-07-05T09:28:26.000Z</time>
      </trkpt>
      <trkpt lat="44.92883" lon="5.76562">
        <ele>1098.1999511719</ele>
        <time>2026-07-05T09:28:27.000Z</time>
      </trkpt>
      <trkpt lat="44.92883" lon="5.76562">
        <ele>1097.8000488281</ele>
        <time>2026-07-05T09:28:28.000Z</time>
      </trkpt>
      <trkpt lat="44.92882" lon="5.76563">
        <ele>1097.4000244141</ele>
        <time>2026-07-05T09:28:29.000Z</time>
      </trkpt>
      <trkpt lat="44.92883" lon="5.76564">
        <ele>1096.8000488281</ele>
        <time>2026-07-05T09:28:30.000Z</time>
      </trkpt>
      <trkpt lat="44.92883" lon="5.76566">
        <ele>1096</ele>
        <time>2026-07-05T09:28:31.000Z</time>
      </trkpt>
      <trkpt lat="44.92883" lon="5.76568">
        <ele>1095.4000244141</ele>
        <time>2026-07-05T09:28:32.000Z</time>
      </trkpt>
      <trkpt lat="44.92883" lon="5.76571">
        <ele>1095.4000244141</ele>
        <time>2026-07-05T09:28:33.000Z</time>
      </trkpt>
      <trkpt lat="44.92883" lon="5.76573">
        <ele>1094.8000488281</ele>
        <time>2026-07-05T09:28:34.000Z</time>
      </trkpt>
      <trkpt lat="44.92883" lon="5.76575">
        <ele>1094</ele>
        <time>2026-07-05T09:28:35.000Z</time>
      </trkpt>
      <trkpt lat="44.92883" lon="5.76577">
        <ele>1093.4000244141</ele>
        <time>2026-07-05T09:28:36.000Z</time>
      </trkpt>
      <trkpt lat="44.92883" lon="5.76579">
        <ele>1093</ele>
        <time>2026-07-05T09:28:37.000Z</time>
      </trkpt>
      <trkpt lat="44.92883" lon="5.76582">
        <ele>1092.5999755859</ele>
        <time>2026-07-05T09:28:38.000Z</time>
      </trkpt>
      <trkpt lat="44.92883" lon="5.76586">
        <ele>1092</ele>
        <time>2026-07-05T09:28:39.000Z</time>
      </trkpt>
      <trkpt lat="44.92884" lon="5.7659">
        <ele>1091.1999511719</ele>
        <time>2026-07-05T09:28:40.000Z</time>
      </trkpt>
      <trkpt lat="44.92884" lon="5.76594">
        <ele>1090.5999755859</ele>
        <time>2026-07-05T09:28:41.000Z</time>
      </trkpt>
      <trkpt lat="44.92885" lon="5.76597">
        <ele>1090.1999511719</ele>
        <time>2026-07-05T09:28:42.000Z</time>
      </trkpt>
      <trkpt lat="44.92885" lon="5.766">
        <ele>1089.8000488281</ele>
        <time>2026-07-05T09:28:43.000Z</time>
      </trkpt>
      <trkpt lat="44.92886" lon="5.76603">
        <ele>1089.5999755859</ele>
        <time>2026-07-05T09:28:44.000Z</time>
      </trkpt>
      <trkpt lat="44.92887" lon="5.76607">
        <ele>1089.5999755859</ele>
        <time>2026-07-05T09:28:45.000Z</time>
      </trkpt>
      <trkpt lat="44.92887" lon="5.76611">
        <ele>1089.1999511719</ele>
        <time>2026-07-05T09:28:46.000Z</time>
      </trkpt>
      <trkpt lat="44.92888" lon="5.76615">
        <ele>1088.8000488281</ele>
        <time>2026-07-05T09:28:47.000Z</time>
      </trkpt>
      <trkpt lat="44.92888" lon="5.76619">
        <ele>1088</ele>
        <time>2026-07-05T09:28:48.000Z</time>
      </trkpt>
      <trkpt lat="44.92888" lon="5.76623">
        <ele>1087.4000244141</ele>
        <time>2026-07-05T09:28:49.000Z</time>
      </trkpt>
      <trkpt lat="44.92888" lon="5.76627">
        <ele>1087.4000244141</ele>
        <time>2026-07-05T09:28:50.000Z</time>
      </trkpt>
      <trkpt lat="44.92888" lon="5.7663">
        <ele>1087.4000244141</ele>
        <time>2026-07-05T09:28:51.000Z</time>
      </trkpt>
      <trkpt lat="44.92887" lon="5.76633">
        <ele>1087.1999511719</ele>
        <time>2026-07-05T09:28:52.000Z</time>
      </trkpt>
      <trkpt lat="44.92885" lon="5.76637">
        <ele>1087.1999511719</ele>
        <time>2026-07-05T09:28:53.000Z</time>
      </trkpt>
      <trkpt lat="44.92884" lon="5.76641">
        <ele>1087.1999511719</ele>
        <time>2026-07-05T09:28:54.000Z</time>
      </trkpt>
      <trkpt lat="44.92882" lon="5.76644">
        <ele>1087.1999511719</ele>
        <time>2026-07-05T09:28:55.000Z</time>
      </trkpt>
      <trkpt lat="44.92879" lon="5.76646">
        <ele>1087.4000244141</ele>
        <time>2026-07-05T09:28:56.000Z</time>
      </trkpt>
      <trkpt lat="44.92877" lon="5.76649">
        <ele>1087.4000244141</ele>
        <time>2026-07-05T09:28:57.000Z</time>
      </trkpt>
      <trkpt lat="44.92874" lon="5.76651">
        <ele>1087.5999755859</ele>
        <time>2026-07-05T09:28:58.000Z</time>
      </trkpt>
      <trkpt lat="44.92871" lon="5.76654">
        <ele>1087.8000488281</ele>
        <time>2026-07-05T09:28:59.000Z</time>
      </trkpt>
      <trkpt lat="44.92869" lon="5.76657">
        <ele>1087.8000488281</ele>
        <time>2026-07-05T09:29:00.000Z</time>
      </trkpt>
      <trkpt lat="44.92866" lon="5.76659">
        <ele>1087.5999755859</ele>
        <time>2026-07-05T09:29:01.000Z</time>
      </trkpt>
      <trkpt lat="44.92864" lon="5.76662">
        <ele>1087.5999755859</ele>
        <time>2026-07-05T09:29:02.000Z</time>
      </trkpt>
      <trkpt lat="44.92862" lon="5.76665">
        <ele>1087.5999755859</ele>
        <time>2026-07-05T09:29:03.000Z</time>
      </trkpt>
      <trkpt lat="44.92861" lon="5.76668">
        <ele>1087.5999755859</ele>
        <time>2026-07-05T09:29:04.000Z</time>
      </trkpt>
      <trkpt lat="44.92859" lon="5.76672">
        <ele>1087.5999755859</ele>
        <time>2026-07-05T09:29:05.000Z</time>
      </trkpt>
      <trkpt lat="44.92859" lon="5.76675">
        <ele>1087.5999755859</ele>
        <time>2026-07-05T09:29:06.000Z</time>
      </trkpt>
      <trkpt lat="44.92859" lon="5.76679">
        <ele>1087.5999755859</ele>
        <time>2026-07-05T09:29:07.000Z</time>
      </trkpt>
      <trkpt lat="44.92859" lon="5.76682">
        <ele>1087.8000488281</ele>
        <time>2026-07-05T09:29:08.000Z</time>
      </trkpt>
      <trkpt lat="44.9286" lon="5.76685">
        <ele>1087.8000488281</ele>
        <time>2026-07-05T09:29:09.000Z</time>
      </trkpt>
      <trkpt lat="44.92861" lon="5.76687">
        <ele>1087.8000488281</ele>
        <time>2026-07-05T09:29:10.000Z</time>
      </trkpt>
      <trkpt lat="44.92863" lon="5.7669">
        <ele>1087.8000488281</ele>
        <time>2026-07-05T09:29:11.000Z</time>
      </trkpt>
      <trkpt lat="44.92864" lon="5.76693">
        <ele>1087.5999755859</ele>
        <time>2026-07-05T09:29:12.000Z</time>
      </trkpt>
      <trkpt lat="44.92864" lon="5.76696">
        <ele>1087.4000244141</ele>
        <time>2026-07-05T09:29:13.000Z</time>
      </trkpt>
      <trkpt lat="44.92864" lon="5.76697">
        <ele>1087.1999511719</ele>
        <time>2026-07-05T09:29:14.000Z</time>
      </trkpt>
      <trkpt lat="44.92864" lon="5.76699">
        <ele>1087</ele>
        <time>2026-07-05T09:29:15.000Z</time>
      </trkpt>
      <trkpt lat="44.92864" lon="5.767">
        <ele>1086.8000488281</ele>
        <time>2026-07-05T09:29:16.000Z</time>
      </trkpt>
      <trkpt lat="44.92863" lon="5.76701">
        <ele>1086.4000244141</ele>
        <time>2026-07-05T09:29:17.000Z</time>
      </trkpt>
      <trkpt lat="44.92863" lon="5.76701">
        <ele>1086.1999511719</ele>
        <time>2026-07-05T09:29:18.000Z</time>
      </trkpt>
      <trkpt lat="44.92863" lon="5.76701">
        <ele>1085.8000488281</ele>
        <time>2026-07-05T09:29:19.000Z</time>
      </trkpt>
      <trkpt lat="44.92863" lon="5.76701">
        <ele>1085.5999755859</ele>
        <time>2026-07-05T09:29:20.000Z</time>
      </trkpt>
      <trkpt lat="44.92863" lon="5.76702">
        <ele>1085.1999511719</ele>
        <time>2026-07-05T09:29:21.000Z</time>
      </trkpt>
      <trkpt lat="44.92862" lon="5.76703">
        <ele>1084.8000488281</ele>
        <time>2026-07-05T09:29:22.000Z</time>
      </trkpt>
      <trkpt lat="44.92862" lon="5.76704">
        <ele>1084.4000244141</ele>
        <time>2026-07-05T09:29:23.000Z</time>
      </trkpt>
      <trkpt lat="44.92861" lon="5.76704">
        <ele>1084</ele>
        <time>2026-07-05T09:29:24.000Z</time>
      </trkpt>
      <trkpt lat="44.92861" lon="5.76706">
        <ele>1083.4000244141</ele>
        <time>2026-07-05T09:29:25.000Z</time>
      </trkpt>
      <trkpt lat="44.9286" lon="5.76706">
        <ele>1083</ele>
        <time>2026-07-05T09:29:26.000Z</time>
      </trkpt>
      <trkpt lat="44.9286" lon="5.76707">
        <ele>1082.5999755859</ele>
        <time>2026-07-05T09:29:27.000Z</time>
      </trkpt>
      <trkpt lat="44.92859" lon="5.76708">
        <ele>1081.8000488281</ele>
        <time>2026-07-05T09:29:28.000Z</time>
      </trkpt>
      <trkpt lat="44.92859" lon="5.76709">
        <ele>1081</ele>
        <time>2026-07-05T09:29:29.000Z</time>
      </trkpt>
      <trkpt lat="44.9286" lon="5.7671">
        <ele>1080.5999755859</ele>
        <time>2026-07-05T09:29:30.000Z</time>
      </trkpt>
      <trkpt lat="44.92861" lon="5.76711">
        <ele>1080.1999511719</ele>
        <time>2026-07-05T09:29:31.000Z</time>
      </trkpt>
      <trkpt lat="44.92861" lon="5.76712">
        <ele>1080</ele>
        <time>2026-07-05T09:29:32.000Z</time>
      </trkpt>
      <trkpt lat="44.92862" lon="5.76712">
        <ele>1079.8000488281</ele>
        <time>2026-07-05T09:29:33.000Z</time>
      </trkpt>
      <trkpt lat="44.92863" lon="5.76712">
        <ele>1079.4000244141</ele>
        <time>2026-07-05T09:29:34.000Z</time>
      </trkpt>
      <trkpt lat="44.92863" lon="5.76712">
        <ele>1079.1999511719</ele>
        <time>2026-07-05T09:29:35.000Z</time>
      </trkpt>
      <trkpt lat="44.92864" lon="5.76713">
        <ele>1078.8000488281</ele>
        <time>2026-07-05T09:29:36.000Z</time>
      </trkpt>
      <trkpt lat="44.92864" lon="5.76713">
        <ele>1078.4000244141</ele>
        <time>2026-07-05T09:29:37.000Z</time>
      </trkpt>
      <trkpt lat="44.92866" lon="5.76713">
        <ele>1078.1999511719</ele>
        <time>2026-07-05T09:29:38.000Z</time>
      </trkpt>
      <trkpt lat="44.92866" lon="5.76713">
        <ele>1077.8000488281</ele>
        <time>2026-07-05T09:29:39.000Z</time>
      </trkpt>
      <trkpt lat="44.92868" lon="5.76714">
        <ele>1077.4000244141</ele>
        <time>2026-07-05T09:29:40.000Z</time>
      </trkpt>
      <trkpt lat="44.92869" lon="5.76714">
        <ele>1077</ele>
        <time>2026-07-05T09:29:41.000Z</time>
      </trkpt>
      <trkpt lat="44.9287" lon="5.76713">
        <ele>1076.4000244141</ele>
        <time>2026-07-05T09:29:42.000Z</time>
      </trkpt>
      <trkpt lat="44.92872" lon="5.76713">
        <ele>1076</ele>
        <time>2026-07-05T09:29:43.000Z</time>
      </trkpt>
      <trkpt lat="44.92873" lon="5.76712">
        <ele>1075.5999755859</ele>
        <time>2026-07-05T09:29:44.000Z</time>
      </trkpt>
      <trkpt lat="44.92875" lon="5.76711">
        <ele>1075.1999511719</ele>
        <time>2026-07-05T09:29:45.000Z</time>
      </trkpt>
      <trkpt lat="44.92876" lon="5.76711">
        <ele>1075</ele>
        <time>2026-07-05T09:29:46.000Z</time>
      </trkpt>
      <trkpt lat="44.92877" lon="5.76711">
        <ele>1075</ele>
        <time>2026-07-05T09:29:47.000Z</time>
      </trkpt>
      <trkpt lat="44.92878" lon="5.7671">
        <ele>1074.4000244141</ele>
        <time>2026-07-05T09:29:48.000Z</time>
      </trkpt>
      <trkpt lat="44.9288" lon="5.76708">
        <ele>1074.1999511719</ele>
        <time>2026-07-05T09:29:49.000Z</time>
      </trkpt>
      <trkpt lat="44.92881" lon="5.76707">
        <ele>1074</ele>
        <time>2026-07-05T09:29:50.000Z</time>
      </trkpt>
      <trkpt lat="44.92883" lon="5.76706">
        <ele>1073.8000488281</ele>
        <time>2026-07-05T09:29:51.000Z</time>
      </trkpt>
      <trkpt lat="44.92885" lon="5.76704">
        <ele>1073.4000244141</ele>
        <time>2026-07-05T09:29:52.000Z</time>
      </trkpt>
      <trkpt lat="44.92886" lon="5.76703">
        <ele>1073.1999511719</ele>
        <time>2026-07-05T09:29:53.000Z</time>
      </trkpt>
      <trkpt lat="44.92888" lon="5.76702">
        <ele>1073</ele>
        <time>2026-07-05T09:29:54.000Z</time>
      </trkpt>
      <trkpt lat="44.92889" lon="5.76701">
        <ele>1072.8000488281</ele>
        <time>2026-07-05T09:29:55.000Z</time>
      </trkpt>
      <trkpt lat="44.9289" lon="5.76701">
        <ele>1072.4000244141</ele>
        <time>2026-07-05T09:29:56.000Z</time>
      </trkpt>
      <trkpt lat="44.92891" lon="5.76702">
        <ele>1072</ele>
        <time>2026-07-05T09:29:57.000Z</time>
      </trkpt>
      <trkpt lat="44.92892" lon="5.76701">
        <ele>1071.8000488281</ele>
        <time>2026-07-05T09:29:58.000Z</time>
      </trkpt>
      <trkpt lat="44.92893" lon="5.76701">
        <ele>1071.1999511719</ele>
        <time>2026-07-05T09:29:59.000Z</time>
      </trkpt>
      <trkpt lat="44.92894" lon="5.76701">
        <ele>1070.8000488281</ele>
        <time>2026-07-05T09:30:00.000Z</time>
      </trkpt>
      <trkpt lat="44.92895" lon="5.76701">
        <ele>1070.4000244141</ele>
        <time>2026-07-05T09:30:01.000Z</time>
      </trkpt>
      <trkpt lat="44.92896" lon="5.767">
        <ele>1069.8000488281</ele>
        <time>2026-07-05T09:30:02.000Z</time>
      </trkpt>
      <trkpt lat="44.92897" lon="5.76699">
        <ele>1069.4000244141</ele>
        <time>2026-07-05T09:30:03.000Z</time>
      </trkpt>
      <trkpt lat="44.92898" lon="5.76699">
        <ele>1068.8000488281</ele>
        <time>2026-07-05T09:30:04.000Z</time>
      </trkpt>
      <trkpt lat="44.92899" lon="5.76699">
        <ele>1068.8000488281</ele>
        <time>2026-07-05T09:30:05.000Z</time>
      </trkpt>
      <trkpt lat="44.929" lon="5.76699">
        <ele>1068.1999511719</ele>
        <time>2026-07-05T09:30:06.000Z</time>
      </trkpt>
      <trkpt lat="44.929" lon="5.767">
        <ele>1067.5999755859</ele>
        <time>2026-07-05T09:30:07.000Z</time>
      </trkpt>
      <trkpt lat="44.929" lon="5.76702">
        <ele>1067.1999511719</ele>
        <time>2026-07-05T09:30:08.000Z</time>
      </trkpt>
      <trkpt lat="44.929" lon="5.76704">
        <ele>1066.8000488281</ele>
        <time>2026-07-05T09:30:09.000Z</time>
      </trkpt>
      <trkpt lat="44.92899" lon="5.76707">
        <ele>1066.8000488281</ele>
        <time>2026-07-05T09:30:10.000Z</time>
      </trkpt>
      <trkpt lat="44.92898" lon="5.76708">
        <ele>1066.5999755859</ele>
        <time>2026-07-05T09:30:11.000Z</time>
      </trkpt>
      <trkpt lat="44.92897" lon="5.7671">
        <ele>1066.4000244141</ele>
        <time>2026-07-05T09:30:12.000Z</time>
      </trkpt>
      <trkpt lat="44.92896" lon="5.76712">
        <ele>1066.1999511719</ele>
        <time>2026-07-05T09:30:13.000Z</time>
      </trkpt>
      <trkpt lat="44.92894" lon="5.76714">
        <ele>1066.4000244141</ele>
        <time>2026-07-05T09:30:14.000Z</time>
      </trkpt>
      <trkpt lat="44.92894" lon="5.76716">
        <ele>1066.4000244141</ele>
        <time>2026-07-05T09:30:15.000Z</time>
      </trkpt>
      <trkpt lat="44.92893" lon="5.76718">
        <ele>1066.4000244141</ele>
        <time>2026-07-05T09:30:16.000Z</time>
      </trkpt>
      <trkpt lat="44.92892" lon="5.7672">
        <ele>1066.5999755859</ele>
        <time>2026-07-05T09:30:17.000Z</time>
      </trkpt>
      <trkpt lat="44.92891" lon="5.76722">
        <ele>1066.1999511719</ele>
        <time>2026-07-05T09:30:18.000Z</time>
      </trkpt>
      <trkpt lat="44.9289" lon="5.76725">
        <ele>1066.1999511719</ele>
        <time>2026-07-05T09:30:19.000Z</time>
      </trkpt>
      <trkpt lat="44.92889" lon="5.76726">
        <ele>1065.8000488281</ele>
        <time>2026-07-05T09:30:20.000Z</time>
      </trkpt>
      <trkpt lat="44.92887" lon="5.76728">
        <ele>1065</ele>
        <time>2026-07-05T09:30:21.000Z</time>
      </trkpt>
      <trkpt lat="44.92886" lon="5.7673">
        <ele>1064.4000244141</ele>
        <time>2026-07-05T09:30:22.000Z</time>
      </trkpt>
      <trkpt lat="44.92885" lon="5.76731">
        <ele>1064</ele>
        <time>2026-07-05T09:30:23.000Z</time>
      </trkpt>
      <trkpt lat="44.92883" lon="5.76732">
        <ele>1063.8000488281</ele>
        <time>2026-07-05T09:30:24.000Z</time>
      </trkpt>
      <trkpt lat="44.92882" lon="5.76734">
        <ele>1064</ele>
        <time>2026-07-05T09:30:25.000Z</time>
      </trkpt>
      <trkpt lat="44.92881" lon="5.76736">
        <ele>1064</ele>
        <time>2026-07-05T09:30:26.000Z</time>
      </trkpt>
      <trkpt lat="44.92879" lon="5.76738">
        <ele>1064</ele>
        <time>2026-07-05T09:30:27.000Z</time>
      </trkpt>
      <trkpt lat="44.92878" lon="5.76739">
        <ele>1064.1999511719</ele>
        <time>2026-07-05T09:30:28.000Z</time>
      </trkpt>
      <trkpt lat="44.92876" lon="5.76741">
        <ele>1064</ele>
        <time>2026-07-05T09:30:29.000Z</time>
      </trkpt>
      <trkpt lat="44.92875" lon="5.76742">
        <ele>1063.5999755859</ele>
        <time>2026-07-05T09:30:30.000Z</time>
      </trkpt>
      <trkpt lat="44.92875" lon="5.76744">
        <ele>1063.1999511719</ele>
        <time>2026-07-05T09:30:31.000Z</time>
      </trkpt>
      <trkpt lat="44.92874" lon="5.76745">
        <ele>1062.4000244141</ele>
        <time>2026-07-05T09:30:32.000Z</time>
      </trkpt>
      <trkpt lat="44.92874" lon="5.76747">
        <ele>1061.5999755859</ele>
        <time>2026-07-05T09:30:33.000Z</time>
      </trkpt>
      <trkpt lat="44.92873" lon="5.76748">
        <ele>1061</ele>
        <time>2026-07-05T09:30:34.000Z</time>
      </trkpt>
      <trkpt lat="44.92872" lon="5.7675">
        <ele>1060.5999755859</ele>
        <time>2026-07-05T09:30:35.000Z</time>
      </trkpt>
      <trkpt lat="44.92872" lon="5.76752">
        <ele>1060</ele>
        <time>2026-07-05T09:30:36.000Z</time>
      </trkpt>
      <trkpt lat="44.92871" lon="5.76753">
        <ele>1059.4000244141</ele>
        <time>2026-07-05T09:30:37.000Z</time>
      </trkpt>
      <trkpt lat="44.9287" lon="5.76755">
        <ele>1059</ele>
        <time>2026-07-05T09:30:38.000Z</time>
      </trkpt>
      <trkpt lat="44.92869" lon="5.76756">
        <ele>1058.1999511719</ele>
        <time>2026-07-05T09:30:39.000Z</time>
      </trkpt>
      <trkpt lat="44.92867" lon="5.76757">
        <ele>1057.5999755859</ele>
        <time>2026-07-05T09:30:40.000Z</time>
      </trkpt>
      <trkpt lat="44.92867" lon="5.76757">
        <ele>1057</ele>
        <time>2026-07-05T09:30:41.000Z</time>
      </trkpt>
      <trkpt lat="44.92866" lon="5.76758">
        <ele>1056.8000488281</ele>
        <time>2026-07-05T09:30:42.000Z</time>
      </trkpt>
      <trkpt lat="44.92865" lon="5.76759">
        <ele>1055.8000488281</ele>
        <time>2026-07-05T09:30:43.000Z</time>
      </trkpt>
      <trkpt lat="44.92865" lon="5.7676">
        <ele>1055.4000244141</ele>
        <time>2026-07-05T09:30:44.000Z</time>
      </trkpt>
      <trkpt lat="44.92864" lon="5.76762">
        <ele>1055</ele>
        <time>2026-07-05T09:30:45.000Z</time>
      </trkpt>
      <trkpt lat="44.92863" lon="5.76763">
        <ele>1054.4000244141</ele>
        <time>2026-07-05T09:30:46.000Z</time>
      </trkpt>
      <trkpt lat="44.92863" lon="5.76764">
        <ele>1054.1999511719</ele>
        <time>2026-07-05T09:30:47.000Z</time>
      </trkpt>
      <trkpt lat="44.92863" lon="5.76766">
        <ele>1053.8000488281</ele>
        <time>2026-07-05T09:30:48.000Z</time>
      </trkpt>
      <trkpt lat="44.92863" lon="5.76768">
        <ele>1053.5999755859</ele>
        <time>2026-07-05T09:30:49.000Z</time>
      </trkpt>
      <trkpt lat="44.92862" lon="5.7677">
        <ele>1052.8000488281</ele>
        <time>2026-07-05T09:30:50.000Z</time>
      </trkpt>
      <trkpt lat="44.92862" lon="5.76771">
        <ele>1052.4000244141</ele>
        <time>2026-07-05T09:30:51.000Z</time>
      </trkpt>
      <trkpt lat="44.92862" lon="5.76773">
        <ele>1052.1999511719</ele>
        <time>2026-07-05T09:30:52.000Z</time>
      </trkpt>
      <trkpt lat="44.92862" lon="5.76775">
        <ele>1052.1999511719</ele>
        <time>2026-07-05T09:30:53.000Z</time>
      </trkpt>
      <trkpt lat="44.92862" lon="5.76777">
        <ele>1052.1999511719</ele>
        <time>2026-07-05T09:30:54.000Z</time>
      </trkpt>
      <trkpt lat="44.92861" lon="5.76779">
        <ele>1052</ele>
        <time>2026-07-05T09:30:55.000Z</time>
      </trkpt>
      <trkpt lat="44.92861" lon="5.76781">
        <ele>1051.8000488281</ele>
        <time>2026-07-05T09:30:56.000Z</time>
      </trkpt>
      <trkpt lat="44.9286" lon="5.76783">
        <ele>1051.4000244141</ele>
        <time>2026-07-05T09:30:57.000Z</time>
      </trkpt>
      <trkpt lat="44.9286" lon="5.76784">
        <ele>1051</ele>
        <time>2026-07-05T09:30:58.000Z</time>
      </trkpt>
      <trkpt lat="44.92859" lon="5.76785">
        <ele>1050.8000488281</ele>
        <time>2026-07-05T09:30:59.000Z</time>
      </trkpt>
      <trkpt lat="44.9286" lon="5.76786">
        <ele>1050.4000244141</ele>
        <time>2026-07-05T09:31:00.000Z</time>
      </trkpt>
      <trkpt lat="44.9286" lon="5.76788">
        <ele>1049.8000488281</ele>
        <time>2026-07-05T09:31:01.000Z</time>
      </trkpt>
      <trkpt lat="44.9286" lon="5.76789">
        <ele>1049.5999755859</ele>
        <time>2026-07-05T09:31:02.000Z</time>
      </trkpt>
      <trkpt lat="44.92859" lon="5.76791">
        <ele>1049</ele>
        <time>2026-07-05T09:31:03.000Z</time>
      </trkpt>
      <trkpt lat="44.92858" lon="5.76794">
        <ele>1048.1999511719</ele>
        <time>2026-07-05T09:31:04.000Z</time>
      </trkpt>
      <trkpt lat="44.92856" lon="5.76795">
        <ele>1047.5999755859</ele>
        <time>2026-07-05T09:31:05.000Z</time>
      </trkpt>
      <trkpt lat="44.92854" lon="5.76794">
        <ele>1046.8000488281</ele>
        <time>2026-07-05T09:31:06.000Z</time>
      </trkpt>
      <trkpt lat="44.92852" lon="5.76793">
        <ele>1046.4000244141</ele>
        <time>2026-07-05T09:31:07.000Z</time>
      </trkpt>
      <trkpt lat="44.9285" lon="5.76791">
        <ele>1045.8000488281</ele>
        <time>2026-07-05T09:31:08.000Z</time>
      </trkpt>
      <trkpt lat="44.92848" lon="5.7679">
        <ele>1045.4000244141</ele>
        <time>2026-07-05T09:31:09.000Z</time>
      </trkpt>
      <trkpt lat="44.92846" lon="5.76789">
        <ele>1044.8000488281</ele>
        <time>2026-07-05T09:31:10.000Z</time>
      </trkpt>
      <trkpt lat="44.92844" lon="5.76789">
        <ele>1044.4000244141</ele>
        <time>2026-07-05T09:31:11.000Z</time>
      </trkpt>
      <trkpt lat="44.92842" lon="5.7679">
        <ele>1044.4000244141</ele>
        <time>2026-07-05T09:31:12.000Z</time>
      </trkpt>
      <trkpt lat="44.92841" lon="5.76791">
        <ele>1044.5999755859</ele>
        <time>2026-07-05T09:31:13.000Z</time>
      </trkpt>
      <trkpt lat="44.9284" lon="5.76791">
        <ele>1044.5999755859</ele>
        <time>2026-07-05T09:31:14.000Z</time>
      </trkpt>
      <trkpt lat="44.92839" lon="5.76792">
        <ele>1044.5999755859</ele>
        <time>2026-07-05T09:31:15.000Z</time>
      </trkpt>
      <trkpt lat="44.92838" lon="5.76794">
        <ele>1044.8000488281</ele>
        <time>2026-07-05T09:31:16.000Z</time>
      </trkpt>
      <trkpt lat="44.92837" lon="5.76795">
        <ele>1044</ele>
        <time>2026-07-05T09:31:17.000Z</time>
      </trkpt>
      <trkpt lat="44.92837" lon="5.76796">
        <ele>1043</ele>
        <time>2026-07-05T09:31:18.000Z</time>
      </trkpt>
      <trkpt lat="44.92836" lon="5.76797">
        <ele>1042</ele>
        <time>2026-07-05T09:31:19.000Z</time>
      </trkpt>
      <trkpt lat="44.92836" lon="5.76798">
        <ele>1040.8000488281</ele>
        <time>2026-07-05T09:31:20.000Z</time>
      </trkpt>
      <trkpt lat="44.92836" lon="5.76799">
        <ele>1040.4000244141</ele>
        <time>2026-07-05T09:31:21.000Z</time>
      </trkpt>
      <trkpt lat="44.92835" lon="5.768">
        <ele>1039.8000488281</ele>
        <time>2026-07-05T09:31:22.000Z</time>
      </trkpt>
      <trkpt lat="44.92834" lon="5.76801">
        <ele>1039.1999511719</ele>
        <time>2026-07-05T09:31:23.000Z</time>
      </trkpt>
      <trkpt lat="44.92834" lon="5.76802">
        <ele>1038.5999755859</ele>
        <time>2026-07-05T09:31:24.000Z</time>
      </trkpt>
      <trkpt lat="44.92833" lon="5.76804">
        <ele>1037.8000488281</ele>
        <time>2026-07-05T09:31:25.000Z</time>
      </trkpt>
      <trkpt lat="44.92831" lon="5.76805">
        <ele>1037.4000244141</ele>
        <time>2026-07-05T09:31:26.000Z</time>
      </trkpt>
      <trkpt lat="44.9283" lon="5.76807">
        <ele>1036.8000488281</ele>
        <time>2026-07-05T09:31:27.000Z</time>
      </trkpt>
      <trkpt lat="44.92829" lon="5.76807">
        <ele>1036</ele>
        <time>2026-07-05T09:31:28.000Z</time>
      </trkpt>
      <trkpt lat="44.92829" lon="5.76808">
        <ele>1035.4000244141</ele>
        <time>2026-07-05T09:31:29.000Z</time>
      </trkpt>
      <trkpt lat="44.92828" lon="5.76809">
        <ele>1035</ele>
        <time>2026-07-05T09:31:30.000Z</time>
      </trkpt>
      <trkpt lat="44.92828" lon="5.7681">
        <ele>1034.5999755859</ele>
        <time>2026-07-05T09:31:31.000Z</time>
      </trkpt>
      <trkpt lat="44.92828" lon="5.7681">
        <ele>1034.4000244141</ele>
        <time>2026-07-05T09:31:32.000Z</time>
      </trkpt>
      <trkpt lat="44.92828" lon="5.76811">
        <ele>1034.4000244141</ele>
        <time>2026-07-05T09:31:33.000Z</time>
      </trkpt>
      <trkpt lat="44.92827" lon="5.76812">
        <ele>1034</ele>
        <time>2026-07-05T09:31:34.000Z</time>
      </trkpt>
      <trkpt lat="44.92826" lon="5.76812">
        <ele>1033.5999755859</ele>
        <time>2026-07-05T09:31:35.000Z</time>
      </trkpt>
      <trkpt lat="44.92825" lon="5.76813">
        <ele>1033.4000244141</ele>
        <time>2026-07-05T09:31:36.000Z</time>
      </trkpt>
      <trkpt lat="44.92824" lon="5.76814">
        <ele>1032.8000488281</ele>
        <time>2026-07-05T09:31:37.000Z</time>
      </trkpt>
      <trkpt lat="44.92825" lon="5.76814">
        <ele>1032.4000244141</ele>
        <time>2026-07-05T09:31:38.000Z</time>
      </trkpt>
      <trkpt lat="44.92825" lon="5.76815">
        <ele>1032.1999511719</ele>
        <time>2026-07-05T09:31:39.000Z</time>
      </trkpt>
      <trkpt lat="44.92826" lon="5.76815">
        <ele>1031.5999755859</ele>
        <time>2026-07-05T09:31:40.000Z</time>
      </trkpt>
      <trkpt lat="44.92827" lon="5.76815">
        <ele>1031</ele>
        <time>2026-07-05T09:31:41.000Z</time>
      </trkpt>
      <trkpt lat="44.92829" lon="5.76816">
        <ele>1030</ele>
        <time>2026-07-05T09:31:42.000Z</time>
      </trkpt>
      <trkpt lat="44.9283" lon="5.76816">
        <ele>1029.4000244141</ele>
        <time>2026-07-05T09:31:43.000Z</time>
      </trkpt>
      <trkpt lat="44.92831" lon="5.76817">
        <ele>1028.5999755859</ele>
        <time>2026-07-05T09:31:44.000Z</time>
      </trkpt>
      <trkpt lat="44.92832" lon="5.76818">
        <ele>1028.1999511719</ele>
        <time>2026-07-05T09:31:45.000Z</time>
      </trkpt>
      <trkpt lat="44.92834" lon="5.7682">
        <ele>1027.4000244141</ele>
        <time>2026-07-05T09:31:46.000Z</time>
      </trkpt>
      <trkpt lat="44.92834" lon="5.76822">
        <ele>1026.5999755859</ele>
        <time>2026-07-05T09:31:47.000Z</time>
      </trkpt>
      <trkpt lat="44.92836" lon="5.76824">
        <ele>1026.1999511719</ele>
        <time>2026-07-05T09:31:48.000Z</time>
      </trkpt>
      <trkpt lat="44.92837" lon="5.76826">
        <ele>1025.5999755859</ele>
        <time>2026-07-05T09:31:49.000Z</time>
      </trkpt>
      <trkpt lat="44.92838" lon="5.76828">
        <ele>1025.1999511719</ele>
        <time>2026-07-05T09:31:50.000Z</time>
      </trkpt>
      <trkpt lat="44.92839" lon="5.7683">
        <ele>1025</ele>
        <time>2026-07-05T09:31:51.000Z</time>
      </trkpt>
      <trkpt lat="44.9284" lon="5.76831">
        <ele>1025.4000244141</ele>
        <time>2026-07-05T09:31:52.000Z</time>
      </trkpt>
      <trkpt lat="44.92841" lon="5.76833">
        <ele>1025.8000488281</ele>
        <time>2026-07-05T09:31:53.000Z</time>
      </trkpt>
      <trkpt lat="44.92842" lon="5.76834">
        <ele>1026</ele>
        <time>2026-07-05T09:31:54.000Z</time>
      </trkpt>
      <trkpt lat="44.92843" lon="5.76834">
        <ele>1026.4000244141</ele>
        <time>2026-07-05T09:31:55.000Z</time>
      </trkpt>
      <trkpt lat="44.92844" lon="5.76835">
        <ele>1026.4000244141</ele>
        <time>2026-07-05T09:31:56.000Z</time>
      </trkpt>
      <trkpt lat="44.92845" lon="5.76836">
        <ele>1026.4000244141</ele>
        <time>2026-07-05T09:31:57.000Z</time>
      </trkpt>
      <trkpt lat="44.92846" lon="5.76836">
        <ele>1026.4000244141</ele>
        <time>2026-07-05T09:31:58.000Z</time>
      </trkpt>
      <trkpt lat="44.92847" lon="5.76837">
        <ele>1026.1999511719</ele>
        <time>2026-07-05T09:31:59.000Z</time>
      </trkpt>
      <trkpt lat="44.92848" lon="5.76838">
        <ele>1025.8000488281</ele>
        <time>2026-07-05T09:32:00.000Z</time>
      </trkpt>
      <trkpt lat="44.9285" lon="5.76838">
        <ele>1025.4000244141</ele>
        <time>2026-07-05T09:32:01.000Z</time>
      </trkpt>
      <trkpt lat="44.92851" lon="5.76837">
        <ele>1024.5999755859</ele>
        <time>2026-07-05T09:32:02.000Z</time>
      </trkpt>
      <trkpt lat="44.92852" lon="5.76836">
        <ele>1024.1999511719</ele>
        <time>2026-07-05T09:32:03.000Z</time>
      </trkpt>
      <trkpt lat="44.92854" lon="5.76836">
        <ele>1023.5999755859</ele>
        <time>2026-07-05T09:32:04.000Z</time>
      </trkpt>
      <trkpt lat="44.92855" lon="5.76837">
        <ele>1023.200012207</ele>
        <time>2026-07-05T09:32:05.000Z</time>
      </trkpt>
      <trkpt lat="44.92855" lon="5.76837">
        <ele>1022.5999755859</ele>
        <time>2026-07-05T09:32:06.000Z</time>
      </trkpt>
      <trkpt lat="44.92857" lon="5.76836">
        <ele>1022.4000244141</ele>
        <time>2026-07-05T09:32:07.000Z</time>
      </trkpt>
      <trkpt lat="44.92858" lon="5.76835">
        <ele>1022.200012207</ele>
        <time>2026-07-05T09:32:08.000Z</time>
      </trkpt>
      <trkpt lat="44.9286" lon="5.76834">
        <ele>1022.200012207</ele>
        <time>2026-07-05T09:32:09.000Z</time>
      </trkpt>
      <trkpt lat="44.92862" lon="5.76834">
        <ele>1021.5999755859</ele>
        <time>2026-07-05T09:32:10.000Z</time>
      </trkpt>
      <trkpt lat="44.92864" lon="5.76833">
        <ele>1021.200012207</ele>
        <time>2026-07-05T09:32:11.000Z</time>
      </trkpt>
      <trkpt lat="44.92865" lon="5.76833">
        <ele>1021</ele>
        <time>2026-07-05T09:32:12.000Z</time>
      </trkpt>
      <trkpt lat="44.92867" lon="5.76832">
        <ele>1020.799987793</ele>
        <time>2026-07-05T09:32:13.000Z</time>
      </trkpt>
      <trkpt lat="44.92869" lon="5.76832">
        <ele>1020.799987793</ele>
        <time>2026-07-05T09:32:14.000Z</time>
      </trkpt>
      <trkpt lat="44.9287" lon="5.76831">
        <ele>1021</ele>
        <time>2026-07-05T09:32:15.000Z</time>
      </trkpt>
      <trkpt lat="44.92872" lon="5.7683">
        <ele>1021</ele>
        <time>2026-07-05T09:32:16.000Z</time>
      </trkpt>
      <trkpt lat="44.92873" lon="5.76829">
        <ele>1020.799987793</ele>
        <time>2026-07-05T09:32:17.000Z</time>
      </trkpt>
      <trkpt lat="44.92875" lon="5.76828">
        <ele>1020.5999755859</ele>
        <time>2026-07-05T09:32:18.000Z</time>
      </trkpt>
      <trkpt lat="44.92877" lon="5.76828">
        <ele>1020</ele>
        <time>2026-07-05T09:32:19.000Z</time>
      </trkpt>
      <trkpt lat="44.92878" lon="5.76827">
        <ele>1019.5999755859</ele>
        <time>2026-07-05T09:32:20.000Z</time>
      </trkpt>
      <trkpt lat="44.9288" lon="5.76826">
        <ele>1019.4000244141</ele>
        <time>2026-07-05T09:32:21.000Z</time>
      </trkpt>
      <trkpt lat="44.92882" lon="5.76825">
        <ele>1018.799987793</ele>
        <time>2026-07-05T09:32:22.000Z</time>
      </trkpt>
      <trkpt lat="44.92885" lon="5.76824">
        <ele>1018.4000244141</ele>
        <time>2026-07-05T09:32:23.000Z</time>
      </trkpt>
      <trkpt lat="44.92886" lon="5.76824">
        <ele>1018.4000244141</ele>
        <time>2026-07-05T09:32:24.000Z</time>
      </trkpt>
      <trkpt lat="44.92888" lon="5.76824">
        <ele>1018.4000244141</ele>
        <time>2026-07-05T09:32:25.000Z</time>
      </trkpt>
      <trkpt lat="44.92891" lon="5.76823">
        <ele>1018.4000244141</ele>
        <time>2026-07-05T09:32:26.000Z</time>
      </trkpt>
      <trkpt lat="44.92893" lon="5.76823">
        <ele>1018.5999755859</ele>
        <time>2026-07-05T09:32:27.000Z</time>
      </trkpt>
      <trkpt lat="44.92895" lon="5.76823">
        <ele>1018.5999755859</ele>
        <time>2026-07-05T09:32:28.000Z</time>
      </trkpt>
      <trkpt lat="44.92897" lon="5.76823">
        <ele>1018.799987793</ele>
        <time>2026-07-05T09:32:29.000Z</time>
      </trkpt>
      <trkpt lat="44.92899" lon="5.76824">
        <ele>1018.799987793</ele>
        <time>2026-07-05T09:32:30.000Z</time>
      </trkpt>
      <trkpt lat="44.92901" lon="5.76825">
        <ele>1018.799987793</ele>
        <time>2026-07-05T09:32:31.000Z</time>
      </trkpt>
      <trkpt lat="44.92903" lon="5.76826">
        <ele>1018.799987793</ele>
        <time>2026-07-05T09:32:32.000Z</time>
      </trkpt>
      <trkpt lat="44.92904" lon="5.76826">
        <ele>1018.799987793</ele>
        <time>2026-07-05T09:32:33.000Z</time>
      </trkpt>
      <trkpt lat="44.92906" lon="5.76826">
        <ele>1018.5999755859</ele>
        <time>2026-07-05T09:32:34.000Z</time>
      </trkpt>
      <trkpt lat="44.92908" lon="5.76827">
        <ele>1018.4000244141</ele>
        <time>2026-07-05T09:32:35.000Z</time>
      </trkpt>
      <trkpt lat="44.9291" lon="5.76827">
        <ele>1018.4000244141</ele>
        <time>2026-07-05T09:32:36.000Z</time>
      </trkpt>
      <trkpt lat="44.92912" lon="5.76828">
        <ele>1018.4000244141</ele>
        <time>2026-07-05T09:32:37.000Z</time>
      </trkpt>
      <trkpt lat="44.92914" lon="5.7683">
        <ele>1018.4000244141</ele>
        <time>2026-07-05T09:32:38.000Z</time>
      </trkpt>
      <trkpt lat="44.92916" lon="5.76831">
        <ele>1018.4000244141</ele>
        <time>2026-07-05T09:32:39.000Z</time>
      </trkpt>
      <trkpt lat="44.92918" lon="5.76831">
        <ele>1018.200012207</ele>
        <time>2026-07-05T09:32:40.000Z</time>
      </trkpt>
      <trkpt lat="44.9292" lon="5.76832">
        <ele>1018</ele>
        <time>2026-07-05T09:32:41.000Z</time>
      </trkpt>
      <trkpt lat="44.92922" lon="5.76833">
        <ele>1017.799987793</ele>
        <time>2026-07-05T09:32:42.000Z</time>
      </trkpt>
      <trkpt lat="44.92924" lon="5.76834">
        <ele>1017.799987793</ele>
        <time>2026-07-05T09:32:43.000Z</time>
      </trkpt>
      <trkpt lat="44.92926" lon="5.76836">
        <ele>1017.5999755859</ele>
        <time>2026-07-05T09:32:44.000Z</time>
      </trkpt>
      <trkpt lat="44.92928" lon="5.76837">
        <ele>1017.5999755859</ele>
        <time>2026-07-05T09:32:45.000Z</time>
      </trkpt>
      <trkpt lat="44.92929" lon="5.76839">
        <ele>1017.4000244141</ele>
        <time>2026-07-05T09:32:46.000Z</time>
      </trkpt>
      <trkpt lat="44.92931" lon="5.76841">
        <ele>1017.4000244141</ele>
        <time>2026-07-05T09:32:47.000Z</time>
      </trkpt>
      <trkpt lat="44.92932" lon="5.76843">
        <ele>1017.200012207</ele>
        <time>2026-07-05T09:32:48.000Z</time>
      </trkpt>
      <trkpt lat="44.92933" lon="5.76845">
        <ele>1017</ele>
        <time>2026-07-05T09:32:49.000Z</time>
      </trkpt>
      <trkpt lat="44.92935" lon="5.76846">
        <ele>1017</ele>
        <time>2026-07-05T09:32:50.000Z</time>
      </trkpt>
      <trkpt lat="44.92937" lon="5.76848">
        <ele>1016.799987793</ele>
        <time>2026-07-05T09:32:51.000Z</time>
      </trkpt>
      <trkpt lat="44.92939" lon="5.76848">
        <ele>1016.799987793</ele>
        <time>2026-07-05T09:32:52.000Z</time>
      </trkpt>
      <trkpt lat="44.92941" lon="5.76849">
        <ele>1016.799987793</ele>
        <time>2026-07-05T09:32:53.000Z</time>
      </trkpt>
      <trkpt lat="44.92943" lon="5.7685">
        <ele>1016.5999755859</ele>
        <time>2026-07-05T09:32:54.000Z</time>
      </trkpt>
      <trkpt lat="44.92944" lon="5.76852">
        <ele>1016.5999755859</ele>
        <time>2026-07-05T09:32:55.000Z</time>
      </trkpt>
      <trkpt lat="44.92946" lon="5.76854">
        <ele>1016.799987793</ele>
        <time>2026-07-05T09:32:56.000Z</time>
      </trkpt>
      <trkpt lat="44.92947" lon="5.76855">
        <ele>1016.5999755859</ele>
        <time>2026-07-05T09:32:57.000Z</time>
      </trkpt>
      <trkpt lat="44.92949" lon="5.76857">
        <ele>1016.5999755859</ele>
        <time>2026-07-05T09:32:58.000Z</time>
      </trkpt>
      <trkpt lat="44.92951" lon="5.76858">
        <ele>1016.4000244141</ele>
        <time>2026-07-05T09:32:59.000Z</time>
      </trkpt>
      <trkpt lat="44.92953" lon="5.76858">
        <ele>1016.200012207</ele>
        <time>2026-07-05T09:33:00.000Z</time>
      </trkpt>
      <trkpt lat="44.92955" lon="5.76859">
        <ele>1016</ele>
        <time>2026-07-05T09:33:01.000Z</time>
      </trkpt>
      <trkpt lat="44.92956" lon="5.76859">
        <ele>1015.799987793</ele>
        <time>2026-07-05T09:33:02.000Z</time>
      </trkpt>
      <trkpt lat="44.92958" lon="5.7686">
        <ele>1015.5999755859</ele>
        <time>2026-07-05T09:33:03.000Z</time>
      </trkpt>
      <trkpt lat="44.9296" lon="5.76861">
        <ele>1015</ele>
        <time>2026-07-05T09:33:04.000Z</time>
      </trkpt>
      <trkpt lat="44.92962" lon="5.76863">
        <ele>1014.5999755859</ele>
        <time>2026-07-05T09:33:05.000Z</time>
      </trkpt>
      <trkpt lat="44.92963" lon="5.76866">
        <ele>1014.200012207</ele>
        <time>2026-07-05T09:33:06.000Z</time>
      </trkpt>
      <trkpt lat="44.92964" lon="5.76869">
        <ele>1013.5999755859</ele>
        <time>2026-07-05T09:33:07.000Z</time>
      </trkpt>
      <trkpt lat="44.92965" lon="5.76872">
        <ele>1012.4000244141</ele>
        <time>2026-07-05T09:33:08.000Z</time>
      </trkpt>
      <trkpt lat="44.92966" lon="5.76874">
        <ele>1011</ele>
        <time>2026-07-05T09:33:09.000Z</time>
      </trkpt>
      <trkpt lat="44.92968" lon="5.76876">
        <ele>1010.200012207</ele>
        <time>2026-07-05T09:33:10.000Z</time>
      </trkpt>
      <trkpt lat="44.92969" lon="5.76878">
        <ele>1010</ele>
        <time>2026-07-05T09:33:11.000Z</time>
      </trkpt>
      <trkpt lat="44.92971" lon="5.76881">
        <ele>1010</ele>
        <time>2026-07-05T09:33:12.000Z</time>
      </trkpt>
      <trkpt lat="44.92972" lon="5.76884">
        <ele>1009.799987793</ele>
        <time>2026-07-05T09:33:13.000Z</time>
      </trkpt>
      <trkpt lat="44.92973" lon="5.76888">
        <ele>1009.799987793</ele>
        <time>2026-07-05T09:33:14.000Z</time>
      </trkpt>
      <trkpt lat="44.92973" lon="5.76892">
        <ele>1009.4000244141</ele>
        <time>2026-07-05T09:33:15.000Z</time>
      </trkpt>
      <trkpt lat="44.92974" lon="5.76896">
        <ele>1009.200012207</ele>
        <time>2026-07-05T09:33:16.000Z</time>
      </trkpt>
      <trkpt lat="44.92973" lon="5.769">
        <ele>1009</ele>
        <time>2026-07-05T09:33:17.000Z</time>
      </trkpt>
      <trkpt lat="44.92973" lon="5.76903">
        <ele>1008.799987793</ele>
        <time>2026-07-05T09:33:18.000Z</time>
      </trkpt>
      <trkpt lat="44.92973" lon="5.76906">
        <ele>1008.5999755859</ele>
        <time>2026-07-05T09:33:19.000Z</time>
      </trkpt>
      <trkpt lat="44.92973" lon="5.76909">
        <ele>1008.200012207</ele>
        <time>2026-07-05T09:33:20.000Z</time>
      </trkpt>
      <trkpt lat="44.92974" lon="5.76911">
        <ele>1008</ele>
        <time>2026-07-05T09:33:21.000Z</time>
      </trkpt>
      <trkpt lat="44.92975" lon="5.76913">
        <ele>1008</ele>
        <time>2026-07-05T09:33:22.000Z</time>
      </trkpt>
      <trkpt lat="44.92977" lon="5.76915">
        <ele>1007.799987793</ele>
        <time>2026-07-05T09:33:23.000Z</time>
      </trkpt>
      <trkpt lat="44.92978" lon="5.76918">
        <ele>1007.5999755859</ele>
        <time>2026-07-05T09:33:24.000Z</time>
      </trkpt>
      <trkpt lat="44.92979" lon="5.76921">
        <ele>1007.200012207</ele>
        <time>2026-07-05T09:33:25.000Z</time>
      </trkpt>
      <trkpt lat="44.9298" lon="5.76924">
        <ele>1006.799987793</ele>
        <time>2026-07-05T09:33:26.000Z</time>
      </trkpt>
      <trkpt lat="44.92981" lon="5.76927">
        <ele>1006.799987793</ele>
        <time>2026-07-05T09:33:27.000Z</time>
      </trkpt>
      <trkpt lat="44.92982" lon="5.7693">
        <ele>1006.799987793</ele>
        <time>2026-07-05T09:33:28.000Z</time>
      </trkpt>
      <trkpt lat="44.92982" lon="5.76934">
        <ele>1006.799987793</ele>
        <time>2026-07-05T09:33:29.000Z</time>
      </trkpt>
      <trkpt lat="44.92981" lon="5.76936">
        <ele>1006.5999755859</ele>
        <time>2026-07-05T09:33:30.000Z</time>
      </trkpt>
      <trkpt lat="44.9298" lon="5.76937">
        <ele>1006.4000244141</ele>
        <time>2026-07-05T09:33:31.000Z</time>
      </trkpt>
      <trkpt lat="44.92979" lon="5.7694">
        <ele>1006</ele>
        <time>2026-07-05T09:33:32.000Z</time>
      </trkpt>
      <trkpt lat="44.92978" lon="5.76943">
        <ele>1005.799987793</ele>
        <time>2026-07-05T09:33:33.000Z</time>
      </trkpt>
      <trkpt lat="44.92977" lon="5.76945">
        <ele>1005.4000244141</ele>
        <time>2026-07-05T09:33:34.000Z</time>
      </trkpt>
      <trkpt lat="44.92976" lon="5.76948">
        <ele>1005.200012207</ele>
        <time>2026-07-05T09:33:35.000Z</time>
      </trkpt>
      <trkpt lat="44.92975" lon="5.7695">
        <ele>1005</ele>
        <time>2026-07-05T09:33:36.000Z</time>
      </trkpt>
      <trkpt lat="44.92974" lon="5.76953">
        <ele>1005</ele>
        <time>2026-07-05T09:33:37.000Z</time>
      </trkpt>
      <trkpt lat="44.92972" lon="5.76956">
        <ele>1004.799987793</ele>
        <time>2026-07-05T09:33:38.000Z</time>
      </trkpt>
      <trkpt lat="44.9297" lon="5.76958">
        <ele>1004.4000244141</ele>
        <time>2026-07-05T09:33:39.000Z</time>
      </trkpt>
      <trkpt lat="44.92968" lon="5.7696">
        <ele>1004.4000244141</ele>
        <time>2026-07-05T09:33:40.000Z</time>
      </trkpt>
      <trkpt lat="44.92966" lon="5.76962">
        <ele>1004.200012207</ele>
        <time>2026-07-05T09:33:41.000Z</time>
      </trkpt>
      <trkpt lat="44.92964" lon="5.76965">
        <ele>1003.799987793</ele>
        <time>2026-07-05T09:33:42.000Z</time>
      </trkpt>
      <trkpt lat="44.92963" lon="5.76969">
        <ele>1003.5999755859</ele>
        <time>2026-07-05T09:33:43.000Z</time>
      </trkpt>
      <trkpt lat="44.92962" lon="5.76971">
        <ele>1003</ele>
        <time>2026-07-05T09:33:44.000Z</time>
      </trkpt>
      <trkpt lat="44.92961" lon="5.76974">
        <ele>1002.4000244141</ele>
        <time>2026-07-05T09:33:45.000Z</time>
      </trkpt>
      <trkpt lat="44.9296" lon="5.76976">
        <ele>1002</ele>
        <time>2026-07-05T09:33:46.000Z</time>
      </trkpt>
      <trkpt lat="44.9296" lon="5.76977">
        <ele>1001.799987793</ele>
        <time>2026-07-05T09:33:47.000Z</time>
      </trkpt>
      <trkpt lat="44.9296" lon="5.76978">
        <ele>1001.799987793</ele>
        <time>2026-07-05T09:33:48.000Z</time>
      </trkpt>
      <trkpt lat="44.9296" lon="5.76979">
        <ele>1001.5999755859</ele>
        <time>2026-07-05T09:33:49.000Z</time>
      </trkpt>
      <trkpt lat="44.9296" lon="5.76979">
        <ele>1001.200012207</ele>
        <time>2026-07-05T09:33:50.000Z</time>
      </trkpt>
      <trkpt lat="44.92961" lon="5.76979">
        <ele>1000.799987793</ele>
        <time>2026-07-05T09:33:51.000Z</time>
      </trkpt>
      <trkpt lat="44.92963" lon="5.76981">
        <ele>1000</ele>
        <time>2026-07-05T09:33:52.000Z</time>
      </trkpt>
      <trkpt lat="44.92963" lon="5.76983">
        <ele>999.40002441406</ele>
        <time>2026-07-05T09:33:53.000Z</time>
      </trkpt>
      <trkpt lat="44.92964" lon="5.76985">
        <ele>999</ele>
        <time>2026-07-05T09:33:54.000Z</time>
      </trkpt>
      <trkpt lat="44.92964" lon="5.76987">
        <ele>998.40002441406</ele>
        <time>2026-07-05T09:33:55.000Z</time>
      </trkpt>
      <trkpt lat="44.92964" lon="5.76988">
        <ele>998.40002441406</ele>
        <time>2026-07-05T09:33:56.000Z</time>
      </trkpt>
      <trkpt lat="44.92965" lon="5.7699">
        <ele>998.20001220703</ele>
        <time>2026-07-05T09:33:57.000Z</time>
      </trkpt>
      <trkpt lat="44.92966" lon="5.76993">
        <ele>998</ele>
        <time>2026-07-05T09:33:58.000Z</time>
      </trkpt>
      <trkpt lat="44.92967" lon="5.76995">
        <ele>997.79998779297</ele>
        <time>2026-07-05T09:33:59.000Z</time>
      </trkpt>
      <trkpt lat="44.92966" lon="5.76997">
        <ele>997.79998779297</ele>
        <time>2026-07-05T09:34:00.000Z</time>
      </trkpt>
      <trkpt lat="44.92966" lon="5.77">
        <ele>997.20001220703</ele>
        <time>2026-07-05T09:34:01.000Z</time>
      </trkpt>
      <trkpt lat="44.92965" lon="5.77004">
        <ele>996.59997558594</ele>
        <time>2026-07-05T09:34:02.000Z</time>
      </trkpt>
      <trkpt lat="44.92964" lon="5.77007">
        <ele>995.79998779297</ele>
        <time>2026-07-05T09:34:03.000Z</time>
      </trkpt>
      <trkpt lat="44.92962" lon="5.77011">
        <ele>995.40002441406</ele>
        <time>2026-07-05T09:34:04.000Z</time>
      </trkpt>
      <trkpt lat="44.9296" lon="5.77014">
        <ele>995.20001220703</ele>
        <time>2026-07-05T09:34:05.000Z</time>
      </trkpt>
      <trkpt lat="44.92959" lon="5.77016">
        <ele>995.20001220703</ele>
        <time>2026-07-05T09:34:06.000Z</time>
      </trkpt>
      <trkpt lat="44.92958" lon="5.77017">
        <ele>995.20001220703</ele>
        <time>2026-07-05T09:34:07.000Z</time>
      </trkpt>
      <trkpt lat="44.92957" lon="5.77019">
        <ele>995.40002441406</ele>
        <time>2026-07-05T09:34:08.000Z</time>
      </trkpt>
      <trkpt lat="44.92956" lon="5.77021">
        <ele>995.59997558594</ele>
        <time>2026-07-05T09:34:09.000Z</time>
      </trkpt>
      <trkpt lat="44.92955" lon="5.77022">
        <ele>995.59997558594</ele>
        <time>2026-07-05T09:34:10.000Z</time>
      </trkpt>
      <trkpt lat="44.92955" lon="5.77024">
        <ele>995.40002441406</ele>
        <time>2026-07-05T09:34:11.000Z</time>
      </trkpt>
      <trkpt lat="44.92954" lon="5.77025">
        <ele>995.20001220703</ele>
        <time>2026-07-05T09:34:12.000Z</time>
      </trkpt>
      <trkpt lat="44.92954" lon="5.77026">
        <ele>995</ele>
        <time>2026-07-05T09:34:13.000Z</time>
      </trkpt>
      <trkpt lat="44.92953" lon="5.77028">
        <ele>994.59997558594</ele>
        <time>2026-07-05T09:34:14.000Z</time>
      </trkpt>
      <trkpt lat="44.92952" lon="5.77029">
        <ele>994.20001220703</ele>
        <time>2026-07-05T09:34:15.000Z</time>
      </trkpt>
      <trkpt lat="44.92951" lon="5.77031">
        <ele>993.79998779297</ele>
        <time>2026-07-05T09:34:16.000Z</time>
      </trkpt>
      <trkpt lat="44.92951" lon="5.77033">
        <ele>993.20001220703</ele>
        <time>2026-07-05T09:34:17.000Z</time>
      </trkpt>
      <trkpt lat="44.9295" lon="5.77035">
        <ele>992.79998779297</ele>
        <time>2026-07-05T09:34:18.000Z</time>
      </trkpt>
      <trkpt lat="44.9295" lon="5.77037">
        <ele>992.59997558594</ele>
        <time>2026-07-05T09:34:19.000Z</time>
      </trkpt>
      <trkpt lat="44.92951" lon="5.77039">
        <ele>992.40002441406</ele>
        <time>2026-07-05T09:34:20.000Z</time>
      </trkpt>
      <trkpt lat="44.92951" lon="5.7704">
        <ele>992.40002441406</ele>
        <time>2026-07-05T09:34:21.000Z</time>
      </trkpt>
      <trkpt lat="44.92951" lon="5.77042">
        <ele>992.59997558594</ele>
        <time>2026-07-05T09:34:22.000Z</time>
      </trkpt>
      <trkpt lat="44.92951" lon="5.77044">
        <ele>992.79998779297</ele>
        <time>2026-07-05T09:34:23.000Z</time>
      </trkpt>
      <trkpt lat="44.92951" lon="5.77044">
        <ele>993</ele>
        <time>2026-07-05T09:34:24.000Z</time>
      </trkpt>
      <trkpt lat="44.92951" lon="5.77046">
        <ele>993.40002441406</ele>
        <time>2026-07-05T09:34:25.000Z</time>
      </trkpt>
      <trkpt lat="44.92951" lon="5.77048">
        <ele>993.59997558594</ele>
        <time>2026-07-05T09:34:26.000Z</time>
      </trkpt>
      <trkpt lat="44.9295" lon="5.7705">
        <ele>994</ele>
        <time>2026-07-05T09:34:27.000Z</time>
      </trkpt>
      <trkpt lat="44.9295" lon="5.77051">
        <ele>994</ele>
        <time>2026-07-05T09:34:28.000Z</time>
      </trkpt>
      <trkpt lat="44.92951" lon="5.77051">
        <ele>993.79998779297</ele>
        <time>2026-07-05T09:34:29.000Z</time>
      </trkpt>
      <trkpt lat="44.92953" lon="5.77051">
        <ele>993.59997558594</ele>
        <time>2026-07-05T09:34:30.000Z</time>
      </trkpt>
      <trkpt lat="44.92954" lon="5.7705">
        <ele>993.20001220703</ele>
        <time>2026-07-05T09:34:31.000Z</time>
      </trkpt>
      <trkpt lat="44.92956" lon="5.7705">
        <ele>992.79998779297</ele>
        <time>2026-07-05T09:34:32.000Z</time>
      </trkpt>
      <trkpt lat="44.92957" lon="5.77051">
        <ele>992.59997558594</ele>
        <time>2026-07-05T09:34:33.000Z</time>
      </trkpt>
      <trkpt lat="44.92958" lon="5.77053">
        <ele>992.20001220703</ele>
        <time>2026-07-05T09:34:34.000Z</time>
      </trkpt>
      <trkpt lat="44.92958" lon="5.77056">
        <ele>992</ele>
        <time>2026-07-05T09:34:35.000Z</time>
      </trkpt>
      <trkpt lat="44.92957" lon="5.77059">
        <ele>991.79998779297</ele>
        <time>2026-07-05T09:34:36.000Z</time>
      </trkpt>
      <trkpt lat="44.92956" lon="5.77062">
        <ele>991.40002441406</ele>
        <time>2026-07-05T09:34:37.000Z</time>
      </trkpt>
      <trkpt lat="44.92956" lon="5.77065">
        <ele>990.79998779297</ele>
        <time>2026-07-05T09:34:38.000Z</time>
      </trkpt>
      <trkpt lat="44.92955" lon="5.77068">
        <ele>990.40002441406</ele>
        <time>2026-07-05T09:34:39.000Z</time>
      </trkpt>
      <trkpt lat="44.92955" lon="5.7707">
        <ele>989.79998779297</ele>
        <time>2026-07-05T09:34:40.000Z</time>
      </trkpt>
      <trkpt lat="44.92955" lon="5.77071">
        <ele>989.59997558594</ele>
        <time>2026-07-05T09:34:41.000Z</time>
      </trkpt>
      <trkpt lat="44.92954" lon="5.77073">
        <ele>989</ele>
        <time>2026-07-05T09:34:42.000Z</time>
      </trkpt>
      <trkpt lat="44.92954" lon="5.77076">
        <ele>988.79998779297</ele>
        <time>2026-07-05T09:34:43.000Z</time>
      </trkpt>
      <trkpt lat="44.92954" lon="5.77079">
        <ele>988.40002441406</ele>
        <time>2026-07-05T09:34:44.000Z</time>
      </trkpt>
      <trkpt lat="44.92954" lon="5.77081">
        <ele>988</ele>
        <time>2026-07-05T09:34:45.000Z</time>
      </trkpt>
      <trkpt lat="44.92954" lon="5.77084">
        <ele>987.79998779297</ele>
        <time>2026-07-05T09:34:46.000Z</time>
      </trkpt>
      <trkpt lat="44.92955" lon="5.77086">
        <ele>987.40002441406</ele>
        <time>2026-07-05T09:34:47.000Z</time>
      </trkpt>
      <trkpt lat="44.92956" lon="5.77088">
        <ele>987</ele>
        <time>2026-07-05T09:34:48.000Z</time>
      </trkpt>
      <trkpt lat="44.92957" lon="5.7709">
        <ele>986.79998779297</ele>
        <time>2026-07-05T09:34:49.000Z</time>
      </trkpt>
      <trkpt lat="44.92959" lon="5.77092">
        <ele>986.40002441406</ele>
        <time>2026-07-05T09:34:50.000Z</time>
      </trkpt>
      <trkpt lat="44.92959" lon="5.77095">
        <ele>986</ele>
        <time>2026-07-05T09:34:51.000Z</time>
      </trkpt>
      <trkpt lat="44.9296" lon="5.77097">
        <ele>985.20001220703</ele>
        <time>2026-07-05T09:34:52.000Z</time>
      </trkpt>
      <trkpt lat="44.92958" lon="5.771">
        <ele>984.59997558594</ele>
        <time>2026-07-05T09:34:53.000Z</time>
      </trkpt>
      <trkpt lat="44.92956" lon="5.77103">
        <ele>984</ele>
        <time>2026-07-05T09:34:54.000Z</time>
      </trkpt>
      <trkpt lat="44.92953" lon="5.77103">
        <ele>983.40002441406</ele>
        <time>2026-07-05T09:34:55.000Z</time>
      </trkpt>
      <trkpt lat="44.92951" lon="5.77103">
        <ele>982.79998779297</ele>
        <time>2026-07-05T09:34:56.000Z</time>
      </trkpt>
      <trkpt lat="44.92948" lon="5.77102">
        <ele>982.59997558594</ele>
        <time>2026-07-05T09:34:57.000Z</time>
      </trkpt>
      <trkpt lat="44.92946" lon="5.77102">
        <ele>981.40002441406</ele>
        <time>2026-07-05T09:34:58.000Z</time>
      </trkpt>
      <trkpt lat="44.92944" lon="5.77101">
        <ele>981.40002441406</ele>
        <time>2026-07-05T09:34:59.000Z</time>
      </trkpt>
      <trkpt lat="44.92941" lon="5.771">
        <ele>981</ele>
        <time>2026-07-05T09:35:00.000Z</time>
      </trkpt>
      <trkpt lat="44.92939" lon="5.771">
        <ele>980.59997558594</ele>
        <time>2026-07-05T09:35:01.000Z</time>
      </trkpt>
      <trkpt lat="44.92936" lon="5.77099">
        <ele>980</ele>
        <time>2026-07-05T09:35:02.000Z</time>
      </trkpt>
      <trkpt lat="44.92934" lon="5.77098">
        <ele>979.59997558594</ele>
        <time>2026-07-05T09:35:03.000Z</time>
      </trkpt>
      <trkpt lat="44.92931" lon="5.77097">
        <ele>979.40002441406</ele>
        <time>2026-07-05T09:35:04.000Z</time>
      </trkpt>
      <trkpt lat="44.92929" lon="5.77096">
        <ele>978.20001220703</ele>
        <time>2026-07-05T09:35:05.000Z</time>
      </trkpt>
      <trkpt lat="44.92927" lon="5.77095">
        <ele>977.79998779297</ele>
        <time>2026-07-05T09:35:06.000Z</time>
      </trkpt>
      <trkpt lat="44.92924" lon="5.77093">
        <ele>977.20001220703</ele>
        <time>2026-07-05T09:35:07.000Z</time>
      </trkpt>
      <trkpt lat="44.92923" lon="5.77092">
        <ele>976.59997558594</ele>
        <time>2026-07-05T09:35:08.000Z</time>
      </trkpt>
      <trkpt lat="44.92921" lon="5.77091">
        <ele>976.20001220703</ele>
        <time>2026-07-05T09:35:09.000Z</time>
      </trkpt>
      <trkpt lat="44.92918" lon="5.7709">
        <ele>975.59997558594</ele>
        <time>2026-07-05T09:35:10.000Z</time>
      </trkpt>
      <trkpt lat="44.92916" lon="5.77088">
        <ele>975.40002441406</ele>
        <time>2026-07-05T09:35:11.000Z</time>
      </trkpt>
      <trkpt lat="44.92914" lon="5.77086">
        <ele>975</ele>
        <time>2026-07-05T09:35:12.000Z</time>
      </trkpt>
      <trkpt lat="44.92913" lon="5.77085">
        <ele>974.40002441406</ele>
        <time>2026-07-05T09:35:13.000Z</time>
      </trkpt>
      <trkpt lat="44.92911" lon="5.77082">
        <ele>973.59997558594</ele>
        <time>2026-07-05T09:35:14.000Z</time>
      </trkpt>
      <trkpt lat="44.92909" lon="5.77081">
        <ele>973</ele>
        <time>2026-07-05T09:35:15.000Z</time>
      </trkpt>
      <trkpt lat="44.92908" lon="5.77079">
        <ele>972.59997558594</ele>
        <time>2026-07-05T09:35:16.000Z</time>
      </trkpt>
      <trkpt lat="44.92906" lon="5.77078">
        <ele>972</ele>
        <time>2026-07-05T09:35:17.000Z</time>
      </trkpt>
      <trkpt lat="44.92905" lon="5.77077">
        <ele>971.40002441406</ele>
        <time>2026-07-05T09:35:18.000Z</time>
      </trkpt>
      <trkpt lat="44.92904" lon="5.77077">
        <ele>970.79998779297</ele>
        <time>2026-07-05T09:35:19.000Z</time>
      </trkpt>
      <trkpt lat="44.92902" lon="5.77075">
        <ele>970.40002441406</ele>
        <time>2026-07-05T09:35:20.000Z</time>
      </trkpt>
      <trkpt lat="44.92901" lon="5.77074">
        <ele>970</ele>
        <time>2026-07-05T09:35:21.000Z</time>
      </trkpt>
      <trkpt lat="44.929" lon="5.77072">
        <ele>969.79998779297</ele>
        <time>2026-07-05T09:35:22.000Z</time>
      </trkpt>
      <trkpt lat="44.92898" lon="5.77072">
        <ele>969.40002441406</ele>
        <time>2026-07-05T09:35:23.000Z</time>
      </trkpt>
      <trkpt lat="44.92898" lon="5.77072">
        <ele>969</ele>
        <time>2026-07-05T09:35:24.000Z</time>
      </trkpt>
      <trkpt lat="44.92897" lon="5.77071">
        <ele>968.59997558594</ele>
        <time>2026-07-05T09:35:25.000Z</time>
      </trkpt>
      <trkpt lat="44.92896" lon="5.77071">
        <ele>968</ele>
        <time>2026-07-05T09:35:26.000Z</time>
      </trkpt>
      <trkpt lat="44.92896" lon="5.7707">
        <ele>967.79998779297</ele>
        <time>2026-07-05T09:35:27.000Z</time>
      </trkpt>
      <trkpt lat="44.92894" lon="5.77069">
        <ele>967.40002441406</ele>
        <time>2026-07-05T09:35:28.000Z</time>
      </trkpt>
      <trkpt lat="44.92893" lon="5.77068">
        <ele>966.79998779297</ele>
        <time>2026-07-05T09:35:29.000Z</time>
      </trkpt>
      <trkpt lat="44.92892" lon="5.77067">
        <ele>966.40002441406</ele>
        <time>2026-07-05T09:35:30.000Z</time>
      </trkpt>
      <trkpt lat="44.92891" lon="5.77066">
        <ele>965.79998779297</ele>
        <time>2026-07-05T09:35:31.000Z</time>
      </trkpt>
      <trkpt lat="44.9289" lon="5.77064">
        <ele>965.20001220703</ele>
        <time>2026-07-05T09:35:32.000Z</time>
      </trkpt>
      <trkpt lat="44.92889" lon="5.77062">
        <ele>965</ele>
        <time>2026-07-05T09:35:33.000Z</time>
      </trkpt>
      <trkpt lat="44.92888" lon="5.7706">
        <ele>964.79998779297</ele>
        <time>2026-07-05T09:35:34.000Z</time>
      </trkpt>
      <trkpt lat="44.92887" lon="5.77059">
        <ele>963.79998779297</ele>
        <time>2026-07-05T09:35:35.000Z</time>
      </trkpt>
      <trkpt lat="44.92885" lon="5.77057">
        <ele>963</ele>
        <time>2026-07-05T09:35:36.000Z</time>
      </trkpt>
      <trkpt lat="44.92883" lon="5.77057">
        <ele>962.40002441406</ele>
        <time>2026-07-05T09:35:37.000Z</time>
      </trkpt>
      <trkpt lat="44.92882" lon="5.77057">
        <ele>961.40002441406</ele>
        <time>2026-07-05T09:35:38.000Z</time>
      </trkpt>
      <trkpt lat="44.92879" lon="5.77057">
        <ele>961</ele>
        <time>2026-07-05T09:35:39.000Z</time>
      </trkpt>
      <trkpt lat="44.92877" lon="5.77057">
        <ele>960.40002441406</ele>
        <time>2026-07-05T09:35:40.000Z</time>
      </trkpt>
      <trkpt lat="44.92875" lon="5.77056">
        <ele>960</ele>
        <time>2026-07-05T09:35:41.000Z</time>
      </trkpt>
      <trkpt lat="44.92873" lon="5.77056">
        <ele>959.79998779297</ele>
        <time>2026-07-05T09:35:42.000Z</time>
      </trkpt>
      <trkpt lat="44.92871" lon="5.77056">
        <ele>959.59997558594</ele>
        <time>2026-07-05T09:35:43.000Z</time>
      </trkpt>
      <trkpt lat="44.92869" lon="5.77056">
        <ele>959.59997558594</ele>
        <time>2026-07-05T09:35:44.000Z</time>
      </trkpt>
      <trkpt lat="44.92866" lon="5.77056">
        <ele>959.59997558594</ele>
        <time>2026-07-05T09:35:45.000Z</time>
      </trkpt>
      <trkpt lat="44.92864" lon="5.77056">
        <ele>959.59997558594</ele>
        <time>2026-07-05T09:35:46.000Z</time>
      </trkpt>
      <trkpt lat="44.92862" lon="5.77056">
        <ele>959.59997558594</ele>
        <time>2026-07-05T09:35:47.000Z</time>
      </trkpt>
      <trkpt lat="44.9286" lon="5.77056">
        <ele>959.59997558594</ele>
        <time>2026-07-05T09:35:48.000Z</time>
      </trkpt>
      <trkpt lat="44.92859" lon="5.77057">
        <ele>959.79998779297</ele>
        <time>2026-07-05T09:35:49.000Z</time>
      </trkpt>
      <trkpt lat="44.92857" lon="5.77058">
        <ele>960</ele>
        <time>2026-07-05T09:35:50.000Z</time>
      </trkpt>
      <trkpt lat="44.92855" lon="5.77059">
        <ele>960</ele>
        <time>2026-07-05T09:35:51.000Z</time>
      </trkpt>
      <trkpt lat="44.92853" lon="5.77059">
        <ele>960</ele>
        <time>2026-07-05T09:35:52.000Z</time>
      </trkpt>
      <trkpt lat="44.92851" lon="5.7706">
        <ele>960</ele>
        <time>2026-07-05T09:35:53.000Z</time>
      </trkpt>
      <trkpt lat="44.9285" lon="5.77061">
        <ele>960</ele>
        <time>2026-07-05T09:35:54.000Z</time>
      </trkpt>
      <trkpt lat="44.92848" lon="5.77063">
        <ele>960</ele>
        <time>2026-07-05T09:35:55.000Z</time>
      </trkpt>
      <trkpt lat="44.92846" lon="5.77064">
        <ele>960</ele>
        <time>2026-07-05T09:35:56.000Z</time>
      </trkpt>
      <trkpt lat="44.92844" lon="5.77066">
        <ele>960.20001220703</ele>
        <time>2026-07-05T09:35:57.000Z</time>
      </trkpt>
      <trkpt lat="44.92843" lon="5.77068">
        <ele>960.20001220703</ele>
        <time>2026-07-05T09:35:58.000Z</time>
      </trkpt>
      <trkpt lat="44.92841" lon="5.7707">
        <ele>960</ele>
        <time>2026-07-05T09:35:59.000Z</time>
      </trkpt>
      <trkpt lat="44.9284" lon="5.77072">
        <ele>960</ele>
        <time>2026-07-05T09:36:00.000Z</time>
      </trkpt>
      <trkpt lat="44.92838" lon="5.77074">
        <ele>960</ele>
        <time>2026-07-05T09:36:01.000Z</time>
      </trkpt>
      <trkpt lat="44.92837" lon="5.77075">
        <ele>959.79998779297</ele>
        <time>2026-07-05T09:36:02.000Z</time>
      </trkpt>
      <trkpt lat="44.92835" lon="5.77076">
        <ele>959.79998779297</ele>
        <time>2026-07-05T09:36:03.000Z</time>
      </trkpt>
      <trkpt lat="44.92834" lon="5.77078">
        <ele>959.79998779297</ele>
        <time>2026-07-05T09:36:04.000Z</time>
      </trkpt>
      <trkpt lat="44.92832" lon="5.77079">
        <ele>959.59997558594</ele>
        <time>2026-07-05T09:36:05.000Z</time>
      </trkpt>
      <trkpt lat="44.9283" lon="5.7708">
        <ele>959.59997558594</ele>
        <time>2026-07-05T09:36:06.000Z</time>
      </trkpt>
      <trkpt lat="44.92829" lon="5.77082">
        <ele>959.59997558594</ele>
        <time>2026-07-05T09:36:07.000Z</time>
      </trkpt>
      <trkpt lat="44.92827" lon="5.77083">
        <ele>959.59997558594</ele>
        <time>2026-07-05T09:36:08.000Z</time>
      </trkpt>
      <trkpt lat="44.92826" lon="5.77084">
        <ele>959.59997558594</ele>
        <time>2026-07-05T09:36:09.000Z</time>
      </trkpt>
      <trkpt lat="44.92824" lon="5.77084">
        <ele>959.59997558594</ele>
        <time>2026-07-05T09:36:10.000Z</time>
      </trkpt>
      <trkpt lat="44.92823" lon="5.77085">
        <ele>959.40002441406</ele>
        <time>2026-07-05T09:36:11.000Z</time>
      </trkpt>
      <trkpt lat="44.92822" lon="5.77086">
        <ele>959.20001220703</ele>
        <time>2026-07-05T09:36:12.000Z</time>
      </trkpt>
      <trkpt lat="44.9282" lon="5.77088">
        <ele>959</ele>
        <time>2026-07-05T09:36:13.000Z</time>
      </trkpt>
      <trkpt lat="44.9282" lon="5.77092">
        <ele>958.20001220703</ele>
        <time>2026-07-05T09:36:14.000Z</time>
      </trkpt>
      <trkpt lat="44.92819" lon="5.77094">
        <ele>957.59997558594</ele>
        <time>2026-07-05T09:36:15.000Z</time>
      </trkpt>
      <trkpt lat="44.92818" lon="5.77097">
        <ele>957</ele>
        <time>2026-07-05T09:36:16.000Z</time>
      </trkpt>
      <trkpt lat="44.92818" lon="5.77099">
        <ele>956.79998779297</ele>
        <time>2026-07-05T09:36:17.000Z</time>
      </trkpt>
      <trkpt lat="44.92817" lon="5.77101">
        <ele>956.79998779297</ele>
        <time>2026-07-05T09:36:18.000Z</time>
      </trkpt>
      <trkpt lat="44.92817" lon="5.77105">
        <ele>957</ele>
        <time>2026-07-05T09:36:19.000Z</time>
      </trkpt>
      <trkpt lat="44.92815" lon="5.77107">
        <ele>957.40002441406</ele>
        <time>2026-07-05T09:36:20.000Z</time>
      </trkpt>
      <trkpt lat="44.92814" lon="5.7711">
        <ele>958</ele>
        <time>2026-07-05T09:36:21.000Z</time>
      </trkpt>
      <trkpt lat="44.92813" lon="5.77112">
        <ele>958.40002441406</ele>
        <time>2026-07-05T09:36:22.000Z</time>
      </trkpt>
      <trkpt lat="44.92812" lon="5.77114">
        <ele>958.79998779297</ele>
        <time>2026-07-05T09:36:23.000Z</time>
      </trkpt>
      <trkpt lat="44.92811" lon="5.77116">
        <ele>959.20001220703</ele>
        <time>2026-07-05T09:36:24.000Z</time>
      </trkpt>
      <trkpt lat="44.9281" lon="5.77118">
        <ele>959.20001220703</ele>
        <time>2026-07-05T09:36:25.000Z</time>
      </trkpt>
      <trkpt lat="44.92809" lon="5.7712">
        <ele>959.20001220703</ele>
        <time>2026-07-05T09:36:26.000Z</time>
      </trkpt>
      <trkpt lat="44.92808" lon="5.77123">
        <ele>959.20001220703</ele>
        <time>2026-07-05T09:36:27.000Z</time>
      </trkpt>
      <trkpt lat="44.92807" lon="5.77125">
        <ele>959.20001220703</ele>
        <time>2026-07-05T09:36:28.000Z</time>
      </trkpt>
      <trkpt lat="44.92806" lon="5.77127">
        <ele>959</ele>
        <time>2026-07-05T09:36:29.000Z</time>
      </trkpt>
      <trkpt lat="44.92805" lon="5.7713">
        <ele>958.79998779297</ele>
        <time>2026-07-05T09:36:30.000Z</time>
      </trkpt>
      <trkpt lat="44.92804" lon="5.77132">
        <ele>958.79998779297</ele>
        <time>2026-07-05T09:36:31.000Z</time>
      </trkpt>
      <trkpt lat="44.92804" lon="5.77134">
        <ele>958.79998779297</ele>
        <time>2026-07-05T09:36:32.000Z</time>
      </trkpt>
      <trkpt lat="44.92803" lon="5.77137">
        <ele>958.59997558594</ele>
        <time>2026-07-05T09:36:33.000Z</time>
      </trkpt>
      <trkpt lat="44.92802" lon="5.7714">
        <ele>958.59997558594</ele>
        <time>2026-07-05T09:36:34.000Z</time>
      </trkpt>
      <trkpt lat="44.92801" lon="5.77142">
        <ele>958.59997558594</ele>
        <time>2026-07-05T09:36:35.000Z</time>
      </trkpt>
      <trkpt lat="44.92799" lon="5.77145">
        <ele>958.59997558594</ele>
        <time>2026-07-05T09:36:36.000Z</time>
      </trkpt>
      <trkpt lat="44.92798" lon="5.77147">
        <ele>958.79998779297</ele>
        <time>2026-07-05T09:36:37.000Z</time>
      </trkpt>
      <trkpt lat="44.92797" lon="5.77149">
        <ele>959</ele>
        <time>2026-07-05T09:36:38.000Z</time>
      </trkpt>
      <trkpt lat="44.92796" lon="5.77152">
        <ele>959.20001220703</ele>
        <time>2026-07-05T09:36:39.000Z</time>
      </trkpt>
      <trkpt lat="44.92795" lon="5.77155">
        <ele>959.20001220703</ele>
        <time>2026-07-05T09:36:40.000Z</time>
      </trkpt>
      <trkpt lat="44.92794" lon="5.77157">
        <ele>959</ele>
        <time>2026-07-05T09:36:41.000Z</time>
      </trkpt>
      <trkpt lat="44.92792" lon="5.7716">
        <ele>958.59997558594</ele>
        <time>2026-07-05T09:36:42.000Z</time>
      </trkpt>
      <trkpt lat="44.9279" lon="5.77163">
        <ele>958.59997558594</ele>
        <time>2026-07-05T09:36:43.000Z</time>
      </trkpt>
      <trkpt lat="44.92789" lon="5.77166">
        <ele>958.40002441406</ele>
        <time>2026-07-05T09:36:44.000Z</time>
      </trkpt>
      <trkpt lat="44.92787" lon="5.77168">
        <ele>958.20001220703</ele>
        <time>2026-07-05T09:36:45.000Z</time>
      </trkpt>
      <trkpt lat="44.92785" lon="5.7717">
        <ele>958.20001220703</ele>
        <time>2026-07-05T09:36:46.000Z</time>
      </trkpt>
      <trkpt lat="44.92783" lon="5.77172">
        <ele>958</ele>
        <time>2026-07-05T09:36:47.000Z</time>
      </trkpt>
      <trkpt lat="44.92782" lon="5.77174">
        <ele>958.20001220703</ele>
        <time>2026-07-05T09:36:48.000Z</time>
      </trkpt>
      <trkpt lat="44.9278" lon="5.77176">
        <ele>958.20001220703</ele>
        <time>2026-07-05T09:36:49.000Z</time>
      </trkpt>
      <trkpt lat="44.92779" lon="5.77179">
        <ele>958.20001220703</ele>
        <time>2026-07-05T09:36:50.000Z</time>
      </trkpt>
      <trkpt lat="44.92777" lon="5.7718">
        <ele>958.40002441406</ele>
        <time>2026-07-05T09:36:51.000Z</time>
      </trkpt>
      <trkpt lat="44.92775" lon="5.77182">
        <ele>958.40002441406</ele>
        <time>2026-07-05T09:36:52.000Z</time>
      </trkpt>
      <trkpt lat="44.92773" lon="5.77184">
        <ele>958.40002441406</ele>
        <time>2026-07-05T09:36:53.000Z</time>
      </trkpt>
      <trkpt lat="44.92771" lon="5.77185">
        <ele>958.20001220703</ele>
        <time>2026-07-05T09:36:54.000Z</time>
      </trkpt>
      <trkpt lat="44.92769" lon="5.77187">
        <ele>958.20001220703</ele>
        <time>2026-07-05T09:36:55.000Z</time>
      </trkpt>
      <trkpt lat="44.92767" lon="5.77189">
        <ele>958</ele>
        <time>2026-07-05T09:36:56.000Z</time>
      </trkpt>
      <trkpt lat="44.92765" lon="5.77191">
        <ele>957.79998779297</ele>
        <time>2026-07-05T09:36:57.000Z</time>
      </trkpt>
      <trkpt lat="44.92764" lon="5.77192">
        <ele>957.79998779297</ele>
        <time>2026-07-05T09:36:58.000Z</time>
      </trkpt>
      <trkpt lat="44.92762" lon="5.77194">
        <ele>957.79998779297</ele>
        <time>2026-07-05T09:36:59.000Z</time>
      </trkpt>
      <trkpt lat="44.92761" lon="5.77196">
        <ele>957.79998779297</ele>
        <time>2026-07-05T09:37:00.000Z</time>
      </trkpt>
      <trkpt lat="44.9276" lon="5.77198">
        <ele>957.79998779297</ele>
        <time>2026-07-05T09:37:01.000Z</time>
      </trkpt>
      <trkpt lat="44.92759" lon="5.77199">
        <ele>957.79998779297</ele>
        <time>2026-07-05T09:37:02.000Z</time>
      </trkpt>
      <trkpt lat="44.92759" lon="5.77201">
        <ele>957.59997558594</ele>
        <time>2026-07-05T09:37:03.000Z</time>
      </trkpt>
      <trkpt lat="44.9276" lon="5.77202">
        <ele>957.40002441406</ele>
        <time>2026-07-05T09:37:04.000Z</time>
      </trkpt>
      <trkpt lat="44.9276" lon="5.77203">
        <ele>957</ele>
        <time>2026-07-05T09:37:05.000Z</time>
      </trkpt>
      <trkpt lat="44.9276" lon="5.77205">
        <ele>956.59997558594</ele>
        <time>2026-07-05T09:37:06.000Z</time>
      </trkpt>
      <trkpt lat="44.9276" lon="5.77206">
        <ele>956.40002441406</ele>
        <time>2026-07-05T09:37:07.000Z</time>
      </trkpt>
      <trkpt lat="44.9276" lon="5.77208">
        <ele>956</ele>
        <time>2026-07-05T09:37:08.000Z</time>
      </trkpt>
      <trkpt lat="44.9276" lon="5.77209">
        <ele>955.59997558594</ele>
        <time>2026-07-05T09:37:09.000Z</time>
      </trkpt>
      <trkpt lat="44.9276" lon="5.77211">
        <ele>955.20001220703</ele>
        <time>2026-07-05T09:37:10.000Z</time>
      </trkpt>
      <trkpt lat="44.92761" lon="5.77212">
        <ele>953.79998779297</ele>
        <time>2026-07-05T09:37:11.000Z</time>
      </trkpt>
      <trkpt lat="44.92761" lon="5.77212">
        <ele>953.40002441406</ele>
        <time>2026-07-05T09:37:12.000Z</time>
      </trkpt>
      <trkpt lat="44.92762" lon="5.77212">
        <ele>953.20001220703</ele>
        <time>2026-07-05T09:37:13.000Z</time>
      </trkpt>
      <trkpt lat="44.92763" lon="5.77213">
        <ele>952.79998779297</ele>
        <time>2026-07-05T09:37:14.000Z</time>
      </trkpt>
      <trkpt lat="44.92765" lon="5.77215">
        <ele>952.20001220703</ele>
        <time>2026-07-05T09:37:15.000Z</time>
      </trkpt>
      <trkpt lat="44.92766" lon="5.77217">
        <ele>951.59997558594</ele>
        <time>2026-07-05T09:37:16.000Z</time>
      </trkpt>
      <trkpt lat="44.92766" lon="5.7722">
        <ele>951.40002441406</ele>
        <time>2026-07-05T09:37:17.000Z</time>
      </trkpt>
      <trkpt lat="44.92767" lon="5.77223">
        <ele>951.40002441406</ele>
        <time>2026-07-05T09:37:18.000Z</time>
      </trkpt>
      <trkpt lat="44.92768" lon="5.77227">
        <ele>951.40002441406</ele>
        <time>2026-07-05T09:37:19.000Z</time>
      </trkpt>
      <trkpt lat="44.92768" lon="5.7723">
        <ele>951.20001220703</ele>
        <time>2026-07-05T09:37:20.000Z</time>
      </trkpt>
      <trkpt lat="44.92767" lon="5.77233">
        <ele>951</ele>
        <time>2026-07-05T09:37:21.000Z</time>
      </trkpt>
      <trkpt lat="44.92766" lon="5.77235">
        <ele>951</ele>
        <time>2026-07-05T09:37:22.000Z</time>
      </trkpt>
      <trkpt lat="44.92764" lon="5.77237">
        <ele>951.40002441406</ele>
        <time>2026-07-05T09:37:23.000Z</time>
      </trkpt>
      <trkpt lat="44.92763" lon="5.7724">
        <ele>951.59997558594</ele>
        <time>2026-07-05T09:37:24.000Z</time>
      </trkpt>
      <trkpt lat="44.92762" lon="5.77243">
        <ele>952</ele>
        <time>2026-07-05T09:37:25.000Z</time>
      </trkpt>
      <trkpt lat="44.9276" lon="5.77244">
        <ele>952.20001220703</ele>
        <time>2026-07-05T09:37:26.000Z</time>
      </trkpt>
      <trkpt lat="44.92758" lon="5.77246">
        <ele>952.59997558594</ele>
        <time>2026-07-05T09:37:27.000Z</time>
      </trkpt>
      <trkpt lat="44.92756" lon="5.77248">
        <ele>953</ele>
        <time>2026-07-05T09:37:28.000Z</time>
      </trkpt>
      <trkpt lat="44.92755" lon="5.77249">
        <ele>953.20001220703</ele>
        <time>2026-07-05T09:37:29.000Z</time>
      </trkpt>
      <trkpt lat="44.92753" lon="5.77251">
        <ele>953.40002441406</ele>
        <time>2026-07-05T09:37:30.000Z</time>
      </trkpt>
      <trkpt lat="44.92752" lon="5.77253">
        <ele>953.40002441406</ele>
        <time>2026-07-05T09:37:31.000Z</time>
      </trkpt>
      <trkpt lat="44.92751" lon="5.77255">
        <ele>953.59997558594</ele>
        <time>2026-07-05T09:37:32.000Z</time>
      </trkpt>
      <trkpt lat="44.9275" lon="5.77258">
        <ele>953.59997558594</ele>
        <time>2026-07-05T09:37:33.000Z</time>
      </trkpt>
      <trkpt lat="44.92748" lon="5.77259">
        <ele>953.59997558594</ele>
        <time>2026-07-05T09:37:34.000Z</time>
      </trkpt>
      <trkpt lat="44.92748" lon="5.77261">
        <ele>953.59997558594</ele>
        <time>2026-07-05T09:37:35.000Z</time>
      </trkpt>
      <trkpt lat="44.92747" lon="5.77262">
        <ele>953.79998779297</ele>
        <time>2026-07-05T09:37:36.000Z</time>
      </trkpt>
      <trkpt lat="44.92746" lon="5.77265">
        <ele>953.79998779297</ele>
        <time>2026-07-05T09:37:37.000Z</time>
      </trkpt>
      <trkpt lat="44.92745" lon="5.77266">
        <ele>954</ele>
        <time>2026-07-05T09:37:38.000Z</time>
      </trkpt>
      <trkpt lat="44.92745" lon="5.77268">
        <ele>954</ele>
        <time>2026-07-05T09:37:39.000Z</time>
      </trkpt>
      <trkpt lat="44.92744" lon="5.7727">
        <ele>954.20001220703</ele>
        <time>2026-07-05T09:37:40.000Z</time>
      </trkpt>
      <trkpt lat="44.92742" lon="5.77272">
        <ele>954.40002441406</ele>
        <time>2026-07-05T09:37:41.000Z</time>
      </trkpt>
      <trkpt lat="44.9274" lon="5.77274">
        <ele>954.59997558594</ele>
        <time>2026-07-05T09:37:42.000Z</time>
      </trkpt>
      <trkpt lat="44.92739" lon="5.77275">
        <ele>954.59997558594</ele>
        <time>2026-07-05T09:37:43.000Z</time>
      </trkpt>
      <trkpt lat="44.92738" lon="5.77277">
        <ele>954.79998779297</ele>
        <time>2026-07-05T09:37:44.000Z</time>
      </trkpt>
      <trkpt lat="44.92736" lon="5.77278">
        <ele>954.79998779297</ele>
        <time>2026-07-05T09:37:45.000Z</time>
      </trkpt>
      <trkpt lat="44.92734" lon="5.77279">
        <ele>955</ele>
        <time>2026-07-05T09:37:46.000Z</time>
      </trkpt>
      <trkpt lat="44.92732" lon="5.7728">
        <ele>955.20001220703</ele>
        <time>2026-07-05T09:37:47.000Z</time>
      </trkpt>
      <trkpt lat="44.92731" lon="5.77281">
        <ele>955.40002441406</ele>
        <time>2026-07-05T09:37:48.000Z</time>
      </trkpt>
      <trkpt lat="44.92729" lon="5.77282">
        <ele>955.59997558594</ele>
        <time>2026-07-05T09:37:49.000Z</time>
      </trkpt>
      <trkpt lat="44.92729" lon="5.77284">
        <ele>955.79998779297</ele>
        <time>2026-07-05T09:37:50.000Z</time>
      </trkpt>
      <trkpt lat="44.92728" lon="5.77285">
        <ele>956</ele>
        <time>2026-07-05T09:37:51.000Z</time>
      </trkpt>
      <trkpt lat="44.92727" lon="5.77287">
        <ele>956.20001220703</ele>
        <time>2026-07-05T09:37:52.000Z</time>
      </trkpt>
      <trkpt lat="44.92726" lon="5.77288">
        <ele>956.40002441406</ele>
        <time>2026-07-05T09:37:53.000Z</time>
      </trkpt>
      <trkpt lat="44.92725" lon="5.77289">
        <ele>956.59997558594</ele>
        <time>2026-07-05T09:37:54.000Z</time>
      </trkpt>
      <trkpt lat="44.92724" lon="5.77289">
        <ele>956.79998779297</ele>
        <time>2026-07-05T09:37:55.000Z</time>
      </trkpt>
      <trkpt lat="44.92722" lon="5.77289">
        <ele>957</ele>
        <time>2026-07-05T09:37:56.000Z</time>
      </trkpt>
      <trkpt lat="44.9272" lon="5.77289">
        <ele>957.20001220703</ele>
        <time>2026-07-05T09:37:57.000Z</time>
      </trkpt>
      <trkpt lat="44.92719" lon="5.77289">
        <ele>957.40002441406</ele>
        <time>2026-07-05T09:37:58.000Z</time>
      </trkpt>
      <trkpt lat="44.92718" lon="5.77289">
        <ele>957.59997558594</ele>
        <time>2026-07-05T09:37:59.000Z</time>
      </trkpt>
      <trkpt lat="44.92716" lon="5.7729">
        <ele>957.79998779297</ele>
        <time>2026-07-05T09:38:00.000Z</time>
      </trkpt>
      <trkpt lat="44.92716" lon="5.77293">
        <ele>958</ele>
        <time>2026-07-05T09:38:01.000Z</time>
      </trkpt>
      <trkpt lat="44.92715" lon="5.77294">
        <ele>958.20001220703</ele>
        <time>2026-07-05T09:38:02.000Z</time>
      </trkpt>
      <trkpt lat="44.92714" lon="5.77297">
        <ele>958.20001220703</ele>
        <time>2026-07-05T09:38:03.000Z</time>
      </trkpt>
      <trkpt lat="44.92713" lon="5.77299">
        <ele>958.20001220703</ele>
        <time>2026-07-05T09:38:04.000Z</time>
      </trkpt>
      <trkpt lat="44.92712" lon="5.77301">
        <ele>958</ele>
        <time>2026-07-05T09:38:05.000Z</time>
      </trkpt>
      <trkpt lat="44.92711" lon="5.77303">
        <ele>957.79998779297</ele>
        <time>2026-07-05T09:38:06.000Z</time>
      </trkpt>
      <trkpt lat="44.9271" lon="5.77306">
        <ele>957.59997558594</ele>
        <time>2026-07-05T09:38:07.000Z</time>
      </trkpt>
      <trkpt lat="44.92709" lon="5.77309">
        <ele>957.40002441406</ele>
        <time>2026-07-05T09:38:08.000Z</time>
      </trkpt>
      <trkpt lat="44.92708" lon="5.77311">
        <ele>957.40002441406</ele>
        <time>2026-07-05T09:38:09.000Z</time>
      </trkpt>
      <trkpt lat="44.92706" lon="5.77314">
        <ele>957.20001220703</ele>
        <time>2026-07-05T09:38:10.000Z</time>
      </trkpt>
      <trkpt lat="44.92705" lon="5.77316">
        <ele>957.20001220703</ele>
        <time>2026-07-05T09:38:11.000Z</time>
      </trkpt>
      <trkpt lat="44.92703" lon="5.77317">
        <ele>957.20001220703</ele>
        <time>2026-07-05T09:38:12.000Z</time>
      </trkpt>
      <trkpt lat="44.92701" lon="5.77318">
        <ele>957.20001220703</ele>
        <time>2026-07-05T09:38:13.000Z</time>
      </trkpt>
      <trkpt lat="44.92699" lon="5.77319">
        <ele>957.20001220703</ele>
        <time>2026-07-05T09:38:14.000Z</time>
      </trkpt>
      <trkpt lat="44.92697" lon="5.77319">
        <ele>957.40002441406</ele>
        <time>2026-07-05T09:38:15.000Z</time>
      </trkpt>
      <trkpt lat="44.92695" lon="5.7732">
        <ele>957.40002441406</ele>
        <time>2026-07-05T09:38:16.000Z</time>
      </trkpt>
      <trkpt lat="44.92694" lon="5.77322">
        <ele>957.40002441406</ele>
        <time>2026-07-05T09:38:17.000Z</time>
      </trkpt>
      <trkpt lat="44.92694" lon="5.77325">
        <ele>957.40002441406</ele>
        <time>2026-07-05T09:38:18.000Z</time>
      </trkpt>
      <trkpt lat="44.92693" lon="5.77328">
        <ele>957.20001220703</ele>
        <time>2026-07-05T09:38:19.000Z</time>
      </trkpt>
      <trkpt lat="44.92693" lon="5.77331">
        <ele>957</ele>
        <time>2026-07-05T09:38:20.000Z</time>
      </trkpt>
      <trkpt lat="44.92693" lon="5.77334">
        <ele>956.79998779297</ele>
        <time>2026-07-05T09:38:21.000Z</time>
      </trkpt>
      <trkpt lat="44.92693" lon="5.77337">
        <ele>956.59997558594</ele>
        <time>2026-07-05T09:38:22.000Z</time>
      </trkpt>
      <trkpt lat="44.92693" lon="5.7734">
        <ele>956.20001220703</ele>
        <time>2026-07-05T09:38:23.000Z</time>
      </trkpt>
      <trkpt lat="44.92692" lon="5.77343">
        <ele>956</ele>
        <time>2026-07-05T09:38:24.000Z</time>
      </trkpt>
      <trkpt lat="44.92692" lon="5.77347">
        <ele>956</ele>
        <time>2026-07-05T09:38:25.000Z</time>
      </trkpt>
      <trkpt lat="44.92692" lon="5.7735">
        <ele>955.79998779297</ele>
        <time>2026-07-05T09:38:26.000Z</time>
      </trkpt>
      <trkpt lat="44.92692" lon="5.77352">
        <ele>955.59997558594</ele>
        <time>2026-07-05T09:38:27.000Z</time>
      </trkpt>
      <trkpt lat="44.9269" lon="5.77354">
        <ele>955.59997558594</ele>
        <time>2026-07-05T09:38:28.000Z</time>
      </trkpt>
      <trkpt lat="44.92688" lon="5.77356">
        <ele>955.59997558594</ele>
        <time>2026-07-05T09:38:29.000Z</time>
      </trkpt>
      <trkpt lat="44.92687" lon="5.77357">
        <ele>955.59997558594</ele>
        <time>2026-07-05T09:38:30.000Z</time>
      </trkpt>
      <trkpt lat="44.92686" lon="5.77359">
        <ele>955.59997558594</ele>
        <time>2026-07-05T09:38:31.000Z</time>
      </trkpt>
      <trkpt lat="44.92684" lon="5.77361">
        <ele>955.59997558594</ele>
        <time>2026-07-05T09:38:32.000Z</time>
      </trkpt>
      <trkpt lat="44.92682" lon="5.77363">
        <ele>955.20001220703</ele>
        <time>2026-07-05T09:38:33.000Z</time>
      </trkpt>
      <trkpt lat="44.9268" lon="5.77364">
        <ele>955</ele>
        <time>2026-07-05T09:38:34.000Z</time>
      </trkpt>
      <trkpt lat="44.92678" lon="5.77366">
        <ele>954.79998779297</ele>
        <time>2026-07-05T09:38:35.000Z</time>
      </trkpt>
      <trkpt lat="44.92676" lon="5.77368">
        <ele>954.59997558594</ele>
        <time>2026-07-05T09:38:36.000Z</time>
      </trkpt>
      <trkpt lat="44.92674" lon="5.77369">
        <ele>954.59997558594</ele>
        <time>2026-07-05T09:38:37.000Z</time>
      </trkpt>
      <trkpt lat="44.92673" lon="5.77371">
        <ele>954.40002441406</ele>
        <time>2026-07-05T09:38:38.000Z</time>
      </trkpt>
      <trkpt lat="44.92673" lon="5.77374">
        <ele>954.40002441406</ele>
        <time>2026-07-05T09:38:39.000Z</time>
      </trkpt>
      <trkpt lat="44.92673" lon="5.77377">
        <ele>954.20001220703</ele>
        <time>2026-07-05T09:38:40.000Z</time>
      </trkpt>
      <trkpt lat="44.92672" lon="5.77379">
        <ele>954</ele>
        <time>2026-07-05T09:38:41.000Z</time>
      </trkpt>
      <trkpt lat="44.92672" lon="5.77382">
        <ele>953.79998779297</ele>
        <time>2026-07-05T09:38:42.000Z</time>
      </trkpt>
      <trkpt lat="44.9267" lon="5.77384">
        <ele>953.40002441406</ele>
        <time>2026-07-05T09:38:43.000Z</time>
      </trkpt>
      <trkpt lat="44.92667" lon="5.77385">
        <ele>952.79998779297</ele>
        <time>2026-07-05T09:38:44.000Z</time>
      </trkpt>
      <trkpt lat="44.92665" lon="5.77386">
        <ele>952.59997558594</ele>
        <time>2026-07-05T09:38:45.000Z</time>
      </trkpt>
      <trkpt lat="44.92663" lon="5.77386">
        <ele>952.59997558594</ele>
        <time>2026-07-05T09:38:46.000Z</time>
      </trkpt>
      <trkpt lat="44.92661" lon="5.77388">
        <ele>952.59997558594</ele>
        <time>2026-07-05T09:38:47.000Z</time>
      </trkpt>
      <trkpt lat="44.9266" lon="5.77389">
        <ele>952.79998779297</ele>
        <time>2026-07-05T09:38:48.000Z</time>
      </trkpt>
      <trkpt lat="44.92658" lon="5.7739">
        <ele>953</ele>
        <time>2026-07-05T09:38:49.000Z</time>
      </trkpt>
      <trkpt lat="44.92656" lon="5.77391">
        <ele>953</ele>
        <time>2026-07-05T09:38:50.000Z</time>
      </trkpt>
      <trkpt lat="44.92654" lon="5.77393">
        <ele>953.20001220703</ele>
        <time>2026-07-05T09:38:51.000Z</time>
      </trkpt>
      <trkpt lat="44.92653" lon="5.77394">
        <ele>953.40002441406</ele>
        <time>2026-07-05T09:38:52.000Z</time>
      </trkpt>
      <trkpt lat="44.92651" lon="5.77396">
        <ele>953.40002441406</ele>
        <time>2026-07-05T09:38:53.000Z</time>
      </trkpt>
      <trkpt lat="44.92649" lon="5.77397">
        <ele>953.59997558594</ele>
        <time>2026-07-05T09:38:54.000Z</time>
      </trkpt>
      <trkpt lat="44.92647" lon="5.77398">
        <ele>953.79998779297</ele>
        <time>2026-07-05T09:38:55.000Z</time>
      </trkpt>
      <trkpt lat="44.92645" lon="5.77399">
        <ele>953.79998779297</ele>
        <time>2026-07-05T09:38:56.000Z</time>
      </trkpt>
      <trkpt lat="44.92644" lon="5.77401">
        <ele>954</ele>
        <time>2026-07-05T09:38:57.000Z</time>
      </trkpt>
      <trkpt lat="44.92642" lon="5.77403">
        <ele>954</ele>
        <time>2026-07-05T09:38:58.000Z</time>
      </trkpt>
      <trkpt lat="44.92641" lon="5.77404">
        <ele>954.20001220703</ele>
        <time>2026-07-05T09:38:59.000Z</time>
      </trkpt>
      <trkpt lat="44.9264" lon="5.77405">
        <ele>954.20001220703</ele>
        <time>2026-07-05T09:39:00.000Z</time>
      </trkpt>
      <trkpt lat="44.92639" lon="5.77406">
        <ele>954.20001220703</ele>
        <time>2026-07-05T09:39:01.000Z</time>
      </trkpt>
      <trkpt lat="44.92639" lon="5.77406">
        <ele>954.20001220703</ele>
        <time>2026-07-05T09:39:02.000Z</time>
      </trkpt>
      <trkpt lat="44.92639" lon="5.77407">
        <ele>954</ele>
        <time>2026-07-05T09:39:03.000Z</time>
      </trkpt>
      <trkpt lat="44.9264" lon="5.77407">
        <ele>953.79998779297</ele>
        <time>2026-07-05T09:39:04.000Z</time>
      </trkpt>
      <trkpt lat="44.9264" lon="5.77407">
        <ele>953.40002441406</ele>
        <time>2026-07-05T09:39:05.000Z</time>
      </trkpt>
      <trkpt lat="44.9264" lon="5.77407">
        <ele>952.79998779297</ele>
        <time>2026-07-05T09:39:06.000Z</time>
      </trkpt>
      <trkpt lat="44.92641" lon="5.77408">
        <ele>952.40002441406</ele>
        <time>2026-07-05T09:39:07.000Z</time>
      </trkpt>
      <trkpt lat="44.92641" lon="5.77408">
        <ele>952</ele>
        <time>2026-07-05T09:39:08.000Z</time>
      </trkpt>
      <trkpt lat="44.92642" lon="5.77408">
        <ele>951.59997558594</ele>
        <time>2026-07-05T09:39:09.000Z</time>
      </trkpt>
      <trkpt lat="44.92643" lon="5.77408">
        <ele>951.20001220703</ele>
        <time>2026-07-05T09:39:10.000Z</time>
      </trkpt>
      <trkpt lat="44.92644" lon="5.77408">
        <ele>950.79998779297</ele>
        <time>2026-07-05T09:39:11.000Z</time>
      </trkpt>
      <trkpt lat="44.92645" lon="5.77407">
        <ele>950.20001220703</ele>
        <time>2026-07-05T09:39:12.000Z</time>
      </trkpt>
      <trkpt lat="44.92647" lon="5.77406">
        <ele>949.59997558594</ele>
        <time>2026-07-05T09:39:13.000Z</time>
      </trkpt>
      <trkpt lat="44.92648" lon="5.77406">
        <ele>949.20001220703</ele>
        <time>2026-07-05T09:39:14.000Z</time>
      </trkpt>
      <trkpt lat="44.9265" lon="5.77405">
        <ele>948.40002441406</ele>
        <time>2026-07-05T09:39:15.000Z</time>
      </trkpt>
      <trkpt lat="44.92651" lon="5.77406">
        <ele>948.20001220703</ele>
        <time>2026-07-05T09:39:16.000Z</time>
      </trkpt>
      <trkpt lat="44.92652" lon="5.77408">
        <ele>947.40002441406</ele>
        <time>2026-07-05T09:39:17.000Z</time>
      </trkpt>
      <trkpt lat="44.92651" lon="5.77411">
        <ele>946.79998779297</ele>
        <time>2026-07-05T09:39:18.000Z</time>
      </trkpt>
      <trkpt lat="44.92651" lon="5.77413">
        <ele>946.40002441406</ele>
        <time>2026-07-05T09:39:19.000Z</time>
      </trkpt>
      <trkpt lat="44.9265" lon="5.77415">
        <ele>946</ele>
        <time>2026-07-05T09:39:20.000Z</time>
      </trkpt>
      <trkpt lat="44.9265" lon="5.77417">
        <ele>945.79998779297</ele>
        <time>2026-07-05T09:39:21.000Z</time>
      </trkpt>
      <trkpt lat="44.9265" lon="5.77419">
        <ele>945.40002441406</ele>
        <time>2026-07-05T09:39:22.000Z</time>
      </trkpt>
      <trkpt lat="44.92649" lon="5.77421">
        <ele>945.20001220703</ele>
        <time>2026-07-05T09:39:23.000Z</time>
      </trkpt>
      <trkpt lat="44.92648" lon="5.77423">
        <ele>944.79998779297</ele>
        <time>2026-07-05T09:39:24.000Z</time>
      </trkpt>
      <trkpt lat="44.92647" lon="5.77425">
        <ele>944.59997558594</ele>
        <time>2026-07-05T09:39:25.000Z</time>
      </trkpt>
      <trkpt lat="44.92647" lon="5.77426">
        <ele>944.20001220703</ele>
        <time>2026-07-05T09:39:26.000Z</time>
      </trkpt>
      <trkpt lat="44.92646" lon="5.77428">
        <ele>944</ele>
        <time>2026-07-05T09:39:27.000Z</time>
      </trkpt>
      <trkpt lat="44.92645" lon="5.7743">
        <ele>943.59997558594</ele>
        <time>2026-07-05T09:39:28.000Z</time>
      </trkpt>
      <trkpt lat="44.92644" lon="5.77431">
        <ele>943.40002441406</ele>
        <time>2026-07-05T09:39:29.000Z</time>
      </trkpt>
      <trkpt lat="44.92644" lon="5.77432">
        <ele>943.20001220703</ele>
        <time>2026-07-05T09:39:30.000Z</time>
      </trkpt>
      <trkpt lat="44.92643" lon="5.77434">
        <ele>942.59997558594</ele>
        <time>2026-07-05T09:39:31.000Z</time>
      </trkpt>
      <trkpt lat="44.92643" lon="5.77436">
        <ele>942.20001220703</ele>
        <time>2026-07-05T09:39:32.000Z</time>
      </trkpt>
      <trkpt lat="44.92643" lon="5.77437">
        <ele>941.79998779297</ele>
        <time>2026-07-05T09:39:33.000Z</time>
      </trkpt>
      <trkpt lat="44.92642" lon="5.77439">
        <ele>941.59997558594</ele>
        <time>2026-07-05T09:39:34.000Z</time>
      </trkpt>
      <trkpt lat="44.92641" lon="5.7744">
        <ele>941.20001220703</ele>
        <time>2026-07-05T09:39:35.000Z</time>
      </trkpt>
      <trkpt lat="44.92641" lon="5.77441">
        <ele>941</ele>
        <time>2026-07-05T09:39:36.000Z</time>
      </trkpt>
      <trkpt lat="44.9264" lon="5.77442">
        <ele>940.79998779297</ele>
        <time>2026-07-05T09:39:37.000Z</time>
      </trkpt>
      <trkpt lat="44.92639" lon="5.77443">
        <ele>940.20001220703</ele>
        <time>2026-07-05T09:39:38.000Z</time>
      </trkpt>
      <trkpt lat="44.92637" lon="5.77444">
        <ele>940</ele>
        <time>2026-07-05T09:39:39.000Z</time>
      </trkpt>
      <trkpt lat="44.92636" lon="5.77444">
        <ele>940</ele>
        <time>2026-07-05T09:39:40.000Z</time>
      </trkpt>
      <trkpt lat="44.92634" lon="5.77445">
        <ele>940.20001220703</ele>
        <time>2026-07-05T09:39:41.000Z</time>
      </trkpt>
      <trkpt lat="44.92633" lon="5.77445">
        <ele>940.40002441406</ele>
        <time>2026-07-05T09:39:42.000Z</time>
      </trkpt>
      <trkpt lat="44.92632" lon="5.77444">
        <ele>941</ele>
        <time>2026-07-05T09:39:43.000Z</time>
      </trkpt>
      <trkpt lat="44.92631" lon="5.77444">
        <ele>941.59997558594</ele>
        <time>2026-07-05T09:39:44.000Z</time>
      </trkpt>
      <trkpt lat="44.9263" lon="5.77444">
        <ele>941.79998779297</ele>
        <time>2026-07-05T09:39:45.000Z</time>
      </trkpt>
      <trkpt lat="44.92628" lon="5.77444">
        <ele>942.40002441406</ele>
        <time>2026-07-05T09:39:46.000Z</time>
      </trkpt>
      <trkpt lat="44.92626" lon="5.77443">
        <ele>942.59997558594</ele>
        <time>2026-07-05T09:39:47.000Z</time>
      </trkpt>
      <trkpt lat="44.92625" lon="5.77443">
        <ele>942.79998779297</ele>
        <time>2026-07-05T09:39:48.000Z</time>
      </trkpt>
      <trkpt lat="44.92623" lon="5.77442">
        <ele>943</ele>
        <time>2026-07-05T09:39:49.000Z</time>
      </trkpt>
      <trkpt lat="44.92622" lon="5.77443">
        <ele>943.20001220703</ele>
        <time>2026-07-05T09:39:50.000Z</time>
      </trkpt>
      <trkpt lat="44.9262" lon="5.77444">
        <ele>943.20001220703</ele>
        <time>2026-07-05T09:39:51.000Z</time>
      </trkpt>
      <trkpt lat="44.92618" lon="5.77445">
        <ele>943.40002441406</ele>
        <time>2026-07-05T09:39:52.000Z</time>
      </trkpt>
      <trkpt lat="44.92617" lon="5.77446">
        <ele>943.40002441406</ele>
        <time>2026-07-05T09:39:53.000Z</time>
      </trkpt>
      <trkpt lat="44.92616" lon="5.77447">
        <ele>943.40002441406</ele>
        <time>2026-07-05T09:39:54.000Z</time>
      </trkpt>
      <trkpt lat="44.92615" lon="5.77449">
        <ele>943.40002441406</ele>
        <time>2026-07-05T09:39:55.000Z</time>
      </trkpt>
      <trkpt lat="44.92615" lon="5.7745">
        <ele>943.20001220703</ele>
        <time>2026-07-05T09:39:56.000Z</time>
      </trkpt>
      <trkpt lat="44.92614" lon="5.77452">
        <ele>943.20001220703</ele>
        <time>2026-07-05T09:39:57.000Z</time>
      </trkpt>
      <trkpt lat="44.92614" lon="5.77453">
        <ele>943.20001220703</ele>
        <time>2026-07-05T09:39:58.000Z</time>
      </trkpt>
      <trkpt lat="44.92614" lon="5.77455">
        <ele>943</ele>
        <time>2026-07-05T09:39:59.000Z</time>
      </trkpt>
      <trkpt lat="44.92613" lon="5.77457">
        <ele>942.79998779297</ele>
        <time>2026-07-05T09:40:00.000Z</time>
      </trkpt>
      <trkpt lat="44.92613" lon="5.7746">
        <ele>942.59997558594</ele>
        <time>2026-07-05T09:40:01.000Z</time>
      </trkpt>
      <trkpt lat="44.92612" lon="5.77463">
        <ele>942</ele>
        <time>2026-07-05T09:40:02.000Z</time>
      </trkpt>
      <trkpt lat="44.92612" lon="5.77466">
        <ele>941.40002441406</ele>
        <time>2026-07-05T09:40:03.000Z</time>
      </trkpt>
      <trkpt lat="44.92611" lon="5.77468">
        <ele>941</ele>
        <time>2026-07-05T09:40:04.000Z</time>
      </trkpt>
      <trkpt lat="44.9261" lon="5.77471">
        <ele>940.79998779297</ele>
        <time>2026-07-05T09:40:05.000Z</time>
      </trkpt>
      <trkpt lat="44.9261" lon="5.77473">
        <ele>940.79998779297</ele>
        <time>2026-07-05T09:40:06.000Z</time>
      </trkpt>
      <trkpt lat="44.92609" lon="5.77476">
        <ele>940.79998779297</ele>
        <time>2026-07-05T09:40:07.000Z</time>
      </trkpt>
      <trkpt lat="44.92608" lon="5.77478">
        <ele>940.79998779297</ele>
        <time>2026-07-05T09:40:08.000Z</time>
      </trkpt>
      <trkpt lat="44.92607" lon="5.7748">
        <ele>940.79998779297</ele>
        <time>2026-07-05T09:40:09.000Z</time>
      </trkpt>
      <trkpt lat="44.92606" lon="5.77482">
        <ele>940.79998779297</ele>
        <time>2026-07-05T09:40:10.000Z</time>
      </trkpt>
      <trkpt lat="44.92605" lon="5.77484">
        <ele>940.79998779297</ele>
        <time>2026-07-05T09:40:11.000Z</time>
      </trkpt>
      <trkpt lat="44.92605" lon="5.77487">
        <ele>940.79998779297</ele>
        <time>2026-07-05T09:40:12.000Z</time>
      </trkpt>
      <trkpt lat="44.92604" lon="5.77489">
        <ele>940.59997558594</ele>
        <time>2026-07-05T09:40:13.000Z</time>
      </trkpt>
      <trkpt lat="44.92603" lon="5.77491">
        <ele>940.20001220703</ele>
        <time>2026-07-05T09:40:14.000Z</time>
      </trkpt>
      <trkpt lat="44.92602" lon="5.77493">
        <ele>939.79998779297</ele>
        <time>2026-07-05T09:40:15.000Z</time>
      </trkpt>
      <trkpt lat="44.92601" lon="5.77495">
        <ele>939.59997558594</ele>
        <time>2026-07-05T09:40:16.000Z</time>
      </trkpt>
      <trkpt lat="44.926" lon="5.77497">
        <ele>939.20001220703</ele>
        <time>2026-07-05T09:40:17.000Z</time>
      </trkpt>
      <trkpt lat="44.926" lon="5.77499">
        <ele>938.79998779297</ele>
        <time>2026-07-05T09:40:18.000Z</time>
      </trkpt>
      <trkpt lat="44.92599" lon="5.77502">
        <ele>938.59997558594</ele>
        <time>2026-07-05T09:40:19.000Z</time>
      </trkpt>
      <trkpt lat="44.92597" lon="5.77504">
        <ele>938</ele>
        <time>2026-07-05T09:40:20.000Z</time>
      </trkpt>
      <trkpt lat="44.92596" lon="5.77506">
        <ele>937.79998779297</ele>
        <time>2026-07-05T09:40:21.000Z</time>
      </trkpt>
      <trkpt lat="44.92595" lon="5.77508">
        <ele>937.59997558594</ele>
        <time>2026-07-05T09:40:22.000Z</time>
      </trkpt>
      <trkpt lat="44.92593" lon="5.77509">
        <ele>937.59997558594</ele>
        <time>2026-07-05T09:40:23.000Z</time>
      </trkpt>
      <trkpt lat="44.92593" lon="5.7751">
        <ele>937.59997558594</ele>
        <time>2026-07-05T09:40:24.000Z</time>
      </trkpt>
      <trkpt lat="44.92592" lon="5.77511">
        <ele>937.59997558594</ele>
        <time>2026-07-05T09:40:25.000Z</time>
      </trkpt>
      <trkpt lat="44.92591" lon="5.77512">
        <ele>937.79998779297</ele>
        <time>2026-07-05T09:40:26.000Z</time>
      </trkpt>
      <trkpt lat="44.92591" lon="5.77511">
        <ele>937.79998779297</ele>
        <time>2026-07-05T09:40:27.000Z</time>
      </trkpt>
      <trkpt lat="44.92591" lon="5.77511">
        <ele>938</ele>
        <time>2026-07-05T09:40:28.000Z</time>
      </trkpt>
      <trkpt lat="44.9259" lon="5.77512">
        <ele>938</ele>
        <time>2026-07-05T09:40:29.000Z</time>
      </trkpt>
      <trkpt lat="44.9259" lon="5.77512">
        <ele>938.20001220703</ele>
        <time>2026-07-05T09:40:30.000Z</time>
      </trkpt>
      <trkpt lat="44.92589" lon="5.77512">
        <ele>938.20001220703</ele>
        <time>2026-07-05T09:40:31.000Z</time>
      </trkpt>
      <trkpt lat="44.92588" lon="5.77512">
        <ele>938.20001220703</ele>
        <time>2026-07-05T09:40:32.000Z</time>
      </trkpt>
      <trkpt lat="44.92587" lon="5.77513">
        <ele>938.20001220703</ele>
        <time>2026-07-05T09:40:33.000Z</time>
      </trkpt>
      <trkpt lat="44.92587" lon="5.77513">
        <ele>938.20001220703</ele>
        <time>2026-07-05T09:40:34.000Z</time>
      </trkpt>
      <trkpt lat="44.92585" lon="5.77513">
        <ele>938.40002441406</ele>
        <time>2026-07-05T09:40:35.000Z</time>
      </trkpt>
      <trkpt lat="44.92584" lon="5.77513">
        <ele>938.59997558594</ele>
        <time>2026-07-05T09:40:36.000Z</time>
      </trkpt>
      <trkpt lat="44.92583" lon="5.77513">
        <ele>939</ele>
        <time>2026-07-05T09:40:37.000Z</time>
      </trkpt>
      <trkpt lat="44.92583" lon="5.77513">
        <ele>939.20001220703</ele>
        <time>2026-07-05T09:40:38.000Z</time>
      </trkpt>
      <trkpt lat="44.92582" lon="5.77513">
        <ele>939.59997558594</ele>
        <time>2026-07-05T09:40:39.000Z</time>
      </trkpt>
      <trkpt lat="44.92581" lon="5.77513">
        <ele>939.79998779297</ele>
        <time>2026-07-05T09:40:40.000Z</time>
      </trkpt>
      <trkpt lat="44.92581" lon="5.77513">
        <ele>940.20001220703</ele>
        <time>2026-07-05T09:40:41.000Z</time>
      </trkpt>
      <trkpt lat="44.9258" lon="5.77513">
        <ele>940.40002441406</ele>
        <time>2026-07-05T09:40:42.000Z</time>
      </trkpt>
      <trkpt lat="44.92579" lon="5.77513">
        <ele>940.59997558594</ele>
        <time>2026-07-05T09:40:43.000Z</time>
      </trkpt>
      <trkpt lat="44.92579" lon="5.77512">
        <ele>940.79998779297</ele>
        <time>2026-07-05T09:40:44.000Z</time>
      </trkpt>
      <trkpt lat="44.92578" lon="5.77512">
        <ele>941.20001220703</ele>
        <time>2026-07-05T09:40:45.000Z</time>
      </trkpt>
      <trkpt lat="44.92577" lon="5.77512">
        <ele>941.40002441406</ele>
        <time>2026-07-05T09:40:46.000Z</time>
      </trkpt>
      <trkpt lat="44.92576" lon="5.77512">
        <ele>941.59997558594</ele>
        <time>2026-07-05T09:40:47.000Z</time>
      </trkpt>
      <trkpt lat="44.92576" lon="5.77511">
        <ele>942</ele>
        <time>2026-07-05T09:40:48.000Z</time>
      </trkpt>
      <trkpt lat="44.92575" lon="5.77512">
        <ele>942.20001220703</ele>
        <time>2026-07-05T09:40:49.000Z</time>
      </trkpt>
      <trkpt lat="44.92574" lon="5.77511">
        <ele>942.40002441406</ele>
        <time>2026-07-05T09:40:50.000Z</time>
      </trkpt>
      <trkpt lat="44.92574" lon="5.77511">
        <ele>942.79998779297</ele>
        <time>2026-07-05T09:40:51.000Z</time>
      </trkpt>
      <trkpt lat="44.92573" lon="5.77511">
        <ele>943</ele>
        <time>2026-07-05T09:40:52.000Z</time>
      </trkpt>
      <trkpt lat="44.92572" lon="5.77511">
        <ele>943.20001220703</ele>
        <time>2026-07-05T09:40:53.000Z</time>
      </trkpt>
      <trkpt lat="44.92571" lon="5.77511">
        <ele>943.59997558594</ele>
        <time>2026-07-05T09:40:54.000Z</time>
      </trkpt>
      <trkpt lat="44.92571" lon="5.7751">
        <ele>943.79998779297</ele>
        <time>2026-07-05T09:40:55.000Z</time>
      </trkpt>
      <trkpt lat="44.9257" lon="5.7751">
        <ele>944</ele>
        <time>2026-07-05T09:40:56.000Z</time>
      </trkpt>
      <trkpt lat="44.92569" lon="5.7751">
        <ele>944.40002441406</ele>
        <time>2026-07-05T09:40:57.000Z</time>
      </trkpt>
      <trkpt lat="44.92569" lon="5.7751">
        <ele>944.59997558594</ele>
        <time>2026-07-05T09:40:58.000Z</time>
      </trkpt>
      <trkpt lat="44.92568" lon="5.7751">
        <ele>944.79998779297</ele>
        <time>2026-07-05T09:40:59.000Z</time>
      </trkpt>
      <trkpt lat="44.92567" lon="5.7751">
        <ele>945</ele>
        <time>2026-07-05T09:41:00.000Z</time>
      </trkpt>
      <trkpt lat="44.92567" lon="5.7751">
        <ele>945.40002441406</ele>
        <time>2026-07-05T09:41:01.000Z</time>
      </trkpt>
      <trkpt lat="44.92566" lon="5.7751">
        <ele>945.59997558594</ele>
        <time>2026-07-05T09:41:02.000Z</time>
      </trkpt>
      <trkpt lat="44.92565" lon="5.77511">
        <ele>945.79998779297</ele>
        <time>2026-07-05T09:41:03.000Z</time>
      </trkpt>
      <trkpt lat="44.92565" lon="5.7751">
        <ele>946</ele>
        <time>2026-07-05T09:41:04.000Z</time>
      </trkpt>
      <trkpt lat="44.92564" lon="5.77511">
        <ele>946.40002441406</ele>
        <time>2026-07-05T09:41:05.000Z</time>
      </trkpt>
      <trkpt lat="44.92564" lon="5.77511">
        <ele>946.40002441406</ele>
        <time>2026-07-05T09:41:06.000Z</time>
      </trkpt>
      <trkpt lat="44.92563" lon="5.77511">
        <ele>946.59997558594</ele>
        <time>2026-07-05T09:41:07.000Z</time>
      </trkpt>
      <trkpt lat="44.92562" lon="5.7751">
        <ele>946.79998779297</ele>
        <time>2026-07-05T09:41:08.000Z</time>
      </trkpt>
      <trkpt lat="44.92562" lon="5.77511">
        <ele>947</ele>
        <time>2026-07-05T09:41:09.000Z</time>
      </trkpt>
      <trkpt lat="44.92561" lon="5.77511">
        <ele>947.20001220703</ele>
        <time>2026-07-05T09:41:10.000Z</time>
      </trkpt>
      <trkpt lat="44.9256" lon="5.77512">
        <ele>947.59997558594</ele>
        <time>2026-07-05T09:41:11.000Z</time>
      </trkpt>
      <trkpt lat="44.9256" lon="5.77512">
        <ele>947.79998779297</ele>
        <time>2026-07-05T09:41:12.000Z</time>
      </trkpt>
      <trkpt lat="44.92559" lon="5.77513">
        <ele>948</ele>
        <time>2026-07-05T09:41:13.000Z</time>
      </trkpt>
      <trkpt lat="44.92558" lon="5.77513">
        <ele>948.20001220703</ele>
        <time>2026-07-05T09:41:14.000Z</time>
      </trkpt>
      <trkpt lat="44.92557" lon="5.77514">
        <ele>948.40002441406</ele>
        <time>2026-07-05T09:41:15.000Z</time>
      </trkpt>
      <trkpt lat="44.92556" lon="5.77515">
        <ele>948.40002441406</ele>
        <time>2026-07-05T09:41:16.000Z</time>
      </trkpt>
      <trkpt lat="44.92555" lon="5.77516">
        <ele>948.59997558594</ele>
        <time>2026-07-05T09:41:17.000Z</time>
      </trkpt>
      <trkpt lat="44.92554" lon="5.77517">
        <ele>948.79998779297</ele>
        <time>2026-07-05T09:41:18.000Z</time>
      </trkpt>
      <trkpt lat="44.92553" lon="5.77518">
        <ele>948.79998779297</ele>
        <time>2026-07-05T09:41:19.000Z</time>
      </trkpt>
      <trkpt lat="44.92553" lon="5.77519">
        <ele>949</ele>
        <time>2026-07-05T09:41:20.000Z</time>
      </trkpt>
      <trkpt lat="44.92552" lon="5.77521">
        <ele>949.20001220703</ele>
        <time>2026-07-05T09:41:21.000Z</time>
      </trkpt>
      <trkpt lat="44.92551" lon="5.77522">
        <ele>949.20001220703</ele>
        <time>2026-07-05T09:41:22.000Z</time>
      </trkpt>
      <trkpt lat="44.9255" lon="5.77524">
        <ele>949.40002441406</ele>
        <time>2026-07-05T09:41:23.000Z</time>
      </trkpt>
      <trkpt lat="44.9255" lon="5.77525">
        <ele>949.40002441406</ele>
        <time>2026-07-05T09:41:24.000Z</time>
      </trkpt>
      <trkpt lat="44.92549" lon="5.77527">
        <ele>949.40002441406</ele>
        <time>2026-07-05T09:41:25.000Z</time>
      </trkpt>
      <trkpt lat="44.92548" lon="5.77529">
        <ele>949.59997558594</ele>
        <time>2026-07-05T09:41:26.000Z</time>
      </trkpt>
      <trkpt lat="44.92547" lon="5.7753">
        <ele>949.59997558594</ele>
        <time>2026-07-05T09:41:27.000Z</time>
      </trkpt>
      <trkpt lat="44.92546" lon="5.77532">
        <ele>949.79998779297</ele>
        <time>2026-07-05T09:41:28.000Z</time>
      </trkpt>
      <trkpt lat="44.92546" lon="5.77533">
        <ele>950</ele>
        <time>2026-07-05T09:41:29.000Z</time>
      </trkpt>
      <trkpt lat="44.92545" lon="5.77535">
        <ele>950</ele>
        <time>2026-07-05T09:41:30.000Z</time>
      </trkpt>
      <trkpt lat="44.92544" lon="5.77536">
        <ele>950.20001220703</ele>
        <time>2026-07-05T09:41:31.000Z</time>
      </trkpt>
      <trkpt lat="44.92543" lon="5.77537">
        <ele>950.20001220703</ele>
        <time>2026-07-05T09:41:32.000Z</time>
      </trkpt>
      <trkpt lat="44.92542" lon="5.77539">
        <ele>950.40002441406</ele>
        <time>2026-07-05T09:41:33.000Z</time>
      </trkpt>
      <trkpt lat="44.92541" lon="5.7754">
        <ele>950.59997558594</ele>
        <time>2026-07-05T09:41:34.000Z</time>
      </trkpt>
      <trkpt lat="44.92541" lon="5.77541">
        <ele>950.79998779297</ele>
        <time>2026-07-05T09:41:35.000Z</time>
      </trkpt>
      <trkpt lat="44.9254" lon="5.77543">
        <ele>951</ele>
        <time>2026-07-05T09:41:36.000Z</time>
      </trkpt>
      <trkpt lat="44.92539" lon="5.77544">
        <ele>951.20001220703</ele>
        <time>2026-07-05T09:41:37.000Z</time>
      </trkpt>
      <trkpt lat="44.92538" lon="5.77547">
        <ele>951.40002441406</ele>
        <time>2026-07-05T09:41:38.000Z</time>
      </trkpt>
      <trkpt lat="44.92537" lon="5.77549">
        <ele>951.40002441406</ele>
        <time>2026-07-05T09:41:39.000Z</time>
      </trkpt>
      <trkpt lat="44.92536" lon="5.77551">
        <ele>951.40002441406</ele>
        <time>2026-07-05T09:41:40.000Z</time>
      </trkpt>
      <trkpt lat="44.92535" lon="5.77553">
        <ele>951.40002441406</ele>
        <time>2026-07-05T09:41:41.000Z</time>
      </trkpt>
      <trkpt lat="44.92534" lon="5.77556">
        <ele>951.40002441406</ele>
        <time>2026-07-05T09:41:42.000Z</time>
      </trkpt>
      <trkpt lat="44.92533" lon="5.77558">
        <ele>951.20001220703</ele>
        <time>2026-07-05T09:41:43.000Z</time>
      </trkpt>
      <trkpt lat="44.92533" lon="5.77559">
        <ele>951.20001220703</ele>
        <time>2026-07-05T09:41:44.000Z</time>
      </trkpt>
      <trkpt lat="44.92532" lon="5.77561">
        <ele>951.20001220703</ele>
        <time>2026-07-05T09:41:45.000Z</time>
      </trkpt>
      <trkpt lat="44.92532" lon="5.77563">
        <ele>951.40002441406</ele>
        <time>2026-07-05T09:41:46.000Z</time>
      </trkpt>
      <trkpt lat="44.92531" lon="5.77564">
        <ele>951.40002441406</ele>
        <time>2026-07-05T09:41:47.000Z</time>
      </trkpt>
      <trkpt lat="44.9253" lon="5.77566">
        <ele>951.40002441406</ele>
        <time>2026-07-05T09:41:48.000Z</time>
      </trkpt>
      <trkpt lat="44.92529" lon="5.77569">
        <ele>951.59997558594</ele>
        <time>2026-07-05T09:41:49.000Z</time>
      </trkpt>
      <trkpt lat="44.92528" lon="5.77571">
        <ele>951.59997558594</ele>
        <time>2026-07-05T09:41:50.000Z</time>
      </trkpt>
      <trkpt lat="44.92527" lon="5.77574">
        <ele>951.40002441406</ele>
        <time>2026-07-05T09:41:51.000Z</time>
      </trkpt>
      <trkpt lat="44.92526" lon="5.77577">
        <ele>951.40002441406</ele>
        <time>2026-07-05T09:41:52.000Z</time>
      </trkpt>
      <trkpt lat="44.92525" lon="5.7758">
        <ele>951.40002441406</ele>
        <time>2026-07-05T09:41:53.000Z</time>
      </trkpt>
      <trkpt lat="44.92524" lon="5.77583">
        <ele>951.20001220703</ele>
        <time>2026-07-05T09:41:54.000Z</time>
      </trkpt>
      <trkpt lat="44.92523" lon="5.77586">
        <ele>951.20001220703</ele>
        <time>2026-07-05T09:41:55.000Z</time>
      </trkpt>
      <trkpt lat="44.92522" lon="5.77589">
        <ele>951</ele>
        <time>2026-07-05T09:41:56.000Z</time>
      </trkpt>
      <trkpt lat="44.92521" lon="5.77592">
        <ele>951</ele>
        <time>2026-07-05T09:41:57.000Z</time>
      </trkpt>
      <trkpt lat="44.9252" lon="5.77596">
        <ele>951</ele>
        <time>2026-07-05T09:41:58.000Z</time>
      </trkpt>
      <trkpt lat="44.92519" lon="5.77598">
        <ele>951</ele>
        <time>2026-07-05T09:41:59.000Z</time>
      </trkpt>
      <trkpt lat="44.92518" lon="5.77601">
        <ele>951</ele>
        <time>2026-07-05T09:42:00.000Z</time>
      </trkpt>
      <trkpt lat="44.92517" lon="5.77604">
        <ele>951</ele>
        <time>2026-07-05T09:42:01.000Z</time>
      </trkpt>
      <trkpt lat="44.92516" lon="5.77607">
        <ele>951.20001220703</ele>
        <time>2026-07-05T09:42:02.000Z</time>
      </trkpt>
      <trkpt lat="44.92514" lon="5.7761">
        <ele>951.40002441406</ele>
        <time>2026-07-05T09:42:03.000Z</time>
      </trkpt>
      <trkpt lat="44.92513" lon="5.77613">
        <ele>951.40002441406</ele>
        <time>2026-07-05T09:42:04.000Z</time>
      </trkpt>
      <trkpt lat="44.92512" lon="5.77615">
        <ele>951.40002441406</ele>
        <time>2026-07-05T09:42:05.000Z</time>
      </trkpt>
      <trkpt lat="44.92511" lon="5.77619">
        <ele>951.20001220703</ele>
        <time>2026-07-05T09:42:06.000Z</time>
      </trkpt>
      <trkpt lat="44.92509" lon="5.77622">
        <ele>951.20001220703</ele>
        <time>2026-07-05T09:42:07.000Z</time>
      </trkpt>
      <trkpt lat="44.92508" lon="5.77625">
        <ele>951</ele>
        <time>2026-07-05T09:42:08.000Z</time>
      </trkpt>
      <trkpt lat="44.92506" lon="5.77628">
        <ele>950.59997558594</ele>
        <time>2026-07-05T09:42:09.000Z</time>
      </trkpt>
      <trkpt lat="44.92505" lon="5.77631">
        <ele>950.40002441406</ele>
        <time>2026-07-05T09:42:10.000Z</time>
      </trkpt>
      <trkpt lat="44.92504" lon="5.77633">
        <ele>950.20001220703</ele>
        <time>2026-07-05T09:42:11.000Z</time>
      </trkpt>
      <trkpt lat="44.92502" lon="5.77636">
        <ele>949.79998779297</ele>
        <time>2026-07-05T09:42:12.000Z</time>
      </trkpt>
      <trkpt lat="44.92501" lon="5.77638">
        <ele>949.59997558594</ele>
        <time>2026-07-05T09:42:13.000Z</time>
      </trkpt>
      <trkpt lat="44.925" lon="5.77641">
        <ele>949.40002441406</ele>
        <time>2026-07-05T09:42:14.000Z</time>
      </trkpt>
      <trkpt lat="44.92498" lon="5.77644">
        <ele>949.40002441406</ele>
        <time>2026-07-05T09:42:15.000Z</time>
      </trkpt>
      <trkpt lat="44.92497" lon="5.77648">
        <ele>949.40002441406</ele>
        <time>2026-07-05T09:42:16.000Z</time>
      </trkpt>
      <trkpt lat="44.92496" lon="5.77651">
        <ele>949.20001220703</ele>
        <time>2026-07-05T09:42:17.000Z</time>
      </trkpt>
      <trkpt lat="44.92494" lon="5.77654">
        <ele>949</ele>
        <time>2026-07-05T09:42:18.000Z</time>
      </trkpt>
      <trkpt lat="44.92493" lon="5.77657">
        <ele>948.59997558594</ele>
        <time>2026-07-05T09:42:19.000Z</time>
      </trkpt>
      <trkpt lat="44.92492" lon="5.7766">
        <ele>948.40002441406</ele>
        <time>2026-07-05T09:42:20.000Z</time>
      </trkpt>
      <trkpt lat="44.92491" lon="5.77663">
        <ele>948.20001220703</ele>
        <time>2026-07-05T09:42:21.000Z</time>
      </trkpt>
      <trkpt lat="44.92489" lon="5.77667">
        <ele>947.79998779297</ele>
        <time>2026-07-05T09:42:22.000Z</time>
      </trkpt>
      <trkpt lat="44.92488" lon="5.77669">
        <ele>947.40002441406</ele>
        <time>2026-07-05T09:42:23.000Z</time>
      </trkpt>
      <trkpt lat="44.92487" lon="5.77672">
        <ele>947.20001220703</ele>
        <time>2026-07-05T09:42:24.000Z</time>
      </trkpt>
      <trkpt lat="44.92487" lon="5.77674">
        <ele>947.20001220703</ele>
        <time>2026-07-05T09:42:25.000Z</time>
      </trkpt>
      <trkpt lat="44.92486" lon="5.77676">
        <ele>947.20001220703</ele>
        <time>2026-07-05T09:42:26.000Z</time>
      </trkpt>
      <trkpt lat="44.92486" lon="5.77678">
        <ele>947.20001220703</ele>
        <time>2026-07-05T09:42:27.000Z</time>
      </trkpt>
      <trkpt lat="44.92486" lon="5.77679">
        <ele>947.20001220703</ele>
        <time>2026-07-05T09:42:28.000Z</time>
      </trkpt>
      <trkpt lat="44.92486" lon="5.7768">
        <ele>947</ele>
        <time>2026-07-05T09:42:29.000Z</time>
      </trkpt>
      <trkpt lat="44.92485" lon="5.77681">
        <ele>946.79998779297</ele>
        <time>2026-07-05T09:42:30.000Z</time>
      </trkpt>
      <trkpt lat="44.92485" lon="5.77683">
        <ele>946.59997558594</ele>
        <time>2026-07-05T09:42:31.000Z</time>
      </trkpt>
      <trkpt lat="44.92484" lon="5.77684">
        <ele>946.59997558594</ele>
        <time>2026-07-05T09:42:32.000Z</time>
      </trkpt>
      <trkpt lat="44.92484" lon="5.77685">
        <ele>945.79998779297</ele>
        <time>2026-07-05T09:42:33.000Z</time>
      </trkpt>
      <trkpt lat="44.92483" lon="5.77687">
        <ele>945.20001220703</ele>
        <time>2026-07-05T09:42:34.000Z</time>
      </trkpt>
      <trkpt lat="44.92482" lon="5.77689">
        <ele>944.59997558594</ele>
        <time>2026-07-05T09:42:35.000Z</time>
      </trkpt>
      <trkpt lat="44.92481" lon="5.7769">
        <ele>944</ele>
        <time>2026-07-05T09:42:36.000Z</time>
      </trkpt>
      <trkpt lat="44.92479" lon="5.77692">
        <ele>943.79998779297</ele>
        <time>2026-07-05T09:42:37.000Z</time>
      </trkpt>
      <trkpt lat="44.92478" lon="5.77693">
        <ele>943.40002441406</ele>
        <time>2026-07-05T09:42:38.000Z</time>
      </trkpt>
      <trkpt lat="44.92477" lon="5.77694">
        <ele>943</ele>
        <time>2026-07-05T09:42:39.000Z</time>
      </trkpt>
      <trkpt lat="44.92476" lon="5.77696">
        <ele>942.79998779297</ele>
        <time>2026-07-05T09:42:40.000Z</time>
      </trkpt>
      <trkpt lat="44.92475" lon="5.77697">
        <ele>942.59997558594</ele>
        <time>2026-07-05T09:42:41.000Z</time>
      </trkpt>
      <trkpt lat="44.92475" lon="5.77698">
        <ele>942.40002441406</ele>
        <time>2026-07-05T09:42:42.000Z</time>
      </trkpt>
      <trkpt lat="44.92475" lon="5.77699">
        <ele>942.20001220703</ele>
        <time>2026-07-05T09:42:43.000Z</time>
      </trkpt>
      <trkpt lat="44.92474" lon="5.77701">
        <ele>942</ele>
        <time>2026-07-05T09:42:44.000Z</time>
      </trkpt>
      <trkpt lat="44.92473" lon="5.77703">
        <ele>941.59997558594</ele>
        <time>2026-07-05T09:42:45.000Z</time>
      </trkpt>
      <trkpt lat="44.92473" lon="5.77704">
        <ele>941</ele>
        <time>2026-07-05T09:42:46.000Z</time>
      </trkpt>
      <trkpt lat="44.92473" lon="5.77706">
        <ele>940.79998779297</ele>
        <time>2026-07-05T09:42:47.000Z</time>
      </trkpt>
      <trkpt lat="44.92472" lon="5.77708">
        <ele>940.40002441406</ele>
        <time>2026-07-05T09:42:48.000Z</time>
      </trkpt>
      <trkpt lat="44.92471" lon="5.7771">
        <ele>940</ele>
        <time>2026-07-05T09:42:49.000Z</time>
      </trkpt>
      <trkpt lat="44.9247" lon="5.77711">
        <ele>939.59997558594</ele>
        <time>2026-07-05T09:42:50.000Z</time>
      </trkpt>
      <trkpt lat="44.92469" lon="5.77713">
        <ele>939</ele>
        <time>2026-07-05T09:42:51.000Z</time>
      </trkpt>
      <trkpt lat="44.92467" lon="5.77714">
        <ele>939</ele>
        <time>2026-07-05T09:42:52.000Z</time>
      </trkpt>
      <trkpt lat="44.92466" lon="5.77716">
        <ele>938.59997558594</ele>
        <time>2026-07-05T09:42:53.000Z</time>
      </trkpt>
      <trkpt lat="44.92464" lon="5.77718">
        <ele>938.20001220703</ele>
        <time>2026-07-05T09:42:54.000Z</time>
      </trkpt>
      <trkpt lat="44.92462" lon="5.77719">
        <ele>937.79998779297</ele>
        <time>2026-07-05T09:42:55.000Z</time>
      </trkpt>
      <trkpt lat="44.92461" lon="5.7772">
        <ele>937.40002441406</ele>
        <time>2026-07-05T09:42:56.000Z</time>
      </trkpt>
      <trkpt lat="44.9246" lon="5.77722">
        <ele>937.20001220703</ele>
        <time>2026-07-05T09:42:57.000Z</time>
      </trkpt>
      <trkpt lat="44.92459" lon="5.77723">
        <ele>937.20001220703</ele>
        <time>2026-07-05T09:42:58.000Z</time>
      </trkpt>
      <trkpt lat="44.92458" lon="5.77725">
        <ele>937</ele>
        <time>2026-07-05T09:42:59.000Z</time>
      </trkpt>
      <trkpt lat="44.92458" lon="5.77725">
        <ele>936.59997558594</ele>
        <time>2026-07-05T09:43:00.000Z</time>
      </trkpt>
      <trkpt lat="44.92459" lon="5.77725">
        <ele>936.20001220703</ele>
        <time>2026-07-05T09:43:01.000Z</time>
      </trkpt>
      <trkpt lat="44.9246" lon="5.77724">
        <ele>936</ele>
        <time>2026-07-05T09:43:02.000Z</time>
      </trkpt>
      <trkpt lat="44.9246" lon="5.77724">
        <ele>935.40002441406</ele>
        <time>2026-07-05T09:43:03.000Z</time>
      </trkpt>
      <trkpt lat="44.92461" lon="5.77725">
        <ele>935</ele>
        <time>2026-07-05T09:43:04.000Z</time>
      </trkpt>
      <trkpt lat="44.92463" lon="5.77726">
        <ele>934.59997558594</ele>
        <time>2026-07-05T09:43:05.000Z</time>
      </trkpt>
      <trkpt lat="44.92464" lon="5.77727">
        <ele>933.79998779297</ele>
        <time>2026-07-05T09:43:06.000Z</time>
      </trkpt>
      <trkpt lat="44.92465" lon="5.77728">
        <ele>933.40002441406</ele>
        <time>2026-07-05T09:43:07.000Z</time>
      </trkpt>
      <trkpt lat="44.92467" lon="5.77729">
        <ele>933</ele>
        <time>2026-07-05T09:43:08.000Z</time>
      </trkpt>
      <trkpt lat="44.92468" lon="5.7773">
        <ele>932.20001220703</ele>
        <time>2026-07-05T09:43:09.000Z</time>
      </trkpt>
      <trkpt lat="44.92469" lon="5.7773">
        <ele>931.79998779297</ele>
        <time>2026-07-05T09:43:10.000Z</time>
      </trkpt>
      <trkpt lat="44.92471" lon="5.7773">
        <ele>931.20001220703</ele>
        <time>2026-07-05T09:43:11.000Z</time>
      </trkpt>
      <trkpt lat="44.92472" lon="5.77731">
        <ele>931</ele>
        <time>2026-07-05T09:43:12.000Z</time>
      </trkpt>
      <trkpt lat="44.92474" lon="5.77732">
        <ele>930.59997558594</ele>
        <time>2026-07-05T09:43:13.000Z</time>
      </trkpt>
      <trkpt lat="44.92476" lon="5.77734">
        <ele>930.20001220703</ele>
        <time>2026-07-05T09:43:14.000Z</time>
      </trkpt>
      <trkpt lat="44.92477" lon="5.77735">
        <ele>929.79998779297</ele>
        <time>2026-07-05T09:43:15.000Z</time>
      </trkpt>
      <trkpt lat="44.92479" lon="5.77736">
        <ele>929</ele>
        <time>2026-07-05T09:43:16.000Z</time>
      </trkpt>
      <trkpt lat="44.9248" lon="5.77737">
        <ele>928.20001220703</ele>
        <time>2026-07-05T09:43:17.000Z</time>
      </trkpt>
      <trkpt lat="44.92481" lon="5.77739">
        <ele>927.59997558594</ele>
        <time>2026-07-05T09:43:18.000Z</time>
      </trkpt>
      <trkpt lat="44.92482" lon="5.77741">
        <ele>927.59997558594</ele>
        <time>2026-07-05T09:43:19.000Z</time>
      </trkpt>
      <trkpt lat="44.92482" lon="5.77744">
        <ele>927.20001220703</ele>
        <time>2026-07-05T09:43:20.000Z</time>
      </trkpt>
      <trkpt lat="44.92482" lon="5.77747">
        <ele>926.79998779297</ele>
        <time>2026-07-05T09:43:21.000Z</time>
      </trkpt>
      <trkpt lat="44.92482" lon="5.77746">
        <ele>926.40002441406</ele>
        <time>2026-07-05T09:43:22.000Z</time>
      </trkpt>
      <trkpt lat="44.92482" lon="5.77746">
        <ele>925.79998779297</ele>
        <time>2026-07-05T09:43:23.000Z</time>
      </trkpt>
      <trkpt lat="44.92482" lon="5.77747">
        <ele>925.59997558594</ele>
        <time>2026-07-05T09:43:24.000Z</time>
      </trkpt>
      <trkpt lat="44.92482" lon="5.77748">
        <ele>925.40002441406</ele>
        <time>2026-07-05T09:43:25.000Z</time>
      </trkpt>
      <trkpt lat="44.9248" lon="5.7775">
        <ele>925.20001220703</ele>
        <time>2026-07-05T09:43:26.000Z</time>
      </trkpt>
      <trkpt lat="44.92478" lon="5.77752">
        <ele>925.20001220703</ele>
        <time>2026-07-05T09:43:27.000Z</time>
      </trkpt>
      <trkpt lat="44.92476" lon="5.77752">
        <ele>925</ele>
        <time>2026-07-05T09:43:28.000Z</time>
      </trkpt>
      <trkpt lat="44.92473" lon="5.77752">
        <ele>925</ele>
        <time>2026-07-05T09:43:29.000Z</time>
      </trkpt>
      <trkpt lat="44.9247" lon="5.77753">
        <ele>925</ele>
        <time>2026-07-05T09:43:30.000Z</time>
      </trkpt>
      <trkpt lat="44.92469" lon="5.77753">
        <ele>925.20001220703</ele>
        <time>2026-07-05T09:43:31.000Z</time>
      </trkpt>
      <trkpt lat="44.92466" lon="5.77753">
        <ele>925.20001220703</ele>
        <time>2026-07-05T09:43:32.000Z</time>
      </trkpt>
      <trkpt lat="44.92464" lon="5.77752">
        <ele>925.59997558594</ele>
        <time>2026-07-05T09:43:33.000Z</time>
      </trkpt>
      <trkpt lat="44.92463" lon="5.77752">
        <ele>925.79998779297</ele>
        <time>2026-07-05T09:43:34.000Z</time>
      </trkpt>
      <trkpt lat="44.92461" lon="5.77752">
        <ele>926</ele>
        <time>2026-07-05T09:43:35.000Z</time>
      </trkpt>
      <trkpt lat="44.92461" lon="5.77752">
        <ele>926.20001220703</ele>
        <time>2026-07-05T09:43:36.000Z</time>
      </trkpt>
      <trkpt lat="44.9246" lon="5.77752">
        <ele>926.59997558594</ele>
        <time>2026-07-05T09:43:37.000Z</time>
      </trkpt>
      <trkpt lat="44.92459" lon="5.77751">
        <ele>927</ele>
        <time>2026-07-05T09:43:38.000Z</time>
      </trkpt>
      <trkpt lat="44.92458" lon="5.77751">
        <ele>927.40002441406</ele>
        <time>2026-07-05T09:43:39.000Z</time>
      </trkpt>
      <trkpt lat="44.92457" lon="5.7775">
        <ele>927.59997558594</ele>
        <time>2026-07-05T09:43:40.000Z</time>
      </trkpt>
      <trkpt lat="44.92456" lon="5.7775">
        <ele>927.79998779297</ele>
        <time>2026-07-05T09:43:41.000Z</time>
      </trkpt>
      <trkpt lat="44.92455" lon="5.7775">
        <ele>928.20001220703</ele>
        <time>2026-07-05T09:43:42.000Z</time>
      </trkpt>
      <trkpt lat="44.92455" lon="5.7775">
        <ele>928.59997558594</ele>
        <time>2026-07-05T09:43:43.000Z</time>
      </trkpt>
      <trkpt lat="44.92453" lon="5.77749">
        <ele>928.79998779297</ele>
        <time>2026-07-05T09:43:44.000Z</time>
      </trkpt>
      <trkpt lat="44.92453" lon="5.77749">
        <ele>929.20001220703</ele>
        <time>2026-07-05T09:43:45.000Z</time>
      </trkpt>
      <trkpt lat="44.92451" lon="5.7775">
        <ele>929.40002441406</ele>
        <time>2026-07-05T09:43:46.000Z</time>
      </trkpt>
      <trkpt lat="44.9245" lon="5.7775">
        <ele>929.59997558594</ele>
        <time>2026-07-05T09:43:47.000Z</time>
      </trkpt>
      <trkpt lat="44.92448" lon="5.7775">
        <ele>929.79998779297</ele>
        <time>2026-07-05T09:43:48.000Z</time>
      </trkpt>
      <trkpt lat="44.92447" lon="5.77749">
        <ele>930</ele>
        <time>2026-07-05T09:43:49.000Z</time>
      </trkpt>
      <trkpt lat="44.92446" lon="5.77749">
        <ele>930.20001220703</ele>
        <time>2026-07-05T09:43:50.000Z</time>
      </trkpt>
      <trkpt lat="44.92445" lon="5.77749">
        <ele>930.40002441406</ele>
        <time>2026-07-05T09:43:51.000Z</time>
      </trkpt>
      <trkpt lat="44.92444" lon="5.77749">
        <ele>930.59997558594</ele>
        <time>2026-07-05T09:43:52.000Z</time>
      </trkpt>
      <trkpt lat="44.92443" lon="5.77749">
        <ele>930.79998779297</ele>
        <time>2026-07-05T09:43:53.000Z</time>
      </trkpt>
      <trkpt lat="44.92442" lon="5.77749">
        <ele>931</ele>
        <time>2026-07-05T09:43:54.000Z</time>
      </trkpt>
      <trkpt lat="44.9244" lon="5.77749">
        <ele>931</ele>
        <time>2026-07-05T09:43:55.000Z</time>
      </trkpt>
      <trkpt lat="44.92439" lon="5.77749">
        <ele>931.20001220703</ele>
        <time>2026-07-05T09:43:56.000Z</time>
      </trkpt>
      <trkpt lat="44.92438" lon="5.77749">
        <ele>931.40002441406</ele>
        <time>2026-07-05T09:43:57.000Z</time>
      </trkpt>
      <trkpt lat="44.92437" lon="5.77749">
        <ele>931.40002441406</ele>
        <time>2026-07-05T09:43:58.000Z</time>
      </trkpt>
      <trkpt lat="44.92436" lon="5.77749">
        <ele>931.59997558594</ele>
        <time>2026-07-05T09:43:59.000Z</time>
      </trkpt>
      <trkpt lat="44.92434" lon="5.77749">
        <ele>931.59997558594</ele>
        <time>2026-07-05T09:44:00.000Z</time>
      </trkpt>
      <trkpt lat="44.92433" lon="5.77749">
        <ele>931.79998779297</ele>
        <time>2026-07-05T09:44:01.000Z</time>
      </trkpt>
      <trkpt lat="44.92432" lon="5.77748">
        <ele>931.79998779297</ele>
        <time>2026-07-05T09:44:02.000Z</time>
      </trkpt>
      <trkpt lat="44.9243" lon="5.77749">
        <ele>932</ele>
        <time>2026-07-05T09:44:03.000Z</time>
      </trkpt>
      <trkpt lat="44.92429" lon="5.77749">
        <ele>932</ele>
        <time>2026-07-05T09:44:04.000Z</time>
      </trkpt>
      <trkpt lat="44.92427" lon="5.77749">
        <ele>932.20001220703</ele>
        <time>2026-07-05T09:44:05.000Z</time>
      </trkpt>
      <trkpt lat="44.92426" lon="5.77749">
        <ele>932.20001220703</ele>
        <time>2026-07-05T09:44:06.000Z</time>
      </trkpt>
      <trkpt lat="44.92425" lon="5.77749">
        <ele>932.40002441406</ele>
        <time>2026-07-05T09:44:07.000Z</time>
      </trkpt>
      <trkpt lat="44.92423" lon="5.77749">
        <ele>932.59997558594</ele>
        <time>2026-07-05T09:44:08.000Z</time>
      </trkpt>
      <trkpt lat="44.92422" lon="5.77749">
        <ele>932.59997558594</ele>
        <time>2026-07-05T09:44:09.000Z</time>
      </trkpt>
      <trkpt lat="44.9242" lon="5.77749">
        <ele>932.79998779297</ele>
        <time>2026-07-05T09:44:10.000Z</time>
      </trkpt>
      <trkpt lat="44.92419" lon="5.77749">
        <ele>933</ele>
        <time>2026-07-05T09:44:11.000Z</time>
      </trkpt>
      <trkpt lat="44.92417" lon="5.7775">
        <ele>933</ele>
        <time>2026-07-05T09:44:12.000Z</time>
      </trkpt>
      <trkpt lat="44.92415" lon="5.7775">
        <ele>933.20001220703</ele>
        <time>2026-07-05T09:44:13.000Z</time>
      </trkpt>
      <trkpt lat="44.92414" lon="5.7775">
        <ele>933.40002441406</ele>
        <time>2026-07-05T09:44:14.000Z</time>
      </trkpt>
      <trkpt lat="44.92412" lon="5.77751">
        <ele>933.40002441406</ele>
        <time>2026-07-05T09:44:15.000Z</time>
      </trkpt>
      <trkpt lat="44.9241" lon="5.77751">
        <ele>933.20001220703</ele>
        <time>2026-07-05T09:44:16.000Z</time>
      </trkpt>
      <trkpt lat="44.92408" lon="5.77752">
        <ele>933.20001220703</ele>
        <time>2026-07-05T09:44:17.000Z</time>
      </trkpt>
      <trkpt lat="44.92406" lon="5.77752">
        <ele>933.20001220703</ele>
        <time>2026-07-05T09:44:18.000Z</time>
      </trkpt>
      <trkpt lat="44.92405" lon="5.77752">
        <ele>933</ele>
        <time>2026-07-05T09:44:19.000Z</time>
      </trkpt>
      <trkpt lat="44.92402" lon="5.77752">
        <ele>933</ele>
        <time>2026-07-05T09:44:20.000Z</time>
      </trkpt>
      <trkpt lat="44.924" lon="5.77752">
        <ele>933.20001220703</ele>
        <time>2026-07-05T09:44:21.000Z</time>
      </trkpt>
      <trkpt lat="44.92399" lon="5.77753">
        <ele>933</ele>
        <time>2026-07-05T09:44:22.000Z</time>
      </trkpt>
      <trkpt lat="44.92397" lon="5.77753">
        <ele>933</ele>
        <time>2026-07-05T09:44:23.000Z</time>
      </trkpt>
      <trkpt lat="44.92395" lon="5.77753">
        <ele>932.79998779297</ele>
        <time>2026-07-05T09:44:24.000Z</time>
      </trkpt>
      <trkpt lat="44.92392" lon="5.77754">
        <ele>932.59997558594</ele>
        <time>2026-07-05T09:44:25.000Z</time>
      </trkpt>
      <trkpt lat="44.9239" lon="5.77754">
        <ele>932.40002441406</ele>
        <time>2026-07-05T09:44:26.000Z</time>
      </trkpt>
      <trkpt lat="44.92387" lon="5.77755">
        <ele>932.40002441406</ele>
        <time>2026-07-05T09:44:27.000Z</time>
      </trkpt>
      <trkpt lat="44.92385" lon="5.77756">
        <ele>932.20001220703</ele>
        <time>2026-07-05T09:44:28.000Z</time>
      </trkpt>
      <trkpt lat="44.92383" lon="5.77758">
        <ele>932</ele>
        <time>2026-07-05T09:44:29.000Z</time>
      </trkpt>
      <trkpt lat="44.92381" lon="5.77759">
        <ele>931.79998779297</ele>
        <time>2026-07-05T09:44:30.000Z</time>
      </trkpt>
      <trkpt lat="44.92379" lon="5.77759">
        <ele>931.59997558594</ele>
        <time>2026-07-05T09:44:31.000Z</time>
      </trkpt>
      <trkpt lat="44.92377" lon="5.7776">
        <ele>931.59997558594</ele>
        <time>2026-07-05T09:44:32.000Z</time>
      </trkpt>
      <trkpt lat="44.92375" lon="5.77761">
        <ele>931.40002441406</ele>
        <time>2026-07-05T09:44:33.000Z</time>
      </trkpt>
      <trkpt lat="44.92372" lon="5.77762">
        <ele>931.20001220703</ele>
        <time>2026-07-05T09:44:34.000Z</time>
      </trkpt>
      <trkpt lat="44.9237" lon="5.77762">
        <ele>931.20001220703</ele>
        <time>2026-07-05T09:44:35.000Z</time>
      </trkpt>
      <trkpt lat="44.92368" lon="5.77762">
        <ele>931</ele>
        <time>2026-07-05T09:44:36.000Z</time>
      </trkpt>
      <trkpt lat="44.92365" lon="5.77762">
        <ele>930.79998779297</ele>
        <time>2026-07-05T09:44:37.000Z</time>
      </trkpt>
      <trkpt lat="44.92363" lon="5.77762">
        <ele>930.59997558594</ele>
        <time>2026-07-05T09:44:38.000Z</time>
      </trkpt>
      <trkpt lat="44.9236" lon="5.77761">
        <ele>930.59997558594</ele>
        <time>2026-07-05T09:44:39.000Z</time>
      </trkpt>
      <trkpt lat="44.92358" lon="5.77761">
        <ele>930.59997558594</ele>
        <time>2026-07-05T09:44:40.000Z</time>
      </trkpt>
      <trkpt lat="44.92356" lon="5.7776">
        <ele>930.59997558594</ele>
        <time>2026-07-05T09:44:41.000Z</time>
      </trkpt>
      <trkpt lat="44.92355" lon="5.7776">
        <ele>931</ele>
        <time>2026-07-05T09:44:42.000Z</time>
      </trkpt>
      <trkpt lat="44.92354" lon="5.77759">
        <ele>931.20001220703</ele>
        <time>2026-07-05T09:44:43.000Z</time>
      </trkpt>
      <trkpt lat="44.92352" lon="5.77758">
        <ele>931.40002441406</ele>
        <time>2026-07-05T09:44:44.000Z</time>
      </trkpt>
      <trkpt lat="44.9235" lon="5.77758">
        <ele>931.79998779297</ele>
        <time>2026-07-05T09:44:45.000Z</time>
      </trkpt>
      <trkpt lat="44.92348" lon="5.77757">
        <ele>932</ele>
        <time>2026-07-05T09:44:46.000Z</time>
      </trkpt>
      <trkpt lat="44.92346" lon="5.77756">
        <ele>932.40002441406</ele>
        <time>2026-07-05T09:44:47.000Z</time>
      </trkpt>
      <trkpt lat="44.92343" lon="5.77756">
        <ele>932.40002441406</ele>
        <time>2026-07-05T09:44:48.000Z</time>
      </trkpt>
      <trkpt lat="44.92341" lon="5.77755">
        <ele>932.40002441406</ele>
        <time>2026-07-05T09:44:49.000Z</time>
      </trkpt>
      <trkpt lat="44.92339" lon="5.77754">
        <ele>932.40002441406</ele>
        <time>2026-07-05T09:44:50.000Z</time>
      </trkpt>
      <trkpt lat="44.92337" lon="5.77753">
        <ele>932.40002441406</ele>
        <time>2026-07-05T09:44:51.000Z</time>
      </trkpt>
      <trkpt lat="44.92335" lon="5.77752">
        <ele>932.40002441406</ele>
        <time>2026-07-05T09:44:52.000Z</time>
      </trkpt>
      <trkpt lat="44.92333" lon="5.77751">
        <ele>932.40002441406</ele>
        <time>2026-07-05T09:44:53.000Z</time>
      </trkpt>
      <trkpt lat="44.9233" lon="5.7775">
        <ele>932.40002441406</ele>
        <time>2026-07-05T09:44:54.000Z</time>
      </trkpt>
      <trkpt lat="44.92328" lon="5.77749">
        <ele>932.40002441406</ele>
        <time>2026-07-05T09:44:55.000Z</time>
      </trkpt>
      <trkpt lat="44.92325" lon="5.77749">
        <ele>932.40002441406</ele>
        <time>2026-07-05T09:44:56.000Z</time>
      </trkpt>
      <trkpt lat="44.92322" lon="5.77748">
        <ele>932.40002441406</ele>
        <time>2026-07-05T09:44:57.000Z</time>
      </trkpt>
      <trkpt lat="44.9232" lon="5.77747">
        <ele>932.20001220703</ele>
        <time>2026-07-05T09:44:58.000Z</time>
      </trkpt>
      <trkpt lat="44.92317" lon="5.77746">
        <ele>932.20001220703</ele>
        <time>2026-07-05T09:44:59.000Z</time>
      </trkpt>
      <trkpt lat="44.92315" lon="5.77745">
        <ele>932</ele>
        <time>2026-07-05T09:45:00.000Z</time>
      </trkpt>
      <trkpt lat="44.92313" lon="5.77744">
        <ele>932</ele>
        <time>2026-07-05T09:45:01.000Z</time>
      </trkpt>
      <trkpt lat="44.92311" lon="5.77743">
        <ele>932</ele>
        <time>2026-07-05T09:45:02.000Z</time>
      </trkpt>
      <trkpt lat="44.92309" lon="5.77743">
        <ele>931.79998779297</ele>
        <time>2026-07-05T09:45:03.000Z</time>
      </trkpt>
      <trkpt lat="44.92306" lon="5.77743">
        <ele>931.79998779297</ele>
        <time>2026-07-05T09:45:04.000Z</time>
      </trkpt>
      <trkpt lat="44.92304" lon="5.77742">
        <ele>932</ele>
        <time>2026-07-05T09:45:05.000Z</time>
      </trkpt>
      <trkpt lat="44.92302" lon="5.77742">
        <ele>932</ele>
        <time>2026-07-05T09:45:06.000Z</time>
      </trkpt>
      <trkpt lat="44.923" lon="5.77742">
        <ele>932</ele>
        <time>2026-07-05T09:45:07.000Z</time>
      </trkpt>
      <trkpt lat="44.92298" lon="5.77741">
        <ele>932.20001220703</ele>
        <time>2026-07-05T09:45:08.000Z</time>
      </trkpt>
      <trkpt lat="44.92295" lon="5.77741">
        <ele>932.20001220703</ele>
        <time>2026-07-05T09:45:09.000Z</time>
      </trkpt>
      <trkpt lat="44.92293" lon="5.77741">
        <ele>932.20001220703</ele>
        <time>2026-07-05T09:45:10.000Z</time>
      </trkpt>
      <trkpt lat="44.92291" lon="5.77741">
        <ele>932.20001220703</ele>
        <time>2026-07-05T09:45:11.000Z</time>
      </trkpt>
      <trkpt lat="44.92288" lon="5.7774">
        <ele>932.20001220703</ele>
        <time>2026-07-05T09:45:12.000Z</time>
      </trkpt>
      <trkpt lat="44.92286" lon="5.77739">
        <ele>932.20001220703</ele>
        <time>2026-07-05T09:45:13.000Z</time>
      </trkpt>
      <trkpt lat="44.92284" lon="5.77739">
        <ele>932.20001220703</ele>
        <time>2026-07-05T09:45:14.000Z</time>
      </trkpt>
      <trkpt lat="44.92282" lon="5.77739">
        <ele>932</ele>
        <time>2026-07-05T09:45:15.000Z</time>
      </trkpt>
      <trkpt lat="44.92281" lon="5.77739">
        <ele>932</ele>
        <time>2026-07-05T09:45:16.000Z</time>
      </trkpt>
      <trkpt lat="44.92279" lon="5.77738">
        <ele>931.79998779297</ele>
        <time>2026-07-05T09:45:17.000Z</time>
      </trkpt>
      <trkpt lat="44.92278" lon="5.77737">
        <ele>931.40002441406</ele>
        <time>2026-07-05T09:45:18.000Z</time>
      </trkpt>
      <trkpt lat="44.92277" lon="5.77737">
        <ele>931.20001220703</ele>
        <time>2026-07-05T09:45:19.000Z</time>
      </trkpt>
      <trkpt lat="44.92276" lon="5.77737">
        <ele>930.59997558594</ele>
        <time>2026-07-05T09:45:20.000Z</time>
      </trkpt>
      <trkpt lat="44.92274" lon="5.77736">
        <ele>930.20001220703</ele>
        <time>2026-07-05T09:45:21.000Z</time>
      </trkpt>
      <trkpt lat="44.92274" lon="5.77736">
        <ele>929.59997558594</ele>
        <time>2026-07-05T09:45:22.000Z</time>
      </trkpt>
      <trkpt lat="44.92272" lon="5.77736">
        <ele>929</ele>
        <time>2026-07-05T09:45:23.000Z</time>
      </trkpt>
      <trkpt lat="44.92271" lon="5.77735">
        <ele>928.79998779297</ele>
        <time>2026-07-05T09:45:24.000Z</time>
      </trkpt>
      <trkpt lat="44.92269" lon="5.77734">
        <ele>928.20001220703</ele>
        <time>2026-07-05T09:45:25.000Z</time>
      </trkpt>
      <trkpt lat="44.92267" lon="5.77734">
        <ele>928</ele>
        <time>2026-07-05T09:45:26.000Z</time>
      </trkpt>
      <trkpt lat="44.92266" lon="5.77733">
        <ele>927.40002441406</ele>
        <time>2026-07-05T09:45:27.000Z</time>
      </trkpt>
      <trkpt lat="44.92264" lon="5.77732">
        <ele>927</ele>
        <time>2026-07-05T09:45:28.000Z</time>
      </trkpt>
      <trkpt lat="44.92262" lon="5.7773">
        <ele>926.20001220703</ele>
        <time>2026-07-05T09:45:29.000Z</time>
      </trkpt>
      <trkpt lat="44.9226" lon="5.77729">
        <ele>925.40002441406</ele>
        <time>2026-07-05T09:45:30.000Z</time>
      </trkpt>
      <trkpt lat="44.92259" lon="5.77728">
        <ele>925</ele>
        <time>2026-07-05T09:45:31.000Z</time>
      </trkpt>
      <trkpt lat="44.92258" lon="5.77727">
        <ele>925</ele>
        <time>2026-07-05T09:45:32.000Z</time>
      </trkpt>
      <trkpt lat="44.92256" lon="5.77724">
        <ele>924.79998779297</ele>
        <time>2026-07-05T09:45:33.000Z</time>
      </trkpt>
      <trkpt lat="44.92255" lon="5.77722">
        <ele>924.59997558594</ele>
        <time>2026-07-05T09:45:34.000Z</time>
      </trkpt>
      <trkpt lat="44.92255" lon="5.77719">
        <ele>924.59997558594</ele>
        <time>2026-07-05T09:45:35.000Z</time>
      </trkpt>
      <trkpt lat="44.92254" lon="5.77717">
        <ele>924.59997558594</ele>
        <time>2026-07-05T09:45:36.000Z</time>
      </trkpt>
      <trkpt lat="44.92253" lon="5.77715">
        <ele>924.79998779297</ele>
        <time>2026-07-05T09:45:37.000Z</time>
      </trkpt>
      <trkpt lat="44.92252" lon="5.77713">
        <ele>924.79998779297</ele>
        <time>2026-07-05T09:45:38.000Z</time>
      </trkpt>
      <trkpt lat="44.92251" lon="5.77712">
        <ele>925</ele>
        <time>2026-07-05T09:45:39.000Z</time>
      </trkpt>
      <trkpt lat="44.9225" lon="5.77711">
        <ele>925</ele>
        <time>2026-07-05T09:45:40.000Z</time>
      </trkpt>
      <trkpt lat="44.92248" lon="5.7771">
        <ele>924.79998779297</ele>
        <time>2026-07-05T09:45:41.000Z</time>
      </trkpt>
      <trkpt lat="44.92247" lon="5.77709">
        <ele>924.59997558594</ele>
        <time>2026-07-05T09:45:42.000Z</time>
      </trkpt>
      <trkpt lat="44.92245" lon="5.77708">
        <ele>924</ele>
        <time>2026-07-05T09:45:43.000Z</time>
      </trkpt>
      <trkpt lat="44.92244" lon="5.77707">
        <ele>923.79998779297</ele>
        <time>2026-07-05T09:45:44.000Z</time>
      </trkpt>
      <trkpt lat="44.92244" lon="5.77706">
        <ele>923</ele>
        <time>2026-07-05T09:45:45.000Z</time>
      </trkpt>
      <trkpt lat="44.92243" lon="5.77705">
        <ele>922.20001220703</ele>
        <time>2026-07-05T09:45:46.000Z</time>
      </trkpt>
      <trkpt lat="44.92242" lon="5.77705">
        <ele>921.40002441406</ele>
        <time>2026-07-05T09:45:47.000Z</time>
      </trkpt>
      <trkpt lat="44.92242" lon="5.77705">
        <ele>920.79998779297</ele>
        <time>2026-07-05T09:45:48.000Z</time>
      </trkpt>
      <trkpt lat="44.92242" lon="5.77706">
        <ele>920.40002441406</ele>
        <time>2026-07-05T09:45:49.000Z</time>
      </trkpt>
      <trkpt lat="44.92243" lon="5.77707">
        <ele>920</ele>
        <time>2026-07-05T09:45:50.000Z</time>
      </trkpt>
      <trkpt lat="44.92243" lon="5.77708">
        <ele>919.59997558594</ele>
        <time>2026-07-05T09:45:51.000Z</time>
      </trkpt>
      <trkpt lat="44.92243" lon="5.77708">
        <ele>919.20001220703</ele>
        <time>2026-07-05T09:45:52.000Z</time>
      </trkpt>
      <trkpt lat="44.92243" lon="5.77709">
        <ele>918.79998779297</ele>
        <time>2026-07-05T09:45:53.000Z</time>
      </trkpt>
      <trkpt lat="44.92244" lon="5.77709">
        <ele>918.59997558594</ele>
        <time>2026-07-05T09:45:54.000Z</time>
      </trkpt>
      <trkpt lat="44.92244" lon="5.7771">
        <ele>918.40002441406</ele>
        <time>2026-07-05T09:45:55.000Z</time>
      </trkpt>
      <trkpt lat="44.92244" lon="5.77711">
        <ele>918.20001220703</ele>
        <time>2026-07-05T09:45:56.000Z</time>
      </trkpt>
      <trkpt lat="44.92244" lon="5.77713">
        <ele>917.79998779297</ele>
        <time>2026-07-05T09:45:57.000Z</time>
      </trkpt>
      <trkpt lat="44.92244" lon="5.77715">
        <ele>917.20001220703</ele>
        <time>2026-07-05T09:45:58.000Z</time>
      </trkpt>
      <trkpt lat="44.92244" lon="5.77716">
        <ele>916.40002441406</ele>
        <time>2026-07-05T09:45:59.000Z</time>
      </trkpt>
      <trkpt lat="44.92244" lon="5.77719">
        <ele>915.79998779297</ele>
        <time>2026-07-05T09:46:00.000Z</time>
      </trkpt>
      <trkpt lat="44.92244" lon="5.77722">
        <ele>915.20001220703</ele>
        <time>2026-07-05T09:46:01.000Z</time>
      </trkpt>
      <trkpt lat="44.92244" lon="5.77724">
        <ele>915.20001220703</ele>
        <time>2026-07-05T09:46:02.000Z</time>
      </trkpt>
      <trkpt lat="44.92244" lon="5.77725">
        <ele>914</ele>
        <time>2026-07-05T09:46:03.000Z</time>
      </trkpt>
      <trkpt lat="44.92245" lon="5.77728">
        <ele>913.20001220703</ele>
        <time>2026-07-05T09:46:04.000Z</time>
      </trkpt>
      <trkpt lat="44.92245" lon="5.7773">
        <ele>913</ele>
        <time>2026-07-05T09:46:05.000Z</time>
      </trkpt>
      <trkpt lat="44.92245" lon="5.77734">
        <ele>912.59997558594</ele>
        <time>2026-07-05T09:46:06.000Z</time>
      </trkpt>
      <trkpt lat="44.92246" lon="5.77737">
        <ele>912.40002441406</ele>
        <time>2026-07-05T09:46:07.000Z</time>
      </trkpt>
      <trkpt lat="44.92246" lon="5.77741">
        <ele>912.20001220703</ele>
        <time>2026-07-05T09:46:08.000Z</time>
      </trkpt>
      <trkpt lat="44.92247" lon="5.77744">
        <ele>911.59997558594</ele>
        <time>2026-07-05T09:46:09.000Z</time>
      </trkpt>
      <trkpt lat="44.92248" lon="5.77748">
        <ele>911.40002441406</ele>
        <time>2026-07-05T09:46:10.000Z</time>
      </trkpt>
      <trkpt lat="44.92249" lon="5.77751">
        <ele>911</ele>
        <time>2026-07-05T09:46:11.000Z</time>
      </trkpt>
      <trkpt lat="44.9225" lon="5.77753">
        <ele>911</ele>
        <time>2026-07-05T09:46:12.000Z</time>
      </trkpt>
      <trkpt lat="44.92252" lon="5.77755">
        <ele>911</ele>
        <time>2026-07-05T09:46:13.000Z</time>
      </trkpt>
      <trkpt lat="44.92253" lon="5.77757">
        <ele>911</ele>
        <time>2026-07-05T09:46:14.000Z</time>
      </trkpt>
      <trkpt lat="44.92255" lon="5.77759">
        <ele>911.20001220703</ele>
        <time>2026-07-05T09:46:15.000Z</time>
      </trkpt>
      <trkpt lat="44.92257" lon="5.77761">
        <ele>911.20001220703</ele>
        <time>2026-07-05T09:46:16.000Z</time>
      </trkpt>
      <trkpt lat="44.92259" lon="5.77763">
        <ele>911.20001220703</ele>
        <time>2026-07-05T09:46:17.000Z</time>
      </trkpt>
      <trkpt lat="44.92261" lon="5.77766">
        <ele>911.40002441406</ele>
        <time>2026-07-05T09:46:18.000Z</time>
      </trkpt>
      <trkpt lat="44.92263" lon="5.77767">
        <ele>911.40002441406</ele>
        <time>2026-07-05T09:46:19.000Z</time>
      </trkpt>
      <trkpt lat="44.92265" lon="5.77769">
        <ele>911.20001220703</ele>
        <time>2026-07-05T09:46:20.000Z</time>
      </trkpt>
      <trkpt lat="44.92267" lon="5.7777">
        <ele>911.20001220703</ele>
        <time>2026-07-05T09:46:21.000Z</time>
      </trkpt>
      <trkpt lat="44.9227" lon="5.77772">
        <ele>911</ele>
        <time>2026-07-05T09:46:22.000Z</time>
      </trkpt>
      <trkpt lat="44.92272" lon="5.77774">
        <ele>910.79998779297</ele>
        <time>2026-07-05T09:46:23.000Z</time>
      </trkpt>
      <trkpt lat="44.92274" lon="5.77775">
        <ele>910.79998779297</ele>
        <time>2026-07-05T09:46:24.000Z</time>
      </trkpt>
      <trkpt lat="44.92277" lon="5.77777">
        <ele>910.79998779297</ele>
        <time>2026-07-05T09:46:25.000Z</time>
      </trkpt>
      <trkpt lat="44.92279" lon="5.77778">
        <ele>910.79998779297</ele>
        <time>2026-07-05T09:46:26.000Z</time>
      </trkpt>
      <trkpt lat="44.92281" lon="5.77779">
        <ele>910.79998779297</ele>
        <time>2026-07-05T09:46:27.000Z</time>
      </trkpt>
      <trkpt lat="44.92284" lon="5.7778">
        <ele>910.79998779297</ele>
        <time>2026-07-05T09:46:28.000Z</time>
      </trkpt>
      <trkpt lat="44.92287" lon="5.77781">
        <ele>911</ele>
        <time>2026-07-05T09:46:29.000Z</time>
      </trkpt>
      <trkpt lat="44.9229" lon="5.77782">
        <ele>911</ele>
        <time>2026-07-05T09:46:30.000Z</time>
      </trkpt>
      <trkpt lat="44.92292" lon="5.77783">
        <ele>910.79998779297</ele>
        <time>2026-07-05T09:46:31.000Z</time>
      </trkpt>
      <trkpt lat="44.92295" lon="5.77783">
        <ele>910.79998779297</ele>
        <time>2026-07-05T09:46:32.000Z</time>
      </trkpt>
      <trkpt lat="44.92297" lon="5.77783">
        <ele>911</ele>
        <time>2026-07-05T09:46:33.000Z</time>
      </trkpt>
      <trkpt lat="44.923" lon="5.77783">
        <ele>911</ele>
        <time>2026-07-05T09:46:34.000Z</time>
      </trkpt>
      <trkpt lat="44.92302" lon="5.77783">
        <ele>911</ele>
        <time>2026-07-05T09:46:35.000Z</time>
      </trkpt>
      <trkpt lat="44.92304" lon="5.77783">
        <ele>911</ele>
        <time>2026-07-05T09:46:36.000Z</time>
      </trkpt>
      <trkpt lat="44.92307" lon="5.77784">
        <ele>911</ele>
        <time>2026-07-05T09:46:37.000Z</time>
      </trkpt>
      <trkpt lat="44.92309" lon="5.77784">
        <ele>911</ele>
        <time>2026-07-05T09:46:38.000Z</time>
      </trkpt>
      <trkpt lat="44.92312" lon="5.77785">
        <ele>911</ele>
        <time>2026-07-05T09:46:39.000Z</time>
      </trkpt>
      <trkpt lat="44.92315" lon="5.77786">
        <ele>911.20001220703</ele>
        <time>2026-07-05T09:46:40.000Z</time>
      </trkpt>
      <trkpt lat="44.92318" lon="5.77786">
        <ele>911.40002441406</ele>
        <time>2026-07-05T09:46:41.000Z</time>
      </trkpt>
      <trkpt lat="44.9232" lon="5.77787">
        <ele>911.40002441406</ele>
        <time>2026-07-05T09:46:42.000Z</time>
      </trkpt>
      <trkpt lat="44.92323" lon="5.77788">
        <ele>911.40002441406</ele>
        <time>2026-07-05T09:46:43.000Z</time>
      </trkpt>
      <trkpt lat="44.92326" lon="5.77789">
        <ele>911.40002441406</ele>
        <time>2026-07-05T09:46:44.000Z</time>
      </trkpt>
      <trkpt lat="44.92329" lon="5.77789">
        <ele>911.40002441406</ele>
        <time>2026-07-05T09:46:45.000Z</time>
      </trkpt>
      <trkpt lat="44.92331" lon="5.7779">
        <ele>911</ele>
        <time>2026-07-05T09:46:46.000Z</time>
      </trkpt>
      <trkpt lat="44.92334" lon="5.77793">
        <ele>911</ele>
        <time>2026-07-05T09:46:47.000Z</time>
      </trkpt>
      <trkpt lat="44.92335" lon="5.77797">
        <ele>911</ele>
        <time>2026-07-05T09:46:48.000Z</time>
      </trkpt>
      <trkpt lat="44.92337" lon="5.77802">
        <ele>910.79998779297</ele>
        <time>2026-07-05T09:46:49.000Z</time>
      </trkpt>
      <trkpt lat="44.92337" lon="5.77805">
        <ele>910.59997558594</ele>
        <time>2026-07-05T09:46:50.000Z</time>
      </trkpt>
      <trkpt lat="44.92337" lon="5.77807">
        <ele>910.59997558594</ele>
        <time>2026-07-05T09:46:51.000Z</time>
      </trkpt>
      <trkpt lat="44.92337" lon="5.77809">
        <ele>910.40002441406</ele>
        <time>2026-07-05T09:46:52.000Z</time>
      </trkpt>
      <trkpt lat="44.92337" lon="5.77811">
        <ele>910.20001220703</ele>
        <time>2026-07-05T09:46:53.000Z</time>
      </trkpt>
      <trkpt lat="44.92336" lon="5.77814">
        <ele>910</ele>
        <time>2026-07-05T09:46:54.000Z</time>
      </trkpt>
      <trkpt lat="44.92335" lon="5.77817">
        <ele>909.79998779297</ele>
        <time>2026-07-05T09:46:55.000Z</time>
      </trkpt>
      <trkpt lat="44.92333" lon="5.77819">
        <ele>909.59997558594</ele>
        <time>2026-07-05T09:46:56.000Z</time>
      </trkpt>
      <trkpt lat="44.92332" lon="5.77822">
        <ele>909.20001220703</ele>
        <time>2026-07-05T09:46:57.000Z</time>
      </trkpt>
      <trkpt lat="44.9233" lon="5.77822">
        <ele>908.79998779297</ele>
        <time>2026-07-05T09:46:58.000Z</time>
      </trkpt>
      <trkpt lat="44.92328" lon="5.77822">
        <ele>907.40002441406</ele>
        <time>2026-07-05T09:46:59.000Z</time>
      </trkpt>
      <trkpt lat="44.92327" lon="5.77821">
        <ele>907.20001220703</ele>
        <time>2026-07-05T09:47:00.000Z</time>
      </trkpt>
      <trkpt lat="44.92324" lon="5.77821">
        <ele>906.20001220703</ele>
        <time>2026-07-05T09:47:01.000Z</time>
      </trkpt>
      <trkpt lat="44.92322" lon="5.7782">
        <ele>905.79998779297</ele>
        <time>2026-07-05T09:47:02.000Z</time>
      </trkpt>
      <trkpt lat="44.9232" lon="5.7782">
        <ele>904.40002441406</ele>
        <time>2026-07-05T09:47:03.000Z</time>
      </trkpt>
      <trkpt lat="44.92317" lon="5.7782">
        <ele>903.20001220703</ele>
        <time>2026-07-05T09:47:04.000Z</time>
      </trkpt>
      <trkpt lat="44.92315" lon="5.7782">
        <ele>902.59997558594</ele>
        <time>2026-07-05T09:47:05.000Z</time>
      </trkpt>
      <trkpt lat="44.92313" lon="5.77821">
        <ele>901.79998779297</ele>
        <time>2026-07-05T09:47:06.000Z</time>
      </trkpt>
      <trkpt lat="44.9231" lon="5.77821">
        <ele>901</ele>
        <time>2026-07-05T09:47:07.000Z</time>
      </trkpt>
      <trkpt lat="44.92307" lon="5.77821">
        <ele>900.20001220703</ele>
        <time>2026-07-05T09:47:08.000Z</time>
      </trkpt>
      <trkpt lat="44.92305" lon="5.77822">
        <ele>899.59997558594</ele>
        <time>2026-07-05T09:47:09.000Z</time>
      </trkpt>
      <trkpt lat="44.92303" lon="5.77824">
        <ele>899.40002441406</ele>
        <time>2026-07-05T09:47:10.000Z</time>
      </trkpt>
      <trkpt lat="44.92302" lon="5.77826">
        <ele>899.40002441406</ele>
        <time>2026-07-05T09:47:11.000Z</time>
      </trkpt>
      <trkpt lat="44.92302" lon="5.77828">
        <ele>899.40002441406</ele>
        <time>2026-07-05T09:47:12.000Z</time>
      </trkpt>
      <trkpt lat="44.92303" lon="5.77831">
        <ele>899.40002441406</ele>
        <time>2026-07-05T09:47:13.000Z</time>
      </trkpt>
      <trkpt lat="44.92303" lon="5.77834">
        <ele>899.59997558594</ele>
        <time>2026-07-05T09:47:14.000Z</time>
      </trkpt>
      <trkpt lat="44.92304" lon="5.77837">
        <ele>899.79998779297</ele>
        <time>2026-07-05T09:47:15.000Z</time>
      </trkpt>
      <trkpt lat="44.92305" lon="5.77841">
        <ele>899.79998779297</ele>
        <time>2026-07-05T09:47:16.000Z</time>
      </trkpt>
      <trkpt lat="44.92305" lon="5.77845">
        <ele>900</ele>
        <time>2026-07-05T09:47:17.000Z</time>
      </trkpt>
      <trkpt lat="44.92305" lon="5.77848">
        <ele>900</ele>
        <time>2026-07-05T09:47:18.000Z</time>
      </trkpt>
      <trkpt lat="44.92305" lon="5.77851">
        <ele>900</ele>
        <time>2026-07-05T09:47:19.000Z</time>
      </trkpt>
      <trkpt lat="44.92305" lon="5.77854">
        <ele>899.79998779297</ele>
        <time>2026-07-05T09:47:20.000Z</time>
      </trkpt>
      <trkpt lat="44.92304" lon="5.77858">
        <ele>899.59997558594</ele>
        <time>2026-07-05T09:47:21.000Z</time>
      </trkpt>
      <trkpt lat="44.92303" lon="5.7786">
        <ele>899.20001220703</ele>
        <time>2026-07-05T09:47:22.000Z</time>
      </trkpt>
      <trkpt lat="44.92301" lon="5.77862">
        <ele>898.59997558594</ele>
        <time>2026-07-05T09:47:23.000Z</time>
      </trkpt>
      <trkpt lat="44.92298" lon="5.77864">
        <ele>898.20001220703</ele>
        <time>2026-07-05T09:47:24.000Z</time>
      </trkpt>
      <trkpt lat="44.92294" lon="5.77866">
        <ele>898</ele>
        <time>2026-07-05T09:47:25.000Z</time>
      </trkpt>
      <trkpt lat="44.9229" lon="5.77867">
        <ele>897.79998779297</ele>
        <time>2026-07-05T09:47:26.000Z</time>
      </trkpt>
      <trkpt lat="44.92287" lon="5.77869">
        <ele>897.79998779297</ele>
        <time>2026-07-05T09:47:27.000Z</time>
      </trkpt>
      <trkpt lat="44.92284" lon="5.7787">
        <ele>898.20001220703</ele>
        <time>2026-07-05T09:47:28.000Z</time>
      </trkpt>
      <trkpt lat="44.92281" lon="5.77871">
        <ele>898.59997558594</ele>
        <time>2026-07-05T09:47:29.000Z</time>
      </trkpt>
      <trkpt lat="44.92278" lon="5.77873">
        <ele>898.79998779297</ele>
        <time>2026-07-05T09:47:30.000Z</time>
      </trkpt>
      <trkpt lat="44.92276" lon="5.77874">
        <ele>898.79998779297</ele>
        <time>2026-07-05T09:47:31.000Z</time>
      </trkpt>
      <trkpt lat="44.92273" lon="5.77875">
        <ele>898.59997558594</ele>
        <time>2026-07-05T09:47:32.000Z</time>
      </trkpt>
      <trkpt lat="44.92271" lon="5.77876">
        <ele>898.59997558594</ele>
        <time>2026-07-05T09:47:33.000Z</time>
      </trkpt>
      <trkpt lat="44.92268" lon="5.77877">
        <ele>898.40002441406</ele>
        <time>2026-07-05T09:47:34.000Z</time>
      </trkpt>
      <trkpt lat="44.92265" lon="5.77878">
        <ele>898.20001220703</ele>
        <time>2026-07-05T09:47:35.000Z</time>
      </trkpt>
      <trkpt lat="44.92262" lon="5.77878">
        <ele>898.20001220703</ele>
        <time>2026-07-05T09:47:36.000Z</time>
      </trkpt>
      <trkpt lat="44.9226" lon="5.7788">
        <ele>898.20001220703</ele>
        <time>2026-07-05T09:47:37.000Z</time>
      </trkpt>
      <trkpt lat="44.92258" lon="5.77881">
        <ele>898</ele>
        <time>2026-07-05T09:47:38.000Z</time>
      </trkpt>
      <trkpt lat="44.92256" lon="5.77882">
        <ele>898</ele>
        <time>2026-07-05T09:47:39.000Z</time>
      </trkpt>
      <trkpt lat="44.92254" lon="5.77883">
        <ele>898</ele>
        <time>2026-07-05T09:47:40.000Z</time>
      </trkpt>
      <trkpt lat="44.92251" lon="5.77883">
        <ele>898</ele>
        <time>2026-07-05T09:47:41.000Z</time>
      </trkpt>
      <trkpt lat="44.92249" lon="5.77883">
        <ele>897.79998779297</ele>
        <time>2026-07-05T09:47:42.000Z</time>
      </trkpt>
      <trkpt lat="44.92246" lon="5.77884">
        <ele>897.79998779297</ele>
        <time>2026-07-05T09:47:43.000Z</time>
      </trkpt>
      <trkpt lat="44.92244" lon="5.77885">
        <ele>898</ele>
        <time>2026-07-05T09:47:44.000Z</time>
      </trkpt>
      <trkpt lat="44.92241" lon="5.77885">
        <ele>898</ele>
        <time>2026-07-05T09:47:45.000Z</time>
      </trkpt>
      <trkpt lat="44.92239" lon="5.77886">
        <ele>898</ele>
        <time>2026-07-05T09:47:46.000Z</time>
      </trkpt>
      <trkpt lat="44.92237" lon="5.77886">
        <ele>898</ele>
        <time>2026-07-05T09:47:47.000Z</time>
      </trkpt>
      <trkpt lat="44.92234" lon="5.77887">
        <ele>898</ele>
        <time>2026-07-05T09:47:48.000Z</time>
      </trkpt>
      <trkpt lat="44.92232" lon="5.77888">
        <ele>898</ele>
        <time>2026-07-05T09:47:49.000Z</time>
      </trkpt>
      <trkpt lat="44.92229" lon="5.77888">
        <ele>898</ele>
        <time>2026-07-05T09:47:50.000Z</time>
      </trkpt>
      <trkpt lat="44.92227" lon="5.77889">
        <ele>898</ele>
        <time>2026-07-05T09:47:51.000Z</time>
      </trkpt>
      <trkpt lat="44.92224" lon="5.77889">
        <ele>898</ele>
        <time>2026-07-05T09:47:52.000Z</time>
      </trkpt>
      <trkpt lat="44.92222" lon="5.7789">
        <ele>898</ele>
        <time>2026-07-05T09:47:53.000Z</time>
      </trkpt>
      <trkpt lat="44.92219" lon="5.7789">
        <ele>898</ele>
        <time>2026-07-05T09:47:54.000Z</time>
      </trkpt>
      <trkpt lat="44.92217" lon="5.77891">
        <ele>898</ele>
        <time>2026-07-05T09:47:55.000Z</time>
      </trkpt>
      <trkpt lat="44.92214" lon="5.77892">
        <ele>898</ele>
        <time>2026-07-05T09:47:56.000Z</time>
      </trkpt>
      <trkpt lat="44.92212" lon="5.77893">
        <ele>898</ele>
        <time>2026-07-05T09:47:57.000Z</time>
      </trkpt>
      <trkpt lat="44.92209" lon="5.77894">
        <ele>898</ele>
        <time>2026-07-05T09:47:58.000Z</time>
      </trkpt>
      <trkpt lat="44.92206" lon="5.77895">
        <ele>898</ele>
        <time>2026-07-05T09:47:59.000Z</time>
      </trkpt>
      <trkpt lat="44.92204" lon="5.77896">
        <ele>897.79998779297</ele>
        <time>2026-07-05T09:48:00.000Z</time>
      </trkpt>
      <trkpt lat="44.92201" lon="5.77897">
        <ele>897.79998779297</ele>
        <time>2026-07-05T09:48:01.000Z</time>
      </trkpt>
      <trkpt lat="44.92198" lon="5.77897">
        <ele>897.79998779297</ele>
        <time>2026-07-05T09:48:02.000Z</time>
      </trkpt>
      <trkpt lat="44.92195" lon="5.77898">
        <ele>897.79998779297</ele>
        <time>2026-07-05T09:48:03.000Z</time>
      </trkpt>
      <trkpt lat="44.92193" lon="5.77898">
        <ele>897.59997558594</ele>
        <time>2026-07-05T09:48:04.000Z</time>
      </trkpt>
      <trkpt lat="44.9219" lon="5.77899">
        <ele>897.59997558594</ele>
        <time>2026-07-05T09:48:05.000Z</time>
      </trkpt>
      <trkpt lat="44.92187" lon="5.77899">
        <ele>897.59997558594</ele>
        <time>2026-07-05T09:48:06.000Z</time>
      </trkpt>
      <trkpt lat="44.92185" lon="5.779">
        <ele>897.59997558594</ele>
        <time>2026-07-05T09:48:07.000Z</time>
      </trkpt>
      <trkpt lat="44.92182" lon="5.77901">
        <ele>897.40002441406</ele>
        <time>2026-07-05T09:48:08.000Z</time>
      </trkpt>
      <trkpt lat="44.9218" lon="5.77901">
        <ele>897.40002441406</ele>
        <time>2026-07-05T09:48:09.000Z</time>
      </trkpt>
      <trkpt lat="44.92177" lon="5.77902">
        <ele>897.40002441406</ele>
        <time>2026-07-05T09:48:10.000Z</time>
      </trkpt>
      <trkpt lat="44.92174" lon="5.77902">
        <ele>897.40002441406</ele>
        <time>2026-07-05T09:48:11.000Z</time>
      </trkpt>
      <trkpt lat="44.92172" lon="5.77903">
        <ele>897.20001220703</ele>
        <time>2026-07-05T09:48:12.000Z</time>
      </trkpt>
      <trkpt lat="44.92169" lon="5.77903">
        <ele>897.20001220703</ele>
        <time>2026-07-05T09:48:13.000Z</time>
      </trkpt>
      <trkpt lat="44.92167" lon="5.77904">
        <ele>897</ele>
        <time>2026-07-05T09:48:14.000Z</time>
      </trkpt>
      <trkpt lat="44.92164" lon="5.77904">
        <ele>897</ele>
        <time>2026-07-05T09:48:15.000Z</time>
      </trkpt>
      <trkpt lat="44.92162" lon="5.77904">
        <ele>897</ele>
        <time>2026-07-05T09:48:16.000Z</time>
      </trkpt>
      <trkpt lat="44.92159" lon="5.77905">
        <ele>897</ele>
        <time>2026-07-05T09:48:17.000Z</time>
      </trkpt>
      <trkpt lat="44.92157" lon="5.77906">
        <ele>897</ele>
        <time>2026-07-05T09:48:18.000Z</time>
      </trkpt>
      <trkpt lat="44.92155" lon="5.77907">
        <ele>897</ele>
        <time>2026-07-05T09:48:19.000Z</time>
      </trkpt>
      <trkpt lat="44.92153" lon="5.77907">
        <ele>897.20001220703</ele>
        <time>2026-07-05T09:48:20.000Z</time>
      </trkpt>
      <trkpt lat="44.9215" lon="5.77908">
        <ele>897.20001220703</ele>
        <time>2026-07-05T09:48:21.000Z</time>
      </trkpt>
      <trkpt lat="44.92147" lon="5.77908">
        <ele>897.20001220703</ele>
        <time>2026-07-05T09:48:22.000Z</time>
      </trkpt>
      <trkpt lat="44.92145" lon="5.77909">
        <ele>897.20001220703</ele>
        <time>2026-07-05T09:48:23.000Z</time>
      </trkpt>
      <trkpt lat="44.92142" lon="5.77909">
        <ele>897.20001220703</ele>
        <time>2026-07-05T09:48:24.000Z</time>
      </trkpt>
      <trkpt lat="44.92139" lon="5.7791">
        <ele>897.20001220703</ele>
        <time>2026-07-05T09:48:25.000Z</time>
      </trkpt>
      <trkpt lat="44.92137" lon="5.77911">
        <ele>897</ele>
        <time>2026-07-05T09:48:26.000Z</time>
      </trkpt>
      <trkpt lat="44.92134" lon="5.77911">
        <ele>897</ele>
        <time>2026-07-05T09:48:27.000Z</time>
      </trkpt>
      <trkpt lat="44.92131" lon="5.77912">
        <ele>897</ele>
        <time>2026-07-05T09:48:28.000Z</time>
      </trkpt>
      <trkpt lat="44.92129" lon="5.77912">
        <ele>896.79998779297</ele>
        <time>2026-07-05T09:48:29.000Z</time>
      </trkpt>
      <trkpt lat="44.92126" lon="5.77913">
        <ele>896.79998779297</ele>
        <time>2026-07-05T09:48:30.000Z</time>
      </trkpt>
      <trkpt lat="44.92124" lon="5.77914">
        <ele>896.79998779297</ele>
        <time>2026-07-05T09:48:31.000Z</time>
      </trkpt>
      <trkpt lat="44.92122" lon="5.77915">
        <ele>896.59997558594</ele>
        <time>2026-07-05T09:48:32.000Z</time>
      </trkpt>
      <trkpt lat="44.92119" lon="5.77916">
        <ele>896.59997558594</ele>
        <time>2026-07-05T09:48:33.000Z</time>
      </trkpt>
      <trkpt lat="44.92117" lon="5.77916">
        <ele>896.79998779297</ele>
        <time>2026-07-05T09:48:34.000Z</time>
      </trkpt>
      <trkpt lat="44.92114" lon="5.77916">
        <ele>896.59997558594</ele>
        <time>2026-07-05T09:48:35.000Z</time>
      </trkpt>
      <trkpt lat="44.92111" lon="5.77913">
        <ele>896.59997558594</ele>
        <time>2026-07-05T09:48:36.000Z</time>
      </trkpt>
      <trkpt lat="44.9211" lon="5.77912">
        <ele>896.40002441406</ele>
        <time>2026-07-05T09:48:37.000Z</time>
      </trkpt>
      <trkpt lat="44.92108" lon="5.7791">
        <ele>896.40002441406</ele>
        <time>2026-07-05T09:48:38.000Z</time>
      </trkpt>
      <trkpt lat="44.92107" lon="5.77907">
        <ele>896.59997558594</ele>
        <time>2026-07-05T09:48:39.000Z</time>
      </trkpt>
      <trkpt lat="44.92106" lon="5.77905">
        <ele>896.79998779297</ele>
        <time>2026-07-05T09:48:40.000Z</time>
      </trkpt>
      <trkpt lat="44.92106" lon="5.77902">
        <ele>897.20001220703</ele>
        <time>2026-07-05T09:48:41.000Z</time>
      </trkpt>
      <trkpt lat="44.92106" lon="5.77899">
        <ele>897.59997558594</ele>
        <time>2026-07-05T09:48:42.000Z</time>
      </trkpt>
      <trkpt lat="44.92106" lon="5.77896">
        <ele>897.79998779297</ele>
        <time>2026-07-05T09:48:43.000Z</time>
      </trkpt>
      <trkpt lat="44.92105" lon="5.77893">
        <ele>897.79998779297</ele>
        <time>2026-07-05T09:48:44.000Z</time>
      </trkpt>
      <trkpt lat="44.92104" lon="5.77891">
        <ele>897.79998779297</ele>
        <time>2026-07-05T09:48:45.000Z</time>
      </trkpt>
      <trkpt lat="44.92103" lon="5.77889">
        <ele>897.59997558594</ele>
        <time>2026-07-05T09:48:46.000Z</time>
      </trkpt>
      <trkpt lat="44.92101" lon="5.77887">
        <ele>897.59997558594</ele>
        <time>2026-07-05T09:48:47.000Z</time>
      </trkpt>
      <trkpt lat="44.921" lon="5.77885">
        <ele>897.59997558594</ele>
        <time>2026-07-05T09:48:48.000Z</time>
      </trkpt>
      <trkpt lat="44.92099" lon="5.77883">
        <ele>897.59997558594</ele>
        <time>2026-07-05T09:48:49.000Z</time>
      </trkpt>
      <trkpt lat="44.92098" lon="5.77881">
        <ele>897.79998779297</ele>
        <time>2026-07-05T09:48:50.000Z</time>
      </trkpt>
      <trkpt lat="44.92097" lon="5.77879">
        <ele>897.79998779297</ele>
        <time>2026-07-05T09:48:51.000Z</time>
      </trkpt>
      <trkpt lat="44.92096" lon="5.77877">
        <ele>897.79998779297</ele>
        <time>2026-07-05T09:48:52.000Z</time>
      </trkpt>
      <trkpt lat="44.92096" lon="5.77876">
        <ele>897.79998779297</ele>
        <time>2026-07-05T09:48:53.000Z</time>
      </trkpt>
      <trkpt lat="44.92095" lon="5.77875">
        <ele>898</ele>
        <time>2026-07-05T09:48:54.000Z</time>
      </trkpt>
      <trkpt lat="44.92095" lon="5.77874">
        <ele>898</ele>
        <time>2026-07-05T09:48:55.000Z</time>
      </trkpt>
      <trkpt lat="44.92094" lon="5.77874">
        <ele>898.20001220703</ele>
        <time>2026-07-05T09:48:56.000Z</time>
      </trkpt>
      <trkpt lat="44.92093" lon="5.77873">
        <ele>898.40002441406</ele>
        <time>2026-07-05T09:48:57.000Z</time>
      </trkpt>
      <trkpt lat="44.92093" lon="5.77872">
        <ele>898.79998779297</ele>
        <time>2026-07-05T09:48:58.000Z</time>
      </trkpt>
      <trkpt lat="44.92093" lon="5.77872">
        <ele>899.20001220703</ele>
        <time>2026-07-05T09:48:59.000Z</time>
      </trkpt>
      <trkpt lat="44.92092" lon="5.77871">
        <ele>899.59997558594</ele>
        <time>2026-07-05T09:49:00.000Z</time>
      </trkpt>
      <trkpt lat="44.92092" lon="5.77871">
        <ele>899.79998779297</ele>
        <time>2026-07-05T09:49:01.000Z</time>
      </trkpt>
      <trkpt lat="44.92091" lon="5.7787">
        <ele>900.20001220703</ele>
        <time>2026-07-05T09:49:02.000Z</time>
      </trkpt>
      <trkpt lat="44.9209" lon="5.77869">
        <ele>900.59997558594</ele>
        <time>2026-07-05T09:49:03.000Z</time>
      </trkpt>
      <trkpt lat="44.9209" lon="5.77869">
        <ele>900.79998779297</ele>
        <time>2026-07-05T09:49:04.000Z</time>
      </trkpt>
      <trkpt lat="44.92089" lon="5.77868">
        <ele>901.20001220703</ele>
        <time>2026-07-05T09:49:05.000Z</time>
      </trkpt>
      <trkpt lat="44.92089" lon="5.77867">
        <ele>901.40002441406</ele>
        <time>2026-07-05T09:49:06.000Z</time>
      </trkpt>
      <trkpt lat="44.92089" lon="5.77866">
        <ele>901.59997558594</ele>
        <time>2026-07-05T09:49:07.000Z</time>
      </trkpt>
      <trkpt lat="44.92088" lon="5.77865">
        <ele>901.79998779297</ele>
        <time>2026-07-05T09:49:08.000Z</time>
      </trkpt>
      <trkpt lat="44.92088" lon="5.77864">
        <ele>902.20001220703</ele>
        <time>2026-07-05T09:49:09.000Z</time>
      </trkpt>
      <trkpt lat="44.92087" lon="5.77864">
        <ele>902.40002441406</ele>
        <time>2026-07-05T09:49:10.000Z</time>
      </trkpt>
      <trkpt lat="44.92087" lon="5.77863">
        <ele>902.59997558594</ele>
        <time>2026-07-05T09:49:11.000Z</time>
      </trkpt>
      <trkpt lat="44.92086" lon="5.77863">
        <ele>903</ele>
        <time>2026-07-05T09:49:12.000Z</time>
      </trkpt>
      <trkpt lat="44.92085" lon="5.77862">
        <ele>903.20001220703</ele>
        <time>2026-07-05T09:49:13.000Z</time>
      </trkpt>
      <trkpt lat="44.92084" lon="5.77862">
        <ele>903.40002441406</ele>
        <time>2026-07-05T09:49:14.000Z</time>
      </trkpt>
      <trkpt lat="44.92084" lon="5.77861">
        <ele>903.79998779297</ele>
        <time>2026-07-05T09:49:15.000Z</time>
      </trkpt>
      <trkpt lat="44.92083" lon="5.7786">
        <ele>904</ele>
        <time>2026-07-05T09:49:16.000Z</time>
      </trkpt>
      <trkpt lat="44.92083" lon="5.7786">
        <ele>904.20001220703</ele>
        <time>2026-07-05T09:49:17.000Z</time>
      </trkpt>
      <trkpt lat="44.92082" lon="5.77859">
        <ele>904.40002441406</ele>
        <time>2026-07-05T09:49:18.000Z</time>
      </trkpt>
      <trkpt lat="44.92081" lon="5.77859">
        <ele>904.59997558594</ele>
        <time>2026-07-05T09:49:19.000Z</time>
      </trkpt>
      <trkpt lat="44.92081" lon="5.77859">
        <ele>904.79998779297</ele>
        <time>2026-07-05T09:49:20.000Z</time>
      </trkpt>
      <trkpt lat="44.9208" lon="5.77858">
        <ele>905</ele>
        <time>2026-07-05T09:49:21.000Z</time>
      </trkpt>
      <trkpt lat="44.9208" lon="5.77858">
        <ele>905.20001220703</ele>
        <time>2026-07-05T09:49:22.000Z</time>
      </trkpt>
      <trkpt lat="44.92079" lon="5.77857">
        <ele>905.40002441406</ele>
        <time>2026-07-05T09:49:23.000Z</time>
      </trkpt>
      <trkpt lat="44.92078" lon="5.77857">
        <ele>905.59997558594</ele>
        <time>2026-07-05T09:49:24.000Z</time>
      </trkpt>
      <trkpt lat="44.92078" lon="5.77857">
        <ele>905.79998779297</ele>
        <time>2026-07-05T09:49:25.000Z</time>
      </trkpt>
      <trkpt lat="44.92077" lon="5.77856">
        <ele>906</ele>
        <time>2026-07-05T09:49:26.000Z</time>
      </trkpt>
      <trkpt lat="44.92076" lon="5.77856">
        <ele>906.20001220703</ele>
        <time>2026-07-05T09:49:27.000Z</time>
      </trkpt>
      <trkpt lat="44.92075" lon="5.77855">
        <ele>906.40002441406</ele>
        <time>2026-07-05T09:49:28.000Z</time>
      </trkpt>
      <trkpt lat="44.92075" lon="5.77855">
        <ele>906.59997558594</ele>
        <time>2026-07-05T09:49:29.000Z</time>
      </trkpt>
      <trkpt lat="44.92074" lon="5.77855">
        <ele>906.79998779297</ele>
        <time>2026-07-05T09:49:30.000Z</time>
      </trkpt>
      <trkpt lat="44.92074" lon="5.77854">
        <ele>907</ele>
        <time>2026-07-05T09:49:31.000Z</time>
      </trkpt>
      <trkpt lat="44.92073" lon="5.77854">
        <ele>907.20001220703</ele>
        <time>2026-07-05T09:49:32.000Z</time>
      </trkpt>
      <trkpt lat="44.92073" lon="5.77853">
        <ele>907.40002441406</ele>
        <time>2026-07-05T09:49:33.000Z</time>
      </trkpt>
      <trkpt lat="44.92073" lon="5.77852">
        <ele>907.59997558594</ele>
        <time>2026-07-05T09:49:34.000Z</time>
      </trkpt>
      <trkpt lat="44.92073" lon="5.77852">
        <ele>907.79998779297</ele>
        <time>2026-07-05T09:49:35.000Z</time>
      </trkpt>
      <trkpt lat="44.92072" lon="5.77851">
        <ele>908</ele>
        <time>2026-07-05T09:49:36.000Z</time>
      </trkpt>
      <trkpt lat="44.92071" lon="5.77851">
        <ele>908.20001220703</ele>
        <time>2026-07-05T09:49:37.000Z</time>
      </trkpt>
      <trkpt lat="44.92071" lon="5.7785">
        <ele>908.40002441406</ele>
        <time>2026-07-05T09:49:38.000Z</time>
      </trkpt>
      <trkpt lat="44.9207" lon="5.7785">
        <ele>908.59997558594</ele>
        <time>2026-07-05T09:49:39.000Z</time>
      </trkpt>
      <trkpt lat="44.92069" lon="5.7785">
        <ele>908.79998779297</ele>
        <time>2026-07-05T09:49:40.000Z</time>
      </trkpt>
      <trkpt lat="44.92069" lon="5.7785">
        <ele>909</ele>
        <time>2026-07-05T09:49:41.000Z</time>
      </trkpt>
      <trkpt lat="44.92068" lon="5.77849">
        <ele>909</ele>
        <time>2026-07-05T09:49:42.000Z</time>
      </trkpt>
      <trkpt lat="44.92067" lon="5.77849">
        <ele>909.20001220703</ele>
        <time>2026-07-05T09:49:43.000Z</time>
      </trkpt>
      <trkpt lat="44.92066" lon="5.77849">
        <ele>909.40002441406</ele>
        <time>2026-07-05T09:49:44.000Z</time>
      </trkpt>
      <trkpt lat="44.92066" lon="5.77848">
        <ele>909.79998779297</ele>
        <time>2026-07-05T09:49:45.000Z</time>
      </trkpt>
      <trkpt lat="44.92065" lon="5.77847">
        <ele>910</ele>
        <time>2026-07-05T09:49:46.000Z</time>
      </trkpt>
      <trkpt lat="44.92064" lon="5.77847">
        <ele>910.40002441406</ele>
        <time>2026-07-05T09:49:47.000Z</time>
      </trkpt>
      <trkpt lat="44.92063" lon="5.77846">
        <ele>910.59997558594</ele>
        <time>2026-07-05T09:49:48.000Z</time>
      </trkpt>
      <trkpt lat="44.92063" lon="5.77846">
        <ele>911</ele>
        <time>2026-07-05T09:49:49.000Z</time>
      </trkpt>
      <trkpt lat="44.92062" lon="5.77845">
        <ele>911.20001220703</ele>
        <time>2026-07-05T09:49:50.000Z</time>
      </trkpt>
      <trkpt lat="44.92061" lon="5.77844">
        <ele>911.40002441406</ele>
        <time>2026-07-05T09:49:51.000Z</time>
      </trkpt>
      <trkpt lat="44.92061" lon="5.77843">
        <ele>911.59997558594</ele>
        <time>2026-07-05T09:49:52.000Z</time>
      </trkpt>
      <trkpt lat="44.9206" lon="5.77843">
        <ele>911.79998779297</ele>
        <time>2026-07-05T09:49:53.000Z</time>
      </trkpt>
      <trkpt lat="44.9206" lon="5.77843">
        <ele>912</ele>
        <time>2026-07-05T09:49:54.000Z</time>
      </trkpt>
      <trkpt lat="44.92059" lon="5.77843">
        <ele>912</ele>
        <time>2026-07-05T09:49:55.000Z</time>
      </trkpt>
      <trkpt lat="44.92059" lon="5.77842">
        <ele>912.20001220703</ele>
        <time>2026-07-05T09:49:56.000Z</time>
      </trkpt>
      <trkpt lat="44.92058" lon="5.77842">
        <ele>912.20001220703</ele>
        <time>2026-07-05T09:49:57.000Z</time>
      </trkpt>
      <trkpt lat="44.92058" lon="5.77841">
        <ele>911.79998779297</ele>
        <time>2026-07-05T09:49:58.000Z</time>
      </trkpt>
      <trkpt lat="44.92057" lon="5.77841">
        <ele>911.40002441406</ele>
        <time>2026-07-05T09:49:59.000Z</time>
      </trkpt>
      <trkpt lat="44.92056" lon="5.7784">
        <ele>911.20001220703</ele>
        <time>2026-07-05T09:50:00.000Z</time>
      </trkpt>
      <trkpt lat="44.92056" lon="5.77839">
        <ele>911</ele>
        <time>2026-07-05T09:50:01.000Z</time>
      </trkpt>
      <trkpt lat="44.92055" lon="5.77839">
        <ele>910.79998779297</ele>
        <time>2026-07-05T09:50:02.000Z</time>
      </trkpt>
      <trkpt lat="44.92055" lon="5.77838">
        <ele>910.59997558594</ele>
        <time>2026-07-05T09:50:03.000Z</time>
      </trkpt>
      <trkpt lat="44.92054" lon="5.77838">
        <ele>910.59997558594</ele>
        <time>2026-07-05T09:50:04.000Z</time>
      </trkpt>
      <trkpt lat="44.92054" lon="5.77838">
        <ele>911</ele>
        <time>2026-07-05T09:50:05.000Z</time>
      </trkpt>
      <trkpt lat="44.92053" lon="5.77838">
        <ele>911.20001220703</ele>
        <time>2026-07-05T09:50:06.000Z</time>
      </trkpt>
      <trkpt lat="44.92053" lon="5.77838">
        <ele>911.40002441406</ele>
        <time>2026-07-05T09:50:07.000Z</time>
      </trkpt>
      <trkpt lat="44.92052" lon="5.77838">
        <ele>911.59997558594</ele>
        <time>2026-07-05T09:50:08.000Z</time>
      </trkpt>
      <trkpt lat="44.92051" lon="5.77838">
        <ele>911.79998779297</ele>
        <time>2026-07-05T09:50:09.000Z</time>
      </trkpt>
      <trkpt lat="44.92051" lon="5.77837">
        <ele>912.20001220703</ele>
        <time>2026-07-05T09:50:10.000Z</time>
      </trkpt>
      <trkpt lat="44.9205" lon="5.77837">
        <ele>912.40002441406</ele>
        <time>2026-07-05T09:50:11.000Z</time>
      </trkpt>
      <trkpt lat="44.92049" lon="5.77837">
        <ele>912.79998779297</ele>
        <time>2026-07-05T09:50:12.000Z</time>
      </trkpt>
      <trkpt lat="44.92049" lon="5.77837">
        <ele>913.20001220703</ele>
        <time>2026-07-05T09:50:13.000Z</time>
      </trkpt>
      <trkpt lat="44.92047" lon="5.77837">
        <ele>913.40002441406</ele>
        <time>2026-07-05T09:50:14.000Z</time>
      </trkpt>
      <trkpt lat="44.92047" lon="5.77837">
        <ele>913.40002441406</ele>
        <time>2026-07-05T09:50:15.000Z</time>
      </trkpt>
      <trkpt lat="44.92046" lon="5.77837">
        <ele>913.59997558594</ele>
        <time>2026-07-05T09:50:16.000Z</time>
      </trkpt>
      <trkpt lat="44.92045" lon="5.77837">
        <ele>914.40002441406</ele>
        <time>2026-07-05T09:50:17.000Z</time>
      </trkpt>
      <trkpt lat="44.92044" lon="5.77837">
        <ele>915</ele>
        <time>2026-07-05T09:50:18.000Z</time>
      </trkpt>
      <trkpt lat="44.92044" lon="5.77837">
        <ele>915.40002441406</ele>
        <time>2026-07-05T09:50:19.000Z</time>
      </trkpt>
      <trkpt lat="44.92043" lon="5.77837">
        <ele>915.59997558594</ele>
        <time>2026-07-05T09:50:20.000Z</time>
      </trkpt>
      <trkpt lat="44.92042" lon="5.77837">
        <ele>916</ele>
        <time>2026-07-05T09:50:21.000Z</time>
      </trkpt>
      <trkpt lat="44.92041" lon="5.77838">
        <ele>916.59997558594</ele>
        <time>2026-07-05T09:50:22.000Z</time>
      </trkpt>
      <trkpt lat="44.92039" lon="5.77838">
        <ele>916.79998779297</ele>
        <time>2026-07-05T09:50:23.000Z</time>
      </trkpt>
      <trkpt lat="44.92038" lon="5.77838">
        <ele>917.20001220703</ele>
        <time>2026-07-05T09:50:24.000Z</time>
      </trkpt>
      <trkpt lat="44.92037" lon="5.77839">
        <ele>917.79998779297</ele>
        <time>2026-07-05T09:50:25.000Z</time>
      </trkpt>
      <trkpt lat="44.92036" lon="5.7784">
        <ele>918.20001220703</ele>
        <time>2026-07-05T09:50:26.000Z</time>
      </trkpt>
      <trkpt lat="44.92035" lon="5.7784">
        <ele>918.40002441406</ele>
        <time>2026-07-05T09:50:27.000Z</time>
      </trkpt>
      <trkpt lat="44.92034" lon="5.77841">
        <ele>918.79998779297</ele>
        <time>2026-07-05T09:50:28.000Z</time>
      </trkpt>
      <trkpt lat="44.92033" lon="5.77842">
        <ele>919</ele>
        <time>2026-07-05T09:50:29.000Z</time>
      </trkpt>
      <trkpt lat="44.92031" lon="5.77842">
        <ele>919.20001220703</ele>
        <time>2026-07-05T09:50:30.000Z</time>
      </trkpt>
      <trkpt lat="44.92029" lon="5.77843">
        <ele>919.40002441406</ele>
        <time>2026-07-05T09:50:31.000Z</time>
      </trkpt>
      <trkpt lat="44.92027" lon="5.77845">
        <ele>919.59997558594</ele>
        <time>2026-07-05T09:50:32.000Z</time>
      </trkpt>
      <trkpt lat="44.92025" lon="5.77846">
        <ele>919.79998779297</ele>
        <time>2026-07-05T09:50:33.000Z</time>
      </trkpt>
      <trkpt lat="44.92023" lon="5.77848">
        <ele>919.79998779297</ele>
        <time>2026-07-05T09:50:34.000Z</time>
      </trkpt>
      <trkpt lat="44.92021" lon="5.77849">
        <ele>919.79998779297</ele>
        <time>2026-07-05T09:50:35.000Z</time>
      </trkpt>
      <trkpt lat="44.92019" lon="5.7785">
        <ele>919.79998779297</ele>
        <time>2026-07-05T09:50:36.000Z</time>
      </trkpt>
      <trkpt lat="44.92017" lon="5.77851">
        <ele>920</ele>
        <time>2026-07-05T09:50:37.000Z</time>
      </trkpt>
      <trkpt lat="44.92015" lon="5.77852">
        <ele>920</ele>
        <time>2026-07-05T09:50:38.000Z</time>
      </trkpt>
      <trkpt lat="44.92013" lon="5.77853">
        <ele>920.20001220703</ele>
        <time>2026-07-05T09:50:39.000Z</time>
      </trkpt>
      <trkpt lat="44.92011" lon="5.77854">
        <ele>920.40002441406</ele>
        <time>2026-07-05T09:50:40.000Z</time>
      </trkpt>
      <trkpt lat="44.92009" lon="5.77855">
        <ele>920.40002441406</ele>
        <time>2026-07-05T09:50:41.000Z</time>
      </trkpt>
      <trkpt lat="44.92008" lon="5.77856">
        <ele>920.59997558594</ele>
        <time>2026-07-05T09:50:42.000Z</time>
      </trkpt>
      <trkpt lat="44.92006" lon="5.77857">
        <ele>920.79998779297</ele>
        <time>2026-07-05T09:50:43.000Z</time>
      </trkpt>
      <trkpt lat="44.92004" lon="5.77858">
        <ele>921.20001220703</ele>
        <time>2026-07-05T09:50:44.000Z</time>
      </trkpt>
      <trkpt lat="44.92002" lon="5.77859">
        <ele>920.79998779297</ele>
        <time>2026-07-05T09:50:45.000Z</time>
      </trkpt>
      <trkpt lat="44.92001" lon="5.7786">
        <ele>920.59997558594</ele>
        <time>2026-07-05T09:50:46.000Z</time>
      </trkpt>
      <trkpt lat="44.91999" lon="5.77861">
        <ele>920.40002441406</ele>
        <time>2026-07-05T09:50:47.000Z</time>
      </trkpt>
      <trkpt lat="44.91997" lon="5.77862">
        <ele>920.20001220703</ele>
        <time>2026-07-05T09:50:48.000Z</time>
      </trkpt>
      <trkpt lat="44.91995" lon="5.77863">
        <ele>920</ele>
        <time>2026-07-05T09:50:49.000Z</time>
      </trkpt>
      <trkpt lat="44.91992" lon="5.77864">
        <ele>919.59997558594</ele>
        <time>2026-07-05T09:50:50.000Z</time>
      </trkpt>
      <trkpt lat="44.9199" lon="5.77864">
        <ele>919.40002441406</ele>
        <time>2026-07-05T09:50:51.000Z</time>
      </trkpt>
      <trkpt lat="44.91989" lon="5.77866">
        <ele>919</ele>
        <time>2026-07-05T09:50:52.000Z</time>
      </trkpt>
      <trkpt lat="44.91986" lon="5.77867">
        <ele>919</ele>
        <time>2026-07-05T09:50:53.000Z</time>
      </trkpt>
      <trkpt lat="44.91985" lon="5.77868">
        <ele>918.79998779297</ele>
        <time>2026-07-05T09:50:54.000Z</time>
      </trkpt>
      <trkpt lat="44.91983" lon="5.77868">
        <ele>918.79998779297</ele>
        <time>2026-07-05T09:50:55.000Z</time>
      </trkpt>
      <trkpt lat="44.91981" lon="5.77868">
        <ele>918.79998779297</ele>
        <time>2026-07-05T09:50:56.000Z</time>
      </trkpt>
      <trkpt lat="44.9198" lon="5.77868">
        <ele>919</ele>
        <time>2026-07-05T09:50:57.000Z</time>
      </trkpt>
      <trkpt lat="44.91978" lon="5.77868">
        <ele>919.20001220703</ele>
        <time>2026-07-05T09:50:58.000Z</time>
      </trkpt>
      <trkpt lat="44.91977" lon="5.77868">
        <ele>919.59997558594</ele>
        <time>2026-07-05T09:50:59.000Z</time>
      </trkpt>
      <trkpt lat="44.91977" lon="5.77868">
        <ele>919.59997558594</ele>
        <time>2026-07-05T09:51:00.000Z</time>
      </trkpt>
      <trkpt lat="44.91976" lon="5.77867">
        <ele>919.79998779297</ele>
        <time>2026-07-05T09:51:01.000Z</time>
      </trkpt>
      <trkpt lat="44.91976" lon="5.77867">
        <ele>919.79998779297</ele>
        <time>2026-07-05T09:51:02.000Z</time>
      </trkpt>
      <trkpt lat="44.91975" lon="5.77867">
        <ele>920</ele>
        <time>2026-07-05T09:51:03.000Z</time>
      </trkpt>
      <trkpt lat="44.91975" lon="5.77867">
        <ele>920.20001220703</ele>
        <time>2026-07-05T09:51:04.000Z</time>
      </trkpt>
      <trkpt lat="44.91975" lon="5.77866">
        <ele>920</ele>
        <time>2026-07-05T09:51:05.000Z</time>
      </trkpt>
      <trkpt lat="44.91974" lon="5.77866">
        <ele>920.20001220703</ele>
        <time>2026-07-05T09:51:06.000Z</time>
      </trkpt>
      <trkpt lat="44.91973" lon="5.77866">
        <ele>920.20001220703</ele>
        <time>2026-07-05T09:51:07.000Z</time>
      </trkpt>
      <trkpt lat="44.91973" lon="5.77865">
        <ele>920</ele>
        <time>2026-07-05T09:51:08.000Z</time>
      </trkpt>
      <trkpt lat="44.91973" lon="5.77865">
        <ele>920</ele>
        <time>2026-07-05T09:51:09.000Z</time>
      </trkpt>
      <trkpt lat="44.91971" lon="5.77865">
        <ele>919.79998779297</ele>
        <time>2026-07-05T09:51:10.000Z</time>
      </trkpt>
      <trkpt lat="44.9197" lon="5.77865">
        <ele>919.79998779297</ele>
        <time>2026-07-05T09:51:11.000Z</time>
      </trkpt>
      <trkpt lat="44.91969" lon="5.77865">
        <ele>919.79998779297</ele>
        <time>2026-07-05T09:51:12.000Z</time>
      </trkpt>
      <trkpt lat="44.91968" lon="5.77864">
        <ele>920</ele>
        <time>2026-07-05T09:51:13.000Z</time>
      </trkpt>
      <trkpt lat="44.91968" lon="5.77864">
        <ele>920.20001220703</ele>
        <time>2026-07-05T09:51:14.000Z</time>
      </trkpt>
      <trkpt lat="44.91967" lon="5.77864">
        <ele>920.40002441406</ele>
        <time>2026-07-05T09:51:15.000Z</time>
      </trkpt>
      <trkpt lat="44.91966" lon="5.77864">
        <ele>920.40002441406</ele>
        <time>2026-07-05T09:51:16.000Z</time>
      </trkpt>
      <trkpt lat="44.91966" lon="5.77863">
        <ele>920.79998779297</ele>
        <time>2026-07-05T09:51:17.000Z</time>
      </trkpt>
      <trkpt lat="44.91965" lon="5.77863">
        <ele>921</ele>
        <time>2026-07-05T09:51:18.000Z</time>
      </trkpt>
      <trkpt lat="44.91965" lon="5.77862">
        <ele>921</ele>
        <time>2026-07-05T09:51:19.000Z</time>
      </trkpt>
      <trkpt lat="44.91964" lon="5.77862">
        <ele>921</ele>
        <time>2026-07-05T09:51:20.000Z</time>
      </trkpt>
      <trkpt lat="44.91963" lon="5.77861">
        <ele>921</ele>
        <time>2026-07-05T09:51:21.000Z</time>
      </trkpt>
      <trkpt lat="44.91962" lon="5.77861">
        <ele>921</ele>
        <time>2026-07-05T09:51:22.000Z</time>
      </trkpt>
      <trkpt lat="44.91961" lon="5.7786">
        <ele>921</ele>
        <time>2026-07-05T09:51:23.000Z</time>
      </trkpt>
      <trkpt lat="44.91961" lon="5.7786">
        <ele>921</ele>
        <time>2026-07-05T09:51:24.000Z</time>
      </trkpt>
      <trkpt lat="44.9196" lon="5.7786">
        <ele>921</ele>
        <time>2026-07-05T09:51:25.000Z</time>
      </trkpt>
      <trkpt lat="44.91959" lon="5.7786">
        <ele>921</ele>
        <time>2026-07-05T09:51:26.000Z</time>
      </trkpt>
      <trkpt lat="44.91958" lon="5.7786">
        <ele>920.59997558594</ele>
        <time>2026-07-05T09:51:27.000Z</time>
      </trkpt>
      <trkpt lat="44.91957" lon="5.7786">
        <ele>920.40002441406</ele>
        <time>2026-07-05T09:51:28.000Z</time>
      </trkpt>
      <trkpt lat="44.91956" lon="5.77859">
        <ele>920.40002441406</ele>
        <time>2026-07-05T09:51:29.000Z</time>
      </trkpt>
      <trkpt lat="44.91956" lon="5.77859">
        <ele>920.20001220703</ele>
        <time>2026-07-05T09:51:30.000Z</time>
      </trkpt>
      <trkpt lat="44.91955" lon="5.77858">
        <ele>920.20001220703</ele>
        <time>2026-07-05T09:51:31.000Z</time>
      </trkpt>
      <trkpt lat="44.91954" lon="5.77858">
        <ele>920.40002441406</ele>
        <time>2026-07-05T09:51:32.000Z</time>
      </trkpt>
      <trkpt lat="44.91953" lon="5.77858">
        <ele>920.59997558594</ele>
        <time>2026-07-05T09:51:33.000Z</time>
      </trkpt>
      <trkpt lat="44.91952" lon="5.77858">
        <ele>920.79998779297</ele>
        <time>2026-07-05T09:51:34.000Z</time>
      </trkpt>
      <trkpt lat="44.9195" lon="5.77858">
        <ele>921</ele>
        <time>2026-07-05T09:51:35.000Z</time>
      </trkpt>
      <trkpt lat="44.91949" lon="5.77858">
        <ele>921.20001220703</ele>
        <time>2026-07-05T09:51:36.000Z</time>
      </trkpt>
      <trkpt lat="44.91948" lon="5.77858">
        <ele>921.20001220703</ele>
        <time>2026-07-05T09:51:37.000Z</time>
      </trkpt>
      <trkpt lat="44.91946" lon="5.77858">
        <ele>921.40002441406</ele>
        <time>2026-07-05T09:51:38.000Z</time>
      </trkpt>
      <trkpt lat="44.91945" lon="5.77857">
        <ele>921.40002441406</ele>
        <time>2026-07-05T09:51:39.000Z</time>
      </trkpt>
      <trkpt lat="44.91944" lon="5.77857">
        <ele>921.59997558594</ele>
        <time>2026-07-05T09:51:40.000Z</time>
      </trkpt>
      <trkpt lat="44.91944" lon="5.77856">
        <ele>921.79998779297</ele>
        <time>2026-07-05T09:51:41.000Z</time>
      </trkpt>
      <trkpt lat="44.91943" lon="5.77856">
        <ele>921.79998779297</ele>
        <time>2026-07-05T09:51:42.000Z</time>
      </trkpt>
      <trkpt lat="44.91942" lon="5.77857">
        <ele>922</ele>
        <time>2026-07-05T09:51:43.000Z</time>
      </trkpt>
      <trkpt lat="44.91941" lon="5.77857">
        <ele>922</ele>
        <time>2026-07-05T09:51:44.000Z</time>
      </trkpt>
      <trkpt lat="44.9194" lon="5.77857">
        <ele>922.20001220703</ele>
        <time>2026-07-05T09:51:45.000Z</time>
      </trkpt>
      <trkpt lat="44.91938" lon="5.77857">
        <ele>922.40002441406</ele>
        <time>2026-07-05T09:51:46.000Z</time>
      </trkpt>
      <trkpt lat="44.91937" lon="5.77856">
        <ele>922.59997558594</ele>
        <time>2026-07-05T09:51:47.000Z</time>
      </trkpt>
      <trkpt lat="44.91936" lon="5.77856">
        <ele>923.20001220703</ele>
        <time>2026-07-05T09:51:48.000Z</time>
      </trkpt>
      <trkpt lat="44.91935" lon="5.77855">
        <ele>923.40002441406</ele>
        <time>2026-07-05T09:51:49.000Z</time>
      </trkpt>
      <trkpt lat="44.91934" lon="5.77855">
        <ele>923.79998779297</ele>
        <time>2026-07-05T09:51:50.000Z</time>
      </trkpt>
      <trkpt lat="44.91933" lon="5.77856">
        <ele>924.20001220703</ele>
        <time>2026-07-05T09:51:51.000Z</time>
      </trkpt>
      <trkpt lat="44.91932" lon="5.77856">
        <ele>924.40002441406</ele>
        <time>2026-07-05T09:51:52.000Z</time>
      </trkpt>
      <trkpt lat="44.91931" lon="5.77856">
        <ele>924.79998779297</ele>
        <time>2026-07-05T09:51:53.000Z</time>
      </trkpt>
      <trkpt lat="44.91929" lon="5.77858">
        <ele>925</ele>
        <time>2026-07-05T09:51:54.000Z</time>
      </trkpt>
      <trkpt lat="44.91928" lon="5.77859">
        <ele>925.20001220703</ele>
        <time>2026-07-05T09:51:55.000Z</time>
      </trkpt>
      <trkpt lat="44.91926" lon="5.77861">
        <ele>925.59997558594</ele>
        <time>2026-07-05T09:51:56.000Z</time>
      </trkpt>
      <trkpt lat="44.91923" lon="5.77863">
        <ele>926.59997558594</ele>
        <time>2026-07-05T09:51:57.000Z</time>
      </trkpt>
      <trkpt lat="44.91922" lon="5.77865">
        <ele>927</ele>
        <time>2026-07-05T09:51:58.000Z</time>
      </trkpt>
      <trkpt lat="44.91919" lon="5.77868">
        <ele>927.40002441406</ele>
        <time>2026-07-05T09:51:59.000Z</time>
      </trkpt>
      <trkpt lat="44.91918" lon="5.7787">
        <ele>928.40002441406</ele>
        <time>2026-07-05T09:52:00.000Z</time>
      </trkpt>
      <trkpt lat="44.91915" lon="5.77872">
        <ele>930</ele>
        <time>2026-07-05T09:52:01.000Z</time>
      </trkpt>
      <trkpt lat="44.91913" lon="5.77875">
        <ele>930.40002441406</ele>
        <time>2026-07-05T09:52:02.000Z</time>
      </trkpt>
      <trkpt lat="44.91911" lon="5.77877">
        <ele>930.79998779297</ele>
        <time>2026-07-05T09:52:03.000Z</time>
      </trkpt>
      <trkpt lat="44.91909" lon="5.7788">
        <ele>930.79998779297</ele>
        <time>2026-07-05T09:52:04.000Z</time>
      </trkpt>
      <trkpt lat="44.91907" lon="5.77882">
        <ele>930.59997558594</ele>
        <time>2026-07-05T09:52:05.000Z</time>
      </trkpt>
      <trkpt lat="44.91905" lon="5.77884">
        <ele>930.59997558594</ele>
        <time>2026-07-05T09:52:06.000Z</time>
      </trkpt>
      <trkpt lat="44.91903" lon="5.77886">
        <ele>930.20001220703</ele>
        <time>2026-07-05T09:52:07.000Z</time>
      </trkpt>
      <trkpt lat="44.919" lon="5.77888">
        <ele>930</ele>
        <time>2026-07-05T09:52:08.000Z</time>
      </trkpt>
      <trkpt lat="44.91898" lon="5.77891">
        <ele>929.79998779297</ele>
        <time>2026-07-05T09:52:09.000Z</time>
      </trkpt>
      <trkpt lat="44.91896" lon="5.77892">
        <ele>929.59997558594</ele>
        <time>2026-07-05T09:52:10.000Z</time>
      </trkpt>
      <trkpt lat="44.91894" lon="5.77894">
        <ele>929.20001220703</ele>
        <time>2026-07-05T09:52:11.000Z</time>
      </trkpt>
      <trkpt lat="44.91891" lon="5.77896">
        <ele>928.40002441406</ele>
        <time>2026-07-05T09:52:12.000Z</time>
      </trkpt>
      <trkpt lat="44.91889" lon="5.77897">
        <ele>928</ele>
        <time>2026-07-05T09:52:13.000Z</time>
      </trkpt>
      <trkpt lat="44.91887" lon="5.77899">
        <ele>927.59997558594</ele>
        <time>2026-07-05T09:52:14.000Z</time>
      </trkpt>
      <trkpt lat="44.91885" lon="5.77901">
        <ele>927.20001220703</ele>
        <time>2026-07-05T09:52:15.000Z</time>
      </trkpt>
      <trkpt lat="44.91882" lon="5.77903">
        <ele>926.79998779297</ele>
        <time>2026-07-05T09:52:16.000Z</time>
      </trkpt>
      <trkpt lat="44.9188" lon="5.77905">
        <ele>926.40002441406</ele>
        <time>2026-07-05T09:52:17.000Z</time>
      </trkpt>
      <trkpt lat="44.91877" lon="5.77907">
        <ele>926</ele>
        <time>2026-07-05T09:52:18.000Z</time>
      </trkpt>
      <trkpt lat="44.91875" lon="5.77908">
        <ele>925.59997558594</ele>
        <time>2026-07-05T09:52:19.000Z</time>
      </trkpt>
      <trkpt lat="44.91873" lon="5.7791">
        <ele>924.79998779297</ele>
        <time>2026-07-05T09:52:20.000Z</time>
      </trkpt>
      <trkpt lat="44.9187" lon="5.77912">
        <ele>923.79998779297</ele>
        <time>2026-07-05T09:52:21.000Z</time>
      </trkpt>
      <trkpt lat="44.91868" lon="5.77914">
        <ele>923.79998779297</ele>
        <time>2026-07-05T09:52:22.000Z</time>
      </trkpt>
      <trkpt lat="44.91866" lon="5.77916">
        <ele>923.59997558594</ele>
        <time>2026-07-05T09:52:23.000Z</time>
      </trkpt>
      <trkpt lat="44.91864" lon="5.77918">
        <ele>923.79998779297</ele>
        <time>2026-07-05T09:52:24.000Z</time>
      </trkpt>
      <trkpt lat="44.91861" lon="5.7792">
        <ele>923.79998779297</ele>
        <time>2026-07-05T09:52:25.000Z</time>
      </trkpt>
      <trkpt lat="44.91859" lon="5.77922">
        <ele>923.79998779297</ele>
        <time>2026-07-05T09:52:26.000Z</time>
      </trkpt>
      <trkpt lat="44.91856" lon="5.77923">
        <ele>923.79998779297</ele>
        <time>2026-07-05T09:52:27.000Z</time>
      </trkpt>
      <trkpt lat="44.91853" lon="5.77925">
        <ele>923.79998779297</ele>
        <time>2026-07-05T09:52:28.000Z</time>
      </trkpt>
      <trkpt lat="44.91851" lon="5.77926">
        <ele>923.59997558594</ele>
        <time>2026-07-05T09:52:29.000Z</time>
      </trkpt>
      <trkpt lat="44.91848" lon="5.77928">
        <ele>923.20001220703</ele>
        <time>2026-07-05T09:52:30.000Z</time>
      </trkpt>
      <trkpt lat="44.91846" lon="5.77929">
        <ele>922.59997558594</ele>
        <time>2026-07-05T09:52:31.000Z</time>
      </trkpt>
      <trkpt lat="44.91843" lon="5.77931">
        <ele>922</ele>
        <time>2026-07-05T09:52:32.000Z</time>
      </trkpt>
      <trkpt lat="44.9184" lon="5.77933">
        <ele>921.79998779297</ele>
        <time>2026-07-05T09:52:33.000Z</time>
      </trkpt>
      <trkpt lat="44.91838" lon="5.77935">
        <ele>921.40002441406</ele>
        <time>2026-07-05T09:52:34.000Z</time>
      </trkpt>
      <trkpt lat="44.91835" lon="5.77937">
        <ele>921</ele>
        <time>2026-07-05T09:52:35.000Z</time>
      </trkpt>
      <trkpt lat="44.91832" lon="5.77939">
        <ele>920.59997558594</ele>
        <time>2026-07-05T09:52:36.000Z</time>
      </trkpt>
      <trkpt lat="44.9183" lon="5.7794">
        <ele>920.40002441406</ele>
        <time>2026-07-05T09:52:37.000Z</time>
      </trkpt>
      <trkpt lat="44.91827" lon="5.77942">
        <ele>920</ele>
        <time>2026-07-05T09:52:38.000Z</time>
      </trkpt>
      <trkpt lat="44.91824" lon="5.77944">
        <ele>919.40002441406</ele>
        <time>2026-07-05T09:52:39.000Z</time>
      </trkpt>
      <trkpt lat="44.91822" lon="5.77946">
        <ele>919</ele>
        <time>2026-07-05T09:52:40.000Z</time>
      </trkpt>
      <trkpt lat="44.91819" lon="5.77948">
        <ele>918.40002441406</ele>
        <time>2026-07-05T09:52:41.000Z</time>
      </trkpt>
      <trkpt lat="44.91816" lon="5.7795">
        <ele>918</ele>
        <time>2026-07-05T09:52:42.000Z</time>
      </trkpt>
      <trkpt lat="44.91814" lon="5.77951">
        <ele>918</ele>
        <time>2026-07-05T09:52:43.000Z</time>
      </trkpt>
      <trkpt lat="44.91812" lon="5.77953">
        <ele>917.59997558594</ele>
        <time>2026-07-05T09:52:44.000Z</time>
      </trkpt>
      <trkpt lat="44.91809" lon="5.77955">
        <ele>917.40002441406</ele>
        <time>2026-07-05T09:52:45.000Z</time>
      </trkpt>
      <trkpt lat="44.91806" lon="5.77956">
        <ele>917.40002441406</ele>
        <time>2026-07-05T09:52:46.000Z</time>
      </trkpt>
      <trkpt lat="44.91804" lon="5.77958">
        <ele>917.20001220703</ele>
        <time>2026-07-05T09:52:47.000Z</time>
      </trkpt>
      <trkpt lat="44.91802" lon="5.7796">
        <ele>917</ele>
        <time>2026-07-05T09:52:48.000Z</time>
      </trkpt>
      <trkpt lat="44.91799" lon="5.77962">
        <ele>916.79998779297</ele>
        <time>2026-07-05T09:52:49.000Z</time>
      </trkpt>
      <trkpt lat="44.91796" lon="5.77963">
        <ele>916.40002441406</ele>
        <time>2026-07-05T09:52:50.000Z</time>
      </trkpt>
      <trkpt lat="44.91793" lon="5.77965">
        <ele>915.79998779297</ele>
        <time>2026-07-05T09:52:51.000Z</time>
      </trkpt>
      <trkpt lat="44.91791" lon="5.77966">
        <ele>915.59997558594</ele>
        <time>2026-07-05T09:52:52.000Z</time>
      </trkpt>
      <trkpt lat="44.91788" lon="5.77967">
        <ele>915.20001220703</ele>
        <time>2026-07-05T09:52:53.000Z</time>
      </trkpt>
      <trkpt lat="44.91785" lon="5.77968">
        <ele>914.79998779297</ele>
        <time>2026-07-05T09:52:54.000Z</time>
      </trkpt>
      <trkpt lat="44.91782" lon="5.77969">
        <ele>914.59997558594</ele>
        <time>2026-07-05T09:52:55.000Z</time>
      </trkpt>
      <trkpt lat="44.91779" lon="5.77971">
        <ele>914.40002441406</ele>
        <time>2026-07-05T09:52:56.000Z</time>
      </trkpt>
      <trkpt lat="44.91776" lon="5.77972">
        <ele>914.20001220703</ele>
        <time>2026-07-05T09:52:57.000Z</time>
      </trkpt>
      <trkpt lat="44.91774" lon="5.77973">
        <ele>914</ele>
        <time>2026-07-05T09:52:58.000Z</time>
      </trkpt>
      <trkpt lat="44.91771" lon="5.77974">
        <ele>913.59997558594</ele>
        <time>2026-07-05T09:52:59.000Z</time>
      </trkpt>
      <trkpt lat="44.91767" lon="5.77975">
        <ele>913.20001220703</ele>
        <time>2026-07-05T09:53:00.000Z</time>
      </trkpt>
      <trkpt lat="44.91765" lon="5.77975">
        <ele>912.59997558594</ele>
        <time>2026-07-05T09:53:01.000Z</time>
      </trkpt>
      <trkpt lat="44.91761" lon="5.77974">
        <ele>912.20001220703</ele>
        <time>2026-07-05T09:53:02.000Z</time>
      </trkpt>
      <trkpt lat="44.91758" lon="5.77973">
        <ele>912.20001220703</ele>
        <time>2026-07-05T09:53:03.000Z</time>
      </trkpt>
      <trkpt lat="44.91755" lon="5.77971">
        <ele>912</ele>
        <time>2026-07-05T09:53:04.000Z</time>
      </trkpt>
      <trkpt lat="44.91753" lon="5.77969">
        <ele>911.79998779297</ele>
        <time>2026-07-05T09:53:05.000Z</time>
      </trkpt>
      <trkpt lat="44.9175" lon="5.77966">
        <ele>911.40002441406</ele>
        <time>2026-07-05T09:53:06.000Z</time>
      </trkpt>
      <trkpt lat="44.91748" lon="5.77963">
        <ele>910.20001220703</ele>
        <time>2026-07-05T09:53:07.000Z</time>
      </trkpt>
      <trkpt lat="44.91746" lon="5.7796">
        <ele>910</ele>
        <time>2026-07-05T09:53:08.000Z</time>
      </trkpt>
      <trkpt lat="44.91744" lon="5.77955">
        <ele>909.40002441406</ele>
        <time>2026-07-05T09:53:09.000Z</time>
      </trkpt>
      <trkpt lat="44.91743" lon="5.77952">
        <ele>908.79998779297</ele>
        <time>2026-07-05T09:53:10.000Z</time>
      </trkpt>
      <trkpt lat="44.91742" lon="5.77947">
        <ele>908.20001220703</ele>
        <time>2026-07-05T09:53:11.000Z</time>
      </trkpt>
      <trkpt lat="44.91741" lon="5.77942">
        <ele>907.59997558594</ele>
        <time>2026-07-05T09:53:12.000Z</time>
      </trkpt>
      <trkpt lat="44.9174" lon="5.77938">
        <ele>907</ele>
        <time>2026-07-05T09:53:13.000Z</time>
      </trkpt>
      <trkpt lat="44.9174" lon="5.77933">
        <ele>906.40002441406</ele>
        <time>2026-07-05T09:53:14.000Z</time>
      </trkpt>
      <trkpt lat="44.9174" lon="5.77929">
        <ele>905.79998779297</ele>
        <time>2026-07-05T09:53:15.000Z</time>
      </trkpt>
      <trkpt lat="44.91739" lon="5.77924">
        <ele>905.40002441406</ele>
        <time>2026-07-05T09:53:16.000Z</time>
      </trkpt>
      <trkpt lat="44.91739" lon="5.7792">
        <ele>904.79998779297</ele>
        <time>2026-07-05T09:53:17.000Z</time>
      </trkpt>
      <trkpt lat="44.91739" lon="5.77915">
        <ele>904.79998779297</ele>
        <time>2026-07-05T09:53:18.000Z</time>
      </trkpt>
      <trkpt lat="44.91738" lon="5.77912">
        <ele>904.59997558594</ele>
        <time>2026-07-05T09:53:19.000Z</time>
      </trkpt>
      <trkpt lat="44.91737" lon="5.77908">
        <ele>904.59997558594</ele>
        <time>2026-07-05T09:53:20.000Z</time>
      </trkpt>
      <trkpt lat="44.91735" lon="5.77905">
        <ele>904.40002441406</ele>
        <time>2026-07-05T09:53:21.000Z</time>
      </trkpt>
      <trkpt lat="44.91734" lon="5.77901">
        <ele>904.79998779297</ele>
        <time>2026-07-05T09:53:22.000Z</time>
      </trkpt>
      <trkpt lat="44.91733" lon="5.77898">
        <ele>905</ele>
        <time>2026-07-05T09:53:23.000Z</time>
      </trkpt>
      <trkpt lat="44.91731" lon="5.77895">
        <ele>905</ele>
        <time>2026-07-05T09:53:24.000Z</time>
      </trkpt>
      <trkpt lat="44.91729" lon="5.77891">
        <ele>905</ele>
        <time>2026-07-05T09:53:25.000Z</time>
      </trkpt>
      <trkpt lat="44.91728" lon="5.77889">
        <ele>905.20001220703</ele>
        <time>2026-07-05T09:53:26.000Z</time>
      </trkpt>
      <trkpt lat="44.91726" lon="5.77886">
        <ele>905</ele>
        <time>2026-07-05T09:53:27.000Z</time>
      </trkpt>
      <trkpt lat="44.91724" lon="5.77884">
        <ele>904.79998779297</ele>
        <time>2026-07-05T09:53:28.000Z</time>
      </trkpt>
      <trkpt lat="44.91723" lon="5.77882">
        <ele>904.59997558594</ele>
        <time>2026-07-05T09:53:29.000Z</time>
      </trkpt>
      <trkpt lat="44.91721" lon="5.77879">
        <ele>904.79998779297</ele>
        <time>2026-07-05T09:53:30.000Z</time>
      </trkpt>
      <trkpt lat="44.9172" lon="5.77877">
        <ele>904.79998779297</ele>
        <time>2026-07-05T09:53:31.000Z</time>
      </trkpt>
      <trkpt lat="44.91718" lon="5.77873">
        <ele>904.79998779297</ele>
        <time>2026-07-05T09:53:32.000Z</time>
      </trkpt>
      <trkpt lat="44.91718" lon="5.7787">
        <ele>905.20001220703</ele>
        <time>2026-07-05T09:53:33.000Z</time>
      </trkpt>
      <trkpt lat="44.91717" lon="5.77868">
        <ele>905.40002441406</ele>
        <time>2026-07-05T09:53:34.000Z</time>
      </trkpt>
      <trkpt lat="44.91716" lon="5.77865">
        <ele>905.59997558594</ele>
        <time>2026-07-05T09:53:35.000Z</time>
      </trkpt>
      <trkpt lat="44.91715" lon="5.77862">
        <ele>905.79998779297</ele>
        <time>2026-07-05T09:53:36.000Z</time>
      </trkpt>
      <trkpt lat="44.91714" lon="5.7786">
        <ele>906</ele>
        <time>2026-07-05T09:53:37.000Z</time>
      </trkpt>
      <trkpt lat="44.91713" lon="5.77857">
        <ele>906.40002441406</ele>
        <time>2026-07-05T09:53:38.000Z</time>
      </trkpt>
      <trkpt lat="44.91712" lon="5.77855">
        <ele>906.79998779297</ele>
        <time>2026-07-05T09:53:39.000Z</time>
      </trkpt>
      <trkpt lat="44.91711" lon="5.77853">
        <ele>906.79998779297</ele>
        <time>2026-07-05T09:53:40.000Z</time>
      </trkpt>
      <trkpt lat="44.9171" lon="5.77851">
        <ele>907</ele>
        <time>2026-07-05T09:53:41.000Z</time>
      </trkpt>
      <trkpt lat="44.9171" lon="5.77848">
        <ele>907.20001220703</ele>
        <time>2026-07-05T09:53:42.000Z</time>
      </trkpt>
      <trkpt lat="44.91709" lon="5.77846">
        <ele>907.40002441406</ele>
        <time>2026-07-05T09:53:43.000Z</time>
      </trkpt>
      <trkpt lat="44.91708" lon="5.77843">
        <ele>908.20001220703</ele>
        <time>2026-07-05T09:53:44.000Z</time>
      </trkpt>
      <trkpt lat="44.91708" lon="5.77841">
        <ele>908.40002441406</ele>
        <time>2026-07-05T09:53:45.000Z</time>
      </trkpt>
      <trkpt lat="44.91707" lon="5.77838">
        <ele>908.40002441406</ele>
        <time>2026-07-05T09:53:46.000Z</time>
      </trkpt>
      <trkpt lat="44.91706" lon="5.77835">
        <ele>908.59997558594</ele>
        <time>2026-07-05T09:53:47.000Z</time>
      </trkpt>
      <trkpt lat="44.91705" lon="5.77832">
        <ele>908.20001220703</ele>
        <time>2026-07-05T09:53:48.000Z</time>
      </trkpt>
      <trkpt lat="44.91705" lon="5.77829">
        <ele>907.79998779297</ele>
        <time>2026-07-05T09:53:49.000Z</time>
      </trkpt>
      <trkpt lat="44.91704" lon="5.77827">
        <ele>908</ele>
        <time>2026-07-05T09:53:50.000Z</time>
      </trkpt>
      <trkpt lat="44.91704" lon="5.77824">
        <ele>908</ele>
        <time>2026-07-05T09:53:51.000Z</time>
      </trkpt>
      <trkpt lat="44.91703" lon="5.77821">
        <ele>908.20001220703</ele>
        <time>2026-07-05T09:53:52.000Z</time>
      </trkpt>
      <trkpt lat="44.91703" lon="5.77819">
        <ele>908.20001220703</ele>
        <time>2026-07-05T09:53:53.000Z</time>
      </trkpt>
      <trkpt lat="44.91702" lon="5.77816">
        <ele>908.40002441406</ele>
        <time>2026-07-05T09:53:54.000Z</time>
      </trkpt>
      <trkpt lat="44.91702" lon="5.77814">
        <ele>908.59997558594</ele>
        <time>2026-07-05T09:53:55.000Z</time>
      </trkpt>
      <trkpt lat="44.91701" lon="5.77811">
        <ele>908.79998779297</ele>
        <time>2026-07-05T09:53:56.000Z</time>
      </trkpt>
      <trkpt lat="44.91701" lon="5.77808">
        <ele>909.20001220703</ele>
        <time>2026-07-05T09:53:57.000Z</time>
      </trkpt>
      <trkpt lat="44.91701" lon="5.77806">
        <ele>909.59997558594</ele>
        <time>2026-07-05T09:53:58.000Z</time>
      </trkpt>
      <trkpt lat="44.91701" lon="5.77803">
        <ele>909.79998779297</ele>
        <time>2026-07-05T09:53:59.000Z</time>
      </trkpt>
      <trkpt lat="44.91701" lon="5.77801">
        <ele>910</ele>
        <time>2026-07-05T09:54:00.000Z</time>
      </trkpt>
      <trkpt lat="44.917" lon="5.77799">
        <ele>910.20001220703</ele>
        <time>2026-07-05T09:54:01.000Z</time>
      </trkpt>
      <trkpt lat="44.917" lon="5.77797">
        <ele>911</ele>
        <time>2026-07-05T09:54:02.000Z</time>
      </trkpt>
      <trkpt lat="44.91699" lon="5.77794">
        <ele>911.59997558594</ele>
        <time>2026-07-05T09:54:03.000Z</time>
      </trkpt>
      <trkpt lat="44.91698" lon="5.77792">
        <ele>911.59997558594</ele>
        <time>2026-07-05T09:54:04.000Z</time>
      </trkpt>
      <trkpt lat="44.91698" lon="5.7779">
        <ele>911.79998779297</ele>
        <time>2026-07-05T09:54:05.000Z</time>
      </trkpt>
      <trkpt lat="44.91697" lon="5.77788">
        <ele>911.79998779297</ele>
        <time>2026-07-05T09:54:06.000Z</time>
      </trkpt>
      <trkpt lat="44.91696" lon="5.77785">
        <ele>912</ele>
        <time>2026-07-05T09:54:07.000Z</time>
      </trkpt>
      <trkpt lat="44.91695" lon="5.77783">
        <ele>912.20001220703</ele>
        <time>2026-07-05T09:54:08.000Z</time>
      </trkpt>
      <trkpt lat="44.91695" lon="5.7778">
        <ele>912.40002441406</ele>
        <time>2026-07-05T09:54:09.000Z</time>
      </trkpt>
      <trkpt lat="44.91694" lon="5.77778">
        <ele>912.40002441406</ele>
        <time>2026-07-05T09:54:10.000Z</time>
      </trkpt>
      <trkpt lat="44.91694" lon="5.77775">
        <ele>912.40002441406</ele>
        <time>2026-07-05T09:54:11.000Z</time>
      </trkpt>
      <trkpt lat="44.91694" lon="5.77773">
        <ele>912.59997558594</ele>
        <time>2026-07-05T09:54:12.000Z</time>
      </trkpt>
      <trkpt lat="44.91693" lon="5.7777">
        <ele>912.59997558594</ele>
        <time>2026-07-05T09:54:13.000Z</time>
      </trkpt>
      <trkpt lat="44.91693" lon="5.77768">
        <ele>912.59997558594</ele>
        <time>2026-07-05T09:54:14.000Z</time>
      </trkpt>
      <trkpt lat="44.91693" lon="5.77765">
        <ele>912.59997558594</ele>
        <time>2026-07-05T09:54:15.000Z</time>
      </trkpt>
      <trkpt lat="44.91692" lon="5.77763">
        <ele>912.79998779297</ele>
        <time>2026-07-05T09:54:16.000Z</time>
      </trkpt>
      <trkpt lat="44.91691" lon="5.77761">
        <ele>912.79998779297</ele>
        <time>2026-07-05T09:54:17.000Z</time>
      </trkpt>
      <trkpt lat="44.91691" lon="5.77759">
        <ele>913.20001220703</ele>
        <time>2026-07-05T09:54:18.000Z</time>
      </trkpt>
      <trkpt lat="44.9169" lon="5.77757">
        <ele>913.40002441406</ele>
        <time>2026-07-05T09:54:19.000Z</time>
      </trkpt>
      <trkpt lat="44.91689" lon="5.77755">
        <ele>913.40002441406</ele>
        <time>2026-07-05T09:54:20.000Z</time>
      </trkpt>
      <trkpt lat="44.91688" lon="5.77752">
        <ele>913.59997558594</ele>
        <time>2026-07-05T09:54:21.000Z</time>
      </trkpt>
      <trkpt lat="44.91688" lon="5.7775">
        <ele>913.79998779297</ele>
        <time>2026-07-05T09:54:22.000Z</time>
      </trkpt>
      <trkpt lat="44.91687" lon="5.77748">
        <ele>914</ele>
        <time>2026-07-05T09:54:23.000Z</time>
      </trkpt>
      <trkpt lat="44.91687" lon="5.77746">
        <ele>914</ele>
        <time>2026-07-05T09:54:24.000Z</time>
      </trkpt>
      <trkpt lat="44.91687" lon="5.77743">
        <ele>914</ele>
        <time>2026-07-05T09:54:25.000Z</time>
      </trkpt>
      <trkpt lat="44.91686" lon="5.7774">
        <ele>914.40002441406</ele>
        <time>2026-07-05T09:54:26.000Z</time>
      </trkpt>
      <trkpt lat="44.91685" lon="5.77738">
        <ele>915.59997558594</ele>
        <time>2026-07-05T09:54:27.000Z</time>
      </trkpt>
      <trkpt lat="44.91685" lon="5.77735">
        <ele>916.40002441406</ele>
        <time>2026-07-05T09:54:28.000Z</time>
      </trkpt>
      <trkpt lat="44.91685" lon="5.77732">
        <ele>917.20001220703</ele>
        <time>2026-07-05T09:54:29.000Z</time>
      </trkpt>
      <trkpt lat="44.91684" lon="5.77731">
        <ele>917.59997558594</ele>
        <time>2026-07-05T09:54:30.000Z</time>
      </trkpt>
      <trkpt lat="44.91684" lon="5.77728">
        <ele>918</ele>
        <time>2026-07-05T09:54:31.000Z</time>
      </trkpt>
      <trkpt lat="44.91683" lon="5.77726">
        <ele>918.20001220703</ele>
        <time>2026-07-05T09:54:32.000Z</time>
      </trkpt>
      <trkpt lat="44.91682" lon="5.77724">
        <ele>918.59997558594</ele>
        <time>2026-07-05T09:54:33.000Z</time>
      </trkpt>
      <trkpt lat="44.91682" lon="5.77722">
        <ele>919</ele>
        <time>2026-07-05T09:54:34.000Z</time>
      </trkpt>
      <trkpt lat="44.91681" lon="5.7772">
        <ele>918</ele>
        <time>2026-07-05T09:54:35.000Z</time>
      </trkpt>
      <trkpt lat="44.9168" lon="5.77718">
        <ele>917.79998779297</ele>
        <time>2026-07-05T09:54:36.000Z</time>
      </trkpt>
      <trkpt lat="44.91679" lon="5.77716">
        <ele>917.59997558594</ele>
        <time>2026-07-05T09:54:37.000Z</time>
      </trkpt>
      <trkpt lat="44.91678" lon="5.77714">
        <ele>917</ele>
        <time>2026-07-05T09:54:38.000Z</time>
      </trkpt>
      <trkpt lat="44.91676" lon="5.77712">
        <ele>916.59997558594</ele>
        <time>2026-07-05T09:54:39.000Z</time>
      </trkpt>
      <trkpt lat="44.91675" lon="5.77709">
        <ele>916</ele>
        <time>2026-07-05T09:54:40.000Z</time>
      </trkpt>
      <trkpt lat="44.91674" lon="5.77707">
        <ele>915.59997558594</ele>
        <time>2026-07-05T09:54:41.000Z</time>
      </trkpt>
      <trkpt lat="44.91672" lon="5.77705">
        <ele>915.20001220703</ele>
        <time>2026-07-05T09:54:42.000Z</time>
      </trkpt>
      <trkpt lat="44.9167" lon="5.77703">
        <ele>915.20001220703</ele>
        <time>2026-07-05T09:54:43.000Z</time>
      </trkpt>
      <trkpt lat="44.91669" lon="5.77701">
        <ele>915.20001220703</ele>
        <time>2026-07-05T09:54:44.000Z</time>
      </trkpt>
      <trkpt lat="44.91667" lon="5.77698">
        <ele>915</ele>
        <time>2026-07-05T09:54:45.000Z</time>
      </trkpt>
      <trkpt lat="44.91666" lon="5.77696">
        <ele>915</ele>
        <time>2026-07-05T09:54:46.000Z</time>
      </trkpt>
      <trkpt lat="44.91664" lon="5.77694">
        <ele>915.20001220703</ele>
        <time>2026-07-05T09:54:47.000Z</time>
      </trkpt>
      <trkpt lat="44.91662" lon="5.77691">
        <ele>915.20001220703</ele>
        <time>2026-07-05T09:54:48.000Z</time>
      </trkpt>
      <trkpt lat="44.9166" lon="5.77689">
        <ele>915</ele>
        <time>2026-07-05T09:54:49.000Z</time>
      </trkpt>
      <trkpt lat="44.91658" lon="5.77687">
        <ele>915</ele>
        <time>2026-07-05T09:54:50.000Z</time>
      </trkpt>
      <trkpt lat="44.91656" lon="5.77686">
        <ele>914.20001220703</ele>
        <time>2026-07-05T09:54:51.000Z</time>
      </trkpt>
      <trkpt lat="44.91654" lon="5.77684">
        <ele>913.79998779297</ele>
        <time>2026-07-05T09:54:52.000Z</time>
      </trkpt>
      <trkpt lat="44.91651" lon="5.77683">
        <ele>913.79998779297</ele>
        <time>2026-07-05T09:54:53.000Z</time>
      </trkpt>
      <trkpt lat="44.91649" lon="5.77682">
        <ele>914</ele>
        <time>2026-07-05T09:54:54.000Z</time>
      </trkpt>
      <trkpt lat="44.91646" lon="5.77681">
        <ele>914.20001220703</ele>
        <time>2026-07-05T09:54:55.000Z</time>
      </trkpt>
      <trkpt lat="44.91644" lon="5.7768">
        <ele>914.40002441406</ele>
        <time>2026-07-05T09:54:56.000Z</time>
      </trkpt>
      <trkpt lat="44.91641" lon="5.77678">
        <ele>914.79998779297</ele>
        <time>2026-07-05T09:54:57.000Z</time>
      </trkpt>
      <trkpt lat="44.91638" lon="5.77678">
        <ele>915.20001220703</ele>
        <time>2026-07-05T09:54:58.000Z</time>
      </trkpt>
      <trkpt lat="44.91635" lon="5.77677">
        <ele>915.20001220703</ele>
        <time>2026-07-05T09:54:59.000Z</time>
      </trkpt>
      <trkpt lat="44.91632" lon="5.77677">
        <ele>915.20001220703</ele>
        <time>2026-07-05T09:55:00.000Z</time>
      </trkpt>
      <trkpt lat="44.9163" lon="5.77678">
        <ele>915.20001220703</ele>
        <time>2026-07-05T09:55:01.000Z</time>
      </trkpt>
      <trkpt lat="44.91627" lon="5.77679">
        <ele>915.20001220703</ele>
        <time>2026-07-05T09:55:02.000Z</time>
      </trkpt>
      <trkpt lat="44.91625" lon="5.7768">
        <ele>915</ele>
        <time>2026-07-05T09:55:03.000Z</time>
      </trkpt>
      <trkpt lat="44.91623" lon="5.77681">
        <ele>914.40002441406</ele>
        <time>2026-07-05T09:55:04.000Z</time>
      </trkpt>
      <trkpt lat="44.9162" lon="5.77682">
        <ele>914</ele>
        <time>2026-07-05T09:55:05.000Z</time>
      </trkpt>
      <trkpt lat="44.91618" lon="5.77683">
        <ele>913.40002441406</ele>
        <time>2026-07-05T09:55:06.000Z</time>
      </trkpt>
      <trkpt lat="44.91615" lon="5.77684">
        <ele>912.79998779297</ele>
        <time>2026-07-05T09:55:07.000Z</time>
      </trkpt>
      <trkpt lat="44.91613" lon="5.77686">
        <ele>912.20001220703</ele>
        <time>2026-07-05T09:55:08.000Z</time>
      </trkpt>
      <trkpt lat="44.9161" lon="5.77687">
        <ele>911.59997558594</ele>
        <time>2026-07-05T09:55:09.000Z</time>
      </trkpt>
      <trkpt lat="44.91608" lon="5.77688">
        <ele>911.40002441406</ele>
        <time>2026-07-05T09:55:10.000Z</time>
      </trkpt>
      <trkpt lat="44.91606" lon="5.77688">
        <ele>911.40002441406</ele>
        <time>2026-07-05T09:55:11.000Z</time>
      </trkpt>
      <trkpt lat="44.91603" lon="5.77688">
        <ele>911.40002441406</ele>
        <time>2026-07-05T09:55:12.000Z</time>
      </trkpt>
      <trkpt lat="44.916" lon="5.77688">
        <ele>911.59997558594</ele>
        <time>2026-07-05T09:55:13.000Z</time>
      </trkpt>
      <trkpt lat="44.91598" lon="5.77687">
        <ele>911.79998779297</ele>
        <time>2026-07-05T09:55:14.000Z</time>
      </trkpt>
      <trkpt lat="44.91596" lon="5.77687">
        <ele>912.40002441406</ele>
        <time>2026-07-05T09:55:15.000Z</time>
      </trkpt>
      <trkpt lat="44.91593" lon="5.77686">
        <ele>912.59997558594</ele>
        <time>2026-07-05T09:55:16.000Z</time>
      </trkpt>
      <trkpt lat="44.91591" lon="5.77685">
        <ele>912.79998779297</ele>
        <time>2026-07-05T09:55:17.000Z</time>
      </trkpt>
      <trkpt lat="44.91589" lon="5.77684">
        <ele>913</ele>
        <time>2026-07-05T09:55:18.000Z</time>
      </trkpt>
      <trkpt lat="44.91587" lon="5.77684">
        <ele>913.20001220703</ele>
        <time>2026-07-05T09:55:19.000Z</time>
      </trkpt>
      <trkpt lat="44.91585" lon="5.77683">
        <ele>913.59997558594</ele>
        <time>2026-07-05T09:55:20.000Z</time>
      </trkpt>
      <trkpt lat="44.91583" lon="5.77682">
        <ele>914.20001220703</ele>
        <time>2026-07-05T09:55:21.000Z</time>
      </trkpt>
      <trkpt lat="44.91581" lon="5.77681">
        <ele>914.59997558594</ele>
        <time>2026-07-05T09:55:22.000Z</time>
      </trkpt>
      <trkpt lat="44.91579" lon="5.77681">
        <ele>914.40002441406</ele>
        <time>2026-07-05T09:55:23.000Z</time>
      </trkpt>
      <trkpt lat="44.91577" lon="5.7768">
        <ele>914.40002441406</ele>
        <time>2026-07-05T09:55:24.000Z</time>
      </trkpt>
      <trkpt lat="44.91575" lon="5.77679">
        <ele>914.40002441406</ele>
        <time>2026-07-05T09:55:25.000Z</time>
      </trkpt>
      <trkpt lat="44.91573" lon="5.77679">
        <ele>914.59997558594</ele>
        <time>2026-07-05T09:55:26.000Z</time>
      </trkpt>
      <trkpt lat="44.91571" lon="5.77678">
        <ele>914.59997558594</ele>
        <time>2026-07-05T09:55:27.000Z</time>
      </trkpt>
      <trkpt lat="44.91569" lon="5.77677">
        <ele>914.79998779297</ele>
        <time>2026-07-05T09:55:28.000Z</time>
      </trkpt>
      <trkpt lat="44.91567" lon="5.77676">
        <ele>916</ele>
        <time>2026-07-05T09:55:29.000Z</time>
      </trkpt>
      <trkpt lat="44.91565" lon="5.77675">
        <ele>916.59997558594</ele>
        <time>2026-07-05T09:55:30.000Z</time>
      </trkpt>
      <trkpt lat="44.91563" lon="5.77675">
        <ele>916.40002441406</ele>
        <time>2026-07-05T09:55:31.000Z</time>
      </trkpt>
      <trkpt lat="44.91561" lon="5.77674">
        <ele>916.40002441406</ele>
        <time>2026-07-05T09:55:32.000Z</time>
      </trkpt>
      <trkpt lat="44.91559" lon="5.77673">
        <ele>915.79998779297</ele>
        <time>2026-07-05T09:55:33.000Z</time>
      </trkpt>
      <trkpt lat="44.91558" lon="5.77671">
        <ele>915.40002441406</ele>
        <time>2026-07-05T09:55:34.000Z</time>
      </trkpt>
      <trkpt lat="44.91556" lon="5.77669">
        <ele>915.20001220703</ele>
        <time>2026-07-05T09:55:35.000Z</time>
      </trkpt>
      <trkpt lat="44.91555" lon="5.77667">
        <ele>915.20001220703</ele>
        <time>2026-07-05T09:55:36.000Z</time>
      </trkpt>
      <trkpt lat="44.91553" lon="5.77664">
        <ele>915.20001220703</ele>
        <time>2026-07-05T09:55:37.000Z</time>
      </trkpt>
      <trkpt lat="44.91552" lon="5.77662">
        <ele>915.20001220703</ele>
        <time>2026-07-05T09:55:38.000Z</time>
      </trkpt>
      <trkpt lat="44.91551" lon="5.77659">
        <ele>915.20001220703</ele>
        <time>2026-07-05T09:55:39.000Z</time>
      </trkpt>
      <trkpt lat="44.9155" lon="5.77657">
        <ele>915.59997558594</ele>
        <time>2026-07-05T09:55:40.000Z</time>
      </trkpt>
      <trkpt lat="44.91548" lon="5.77654">
        <ele>915.79998779297</ele>
        <time>2026-07-05T09:55:41.000Z</time>
      </trkpt>
      <trkpt lat="44.91547" lon="5.77651">
        <ele>916</ele>
        <time>2026-07-05T09:55:42.000Z</time>
      </trkpt>
      <trkpt lat="44.91546" lon="5.77649">
        <ele>916.40002441406</ele>
        <time>2026-07-05T09:55:43.000Z</time>
      </trkpt>
      <trkpt lat="44.91545" lon="5.77647">
        <ele>916.79998779297</ele>
        <time>2026-07-05T09:55:44.000Z</time>
      </trkpt>
      <trkpt lat="44.91544" lon="5.77644">
        <ele>916.79998779297</ele>
        <time>2026-07-05T09:55:45.000Z</time>
      </trkpt>
      <trkpt lat="44.91543" lon="5.77642">
        <ele>916.79998779297</ele>
        <time>2026-07-05T09:55:46.000Z</time>
      </trkpt>
      <trkpt lat="44.91542" lon="5.77639">
        <ele>916.79998779297</ele>
        <time>2026-07-05T09:55:47.000Z</time>
      </trkpt>
      <trkpt lat="44.9154" lon="5.77637">
        <ele>916.59997558594</ele>
        <time>2026-07-05T09:55:48.000Z</time>
      </trkpt>
      <trkpt lat="44.91539" lon="5.77635">
        <ele>916.40002441406</ele>
        <time>2026-07-05T09:55:49.000Z</time>
      </trkpt>
      <trkpt lat="44.91537" lon="5.77633">
        <ele>916.40002441406</ele>
        <time>2026-07-05T09:55:50.000Z</time>
      </trkpt>
      <trkpt lat="44.91535" lon="5.77631">
        <ele>916.40002441406</ele>
        <time>2026-07-05T09:55:51.000Z</time>
      </trkpt>
      <trkpt lat="44.91533" lon="5.77631">
        <ele>916.59997558594</ele>
        <time>2026-07-05T09:55:52.000Z</time>
      </trkpt>
      <trkpt lat="44.91532" lon="5.77631">
        <ele>916.79998779297</ele>
        <time>2026-07-05T09:55:53.000Z</time>
      </trkpt>
      <trkpt lat="44.9153" lon="5.77632">
        <ele>917.20001220703</ele>
        <time>2026-07-05T09:55:54.000Z</time>
      </trkpt>
      <trkpt lat="44.91529" lon="5.77634">
        <ele>917.40002441406</ele>
        <time>2026-07-05T09:55:55.000Z</time>
      </trkpt>
      <trkpt lat="44.91528" lon="5.77637">
        <ele>917.79998779297</ele>
        <time>2026-07-05T09:55:56.000Z</time>
      </trkpt>
      <trkpt lat="44.91527" lon="5.77639">
        <ele>917.79998779297</ele>
        <time>2026-07-05T09:55:57.000Z</time>
      </trkpt>
      <trkpt lat="44.91527" lon="5.77642">
        <ele>918</ele>
        <time>2026-07-05T09:55:58.000Z</time>
      </trkpt>
      <trkpt lat="44.91527" lon="5.77645">
        <ele>917.79998779297</ele>
        <time>2026-07-05T09:55:59.000Z</time>
      </trkpt>
      <trkpt lat="44.91528" lon="5.77649">
        <ele>917.59997558594</ele>
        <time>2026-07-05T09:56:00.000Z</time>
      </trkpt>
      <trkpt lat="44.91527" lon="5.77652">
        <ele>917.40002441406</ele>
        <time>2026-07-05T09:56:01.000Z</time>
      </trkpt>
      <trkpt lat="44.91527" lon="5.77656">
        <ele>917.40002441406</ele>
        <time>2026-07-05T09:56:02.000Z</time>
      </trkpt>
      <trkpt lat="44.91525" lon="5.77659">
        <ele>917</ele>
        <time>2026-07-05T09:56:03.000Z</time>
      </trkpt>
      <trkpt lat="44.91523" lon="5.7766">
        <ele>916.59997558594</ele>
        <time>2026-07-05T09:56:04.000Z</time>
      </trkpt>
      <trkpt lat="44.91521" lon="5.7766">
        <ele>916.40002441406</ele>
        <time>2026-07-05T09:56:05.000Z</time>
      </trkpt>
      <trkpt lat="44.91519" lon="5.7766">
        <ele>916.40002441406</ele>
        <time>2026-07-05T09:56:06.000Z</time>
      </trkpt>
      <trkpt lat="44.91517" lon="5.7766">
        <ele>916.40002441406</ele>
        <time>2026-07-05T09:56:07.000Z</time>
      </trkpt>
      <trkpt lat="44.91516" lon="5.77659">
        <ele>916.59997558594</ele>
        <time>2026-07-05T09:56:08.000Z</time>
      </trkpt>
      <trkpt lat="44.91515" lon="5.77658">
        <ele>916.59997558594</ele>
        <time>2026-07-05T09:56:09.000Z</time>
      </trkpt>
      <trkpt lat="44.91514" lon="5.77657">
        <ele>916.59997558594</ele>
        <time>2026-07-05T09:56:10.000Z</time>
      </trkpt>
      <trkpt lat="44.91512" lon="5.77656">
        <ele>916.79998779297</ele>
        <time>2026-07-05T09:56:11.000Z</time>
      </trkpt>
      <trkpt lat="44.91511" lon="5.77654">
        <ele>916.79998779297</ele>
        <time>2026-07-05T09:56:12.000Z</time>
      </trkpt>
      <trkpt lat="44.9151" lon="5.77654">
        <ele>916.79998779297</ele>
        <time>2026-07-05T09:56:13.000Z</time>
      </trkpt>
      <trkpt lat="44.91509" lon="5.77652">
        <ele>916.79998779297</ele>
        <time>2026-07-05T09:56:14.000Z</time>
      </trkpt>
      <trkpt lat="44.91508" lon="5.77651">
        <ele>917</ele>
        <time>2026-07-05T09:56:15.000Z</time>
      </trkpt>
      <trkpt lat="44.91507" lon="5.7765">
        <ele>917</ele>
        <time>2026-07-05T09:56:16.000Z</time>
      </trkpt>
      <trkpt lat="44.91506" lon="5.77649">
        <ele>917.20001220703</ele>
        <time>2026-07-05T09:56:17.000Z</time>
      </trkpt>
      <trkpt lat="44.91505" lon="5.77648">
        <ele>917.20001220703</ele>
        <time>2026-07-05T09:56:18.000Z</time>
      </trkpt>
      <trkpt lat="44.91504" lon="5.77648">
        <ele>917.20001220703</ele>
        <time>2026-07-05T09:56:19.000Z</time>
      </trkpt>
      <trkpt lat="44.91503" lon="5.77647">
        <ele>917.40002441406</ele>
        <time>2026-07-05T09:56:20.000Z</time>
      </trkpt>
      <trkpt lat="44.91501" lon="5.77646">
        <ele>917.40002441406</ele>
        <time>2026-07-05T09:56:21.000Z</time>
      </trkpt>
      <trkpt lat="44.915" lon="5.77646">
        <ele>917.40002441406</ele>
        <time>2026-07-05T09:56:22.000Z</time>
      </trkpt>
      <trkpt lat="44.91499" lon="5.77646">
        <ele>917.79998779297</ele>
        <time>2026-07-05T09:56:23.000Z</time>
      </trkpt>
      <trkpt lat="44.91497" lon="5.77646">
        <ele>918</ele>
        <time>2026-07-05T09:56:24.000Z</time>
      </trkpt>
      <trkpt lat="44.91497" lon="5.77647">
        <ele>918</ele>
        <time>2026-07-05T09:56:25.000Z</time>
      </trkpt>
      <trkpt lat="44.91497" lon="5.77649">
        <ele>918.40002441406</ele>
        <time>2026-07-05T09:56:26.000Z</time>
      </trkpt>
      <trkpt lat="44.91497" lon="5.7765">
        <ele>918.59997558594</ele>
        <time>2026-07-05T09:56:27.000Z</time>
      </trkpt>
      <trkpt lat="44.91496" lon="5.77651">
        <ele>918.79998779297</ele>
        <time>2026-07-05T09:56:28.000Z</time>
      </trkpt>
      <trkpt lat="44.91496" lon="5.77652">
        <ele>918.79998779297</ele>
        <time>2026-07-05T09:56:29.000Z</time>
      </trkpt>
      <trkpt lat="44.91496" lon="5.77653">
        <ele>919</ele>
        <time>2026-07-05T09:56:30.000Z</time>
      </trkpt>
      <trkpt lat="44.91496" lon="5.77654">
        <ele>919.20001220703</ele>
        <time>2026-07-05T09:56:31.000Z</time>
      </trkpt>
      <trkpt lat="44.91496" lon="5.77656">
        <ele>919.40002441406</ele>
        <time>2026-07-05T09:56:32.000Z</time>
      </trkpt>
      <trkpt lat="44.91496" lon="5.77657">
        <ele>919.59997558594</ele>
        <time>2026-07-05T09:56:33.000Z</time>
      </trkpt>
      <trkpt lat="44.91496" lon="5.77659">
        <ele>919.59997558594</ele>
        <time>2026-07-05T09:56:34.000Z</time>
      </trkpt>
      <trkpt lat="44.91495" lon="5.77661">
        <ele>920</ele>
        <time>2026-07-05T09:56:35.000Z</time>
      </trkpt>
      <trkpt lat="44.91495" lon="5.77662">
        <ele>920.20001220703</ele>
        <time>2026-07-05T09:56:36.000Z</time>
      </trkpt>
      <trkpt lat="44.91495" lon="5.77663">
        <ele>920.59997558594</ele>
        <time>2026-07-05T09:56:37.000Z</time>
      </trkpt>
      <trkpt lat="44.91495" lon="5.77664">
        <ele>920.79998779297</ele>
        <time>2026-07-05T09:56:38.000Z</time>
      </trkpt>
      <trkpt lat="44.91495" lon="5.77665">
        <ele>921</ele>
        <time>2026-07-05T09:56:39.000Z</time>
      </trkpt>
      <trkpt lat="44.91495" lon="5.77667">
        <ele>921.20001220703</ele>
        <time>2026-07-05T09:56:40.000Z</time>
      </trkpt>
      <trkpt lat="44.91495" lon="5.77668">
        <ele>921.40002441406</ele>
        <time>2026-07-05T09:56:41.000Z</time>
      </trkpt>
      <trkpt lat="44.91495" lon="5.7767">
        <ele>921.59997558594</ele>
        <time>2026-07-05T09:56:42.000Z</time>
      </trkpt>
      <trkpt lat="44.91495" lon="5.77671">
        <ele>921.59997558594</ele>
        <time>2026-07-05T09:56:43.000Z</time>
      </trkpt>
      <trkpt lat="44.91495" lon="5.77672">
        <ele>921.79998779297</ele>
        <time>2026-07-05T09:56:44.000Z</time>
      </trkpt>
      <trkpt lat="44.91495" lon="5.77674">
        <ele>921.79998779297</ele>
        <time>2026-07-05T09:56:45.000Z</time>
      </trkpt>
      <trkpt lat="44.91495" lon="5.77675">
        <ele>922</ele>
        <time>2026-07-05T09:56:46.000Z</time>
      </trkpt>
      <trkpt lat="44.91495" lon="5.77677">
        <ele>922</ele>
        <time>2026-07-05T09:56:47.000Z</time>
      </trkpt>
      <trkpt lat="44.91495" lon="5.77678">
        <ele>922.20001220703</ele>
        <time>2026-07-05T09:56:48.000Z</time>
      </trkpt>
      <trkpt lat="44.91495" lon="5.7768">
        <ele>922.40002441406</ele>
        <time>2026-07-05T09:56:49.000Z</time>
      </trkpt>
      <trkpt lat="44.91495" lon="5.77682">
        <ele>922.40002441406</ele>
        <time>2026-07-05T09:56:50.000Z</time>
      </trkpt>
      <trkpt lat="44.91495" lon="5.77683">
        <ele>922.59997558594</ele>
        <time>2026-07-05T09:56:51.000Z</time>
      </trkpt>
      <trkpt lat="44.91494" lon="5.77684">
        <ele>922.59997558594</ele>
        <time>2026-07-05T09:56:52.000Z</time>
      </trkpt>
      <trkpt lat="44.91494" lon="5.77685">
        <ele>922.59997558594</ele>
        <time>2026-07-05T09:56:53.000Z</time>
      </trkpt>
      <trkpt lat="44.91494" lon="5.77686">
        <ele>922.79998779297</ele>
        <time>2026-07-05T09:56:54.000Z</time>
      </trkpt>
      <trkpt lat="44.91494" lon="5.77687">
        <ele>922.79998779297</ele>
        <time>2026-07-05T09:56:55.000Z</time>
      </trkpt>
      <trkpt lat="44.91495" lon="5.77689">
        <ele>922.79998779297</ele>
        <time>2026-07-05T09:56:56.000Z</time>
      </trkpt>
      <trkpt lat="44.91494" lon="5.7769">
        <ele>923.20001220703</ele>
        <time>2026-07-05T09:56:57.000Z</time>
      </trkpt>
      <trkpt lat="44.91494" lon="5.77692">
        <ele>923.59997558594</ele>
        <time>2026-07-05T09:56:58.000Z</time>
      </trkpt>
      <trkpt lat="44.91494" lon="5.77693">
        <ele>923.79998779297</ele>
        <time>2026-07-05T09:56:59.000Z</time>
      </trkpt>
      <trkpt lat="44.91494" lon="5.77694">
        <ele>924.20001220703</ele>
        <time>2026-07-05T09:57:00.000Z</time>
      </trkpt>
      <trkpt lat="44.91493" lon="5.77695">
        <ele>924.40002441406</ele>
        <time>2026-07-05T09:57:01.000Z</time>
      </trkpt>
      <trkpt lat="44.91493" lon="5.77697">
        <ele>924.79998779297</ele>
        <time>2026-07-05T09:57:02.000Z</time>
      </trkpt>
      <trkpt lat="44.91493" lon="5.77698">
        <ele>925</ele>
        <time>2026-07-05T09:57:03.000Z</time>
      </trkpt>
      <trkpt lat="44.91493" lon="5.77699">
        <ele>925.20001220703</ele>
        <time>2026-07-05T09:57:04.000Z</time>
      </trkpt>
      <trkpt lat="44.91493" lon="5.77701">
        <ele>925.40002441406</ele>
        <time>2026-07-05T09:57:05.000Z</time>
      </trkpt>
      <trkpt lat="44.91493" lon="5.77702">
        <ele>925.40002441406</ele>
        <time>2026-07-05T09:57:06.000Z</time>
      </trkpt>
      <trkpt lat="44.91493" lon="5.77704">
        <ele>925.59997558594</ele>
        <time>2026-07-05T09:57:07.000Z</time>
      </trkpt>
      <trkpt lat="44.91492" lon="5.77705">
        <ele>925.79998779297</ele>
        <time>2026-07-05T09:57:08.000Z</time>
      </trkpt>
      <trkpt lat="44.91492" lon="5.77706">
        <ele>926</ele>
        <time>2026-07-05T09:57:09.000Z</time>
      </trkpt>
      <trkpt lat="44.91492" lon="5.77707">
        <ele>926.20001220703</ele>
        <time>2026-07-05T09:57:10.000Z</time>
      </trkpt>
      <trkpt lat="44.91492" lon="5.77709">
        <ele>926.20001220703</ele>
        <time>2026-07-05T09:57:11.000Z</time>
      </trkpt>
      <trkpt lat="44.91492" lon="5.77711">
        <ele>926.40002441406</ele>
        <time>2026-07-05T09:57:12.000Z</time>
      </trkpt>
      <trkpt lat="44.91492" lon="5.77712">
        <ele>926.59997558594</ele>
        <time>2026-07-05T09:57:13.000Z</time>
      </trkpt>
      <trkpt lat="44.91491" lon="5.77714">
        <ele>926.79998779297</ele>
        <time>2026-07-05T09:57:14.000Z</time>
      </trkpt>
      <trkpt lat="44.91491" lon="5.77715">
        <ele>926.79998779297</ele>
        <time>2026-07-05T09:57:15.000Z</time>
      </trkpt>
      <trkpt lat="44.91492" lon="5.77717">
        <ele>927</ele>
        <time>2026-07-05T09:57:16.000Z</time>
      </trkpt>
      <trkpt lat="44.91492" lon="5.77718">
        <ele>927.20001220703</ele>
        <time>2026-07-05T09:57:17.000Z</time>
      </trkpt>
      <trkpt lat="44.91492" lon="5.77719">
        <ele>927.20001220703</ele>
        <time>2026-07-05T09:57:18.000Z</time>
      </trkpt>
      <trkpt lat="44.91492" lon="5.77721">
        <ele>927.59997558594</ele>
        <time>2026-07-05T09:57:19.000Z</time>
      </trkpt>
      <trkpt lat="44.91492" lon="5.77723">
        <ele>927.59997558594</ele>
        <time>2026-07-05T09:57:20.000Z</time>
      </trkpt>
      <trkpt lat="44.91492" lon="5.77725">
        <ele>927.79998779297</ele>
        <time>2026-07-05T09:57:21.000Z</time>
      </trkpt>
      <trkpt lat="44.91492" lon="5.77726">
        <ele>928</ele>
        <time>2026-07-05T09:57:22.000Z</time>
      </trkpt>
      <trkpt lat="44.91492" lon="5.77728">
        <ele>928</ele>
        <time>2026-07-05T09:57:23.000Z</time>
      </trkpt>
      <trkpt lat="44.91491" lon="5.77729">
        <ele>928.20001220703</ele>
        <time>2026-07-05T09:57:24.000Z</time>
      </trkpt>
      <trkpt lat="44.91491" lon="5.77731">
        <ele>928.40002441406</ele>
        <time>2026-07-05T09:57:25.000Z</time>
      </trkpt>
      <trkpt lat="44.91491" lon="5.77733">
        <ele>928.59997558594</ele>
        <time>2026-07-05T09:57:26.000Z</time>
      </trkpt>
      <trkpt lat="44.91491" lon="5.77735">
        <ele>928.59997558594</ele>
        <time>2026-07-05T09:57:27.000Z</time>
      </trkpt>
      <trkpt lat="44.91491" lon="5.77737">
        <ele>928.79998779297</ele>
        <time>2026-07-05T09:57:28.000Z</time>
      </trkpt>
      <trkpt lat="44.9149" lon="5.77738">
        <ele>929</ele>
        <time>2026-07-05T09:57:29.000Z</time>
      </trkpt>
      <trkpt lat="44.9149" lon="5.7774">
        <ele>929</ele>
        <time>2026-07-05T09:57:30.000Z</time>
      </trkpt>
      <trkpt lat="44.9149" lon="5.77742">
        <ele>929.20001220703</ele>
        <time>2026-07-05T09:57:31.000Z</time>
      </trkpt>
      <trkpt lat="44.91489" lon="5.77744">
        <ele>928</ele>
        <time>2026-07-05T09:57:32.000Z</time>
      </trkpt>
      <trkpt lat="44.91489" lon="5.77746">
        <ele>927</ele>
        <time>2026-07-05T09:57:33.000Z</time>
      </trkpt>
      <trkpt lat="44.91489" lon="5.77748">
        <ele>925.79998779297</ele>
        <time>2026-07-05T09:57:34.000Z</time>
      </trkpt>
      <trkpt lat="44.91489" lon="5.77749">
        <ele>924.79998779297</ele>
        <time>2026-07-05T09:57:35.000Z</time>
      </trkpt>
      <trkpt lat="44.91488" lon="5.77751">
        <ele>923.59997558594</ele>
        <time>2026-07-05T09:57:36.000Z</time>
      </trkpt>
      <trkpt lat="44.91488" lon="5.77752">
        <ele>923.59997558594</ele>
        <time>2026-07-05T09:57:37.000Z</time>
      </trkpt>
      <trkpt lat="44.91488" lon="5.77754">
        <ele>923.59997558594</ele>
        <time>2026-07-05T09:57:38.000Z</time>
      </trkpt>
      <trkpt lat="44.91487" lon="5.77756">
        <ele>923.59997558594</ele>
        <time>2026-07-05T09:57:39.000Z</time>
      </trkpt>
      <trkpt lat="44.91487" lon="5.77757">
        <ele>923.59997558594</ele>
        <time>2026-07-05T09:57:40.000Z</time>
      </trkpt>
      <trkpt lat="44.91486" lon="5.77759">
        <ele>923.79998779297</ele>
        <time>2026-07-05T09:57:41.000Z</time>
      </trkpt>
      <trkpt lat="44.91485" lon="5.77761">
        <ele>924.20001220703</ele>
        <time>2026-07-05T09:57:42.000Z</time>
      </trkpt>
      <trkpt lat="44.91484" lon="5.77763">
        <ele>924.40002441406</ele>
        <time>2026-07-05T09:57:43.000Z</time>
      </trkpt>
      <trkpt lat="44.91484" lon="5.77764">
        <ele>924.59997558594</ele>
        <time>2026-07-05T09:57:44.000Z</time>
      </trkpt>
      <trkpt lat="44.91483" lon="5.77766">
        <ele>924.79998779297</ele>
        <time>2026-07-05T09:57:45.000Z</time>
      </trkpt>
      <trkpt lat="44.91483" lon="5.77767">
        <ele>925</ele>
        <time>2026-07-05T09:57:46.000Z</time>
      </trkpt>
      <trkpt lat="44.91482" lon="5.77769">
        <ele>925.40002441406</ele>
        <time>2026-07-05T09:57:47.000Z</time>
      </trkpt>
      <trkpt lat="44.91482" lon="5.7777">
        <ele>925.59997558594</ele>
        <time>2026-07-05T09:57:48.000Z</time>
      </trkpt>
      <trkpt lat="44.91481" lon="5.77771">
        <ele>926</ele>
        <time>2026-07-05T09:57:49.000Z</time>
      </trkpt>
      <trkpt lat="44.91481" lon="5.77772">
        <ele>926.20001220703</ele>
        <time>2026-07-05T09:57:50.000Z</time>
      </trkpt>
      <trkpt lat="44.9148" lon="5.77774">
        <ele>926.40002441406</ele>
        <time>2026-07-05T09:57:51.000Z</time>
      </trkpt>
      <trkpt lat="44.91479" lon="5.77775">
        <ele>926.59997558594</ele>
        <time>2026-07-05T09:57:52.000Z</time>
      </trkpt>
      <trkpt lat="44.91478" lon="5.77777">
        <ele>926.79998779297</ele>
        <time>2026-07-05T09:57:53.000Z</time>
      </trkpt>
      <trkpt lat="44.91478" lon="5.77778">
        <ele>927</ele>
        <time>2026-07-05T09:57:54.000Z</time>
      </trkpt>
      <trkpt lat="44.91477" lon="5.7778">
        <ele>927</ele>
        <time>2026-07-05T09:57:55.000Z</time>
      </trkpt>
      <trkpt lat="44.91476" lon="5.77781">
        <ele>927.20001220703</ele>
        <time>2026-07-05T09:57:56.000Z</time>
      </trkpt>
      <trkpt lat="44.91475" lon="5.77783">
        <ele>927.20001220703</ele>
        <time>2026-07-05T09:57:57.000Z</time>
      </trkpt>
      <trkpt lat="44.91475" lon="5.77785">
        <ele>927.20001220703</ele>
        <time>2026-07-05T09:57:58.000Z</time>
      </trkpt>
      <trkpt lat="44.91474" lon="5.77787">
        <ele>927.20001220703</ele>
        <time>2026-07-05T09:57:59.000Z</time>
      </trkpt>
      <trkpt lat="44.91474" lon="5.77788">
        <ele>927.20001220703</ele>
        <time>2026-07-05T09:58:00.000Z</time>
      </trkpt>
      <trkpt lat="44.91473" lon="5.7779">
        <ele>927.20001220703</ele>
        <time>2026-07-05T09:58:01.000Z</time>
      </trkpt>
      <trkpt lat="44.91472" lon="5.77792">
        <ele>927.40002441406</ele>
        <time>2026-07-05T09:58:02.000Z</time>
      </trkpt>
      <trkpt lat="44.91471" lon="5.77793">
        <ele>927.59997558594</ele>
        <time>2026-07-05T09:58:03.000Z</time>
      </trkpt>
      <trkpt lat="44.9147" lon="5.77794">
        <ele>927.79998779297</ele>
        <time>2026-07-05T09:58:04.000Z</time>
      </trkpt>
      <trkpt lat="44.91469" lon="5.77796">
        <ele>928.20001220703</ele>
        <time>2026-07-05T09:58:05.000Z</time>
      </trkpt>
      <trkpt lat="44.91468" lon="5.77797">
        <ele>928.59997558594</ele>
        <time>2026-07-05T09:58:06.000Z</time>
      </trkpt>
      <trkpt lat="44.91467" lon="5.77798">
        <ele>929</ele>
        <time>2026-07-05T09:58:07.000Z</time>
      </trkpt>
      <trkpt lat="44.91466" lon="5.77799">
        <ele>929.40002441406</ele>
        <time>2026-07-05T09:58:08.000Z</time>
      </trkpt>
      <trkpt lat="44.91466" lon="5.778">
        <ele>929.59997558594</ele>
        <time>2026-07-05T09:58:09.000Z</time>
      </trkpt>
      <trkpt lat="44.91465" lon="5.77801">
        <ele>930</ele>
        <time>2026-07-05T09:58:10.000Z</time>
      </trkpt>
      <trkpt lat="44.91464" lon="5.77803">
        <ele>930.20001220703</ele>
        <time>2026-07-05T09:58:11.000Z</time>
      </trkpt>
      <trkpt lat="44.91463" lon="5.77803">
        <ele>930.59997558594</ele>
        <time>2026-07-05T09:58:12.000Z</time>
      </trkpt>
      <trkpt lat="44.91463" lon="5.77804">
        <ele>931</ele>
        <time>2026-07-05T09:58:13.000Z</time>
      </trkpt>
      <trkpt lat="44.91463" lon="5.77806">
        <ele>931.40002441406</ele>
        <time>2026-07-05T09:58:14.000Z</time>
      </trkpt>
      <trkpt lat="44.91462" lon="5.77807">
        <ele>931.59997558594</ele>
        <time>2026-07-05T09:58:15.000Z</time>
      </trkpt>
      <trkpt lat="44.91461" lon="5.77808">
        <ele>932</ele>
        <time>2026-07-05T09:58:16.000Z</time>
      </trkpt>
      <trkpt lat="44.91461" lon="5.77809">
        <ele>932.20001220703</ele>
        <time>2026-07-05T09:58:17.000Z</time>
      </trkpt>
      <trkpt lat="44.9146" lon="5.7781">
        <ele>932.40002441406</ele>
        <time>2026-07-05T09:58:18.000Z</time>
      </trkpt>
      <trkpt lat="44.91459" lon="5.77811">
        <ele>932.59997558594</ele>
        <time>2026-07-05T09:58:19.000Z</time>
      </trkpt>
      <trkpt lat="44.91458" lon="5.77812">
        <ele>932.79998779297</ele>
        <time>2026-07-05T09:58:20.000Z</time>
      </trkpt>
      <trkpt lat="44.91458" lon="5.77813">
        <ele>933</ele>
        <time>2026-07-05T09:58:21.000Z</time>
      </trkpt>
      <trkpt lat="44.91457" lon="5.77814">
        <ele>933.20001220703</ele>
        <time>2026-07-05T09:58:22.000Z</time>
      </trkpt>
      <trkpt lat="44.91457" lon="5.77815">
        <ele>933.40002441406</ele>
        <time>2026-07-05T09:58:23.000Z</time>
      </trkpt>
      <trkpt lat="44.91456" lon="5.77816">
        <ele>933.40002441406</ele>
        <time>2026-07-05T09:58:24.000Z</time>
      </trkpt>
      <trkpt lat="44.91456" lon="5.77817">
        <ele>933.59997558594</ele>
        <time>2026-07-05T09:58:25.000Z</time>
      </trkpt>
      <trkpt lat="44.91455" lon="5.77819">
        <ele>933.79998779297</ele>
        <time>2026-07-05T09:58:26.000Z</time>
      </trkpt>
      <trkpt lat="44.91454" lon="5.7782">
        <ele>933.79998779297</ele>
        <time>2026-07-05T09:58:27.000Z</time>
      </trkpt>
      <trkpt lat="44.91454" lon="5.77821">
        <ele>934</ele>
        <time>2026-07-05T09:58:28.000Z</time>
      </trkpt>
      <trkpt lat="44.91453" lon="5.77822">
        <ele>934</ele>
        <time>2026-07-05T09:58:29.000Z</time>
      </trkpt>
      <trkpt lat="44.91452" lon="5.77824">
        <ele>934.20001220703</ele>
        <time>2026-07-05T09:58:30.000Z</time>
      </trkpt>
      <trkpt lat="44.91451" lon="5.77825">
        <ele>934.40002441406</ele>
        <time>2026-07-05T09:58:31.000Z</time>
      </trkpt>
      <trkpt lat="44.9145" lon="5.77826">
        <ele>934.59997558594</ele>
        <time>2026-07-05T09:58:32.000Z</time>
      </trkpt>
      <trkpt lat="44.91449" lon="5.77827">
        <ele>934.59997558594</ele>
        <time>2026-07-05T09:58:33.000Z</time>
      </trkpt>
      <trkpt lat="44.91448" lon="5.77829">
        <ele>934.59997558594</ele>
        <time>2026-07-05T09:58:34.000Z</time>
      </trkpt>
      <trkpt lat="44.91448" lon="5.7783">
        <ele>934.59997558594</ele>
        <time>2026-07-05T09:58:35.000Z</time>
      </trkpt>
      <trkpt lat="44.91447" lon="5.77831">
        <ele>934.40002441406</ele>
        <time>2026-07-05T09:58:36.000Z</time>
      </trkpt>
      <trkpt lat="44.91446" lon="5.77832">
        <ele>934.40002441406</ele>
        <time>2026-07-05T09:58:37.000Z</time>
      </trkpt>
      <trkpt lat="44.91445" lon="5.77832">
        <ele>934.20001220703</ele>
        <time>2026-07-05T09:58:38.000Z</time>
      </trkpt>
      <trkpt lat="44.91445" lon="5.77833">
        <ele>934</ele>
        <time>2026-07-05T09:58:39.000Z</time>
      </trkpt>
      <trkpt lat="44.91444" lon="5.77834">
        <ele>933.79998779297</ele>
        <time>2026-07-05T09:58:40.000Z</time>
      </trkpt>
      <trkpt lat="44.91443" lon="5.77835">
        <ele>933.59997558594</ele>
        <time>2026-07-05T09:58:41.000Z</time>
      </trkpt>
      <trkpt lat="44.91443" lon="5.77836">
        <ele>933.59997558594</ele>
        <time>2026-07-05T09:58:42.000Z</time>
      </trkpt>
      <trkpt lat="44.91442" lon="5.77837">
        <ele>933.59997558594</ele>
        <time>2026-07-05T09:58:43.000Z</time>
      </trkpt>
      <trkpt lat="44.91441" lon="5.77838">
        <ele>933.79998779297</ele>
        <time>2026-07-05T09:58:44.000Z</time>
      </trkpt>
      <trkpt lat="44.91441" lon="5.7784">
        <ele>934</ele>
        <time>2026-07-05T09:58:45.000Z</time>
      </trkpt>
      <trkpt lat="44.9144" lon="5.77841">
        <ele>934</ele>
        <time>2026-07-05T09:58:46.000Z</time>
      </trkpt>
      <trkpt lat="44.9144" lon="5.77843">
        <ele>934.40002441406</ele>
        <time>2026-07-05T09:58:47.000Z</time>
      </trkpt>
      <trkpt lat="44.91439" lon="5.77845">
        <ele>934.79998779297</ele>
        <time>2026-07-05T09:58:48.000Z</time>
      </trkpt>
      <trkpt lat="44.91439" lon="5.77846">
        <ele>935.20001220703</ele>
        <time>2026-07-05T09:58:49.000Z</time>
      </trkpt>
      <trkpt lat="44.91438" lon="5.77848">
        <ele>935.59997558594</ele>
        <time>2026-07-05T09:58:50.000Z</time>
      </trkpt>
      <trkpt lat="44.91437" lon="5.7785">
        <ele>936</ele>
        <time>2026-07-05T09:58:51.000Z</time>
      </trkpt>
      <trkpt lat="44.91436" lon="5.77853">
        <ele>936.59997558594</ele>
        <time>2026-07-05T09:58:52.000Z</time>
      </trkpt>
      <trkpt lat="44.91436" lon="5.77855">
        <ele>937</ele>
        <time>2026-07-05T09:58:53.000Z</time>
      </trkpt>
      <trkpt lat="44.91435" lon="5.77858">
        <ele>938.40002441406</ele>
        <time>2026-07-05T09:58:54.000Z</time>
      </trkpt>
      <trkpt lat="44.91435" lon="5.77861">
        <ele>939.20001220703</ele>
        <time>2026-07-05T09:58:55.000Z</time>
      </trkpt>
      <trkpt lat="44.91434" lon="5.77864">
        <ele>939.59997558594</ele>
        <time>2026-07-05T09:58:56.000Z</time>
      </trkpt>
      <trkpt lat="44.91433" lon="5.77867">
        <ele>939.79998779297</ele>
        <time>2026-07-05T09:58:57.000Z</time>
      </trkpt>
      <trkpt lat="44.91433" lon="5.7787">
        <ele>940.20001220703</ele>
        <time>2026-07-05T09:58:58.000Z</time>
      </trkpt>
      <trkpt lat="44.91432" lon="5.77872">
        <ele>940.40002441406</ele>
        <time>2026-07-05T09:58:59.000Z</time>
      </trkpt>
      <trkpt lat="44.91431" lon="5.77875">
        <ele>940</ele>
        <time>2026-07-05T09:59:00.000Z</time>
      </trkpt>
      <trkpt lat="44.9143" lon="5.77878">
        <ele>939.59997558594</ele>
        <time>2026-07-05T09:59:01.000Z</time>
      </trkpt>
      <trkpt lat="44.91429" lon="5.77881">
        <ele>939.20001220703</ele>
        <time>2026-07-05T09:59:02.000Z</time>
      </trkpt>
      <trkpt lat="44.91428" lon="5.77884">
        <ele>938.79998779297</ele>
        <time>2026-07-05T09:59:03.000Z</time>
      </trkpt>
      <trkpt lat="44.91427" lon="5.77888">
        <ele>937.59997558594</ele>
        <time>2026-07-05T09:59:04.000Z</time>
      </trkpt>
      <trkpt lat="44.91426" lon="5.77891">
        <ele>937.59997558594</ele>
        <time>2026-07-05T09:59:05.000Z</time>
      </trkpt>
      <trkpt lat="44.91426" lon="5.77893">
        <ele>937.40002441406</ele>
        <time>2026-07-05T09:59:06.000Z</time>
      </trkpt>
      <trkpt lat="44.91425" lon="5.77896">
        <ele>937</ele>
        <time>2026-07-05T09:59:07.000Z</time>
      </trkpt>
      <trkpt lat="44.91424" lon="5.77899">
        <ele>936.40002441406</ele>
        <time>2026-07-05T09:59:08.000Z</time>
      </trkpt>
      <trkpt lat="44.91423" lon="5.77902">
        <ele>936</ele>
        <time>2026-07-05T09:59:09.000Z</time>
      </trkpt>
      <trkpt lat="44.91422" lon="5.77904">
        <ele>935.20001220703</ele>
        <time>2026-07-05T09:59:10.000Z</time>
      </trkpt>
      <trkpt lat="44.91421" lon="5.77907">
        <ele>934.79998779297</ele>
        <time>2026-07-05T09:59:11.000Z</time>
      </trkpt>
      <trkpt lat="44.9142" lon="5.77909">
        <ele>934.79998779297</ele>
        <time>2026-07-05T09:59:12.000Z</time>
      </trkpt>
      <trkpt lat="44.91419" lon="5.77912">
        <ele>935</ele>
        <time>2026-07-05T09:59:13.000Z</time>
      </trkpt>
      <trkpt lat="44.91418" lon="5.77914">
        <ele>935</ele>
        <time>2026-07-05T09:59:14.000Z</time>
      </trkpt>
      <trkpt lat="44.91416" lon="5.77916">
        <ele>935.20001220703</ele>
        <time>2026-07-05T09:59:15.000Z</time>
      </trkpt>
      <trkpt lat="44.91415" lon="5.77919">
        <ele>935.40002441406</ele>
        <time>2026-07-05T09:59:16.000Z</time>
      </trkpt>
      <trkpt lat="44.91414" lon="5.77922">
        <ele>935.79998779297</ele>
        <time>2026-07-05T09:59:17.000Z</time>
      </trkpt>
      <trkpt lat="44.91413" lon="5.77925">
        <ele>936</ele>
        <time>2026-07-05T09:59:18.000Z</time>
      </trkpt>
      <trkpt lat="44.91411" lon="5.77928">
        <ele>935.79998779297</ele>
        <time>2026-07-05T09:59:19.000Z</time>
      </trkpt>
      <trkpt lat="44.9141" lon="5.7793">
        <ele>935.59997558594</ele>
        <time>2026-07-05T09:59:20.000Z</time>
      </trkpt>
      <trkpt lat="44.91408" lon="5.77932">
        <ele>935.59997558594</ele>
        <time>2026-07-05T09:59:21.000Z</time>
      </trkpt>
      <trkpt lat="44.91407" lon="5.77934">
        <ele>935.79998779297</ele>
        <time>2026-07-05T09:59:22.000Z</time>
      </trkpt>
      <trkpt lat="44.91405" lon="5.77936">
        <ele>936</ele>
        <time>2026-07-05T09:59:23.000Z</time>
      </trkpt>
      <trkpt lat="44.91404" lon="5.77938">
        <ele>936.20001220703</ele>
        <time>2026-07-05T09:59:24.000Z</time>
      </trkpt>
      <trkpt lat="44.91402" lon="5.77939">
        <ele>936.59997558594</ele>
        <time>2026-07-05T09:59:25.000Z</time>
      </trkpt>
      <trkpt lat="44.91401" lon="5.77941">
        <ele>936.79998779297</ele>
        <time>2026-07-05T09:59:26.000Z</time>
      </trkpt>
      <trkpt lat="44.91399" lon="5.77942">
        <ele>937.20001220703</ele>
        <time>2026-07-05T09:59:27.000Z</time>
      </trkpt>
      <trkpt lat="44.91397" lon="5.77944">
        <ele>937.20001220703</ele>
        <time>2026-07-05T09:59:28.000Z</time>
      </trkpt>
      <trkpt lat="44.91396" lon="5.77945">
        <ele>937.20001220703</ele>
        <time>2026-07-05T09:59:29.000Z</time>
      </trkpt>
      <trkpt lat="44.91394" lon="5.77947">
        <ele>937.20001220703</ele>
        <time>2026-07-05T09:59:30.000Z</time>
      </trkpt>
      <trkpt lat="44.91392" lon="5.77948">
        <ele>937.20001220703</ele>
        <time>2026-07-05T09:59:31.000Z</time>
      </trkpt>
      <trkpt lat="44.91391" lon="5.77949">
        <ele>937.40002441406</ele>
        <time>2026-07-05T09:59:32.000Z</time>
      </trkpt>
      <trkpt lat="44.9139" lon="5.7795">
        <ele>937.40002441406</ele>
        <time>2026-07-05T09:59:33.000Z</time>
      </trkpt>
      <trkpt lat="44.91389" lon="5.77952">
        <ele>937.40002441406</ele>
        <time>2026-07-05T09:59:34.000Z</time>
      </trkpt>
      <trkpt lat="44.91387" lon="5.77953">
        <ele>937.79998779297</ele>
        <time>2026-07-05T09:59:35.000Z</time>
      </trkpt>
      <trkpt lat="44.91386" lon="5.77953">
        <ele>937.79998779297</ele>
        <time>2026-07-05T09:59:36.000Z</time>
      </trkpt>
      <trkpt lat="44.91385" lon="5.77954">
        <ele>937.79998779297</ele>
        <time>2026-07-05T09:59:37.000Z</time>
      </trkpt>
      <trkpt lat="44.91384" lon="5.77955">
        <ele>938</ele>
        <time>2026-07-05T09:59:38.000Z</time>
      </trkpt>
      <trkpt lat="44.91383" lon="5.77956">
        <ele>938.20001220703</ele>
        <time>2026-07-05T09:59:39.000Z</time>
      </trkpt>
      <trkpt lat="44.91382" lon="5.77957">
        <ele>938.40002441406</ele>
        <time>2026-07-05T09:59:40.000Z</time>
      </trkpt>
      <trkpt lat="44.91381" lon="5.77957">
        <ele>938.40002441406</ele>
        <time>2026-07-05T09:59:41.000Z</time>
      </trkpt>
      <trkpt lat="44.91379" lon="5.77958">
        <ele>938.79998779297</ele>
        <time>2026-07-05T09:59:42.000Z</time>
      </trkpt>
      <trkpt lat="44.91378" lon="5.77959">
        <ele>938.79998779297</ele>
        <time>2026-07-05T09:59:43.000Z</time>
      </trkpt>
      <trkpt lat="44.91377" lon="5.7796">
        <ele>938.79998779297</ele>
        <time>2026-07-05T09:59:44.000Z</time>
      </trkpt>
      <trkpt lat="44.91376" lon="5.77961">
        <ele>939</ele>
        <time>2026-07-05T09:59:45.000Z</time>
      </trkpt>
      <trkpt lat="44.91375" lon="5.77962">
        <ele>939</ele>
        <time>2026-07-05T09:59:46.000Z</time>
      </trkpt>
      <trkpt lat="44.91374" lon="5.77963">
        <ele>939</ele>
        <time>2026-07-05T09:59:47.000Z</time>
      </trkpt>
      <trkpt lat="44.91373" lon="5.77963">
        <ele>939.20001220703</ele>
        <time>2026-07-05T09:59:48.000Z</time>
      </trkpt>
      <trkpt lat="44.91371" lon="5.77964">
        <ele>939.20001220703</ele>
        <time>2026-07-05T09:59:49.000Z</time>
      </trkpt>
      <trkpt lat="44.9137" lon="5.77964">
        <ele>939.20001220703</ele>
        <time>2026-07-05T09:59:50.000Z</time>
      </trkpt>
      <trkpt lat="44.91369" lon="5.77965">
        <ele>939.20001220703</ele>
        <time>2026-07-05T09:59:51.000Z</time>
      </trkpt>
      <trkpt lat="44.91368" lon="5.77965">
        <ele>939.40002441406</ele>
        <time>2026-07-05T09:59:52.000Z</time>
      </trkpt>
      <trkpt lat="44.91367" lon="5.77966">
        <ele>939.40002441406</ele>
        <time>2026-07-05T09:59:53.000Z</time>
      </trkpt>
      <trkpt lat="44.91366" lon="5.77967">
        <ele>939.40002441406</ele>
        <time>2026-07-05T09:59:54.000Z</time>
      </trkpt>
      <trkpt lat="44.91365" lon="5.77967">
        <ele>939.59997558594</ele>
        <time>2026-07-05T09:59:55.000Z</time>
      </trkpt>
      <trkpt lat="44.91364" lon="5.77968">
        <ele>939.79998779297</ele>
        <time>2026-07-05T09:59:56.000Z</time>
      </trkpt>
      <trkpt lat="44.91362" lon="5.77969">
        <ele>939.79998779297</ele>
        <time>2026-07-05T09:59:57.000Z</time>
      </trkpt>
      <trkpt lat="44.91361" lon="5.7797">
        <ele>940</ele>
        <time>2026-07-05T09:59:58.000Z</time>
      </trkpt>
      <trkpt lat="44.91359" lon="5.77971">
        <ele>940.59997558594</ele>
        <time>2026-07-05T09:59:59.000Z</time>
      </trkpt>
      <trkpt lat="44.91358" lon="5.77972">
        <ele>940.79998779297</ele>
        <time>2026-07-05T10:00:00.000Z</time>
      </trkpt>
      <trkpt lat="44.91357" lon="5.77972">
        <ele>941</ele>
        <time>2026-07-05T10:00:01.000Z</time>
      </trkpt>
      <trkpt lat="44.91355" lon="5.77972">
        <ele>941.40002441406</ele>
        <time>2026-07-05T10:00:02.000Z</time>
      </trkpt>
      <trkpt lat="44.91354" lon="5.77973">
        <ele>942</ele>
        <time>2026-07-05T10:00:03.000Z</time>
      </trkpt>
      <trkpt lat="44.91353" lon="5.77973">
        <ele>942.20001220703</ele>
        <time>2026-07-05T10:00:04.000Z</time>
      </trkpt>
      <trkpt lat="44.91352" lon="5.77974">
        <ele>942.20001220703</ele>
        <time>2026-07-05T10:00:05.000Z</time>
      </trkpt>
      <trkpt lat="44.91351" lon="5.77975">
        <ele>942.20001220703</ele>
        <time>2026-07-05T10:00:06.000Z</time>
      </trkpt>
      <trkpt lat="44.9135" lon="5.77976">
        <ele>942.40002441406</ele>
        <time>2026-07-05T10:00:07.000Z</time>
      </trkpt>
      <trkpt lat="44.91348" lon="5.77976">
        <ele>942.59997558594</ele>
        <time>2026-07-05T10:00:08.000Z</time>
      </trkpt>
      <trkpt lat="44.91347" lon="5.77976">
        <ele>943</ele>
        <time>2026-07-05T10:00:09.000Z</time>
      </trkpt>
      <trkpt lat="44.91346" lon="5.77976">
        <ele>943.20001220703</ele>
        <time>2026-07-05T10:00:10.000Z</time>
      </trkpt>
      <trkpt lat="44.91345" lon="5.77976">
        <ele>943.40002441406</ele>
        <time>2026-07-05T10:00:11.000Z</time>
      </trkpt>
      <trkpt lat="44.91345" lon="5.77976">
        <ele>943.59997558594</ele>
        <time>2026-07-05T10:00:12.000Z</time>
      </trkpt>
      <trkpt lat="44.91344" lon="5.77976">
        <ele>943.59997558594</ele>
        <time>2026-07-05T10:00:13.000Z</time>
      </trkpt>
      <trkpt lat="44.91344" lon="5.77977">
        <ele>944</ele>
        <time>2026-07-05T10:00:14.000Z</time>
      </trkpt>
      <trkpt lat="44.91343" lon="5.77977">
        <ele>944</ele>
        <time>2026-07-05T10:00:15.000Z</time>
      </trkpt>
      <trkpt lat="44.91342" lon="5.77977">
        <ele>944.40002441406</ele>
        <time>2026-07-05T10:00:16.000Z</time>
      </trkpt>
      <trkpt lat="44.91341" lon="5.77977">
        <ele>944.59997558594</ele>
        <time>2026-07-05T10:00:17.000Z</time>
      </trkpt>
      <trkpt lat="44.9134" lon="5.77978">
        <ele>945</ele>
        <time>2026-07-05T10:00:18.000Z</time>
      </trkpt>
      <trkpt lat="44.91339" lon="5.77977">
        <ele>945.59997558594</ele>
        <time>2026-07-05T10:00:19.000Z</time>
      </trkpt>
      <trkpt lat="44.91338" lon="5.77977">
        <ele>946</ele>
        <time>2026-07-05T10:00:20.000Z</time>
      </trkpt>
      <trkpt lat="44.91337" lon="5.77977">
        <ele>946.20001220703</ele>
        <time>2026-07-05T10:00:21.000Z</time>
      </trkpt>
      <trkpt lat="44.91336" lon="5.77978">
        <ele>946.40002441406</ele>
        <time>2026-07-05T10:00:22.000Z</time>
      </trkpt>
      <trkpt lat="44.91335" lon="5.77978">
        <ele>946.79998779297</ele>
        <time>2026-07-05T10:00:23.000Z</time>
      </trkpt>
      <trkpt lat="44.91334" lon="5.77978">
        <ele>947.40002441406</ele>
        <time>2026-07-05T10:00:24.000Z</time>
      </trkpt>
      <trkpt lat="44.91333" lon="5.77978">
        <ele>947.79998779297</ele>
        <time>2026-07-05T10:00:25.000Z</time>
      </trkpt>
      <trkpt lat="44.91332" lon="5.77978">
        <ele>948</ele>
        <time>2026-07-05T10:00:26.000Z</time>
      </trkpt>
      <trkpt lat="44.91331" lon="5.77978">
        <ele>948.40002441406</ele>
        <time>2026-07-05T10:00:27.000Z</time>
      </trkpt>
      <trkpt lat="44.91331" lon="5.77978">
        <ele>948.59997558594</ele>
        <time>2026-07-05T10:00:28.000Z</time>
      </trkpt>
      <trkpt lat="44.9133" lon="5.77978">
        <ele>949</ele>
        <time>2026-07-05T10:00:29.000Z</time>
      </trkpt>
      <trkpt lat="44.91329" lon="5.77978">
        <ele>949.40002441406</ele>
        <time>2026-07-05T10:00:30.000Z</time>
      </trkpt>
      <trkpt lat="44.91328" lon="5.77978">
        <ele>949.40002441406</ele>
        <time>2026-07-05T10:00:31.000Z</time>
      </trkpt>
      <trkpt lat="44.91328" lon="5.77978">
        <ele>949.79998779297</ele>
        <time>2026-07-05T10:00:32.000Z</time>
      </trkpt>
      <trkpt lat="44.91327" lon="5.77979">
        <ele>950.40002441406</ele>
        <time>2026-07-05T10:00:33.000Z</time>
      </trkpt>
      <trkpt lat="44.91326" lon="5.77979">
        <ele>950.59997558594</ele>
        <time>2026-07-05T10:00:34.000Z</time>
      </trkpt>
      <trkpt lat="44.91325" lon="5.77979">
        <ele>951.20001220703</ele>
        <time>2026-07-05T10:00:35.000Z</time>
      </trkpt>
      <trkpt lat="44.91323" lon="5.7798">
        <ele>951.40002441406</ele>
        <time>2026-07-05T10:00:36.000Z</time>
      </trkpt>
      <trkpt lat="44.91323" lon="5.7798">
        <ele>951.40002441406</ele>
        <time>2026-07-05T10:00:37.000Z</time>
      </trkpt>
      <trkpt lat="44.91322" lon="5.7798">
        <ele>951.40002441406</ele>
        <time>2026-07-05T10:00:38.000Z</time>
      </trkpt>
      <trkpt lat="44.91321" lon="5.7798">
        <ele>951.40002441406</ele>
        <time>2026-07-05T10:00:39.000Z</time>
      </trkpt>
      <trkpt lat="44.9132" lon="5.77981">
        <ele>951.40002441406</ele>
        <time>2026-07-05T10:00:40.000Z</time>
      </trkpt>
      <trkpt lat="44.91319" lon="5.7798">
        <ele>951.59997558594</ele>
        <time>2026-07-05T10:00:41.000Z</time>
      </trkpt>
      <trkpt lat="44.91318" lon="5.7798">
        <ele>951.79998779297</ele>
        <time>2026-07-05T10:00:42.000Z</time>
      </trkpt>
      <trkpt lat="44.91317" lon="5.7798">
        <ele>951.79998779297</ele>
        <time>2026-07-05T10:00:43.000Z</time>
      </trkpt>
      <trkpt lat="44.91317" lon="5.7798">
        <ele>952.20001220703</ele>
        <time>2026-07-05T10:00:44.000Z</time>
      </trkpt>
      <trkpt lat="44.91316" lon="5.77979">
        <ele>952.40002441406</ele>
        <time>2026-07-05T10:00:45.000Z</time>
      </trkpt>
      <trkpt lat="44.91315" lon="5.77979">
        <ele>952.40002441406</ele>
        <time>2026-07-05T10:00:46.000Z</time>
      </trkpt>
      <trkpt lat="44.91314" lon="5.77979">
        <ele>952.40002441406</ele>
        <time>2026-07-05T10:00:47.000Z</time>
      </trkpt>
      <trkpt lat="44.91313" lon="5.77979">
        <ele>952.40002441406</ele>
        <time>2026-07-05T10:00:48.000Z</time>
      </trkpt>
      <trkpt lat="44.91312" lon="5.77978">
        <ele>952.40002441406</ele>
        <time>2026-07-05T10:00:49.000Z</time>
      </trkpt>
      <trkpt lat="44.91311" lon="5.77978">
        <ele>952.40002441406</ele>
        <time>2026-07-05T10:00:50.000Z</time>
      </trkpt>
      <trkpt lat="44.9131" lon="5.77979">
        <ele>952.59997558594</ele>
        <time>2026-07-05T10:00:51.000Z</time>
      </trkpt>
      <trkpt lat="44.91308" lon="5.7798">
        <ele>952.59997558594</ele>
        <time>2026-07-05T10:00:52.000Z</time>
      </trkpt>
      <trkpt lat="44.91307" lon="5.7798">
        <ele>952.59997558594</ele>
        <time>2026-07-05T10:00:53.000Z</time>
      </trkpt>
      <trkpt lat="44.91306" lon="5.77981">
        <ele>952.79998779297</ele>
        <time>2026-07-05T10:00:54.000Z</time>
      </trkpt>
      <trkpt lat="44.91304" lon="5.77982">
        <ele>952.79998779297</ele>
        <time>2026-07-05T10:00:55.000Z</time>
      </trkpt>
      <trkpt lat="44.91303" lon="5.77982">
        <ele>953</ele>
        <time>2026-07-05T10:00:56.000Z</time>
      </trkpt>
      <trkpt lat="44.91302" lon="5.77983">
        <ele>953.20001220703</ele>
        <time>2026-07-05T10:00:57.000Z</time>
      </trkpt>
      <trkpt lat="44.91301" lon="5.77984">
        <ele>953.20001220703</ele>
        <time>2026-07-05T10:00:58.000Z</time>
      </trkpt>
      <trkpt lat="44.913" lon="5.77985">
        <ele>953.59997558594</ele>
        <time>2026-07-05T10:00:59.000Z</time>
      </trkpt>
      <trkpt lat="44.91299" lon="5.77986">
        <ele>953.59997558594</ele>
        <time>2026-07-05T10:01:00.000Z</time>
      </trkpt>
      <trkpt lat="44.91298" lon="5.77986">
        <ele>954</ele>
        <time>2026-07-05T10:01:01.000Z</time>
      </trkpt>
      <trkpt lat="44.91297" lon="5.77987">
        <ele>954.20001220703</ele>
        <time>2026-07-05T10:01:02.000Z</time>
      </trkpt>
      <trkpt lat="44.91296" lon="5.77988">
        <ele>954.40002441406</ele>
        <time>2026-07-05T10:01:03.000Z</time>
      </trkpt>
      <trkpt lat="44.91295" lon="5.7799">
        <ele>954.59997558594</ele>
        <time>2026-07-05T10:01:04.000Z</time>
      </trkpt>
      <trkpt lat="44.91294" lon="5.77992">
        <ele>954.79998779297</ele>
        <time>2026-07-05T10:01:05.000Z</time>
      </trkpt>
      <trkpt lat="44.91293" lon="5.77993">
        <ele>955.40002441406</ele>
        <time>2026-07-05T10:01:06.000Z</time>
      </trkpt>
      <trkpt lat="44.91291" lon="5.77994">
        <ele>956.20001220703</ele>
        <time>2026-07-05T10:01:07.000Z</time>
      </trkpt>
      <trkpt lat="44.9129" lon="5.77995">
        <ele>956.40002441406</ele>
        <time>2026-07-05T10:01:08.000Z</time>
      </trkpt>
      <trkpt lat="44.91288" lon="5.77996">
        <ele>956.79998779297</ele>
        <time>2026-07-05T10:01:09.000Z</time>
      </trkpt>
      <trkpt lat="44.91286" lon="5.77997">
        <ele>957.20001220703</ele>
        <time>2026-07-05T10:01:10.000Z</time>
      </trkpt>
      <trkpt lat="44.91285" lon="5.77997">
        <ele>957.59997558594</ele>
        <time>2026-07-05T10:01:11.000Z</time>
      </trkpt>
      <trkpt lat="44.91283" lon="5.77998">
        <ele>958</ele>
        <time>2026-07-05T10:01:12.000Z</time>
      </trkpt>
      <trkpt lat="44.91282" lon="5.77999">
        <ele>958.20001220703</ele>
        <time>2026-07-05T10:01:13.000Z</time>
      </trkpt>
      <trkpt lat="44.9128" lon="5.77999">
        <ele>958.20001220703</ele>
        <time>2026-07-05T10:01:14.000Z</time>
      </trkpt>
      <trkpt lat="44.91279" lon="5.77999">
        <ele>958</ele>
        <time>2026-07-05T10:01:15.000Z</time>
      </trkpt>
      <trkpt lat="44.91278" lon="5.78">
        <ele>958</ele>
        <time>2026-07-05T10:01:16.000Z</time>
      </trkpt>
      <trkpt lat="44.91277" lon="5.78">
        <ele>957.79998779297</ele>
        <time>2026-07-05T10:01:17.000Z</time>
      </trkpt>
      <trkpt lat="44.91275" lon="5.78001">
        <ele>957.79998779297</ele>
        <time>2026-07-05T10:01:18.000Z</time>
      </trkpt>
      <trkpt lat="44.91274" lon="5.78001">
        <ele>957.79998779297</ele>
        <time>2026-07-05T10:01:19.000Z</time>
      </trkpt>
      <trkpt lat="44.91273" lon="5.78001">
        <ele>958</ele>
        <time>2026-07-05T10:01:20.000Z</time>
      </trkpt>
      <trkpt lat="44.91272" lon="5.78002">
        <ele>958</ele>
        <time>2026-07-05T10:01:21.000Z</time>
      </trkpt>
      <trkpt lat="44.91271" lon="5.78003">
        <ele>958</ele>
        <time>2026-07-05T10:01:22.000Z</time>
      </trkpt>
      <trkpt lat="44.9127" lon="5.78003">
        <ele>958</ele>
        <time>2026-07-05T10:01:23.000Z</time>
      </trkpt>
      <trkpt lat="44.9127" lon="5.78004">
        <ele>957.79998779297</ele>
        <time>2026-07-05T10:01:24.000Z</time>
      </trkpt>
      <trkpt lat="44.91268" lon="5.78005">
        <ele>957.79998779297</ele>
        <time>2026-07-05T10:01:25.000Z</time>
      </trkpt>
      <trkpt lat="44.91267" lon="5.78005">
        <ele>957.79998779297</ele>
        <time>2026-07-05T10:01:26.000Z</time>
      </trkpt>
      <trkpt lat="44.91266" lon="5.78006">
        <ele>957.79998779297</ele>
        <time>2026-07-05T10:01:27.000Z</time>
      </trkpt>
      <trkpt lat="44.91265" lon="5.78007">
        <ele>958</ele>
        <time>2026-07-05T10:01:28.000Z</time>
      </trkpt>
      <trkpt lat="44.91263" lon="5.78008">
        <ele>958.40002441406</ele>
        <time>2026-07-05T10:01:29.000Z</time>
      </trkpt>
      <trkpt lat="44.91261" lon="5.78009">
        <ele>958.40002441406</ele>
        <time>2026-07-05T10:01:30.000Z</time>
      </trkpt>
      <trkpt lat="44.9126" lon="5.78009">
        <ele>959</ele>
        <time>2026-07-05T10:01:31.000Z</time>
      </trkpt>
      <trkpt lat="44.91258" lon="5.78009">
        <ele>959.20001220703</ele>
        <time>2026-07-05T10:01:32.000Z</time>
      </trkpt>
      <trkpt lat="44.91256" lon="5.7801">
        <ele>959.40002441406</ele>
        <time>2026-07-05T10:01:33.000Z</time>
      </trkpt>
      <trkpt lat="44.91255" lon="5.7801">
        <ele>960</ele>
        <time>2026-07-05T10:01:34.000Z</time>
      </trkpt>
      <trkpt lat="44.91254" lon="5.78011">
        <ele>960.20001220703</ele>
        <time>2026-07-05T10:01:35.000Z</time>
      </trkpt>
      <trkpt lat="44.91252" lon="5.78011">
        <ele>960.59997558594</ele>
        <time>2026-07-05T10:01:36.000Z</time>
      </trkpt>
      <trkpt lat="44.91251" lon="5.78012">
        <ele>960.79998779297</ele>
        <time>2026-07-05T10:01:37.000Z</time>
      </trkpt>
      <trkpt lat="44.91249" lon="5.78012">
        <ele>961</ele>
        <time>2026-07-05T10:01:38.000Z</time>
      </trkpt>
      <trkpt lat="44.91248" lon="5.78012">
        <ele>961</ele>
        <time>2026-07-05T10:01:39.000Z</time>
      </trkpt>
      <trkpt lat="44.91247" lon="5.78012">
        <ele>961</ele>
        <time>2026-07-05T10:01:40.000Z</time>
      </trkpt>
      <trkpt lat="44.91246" lon="5.78013">
        <ele>960.79998779297</ele>
        <time>2026-07-05T10:01:41.000Z</time>
      </trkpt>
      <trkpt lat="44.91245" lon="5.78013">
        <ele>960.79998779297</ele>
        <time>2026-07-05T10:01:42.000Z</time>
      </trkpt>
      <trkpt lat="44.91243" lon="5.78013">
        <ele>961</ele>
        <time>2026-07-05T10:01:43.000Z</time>
      </trkpt>
      <trkpt lat="44.91242" lon="5.78014">
        <ele>961.20001220703</ele>
        <time>2026-07-05T10:01:44.000Z</time>
      </trkpt>
      <trkpt lat="44.91241" lon="5.78014">
        <ele>961.20001220703</ele>
        <time>2026-07-05T10:01:45.000Z</time>
      </trkpt>
      <trkpt lat="44.91239" lon="5.78014">
        <ele>961.59997558594</ele>
        <time>2026-07-05T10:01:46.000Z</time>
      </trkpt>
      <trkpt lat="44.91238" lon="5.78014">
        <ele>962</ele>
        <time>2026-07-05T10:01:47.000Z</time>
      </trkpt>
      <trkpt lat="44.91237" lon="5.78015">
        <ele>962.40002441406</ele>
        <time>2026-07-05T10:01:48.000Z</time>
      </trkpt>
      <trkpt lat="44.91237" lon="5.78015">
        <ele>962.59997558594</ele>
        <time>2026-07-05T10:01:49.000Z</time>
      </trkpt>
      <trkpt lat="44.91236" lon="5.78015">
        <ele>963.20001220703</ele>
        <time>2026-07-05T10:01:50.000Z</time>
      </trkpt>
      <trkpt lat="44.91234" lon="5.78015">
        <ele>963.79998779297</ele>
        <time>2026-07-05T10:01:51.000Z</time>
      </trkpt>
      <trkpt lat="44.91233" lon="5.78015">
        <ele>964.40002441406</ele>
        <time>2026-07-05T10:01:52.000Z</time>
      </trkpt>
      <trkpt lat="44.91232" lon="5.78015">
        <ele>964.59997558594</ele>
        <time>2026-07-05T10:01:53.000Z</time>
      </trkpt>
      <trkpt lat="44.91231" lon="5.78016">
        <ele>965</ele>
        <time>2026-07-05T10:01:54.000Z</time>
      </trkpt>
      <trkpt lat="44.9123" lon="5.78017">
        <ele>965.40002441406</ele>
        <time>2026-07-05T10:01:55.000Z</time>
      </trkpt>
      <trkpt lat="44.91228" lon="5.78017">
        <ele>965.59997558594</ele>
        <time>2026-07-05T10:01:56.000Z</time>
      </trkpt>
      <trkpt lat="44.91227" lon="5.78018">
        <ele>965.79998779297</ele>
        <time>2026-07-05T10:01:57.000Z</time>
      </trkpt>
      <trkpt lat="44.91226" lon="5.78019">
        <ele>966</ele>
        <time>2026-07-05T10:01:58.000Z</time>
      </trkpt>
      <trkpt lat="44.91224" lon="5.7802">
        <ele>966.20001220703</ele>
        <time>2026-07-05T10:01:59.000Z</time>
      </trkpt>
      <trkpt lat="44.91223" lon="5.7802">
        <ele>967</ele>
        <time>2026-07-05T10:02:00.000Z</time>
      </trkpt>
      <trkpt lat="44.91221" lon="5.78021">
        <ele>967</ele>
        <time>2026-07-05T10:02:01.000Z</time>
      </trkpt>
      <trkpt lat="44.9122" lon="5.78021">
        <ele>967</ele>
        <time>2026-07-05T10:02:02.000Z</time>
      </trkpt>
      <trkpt lat="44.91218" lon="5.78021">
        <ele>967</ele>
        <time>2026-07-05T10:02:03.000Z</time>
      </trkpt>
      <trkpt lat="44.91217" lon="5.78022">
        <ele>967</ele>
        <time>2026-07-05T10:02:04.000Z</time>
      </trkpt>
      <trkpt lat="44.91216" lon="5.78022">
        <ele>966.79998779297</ele>
        <time>2026-07-05T10:02:05.000Z</time>
      </trkpt>
      <trkpt lat="44.91215" lon="5.78023">
        <ele>966.79998779297</ele>
        <time>2026-07-05T10:02:06.000Z</time>
      </trkpt>
      <trkpt lat="44.91213" lon="5.78023">
        <ele>967</ele>
        <time>2026-07-05T10:02:07.000Z</time>
      </trkpt>
      <trkpt lat="44.91212" lon="5.78023">
        <ele>967.59997558594</ele>
        <time>2026-07-05T10:02:08.000Z</time>
      </trkpt>
      <trkpt lat="44.9121" lon="5.78023">
        <ele>967.79998779297</ele>
        <time>2026-07-05T10:02:09.000Z</time>
      </trkpt>
      <trkpt lat="44.91209" lon="5.78024">
        <ele>968.40002441406</ele>
        <time>2026-07-05T10:02:10.000Z</time>
      </trkpt>
      <trkpt lat="44.91208" lon="5.78024">
        <ele>968.79998779297</ele>
        <time>2026-07-05T10:02:11.000Z</time>
      </trkpt>
      <trkpt lat="44.91207" lon="5.78024">
        <ele>969.59997558594</ele>
        <time>2026-07-05T10:02:12.000Z</time>
      </trkpt>
      <trkpt lat="44.91206" lon="5.78025">
        <ele>970.40002441406</ele>
        <time>2026-07-05T10:02:13.000Z</time>
      </trkpt>
      <trkpt lat="44.91205" lon="5.78026">
        <ele>970.40002441406</ele>
        <time>2026-07-05T10:02:14.000Z</time>
      </trkpt>
      <trkpt lat="44.91204" lon="5.78026">
        <ele>970.40002441406</ele>
        <time>2026-07-05T10:02:15.000Z</time>
      </trkpt>
      <trkpt lat="44.91203" lon="5.78026">
        <ele>970.40002441406</ele>
        <time>2026-07-05T10:02:16.000Z</time>
      </trkpt>
      <trkpt lat="44.91202" lon="5.78026">
        <ele>970</ele>
        <time>2026-07-05T10:02:17.000Z</time>
      </trkpt>
      <trkpt lat="44.91201" lon="5.78027">
        <ele>969.79998779297</ele>
        <time>2026-07-05T10:02:18.000Z</time>
      </trkpt>
      <trkpt lat="44.912" lon="5.78027">
        <ele>969.59997558594</ele>
        <time>2026-07-05T10:02:19.000Z</time>
      </trkpt>
      <trkpt lat="44.91199" lon="5.78027">
        <ele>969.59997558594</ele>
        <time>2026-07-05T10:02:20.000Z</time>
      </trkpt>
      <trkpt lat="44.91198" lon="5.78027">
        <ele>969.59997558594</ele>
        <time>2026-07-05T10:02:21.000Z</time>
      </trkpt>
      <trkpt lat="44.91197" lon="5.78027">
        <ele>969.59997558594</ele>
        <time>2026-07-05T10:02:22.000Z</time>
      </trkpt>
      <trkpt lat="44.91195" lon="5.78026">
        <ele>969.59997558594</ele>
        <time>2026-07-05T10:02:23.000Z</time>
      </trkpt>
      <trkpt lat="44.91195" lon="5.78027">
        <ele>969.79998779297</ele>
        <time>2026-07-05T10:02:24.000Z</time>
      </trkpt>
      <trkpt lat="44.91194" lon="5.78027">
        <ele>970</ele>
        <time>2026-07-05T10:02:25.000Z</time>
      </trkpt>
      <trkpt lat="44.91192" lon="5.78027">
        <ele>970.20001220703</ele>
        <time>2026-07-05T10:02:26.000Z</time>
      </trkpt>
      <trkpt lat="44.91192" lon="5.78027">
        <ele>970.59997558594</ele>
        <time>2026-07-05T10:02:27.000Z</time>
      </trkpt>
      <trkpt lat="44.91191" lon="5.78027">
        <ele>971</ele>
        <time>2026-07-05T10:02:28.000Z</time>
      </trkpt>
      <trkpt lat="44.9119" lon="5.78027">
        <ele>971.20001220703</ele>
        <time>2026-07-05T10:02:29.000Z</time>
      </trkpt>
      <trkpt lat="44.91189" lon="5.78027">
        <ele>971.20001220703</ele>
        <time>2026-07-05T10:02:30.000Z</time>
      </trkpt>
      <trkpt lat="44.91188" lon="5.78028">
        <ele>971.40002441406</ele>
        <time>2026-07-05T10:02:31.000Z</time>
      </trkpt>
      <trkpt lat="44.91186" lon="5.78028">
        <ele>971.40002441406</ele>
        <time>2026-07-05T10:02:32.000Z</time>
      </trkpt>
      <trkpt lat="44.91185" lon="5.78029">
        <ele>971.40002441406</ele>
        <time>2026-07-05T10:02:33.000Z</time>
      </trkpt>
      <trkpt lat="44.91183" lon="5.78031">
        <ele>971.20001220703</ele>
        <time>2026-07-05T10:02:34.000Z</time>
      </trkpt>
      <trkpt lat="44.91181" lon="5.78033">
        <ele>971</ele>
        <time>2026-07-05T10:02:35.000Z</time>
      </trkpt>
      <trkpt lat="44.91179" lon="5.78034">
        <ele>970.79998779297</ele>
        <time>2026-07-05T10:02:36.000Z</time>
      </trkpt>
      <trkpt lat="44.91177" lon="5.78036">
        <ele>970.40002441406</ele>
        <time>2026-07-05T10:02:37.000Z</time>
      </trkpt>
      <trkpt lat="44.91174" lon="5.78037">
        <ele>970.20001220703</ele>
        <time>2026-07-05T10:02:38.000Z</time>
      </trkpt>
      <trkpt lat="44.91173" lon="5.78038">
        <ele>969.79998779297</ele>
        <time>2026-07-05T10:02:39.000Z</time>
      </trkpt>
      <trkpt lat="44.91171" lon="5.7804">
        <ele>969.59997558594</ele>
        <time>2026-07-05T10:02:40.000Z</time>
      </trkpt>
      <trkpt lat="44.91169" lon="5.78041">
        <ele>969.59997558594</ele>
        <time>2026-07-05T10:02:41.000Z</time>
      </trkpt>
      <trkpt lat="44.91167" lon="5.78042">
        <ele>969.40002441406</ele>
        <time>2026-07-05T10:02:42.000Z</time>
      </trkpt>
      <trkpt lat="44.91165" lon="5.78044">
        <ele>969.40002441406</ele>
        <time>2026-07-05T10:02:43.000Z</time>
      </trkpt>
      <trkpt lat="44.91163" lon="5.78044">
        <ele>969.20001220703</ele>
        <time>2026-07-05T10:02:44.000Z</time>
      </trkpt>
      <trkpt lat="44.91162" lon="5.78046">
        <ele>969.20001220703</ele>
        <time>2026-07-05T10:02:45.000Z</time>
      </trkpt>
      <trkpt lat="44.9116" lon="5.78047">
        <ele>969.20001220703</ele>
        <time>2026-07-05T10:02:46.000Z</time>
      </trkpt>
      <trkpt lat="44.91158" lon="5.78048">
        <ele>969</ele>
        <time>2026-07-05T10:02:47.000Z</time>
      </trkpt>
      <trkpt lat="44.91156" lon="5.78049">
        <ele>969</ele>
        <time>2026-07-05T10:02:48.000Z</time>
      </trkpt>
      <trkpt lat="44.91154" lon="5.7805">
        <ele>969</ele>
        <time>2026-07-05T10:02:49.000Z</time>
      </trkpt>
      <trkpt lat="44.91153" lon="5.78052">
        <ele>969.20001220703</ele>
        <time>2026-07-05T10:02:50.000Z</time>
      </trkpt>
      <trkpt lat="44.9115" lon="5.78053">
        <ele>969.20001220703</ele>
        <time>2026-07-05T10:02:51.000Z</time>
      </trkpt>
      <trkpt lat="44.91148" lon="5.78055">
        <ele>969.20001220703</ele>
        <time>2026-07-05T10:02:52.000Z</time>
      </trkpt>
      <trkpt lat="44.91146" lon="5.78056">
        <ele>969.20001220703</ele>
        <time>2026-07-05T10:02:53.000Z</time>
      </trkpt>
      <trkpt lat="44.91144" lon="5.78057">
        <ele>969</ele>
        <time>2026-07-05T10:02:54.000Z</time>
      </trkpt>
      <trkpt lat="44.91142" lon="5.78058">
        <ele>968.79998779297</ele>
        <time>2026-07-05T10:02:55.000Z</time>
      </trkpt>
      <trkpt lat="44.91139" lon="5.78059">
        <ele>968.59997558594</ele>
        <time>2026-07-05T10:02:56.000Z</time>
      </trkpt>
      <trkpt lat="44.91137" lon="5.78061">
        <ele>968.59997558594</ele>
        <time>2026-07-05T10:02:57.000Z</time>
      </trkpt>
      <trkpt lat="44.91135" lon="5.78062">
        <ele>968.40002441406</ele>
        <time>2026-07-05T10:02:58.000Z</time>
      </trkpt>
      <trkpt lat="44.91133" lon="5.78063">
        <ele>968.40002441406</ele>
        <time>2026-07-05T10:02:59.000Z</time>
      </trkpt>
      <trkpt lat="44.91131" lon="5.78065">
        <ele>968.40002441406</ele>
        <time>2026-07-05T10:03:00.000Z</time>
      </trkpt>
      <trkpt lat="44.91129" lon="5.78066">
        <ele>968.40002441406</ele>
        <time>2026-07-05T10:03:01.000Z</time>
      </trkpt>
      <trkpt lat="44.91127" lon="5.78067">
        <ele>968.40002441406</ele>
        <time>2026-07-05T10:03:02.000Z</time>
      </trkpt>
      <trkpt lat="44.91125" lon="5.78068">
        <ele>968.40002441406</ele>
        <time>2026-07-05T10:03:03.000Z</time>
      </trkpt>
      <trkpt lat="44.91123" lon="5.7807">
        <ele>968.20001220703</ele>
        <time>2026-07-05T10:03:04.000Z</time>
      </trkpt>
      <trkpt lat="44.9112" lon="5.7807">
        <ele>968.20001220703</ele>
        <time>2026-07-05T10:03:05.000Z</time>
      </trkpt>
      <trkpt lat="44.91118" lon="5.78071">
        <ele>968.40002441406</ele>
        <time>2026-07-05T10:03:06.000Z</time>
      </trkpt>
      <trkpt lat="44.91116" lon="5.78072">
        <ele>968.40002441406</ele>
        <time>2026-07-05T10:03:07.000Z</time>
      </trkpt>
      <trkpt lat="44.91113" lon="5.78073">
        <ele>968.40002441406</ele>
        <time>2026-07-05T10:03:08.000Z</time>
      </trkpt>
      <trkpt lat="44.91111" lon="5.78074">
        <ele>968.40002441406</ele>
        <time>2026-07-05T10:03:09.000Z</time>
      </trkpt>
      <trkpt lat="44.91108" lon="5.78075">
        <ele>968.40002441406</ele>
        <time>2026-07-05T10:03:10.000Z</time>
      </trkpt>
      <trkpt lat="44.91106" lon="5.78076">
        <ele>968.20001220703</ele>
        <time>2026-07-05T10:03:11.000Z</time>
      </trkpt>
      <trkpt lat="44.91104" lon="5.78078">
        <ele>968.20001220703</ele>
        <time>2026-07-05T10:03:12.000Z</time>
      </trkpt>
      <trkpt lat="44.91102" lon="5.78079">
        <ele>968</ele>
        <time>2026-07-05T10:03:13.000Z</time>
      </trkpt>
      <trkpt lat="44.911" lon="5.78079">
        <ele>968</ele>
        <time>2026-07-05T10:03:14.000Z</time>
      </trkpt>
      <trkpt lat="44.91097" lon="5.7808">
        <ele>967.79998779297</ele>
        <time>2026-07-05T10:03:15.000Z</time>
      </trkpt>
      <trkpt lat="44.91095" lon="5.78081">
        <ele>967.79998779297</ele>
        <time>2026-07-05T10:03:16.000Z</time>
      </trkpt>
      <trkpt lat="44.91092" lon="5.78081">
        <ele>967.79998779297</ele>
        <time>2026-07-05T10:03:17.000Z</time>
      </trkpt>
      <trkpt lat="44.91089" lon="5.78082">
        <ele>967.79998779297</ele>
        <time>2026-07-05T10:03:18.000Z</time>
      </trkpt>
      <trkpt lat="44.91087" lon="5.78083">
        <ele>967.79998779297</ele>
        <time>2026-07-05T10:03:19.000Z</time>
      </trkpt>
      <trkpt lat="44.91084" lon="5.78084">
        <ele>967.59997558594</ele>
        <time>2026-07-05T10:03:20.000Z</time>
      </trkpt>
      <trkpt lat="44.91081" lon="5.78085">
        <ele>967.40002441406</ele>
        <time>2026-07-05T10:03:21.000Z</time>
      </trkpt>
      <trkpt lat="44.91079" lon="5.78086">
        <ele>967.20001220703</ele>
        <time>2026-07-05T10:03:22.000Z</time>
      </trkpt>
      <trkpt lat="44.91076" lon="5.78087">
        <ele>966.79998779297</ele>
        <time>2026-07-05T10:03:23.000Z</time>
      </trkpt>
      <trkpt lat="44.91074" lon="5.78087">
        <ele>966.40002441406</ele>
        <time>2026-07-05T10:03:24.000Z</time>
      </trkpt>
      <trkpt lat="44.91071" lon="5.78088">
        <ele>966</ele>
        <time>2026-07-05T10:03:25.000Z</time>
      </trkpt>
      <trkpt lat="44.91068" lon="5.78087">
        <ele>965.59997558594</ele>
        <time>2026-07-05T10:03:26.000Z</time>
      </trkpt>
      <trkpt lat="44.91066" lon="5.78087">
        <ele>965.20001220703</ele>
        <time>2026-07-05T10:03:27.000Z</time>
      </trkpt>
      <trkpt lat="44.91063" lon="5.78087">
        <ele>964.79998779297</ele>
        <time>2026-07-05T10:03:28.000Z</time>
      </trkpt>
      <trkpt lat="44.91061" lon="5.78087">
        <ele>964.20001220703</ele>
        <time>2026-07-05T10:03:29.000Z</time>
      </trkpt>
      <trkpt lat="44.9106" lon="5.78086">
        <ele>964</ele>
        <time>2026-07-05T10:03:30.000Z</time>
      </trkpt>
      <trkpt lat="44.91058" lon="5.78087">
        <ele>963.79998779297</ele>
        <time>2026-07-05T10:03:31.000Z</time>
      </trkpt>
      <trkpt lat="44.91055" lon="5.78087">
        <ele>963.59997558594</ele>
        <time>2026-07-05T10:03:32.000Z</time>
      </trkpt>
      <trkpt lat="44.91053" lon="5.78087">
        <ele>963.59997558594</ele>
        <time>2026-07-05T10:03:33.000Z</time>
      </trkpt>
      <trkpt lat="44.9105" lon="5.78087">
        <ele>963.59997558594</ele>
        <time>2026-07-05T10:03:34.000Z</time>
      </trkpt>
      <trkpt lat="44.91047" lon="5.78088">
        <ele>963.40002441406</ele>
        <time>2026-07-05T10:03:35.000Z</time>
      </trkpt>
      <trkpt lat="44.91045" lon="5.78088">
        <ele>963.20001220703</ele>
        <time>2026-07-05T10:03:36.000Z</time>
      </trkpt>
      <trkpt lat="44.91043" lon="5.78088">
        <ele>962.59997558594</ele>
        <time>2026-07-05T10:03:37.000Z</time>
      </trkpt>
      <trkpt lat="44.9104" lon="5.78088">
        <ele>962.20001220703</ele>
        <time>2026-07-05T10:03:38.000Z</time>
      </trkpt>
      <trkpt lat="44.91037" lon="5.78087">
        <ele>961.59997558594</ele>
        <time>2026-07-05T10:03:39.000Z</time>
      </trkpt>
      <trkpt lat="44.91035" lon="5.78087">
        <ele>961.20001220703</ele>
        <time>2026-07-05T10:03:40.000Z</time>
      </trkpt>
      <trkpt lat="44.91033" lon="5.78087">
        <ele>960.79998779297</ele>
        <time>2026-07-05T10:03:41.000Z</time>
      </trkpt>
      <trkpt lat="44.9103" lon="5.78087">
        <ele>960.40002441406</ele>
        <time>2026-07-05T10:03:42.000Z</time>
      </trkpt>
      <trkpt lat="44.91027" lon="5.78087">
        <ele>960.20001220703</ele>
        <time>2026-07-05T10:03:43.000Z</time>
      </trkpt>
      <trkpt lat="44.91025" lon="5.78086">
        <ele>960</ele>
        <time>2026-07-05T10:03:44.000Z</time>
      </trkpt>
      <trkpt lat="44.91022" lon="5.78086">
        <ele>959.79998779297</ele>
        <time>2026-07-05T10:03:45.000Z</time>
      </trkpt>
      <trkpt lat="44.9102" lon="5.78085">
        <ele>959.59997558594</ele>
        <time>2026-07-05T10:03:46.000Z</time>
      </trkpt>
      <trkpt lat="44.91018" lon="5.78084">
        <ele>959.40002441406</ele>
        <time>2026-07-05T10:03:47.000Z</time>
      </trkpt>
      <trkpt lat="44.91015" lon="5.78083">
        <ele>959.20001220703</ele>
        <time>2026-07-05T10:03:48.000Z</time>
      </trkpt>
      <trkpt lat="44.91012" lon="5.78083">
        <ele>959</ele>
        <time>2026-07-05T10:03:49.000Z</time>
      </trkpt>
      <trkpt lat="44.9101" lon="5.78082">
        <ele>958.59997558594</ele>
        <time>2026-07-05T10:03:50.000Z</time>
      </trkpt>
      <trkpt lat="44.91007" lon="5.78082">
        <ele>958.40002441406</ele>
        <time>2026-07-05T10:03:51.000Z</time>
      </trkpt>
      <trkpt lat="44.91004" lon="5.78081">
        <ele>958.20001220703</ele>
        <time>2026-07-05T10:03:52.000Z</time>
      </trkpt>
      <trkpt lat="44.91001" lon="5.7808">
        <ele>957.79998779297</ele>
        <time>2026-07-05T10:03:53.000Z</time>
      </trkpt>
      <trkpt lat="44.90999" lon="5.7808">
        <ele>957.40002441406</ele>
        <time>2026-07-05T10:03:54.000Z</time>
      </trkpt>
      <trkpt lat="44.90996" lon="5.78079">
        <ele>957.20001220703</ele>
        <time>2026-07-05T10:03:55.000Z</time>
      </trkpt>
      <trkpt lat="44.90994" lon="5.78078">
        <ele>957</ele>
        <time>2026-07-05T10:03:56.000Z</time>
      </trkpt>
      <trkpt lat="44.90991" lon="5.78077">
        <ele>956.79998779297</ele>
        <time>2026-07-05T10:03:57.000Z</time>
      </trkpt>
      <trkpt lat="44.90988" lon="5.78077">
        <ele>956.59997558594</ele>
        <time>2026-07-05T10:03:58.000Z</time>
      </trkpt>
      <trkpt lat="44.90986" lon="5.78076">
        <ele>956.40002441406</ele>
        <time>2026-07-05T10:03:59.000Z</time>
      </trkpt>
      <trkpt lat="44.90983" lon="5.78075">
        <ele>956.20001220703</ele>
        <time>2026-07-05T10:04:00.000Z</time>
      </trkpt>
      <trkpt lat="44.90981" lon="5.78075">
        <ele>956</ele>
        <time>2026-07-05T10:04:01.000Z</time>
      </trkpt>
      <trkpt lat="44.90978" lon="5.78074">
        <ele>955.79998779297</ele>
        <time>2026-07-05T10:04:02.000Z</time>
      </trkpt>
      <trkpt lat="44.90976" lon="5.78074">
        <ele>955.59997558594</ele>
        <time>2026-07-05T10:04:03.000Z</time>
      </trkpt>
      <trkpt lat="44.90973" lon="5.78073">
        <ele>955</ele>
        <time>2026-07-05T10:04:04.000Z</time>
      </trkpt>
      <trkpt lat="44.90971" lon="5.78072">
        <ele>954.79998779297</ele>
        <time>2026-07-05T10:04:05.000Z</time>
      </trkpt>
      <trkpt lat="44.90968" lon="5.78071">
        <ele>954.59997558594</ele>
        <time>2026-07-05T10:04:06.000Z</time>
      </trkpt>
      <trkpt lat="44.90966" lon="5.78071">
        <ele>954.40002441406</ele>
        <time>2026-07-05T10:04:07.000Z</time>
      </trkpt>
      <trkpt lat="44.90963" lon="5.78071">
        <ele>954.40002441406</ele>
        <time>2026-07-05T10:04:08.000Z</time>
      </trkpt>
      <trkpt lat="44.9096" lon="5.78071">
        <ele>954.20001220703</ele>
        <time>2026-07-05T10:04:09.000Z</time>
      </trkpt>
      <trkpt lat="44.90957" lon="5.78071">
        <ele>954</ele>
        <time>2026-07-05T10:04:10.000Z</time>
      </trkpt>
      <trkpt lat="44.90955" lon="5.78072">
        <ele>953.79998779297</ele>
        <time>2026-07-05T10:04:11.000Z</time>
      </trkpt>
      <trkpt lat="44.90952" lon="5.78072">
        <ele>953.59997558594</ele>
        <time>2026-07-05T10:04:12.000Z</time>
      </trkpt>
      <trkpt lat="44.9095" lon="5.78073">
        <ele>953.40002441406</ele>
        <time>2026-07-05T10:04:13.000Z</time>
      </trkpt>
      <trkpt lat="44.90948" lon="5.78073">
        <ele>953.40002441406</ele>
        <time>2026-07-05T10:04:14.000Z</time>
      </trkpt>
      <trkpt lat="44.90945" lon="5.78074">
        <ele>953.20001220703</ele>
        <time>2026-07-05T10:04:15.000Z</time>
      </trkpt>
      <trkpt lat="44.90943" lon="5.78075">
        <ele>953</ele>
        <time>2026-07-05T10:04:16.000Z</time>
      </trkpt>
      <trkpt lat="44.9094" lon="5.78076">
        <ele>953</ele>
        <time>2026-07-05T10:04:17.000Z</time>
      </trkpt>
      <trkpt lat="44.90938" lon="5.78076">
        <ele>952.59997558594</ele>
        <time>2026-07-05T10:04:18.000Z</time>
      </trkpt>
      <trkpt lat="44.90936" lon="5.78077">
        <ele>952.20001220703</ele>
        <time>2026-07-05T10:04:19.000Z</time>
      </trkpt>
      <trkpt lat="44.90933" lon="5.78078">
        <ele>952.20001220703</ele>
        <time>2026-07-05T10:04:20.000Z</time>
      </trkpt>
      <trkpt lat="44.90931" lon="5.78079">
        <ele>951.79998779297</ele>
        <time>2026-07-05T10:04:21.000Z</time>
      </trkpt>
      <trkpt lat="44.90929" lon="5.78081">
        <ele>951.20001220703</ele>
        <time>2026-07-05T10:04:22.000Z</time>
      </trkpt>
      <trkpt lat="44.90927" lon="5.78082">
        <ele>950.59997558594</ele>
        <time>2026-07-05T10:04:23.000Z</time>
      </trkpt>
      <trkpt lat="44.90925" lon="5.78083">
        <ele>950.40002441406</ele>
        <time>2026-07-05T10:04:24.000Z</time>
      </trkpt>
      <trkpt lat="44.90922" lon="5.78085">
        <ele>950.20001220703</ele>
        <time>2026-07-05T10:04:25.000Z</time>
      </trkpt>
      <trkpt lat="44.9092" lon="5.78086">
        <ele>950.20001220703</ele>
        <time>2026-07-05T10:04:26.000Z</time>
      </trkpt>
      <trkpt lat="44.90917" lon="5.78088">
        <ele>950</ele>
        <time>2026-07-05T10:04:27.000Z</time>
      </trkpt>
      <trkpt lat="44.90915" lon="5.78089">
        <ele>949.79998779297</ele>
        <time>2026-07-05T10:04:28.000Z</time>
      </trkpt>
      <trkpt lat="44.90912" lon="5.7809">
        <ele>949.40002441406</ele>
        <time>2026-07-05T10:04:29.000Z</time>
      </trkpt>
      <trkpt lat="44.9091" lon="5.78091">
        <ele>949.20001220703</ele>
        <time>2026-07-05T10:04:30.000Z</time>
      </trkpt>
      <trkpt lat="44.90908" lon="5.78092">
        <ele>949</ele>
        <time>2026-07-05T10:04:31.000Z</time>
      </trkpt>
      <trkpt lat="44.90905" lon="5.78094">
        <ele>948.59997558594</ele>
        <time>2026-07-05T10:04:32.000Z</time>
      </trkpt>
      <trkpt lat="44.90903" lon="5.78095">
        <ele>948.40002441406</ele>
        <time>2026-07-05T10:04:33.000Z</time>
      </trkpt>
      <trkpt lat="44.909" lon="5.78096">
        <ele>948.40002441406</ele>
        <time>2026-07-05T10:04:34.000Z</time>
      </trkpt>
      <trkpt lat="44.90897" lon="5.78097">
        <ele>948.20001220703</ele>
        <time>2026-07-05T10:04:35.000Z</time>
      </trkpt>
      <trkpt lat="44.90895" lon="5.78098">
        <ele>947.79998779297</ele>
        <time>2026-07-05T10:04:36.000Z</time>
      </trkpt>
      <trkpt lat="44.90892" lon="5.781">
        <ele>947.79998779297</ele>
        <time>2026-07-05T10:04:37.000Z</time>
      </trkpt>
      <trkpt lat="44.9089" lon="5.78101">
        <ele>947.40002441406</ele>
        <time>2026-07-05T10:04:38.000Z</time>
      </trkpt>
      <trkpt lat="44.90888" lon="5.78103">
        <ele>946.79998779297</ele>
        <time>2026-07-05T10:04:39.000Z</time>
      </trkpt>
      <trkpt lat="44.90885" lon="5.78104">
        <ele>946.59997558594</ele>
        <time>2026-07-05T10:04:40.000Z</time>
      </trkpt>
      <trkpt lat="44.90883" lon="5.78106">
        <ele>946</ele>
        <time>2026-07-05T10:04:41.000Z</time>
      </trkpt>
      <trkpt lat="44.9088" lon="5.78107">
        <ele>945.79998779297</ele>
        <time>2026-07-05T10:04:42.000Z</time>
      </trkpt>
      <trkpt lat="44.90878" lon="5.78108">
        <ele>945.20001220703</ele>
        <time>2026-07-05T10:04:43.000Z</time>
      </trkpt>
      <trkpt lat="44.90874" lon="5.78109">
        <ele>944.79998779297</ele>
        <time>2026-07-05T10:04:44.000Z</time>
      </trkpt>
      <trkpt lat="44.90872" lon="5.7811">
        <ele>944.40002441406</ele>
        <time>2026-07-05T10:04:45.000Z</time>
      </trkpt>
      <trkpt lat="44.90869" lon="5.7811">
        <ele>944.20001220703</ele>
        <time>2026-07-05T10:04:46.000Z</time>
      </trkpt>
      <trkpt lat="44.90867" lon="5.78111">
        <ele>943.79998779297</ele>
        <time>2026-07-05T10:04:47.000Z</time>
      </trkpt>
      <trkpt lat="44.90864" lon="5.78112">
        <ele>943.40002441406</ele>
        <time>2026-07-05T10:04:48.000Z</time>
      </trkpt>
      <trkpt lat="44.90862" lon="5.78114">
        <ele>943.20001220703</ele>
        <time>2026-07-05T10:04:49.000Z</time>
      </trkpt>
      <trkpt lat="44.90859" lon="5.78115">
        <ele>943</ele>
        <time>2026-07-05T10:04:50.000Z</time>
      </trkpt>
      <trkpt lat="44.90856" lon="5.78115">
        <ele>942.59997558594</ele>
        <time>2026-07-05T10:04:51.000Z</time>
      </trkpt>
      <trkpt lat="44.90854" lon="5.78116">
        <ele>942.40002441406</ele>
        <time>2026-07-05T10:04:52.000Z</time>
      </trkpt>
      <trkpt lat="44.90851" lon="5.78117">
        <ele>942.20001220703</ele>
        <time>2026-07-05T10:04:53.000Z</time>
      </trkpt>
      <trkpt lat="44.90849" lon="5.78118">
        <ele>942.20001220703</ele>
        <time>2026-07-05T10:04:54.000Z</time>
      </trkpt>
      <trkpt lat="44.90846" lon="5.78117">
        <ele>941.79998779297</ele>
        <time>2026-07-05T10:04:55.000Z</time>
      </trkpt>
      <trkpt lat="44.90844" lon="5.78117">
        <ele>941.40002441406</ele>
        <time>2026-07-05T10:04:56.000Z</time>
      </trkpt>
      <trkpt lat="44.90841" lon="5.78118">
        <ele>941</ele>
        <time>2026-07-05T10:04:57.000Z</time>
      </trkpt>
      <trkpt lat="44.90838" lon="5.78118">
        <ele>941</ele>
        <time>2026-07-05T10:04:58.000Z</time>
      </trkpt>
      <trkpt lat="44.90836" lon="5.78118">
        <ele>940.59997558594</ele>
        <time>2026-07-05T10:04:59.000Z</time>
      </trkpt>
      <trkpt lat="44.90833" lon="5.78119">
        <ele>940.40002441406</ele>
        <time>2026-07-05T10:05:00.000Z</time>
      </trkpt>
      <trkpt lat="44.9083" lon="5.78119">
        <ele>940.20001220703</ele>
        <time>2026-07-05T10:05:01.000Z</time>
      </trkpt>
      <trkpt lat="44.90827" lon="5.78119">
        <ele>939.79998779297</ele>
        <time>2026-07-05T10:05:02.000Z</time>
      </trkpt>
      <trkpt lat="44.90824" lon="5.78119">
        <ele>939.59997558594</ele>
        <time>2026-07-05T10:05:03.000Z</time>
      </trkpt>
      <trkpt lat="44.90822" lon="5.78119">
        <ele>939.40002441406</ele>
        <time>2026-07-05T10:05:04.000Z</time>
      </trkpt>
      <trkpt lat="44.90819" lon="5.78119">
        <ele>939</ele>
        <time>2026-07-05T10:05:05.000Z</time>
      </trkpt>
      <trkpt lat="44.90816" lon="5.7812">
        <ele>938.79998779297</ele>
        <time>2026-07-05T10:05:06.000Z</time>
      </trkpt>
      <trkpt lat="44.90813" lon="5.7812">
        <ele>938.40002441406</ele>
        <time>2026-07-05T10:05:07.000Z</time>
      </trkpt>
      <trkpt lat="44.9081" lon="5.7812">
        <ele>938.40002441406</ele>
        <time>2026-07-05T10:05:08.000Z</time>
      </trkpt>
      <trkpt lat="44.90808" lon="5.7812">
        <ele>938.20001220703</ele>
        <time>2026-07-05T10:05:09.000Z</time>
      </trkpt>
      <trkpt lat="44.90805" lon="5.7812">
        <ele>938.20001220703</ele>
        <time>2026-07-05T10:05:10.000Z</time>
      </trkpt>
      <trkpt lat="44.90802" lon="5.7812">
        <ele>938</ele>
        <time>2026-07-05T10:05:11.000Z</time>
      </trkpt>
      <trkpt lat="44.90799" lon="5.7812">
        <ele>937.79998779297</ele>
        <time>2026-07-05T10:05:12.000Z</time>
      </trkpt>
      <trkpt lat="44.90797" lon="5.7812">
        <ele>937.59997558594</ele>
        <time>2026-07-05T10:05:13.000Z</time>
      </trkpt>
      <trkpt lat="44.90794" lon="5.78119">
        <ele>937.40002441406</ele>
        <time>2026-07-05T10:05:14.000Z</time>
      </trkpt>
      <trkpt lat="44.90791" lon="5.78119">
        <ele>937</ele>
        <time>2026-07-05T10:05:15.000Z</time>
      </trkpt>
      <trkpt lat="44.90789" lon="5.78119">
        <ele>937</ele>
        <time>2026-07-05T10:05:16.000Z</time>
      </trkpt>
      <trkpt lat="44.90786" lon="5.78119">
        <ele>936.59997558594</ele>
        <time>2026-07-05T10:05:17.000Z</time>
      </trkpt>
      <trkpt lat="44.90783" lon="5.78119">
        <ele>936.40002441406</ele>
        <time>2026-07-05T10:05:18.000Z</time>
      </trkpt>
      <trkpt lat="44.9078" lon="5.78118">
        <ele>936.40002441406</ele>
        <time>2026-07-05T10:05:19.000Z</time>
      </trkpt>
      <trkpt lat="44.90778" lon="5.78118">
        <ele>936.20001220703</ele>
        <time>2026-07-05T10:05:20.000Z</time>
      </trkpt>
      <trkpt lat="44.90775" lon="5.78116">
        <ele>936</ele>
        <time>2026-07-05T10:05:21.000Z</time>
      </trkpt>
      <trkpt lat="44.90772" lon="5.78116">
        <ele>935.79998779297</ele>
        <time>2026-07-05T10:05:22.000Z</time>
      </trkpt>
      <trkpt lat="44.9077" lon="5.78115">
        <ele>935.40002441406</ele>
        <time>2026-07-05T10:05:23.000Z</time>
      </trkpt>
      <trkpt lat="44.90767" lon="5.78114">
        <ele>934.79998779297</ele>
        <time>2026-07-05T10:05:24.000Z</time>
      </trkpt>
      <trkpt lat="44.90764" lon="5.78113">
        <ele>934.59997558594</ele>
        <time>2026-07-05T10:05:25.000Z</time>
      </trkpt>
      <trkpt lat="44.90761" lon="5.78113">
        <ele>934.20001220703</ele>
        <time>2026-07-05T10:05:26.000Z</time>
      </trkpt>
      <trkpt lat="44.90758" lon="5.78112">
        <ele>933.79998779297</ele>
        <time>2026-07-05T10:05:27.000Z</time>
      </trkpt>
      <trkpt lat="44.90756" lon="5.78111">
        <ele>933.59997558594</ele>
        <time>2026-07-05T10:05:28.000Z</time>
      </trkpt>
      <trkpt lat="44.90753" lon="5.78111">
        <ele>933.20001220703</ele>
        <time>2026-07-05T10:05:29.000Z</time>
      </trkpt>
      <trkpt lat="44.9075" lon="5.7811">
        <ele>933</ele>
        <time>2026-07-05T10:05:30.000Z</time>
      </trkpt>
      <trkpt lat="44.90748" lon="5.7811">
        <ele>932.59997558594</ele>
        <time>2026-07-05T10:05:31.000Z</time>
      </trkpt>
      <trkpt lat="44.90745" lon="5.7811">
        <ele>932.20001220703</ele>
        <time>2026-07-05T10:05:32.000Z</time>
      </trkpt>
      <trkpt lat="44.90742" lon="5.78109">
        <ele>932</ele>
        <time>2026-07-05T10:05:33.000Z</time>
      </trkpt>
      <trkpt lat="44.90739" lon="5.78109">
        <ele>931.40002441406</ele>
        <time>2026-07-05T10:05:34.000Z</time>
      </trkpt>
      <trkpt lat="44.90736" lon="5.78108">
        <ele>931</ele>
        <time>2026-07-05T10:05:35.000Z</time>
      </trkpt>
      <trkpt lat="44.90733" lon="5.78109">
        <ele>930.59997558594</ele>
        <time>2026-07-05T10:05:36.000Z</time>
      </trkpt>
      <trkpt lat="44.9073" lon="5.78108">
        <ele>930</ele>
        <time>2026-07-05T10:05:37.000Z</time>
      </trkpt>
      <trkpt lat="44.90728" lon="5.78108">
        <ele>929.59997558594</ele>
        <time>2026-07-05T10:05:38.000Z</time>
      </trkpt>
      <trkpt lat="44.90724" lon="5.78107">
        <ele>929.20001220703</ele>
        <time>2026-07-05T10:05:39.000Z</time>
      </trkpt>
      <trkpt lat="44.90722" lon="5.78107">
        <ele>928.79998779297</ele>
        <time>2026-07-05T10:05:40.000Z</time>
      </trkpt>
      <trkpt lat="44.90719" lon="5.78106">
        <ele>928.20001220703</ele>
        <time>2026-07-05T10:05:41.000Z</time>
      </trkpt>
      <trkpt lat="44.90716" lon="5.78105">
        <ele>927.79998779297</ele>
        <time>2026-07-05T10:05:42.000Z</time>
      </trkpt>
      <trkpt lat="44.90713" lon="5.78104">
        <ele>927.40002441406</ele>
        <time>2026-07-05T10:05:43.000Z</time>
      </trkpt>
      <trkpt lat="44.90711" lon="5.78103">
        <ele>927</ele>
        <time>2026-07-05T10:05:44.000Z</time>
      </trkpt>
      <trkpt lat="44.90709" lon="5.78102">
        <ele>926.79998779297</ele>
        <time>2026-07-05T10:05:45.000Z</time>
      </trkpt>
      <trkpt lat="44.90706" lon="5.78101">
        <ele>926.59997558594</ele>
        <time>2026-07-05T10:05:46.000Z</time>
      </trkpt>
      <trkpt lat="44.90704" lon="5.781">
        <ele>926.59997558594</ele>
        <time>2026-07-05T10:05:47.000Z</time>
      </trkpt>
      <trkpt lat="44.90702" lon="5.78099">
        <ele>926.40002441406</ele>
        <time>2026-07-05T10:05:48.000Z</time>
      </trkpt>
      <trkpt lat="44.907" lon="5.78098">
        <ele>926.20001220703</ele>
        <time>2026-07-05T10:05:49.000Z</time>
      </trkpt>
      <trkpt lat="44.90699" lon="5.78097">
        <ele>926</ele>
        <time>2026-07-05T10:05:50.000Z</time>
      </trkpt>
      <trkpt lat="44.90698" lon="5.78097">
        <ele>925.59997558594</ele>
        <time>2026-07-05T10:05:51.000Z</time>
      </trkpt>
      <trkpt lat="44.90696" lon="5.78097">
        <ele>925.40002441406</ele>
        <time>2026-07-05T10:05:52.000Z</time>
      </trkpt>
      <trkpt lat="44.90695" lon="5.78097">
        <ele>925</ele>
        <time>2026-07-05T10:05:53.000Z</time>
      </trkpt>
      <trkpt lat="44.90695" lon="5.78097">
        <ele>924.79998779297</ele>
        <time>2026-07-05T10:05:54.000Z</time>
      </trkpt>
      <trkpt lat="44.90694" lon="5.78099">
        <ele>924.59997558594</ele>
        <time>2026-07-05T10:05:55.000Z</time>
      </trkpt>
      <trkpt lat="44.90694" lon="5.781">
        <ele>924.20001220703</ele>
        <time>2026-07-05T10:05:56.000Z</time>
      </trkpt>
      <trkpt lat="44.90694" lon="5.78101">
        <ele>923.59997558594</ele>
        <time>2026-07-05T10:05:57.000Z</time>
      </trkpt>
      <trkpt lat="44.90696" lon="5.78103">
        <ele>923</ele>
        <time>2026-07-05T10:05:58.000Z</time>
      </trkpt>
      <trkpt lat="44.90697" lon="5.78105">
        <ele>922.40002441406</ele>
        <time>2026-07-05T10:05:59.000Z</time>
      </trkpt>
      <trkpt lat="44.90699" lon="5.78107">
        <ele>922.20001220703</ele>
        <time>2026-07-05T10:06:00.000Z</time>
      </trkpt>
      <trkpt lat="44.90702" lon="5.78108">
        <ele>921.79998779297</ele>
        <time>2026-07-05T10:06:01.000Z</time>
      </trkpt>
      <trkpt lat="44.90704" lon="5.78109">
        <ele>921.59997558594</ele>
        <time>2026-07-05T10:06:02.000Z</time>
      </trkpt>
      <trkpt lat="44.90706" lon="5.7811">
        <ele>921.59997558594</ele>
        <time>2026-07-05T10:06:03.000Z</time>
      </trkpt>
      <trkpt lat="44.90708" lon="5.78112">
        <ele>921.79998779297</ele>
        <time>2026-07-05T10:06:04.000Z</time>
      </trkpt>
      <trkpt lat="44.90711" lon="5.78114">
        <ele>922</ele>
        <time>2026-07-05T10:06:05.000Z</time>
      </trkpt>
      <trkpt lat="44.90713" lon="5.78116">
        <ele>922</ele>
        <time>2026-07-05T10:06:06.000Z</time>
      </trkpt>
      <trkpt lat="44.90715" lon="5.78118">
        <ele>922</ele>
        <time>2026-07-05T10:06:07.000Z</time>
      </trkpt>
      <trkpt lat="44.90717" lon="5.78119">
        <ele>922</ele>
        <time>2026-07-05T10:06:08.000Z</time>
      </trkpt>
      <trkpt lat="44.90719" lon="5.78121">
        <ele>921.79998779297</ele>
        <time>2026-07-05T10:06:09.000Z</time>
      </trkpt>
      <trkpt lat="44.90721" lon="5.78124">
        <ele>921.79998779297</ele>
        <time>2026-07-05T10:06:10.000Z</time>
      </trkpt>
      <trkpt lat="44.90723" lon="5.78126">
        <ele>921.59997558594</ele>
        <time>2026-07-05T10:06:11.000Z</time>
      </trkpt>
      <trkpt lat="44.90725" lon="5.78128">
        <ele>921.40002441406</ele>
        <time>2026-07-05T10:06:12.000Z</time>
      </trkpt>
      <trkpt lat="44.90727" lon="5.78129">
        <ele>921</ele>
        <time>2026-07-05T10:06:13.000Z</time>
      </trkpt>
      <trkpt lat="44.90729" lon="5.7813">
        <ele>920.79998779297</ele>
        <time>2026-07-05T10:06:14.000Z</time>
      </trkpt>
      <trkpt lat="44.9073" lon="5.78131">
        <ele>920.59997558594</ele>
        <time>2026-07-05T10:06:15.000Z</time>
      </trkpt>
      <trkpt lat="44.90732" lon="5.78133">
        <ele>920.40002441406</ele>
        <time>2026-07-05T10:06:16.000Z</time>
      </trkpt>
      <trkpt lat="44.90734" lon="5.78135">
        <ele>920</ele>
        <time>2026-07-05T10:06:17.000Z</time>
      </trkpt>
      <trkpt lat="44.90736" lon="5.78137">
        <ele>919.59997558594</ele>
        <time>2026-07-05T10:06:18.000Z</time>
      </trkpt>
      <trkpt lat="44.90737" lon="5.78139">
        <ele>919.59997558594</ele>
        <time>2026-07-05T10:06:19.000Z</time>
      </trkpt>
      <trkpt lat="44.9074" lon="5.78141">
        <ele>919.20001220703</ele>
        <time>2026-07-05T10:06:20.000Z</time>
      </trkpt>
      <trkpt lat="44.90742" lon="5.78143">
        <ele>919</ele>
        <time>2026-07-05T10:06:21.000Z</time>
      </trkpt>
      <trkpt lat="44.90744" lon="5.78144">
        <ele>918.59997558594</ele>
        <time>2026-07-05T10:06:22.000Z</time>
      </trkpt>
      <trkpt lat="44.90747" lon="5.78146">
        <ele>918.40002441406</ele>
        <time>2026-07-05T10:06:23.000Z</time>
      </trkpt>
      <trkpt lat="44.90749" lon="5.78147">
        <ele>918</ele>
        <time>2026-07-05T10:06:24.000Z</time>
      </trkpt>
      <trkpt lat="44.90751" lon="5.78148">
        <ele>918</ele>
        <time>2026-07-05T10:06:25.000Z</time>
      </trkpt>
      <trkpt lat="44.90753" lon="5.7815">
        <ele>917.79998779297</ele>
        <time>2026-07-05T10:06:26.000Z</time>
      </trkpt>
      <trkpt lat="44.90756" lon="5.78151">
        <ele>917.40002441406</ele>
        <time>2026-07-05T10:06:27.000Z</time>
      </trkpt>
      <trkpt lat="44.90758" lon="5.78153">
        <ele>917.20001220703</ele>
        <time>2026-07-05T10:06:28.000Z</time>
      </trkpt>
      <trkpt lat="44.9076" lon="5.78155">
        <ele>916.59997558594</ele>
        <time>2026-07-05T10:06:29.000Z</time>
      </trkpt>
      <trkpt lat="44.90762" lon="5.78157">
        <ele>916.20001220703</ele>
        <time>2026-07-05T10:06:30.000Z</time>
      </trkpt>
      <trkpt lat="44.90764" lon="5.78158">
        <ele>915.40002441406</ele>
        <time>2026-07-05T10:06:31.000Z</time>
      </trkpt>
      <trkpt lat="44.90766" lon="5.78161">
        <ele>915</ele>
        <time>2026-07-05T10:06:32.000Z</time>
      </trkpt>
      <trkpt lat="44.90768" lon="5.78162">
        <ele>914.40002441406</ele>
        <time>2026-07-05T10:06:33.000Z</time>
      </trkpt>
      <trkpt lat="44.9077" lon="5.78164">
        <ele>914</ele>
        <time>2026-07-05T10:06:34.000Z</time>
      </trkpt>
      <trkpt lat="44.90772" lon="5.78166">
        <ele>913.59997558594</ele>
        <time>2026-07-05T10:06:35.000Z</time>
      </trkpt>
      <trkpt lat="44.90774" lon="5.78167">
        <ele>913.20001220703</ele>
        <time>2026-07-05T10:06:36.000Z</time>
      </trkpt>
      <trkpt lat="44.90777" lon="5.78168">
        <ele>913</ele>
        <time>2026-07-05T10:06:37.000Z</time>
      </trkpt>
      <trkpt lat="44.90779" lon="5.7817">
        <ele>912.79998779297</ele>
        <time>2026-07-05T10:06:38.000Z</time>
      </trkpt>
      <trkpt lat="44.90781" lon="5.78171">
        <ele>912.59997558594</ele>
        <time>2026-07-05T10:06:39.000Z</time>
      </trkpt>
      <trkpt lat="44.90784" lon="5.78172">
        <ele>912.59997558594</ele>
        <time>2026-07-05T10:06:40.000Z</time>
      </trkpt>
      <trkpt lat="44.90786" lon="5.78172">
        <ele>912.40002441406</ele>
        <time>2026-07-05T10:06:41.000Z</time>
      </trkpt>
      <trkpt lat="44.90789" lon="5.78173">
        <ele>912.40002441406</ele>
        <time>2026-07-05T10:06:42.000Z</time>
      </trkpt>
      <trkpt lat="44.90791" lon="5.78173">
        <ele>912.20001220703</ele>
        <time>2026-07-05T10:06:43.000Z</time>
      </trkpt>
      <trkpt lat="44.90793" lon="5.78174">
        <ele>912.20001220703</ele>
        <time>2026-07-05T10:06:44.000Z</time>
      </trkpt>
      <trkpt lat="44.90795" lon="5.78176">
        <ele>912</ele>
        <time>2026-07-05T10:06:45.000Z</time>
      </trkpt>
      <trkpt lat="44.90797" lon="5.78176">
        <ele>911.79998779297</ele>
        <time>2026-07-05T10:06:46.000Z</time>
      </trkpt>
      <trkpt lat="44.908" lon="5.78177">
        <ele>911.40002441406</ele>
        <time>2026-07-05T10:06:47.000Z</time>
      </trkpt>
      <trkpt lat="44.90802" lon="5.78177">
        <ele>911.20001220703</ele>
        <time>2026-07-05T10:06:48.000Z</time>
      </trkpt>
      <trkpt lat="44.90805" lon="5.78178">
        <ele>910.40002441406</ele>
        <time>2026-07-05T10:06:49.000Z</time>
      </trkpt>
      <trkpt lat="44.90808" lon="5.78179">
        <ele>910.20001220703</ele>
        <time>2026-07-05T10:06:50.000Z</time>
      </trkpt>
      <trkpt lat="44.9081" lon="5.78181">
        <ele>910</ele>
        <time>2026-07-05T10:06:51.000Z</time>
      </trkpt>
      <trkpt lat="44.90813" lon="5.78182">
        <ele>910</ele>
        <time>2026-07-05T10:06:52.000Z</time>
      </trkpt>
      <trkpt lat="44.90815" lon="5.78183">
        <ele>910</ele>
        <time>2026-07-05T10:06:53.000Z</time>
      </trkpt>
      <trkpt lat="44.90818" lon="5.78184">
        <ele>910</ele>
        <time>2026-07-05T10:06:54.000Z</time>
      </trkpt>
      <trkpt lat="44.9082" lon="5.78185">
        <ele>909.79998779297</ele>
        <time>2026-07-05T10:06:55.000Z</time>
      </trkpt>
      <trkpt lat="44.90822" lon="5.78186">
        <ele>909.40002441406</ele>
        <time>2026-07-05T10:06:56.000Z</time>
      </trkpt>
      <trkpt lat="44.90825" lon="5.78188">
        <ele>909</ele>
        <time>2026-07-05T10:06:57.000Z</time>
      </trkpt>
      <trkpt lat="44.90828" lon="5.7819">
        <ele>909</ele>
        <time>2026-07-05T10:06:58.000Z</time>
      </trkpt>
      <trkpt lat="44.9083" lon="5.78191">
        <ele>908.59997558594</ele>
        <time>2026-07-05T10:06:59.000Z</time>
      </trkpt>
      <trkpt lat="44.90833" lon="5.78192">
        <ele>908.20001220703</ele>
        <time>2026-07-05T10:07:00.000Z</time>
      </trkpt>
      <trkpt lat="44.90835" lon="5.78192">
        <ele>907.79998779297</ele>
        <time>2026-07-05T10:07:01.000Z</time>
      </trkpt>
      <trkpt lat="44.90838" lon="5.78193">
        <ele>907.40002441406</ele>
        <time>2026-07-05T10:07:02.000Z</time>
      </trkpt>
      <trkpt lat="44.90841" lon="5.78194">
        <ele>907.40002441406</ele>
        <time>2026-07-05T10:07:03.000Z</time>
      </trkpt>
      <trkpt lat="44.90843" lon="5.78194">
        <ele>907</ele>
        <time>2026-07-05T10:07:04.000Z</time>
      </trkpt>
      <trkpt lat="44.90846" lon="5.78195">
        <ele>906.79998779297</ele>
        <time>2026-07-05T10:07:05.000Z</time>
      </trkpt>
      <trkpt lat="44.90848" lon="5.78196">
        <ele>906.59997558594</ele>
        <time>2026-07-05T10:07:06.000Z</time>
      </trkpt>
      <trkpt lat="44.90851" lon="5.78196">
        <ele>906.40002441406</ele>
        <time>2026-07-05T10:07:07.000Z</time>
      </trkpt>
      <trkpt lat="44.90853" lon="5.78197">
        <ele>906.40002441406</ele>
        <time>2026-07-05T10:07:08.000Z</time>
      </trkpt>
      <trkpt lat="44.90856" lon="5.78198">
        <ele>906.20001220703</ele>
        <time>2026-07-05T10:07:09.000Z</time>
      </trkpt>
      <trkpt lat="44.90858" lon="5.78199">
        <ele>905.79998779297</ele>
        <time>2026-07-05T10:07:10.000Z</time>
      </trkpt>
      <trkpt lat="44.9086" lon="5.782">
        <ele>905.40002441406</ele>
        <time>2026-07-05T10:07:11.000Z</time>
      </trkpt>
      <trkpt lat="44.90862" lon="5.782">
        <ele>905</ele>
        <time>2026-07-05T10:07:12.000Z</time>
      </trkpt>
      <trkpt lat="44.90864" lon="5.78201">
        <ele>904.40002441406</ele>
        <time>2026-07-05T10:07:13.000Z</time>
      </trkpt>
      <trkpt lat="44.90866" lon="5.78201">
        <ele>904.20001220703</ele>
        <time>2026-07-05T10:07:14.000Z</time>
      </trkpt>
      <trkpt lat="44.90868" lon="5.78202">
        <ele>904</ele>
        <time>2026-07-05T10:07:15.000Z</time>
      </trkpt>
      <trkpt lat="44.9087" lon="5.78203">
        <ele>903.79998779297</ele>
        <time>2026-07-05T10:07:16.000Z</time>
      </trkpt>
      <trkpt lat="44.90873" lon="5.78203">
        <ele>903.59997558594</ele>
        <time>2026-07-05T10:07:17.000Z</time>
      </trkpt>
      <trkpt lat="44.90875" lon="5.78203">
        <ele>903.59997558594</ele>
        <time>2026-07-05T10:07:18.000Z</time>
      </trkpt>
      <trkpt lat="44.90877" lon="5.78203">
        <ele>903.40002441406</ele>
        <time>2026-07-05T10:07:19.000Z</time>
      </trkpt>
      <trkpt lat="44.9088" lon="5.78203">
        <ele>903.40002441406</ele>
        <time>2026-07-05T10:07:20.000Z</time>
      </trkpt>
      <trkpt lat="44.90882" lon="5.78204">
        <ele>903.40002441406</ele>
        <time>2026-07-05T10:07:21.000Z</time>
      </trkpt>
      <trkpt lat="44.90884" lon="5.78205">
        <ele>903.40002441406</ele>
        <time>2026-07-05T10:07:22.000Z</time>
      </trkpt>
      <trkpt lat="44.90887" lon="5.78205">
        <ele>903</ele>
        <time>2026-07-05T10:07:23.000Z</time>
      </trkpt>
      <trkpt lat="44.90889" lon="5.78205">
        <ele>902.59997558594</ele>
        <time>2026-07-05T10:07:24.000Z</time>
      </trkpt>
      <trkpt lat="44.90891" lon="5.78206">
        <ele>902.20001220703</ele>
        <time>2026-07-05T10:07:25.000Z</time>
      </trkpt>
      <trkpt lat="44.90893" lon="5.78208">
        <ele>902</ele>
        <time>2026-07-05T10:07:26.000Z</time>
      </trkpt>
      <trkpt lat="44.90895" lon="5.78209">
        <ele>901.59997558594</ele>
        <time>2026-07-05T10:07:27.000Z</time>
      </trkpt>
      <trkpt lat="44.90897" lon="5.78209">
        <ele>901.40002441406</ele>
        <time>2026-07-05T10:07:28.000Z</time>
      </trkpt>
      <trkpt lat="44.909" lon="5.7821">
        <ele>901.20001220703</ele>
        <time>2026-07-05T10:07:29.000Z</time>
      </trkpt>
      <trkpt lat="44.90902" lon="5.7821">
        <ele>901</ele>
        <time>2026-07-05T10:07:30.000Z</time>
      </trkpt>
      <trkpt lat="44.90905" lon="5.78211">
        <ele>900.59997558594</ele>
        <time>2026-07-05T10:07:31.000Z</time>
      </trkpt>
      <trkpt lat="44.90908" lon="5.78211">
        <ele>900.20001220703</ele>
        <time>2026-07-05T10:07:32.000Z</time>
      </trkpt>
      <trkpt lat="44.90911" lon="5.78212">
        <ele>899.79998779297</ele>
        <time>2026-07-05T10:07:33.000Z</time>
      </trkpt>
      <trkpt lat="44.90913" lon="5.78213">
        <ele>899.59997558594</ele>
        <time>2026-07-05T10:07:34.000Z</time>
      </trkpt>
      <trkpt lat="44.90916" lon="5.78213">
        <ele>899.40002441406</ele>
        <time>2026-07-05T10:07:35.000Z</time>
      </trkpt>
      <trkpt lat="44.90919" lon="5.78214">
        <ele>899.40002441406</ele>
        <time>2026-07-05T10:07:36.000Z</time>
      </trkpt>
      <trkpt lat="44.90921" lon="5.78214">
        <ele>898.59997558594</ele>
        <time>2026-07-05T10:07:37.000Z</time>
      </trkpt>
      <trkpt lat="44.90923" lon="5.78215">
        <ele>898.20001220703</ele>
        <time>2026-07-05T10:07:38.000Z</time>
      </trkpt>
      <trkpt lat="44.90926" lon="5.78215">
        <ele>897.79998779297</ele>
        <time>2026-07-05T10:07:39.000Z</time>
      </trkpt>
      <trkpt lat="44.90929" lon="5.78215">
        <ele>897.59997558594</ele>
        <time>2026-07-05T10:07:40.000Z</time>
      </trkpt>
      <trkpt lat="44.90932" lon="5.78216">
        <ele>897.20001220703</ele>
        <time>2026-07-05T10:07:41.000Z</time>
      </trkpt>
      <trkpt lat="44.90934" lon="5.78217">
        <ele>896.79998779297</ele>
        <time>2026-07-05T10:07:42.000Z</time>
      </trkpt>
      <trkpt lat="44.90937" lon="5.78218">
        <ele>896.59997558594</ele>
        <time>2026-07-05T10:07:43.000Z</time>
      </trkpt>
      <trkpt lat="44.9094" lon="5.7822">
        <ele>896.20001220703</ele>
        <time>2026-07-05T10:07:44.000Z</time>
      </trkpt>
      <trkpt lat="44.90943" lon="5.78222">
        <ele>895.79998779297</ele>
        <time>2026-07-05T10:07:45.000Z</time>
      </trkpt>
      <trkpt lat="44.90946" lon="5.78224">
        <ele>895.20001220703</ele>
        <time>2026-07-05T10:07:46.000Z</time>
      </trkpt>
      <trkpt lat="44.90948" lon="5.78226">
        <ele>895</ele>
        <time>2026-07-05T10:07:47.000Z</time>
      </trkpt>
      <trkpt lat="44.90951" lon="5.78227">
        <ele>894.79998779297</ele>
        <time>2026-07-05T10:07:48.000Z</time>
      </trkpt>
      <trkpt lat="44.90953" lon="5.78229">
        <ele>894.59997558594</ele>
        <time>2026-07-05T10:07:49.000Z</time>
      </trkpt>
      <trkpt lat="44.90956" lon="5.7823">
        <ele>894.59997558594</ele>
        <time>2026-07-05T10:07:50.000Z</time>
      </trkpt>
      <trkpt lat="44.90959" lon="5.78232">
        <ele>895</ele>
        <time>2026-07-05T10:07:51.000Z</time>
      </trkpt>
      <trkpt lat="44.90962" lon="5.78234">
        <ele>894.79998779297</ele>
        <time>2026-07-05T10:07:52.000Z</time>
      </trkpt>
      <trkpt lat="44.90964" lon="5.78235">
        <ele>894.59997558594</ele>
        <time>2026-07-05T10:07:53.000Z</time>
      </trkpt>
      <trkpt lat="44.90966" lon="5.78236">
        <ele>894.40002441406</ele>
        <time>2026-07-05T10:07:54.000Z</time>
      </trkpt>
      <trkpt lat="44.90969" lon="5.78238">
        <ele>894</ele>
        <time>2026-07-05T10:07:55.000Z</time>
      </trkpt>
      <trkpt lat="44.90971" lon="5.78238">
        <ele>893.40002441406</ele>
        <time>2026-07-05T10:07:56.000Z</time>
      </trkpt>
      <trkpt lat="44.90974" lon="5.78239">
        <ele>893</ele>
        <time>2026-07-05T10:07:57.000Z</time>
      </trkpt>
      <trkpt lat="44.90976" lon="5.7824">
        <ele>892.79998779297</ele>
        <time>2026-07-05T10:07:58.000Z</time>
      </trkpt>
      <trkpt lat="44.90979" lon="5.78241">
        <ele>892.59997558594</ele>
        <time>2026-07-05T10:07:59.000Z</time>
      </trkpt>
      <trkpt lat="44.90981" lon="5.78244">
        <ele>892.20001220703</ele>
        <time>2026-07-05T10:08:00.000Z</time>
      </trkpt>
      <trkpt lat="44.90983" lon="5.78246">
        <ele>892</ele>
        <time>2026-07-05T10:08:01.000Z</time>
      </trkpt>
      <trkpt lat="44.90986" lon="5.78249">
        <ele>891.59997558594</ele>
        <time>2026-07-05T10:08:02.000Z</time>
      </trkpt>
      <trkpt lat="44.90989" lon="5.78251">
        <ele>891.40002441406</ele>
        <time>2026-07-05T10:08:03.000Z</time>
      </trkpt>
      <trkpt lat="44.90991" lon="5.78254">
        <ele>891.20001220703</ele>
        <time>2026-07-05T10:08:04.000Z</time>
      </trkpt>
      <trkpt lat="44.90992" lon="5.78256">
        <ele>891</ele>
        <time>2026-07-05T10:08:05.000Z</time>
      </trkpt>
      <trkpt lat="44.90994" lon="5.78259">
        <ele>891</ele>
        <time>2026-07-05T10:08:06.000Z</time>
      </trkpt>
      <trkpt lat="44.90996" lon="5.78262">
        <ele>890.79998779297</ele>
        <time>2026-07-05T10:08:07.000Z</time>
      </trkpt>
      <trkpt lat="44.90998" lon="5.78265">
        <ele>890.79998779297</ele>
        <time>2026-07-05T10:08:08.000Z</time>
      </trkpt>
      <trkpt lat="44.90999" lon="5.78268">
        <ele>890.59997558594</ele>
        <time>2026-07-05T10:08:09.000Z</time>
      </trkpt>
      <trkpt lat="44.90999" lon="5.78272">
        <ele>890.40002441406</ele>
        <time>2026-07-05T10:08:10.000Z</time>
      </trkpt>
      <trkpt lat="44.90998" lon="5.78276">
        <ele>890.20001220703</ele>
        <time>2026-07-05T10:08:11.000Z</time>
      </trkpt>
      <trkpt lat="44.90997" lon="5.7828">
        <ele>889.79998779297</ele>
        <time>2026-07-05T10:08:12.000Z</time>
      </trkpt>
      <trkpt lat="44.90997" lon="5.78285">
        <ele>889.59997558594</ele>
        <time>2026-07-05T10:08:13.000Z</time>
      </trkpt>
      <trkpt lat="44.90996" lon="5.78289">
        <ele>889.20001220703</ele>
        <time>2026-07-05T10:08:14.000Z</time>
      </trkpt>
      <trkpt lat="44.90997" lon="5.78293">
        <ele>889.20001220703</ele>
        <time>2026-07-05T10:08:15.000Z</time>
      </trkpt>
      <trkpt lat="44.90998" lon="5.78296">
        <ele>889.20001220703</ele>
        <time>2026-07-05T10:08:16.000Z</time>
      </trkpt>
      <trkpt lat="44.91" lon="5.78299">
        <ele>889.20001220703</ele>
        <time>2026-07-05T10:08:17.000Z</time>
      </trkpt>
      <trkpt lat="44.91003" lon="5.783">
        <ele>889.40002441406</ele>
        <time>2026-07-05T10:08:18.000Z</time>
      </trkpt>
      <trkpt lat="44.91005" lon="5.78301">
        <ele>889.40002441406</ele>
        <time>2026-07-05T10:08:19.000Z</time>
      </trkpt>
      <trkpt lat="44.91009" lon="5.783">
        <ele>889.40002441406</ele>
        <time>2026-07-05T10:08:20.000Z</time>
      </trkpt>
      <trkpt lat="44.91012" lon="5.78301">
        <ele>889.40002441406</ele>
        <time>2026-07-05T10:08:21.000Z</time>
      </trkpt>
      <trkpt lat="44.91015" lon="5.78301">
        <ele>889.20001220703</ele>
        <time>2026-07-05T10:08:22.000Z</time>
      </trkpt>
      <trkpt lat="44.91019" lon="5.78302">
        <ele>889.20001220703</ele>
        <time>2026-07-05T10:08:23.000Z</time>
      </trkpt>
      <trkpt lat="44.91021" lon="5.78303">
        <ele>889</ele>
        <time>2026-07-05T10:08:24.000Z</time>
      </trkpt>
      <trkpt lat="44.91023" lon="5.78306">
        <ele>888.79998779297</ele>
        <time>2026-07-05T10:08:25.000Z</time>
      </trkpt>
      <trkpt lat="44.91026" lon="5.78308">
        <ele>888.79998779297</ele>
        <time>2026-07-05T10:08:26.000Z</time>
      </trkpt>
      <trkpt lat="44.91029" lon="5.78309">
        <ele>888.59997558594</ele>
        <time>2026-07-05T10:08:27.000Z</time>
      </trkpt>
      <trkpt lat="44.91032" lon="5.78309">
        <ele>888.59997558594</ele>
        <time>2026-07-05T10:08:28.000Z</time>
      </trkpt>
      <trkpt lat="44.91035" lon="5.78309">
        <ele>888.59997558594</ele>
        <time>2026-07-05T10:08:29.000Z</time>
      </trkpt>
      <trkpt lat="44.91038" lon="5.78309">
        <ele>888.79998779297</ele>
        <time>2026-07-05T10:08:30.000Z</time>
      </trkpt>
      <trkpt lat="44.91042" lon="5.78309">
        <ele>888.79998779297</ele>
        <time>2026-07-05T10:08:31.000Z</time>
      </trkpt>
      <trkpt lat="44.91045" lon="5.78309">
        <ele>888.79998779297</ele>
        <time>2026-07-05T10:08:32.000Z</time>
      </trkpt>
      <trkpt lat="44.91049" lon="5.78309">
        <ele>888.79998779297</ele>
        <time>2026-07-05T10:08:33.000Z</time>
      </trkpt>
      <trkpt lat="44.91052" lon="5.78309">
        <ele>888.79998779297</ele>
        <time>2026-07-05T10:08:34.000Z</time>
      </trkpt>
      <trkpt lat="44.91056" lon="5.7831">
        <ele>888.79998779297</ele>
        <time>2026-07-05T10:08:35.000Z</time>
      </trkpt>
      <trkpt lat="44.91059" lon="5.7831">
        <ele>888.79998779297</ele>
        <time>2026-07-05T10:08:36.000Z</time>
      </trkpt>
      <trkpt lat="44.91063" lon="5.7831">
        <ele>889</ele>
        <time>2026-07-05T10:08:37.000Z</time>
      </trkpt>
      <trkpt lat="44.91066" lon="5.7831">
        <ele>889</ele>
        <time>2026-07-05T10:08:38.000Z</time>
      </trkpt>
      <trkpt lat="44.91069" lon="5.7831">
        <ele>889</ele>
        <time>2026-07-05T10:08:39.000Z</time>
      </trkpt>
      <trkpt lat="44.91073" lon="5.7831">
        <ele>889</ele>
        <time>2026-07-05T10:08:40.000Z</time>
      </trkpt>
      <trkpt lat="44.91076" lon="5.7831">
        <ele>889.20001220703</ele>
        <time>2026-07-05T10:08:41.000Z</time>
      </trkpt>
      <trkpt lat="44.9108" lon="5.7831">
        <ele>889</ele>
        <time>2026-07-05T10:08:42.000Z</time>
      </trkpt>
      <trkpt lat="44.91084" lon="5.78311">
        <ele>888.79998779297</ele>
        <time>2026-07-05T10:08:43.000Z</time>
      </trkpt>
    </trkseg>
  </trk>
</gpx>